<?xml version="1.0" encoding="UTF-8" standalone="no" ?>
<gpx xmlns="http://www.topografix.com/GPX/1/1" xmlns:xsi="http://www.w3.org/2001/XMLSchema-instance" xsi:schemaLocation="http://www.topografix.com/GPX/1/1 http://www.topografix.com/GPX/1/1/gpx.xsd" version="1.1" creator="VisuGPX - https://www.visugpx.com">
  <metadata>
    <name>ski Tour du Puy Gris (Fischer travers TS)</name>
  </metadata>
  <trk>
    <name><![CDATA[ski Tour du Puy Gris (Fischer travers TS)]]></name>
    <extensions>
      <line xmlns="http://www.topografix.com/GPX/gpx_style/0/2">
        <color>0000FF</color>
        <width>4</width>
      </line>
    </extensions>
    <trkseg>
      <trkpt lat="45.29019" lon="6.21716">
        <ele>1169.4000244141</ele>
        <time>2020-12-16T07:31:06.000Z</time>
      </trkpt>
      <trkpt lat="45.29019" lon="6.21717">
        <ele>1168.5999755859</ele>
        <time>2020-12-16T07:31:14.000Z</time>
      </trkpt>
      <trkpt lat="45.29019" lon="6.21717">
        <ele>1168.4000244141</ele>
        <time>2020-12-16T07:31:15.000Z</time>
      </trkpt>
      <trkpt lat="45.29019" lon="6.21717">
        <ele>1167</ele>
        <time>2020-12-16T07:31:19.000Z</time>
      </trkpt>
      <trkpt lat="45.29019" lon="6.21717">
        <ele>1167.8000488281</ele>
        <time>2020-12-16T07:31:26.000Z</time>
      </trkpt>
      <trkpt lat="45.29019" lon="6.21717">
        <ele>1168.1999511719</ele>
        <time>2020-12-16T07:31:27.000Z</time>
      </trkpt>
      <trkpt lat="45.29019" lon="6.21717">
        <ele>1167.5999755859</ele>
        <time>2020-12-16T07:31:37.000Z</time>
      </trkpt>
      <trkpt lat="45.29019" lon="6.21717">
        <ele>1167.8000488281</ele>
        <time>2020-12-16T07:31:52.000Z</time>
      </trkpt>
      <trkpt lat="45.29019" lon="6.21718">
        <ele>1167.8000488281</ele>
        <time>2020-12-16T07:32:14.000Z</time>
      </trkpt>
      <trkpt lat="45.29019" lon="6.21718">
        <ele>1168</ele>
        <time>2020-12-16T07:32:32.000Z</time>
      </trkpt>
      <trkpt lat="45.29019" lon="6.21718">
        <ele>1168</ele>
        <time>2020-12-16T07:32:50.000Z</time>
      </trkpt>
      <trkpt lat="45.29019" lon="6.21718">
        <ele>1168.1999511719</ele>
        <time>2020-12-16T07:32:58.000Z</time>
      </trkpt>
      <trkpt lat="45.29017" lon="6.2172">
        <ele>1167.8000488281</ele>
        <time>2020-12-16T07:33:05.000Z</time>
      </trkpt>
      <trkpt lat="45.29017" lon="6.2172">
        <ele>1169.1999511719</ele>
        <time>2020-12-16T07:33:12.000Z</time>
      </trkpt>
      <trkpt lat="45.29017" lon="6.2172">
        <ele>1169.4000244141</ele>
        <time>2020-12-16T07:33:13.000Z</time>
      </trkpt>
      <trkpt lat="45.29017" lon="6.2172">
        <ele>1169.1999511719</ele>
        <time>2020-12-16T07:33:25.000Z</time>
      </trkpt>
      <trkpt lat="45.29017" lon="6.2172">
        <ele>1169.1999511719</ele>
        <time>2020-12-16T07:33:31.000Z</time>
      </trkpt>
      <trkpt lat="45.29017" lon="6.2172">
        <ele>1169.1999511719</ele>
        <time>2020-12-16T07:33:48.000Z</time>
      </trkpt>
      <trkpt lat="45.29016" lon="6.2172">
        <ele>1169.1999511719</ele>
        <time>2020-12-16T07:33:55.000Z</time>
      </trkpt>
      <trkpt lat="45.29016" lon="6.2172">
        <ele>1169.4000244141</ele>
        <time>2020-12-16T07:34:06.000Z</time>
      </trkpt>
      <trkpt lat="45.29016" lon="6.2172">
        <ele>1169.4000244141</ele>
        <time>2020-12-16T07:34:22.000Z</time>
      </trkpt>
      <trkpt lat="45.29016" lon="6.2172">
        <ele>1169.4000244141</ele>
        <time>2020-12-16T07:34:35.000Z</time>
      </trkpt>
      <trkpt lat="45.29016" lon="6.2172">
        <ele>1169.4000244141</ele>
        <time>2020-12-16T07:34:50.000Z</time>
      </trkpt>
      <trkpt lat="45.29016" lon="6.2172">
        <ele>1169.1999511719</ele>
        <time>2020-12-16T07:34:56.000Z</time>
      </trkpt>
      <trkpt lat="45.29015" lon="6.21719">
        <ele>1169.1999511719</ele>
        <time>2020-12-16T07:35:03.000Z</time>
      </trkpt>
      <trkpt lat="45.29015" lon="6.21719">
        <ele>1169</ele>
        <time>2020-12-16T07:35:11.000Z</time>
      </trkpt>
      <trkpt lat="45.29016" lon="6.21719">
        <ele>1169</ele>
        <time>2020-12-16T07:35:12.000Z</time>
      </trkpt>
      <trkpt lat="45.29016" lon="6.21719">
        <ele>1168.8000488281</ele>
        <time>2020-12-16T07:35:18.000Z</time>
      </trkpt>
      <trkpt lat="45.29025" lon="6.21717">
        <ele>1168.8000488281</ele>
        <time>2020-12-16T07:35:25.000Z</time>
      </trkpt>
      <trkpt lat="45.29032" lon="6.21716">
        <ele>1168.1999511719</ele>
        <time>2020-12-16T07:35:30.000Z</time>
      </trkpt>
      <trkpt lat="45.29035" lon="6.21716">
        <ele>1167.8000488281</ele>
        <time>2020-12-16T07:35:33.000Z</time>
      </trkpt>
      <trkpt lat="45.29038" lon="6.21714">
        <ele>1167.1999511719</ele>
        <time>2020-12-16T07:35:37.000Z</time>
      </trkpt>
      <trkpt lat="45.2904" lon="6.21713">
        <ele>1166.8000488281</ele>
        <time>2020-12-16T07:35:41.000Z</time>
      </trkpt>
      <trkpt lat="45.29041" lon="6.21711">
        <ele>1167</ele>
        <time>2020-12-16T07:35:50.000Z</time>
      </trkpt>
      <trkpt lat="45.29049" lon="6.21706">
        <ele>1167.1999511719</ele>
        <time>2020-12-16T07:35:58.000Z</time>
      </trkpt>
      <trkpt lat="45.29058" lon="6.21702">
        <ele>1168.1999511719</ele>
        <time>2020-12-16T07:36:05.000Z</time>
      </trkpt>
      <trkpt lat="45.29058" lon="6.217">
        <ele>1168.4000244141</ele>
        <time>2020-12-16T07:36:06.000Z</time>
      </trkpt>
      <trkpt lat="45.29067" lon="6.21691">
        <ele>1169.1999511719</ele>
        <time>2020-12-16T07:36:14.000Z</time>
      </trkpt>
      <trkpt lat="45.29068" lon="6.2169">
        <ele>1169.1999511719</ele>
        <time>2020-12-16T07:36:15.000Z</time>
      </trkpt>
      <trkpt lat="45.29076" lon="6.21684">
        <ele>1169.8000488281</ele>
        <time>2020-12-16T07:36:23.000Z</time>
      </trkpt>
      <trkpt lat="45.2908" lon="6.21675">
        <ele>1170</ele>
        <time>2020-12-16T07:36:30.000Z</time>
      </trkpt>
      <trkpt lat="45.29082" lon="6.21671">
        <ele>1170.1999511719</ele>
        <time>2020-12-16T07:36:33.000Z</time>
      </trkpt>
      <trkpt lat="45.29084" lon="6.21667">
        <ele>1170.5999755859</ele>
        <time>2020-12-16T07:36:38.000Z</time>
      </trkpt>
      <trkpt lat="45.29085" lon="6.21663">
        <ele>1171.4000244141</ele>
        <time>2020-12-16T07:36:42.000Z</time>
      </trkpt>
      <trkpt lat="45.29086" lon="6.21661">
        <ele>1171.5999755859</ele>
        <time>2020-12-16T07:36:45.000Z</time>
      </trkpt>
      <trkpt lat="45.29089" lon="6.21657">
        <ele>1172.5999755859</ele>
        <time>2020-12-16T07:36:51.000Z</time>
      </trkpt>
      <trkpt lat="45.29089" lon="6.21657">
        <ele>1172.8000488281</ele>
        <time>2020-12-16T07:36:52.000Z</time>
      </trkpt>
      <trkpt lat="45.2909" lon="6.21656">
        <ele>1173</ele>
        <time>2020-12-16T07:36:53.000Z</time>
      </trkpt>
      <trkpt lat="45.29094" lon="6.21651">
        <ele>1173.4000244141</ele>
        <time>2020-12-16T07:37:01.000Z</time>
      </trkpt>
      <trkpt lat="45.29094" lon="6.2165">
        <ele>1174</ele>
        <time>2020-12-16T07:37:02.000Z</time>
      </trkpt>
      <trkpt lat="45.29094" lon="6.21648">
        <ele>1175.1999511719</ele>
        <time>2020-12-16T07:37:04.000Z</time>
      </trkpt>
      <trkpt lat="45.29094" lon="6.21645">
        <ele>1175.8000488281</ele>
        <time>2020-12-16T07:37:08.000Z</time>
      </trkpt>
      <trkpt lat="45.29096" lon="6.21641">
        <ele>1176.4000244141</ele>
        <time>2020-12-16T07:37:12.000Z</time>
      </trkpt>
      <trkpt lat="45.29097" lon="6.21639">
        <ele>1177.4000244141</ele>
        <time>2020-12-16T07:37:16.000Z</time>
      </trkpt>
      <trkpt lat="45.29098" lon="6.21634">
        <ele>1178.4000244141</ele>
        <time>2020-12-16T07:37:22.000Z</time>
      </trkpt>
      <trkpt lat="45.29099" lon="6.21633">
        <ele>1178.5999755859</ele>
        <time>2020-12-16T07:37:23.000Z</time>
      </trkpt>
      <trkpt lat="45.291" lon="6.21628">
        <ele>1179.4000244141</ele>
        <time>2020-12-16T07:37:28.000Z</time>
      </trkpt>
      <trkpt lat="45.291" lon="6.21627">
        <ele>1179.5999755859</ele>
        <time>2020-12-16T07:37:29.000Z</time>
      </trkpt>
      <trkpt lat="45.29103" lon="6.21623">
        <ele>1180.5999755859</ele>
        <time>2020-12-16T07:37:34.000Z</time>
      </trkpt>
      <trkpt lat="45.29105" lon="6.2162">
        <ele>1181.1999511719</ele>
        <time>2020-12-16T07:37:37.000Z</time>
      </trkpt>
      <trkpt lat="45.29106" lon="6.21619">
        <ele>1181.8000488281</ele>
        <time>2020-12-16T07:37:40.000Z</time>
      </trkpt>
      <trkpt lat="45.29107" lon="6.21615">
        <ele>1182.4000244141</ele>
        <time>2020-12-16T07:37:44.000Z</time>
      </trkpt>
      <trkpt lat="45.29107" lon="6.2161">
        <ele>1182.8000488281</ele>
        <time>2020-12-16T07:37:48.000Z</time>
      </trkpt>
      <trkpt lat="45.29107" lon="6.21607">
        <ele>1183.4000244141</ele>
        <time>2020-12-16T07:37:51.000Z</time>
      </trkpt>
      <trkpt lat="45.29109" lon="6.21603">
        <ele>1184</ele>
        <time>2020-12-16T07:37:55.000Z</time>
      </trkpt>
      <trkpt lat="45.2911" lon="6.21601">
        <ele>1184.5999755859</ele>
        <time>2020-12-16T07:37:58.000Z</time>
      </trkpt>
      <trkpt lat="45.29111" lon="6.21598">
        <ele>1185</ele>
        <time>2020-12-16T07:38:02.000Z</time>
      </trkpt>
      <trkpt lat="45.29112" lon="6.21595">
        <ele>1185.5999755859</ele>
        <time>2020-12-16T07:38:05.000Z</time>
      </trkpt>
      <trkpt lat="45.29113" lon="6.21591">
        <ele>1186.1999511719</ele>
        <time>2020-12-16T07:38:10.000Z</time>
      </trkpt>
      <trkpt lat="45.29113" lon="6.21589">
        <ele>1186.5999755859</ele>
        <time>2020-12-16T07:38:13.000Z</time>
      </trkpt>
      <trkpt lat="45.29113" lon="6.21586">
        <ele>1187.1999511719</ele>
        <time>2020-12-16T07:38:17.000Z</time>
      </trkpt>
      <trkpt lat="45.29114" lon="6.21584">
        <ele>1187.5999755859</ele>
        <time>2020-12-16T07:38:20.000Z</time>
      </trkpt>
      <trkpt lat="45.29116" lon="6.21581">
        <ele>1188.1999511719</ele>
        <time>2020-12-16T07:38:26.000Z</time>
      </trkpt>
      <trkpt lat="45.29117" lon="6.21579">
        <ele>1188.5999755859</ele>
        <time>2020-12-16T07:38:28.000Z</time>
      </trkpt>
      <trkpt lat="45.2912" lon="6.21574">
        <ele>1189.4000244141</ele>
        <time>2020-12-16T07:38:33.000Z</time>
      </trkpt>
      <trkpt lat="45.29121" lon="6.21571">
        <ele>1189.8000488281</ele>
        <time>2020-12-16T07:38:36.000Z</time>
      </trkpt>
      <trkpt lat="45.29122" lon="6.21568">
        <ele>1190.4000244141</ele>
        <time>2020-12-16T07:38:40.000Z</time>
      </trkpt>
      <trkpt lat="45.29124" lon="6.21564">
        <ele>1191</ele>
        <time>2020-12-16T07:38:44.000Z</time>
      </trkpt>
      <trkpt lat="45.29125" lon="6.21563">
        <ele>1191.4000244141</ele>
        <time>2020-12-16T07:38:46.000Z</time>
      </trkpt>
      <trkpt lat="45.29127" lon="6.21559">
        <ele>1192.1999511719</ele>
        <time>2020-12-16T07:38:51.000Z</time>
      </trkpt>
      <trkpt lat="45.29128" lon="6.21559">
        <ele>1192.5999755859</ele>
        <time>2020-12-16T07:38:52.000Z</time>
      </trkpt>
      <trkpt lat="45.2913" lon="6.21557">
        <ele>1193.4000244141</ele>
        <time>2020-12-16T07:38:58.000Z</time>
      </trkpt>
      <trkpt lat="45.2913" lon="6.21557">
        <ele>1193.5999755859</ele>
        <time>2020-12-16T07:38:59.000Z</time>
      </trkpt>
      <trkpt lat="45.2913" lon="6.21555">
        <ele>1194.5999755859</ele>
        <time>2020-12-16T07:39:06.000Z</time>
      </trkpt>
      <trkpt lat="45.2913" lon="6.21555">
        <ele>1194.8000488281</ele>
        <time>2020-12-16T07:39:08.000Z</time>
      </trkpt>
      <trkpt lat="45.29131" lon="6.21554">
        <ele>1195.8000488281</ele>
        <time>2020-12-16T07:39:12.000Z</time>
      </trkpt>
      <trkpt lat="45.29133" lon="6.21551">
        <ele>1196.4000244141</ele>
        <time>2020-12-16T07:39:16.000Z</time>
      </trkpt>
      <trkpt lat="45.29136" lon="6.21545">
        <ele>1197</ele>
        <time>2020-12-16T07:39:19.000Z</time>
      </trkpt>
      <trkpt lat="45.29139" lon="6.21538">
        <ele>1197.8000488281</ele>
        <time>2020-12-16T07:39:25.000Z</time>
      </trkpt>
      <trkpt lat="45.29139" lon="6.21538">
        <ele>1198</ele>
        <time>2020-12-16T07:39:26.000Z</time>
      </trkpt>
      <trkpt lat="45.29142" lon="6.21531">
        <ele>1198.8000488281</ele>
        <time>2020-12-16T07:39:32.000Z</time>
      </trkpt>
      <trkpt lat="45.29143" lon="6.21529">
        <ele>1199</ele>
        <time>2020-12-16T07:39:34.000Z</time>
      </trkpt>
      <trkpt lat="45.29145" lon="6.21524">
        <ele>1200.1999511719</ele>
        <time>2020-12-16T07:39:40.000Z</time>
      </trkpt>
      <trkpt lat="45.29148" lon="6.21519">
        <ele>1201.4000244141</ele>
        <time>2020-12-16T07:39:46.000Z</time>
      </trkpt>
      <trkpt lat="45.2915" lon="6.21518">
        <ele>1201.8000488281</ele>
        <time>2020-12-16T07:39:49.000Z</time>
      </trkpt>
      <trkpt lat="45.29151" lon="6.21516">
        <ele>1202.4000244141</ele>
        <time>2020-12-16T07:39:53.000Z</time>
      </trkpt>
      <trkpt lat="45.29153" lon="6.21511">
        <ele>1203</ele>
        <time>2020-12-16T07:39:58.000Z</time>
      </trkpt>
      <trkpt lat="45.29153" lon="6.2151">
        <ele>1203.4000244141</ele>
        <time>2020-12-16T07:40:01.000Z</time>
      </trkpt>
      <trkpt lat="45.29154" lon="6.21508">
        <ele>1204.1999511719</ele>
        <time>2020-12-16T07:40:05.000Z</time>
      </trkpt>
      <trkpt lat="45.29155" lon="6.21508">
        <ele>1204.4000244141</ele>
        <time>2020-12-16T07:40:06.000Z</time>
      </trkpt>
      <trkpt lat="45.29157" lon="6.21505">
        <ele>1205.5999755859</ele>
        <time>2020-12-16T07:40:12.000Z</time>
      </trkpt>
      <trkpt lat="45.29158" lon="6.21503">
        <ele>1206</ele>
        <time>2020-12-16T07:40:14.000Z</time>
      </trkpt>
      <trkpt lat="45.29159" lon="6.21501">
        <ele>1206.5999755859</ele>
        <time>2020-12-16T07:40:18.000Z</time>
      </trkpt>
      <trkpt lat="45.2916" lon="6.21498">
        <ele>1207.4000244141</ele>
        <time>2020-12-16T07:40:23.000Z</time>
      </trkpt>
      <trkpt lat="45.2916" lon="6.21497">
        <ele>1207.5999755859</ele>
        <time>2020-12-16T07:40:25.000Z</time>
      </trkpt>
      <trkpt lat="45.29162" lon="6.21494">
        <ele>1208.8000488281</ele>
        <time>2020-12-16T07:40:30.000Z</time>
      </trkpt>
      <trkpt lat="45.29164" lon="6.21492">
        <ele>1209.4000244141</ele>
        <time>2020-12-16T07:40:34.000Z</time>
      </trkpt>
      <trkpt lat="45.29165" lon="6.2149">
        <ele>1210</ele>
        <time>2020-12-16T07:40:37.000Z</time>
      </trkpt>
      <trkpt lat="45.29169" lon="6.21488">
        <ele>1211</ele>
        <time>2020-12-16T07:40:42.000Z</time>
      </trkpt>
      <trkpt lat="45.29171" lon="6.21486">
        <ele>1212</ele>
        <time>2020-12-16T07:40:49.000Z</time>
      </trkpt>
      <trkpt lat="45.29171" lon="6.21486">
        <ele>1212.4000244141</ele>
        <time>2020-12-16T07:40:51.000Z</time>
      </trkpt>
      <trkpt lat="45.29172" lon="6.21485">
        <ele>1213</ele>
        <time>2020-12-16T07:40:54.000Z</time>
      </trkpt>
      <trkpt lat="45.29172" lon="6.21482">
        <ele>1214.1999511719</ele>
        <time>2020-12-16T07:41:01.000Z</time>
      </trkpt>
      <trkpt lat="45.29178" lon="6.21476">
        <ele>1215.1999511719</ele>
        <time>2020-12-16T07:41:07.000Z</time>
      </trkpt>
      <trkpt lat="45.29179" lon="6.21473">
        <ele>1215.8000488281</ele>
        <time>2020-12-16T07:41:10.000Z</time>
      </trkpt>
      <trkpt lat="45.2918" lon="6.21472">
        <ele>1216.1999511719</ele>
        <time>2020-12-16T07:41:13.000Z</time>
      </trkpt>
      <trkpt lat="45.29184" lon="6.21469">
        <ele>1217.4000244141</ele>
        <time>2020-12-16T07:41:18.000Z</time>
      </trkpt>
      <trkpt lat="45.29186" lon="6.21467">
        <ele>1217.8000488281</ele>
        <time>2020-12-16T07:41:21.000Z</time>
      </trkpt>
      <trkpt lat="45.2919" lon="6.21464">
        <ele>1218.4000244141</ele>
        <time>2020-12-16T07:41:27.000Z</time>
      </trkpt>
      <trkpt lat="45.29191" lon="6.21464">
        <ele>1218.5999755859</ele>
        <time>2020-12-16T07:41:28.000Z</time>
      </trkpt>
      <trkpt lat="45.29191" lon="6.21463">
        <ele>1219</ele>
        <time>2020-12-16T07:41:31.000Z</time>
      </trkpt>
      <trkpt lat="45.29192" lon="6.2146">
        <ele>1219.5999755859</ele>
        <time>2020-12-16T07:41:34.000Z</time>
      </trkpt>
      <trkpt lat="45.29193" lon="6.21457">
        <ele>1220.1999511719</ele>
        <time>2020-12-16T07:41:36.000Z</time>
      </trkpt>
      <trkpt lat="45.29196" lon="6.21454">
        <ele>1221</ele>
        <time>2020-12-16T07:41:40.000Z</time>
      </trkpt>
      <trkpt lat="45.29199" lon="6.21452">
        <ele>1221.5999755859</ele>
        <time>2020-12-16T07:41:44.000Z</time>
      </trkpt>
      <trkpt lat="45.292" lon="6.21449">
        <ele>1222</ele>
        <time>2020-12-16T07:41:47.000Z</time>
      </trkpt>
      <trkpt lat="45.29201" lon="6.21447">
        <ele>1222.5999755859</ele>
        <time>2020-12-16T07:41:51.000Z</time>
      </trkpt>
      <trkpt lat="45.29202" lon="6.21445">
        <ele>1223</ele>
        <time>2020-12-16T07:41:53.000Z</time>
      </trkpt>
      <trkpt lat="45.29205" lon="6.21441">
        <ele>1224.1999511719</ele>
        <time>2020-12-16T07:41:59.000Z</time>
      </trkpt>
      <trkpt lat="45.29204" lon="6.21437">
        <ele>1225.1999511719</ele>
        <time>2020-12-16T07:42:05.000Z</time>
      </trkpt>
      <trkpt lat="45.29207" lon="6.21433">
        <ele>1226.4000244141</ele>
        <time>2020-12-16T07:42:11.000Z</time>
      </trkpt>
      <trkpt lat="45.29208" lon="6.2143">
        <ele>1227.1999511719</ele>
        <time>2020-12-16T07:42:15.000Z</time>
      </trkpt>
      <trkpt lat="45.29208" lon="6.21429">
        <ele>1227.5999755859</ele>
        <time>2020-12-16T07:42:17.000Z</time>
      </trkpt>
      <trkpt lat="45.2921" lon="6.21427">
        <ele>1228.5999755859</ele>
        <time>2020-12-16T07:42:22.000Z</time>
      </trkpt>
      <trkpt lat="45.2921" lon="6.21427">
        <ele>1228.5999755859</ele>
        <time>2020-12-16T07:42:23.000Z</time>
      </trkpt>
      <trkpt lat="45.29212" lon="6.21424">
        <ele>1229.8000488281</ele>
        <time>2020-12-16T07:42:28.000Z</time>
      </trkpt>
      <trkpt lat="45.29213" lon="6.21423">
        <ele>1230.5999755859</ele>
        <time>2020-12-16T07:42:32.000Z</time>
      </trkpt>
      <trkpt lat="45.29214" lon="6.21423">
        <ele>1230.8000488281</ele>
        <time>2020-12-16T07:42:34.000Z</time>
      </trkpt>
      <trkpt lat="45.29216" lon="6.21419">
        <ele>1232</ele>
        <time>2020-12-16T07:42:40.000Z</time>
      </trkpt>
      <trkpt lat="45.29216" lon="6.21419">
        <ele>1232.1999511719</ele>
        <time>2020-12-16T07:42:41.000Z</time>
      </trkpt>
      <trkpt lat="45.29217" lon="6.21415">
        <ele>1233</ele>
        <time>2020-12-16T07:42:46.000Z</time>
      </trkpt>
      <trkpt lat="45.29217" lon="6.21415">
        <ele>1233.1999511719</ele>
        <time>2020-12-16T07:42:47.000Z</time>
      </trkpt>
      <trkpt lat="45.29217" lon="6.21414">
        <ele>1234.1999511719</ele>
        <time>2020-12-16T07:42:52.000Z</time>
      </trkpt>
      <trkpt lat="45.29217" lon="6.21414">
        <ele>1235</ele>
        <time>2020-12-16T07:42:55.000Z</time>
      </trkpt>
      <trkpt lat="45.29218" lon="6.21413">
        <ele>1235.1999511719</ele>
        <time>2020-12-16T07:42:56.000Z</time>
      </trkpt>
      <trkpt lat="45.29222" lon="6.21409">
        <ele>1236.1999511719</ele>
        <time>2020-12-16T07:43:01.000Z</time>
      </trkpt>
      <trkpt lat="45.29224" lon="6.21407">
        <ele>1237</ele>
        <time>2020-12-16T07:43:05.000Z</time>
      </trkpt>
      <trkpt lat="45.29225" lon="6.21407">
        <ele>1237.4000244141</ele>
        <time>2020-12-16T07:43:07.000Z</time>
      </trkpt>
      <trkpt lat="45.29228" lon="6.21403">
        <ele>1238.4000244141</ele>
        <time>2020-12-16T07:43:13.000Z</time>
      </trkpt>
      <trkpt lat="45.29229" lon="6.21403">
        <ele>1238.5999755859</ele>
        <time>2020-12-16T07:43:14.000Z</time>
      </trkpt>
      <trkpt lat="45.2923" lon="6.21402">
        <ele>1239.4000244141</ele>
        <time>2020-12-16T07:43:18.000Z</time>
      </trkpt>
      <trkpt lat="45.29231" lon="6.21401">
        <ele>1240</ele>
        <time>2020-12-16T07:43:21.000Z</time>
      </trkpt>
      <trkpt lat="45.29233" lon="6.21401">
        <ele>1240.5999755859</ele>
        <time>2020-12-16T07:43:24.000Z</time>
      </trkpt>
      <trkpt lat="45.29235" lon="6.21398">
        <ele>1241.1999511719</ele>
        <time>2020-12-16T07:43:29.000Z</time>
      </trkpt>
      <trkpt lat="45.29235" lon="6.21397">
        <ele>1241.5999755859</ele>
        <time>2020-12-16T07:43:31.000Z</time>
      </trkpt>
      <trkpt lat="45.29237" lon="6.21394">
        <ele>1242.5999755859</ele>
        <time>2020-12-16T07:43:37.000Z</time>
      </trkpt>
      <trkpt lat="45.29237" lon="6.21394">
        <ele>1242.8000488281</ele>
        <time>2020-12-16T07:43:38.000Z</time>
      </trkpt>
      <trkpt lat="45.29238" lon="6.21393">
        <ele>1243.8000488281</ele>
        <time>2020-12-16T07:43:43.000Z</time>
      </trkpt>
      <trkpt lat="45.2924" lon="6.21389">
        <ele>1244</ele>
        <time>2020-12-16T07:43:46.000Z</time>
      </trkpt>
      <trkpt lat="45.2924" lon="6.21389">
        <ele>1245</ele>
        <time>2020-12-16T07:43:51.000Z</time>
      </trkpt>
      <trkpt lat="45.29239" lon="6.21388">
        <ele>1245.4000244141</ele>
        <time>2020-12-16T07:43:55.000Z</time>
      </trkpt>
      <trkpt lat="45.29238" lon="6.21384">
        <ele>1246</ele>
        <time>2020-12-16T07:43:58.000Z</time>
      </trkpt>
      <trkpt lat="45.29238" lon="6.21382">
        <ele>1246.5999755859</ele>
        <time>2020-12-16T07:44:01.000Z</time>
      </trkpt>
      <trkpt lat="45.29238" lon="6.21381">
        <ele>1247</ele>
        <time>2020-12-16T07:44:03.000Z</time>
      </trkpt>
      <trkpt lat="45.29238" lon="6.21379">
        <ele>1248</ele>
        <time>2020-12-16T07:44:08.000Z</time>
      </trkpt>
      <trkpt lat="45.29238" lon="6.21379">
        <ele>1248.1999511719</ele>
        <time>2020-12-16T07:44:09.000Z</time>
      </trkpt>
      <trkpt lat="45.29237" lon="6.21379">
        <ele>1249.1999511719</ele>
        <time>2020-12-16T07:44:14.000Z</time>
      </trkpt>
      <trkpt lat="45.29237" lon="6.21377">
        <ele>1249.5999755859</ele>
        <time>2020-12-16T07:44:19.000Z</time>
      </trkpt>
      <trkpt lat="45.29237" lon="6.21377">
        <ele>1250.1999511719</ele>
        <time>2020-12-16T07:44:23.000Z</time>
      </trkpt>
      <trkpt lat="45.29237" lon="6.21377">
        <ele>1250.8000488281</ele>
        <time>2020-12-16T07:44:26.000Z</time>
      </trkpt>
      <trkpt lat="45.29236" lon="6.21375">
        <ele>1251.4000244141</ele>
        <time>2020-12-16T07:44:29.000Z</time>
      </trkpt>
      <trkpt lat="45.29233" lon="6.21369">
        <ele>1252.5999755859</ele>
        <time>2020-12-16T07:44:35.000Z</time>
      </trkpt>
      <trkpt lat="45.29233" lon="6.21368">
        <ele>1253.5999755859</ele>
        <time>2020-12-16T07:44:40.000Z</time>
      </trkpt>
      <trkpt lat="45.29235" lon="6.21363">
        <ele>1254.1999511719</ele>
        <time>2020-12-16T07:44:43.000Z</time>
      </trkpt>
      <trkpt lat="45.29236" lon="6.21359">
        <ele>1254.8000488281</ele>
        <time>2020-12-16T07:44:47.000Z</time>
      </trkpt>
      <trkpt lat="45.29237" lon="6.21353">
        <ele>1255.5999755859</ele>
        <time>2020-12-16T07:44:51.000Z</time>
      </trkpt>
      <trkpt lat="45.29238" lon="6.21351">
        <ele>1256.1999511719</ele>
        <time>2020-12-16T07:44:53.000Z</time>
      </trkpt>
      <trkpt lat="45.29239" lon="6.21348">
        <ele>1257.1999511719</ele>
        <time>2020-12-16T07:44:59.000Z</time>
      </trkpt>
      <trkpt lat="45.2924" lon="6.21344">
        <ele>1258.1999511719</ele>
        <time>2020-12-16T07:45:05.000Z</time>
      </trkpt>
      <trkpt lat="45.2924" lon="6.21344">
        <ele>1258.4000244141</ele>
        <time>2020-12-16T07:45:06.000Z</time>
      </trkpt>
      <trkpt lat="45.2924" lon="6.21343">
        <ele>1259</ele>
        <time>2020-12-16T07:45:13.000Z</time>
      </trkpt>
      <trkpt lat="45.2924" lon="6.21343">
        <ele>1258.5999755859</ele>
        <time>2020-12-16T07:45:27.000Z</time>
      </trkpt>
      <trkpt lat="45.29239" lon="6.21343">
        <ele>1259</ele>
        <time>2020-12-16T07:45:34.000Z</time>
      </trkpt>
      <trkpt lat="45.29239" lon="6.21343">
        <ele>1258</ele>
        <time>2020-12-16T07:45:51.000Z</time>
      </trkpt>
      <trkpt lat="45.29239" lon="6.21343">
        <ele>1258.1999511719</ele>
        <time>2020-12-16T07:46:05.000Z</time>
      </trkpt>
      <trkpt lat="45.29239" lon="6.21342">
        <ele>1258.1999511719</ele>
        <time>2020-12-16T07:46:22.000Z</time>
      </trkpt>
      <trkpt lat="45.29239" lon="6.21342">
        <ele>1258.1999511719</ele>
        <time>2020-12-16T07:46:42.000Z</time>
      </trkpt>
      <trkpt lat="45.29239" lon="6.21342">
        <ele>1258</ele>
        <time>2020-12-16T07:46:45.000Z</time>
      </trkpt>
      <trkpt lat="45.29239" lon="6.21342">
        <ele>1258.1999511719</ele>
        <time>2020-12-16T07:47:01.000Z</time>
      </trkpt>
      <trkpt lat="45.29239" lon="6.21342">
        <ele>1258</ele>
        <time>2020-12-16T07:47:14.000Z</time>
      </trkpt>
      <trkpt lat="45.29239" lon="6.21342">
        <ele>1258</ele>
        <time>2020-12-16T07:47:33.000Z</time>
      </trkpt>
      <trkpt lat="45.2924" lon="6.21342">
        <ele>1258</ele>
        <time>2020-12-16T07:47:50.000Z</time>
      </trkpt>
      <trkpt lat="45.2924" lon="6.21342">
        <ele>1259</ele>
        <time>2020-12-16T07:47:56.000Z</time>
      </trkpt>
      <trkpt lat="45.29241" lon="6.21339">
        <ele>1259.4000244141</ele>
        <time>2020-12-16T07:48:02.000Z</time>
      </trkpt>
      <trkpt lat="45.29241" lon="6.21339">
        <ele>1259.4000244141</ele>
        <time>2020-12-16T07:48:05.000Z</time>
      </trkpt>
      <trkpt lat="45.29245" lon="6.21333">
        <ele>1259.5999755859</ele>
        <time>2020-12-16T07:48:11.000Z</time>
      </trkpt>
      <trkpt lat="45.29247" lon="6.21328">
        <ele>1260.4000244141</ele>
        <time>2020-12-16T07:48:16.000Z</time>
      </trkpt>
      <trkpt lat="45.29248" lon="6.21326">
        <ele>1260.8000488281</ele>
        <time>2020-12-16T07:48:18.000Z</time>
      </trkpt>
      <trkpt lat="45.29249" lon="6.2132">
        <ele>1261.5999755859</ele>
        <time>2020-12-16T07:48:23.000Z</time>
      </trkpt>
      <trkpt lat="45.2925" lon="6.21317">
        <ele>1262.4000244141</ele>
        <time>2020-12-16T07:48:27.000Z</time>
      </trkpt>
      <trkpt lat="45.29251" lon="6.21315">
        <ele>1263</ele>
        <time>2020-12-16T07:48:29.000Z</time>
      </trkpt>
      <trkpt lat="45.29254" lon="6.2131">
        <ele>1264</ele>
        <time>2020-12-16T07:48:34.000Z</time>
      </trkpt>
      <trkpt lat="45.29259" lon="6.21305">
        <ele>1265.1999511719</ele>
        <time>2020-12-16T07:48:39.000Z</time>
      </trkpt>
      <trkpt lat="45.2926" lon="6.21304">
        <ele>1265.5999755859</ele>
        <time>2020-12-16T07:48:41.000Z</time>
      </trkpt>
      <trkpt lat="45.29264" lon="6.21299">
        <ele>1266.1999511719</ele>
        <time>2020-12-16T07:48:46.000Z</time>
      </trkpt>
      <trkpt lat="45.29266" lon="6.21295">
        <ele>1266.8000488281</ele>
        <time>2020-12-16T07:48:50.000Z</time>
      </trkpt>
      <trkpt lat="45.29268" lon="6.21292">
        <ele>1267.1999511719</ele>
        <time>2020-12-16T07:48:52.000Z</time>
      </trkpt>
      <trkpt lat="45.29271" lon="6.21288">
        <ele>1267.5999755859</ele>
        <time>2020-12-16T07:48:56.000Z</time>
      </trkpt>
      <trkpt lat="45.29274" lon="6.21283">
        <ele>1268.1999511719</ele>
        <time>2020-12-16T07:49:02.000Z</time>
      </trkpt>
      <trkpt lat="45.29275" lon="6.21282">
        <ele>1268.4000244141</ele>
        <time>2020-12-16T07:49:03.000Z</time>
      </trkpt>
      <trkpt lat="45.29275" lon="6.2128">
        <ele>1269.4000244141</ele>
        <time>2020-12-16T07:49:09.000Z</time>
      </trkpt>
      <trkpt lat="45.29277" lon="6.21277">
        <ele>1270.5999755859</ele>
        <time>2020-12-16T07:49:14.000Z</time>
      </trkpt>
      <trkpt lat="45.29278" lon="6.21277">
        <ele>1271.1999511719</ele>
        <time>2020-12-16T07:49:17.000Z</time>
      </trkpt>
      <trkpt lat="45.29281" lon="6.21273">
        <ele>1271.8000488281</ele>
        <time>2020-12-16T07:49:24.000Z</time>
      </trkpt>
      <trkpt lat="45.29282" lon="6.21272">
        <ele>1272.4000244141</ele>
        <time>2020-12-16T07:49:25.000Z</time>
      </trkpt>
      <trkpt lat="45.29283" lon="6.2127">
        <ele>1273</ele>
        <time>2020-12-16T07:49:27.000Z</time>
      </trkpt>
      <trkpt lat="45.29285" lon="6.21268">
        <ele>1273.5999755859</ele>
        <time>2020-12-16T07:49:31.000Z</time>
      </trkpt>
      <trkpt lat="45.29286" lon="6.21266">
        <ele>1274</ele>
        <time>2020-12-16T07:49:35.000Z</time>
      </trkpt>
      <trkpt lat="45.29287" lon="6.21262">
        <ele>1274.4000244141</ele>
        <time>2020-12-16T07:49:38.000Z</time>
      </trkpt>
      <trkpt lat="45.29292" lon="6.21258">
        <ele>1274.8000488281</ele>
        <time>2020-12-16T07:49:42.000Z</time>
      </trkpt>
      <trkpt lat="45.29295" lon="6.21256">
        <ele>1274.8000488281</ele>
        <time>2020-12-16T07:49:44.000Z</time>
      </trkpt>
      <trkpt lat="45.29299" lon="6.21251">
        <ele>1275.1999511719</ele>
        <time>2020-12-16T07:49:49.000Z</time>
      </trkpt>
      <trkpt lat="45.29301" lon="6.21249">
        <ele>1275.1999511719</ele>
        <time>2020-12-16T07:49:51.000Z</time>
      </trkpt>
      <trkpt lat="45.29305" lon="6.21241">
        <ele>1275.5999755859</ele>
        <time>2020-12-16T07:49:58.000Z</time>
      </trkpt>
      <trkpt lat="45.29308" lon="6.21236">
        <ele>1276.1999511719</ele>
        <time>2020-12-16T07:50:02.000Z</time>
      </trkpt>
      <trkpt lat="45.29309" lon="6.21232">
        <ele>1276.8000488281</ele>
        <time>2020-12-16T07:50:05.000Z</time>
      </trkpt>
      <trkpt lat="45.2931" lon="6.21228">
        <ele>1277.1999511719</ele>
        <time>2020-12-16T07:50:07.000Z</time>
      </trkpt>
      <trkpt lat="45.2931" lon="6.21223">
        <ele>1277.8000488281</ele>
        <time>2020-12-16T07:50:11.000Z</time>
      </trkpt>
      <trkpt lat="45.2931" lon="6.21221">
        <ele>1278.1999511719</ele>
        <time>2020-12-16T07:50:13.000Z</time>
      </trkpt>
      <trkpt lat="45.29311" lon="6.21214">
        <ele>1279.1999511719</ele>
        <time>2020-12-16T07:50:18.000Z</time>
      </trkpt>
      <trkpt lat="45.29309" lon="6.21209">
        <ele>1280.4000244141</ele>
        <time>2020-12-16T07:50:23.000Z</time>
      </trkpt>
      <trkpt lat="45.29308" lon="6.21207">
        <ele>1280.8000488281</ele>
        <time>2020-12-16T07:50:25.000Z</time>
      </trkpt>
      <trkpt lat="45.29309" lon="6.21203">
        <ele>1281.5999755859</ele>
        <time>2020-12-16T07:50:28.000Z</time>
      </trkpt>
      <trkpt lat="45.29309" lon="6.212">
        <ele>1282.4000244141</ele>
        <time>2020-12-16T07:50:31.000Z</time>
      </trkpt>
      <trkpt lat="45.29309" lon="6.21198">
        <ele>1282.5999755859</ele>
        <time>2020-12-16T07:50:32.000Z</time>
      </trkpt>
      <trkpt lat="45.29308" lon="6.21193">
        <ele>1283.5999755859</ele>
        <time>2020-12-16T07:50:37.000Z</time>
      </trkpt>
      <trkpt lat="45.29308" lon="6.21192">
        <ele>1283.8000488281</ele>
        <time>2020-12-16T07:50:38.000Z</time>
      </trkpt>
      <trkpt lat="45.29309" lon="6.21184">
        <ele>1284.8000488281</ele>
        <time>2020-12-16T07:50:43.000Z</time>
      </trkpt>
      <trkpt lat="45.29309" lon="6.21182">
        <ele>1285</ele>
        <time>2020-12-16T07:50:44.000Z</time>
      </trkpt>
      <trkpt lat="45.2931" lon="6.21176">
        <ele>1285.8000488281</ele>
        <time>2020-12-16T07:50:50.000Z</time>
      </trkpt>
      <trkpt lat="45.2931" lon="6.21175">
        <ele>1286.1999511719</ele>
        <time>2020-12-16T07:50:51.000Z</time>
      </trkpt>
      <trkpt lat="45.29311" lon="6.21169">
        <ele>1287</ele>
        <time>2020-12-16T07:50:57.000Z</time>
      </trkpt>
      <trkpt lat="45.29311" lon="6.21169">
        <ele>1287.1999511719</ele>
        <time>2020-12-16T07:50:58.000Z</time>
      </trkpt>
      <trkpt lat="45.29312" lon="6.21167">
        <ele>1288</ele>
        <time>2020-12-16T07:51:07.000Z</time>
      </trkpt>
      <trkpt lat="45.29315" lon="6.21155">
        <ele>1288</ele>
        <time>2020-12-16T07:51:14.000Z</time>
      </trkpt>
      <trkpt lat="45.29316" lon="6.21153">
        <ele>1288.4000244141</ele>
        <time>2020-12-16T07:51:16.000Z</time>
      </trkpt>
      <trkpt lat="45.29317" lon="6.21147">
        <ele>1289.1999511719</ele>
        <time>2020-12-16T07:51:20.000Z</time>
      </trkpt>
      <trkpt lat="45.29318" lon="6.21145">
        <ele>1289.5999755859</ele>
        <time>2020-12-16T07:51:22.000Z</time>
      </trkpt>
      <trkpt lat="45.2932" lon="6.2114">
        <ele>1290.4000244141</ele>
        <time>2020-12-16T07:51:26.000Z</time>
      </trkpt>
      <trkpt lat="45.29321" lon="6.21137">
        <ele>1290.8000488281</ele>
        <time>2020-12-16T07:51:29.000Z</time>
      </trkpt>
      <trkpt lat="45.29319" lon="6.21133">
        <ele>1291.4000244141</ele>
        <time>2020-12-16T07:51:33.000Z</time>
      </trkpt>
      <trkpt lat="45.29321" lon="6.21128">
        <ele>1292</ele>
        <time>2020-12-16T07:51:37.000Z</time>
      </trkpt>
      <trkpt lat="45.29321" lon="6.21127">
        <ele>1292.1999511719</ele>
        <time>2020-12-16T07:51:38.000Z</time>
      </trkpt>
      <trkpt lat="45.29322" lon="6.21123">
        <ele>1293.1999511719</ele>
        <time>2020-12-16T07:51:41.000Z</time>
      </trkpt>
      <trkpt lat="45.29321" lon="6.21118">
        <ele>1294</ele>
        <time>2020-12-16T07:51:45.000Z</time>
      </trkpt>
      <trkpt lat="45.29321" lon="6.21117">
        <ele>1294.1999511719</ele>
        <time>2020-12-16T07:51:46.000Z</time>
      </trkpt>
      <trkpt lat="45.29321" lon="6.2111">
        <ele>1295.1999511719</ele>
        <time>2020-12-16T07:51:51.000Z</time>
      </trkpt>
      <trkpt lat="45.29322" lon="6.21109">
        <ele>1295.5999755859</ele>
        <time>2020-12-16T07:51:52.000Z</time>
      </trkpt>
      <trkpt lat="45.29321" lon="6.21103">
        <ele>1296.5999755859</ele>
        <time>2020-12-16T07:51:57.000Z</time>
      </trkpt>
      <trkpt lat="45.2932" lon="6.21097">
        <ele>1297.5999755859</ele>
        <time>2020-12-16T07:52:02.000Z</time>
      </trkpt>
      <trkpt lat="45.29321" lon="6.21094">
        <ele>1298</ele>
        <time>2020-12-16T07:52:04.000Z</time>
      </trkpt>
      <trkpt lat="45.2932" lon="6.2109">
        <ele>1298.5999755859</ele>
        <time>2020-12-16T07:52:07.000Z</time>
      </trkpt>
      <trkpt lat="45.29321" lon="6.21084">
        <ele>1299.5999755859</ele>
        <time>2020-12-16T07:52:12.000Z</time>
      </trkpt>
      <trkpt lat="45.29323" lon="6.21075">
        <ele>1300.8000488281</ele>
        <time>2020-12-16T07:52:18.000Z</time>
      </trkpt>
      <trkpt lat="45.29322" lon="6.21073">
        <ele>1301.4000244141</ele>
        <time>2020-12-16T07:52:20.000Z</time>
      </trkpt>
      <trkpt lat="45.29322" lon="6.21073">
        <ele>1302</ele>
        <time>2020-12-16T07:52:23.000Z</time>
      </trkpt>
      <trkpt lat="45.29322" lon="6.21069">
        <ele>1302.8000488281</ele>
        <time>2020-12-16T07:52:29.000Z</time>
      </trkpt>
      <trkpt lat="45.29322" lon="6.21065">
        <ele>1303</ele>
        <time>2020-12-16T07:52:33.000Z</time>
      </trkpt>
      <trkpt lat="45.29321" lon="6.21061">
        <ele>1303.5999755859</ele>
        <time>2020-12-16T07:52:36.000Z</time>
      </trkpt>
      <trkpt lat="45.29321" lon="6.21059">
        <ele>1304</ele>
        <time>2020-12-16T07:52:38.000Z</time>
      </trkpt>
      <trkpt lat="45.29321" lon="6.21054">
        <ele>1305</ele>
        <time>2020-12-16T07:52:43.000Z</time>
      </trkpt>
      <trkpt lat="45.29321" lon="6.21053">
        <ele>1305.1999511719</ele>
        <time>2020-12-16T07:52:44.000Z</time>
      </trkpt>
      <trkpt lat="45.29321" lon="6.21048">
        <ele>1306.1999511719</ele>
        <time>2020-12-16T07:52:48.000Z</time>
      </trkpt>
      <trkpt lat="45.2932" lon="6.21047">
        <ele>1306.5999755859</ele>
        <time>2020-12-16T07:52:49.000Z</time>
      </trkpt>
      <trkpt lat="45.29319" lon="6.21042">
        <ele>1307.4000244141</ele>
        <time>2020-12-16T07:52:53.000Z</time>
      </trkpt>
      <trkpt lat="45.29319" lon="6.21038">
        <ele>1308</ele>
        <time>2020-12-16T07:52:56.000Z</time>
      </trkpt>
      <trkpt lat="45.29319" lon="6.21037">
        <ele>1308.4000244141</ele>
        <time>2020-12-16T07:52:57.000Z</time>
      </trkpt>
      <trkpt lat="45.2932" lon="6.21032">
        <ele>1309.5999755859</ele>
        <time>2020-12-16T07:53:02.000Z</time>
      </trkpt>
      <trkpt lat="45.2932" lon="6.21025">
        <ele>1310.5999755859</ele>
        <time>2020-12-16T07:53:08.000Z</time>
      </trkpt>
      <trkpt lat="45.2932" lon="6.21022">
        <ele>1310.8000488281</ele>
        <time>2020-12-16T07:53:10.000Z</time>
      </trkpt>
      <trkpt lat="45.2932" lon="6.21018">
        <ele>1311.5999755859</ele>
        <time>2020-12-16T07:53:14.000Z</time>
      </trkpt>
      <trkpt lat="45.2932" lon="6.21015">
        <ele>1312.5999755859</ele>
        <time>2020-12-16T07:53:17.000Z</time>
      </trkpt>
      <trkpt lat="45.2932" lon="6.21014">
        <ele>1312.8000488281</ele>
        <time>2020-12-16T07:53:18.000Z</time>
      </trkpt>
      <trkpt lat="45.29321" lon="6.21008">
        <ele>1314</ele>
        <time>2020-12-16T07:53:24.000Z</time>
      </trkpt>
      <trkpt lat="45.29321" lon="6.21007">
        <ele>1314.1999511719</ele>
        <time>2020-12-16T07:53:25.000Z</time>
      </trkpt>
      <trkpt lat="45.29323" lon="6.21002">
        <ele>1315.1999511719</ele>
        <time>2020-12-16T07:53:30.000Z</time>
      </trkpt>
      <trkpt lat="45.29323" lon="6.21001">
        <ele>1315.5999755859</ele>
        <time>2020-12-16T07:53:32.000Z</time>
      </trkpt>
      <trkpt lat="45.29324" lon="6.20999">
        <ele>1316.4000244141</ele>
        <time>2020-12-16T07:53:36.000Z</time>
      </trkpt>
      <trkpt lat="45.29324" lon="6.20998">
        <ele>1316.4000244141</ele>
        <time>2020-12-16T07:53:37.000Z</time>
      </trkpt>
      <trkpt lat="45.29326" lon="6.20993">
        <ele>1317.4000244141</ele>
        <time>2020-12-16T07:53:41.000Z</time>
      </trkpt>
      <trkpt lat="45.29326" lon="6.2099">
        <ele>1317.8000488281</ele>
        <time>2020-12-16T07:53:44.000Z</time>
      </trkpt>
      <trkpt lat="45.29327" lon="6.20987">
        <ele>1318.5999755859</ele>
        <time>2020-12-16T07:53:48.000Z</time>
      </trkpt>
      <trkpt lat="45.29327" lon="6.20983">
        <ele>1319.4000244141</ele>
        <time>2020-12-16T07:53:51.000Z</time>
      </trkpt>
      <trkpt lat="45.29327" lon="6.20981">
        <ele>1319.5999755859</ele>
        <time>2020-12-16T07:53:53.000Z</time>
      </trkpt>
      <trkpt lat="45.29328" lon="6.20976">
        <ele>1320.8000488281</ele>
        <time>2020-12-16T07:53:58.000Z</time>
      </trkpt>
      <trkpt lat="45.29329" lon="6.2097">
        <ele>1322</ele>
        <time>2020-12-16T07:54:04.000Z</time>
      </trkpt>
      <trkpt lat="45.29329" lon="6.20969">
        <ele>1322.5999755859</ele>
        <time>2020-12-16T07:54:06.000Z</time>
      </trkpt>
      <trkpt lat="45.29331" lon="6.20966">
        <ele>1323</ele>
        <time>2020-12-16T07:54:08.000Z</time>
      </trkpt>
      <trkpt lat="45.29332" lon="6.20965">
        <ele>1323.8000488281</ele>
        <time>2020-12-16T07:54:12.000Z</time>
      </trkpt>
      <trkpt lat="45.29332" lon="6.20963">
        <ele>1324.1999511719</ele>
        <time>2020-12-16T07:54:14.000Z</time>
      </trkpt>
      <trkpt lat="45.29333" lon="6.20959">
        <ele>1325.1999511719</ele>
        <time>2020-12-16T07:54:19.000Z</time>
      </trkpt>
      <trkpt lat="45.29333" lon="6.20959">
        <ele>1325.4000244141</ele>
        <time>2020-12-16T07:54:20.000Z</time>
      </trkpt>
      <trkpt lat="45.29334" lon="6.20956">
        <ele>1326.4000244141</ele>
        <time>2020-12-16T07:54:25.000Z</time>
      </trkpt>
      <trkpt lat="45.29333" lon="6.20952">
        <ele>1327.4000244141</ele>
        <time>2020-12-16T07:54:29.000Z</time>
      </trkpt>
      <trkpt lat="45.29333" lon="6.20951">
        <ele>1327.5999755859</ele>
        <time>2020-12-16T07:54:30.000Z</time>
      </trkpt>
      <trkpt lat="45.29334" lon="6.20947">
        <ele>1328.5999755859</ele>
        <time>2020-12-16T07:54:35.000Z</time>
      </trkpt>
      <trkpt lat="45.29334" lon="6.20944">
        <ele>1329.4000244141</ele>
        <time>2020-12-16T07:54:38.000Z</time>
      </trkpt>
      <trkpt lat="45.29334" lon="6.20941">
        <ele>1329.8000488281</ele>
        <time>2020-12-16T07:54:40.000Z</time>
      </trkpt>
      <trkpt lat="45.29336" lon="6.20938">
        <ele>1330.8000488281</ele>
        <time>2020-12-16T07:54:45.000Z</time>
      </trkpt>
      <trkpt lat="45.29336" lon="6.20938">
        <ele>1331.4000244141</ele>
        <time>2020-12-16T07:54:47.000Z</time>
      </trkpt>
      <trkpt lat="45.29338" lon="6.20934">
        <ele>1332</ele>
        <time>2020-12-16T07:54:49.000Z</time>
      </trkpt>
      <trkpt lat="45.2934" lon="6.20932">
        <ele>1333</ele>
        <time>2020-12-16T07:54:53.000Z</time>
      </trkpt>
      <trkpt lat="45.29341" lon="6.20932">
        <ele>1333.1999511719</ele>
        <time>2020-12-16T07:54:54.000Z</time>
      </trkpt>
      <trkpt lat="45.29342" lon="6.2093">
        <ele>1334</ele>
        <time>2020-12-16T07:54:58.000Z</time>
      </trkpt>
      <trkpt lat="45.29344" lon="6.20927">
        <ele>1335.1999511719</ele>
        <time>2020-12-16T07:55:03.000Z</time>
      </trkpt>
      <trkpt lat="45.29347" lon="6.20921">
        <ele>1336.1999511719</ele>
        <time>2020-12-16T07:55:09.000Z</time>
      </trkpt>
      <trkpt lat="45.29345" lon="6.20912">
        <ele>1337.4000244141</ele>
        <time>2020-12-16T07:55:17.000Z</time>
      </trkpt>
      <trkpt lat="45.29345" lon="6.20906">
        <ele>1338.4000244141</ele>
        <time>2020-12-16T07:55:23.000Z</time>
      </trkpt>
      <trkpt lat="45.29344" lon="6.20901">
        <ele>1339.1999511719</ele>
        <time>2020-12-16T07:55:30.000Z</time>
      </trkpt>
      <trkpt lat="45.29344" lon="6.209">
        <ele>1339.5999755859</ele>
        <time>2020-12-16T07:55:32.000Z</time>
      </trkpt>
      <trkpt lat="45.29346" lon="6.20892">
        <ele>1340.5999755859</ele>
        <time>2020-12-16T07:55:38.000Z</time>
      </trkpt>
      <trkpt lat="45.29348" lon="6.20887">
        <ele>1341.8000488281</ele>
        <time>2020-12-16T07:55:43.000Z</time>
      </trkpt>
      <trkpt lat="45.29348" lon="6.20885">
        <ele>1342</ele>
        <time>2020-12-16T07:55:44.000Z</time>
      </trkpt>
      <trkpt lat="45.29349" lon="6.2088">
        <ele>1342.8000488281</ele>
        <time>2020-12-16T07:55:49.000Z</time>
      </trkpt>
      <trkpt lat="45.29349" lon="6.2088">
        <ele>1343</ele>
        <time>2020-12-16T07:55:50.000Z</time>
      </trkpt>
      <trkpt lat="45.29353" lon="6.20874">
        <ele>1344</ele>
        <time>2020-12-16T07:55:56.000Z</time>
      </trkpt>
      <trkpt lat="45.29353" lon="6.20873">
        <ele>1344.1999511719</ele>
        <time>2020-12-16T07:55:57.000Z</time>
      </trkpt>
      <trkpt lat="45.29353" lon="6.20867">
        <ele>1345</ele>
        <time>2020-12-16T07:56:02.000Z</time>
      </trkpt>
      <trkpt lat="45.29353" lon="6.20864">
        <ele>1345.5999755859</ele>
        <time>2020-12-16T07:56:05.000Z</time>
      </trkpt>
      <trkpt lat="45.29354" lon="6.20863">
        <ele>1346.1999511719</ele>
        <time>2020-12-16T07:56:07.000Z</time>
      </trkpt>
      <trkpt lat="45.29355" lon="6.20858">
        <ele>1347.1999511719</ele>
        <time>2020-12-16T07:56:12.000Z</time>
      </trkpt>
      <trkpt lat="45.29354" lon="6.20857">
        <ele>1347.5999755859</ele>
        <time>2020-12-16T07:56:13.000Z</time>
      </trkpt>
      <trkpt lat="45.29354" lon="6.20854">
        <ele>1348.4000244141</ele>
        <time>2020-12-16T07:56:18.000Z</time>
      </trkpt>
      <trkpt lat="45.29354" lon="6.20854">
        <ele>1349</ele>
        <time>2020-12-16T07:56:21.000Z</time>
      </trkpt>
      <trkpt lat="45.29354" lon="6.20854">
        <ele>1349.4000244141</ele>
        <time>2020-12-16T07:56:24.000Z</time>
      </trkpt>
      <trkpt lat="45.29354" lon="6.20854">
        <ele>1349.5999755859</ele>
        <time>2020-12-16T07:56:28.000Z</time>
      </trkpt>
      <trkpt lat="45.29354" lon="6.20854">
        <ele>1349.5999755859</ele>
        <time>2020-12-16T07:56:43.000Z</time>
      </trkpt>
      <trkpt lat="45.29354" lon="6.20854">
        <ele>1349.5999755859</ele>
        <time>2020-12-16T07:56:56.000Z</time>
      </trkpt>
      <trkpt lat="45.29353" lon="6.20853">
        <ele>1349.5999755859</ele>
        <time>2020-12-16T07:57:03.000Z</time>
      </trkpt>
      <trkpt lat="45.29354" lon="6.20845">
        <ele>1350.1999511719</ele>
        <time>2020-12-16T07:57:11.000Z</time>
      </trkpt>
      <trkpt lat="45.29354" lon="6.20845">
        <ele>1350.5999755859</ele>
        <time>2020-12-16T07:57:14.000Z</time>
      </trkpt>
      <trkpt lat="45.29355" lon="6.20844">
        <ele>1351.4000244141</ele>
        <time>2020-12-16T07:57:22.000Z</time>
      </trkpt>
      <trkpt lat="45.29356" lon="6.2084">
        <ele>1351.5999755859</ele>
        <time>2020-12-16T07:57:25.000Z</time>
      </trkpt>
      <trkpt lat="45.29359" lon="6.20834">
        <ele>1352.1999511719</ele>
        <time>2020-12-16T07:57:29.000Z</time>
      </trkpt>
      <trkpt lat="45.29362" lon="6.2083">
        <ele>1352.8000488281</ele>
        <time>2020-12-16T07:57:32.000Z</time>
      </trkpt>
      <trkpt lat="45.29365" lon="6.20827">
        <ele>1353.4000244141</ele>
        <time>2020-12-16T07:57:35.000Z</time>
      </trkpt>
      <trkpt lat="45.29367" lon="6.20823">
        <ele>1353.8000488281</ele>
        <time>2020-12-16T07:57:38.000Z</time>
      </trkpt>
      <trkpt lat="45.29368" lon="6.20812">
        <ele>1355</ele>
        <time>2020-12-16T07:57:44.000Z</time>
      </trkpt>
      <trkpt lat="45.29367" lon="6.20806">
        <ele>1356</ele>
        <time>2020-12-16T07:57:51.000Z</time>
      </trkpt>
      <trkpt lat="45.29367" lon="6.20805">
        <ele>1356.1999511719</ele>
        <time>2020-12-16T07:57:52.000Z</time>
      </trkpt>
      <trkpt lat="45.29365" lon="6.208">
        <ele>1357.1999511719</ele>
        <time>2020-12-16T07:57:57.000Z</time>
      </trkpt>
      <trkpt lat="45.29363" lon="6.20797">
        <ele>1357.8000488281</ele>
        <time>2020-12-16T07:58:00.000Z</time>
      </trkpt>
      <trkpt lat="45.29362" lon="6.20797">
        <ele>1358.1999511719</ele>
        <time>2020-12-16T07:58:02.000Z</time>
      </trkpt>
      <trkpt lat="45.2936" lon="6.20792">
        <ele>1359.1999511719</ele>
        <time>2020-12-16T07:58:08.000Z</time>
      </trkpt>
      <trkpt lat="45.29362" lon="6.20785">
        <ele>1360.1999511719</ele>
        <time>2020-12-16T07:58:14.000Z</time>
      </trkpt>
      <trkpt lat="45.29363" lon="6.20777">
        <ele>1361.4000244141</ele>
        <time>2020-12-16T07:58:20.000Z</time>
      </trkpt>
      <trkpt lat="45.29364" lon="6.20769">
        <ele>1362.4000244141</ele>
        <time>2020-12-16T07:58:26.000Z</time>
      </trkpt>
      <trkpt lat="45.29364" lon="6.20767">
        <ele>1362.8000488281</ele>
        <time>2020-12-16T07:58:28.000Z</time>
      </trkpt>
      <trkpt lat="45.29363" lon="6.20763">
        <ele>1363.4000244141</ele>
        <time>2020-12-16T07:58:32.000Z</time>
      </trkpt>
      <trkpt lat="45.29363" lon="6.20762">
        <ele>1363.8000488281</ele>
        <time>2020-12-16T07:58:34.000Z</time>
      </trkpt>
      <trkpt lat="45.2936" lon="6.20757">
        <ele>1364.5999755859</ele>
        <time>2020-12-16T07:58:39.000Z</time>
      </trkpt>
      <trkpt lat="45.29359" lon="6.20755">
        <ele>1364.8000488281</ele>
        <time>2020-12-16T07:58:40.000Z</time>
      </trkpt>
      <trkpt lat="45.29359" lon="6.20749">
        <ele>1365.5999755859</ele>
        <time>2020-12-16T07:58:45.000Z</time>
      </trkpt>
      <trkpt lat="45.29358" lon="6.20748">
        <ele>1365.5999755859</ele>
        <time>2020-12-16T07:58:46.000Z</time>
      </trkpt>
      <trkpt lat="45.29358" lon="6.20742">
        <ele>1366.5999755859</ele>
        <time>2020-12-16T07:58:53.000Z</time>
      </trkpt>
      <trkpt lat="45.29358" lon="6.20741">
        <ele>1367</ele>
        <time>2020-12-16T07:58:54.000Z</time>
      </trkpt>
      <trkpt lat="45.29357" lon="6.20734">
        <ele>1367.5999755859</ele>
        <time>2020-12-16T07:59:00.000Z</time>
      </trkpt>
      <trkpt lat="45.29357" lon="6.2073">
        <ele>1368</ele>
        <time>2020-12-16T07:59:03.000Z</time>
      </trkpt>
      <trkpt lat="45.29357" lon="6.20727">
        <ele>1368.4000244141</ele>
        <time>2020-12-16T07:59:05.000Z</time>
      </trkpt>
      <trkpt lat="45.29356" lon="6.20725">
        <ele>1368.5999755859</ele>
        <time>2020-12-16T07:59:07.000Z</time>
      </trkpt>
      <trkpt lat="45.29356" lon="6.20724">
        <ele>1368.8000488281</ele>
        <time>2020-12-16T07:59:08.000Z</time>
      </trkpt>
      <trkpt lat="45.29355" lon="6.2072">
        <ele>1369.1999511719</ele>
        <time>2020-12-16T07:59:11.000Z</time>
      </trkpt>
      <trkpt lat="45.29355" lon="6.20716">
        <ele>1369.5999755859</ele>
        <time>2020-12-16T07:59:14.000Z</time>
      </trkpt>
      <trkpt lat="45.29355" lon="6.2071">
        <ele>1370.4000244141</ele>
        <time>2020-12-16T07:59:18.000Z</time>
      </trkpt>
      <trkpt lat="45.29355" lon="6.20707">
        <ele>1370.5999755859</ele>
        <time>2020-12-16T07:59:20.000Z</time>
      </trkpt>
      <trkpt lat="45.29353" lon="6.20699">
        <ele>1370.8000488281</ele>
        <time>2020-12-16T07:59:26.000Z</time>
      </trkpt>
      <trkpt lat="45.29353" lon="6.20698">
        <ele>1371</ele>
        <time>2020-12-16T07:59:28.000Z</time>
      </trkpt>
      <trkpt lat="45.29354" lon="6.20693">
        <ele>1371</ele>
        <time>2020-12-16T07:59:34.000Z</time>
      </trkpt>
      <trkpt lat="45.29355" lon="6.20692">
        <ele>1371.1999511719</ele>
        <time>2020-12-16T07:59:42.000Z</time>
      </trkpt>
      <trkpt lat="45.29355" lon="6.20692">
        <ele>1371.1999511719</ele>
        <time>2020-12-16T07:59:51.000Z</time>
      </trkpt>
      <trkpt lat="45.29355" lon="6.20692">
        <ele>1371.1999511719</ele>
        <time>2020-12-16T07:59:52.000Z</time>
      </trkpt>
      <trkpt lat="45.29356" lon="6.20689">
        <ele>1371.1999511719</ele>
        <time>2020-12-16T07:59:54.000Z</time>
      </trkpt>
      <trkpt lat="45.29358" lon="6.20683">
        <ele>1371.1999511719</ele>
        <time>2020-12-16T07:59:58.000Z</time>
      </trkpt>
      <trkpt lat="45.29359" lon="6.20672">
        <ele>1371.4000244141</ele>
        <time>2020-12-16T08:00:04.000Z</time>
      </trkpt>
      <trkpt lat="45.2936" lon="6.20659">
        <ele>1371.8000488281</ele>
        <time>2020-12-16T08:00:11.000Z</time>
      </trkpt>
      <trkpt lat="45.29362" lon="6.20655">
        <ele>1372</ele>
        <time>2020-12-16T08:00:14.000Z</time>
      </trkpt>
      <trkpt lat="45.29365" lon="6.20649">
        <ele>1372</ele>
        <time>2020-12-16T08:00:18.000Z</time>
      </trkpt>
      <trkpt lat="45.29368" lon="6.20639">
        <ele>1371.8000488281</ele>
        <time>2020-12-16T08:00:26.000Z</time>
      </trkpt>
      <trkpt lat="45.29371" lon="6.20633">
        <ele>1372.4000244141</ele>
        <time>2020-12-16T08:00:31.000Z</time>
      </trkpt>
      <trkpt lat="45.29371" lon="6.2063">
        <ele>1372.5999755859</ele>
        <time>2020-12-16T08:00:33.000Z</time>
      </trkpt>
      <trkpt lat="45.29373" lon="6.20624">
        <ele>1373.1999511719</ele>
        <time>2020-12-16T08:00:39.000Z</time>
      </trkpt>
      <trkpt lat="45.29373" lon="6.20623">
        <ele>1373.4000244141</ele>
        <time>2020-12-16T08:00:40.000Z</time>
      </trkpt>
      <trkpt lat="45.29374" lon="6.20621">
        <ele>1373.5999755859</ele>
        <time>2020-12-16T08:00:41.000Z</time>
      </trkpt>
      <trkpt lat="45.29375" lon="6.20617">
        <ele>1374.1999511719</ele>
        <time>2020-12-16T08:00:45.000Z</time>
      </trkpt>
      <trkpt lat="45.29376" lon="6.20615">
        <ele>1374.5999755859</ele>
        <time>2020-12-16T08:00:47.000Z</time>
      </trkpt>
      <trkpt lat="45.29379" lon="6.20611">
        <ele>1375.4000244141</ele>
        <time>2020-12-16T08:00:52.000Z</time>
      </trkpt>
      <trkpt lat="45.2938" lon="6.20609">
        <ele>1375.8000488281</ele>
        <time>2020-12-16T08:00:54.000Z</time>
      </trkpt>
      <trkpt lat="45.29382" lon="6.20604">
        <ele>1376.5999755859</ele>
        <time>2020-12-16T08:00:58.000Z</time>
      </trkpt>
      <trkpt lat="45.29382" lon="6.20601">
        <ele>1376.8000488281</ele>
        <time>2020-12-16T08:01:00.000Z</time>
      </trkpt>
      <trkpt lat="45.29384" lon="6.20595">
        <ele>1377.1999511719</ele>
        <time>2020-12-16T08:01:04.000Z</time>
      </trkpt>
      <trkpt lat="45.29385" lon="6.20592">
        <ele>1377.4000244141</ele>
        <time>2020-12-16T08:01:06.000Z</time>
      </trkpt>
      <trkpt lat="45.29386" lon="6.20585">
        <ele>1377.5999755859</ele>
        <time>2020-12-16T08:01:11.000Z</time>
      </trkpt>
      <trkpt lat="45.29386" lon="6.20584">
        <ele>1377.8000488281</ele>
        <time>2020-12-16T08:01:12.000Z</time>
      </trkpt>
      <trkpt lat="45.29386" lon="6.20581">
        <ele>1378</ele>
        <time>2020-12-16T08:01:14.000Z</time>
      </trkpt>
      <trkpt lat="45.29386" lon="6.20576">
        <ele>1378.4000244141</ele>
        <time>2020-12-16T08:01:17.000Z</time>
      </trkpt>
      <trkpt lat="45.29387" lon="6.20574">
        <ele>1378.5999755859</ele>
        <time>2020-12-16T08:01:19.000Z</time>
      </trkpt>
      <trkpt lat="45.29388" lon="6.20569">
        <ele>1379</ele>
        <time>2020-12-16T08:01:23.000Z</time>
      </trkpt>
      <trkpt lat="45.29389" lon="6.20565">
        <ele>1379.1999511719</ele>
        <time>2020-12-16T08:01:26.000Z</time>
      </trkpt>
      <trkpt lat="45.2939" lon="6.20564">
        <ele>1379.4000244141</ele>
        <time>2020-12-16T08:01:27.000Z</time>
      </trkpt>
      <trkpt lat="45.2939" lon="6.20559">
        <ele>1379.8000488281</ele>
        <time>2020-12-16T08:01:31.000Z</time>
      </trkpt>
      <trkpt lat="45.2939" lon="6.20555">
        <ele>1380</ele>
        <time>2020-12-16T08:01:34.000Z</time>
      </trkpt>
      <trkpt lat="45.29391" lon="6.20551">
        <ele>1380.4000244141</ele>
        <time>2020-12-16T08:01:37.000Z</time>
      </trkpt>
      <trkpt lat="45.29391" lon="6.20547">
        <ele>1381.1999511719</ele>
        <time>2020-12-16T08:01:43.000Z</time>
      </trkpt>
      <trkpt lat="45.29392" lon="6.20544">
        <ele>1381.5999755859</ele>
        <time>2020-12-16T08:01:46.000Z</time>
      </trkpt>
      <trkpt lat="45.29393" lon="6.20541">
        <ele>1382</ele>
        <time>2020-12-16T08:01:54.000Z</time>
      </trkpt>
      <trkpt lat="45.29393" lon="6.20541">
        <ele>1382.1999511719</ele>
        <time>2020-12-16T08:01:56.000Z</time>
      </trkpt>
      <trkpt lat="45.29393" lon="6.2054">
        <ele>1382.4000244141</ele>
        <time>2020-12-16T08:02:02.000Z</time>
      </trkpt>
      <trkpt lat="45.29391" lon="6.20539">
        <ele>1382.8000488281</ele>
        <time>2020-12-16T08:02:06.000Z</time>
      </trkpt>
      <trkpt lat="45.2939" lon="6.20537">
        <ele>1383</ele>
        <time>2020-12-16T08:02:08.000Z</time>
      </trkpt>
      <trkpt lat="45.29389" lon="6.20533">
        <ele>1383.1999511719</ele>
        <time>2020-12-16T08:02:11.000Z</time>
      </trkpt>
      <trkpt lat="45.2939" lon="6.20532">
        <ele>1384</ele>
        <time>2020-12-16T08:02:15.000Z</time>
      </trkpt>
      <trkpt lat="45.2939" lon="6.20532">
        <ele>1384.1999511719</ele>
        <time>2020-12-16T08:02:16.000Z</time>
      </trkpt>
      <trkpt lat="45.29389" lon="6.2053">
        <ele>1384.5999755859</ele>
        <time>2020-12-16T08:02:23.000Z</time>
      </trkpt>
      <trkpt lat="45.29389" lon="6.2053">
        <ele>1384.8000488281</ele>
        <time>2020-12-16T08:02:31.000Z</time>
      </trkpt>
      <trkpt lat="45.29389" lon="6.2053">
        <ele>1384.8000488281</ele>
        <time>2020-12-16T08:02:44.000Z</time>
      </trkpt>
      <trkpt lat="45.2939" lon="6.20526">
        <ele>1384.8000488281</ele>
        <time>2020-12-16T08:02:52.000Z</time>
      </trkpt>
      <trkpt lat="45.29391" lon="6.20517">
        <ele>1385.4000244141</ele>
        <time>2020-12-16T08:02:58.000Z</time>
      </trkpt>
      <trkpt lat="45.29392" lon="6.20516">
        <ele>1385.5999755859</ele>
        <time>2020-12-16T08:02:59.000Z</time>
      </trkpt>
      <trkpt lat="45.29394" lon="6.20505">
        <ele>1386.1999511719</ele>
        <time>2020-12-16T08:03:07.000Z</time>
      </trkpt>
      <trkpt lat="45.29395" lon="6.20503">
        <ele>1386.4000244141</ele>
        <time>2020-12-16T08:03:08.000Z</time>
      </trkpt>
      <trkpt lat="45.29396" lon="6.20497">
        <ele>1387</ele>
        <time>2020-12-16T08:03:13.000Z</time>
      </trkpt>
      <trkpt lat="45.29397" lon="6.20493">
        <ele>1387.4000244141</ele>
        <time>2020-12-16T08:03:17.000Z</time>
      </trkpt>
      <trkpt lat="45.29398" lon="6.20491">
        <ele>1387.5999755859</ele>
        <time>2020-12-16T08:03:19.000Z</time>
      </trkpt>
      <trkpt lat="45.294" lon="6.20489">
        <ele>1387.8000488281</ele>
        <time>2020-12-16T08:03:20.000Z</time>
      </trkpt>
      <trkpt lat="45.29401" lon="6.20485">
        <ele>1388.1999511719</ele>
        <time>2020-12-16T08:03:24.000Z</time>
      </trkpt>
      <trkpt lat="45.29401" lon="6.20482">
        <ele>1388.4000244141</ele>
        <time>2020-12-16T08:03:26.000Z</time>
      </trkpt>
      <trkpt lat="45.29401" lon="6.20477">
        <ele>1388.8000488281</ele>
        <time>2020-12-16T08:03:29.000Z</time>
      </trkpt>
      <trkpt lat="45.29401" lon="6.20476">
        <ele>1388.8000488281</ele>
        <time>2020-12-16T08:03:30.000Z</time>
      </trkpt>
      <trkpt lat="45.29399" lon="6.20466">
        <ele>1389.4000244141</ele>
        <time>2020-12-16T08:03:37.000Z</time>
      </trkpt>
      <trkpt lat="45.29399" lon="6.20465">
        <ele>1389.5999755859</ele>
        <time>2020-12-16T08:03:38.000Z</time>
      </trkpt>
      <trkpt lat="45.29399" lon="6.20458">
        <ele>1390.4000244141</ele>
        <time>2020-12-16T08:03:43.000Z</time>
      </trkpt>
      <trkpt lat="45.29399" lon="6.20454">
        <ele>1390.5999755859</ele>
        <time>2020-12-16T08:03:47.000Z</time>
      </trkpt>
      <trkpt lat="45.29398" lon="6.20453">
        <ele>1390.8000488281</ele>
        <time>2020-12-16T08:03:48.000Z</time>
      </trkpt>
      <trkpt lat="45.29398" lon="6.20447">
        <ele>1391.4000244141</ele>
        <time>2020-12-16T08:03:54.000Z</time>
      </trkpt>
      <trkpt lat="45.294" lon="6.20444">
        <ele>1391.8000488281</ele>
        <time>2020-12-16T08:03:56.000Z</time>
      </trkpt>
      <trkpt lat="45.29402" lon="6.20441">
        <ele>1392.1999511719</ele>
        <time>2020-12-16T08:04:00.000Z</time>
      </trkpt>
      <trkpt lat="45.29402" lon="6.20437">
        <ele>1392.8000488281</ele>
        <time>2020-12-16T08:04:03.000Z</time>
      </trkpt>
      <trkpt lat="45.29403" lon="6.20435">
        <ele>1393</ele>
        <time>2020-12-16T08:04:05.000Z</time>
      </trkpt>
      <trkpt lat="45.29402" lon="6.20429">
        <ele>1393.8000488281</ele>
        <time>2020-12-16T08:04:12.000Z</time>
      </trkpt>
      <trkpt lat="45.29402" lon="6.20428">
        <ele>1393.8000488281</ele>
        <time>2020-12-16T08:04:13.000Z</time>
      </trkpt>
      <trkpt lat="45.29401" lon="6.20422">
        <ele>1394.1999511719</ele>
        <time>2020-12-16T08:04:18.000Z</time>
      </trkpt>
      <trkpt lat="45.294" lon="6.20417">
        <ele>1394.8000488281</ele>
        <time>2020-12-16T08:04:24.000Z</time>
      </trkpt>
      <trkpt lat="45.294" lon="6.20411">
        <ele>1395.8000488281</ele>
        <time>2020-12-16T08:04:30.000Z</time>
      </trkpt>
      <trkpt lat="45.29399" lon="6.20403">
        <ele>1396.5999755859</ele>
        <time>2020-12-16T08:04:36.000Z</time>
      </trkpt>
      <trkpt lat="45.29399" lon="6.20401">
        <ele>1397</ele>
        <time>2020-12-16T08:04:38.000Z</time>
      </trkpt>
      <trkpt lat="45.29398" lon="6.20399">
        <ele>1397</ele>
        <time>2020-12-16T08:04:39.000Z</time>
      </trkpt>
      <trkpt lat="45.29397" lon="6.20395">
        <ele>1397.5999755859</ele>
        <time>2020-12-16T08:04:42.000Z</time>
      </trkpt>
      <trkpt lat="45.29398" lon="6.20392">
        <ele>1397.8000488281</ele>
        <time>2020-12-16T08:04:47.000Z</time>
      </trkpt>
      <trkpt lat="45.29398" lon="6.20392">
        <ele>1398</ele>
        <time>2020-12-16T08:04:48.000Z</time>
      </trkpt>
      <trkpt lat="45.29398" lon="6.20392">
        <ele>1398.1999511719</ele>
        <time>2020-12-16T08:04:55.000Z</time>
      </trkpt>
      <trkpt lat="45.29396" lon="6.20384">
        <ele>1398.1999511719</ele>
        <time>2020-12-16T08:05:00.000Z</time>
      </trkpt>
      <trkpt lat="45.29396" lon="6.20376">
        <ele>1398.1999511719</ele>
        <time>2020-12-16T08:05:06.000Z</time>
      </trkpt>
      <trkpt lat="45.29398" lon="6.20371">
        <ele>1398.4000244141</ele>
        <time>2020-12-16T08:05:09.000Z</time>
      </trkpt>
      <trkpt lat="45.29397" lon="6.20367">
        <ele>1398.4000244141</ele>
        <time>2020-12-16T08:05:12.000Z</time>
      </trkpt>
      <trkpt lat="45.29398" lon="6.20358">
        <ele>1398.5999755859</ele>
        <time>2020-12-16T08:05:18.000Z</time>
      </trkpt>
      <trkpt lat="45.294" lon="6.2035">
        <ele>1398.8000488281</ele>
        <time>2020-12-16T08:05:24.000Z</time>
      </trkpt>
      <trkpt lat="45.294" lon="6.20348">
        <ele>1399</ele>
        <time>2020-12-16T08:05:25.000Z</time>
      </trkpt>
      <trkpt lat="45.294" lon="6.20347">
        <ele>1399</ele>
        <time>2020-12-16T08:05:26.000Z</time>
      </trkpt>
      <trkpt lat="45.294" lon="6.20341">
        <ele>1399.1999511719</ele>
        <time>2020-12-16T08:05:30.000Z</time>
      </trkpt>
      <trkpt lat="45.29401" lon="6.20334">
        <ele>1399.8000488281</ele>
        <time>2020-12-16T08:05:36.000Z</time>
      </trkpt>
      <trkpt lat="45.29403" lon="6.20332">
        <ele>1400</ele>
        <time>2020-12-16T08:05:38.000Z</time>
      </trkpt>
      <trkpt lat="45.29406" lon="6.20329">
        <ele>1400.5999755859</ele>
        <time>2020-12-16T08:05:42.000Z</time>
      </trkpt>
      <trkpt lat="45.29407" lon="6.20325">
        <ele>1401.1999511719</ele>
        <time>2020-12-16T08:05:49.000Z</time>
      </trkpt>
      <trkpt lat="45.29407" lon="6.20319">
        <ele>1401.4000244141</ele>
        <time>2020-12-16T08:05:55.000Z</time>
      </trkpt>
      <trkpt lat="45.29408" lon="6.20313">
        <ele>1401.5999755859</ele>
        <time>2020-12-16T08:06:00.000Z</time>
      </trkpt>
      <trkpt lat="45.29412" lon="6.20308">
        <ele>1402.1999511719</ele>
        <time>2020-12-16T08:06:05.000Z</time>
      </trkpt>
      <trkpt lat="45.29415" lon="6.20302">
        <ele>1402.8000488281</ele>
        <time>2020-12-16T08:06:11.000Z</time>
      </trkpt>
      <trkpt lat="45.29417" lon="6.20295">
        <ele>1403.1999511719</ele>
        <time>2020-12-16T08:06:17.000Z</time>
      </trkpt>
      <trkpt lat="45.29418" lon="6.20293">
        <ele>1403.1999511719</ele>
        <time>2020-12-16T08:06:18.000Z</time>
      </trkpt>
      <trkpt lat="45.29418" lon="6.20288">
        <ele>1403.5999755859</ele>
        <time>2020-12-16T08:06:23.000Z</time>
      </trkpt>
      <trkpt lat="45.29416" lon="6.20283">
        <ele>1404.4000244141</ele>
        <time>2020-12-16T08:06:28.000Z</time>
      </trkpt>
      <trkpt lat="45.29416" lon="6.20282">
        <ele>1404.5999755859</ele>
        <time>2020-12-16T08:06:29.000Z</time>
      </trkpt>
      <trkpt lat="45.29414" lon="6.2028">
        <ele>1405.5999755859</ele>
        <time>2020-12-16T08:06:32.000Z</time>
      </trkpt>
      <trkpt lat="45.29414" lon="6.20278">
        <ele>1406.4000244141</ele>
        <time>2020-12-16T08:06:36.000Z</time>
      </trkpt>
      <trkpt lat="45.29414" lon="6.20278">
        <ele>1406.5999755859</ele>
        <time>2020-12-16T08:06:37.000Z</time>
      </trkpt>
      <trkpt lat="45.29416" lon="6.20276">
        <ele>1407.4000244141</ele>
        <time>2020-12-16T08:06:42.000Z</time>
      </trkpt>
      <trkpt lat="45.29417" lon="6.20276">
        <ele>1407.8000488281</ele>
        <time>2020-12-16T08:06:44.000Z</time>
      </trkpt>
      <trkpt lat="45.29417" lon="6.20274">
        <ele>1408.1999511719</ele>
        <time>2020-12-16T08:06:47.000Z</time>
      </trkpt>
      <trkpt lat="45.29417" lon="6.2027">
        <ele>1409</ele>
        <time>2020-12-16T08:06:51.000Z</time>
      </trkpt>
      <trkpt lat="45.29418" lon="6.20265">
        <ele>1410</ele>
        <time>2020-12-16T08:06:56.000Z</time>
      </trkpt>
      <trkpt lat="45.2942" lon="6.20258">
        <ele>1410.8000488281</ele>
        <time>2020-12-16T08:07:02.000Z</time>
      </trkpt>
      <trkpt lat="45.29421" lon="6.20257">
        <ele>1411.1999511719</ele>
        <time>2020-12-16T08:07:04.000Z</time>
      </trkpt>
      <trkpt lat="45.29422" lon="6.20255">
        <ele>1411.8000488281</ele>
        <time>2020-12-16T08:07:08.000Z</time>
      </trkpt>
      <trkpt lat="45.29423" lon="6.20253">
        <ele>1412.4000244141</ele>
        <time>2020-12-16T08:07:11.000Z</time>
      </trkpt>
      <trkpt lat="45.29426" lon="6.20248">
        <ele>1413.1999511719</ele>
        <time>2020-12-16T08:07:15.000Z</time>
      </trkpt>
      <trkpt lat="45.29426" lon="6.20246">
        <ele>1413.5999755859</ele>
        <time>2020-12-16T08:07:18.000Z</time>
      </trkpt>
      <trkpt lat="45.29428" lon="6.20243">
        <ele>1414</ele>
        <time>2020-12-16T08:07:21.000Z</time>
      </trkpt>
      <trkpt lat="45.29432" lon="6.20239">
        <ele>1414.5999755859</ele>
        <time>2020-12-16T08:07:25.000Z</time>
      </trkpt>
      <trkpt lat="45.29432" lon="6.20237">
        <ele>1415</ele>
        <time>2020-12-16T08:07:27.000Z</time>
      </trkpt>
      <trkpt lat="45.29431" lon="6.20232">
        <ele>1415.8000488281</ele>
        <time>2020-12-16T08:07:32.000Z</time>
      </trkpt>
      <trkpt lat="45.29431" lon="6.20226">
        <ele>1416.1999511719</ele>
        <time>2020-12-16T08:07:35.000Z</time>
      </trkpt>
      <trkpt lat="45.29431" lon="6.20223">
        <ele>1416.8000488281</ele>
        <time>2020-12-16T08:07:39.000Z</time>
      </trkpt>
      <trkpt lat="45.29432" lon="6.20221">
        <ele>1417.1999511719</ele>
        <time>2020-12-16T08:07:41.000Z</time>
      </trkpt>
      <trkpt lat="45.29432" lon="6.20217">
        <ele>1418</ele>
        <time>2020-12-16T08:07:45.000Z</time>
      </trkpt>
      <trkpt lat="45.29433" lon="6.20214">
        <ele>1418.4000244141</ele>
        <time>2020-12-16T08:07:47.000Z</time>
      </trkpt>
      <trkpt lat="45.29432" lon="6.20211">
        <ele>1419</ele>
        <time>2020-12-16T08:07:51.000Z</time>
      </trkpt>
      <trkpt lat="45.29433" lon="6.20205">
        <ele>1419.8000488281</ele>
        <time>2020-12-16T08:07:55.000Z</time>
      </trkpt>
      <trkpt lat="45.29433" lon="6.20204">
        <ele>1420.1999511719</ele>
        <time>2020-12-16T08:07:57.000Z</time>
      </trkpt>
      <trkpt lat="45.29434" lon="6.20199">
        <ele>1421.1999511719</ele>
        <time>2020-12-16T08:08:03.000Z</time>
      </trkpt>
      <trkpt lat="45.29435" lon="6.20197">
        <ele>1421.4000244141</ele>
        <time>2020-12-16T08:08:04.000Z</time>
      </trkpt>
      <trkpt lat="45.29434" lon="6.20193">
        <ele>1422.4000244141</ele>
        <time>2020-12-16T08:08:09.000Z</time>
      </trkpt>
      <trkpt lat="45.29435" lon="6.20192">
        <ele>1422.5999755859</ele>
        <time>2020-12-16T08:08:10.000Z</time>
      </trkpt>
      <trkpt lat="45.29436" lon="6.20185">
        <ele>1423.4000244141</ele>
        <time>2020-12-16T08:08:16.000Z</time>
      </trkpt>
      <trkpt lat="45.29436" lon="6.20184">
        <ele>1423.5999755859</ele>
        <time>2020-12-16T08:08:17.000Z</time>
      </trkpt>
      <trkpt lat="45.29437" lon="6.20177">
        <ele>1424.5999755859</ele>
        <time>2020-12-16T08:08:23.000Z</time>
      </trkpt>
      <trkpt lat="45.29437" lon="6.20171">
        <ele>1425.5999755859</ele>
        <time>2020-12-16T08:08:29.000Z</time>
      </trkpt>
      <trkpt lat="45.29437" lon="6.20171">
        <ele>1425.8000488281</ele>
        <time>2020-12-16T08:08:30.000Z</time>
      </trkpt>
      <trkpt lat="45.29438" lon="6.20166">
        <ele>1426.8000488281</ele>
        <time>2020-12-16T08:08:35.000Z</time>
      </trkpt>
      <trkpt lat="45.29439" lon="6.20165">
        <ele>1427</ele>
        <time>2020-12-16T08:08:36.000Z</time>
      </trkpt>
      <trkpt lat="45.29441" lon="6.20162">
        <ele>1427.8000488281</ele>
        <time>2020-12-16T08:08:41.000Z</time>
      </trkpt>
      <trkpt lat="45.29441" lon="6.20161">
        <ele>1428</ele>
        <time>2020-12-16T08:08:42.000Z</time>
      </trkpt>
      <trkpt lat="45.29441" lon="6.20157">
        <ele>1428.4000244141</ele>
        <time>2020-12-16T08:08:45.000Z</time>
      </trkpt>
      <trkpt lat="45.29441" lon="6.20154">
        <ele>1429</ele>
        <time>2020-12-16T08:08:48.000Z</time>
      </trkpt>
      <trkpt lat="45.2944" lon="6.20151">
        <ele>1429.5999755859</ele>
        <time>2020-12-16T08:08:52.000Z</time>
      </trkpt>
      <trkpt lat="45.2944" lon="6.2015">
        <ele>1430.1999511719</ele>
        <time>2020-12-16T08:08:54.000Z</time>
      </trkpt>
      <trkpt lat="45.29441" lon="6.20144">
        <ele>1431</ele>
        <time>2020-12-16T08:08:59.000Z</time>
      </trkpt>
      <trkpt lat="45.29441" lon="6.20144">
        <ele>1431.1999511719</ele>
        <time>2020-12-16T08:09:00.000Z</time>
      </trkpt>
      <trkpt lat="45.29441" lon="6.20139">
        <ele>1432</ele>
        <time>2020-12-16T08:09:05.000Z</time>
      </trkpt>
      <trkpt lat="45.29441" lon="6.20138">
        <ele>1432.4000244141</ele>
        <time>2020-12-16T08:09:07.000Z</time>
      </trkpt>
      <trkpt lat="45.2944" lon="6.20134">
        <ele>1433</ele>
        <time>2020-12-16T08:09:11.000Z</time>
      </trkpt>
      <trkpt lat="45.29441" lon="6.20133">
        <ele>1433.4000244141</ele>
        <time>2020-12-16T08:09:13.000Z</time>
      </trkpt>
      <trkpt lat="45.29442" lon="6.2013">
        <ele>1434.4000244141</ele>
        <time>2020-12-16T08:09:18.000Z</time>
      </trkpt>
      <trkpt lat="45.29443" lon="6.20127">
        <ele>1435.5999755859</ele>
        <time>2020-12-16T08:09:23.000Z</time>
      </trkpt>
      <trkpt lat="45.29443" lon="6.20126">
        <ele>1436</ele>
        <time>2020-12-16T08:09:25.000Z</time>
      </trkpt>
      <trkpt lat="45.29444" lon="6.20124">
        <ele>1436.8000488281</ele>
        <time>2020-12-16T08:09:29.000Z</time>
      </trkpt>
      <trkpt lat="45.29445" lon="6.2012">
        <ele>1437.8000488281</ele>
        <time>2020-12-16T08:09:34.000Z</time>
      </trkpt>
      <trkpt lat="45.29444" lon="6.20119">
        <ele>1437.8000488281</ele>
        <time>2020-12-16T08:09:35.000Z</time>
      </trkpt>
      <trkpt lat="45.29443" lon="6.20115">
        <ele>1438.8000488281</ele>
        <time>2020-12-16T08:09:40.000Z</time>
      </trkpt>
      <trkpt lat="45.29443" lon="6.20114">
        <ele>1439</ele>
        <time>2020-12-16T08:09:41.000Z</time>
      </trkpt>
      <trkpt lat="45.29443" lon="6.20112">
        <ele>1440</ele>
        <time>2020-12-16T08:09:45.000Z</time>
      </trkpt>
      <trkpt lat="45.29443" lon="6.20109">
        <ele>1440.8000488281</ele>
        <time>2020-12-16T08:09:49.000Z</time>
      </trkpt>
      <trkpt lat="45.29443" lon="6.20109">
        <ele>1441.1999511719</ele>
        <time>2020-12-16T08:09:51.000Z</time>
      </trkpt>
      <trkpt lat="45.29442" lon="6.20103">
        <ele>1442.1999511719</ele>
        <time>2020-12-16T08:09:57.000Z</time>
      </trkpt>
      <trkpt lat="45.29442" lon="6.20102">
        <ele>1442.4000244141</ele>
        <time>2020-12-16T08:09:58.000Z</time>
      </trkpt>
      <trkpt lat="45.29443" lon="6.20098">
        <ele>1443.4000244141</ele>
        <time>2020-12-16T08:10:04.000Z</time>
      </trkpt>
      <trkpt lat="45.29443" lon="6.20097">
        <ele>1443.5999755859</ele>
        <time>2020-12-16T08:10:05.000Z</time>
      </trkpt>
      <trkpt lat="45.29442" lon="6.20094">
        <ele>1444.4000244141</ele>
        <time>2020-12-16T08:10:08.000Z</time>
      </trkpt>
      <trkpt lat="45.29442" lon="6.20092">
        <ele>1444.5999755859</ele>
        <time>2020-12-16T08:10:10.000Z</time>
      </trkpt>
      <trkpt lat="45.29442" lon="6.20086">
        <ele>1445.5999755859</ele>
        <time>2020-12-16T08:10:16.000Z</time>
      </trkpt>
      <trkpt lat="45.29442" lon="6.20085">
        <ele>1445.8000488281</ele>
        <time>2020-12-16T08:10:17.000Z</time>
      </trkpt>
      <trkpt lat="45.29443" lon="6.2008">
        <ele>1446.5999755859</ele>
        <time>2020-12-16T08:10:23.000Z</time>
      </trkpt>
      <trkpt lat="45.29443" lon="6.20078">
        <ele>1447</ele>
        <time>2020-12-16T08:10:25.000Z</time>
      </trkpt>
      <trkpt lat="45.29443" lon="6.20075">
        <ele>1447.8000488281</ele>
        <time>2020-12-16T08:10:29.000Z</time>
      </trkpt>
      <trkpt lat="45.29443" lon="6.20072">
        <ele>1448.4000244141</ele>
        <time>2020-12-16T08:10:32.000Z</time>
      </trkpt>
      <trkpt lat="45.29443" lon="6.2007">
        <ele>1448.8000488281</ele>
        <time>2020-12-16T08:10:34.000Z</time>
      </trkpt>
      <trkpt lat="45.29445" lon="6.20067">
        <ele>1449.5999755859</ele>
        <time>2020-12-16T08:10:39.000Z</time>
      </trkpt>
      <trkpt lat="45.29446" lon="6.20066">
        <ele>1450</ele>
        <time>2020-12-16T08:10:41.000Z</time>
      </trkpt>
      <trkpt lat="45.29449" lon="6.20062">
        <ele>1450.1999511719</ele>
        <time>2020-12-16T08:10:46.000Z</time>
      </trkpt>
      <trkpt lat="45.2945" lon="6.20056">
        <ele>1450.8000488281</ele>
        <time>2020-12-16T08:10:51.000Z</time>
      </trkpt>
      <trkpt lat="45.2945" lon="6.20055">
        <ele>1451</ele>
        <time>2020-12-16T08:10:52.000Z</time>
      </trkpt>
      <trkpt lat="45.29451" lon="6.20051">
        <ele>1452</ele>
        <time>2020-12-16T08:10:57.000Z</time>
      </trkpt>
      <trkpt lat="45.29452" lon="6.2005">
        <ele>1452.1999511719</ele>
        <time>2020-12-16T08:10:58.000Z</time>
      </trkpt>
      <trkpt lat="45.29453" lon="6.20045">
        <ele>1453.1999511719</ele>
        <time>2020-12-16T08:11:03.000Z</time>
      </trkpt>
      <trkpt lat="45.29453" lon="6.20039">
        <ele>1454.1999511719</ele>
        <time>2020-12-16T08:11:10.000Z</time>
      </trkpt>
      <trkpt lat="45.29452" lon="6.20036">
        <ele>1454.4000244141</ele>
        <time>2020-12-16T08:11:12.000Z</time>
      </trkpt>
      <trkpt lat="45.29452" lon="6.20031">
        <ele>1455.1999511719</ele>
        <time>2020-12-16T08:11:16.000Z</time>
      </trkpt>
      <trkpt lat="45.29452" lon="6.20028">
        <ele>1455.5999755859</ele>
        <time>2020-12-16T08:11:18.000Z</time>
      </trkpt>
      <trkpt lat="45.29451" lon="6.20025">
        <ele>1456.1999511719</ele>
        <time>2020-12-16T08:11:23.000Z</time>
      </trkpt>
      <trkpt lat="45.29451" lon="6.2002">
        <ele>1457.1999511719</ele>
        <time>2020-12-16T08:11:29.000Z</time>
      </trkpt>
      <trkpt lat="45.29451" lon="6.20012">
        <ele>1458.4000244141</ele>
        <time>2020-12-16T08:11:36.000Z</time>
      </trkpt>
      <trkpt lat="45.29451" lon="6.20012">
        <ele>1458.5999755859</ele>
        <time>2020-12-16T08:11:37.000Z</time>
      </trkpt>
      <trkpt lat="45.29453" lon="6.20006">
        <ele>1459.5999755859</ele>
        <time>2020-12-16T08:11:43.000Z</time>
      </trkpt>
      <trkpt lat="45.29452" lon="6.20005">
        <ele>1459.8000488281</ele>
        <time>2020-12-16T08:11:45.000Z</time>
      </trkpt>
      <trkpt lat="45.29453" lon="6.20002">
        <ele>1460.5999755859</ele>
        <time>2020-12-16T08:11:49.000Z</time>
      </trkpt>
      <trkpt lat="45.29454" lon="6.20001">
        <ele>1461</ele>
        <time>2020-12-16T08:11:51.000Z</time>
      </trkpt>
      <trkpt lat="45.29454" lon="6.19998">
        <ele>1461.5999755859</ele>
        <time>2020-12-16T08:11:55.000Z</time>
      </trkpt>
      <trkpt lat="45.29454" lon="6.19996">
        <ele>1462.1999511719</ele>
        <time>2020-12-16T08:11:58.000Z</time>
      </trkpt>
      <trkpt lat="45.29454" lon="6.19995">
        <ele>1462.8000488281</ele>
        <time>2020-12-16T08:12:01.000Z</time>
      </trkpt>
      <trkpt lat="45.29453" lon="6.19993">
        <ele>1463.4000244141</ele>
        <time>2020-12-16T08:12:05.000Z</time>
      </trkpt>
      <trkpt lat="45.29452" lon="6.19992">
        <ele>1463.8000488281</ele>
        <time>2020-12-16T08:12:07.000Z</time>
      </trkpt>
      <trkpt lat="45.2945" lon="6.19987">
        <ele>1464.8000488281</ele>
        <time>2020-12-16T08:12:12.000Z</time>
      </trkpt>
      <trkpt lat="45.2945" lon="6.19986">
        <ele>1464.8000488281</ele>
        <time>2020-12-16T08:12:13.000Z</time>
      </trkpt>
      <trkpt lat="45.29452" lon="6.19981">
        <ele>1465.4000244141</ele>
        <time>2020-12-16T08:12:17.000Z</time>
      </trkpt>
      <trkpt lat="45.29453" lon="6.19976">
        <ele>1465.8000488281</ele>
        <time>2020-12-16T08:12:21.000Z</time>
      </trkpt>
      <trkpt lat="45.29454" lon="6.19975">
        <ele>1466</ele>
        <time>2020-12-16T08:12:22.000Z</time>
      </trkpt>
      <trkpt lat="45.29459" lon="6.19971">
        <ele>1467</ele>
        <time>2020-12-16T08:12:28.000Z</time>
      </trkpt>
      <trkpt lat="45.2946" lon="6.19967">
        <ele>1467.8000488281</ele>
        <time>2020-12-16T08:12:33.000Z</time>
      </trkpt>
      <trkpt lat="45.2946" lon="6.19967">
        <ele>1468</ele>
        <time>2020-12-16T08:12:34.000Z</time>
      </trkpt>
      <trkpt lat="45.29462" lon="6.19962">
        <ele>1469</ele>
        <time>2020-12-16T08:12:40.000Z</time>
      </trkpt>
      <trkpt lat="45.29462" lon="6.19958">
        <ele>1470.1999511719</ele>
        <time>2020-12-16T08:12:45.000Z</time>
      </trkpt>
      <trkpt lat="45.29463" lon="6.19957">
        <ele>1470.5999755859</ele>
        <time>2020-12-16T08:12:48.000Z</time>
      </trkpt>
      <trkpt lat="45.29463" lon="6.19956">
        <ele>1471.1999511719</ele>
        <time>2020-12-16T08:12:51.000Z</time>
      </trkpt>
      <trkpt lat="45.29463" lon="6.19952">
        <ele>1472</ele>
        <time>2020-12-16T08:12:56.000Z</time>
      </trkpt>
      <trkpt lat="45.29463" lon="6.19951">
        <ele>1472.1999511719</ele>
        <time>2020-12-16T08:12:57.000Z</time>
      </trkpt>
      <trkpt lat="45.29463" lon="6.19948">
        <ele>1473.4000244141</ele>
        <time>2020-12-16T08:13:02.000Z</time>
      </trkpt>
      <trkpt lat="45.29463" lon="6.19947">
        <ele>1473.5999755859</ele>
        <time>2020-12-16T08:13:03.000Z</time>
      </trkpt>
      <trkpt lat="45.29463" lon="6.19943">
        <ele>1474.4000244141</ele>
        <time>2020-12-16T08:13:08.000Z</time>
      </trkpt>
      <trkpt lat="45.29464" lon="6.1994">
        <ele>1475.1999511719</ele>
        <time>2020-12-16T08:13:11.000Z</time>
      </trkpt>
      <trkpt lat="45.29463" lon="6.19937">
        <ele>1475.4000244141</ele>
        <time>2020-12-16T08:13:13.000Z</time>
      </trkpt>
      <trkpt lat="45.29463" lon="6.19934">
        <ele>1476</ele>
        <time>2020-12-16T08:13:17.000Z</time>
      </trkpt>
      <trkpt lat="45.29464" lon="6.19929">
        <ele>1476.5999755859</ele>
        <time>2020-12-16T08:13:20.000Z</time>
      </trkpt>
      <trkpt lat="45.29466" lon="6.19925">
        <ele>1477</ele>
        <time>2020-12-16T08:13:23.000Z</time>
      </trkpt>
      <trkpt lat="45.29468" lon="6.19917">
        <ele>1477.5999755859</ele>
        <time>2020-12-16T08:13:29.000Z</time>
      </trkpt>
      <trkpt lat="45.29467" lon="6.19915">
        <ele>1477.8000488281</ele>
        <time>2020-12-16T08:13:30.000Z</time>
      </trkpt>
      <trkpt lat="45.29471" lon="6.19905">
        <ele>1478</ele>
        <time>2020-12-16T08:13:37.000Z</time>
      </trkpt>
      <trkpt lat="45.29473" lon="6.19898">
        <ele>1478.4000244141</ele>
        <time>2020-12-16T08:13:43.000Z</time>
      </trkpt>
      <trkpt lat="45.29477" lon="6.1989">
        <ele>1478.8000488281</ele>
        <time>2020-12-16T08:13:48.000Z</time>
      </trkpt>
      <trkpt lat="45.29476" lon="6.1989">
        <ele>1478.8000488281</ele>
        <time>2020-12-16T08:13:49.000Z</time>
      </trkpt>
      <trkpt lat="45.29479" lon="6.19883">
        <ele>1478.8000488281</ele>
        <time>2020-12-16T08:13:55.000Z</time>
      </trkpt>
      <trkpt lat="45.29482" lon="6.1988">
        <ele>1479.1999511719</ele>
        <time>2020-12-16T08:14:01.000Z</time>
      </trkpt>
      <trkpt lat="45.29486" lon="6.19875">
        <ele>1479.5999755859</ele>
        <time>2020-12-16T08:14:09.000Z</time>
      </trkpt>
      <trkpt lat="45.2949" lon="6.1987">
        <ele>1479.5999755859</ele>
        <time>2020-12-16T08:14:14.000Z</time>
      </trkpt>
      <trkpt lat="45.29492" lon="6.19864">
        <ele>1479.8000488281</ele>
        <time>2020-12-16T08:14:19.000Z</time>
      </trkpt>
      <trkpt lat="45.29493" lon="6.19863">
        <ele>1479.8000488281</ele>
        <time>2020-12-16T08:14:20.000Z</time>
      </trkpt>
      <trkpt lat="45.29496" lon="6.19857">
        <ele>1480.1999511719</ele>
        <time>2020-12-16T08:14:27.000Z</time>
      </trkpt>
      <trkpt lat="45.295" lon="6.19849">
        <ele>1480.5999755859</ele>
        <time>2020-12-16T08:14:33.000Z</time>
      </trkpt>
      <trkpt lat="45.295" lon="6.19846">
        <ele>1480.8000488281</ele>
        <time>2020-12-16T08:14:36.000Z</time>
      </trkpt>
      <trkpt lat="45.29501" lon="6.19843">
        <ele>1481</ele>
        <time>2020-12-16T08:14:38.000Z</time>
      </trkpt>
      <trkpt lat="45.29505" lon="6.19836">
        <ele>1481.5999755859</ele>
        <time>2020-12-16T08:14:45.000Z</time>
      </trkpt>
      <trkpt lat="45.29508" lon="6.19832">
        <ele>1481.8000488281</ele>
        <time>2020-12-16T08:14:49.000Z</time>
      </trkpt>
      <trkpt lat="45.29509" lon="6.1983">
        <ele>1481.8000488281</ele>
        <time>2020-12-16T08:14:50.000Z</time>
      </trkpt>
      <trkpt lat="45.2951" lon="6.19829">
        <ele>1482</ele>
        <time>2020-12-16T08:14:51.000Z</time>
      </trkpt>
      <trkpt lat="45.29514" lon="6.19823">
        <ele>1482.1999511719</ele>
        <time>2020-12-16T08:14:57.000Z</time>
      </trkpt>
      <trkpt lat="45.29516" lon="6.19819">
        <ele>1482.8000488281</ele>
        <time>2020-12-16T08:15:02.000Z</time>
      </trkpt>
      <trkpt lat="45.29516" lon="6.19818">
        <ele>1483</ele>
        <time>2020-12-16T08:15:03.000Z</time>
      </trkpt>
      <trkpt lat="45.29518" lon="6.19813">
        <ele>1483.4000244141</ele>
        <time>2020-12-16T08:15:07.000Z</time>
      </trkpt>
      <trkpt lat="45.29522" lon="6.19807">
        <ele>1484.1999511719</ele>
        <time>2020-12-16T08:15:12.000Z</time>
      </trkpt>
      <trkpt lat="45.29523" lon="6.19805">
        <ele>1484.4000244141</ele>
        <time>2020-12-16T08:15:14.000Z</time>
      </trkpt>
      <trkpt lat="45.29528" lon="6.19801">
        <ele>1484.8000488281</ele>
        <time>2020-12-16T08:15:19.000Z</time>
      </trkpt>
      <trkpt lat="45.2953" lon="6.19797">
        <ele>1485.1999511719</ele>
        <time>2020-12-16T08:15:24.000Z</time>
      </trkpt>
      <trkpt lat="45.2953" lon="6.19796">
        <ele>1485.1999511719</ele>
        <time>2020-12-16T08:15:25.000Z</time>
      </trkpt>
      <trkpt lat="45.29535" lon="6.1979">
        <ele>1486</ele>
        <time>2020-12-16T08:15:30.000Z</time>
      </trkpt>
      <trkpt lat="45.29534" lon="6.19784">
        <ele>1486.4000244141</ele>
        <time>2020-12-16T08:15:35.000Z</time>
      </trkpt>
      <trkpt lat="45.29534" lon="6.19781">
        <ele>1486.5999755859</ele>
        <time>2020-12-16T08:15:37.000Z</time>
      </trkpt>
      <trkpt lat="45.29536" lon="6.19777">
        <ele>1487.4000244141</ele>
        <time>2020-12-16T08:15:42.000Z</time>
      </trkpt>
      <trkpt lat="45.29537" lon="6.19774">
        <ele>1487.8000488281</ele>
        <time>2020-12-16T08:15:43.000Z</time>
      </trkpt>
      <trkpt lat="45.29539" lon="6.1977">
        <ele>1488.4000244141</ele>
        <time>2020-12-16T08:15:48.000Z</time>
      </trkpt>
      <trkpt lat="45.29539" lon="6.1977">
        <ele>1488.5999755859</ele>
        <time>2020-12-16T08:15:49.000Z</time>
      </trkpt>
      <trkpt lat="45.29541" lon="6.19764">
        <ele>1489.5999755859</ele>
        <time>2020-12-16T08:15:55.000Z</time>
      </trkpt>
      <trkpt lat="45.29541" lon="6.19764">
        <ele>1489.8000488281</ele>
        <time>2020-12-16T08:15:56.000Z</time>
      </trkpt>
      <trkpt lat="45.29542" lon="6.19759">
        <ele>1490.8000488281</ele>
        <time>2020-12-16T08:16:02.000Z</time>
      </trkpt>
      <trkpt lat="45.29541" lon="6.19753">
        <ele>1492</ele>
        <time>2020-12-16T08:16:08.000Z</time>
      </trkpt>
      <trkpt lat="45.2954" lon="6.19748">
        <ele>1493</ele>
        <time>2020-12-16T08:16:14.000Z</time>
      </trkpt>
      <trkpt lat="45.29541" lon="6.19747">
        <ele>1493.4000244141</ele>
        <time>2020-12-16T08:16:16.000Z</time>
      </trkpt>
      <trkpt lat="45.29544" lon="6.19744">
        <ele>1494</ele>
        <time>2020-12-16T08:16:20.000Z</time>
      </trkpt>
      <trkpt lat="45.29546" lon="6.19743">
        <ele>1494.4000244141</ele>
        <time>2020-12-16T08:16:22.000Z</time>
      </trkpt>
      <trkpt lat="45.29551" lon="6.19737">
        <ele>1495</ele>
        <time>2020-12-16T08:16:29.000Z</time>
      </trkpt>
      <trkpt lat="45.29553" lon="6.19734">
        <ele>1495.1999511719</ele>
        <time>2020-12-16T08:16:31.000Z</time>
      </trkpt>
      <trkpt lat="45.29555" lon="6.19731">
        <ele>1495.5999755859</ele>
        <time>2020-12-16T08:16:35.000Z</time>
      </trkpt>
      <trkpt lat="45.29556" lon="6.19727">
        <ele>1496.1999511719</ele>
        <time>2020-12-16T08:16:40.000Z</time>
      </trkpt>
      <trkpt lat="45.29559" lon="6.1972">
        <ele>1497.1999511719</ele>
        <time>2020-12-16T08:16:47.000Z</time>
      </trkpt>
      <trkpt lat="45.2956" lon="6.19719">
        <ele>1497.1999511719</ele>
        <time>2020-12-16T08:16:48.000Z</time>
      </trkpt>
      <trkpt lat="45.29562" lon="6.19713">
        <ele>1498</ele>
        <time>2020-12-16T08:16:53.000Z</time>
      </trkpt>
      <trkpt lat="45.29562" lon="6.19712">
        <ele>1498.4000244141</ele>
        <time>2020-12-16T08:16:55.000Z</time>
      </trkpt>
      <trkpt lat="45.29562" lon="6.1971">
        <ele>1499</ele>
        <time>2020-12-16T08:16:58.000Z</time>
      </trkpt>
      <trkpt lat="45.29563" lon="6.19707">
        <ele>1499.5999755859</ele>
        <time>2020-12-16T08:17:02.000Z</time>
      </trkpt>
      <trkpt lat="45.29564" lon="6.19705">
        <ele>1500</ele>
        <time>2020-12-16T08:17:04.000Z</time>
      </trkpt>
      <trkpt lat="45.29565" lon="6.19703">
        <ele>1500.5999755859</ele>
        <time>2020-12-16T08:17:07.000Z</time>
      </trkpt>
      <trkpt lat="45.29565" lon="6.197">
        <ele>1500.8000488281</ele>
        <time>2020-12-16T08:17:09.000Z</time>
      </trkpt>
      <trkpt lat="45.29566" lon="6.19695">
        <ele>1501.8000488281</ele>
        <time>2020-12-16T08:17:14.000Z</time>
      </trkpt>
      <trkpt lat="45.29567" lon="6.19694">
        <ele>1502</ele>
        <time>2020-12-16T08:17:15.000Z</time>
      </trkpt>
      <trkpt lat="45.29567" lon="6.19691">
        <ele>1502.8000488281</ele>
        <time>2020-12-16T08:17:20.000Z</time>
      </trkpt>
      <trkpt lat="45.29567" lon="6.19689">
        <ele>1503.1999511719</ele>
        <time>2020-12-16T08:17:22.000Z</time>
      </trkpt>
      <trkpt lat="45.2957" lon="6.19684">
        <ele>1504</ele>
        <time>2020-12-16T08:17:27.000Z</time>
      </trkpt>
      <trkpt lat="45.2957" lon="6.19683">
        <ele>1504.4000244141</ele>
        <time>2020-12-16T08:17:29.000Z</time>
      </trkpt>
      <trkpt lat="45.2957" lon="6.19678">
        <ele>1505</ele>
        <time>2020-12-16T08:17:34.000Z</time>
      </trkpt>
      <trkpt lat="45.2957" lon="6.19677">
        <ele>1505.1999511719</ele>
        <time>2020-12-16T08:17:35.000Z</time>
      </trkpt>
      <trkpt lat="45.2957" lon="6.19673">
        <ele>1506.1999511719</ele>
        <time>2020-12-16T08:17:40.000Z</time>
      </trkpt>
      <trkpt lat="45.2957" lon="6.19673">
        <ele>1506.1999511719</ele>
        <time>2020-12-16T08:17:41.000Z</time>
      </trkpt>
      <trkpt lat="45.29569" lon="6.19669">
        <ele>1507.1999511719</ele>
        <time>2020-12-16T08:17:46.000Z</time>
      </trkpt>
      <trkpt lat="45.2957" lon="6.19665">
        <ele>1508.1999511719</ele>
        <time>2020-12-16T08:17:52.000Z</time>
      </trkpt>
      <trkpt lat="45.2957" lon="6.19665">
        <ele>1508.4000244141</ele>
        <time>2020-12-16T08:17:53.000Z</time>
      </trkpt>
      <trkpt lat="45.29572" lon="6.19661">
        <ele>1509.1999511719</ele>
        <time>2020-12-16T08:17:58.000Z</time>
      </trkpt>
      <trkpt lat="45.29573" lon="6.19658">
        <ele>1509.5999755859</ele>
        <time>2020-12-16T08:18:00.000Z</time>
      </trkpt>
      <trkpt lat="45.29577" lon="6.19654">
        <ele>1510.1999511719</ele>
        <time>2020-12-16T08:18:05.000Z</time>
      </trkpt>
      <trkpt lat="45.29578" lon="6.19653">
        <ele>1510.1999511719</ele>
        <time>2020-12-16T08:18:06.000Z</time>
      </trkpt>
      <trkpt lat="45.29584" lon="6.19648">
        <ele>1511</ele>
        <time>2020-12-16T08:18:12.000Z</time>
      </trkpt>
      <trkpt lat="45.29588" lon="6.19641">
        <ele>1511</ele>
        <time>2020-12-16T08:18:18.000Z</time>
      </trkpt>
      <trkpt lat="45.2959" lon="6.19636">
        <ele>1510.8000488281</ele>
        <time>2020-12-16T08:18:21.000Z</time>
      </trkpt>
      <trkpt lat="45.2959" lon="6.19635">
        <ele>1511</ele>
        <time>2020-12-16T08:18:23.000Z</time>
      </trkpt>
      <trkpt lat="45.29593" lon="6.19628">
        <ele>1511</ele>
        <time>2020-12-16T08:18:27.000Z</time>
      </trkpt>
      <trkpt lat="45.29596" lon="6.19624">
        <ele>1511.4000244141</ele>
        <time>2020-12-16T08:18:32.000Z</time>
      </trkpt>
      <trkpt lat="45.29601" lon="6.19619">
        <ele>1511.8000488281</ele>
        <time>2020-12-16T08:18:38.000Z</time>
      </trkpt>
      <trkpt lat="45.29605" lon="6.19615">
        <ele>1512.4000244141</ele>
        <time>2020-12-16T08:18:44.000Z</time>
      </trkpt>
      <trkpt lat="45.29608" lon="6.19608">
        <ele>1513</ele>
        <time>2020-12-16T08:18:51.000Z</time>
      </trkpt>
      <trkpt lat="45.29613" lon="6.19602">
        <ele>1513.4000244141</ele>
        <time>2020-12-16T08:18:57.000Z</time>
      </trkpt>
      <trkpt lat="45.29617" lon="6.19596">
        <ele>1513.4000244141</ele>
        <time>2020-12-16T08:19:02.000Z</time>
      </trkpt>
      <trkpt lat="45.29618" lon="6.19595">
        <ele>1513.4000244141</ele>
        <time>2020-12-16T08:19:03.000Z</time>
      </trkpt>
      <trkpt lat="45.29622" lon="6.19589">
        <ele>1514</ele>
        <time>2020-12-16T08:19:09.000Z</time>
      </trkpt>
      <trkpt lat="45.29624" lon="6.19584">
        <ele>1514.4000244141</ele>
        <time>2020-12-16T08:19:14.000Z</time>
      </trkpt>
      <trkpt lat="45.29623" lon="6.19584">
        <ele>1514.4000244141</ele>
        <time>2020-12-16T08:19:15.000Z</time>
      </trkpt>
      <trkpt lat="45.29626" lon="6.1958">
        <ele>1515</ele>
        <time>2020-12-16T08:19:19.000Z</time>
      </trkpt>
      <trkpt lat="45.29628" lon="6.19574">
        <ele>1515.5999755859</ele>
        <time>2020-12-16T08:19:24.000Z</time>
      </trkpt>
      <trkpt lat="45.29628" lon="6.19574">
        <ele>1515.8000488281</ele>
        <time>2020-12-16T08:19:25.000Z</time>
      </trkpt>
      <trkpt lat="45.29631" lon="6.19568">
        <ele>1516.1999511719</ele>
        <time>2020-12-16T08:19:31.000Z</time>
      </trkpt>
      <trkpt lat="45.29634" lon="6.19561">
        <ele>1516.5999755859</ele>
        <time>2020-12-16T08:19:36.000Z</time>
      </trkpt>
      <trkpt lat="45.29633" lon="6.19559">
        <ele>1516.8000488281</ele>
        <time>2020-12-16T08:19:38.000Z</time>
      </trkpt>
      <trkpt lat="45.29637" lon="6.19553">
        <ele>1517.8000488281</ele>
        <time>2020-12-16T08:19:43.000Z</time>
      </trkpt>
      <trkpt lat="45.29643" lon="6.19549">
        <ele>1518.4000244141</ele>
        <time>2020-12-16T08:19:49.000Z</time>
      </trkpt>
      <trkpt lat="45.29647" lon="6.19543">
        <ele>1518.8000488281</ele>
        <time>2020-12-16T08:19:54.000Z</time>
      </trkpt>
      <trkpt lat="45.2965" lon="6.19538">
        <ele>1519</ele>
        <time>2020-12-16T08:19:59.000Z</time>
      </trkpt>
      <trkpt lat="45.29655" lon="6.19529">
        <ele>1519.5999755859</ele>
        <time>2020-12-16T08:20:07.000Z</time>
      </trkpt>
      <trkpt lat="45.29657" lon="6.19526">
        <ele>1519.8000488281</ele>
        <time>2020-12-16T08:20:09.000Z</time>
      </trkpt>
      <trkpt lat="45.2966" lon="6.1952">
        <ele>1520.4000244141</ele>
        <time>2020-12-16T08:20:14.000Z</time>
      </trkpt>
      <trkpt lat="45.29663" lon="6.19513">
        <ele>1521</ele>
        <time>2020-12-16T08:20:19.000Z</time>
      </trkpt>
      <trkpt lat="45.29668" lon="6.19506">
        <ele>1521.5999755859</ele>
        <time>2020-12-16T08:20:28.000Z</time>
      </trkpt>
      <trkpt lat="45.2967" lon="6.19502">
        <ele>1521.8000488281</ele>
        <time>2020-12-16T08:20:30.000Z</time>
      </trkpt>
      <trkpt lat="45.29672" lon="6.195">
        <ele>1522.1999511719</ele>
        <time>2020-12-16T08:20:32.000Z</time>
      </trkpt>
      <trkpt lat="45.29674" lon="6.19499">
        <ele>1522.4000244141</ele>
        <time>2020-12-16T08:20:34.000Z</time>
      </trkpt>
      <trkpt lat="45.29678" lon="6.19493">
        <ele>1522.8000488281</ele>
        <time>2020-12-16T08:20:40.000Z</time>
      </trkpt>
      <trkpt lat="45.2968" lon="6.1949">
        <ele>1523</ele>
        <time>2020-12-16T08:20:43.000Z</time>
      </trkpt>
      <trkpt lat="45.29683" lon="6.19486">
        <ele>1523.1999511719</ele>
        <time>2020-12-16T08:20:47.000Z</time>
      </trkpt>
      <trkpt lat="45.29684" lon="6.19485">
        <ele>1523.1999511719</ele>
        <time>2020-12-16T08:20:48.000Z</time>
      </trkpt>
      <trkpt lat="45.29687" lon="6.19478">
        <ele>1523.5999755859</ele>
        <time>2020-12-16T08:20:54.000Z</time>
      </trkpt>
      <trkpt lat="45.29687" lon="6.19476">
        <ele>1524.1999511719</ele>
        <time>2020-12-16T08:20:57.000Z</time>
      </trkpt>
      <trkpt lat="45.29687" lon="6.19473">
        <ele>1524.8000488281</ele>
        <time>2020-12-16T08:21:01.000Z</time>
      </trkpt>
      <trkpt lat="45.29688" lon="6.19468">
        <ele>1525.4000244141</ele>
        <time>2020-12-16T08:21:05.000Z</time>
      </trkpt>
      <trkpt lat="45.29688" lon="6.19466">
        <ele>1525.8000488281</ele>
        <time>2020-12-16T08:21:08.000Z</time>
      </trkpt>
      <trkpt lat="45.29692" lon="6.19462">
        <ele>1526.5999755859</ele>
        <time>2020-12-16T08:21:13.000Z</time>
      </trkpt>
      <trkpt lat="45.29695" lon="6.19457">
        <ele>1527.1999511719</ele>
        <time>2020-12-16T08:21:17.000Z</time>
      </trkpt>
      <trkpt lat="45.297" lon="6.19451">
        <ele>1527.5999755859</ele>
        <time>2020-12-16T08:21:21.000Z</time>
      </trkpt>
      <trkpt lat="45.29703" lon="6.19447">
        <ele>1527.5999755859</ele>
        <time>2020-12-16T08:21:24.000Z</time>
      </trkpt>
      <trkpt lat="45.2971" lon="6.19439">
        <ele>1527.4000244141</ele>
        <time>2020-12-16T08:21:32.000Z</time>
      </trkpt>
      <trkpt lat="45.29716" lon="6.19432">
        <ele>1527.5999755859</ele>
        <time>2020-12-16T08:21:39.000Z</time>
      </trkpt>
      <trkpt lat="45.29718" lon="6.19426">
        <ele>1528.1999511719</ele>
        <time>2020-12-16T08:21:45.000Z</time>
      </trkpt>
      <trkpt lat="45.2972" lon="6.19423">
        <ele>1528.5999755859</ele>
        <time>2020-12-16T08:21:48.000Z</time>
      </trkpt>
      <trkpt lat="45.29721" lon="6.1942">
        <ele>1529</ele>
        <time>2020-12-16T08:21:51.000Z</time>
      </trkpt>
      <trkpt lat="45.29724" lon="6.19417">
        <ele>1529.4000244141</ele>
        <time>2020-12-16T08:21:56.000Z</time>
      </trkpt>
      <trkpt lat="45.29726" lon="6.19415">
        <ele>1529.5999755859</ele>
        <time>2020-12-16T08:21:59.000Z</time>
      </trkpt>
      <trkpt lat="45.29727" lon="6.19413">
        <ele>1529.5999755859</ele>
        <time>2020-12-16T08:22:01.000Z</time>
      </trkpt>
      <trkpt lat="45.29732" lon="6.19408">
        <ele>1530</ele>
        <time>2020-12-16T08:22:06.000Z</time>
      </trkpt>
      <trkpt lat="45.29739" lon="6.19403">
        <ele>1529.8000488281</ele>
        <time>2020-12-16T08:22:12.000Z</time>
      </trkpt>
      <trkpt lat="45.29742" lon="6.19397">
        <ele>1529.8000488281</ele>
        <time>2020-12-16T08:22:18.000Z</time>
      </trkpt>
      <trkpt lat="45.29746" lon="6.19391">
        <ele>1530</ele>
        <time>2020-12-16T08:22:24.000Z</time>
      </trkpt>
      <trkpt lat="45.29754" lon="6.19381">
        <ele>1530.5999755859</ele>
        <time>2020-12-16T08:22:31.000Z</time>
      </trkpt>
      <trkpt lat="45.29755" lon="6.1938">
        <ele>1530.8000488281</ele>
        <time>2020-12-16T08:22:32.000Z</time>
      </trkpt>
      <trkpt lat="45.2976" lon="6.19375">
        <ele>1531.4000244141</ele>
        <time>2020-12-16T08:22:37.000Z</time>
      </trkpt>
      <trkpt lat="45.29767" lon="6.19368">
        <ele>1531.8000488281</ele>
        <time>2020-12-16T08:22:44.000Z</time>
      </trkpt>
      <trkpt lat="45.29771" lon="6.19364">
        <ele>1531.8000488281</ele>
        <time>2020-12-16T08:22:49.000Z</time>
      </trkpt>
      <trkpt lat="45.29772" lon="6.19363">
        <ele>1531.8000488281</ele>
        <time>2020-12-16T08:22:50.000Z</time>
      </trkpt>
      <trkpt lat="45.29774" lon="6.19359">
        <ele>1532.1999511719</ele>
        <time>2020-12-16T08:22:54.000Z</time>
      </trkpt>
      <trkpt lat="45.29776" lon="6.19353">
        <ele>1533</ele>
        <time>2020-12-16T08:22:59.000Z</time>
      </trkpt>
      <trkpt lat="45.29777" lon="6.1935">
        <ele>1533.4000244141</ele>
        <time>2020-12-16T08:23:02.000Z</time>
      </trkpt>
      <trkpt lat="45.29781" lon="6.19343">
        <ele>1533.4000244141</ele>
        <time>2020-12-16T08:23:08.000Z</time>
      </trkpt>
      <trkpt lat="45.29782" lon="6.19335">
        <ele>1533.8000488281</ele>
        <time>2020-12-16T08:23:14.000Z</time>
      </trkpt>
      <trkpt lat="45.29786" lon="6.1933">
        <ele>1533.8000488281</ele>
        <time>2020-12-16T08:23:19.000Z</time>
      </trkpt>
      <trkpt lat="45.29787" lon="6.19327">
        <ele>1534</ele>
        <time>2020-12-16T08:23:21.000Z</time>
      </trkpt>
      <trkpt lat="45.29791" lon="6.19321">
        <ele>1534.1999511719</ele>
        <time>2020-12-16T08:23:26.000Z</time>
      </trkpt>
      <trkpt lat="45.29794" lon="6.19315">
        <ele>1534.4000244141</ele>
        <time>2020-12-16T08:23:31.000Z</time>
      </trkpt>
      <trkpt lat="45.298" lon="6.19309">
        <ele>1535</ele>
        <time>2020-12-16T08:23:38.000Z</time>
      </trkpt>
      <trkpt lat="45.29801" lon="6.19307">
        <ele>1535</ele>
        <time>2020-12-16T08:23:40.000Z</time>
      </trkpt>
      <trkpt lat="45.29806" lon="6.193">
        <ele>1535.1999511719</ele>
        <time>2020-12-16T08:23:45.000Z</time>
      </trkpt>
      <trkpt lat="45.29808" lon="6.19291">
        <ele>1534.5999755859</ele>
        <time>2020-12-16T08:23:52.000Z</time>
      </trkpt>
      <trkpt lat="45.29812" lon="6.19282">
        <ele>1535</ele>
        <time>2020-12-16T08:24:00.000Z</time>
      </trkpt>
      <trkpt lat="45.29815" lon="6.19274">
        <ele>1535.1999511719</ele>
        <time>2020-12-16T08:24:06.000Z</time>
      </trkpt>
      <trkpt lat="45.2982" lon="6.19265">
        <ele>1536</ele>
        <time>2020-12-16T08:24:14.000Z</time>
      </trkpt>
      <trkpt lat="45.2982" lon="6.19263">
        <ele>1536.1999511719</ele>
        <time>2020-12-16T08:24:16.000Z</time>
      </trkpt>
      <trkpt lat="45.2982" lon="6.19262">
        <ele>1536.8000488281</ele>
        <time>2020-12-16T08:24:20.000Z</time>
      </trkpt>
      <trkpt lat="45.2982" lon="6.1926">
        <ele>1537.1999511719</ele>
        <time>2020-12-16T08:24:26.000Z</time>
      </trkpt>
      <trkpt lat="45.2982" lon="6.1926">
        <ele>1536.4000244141</ele>
        <time>2020-12-16T08:24:36.000Z</time>
      </trkpt>
      <trkpt lat="45.2982" lon="6.1926">
        <ele>1536.4000244141</ele>
        <time>2020-12-16T08:24:50.000Z</time>
      </trkpt>
      <trkpt lat="45.2982" lon="6.1926">
        <ele>1536.1999511719</ele>
        <time>2020-12-16T08:25:01.000Z</time>
      </trkpt>
      <trkpt lat="45.2982" lon="6.19259">
        <ele>1536.1999511719</ele>
        <time>2020-12-16T08:25:11.000Z</time>
      </trkpt>
      <trkpt lat="45.2982" lon="6.19259">
        <ele>1536.1999511719</ele>
        <time>2020-12-16T08:25:26.000Z</time>
      </trkpt>
      <trkpt lat="45.2982" lon="6.19259">
        <ele>1536.1999511719</ele>
        <time>2020-12-16T08:25:28.000Z</time>
      </trkpt>
      <trkpt lat="45.2982" lon="6.19259">
        <ele>1536.1999511719</ele>
        <time>2020-12-16T08:25:42.000Z</time>
      </trkpt>
      <trkpt lat="45.29826" lon="6.19261">
        <ele>1536.4000244141</ele>
        <time>2020-12-16T08:25:50.000Z</time>
      </trkpt>
      <trkpt lat="45.29828" lon="6.19259">
        <ele>1537</ele>
        <time>2020-12-16T08:25:59.000Z</time>
      </trkpt>
      <trkpt lat="45.29828" lon="6.19258">
        <ele>1537.1999511719</ele>
        <time>2020-12-16T08:26:00.000Z</time>
      </trkpt>
      <trkpt lat="45.29831" lon="6.19253">
        <ele>1537.5999755859</ele>
        <time>2020-12-16T08:26:05.000Z</time>
      </trkpt>
      <trkpt lat="45.29834" lon="6.19247">
        <ele>1538.1999511719</ele>
        <time>2020-12-16T08:26:11.000Z</time>
      </trkpt>
      <trkpt lat="45.29838" lon="6.19239">
        <ele>1538.8000488281</ele>
        <time>2020-12-16T08:26:17.000Z</time>
      </trkpt>
      <trkpt lat="45.29842" lon="6.19228">
        <ele>1539.1999511719</ele>
        <time>2020-12-16T08:26:24.000Z</time>
      </trkpt>
      <trkpt lat="45.29842" lon="6.19225">
        <ele>1539.4000244141</ele>
        <time>2020-12-16T08:26:26.000Z</time>
      </trkpt>
      <trkpt lat="45.29843" lon="6.19219">
        <ele>1540.4000244141</ele>
        <time>2020-12-16T08:26:31.000Z</time>
      </trkpt>
      <trkpt lat="45.29843" lon="6.19215">
        <ele>1541.4000244141</ele>
        <time>2020-12-16T08:26:34.000Z</time>
      </trkpt>
      <trkpt lat="45.29843" lon="6.19208">
        <ele>1542.5999755859</ele>
        <time>2020-12-16T08:26:40.000Z</time>
      </trkpt>
      <trkpt lat="45.29843" lon="6.19202">
        <ele>1543.4000244141</ele>
        <time>2020-12-16T08:26:44.000Z</time>
      </trkpt>
      <trkpt lat="45.29844" lon="6.19199">
        <ele>1543.8000488281</ele>
        <time>2020-12-16T08:26:46.000Z</time>
      </trkpt>
      <trkpt lat="45.29845" lon="6.19193">
        <ele>1544.8000488281</ele>
        <time>2020-12-16T08:26:51.000Z</time>
      </trkpt>
      <trkpt lat="45.29845" lon="6.19192">
        <ele>1545</ele>
        <time>2020-12-16T08:26:52.000Z</time>
      </trkpt>
      <trkpt lat="45.29847" lon="6.19187">
        <ele>1546</ele>
        <time>2020-12-16T08:26:56.000Z</time>
      </trkpt>
      <trkpt lat="45.29848" lon="6.19184">
        <ele>1546.5999755859</ele>
        <time>2020-12-16T08:27:00.000Z</time>
      </trkpt>
      <trkpt lat="45.29844" lon="6.19181">
        <ele>1547</ele>
        <time>2020-12-16T08:27:05.000Z</time>
      </trkpt>
      <trkpt lat="45.2985" lon="6.19174">
        <ele>1547.5999755859</ele>
        <time>2020-12-16T08:27:11.000Z</time>
      </trkpt>
      <trkpt lat="45.29853" lon="6.19167">
        <ele>1547.8000488281</ele>
        <time>2020-12-16T08:27:17.000Z</time>
      </trkpt>
      <trkpt lat="45.29855" lon="6.19163">
        <ele>1548</ele>
        <time>2020-12-16T08:27:20.000Z</time>
      </trkpt>
      <trkpt lat="45.29856" lon="6.1916">
        <ele>1548.1999511719</ele>
        <time>2020-12-16T08:27:23.000Z</time>
      </trkpt>
      <trkpt lat="45.29855" lon="6.19161">
        <ele>1548.4000244141</ele>
        <time>2020-12-16T08:27:28.000Z</time>
      </trkpt>
      <trkpt lat="45.29855" lon="6.19161">
        <ele>1548.5999755859</ele>
        <time>2020-12-16T08:27:41.000Z</time>
      </trkpt>
      <trkpt lat="45.29855" lon="6.19161">
        <ele>1549.1999511719</ele>
        <time>2020-12-16T08:27:54.000Z</time>
      </trkpt>
      <trkpt lat="45.29856" lon="6.1916">
        <ele>1548.8000488281</ele>
        <time>2020-12-16T08:28:02.000Z</time>
      </trkpt>
      <trkpt lat="45.29856" lon="6.19158">
        <ele>1548.8000488281</ele>
        <time>2020-12-16T08:28:03.000Z</time>
      </trkpt>
      <trkpt lat="45.29859" lon="6.1915">
        <ele>1548.8000488281</ele>
        <time>2020-12-16T08:28:08.000Z</time>
      </trkpt>
      <trkpt lat="45.29861" lon="6.19144">
        <ele>1548.8000488281</ele>
        <time>2020-12-16T08:28:13.000Z</time>
      </trkpt>
      <trkpt lat="45.29863" lon="6.19138">
        <ele>1549.4000244141</ele>
        <time>2020-12-16T08:28:18.000Z</time>
      </trkpt>
      <trkpt lat="45.29866" lon="6.19134">
        <ele>1550.4000244141</ele>
        <time>2020-12-16T08:28:25.000Z</time>
      </trkpt>
      <trkpt lat="45.29866" lon="6.19134">
        <ele>1550.8000488281</ele>
        <time>2020-12-16T08:28:36.000Z</time>
      </trkpt>
      <trkpt lat="45.29866" lon="6.19134">
        <ele>1550.5999755859</ele>
        <time>2020-12-16T08:28:43.000Z</time>
      </trkpt>
      <trkpt lat="45.29866" lon="6.19134">
        <ele>1550.5999755859</ele>
        <time>2020-12-16T08:28:55.000Z</time>
      </trkpt>
      <trkpt lat="45.29866" lon="6.19134">
        <ele>1550.8000488281</ele>
        <time>2020-12-16T08:29:08.000Z</time>
      </trkpt>
      <trkpt lat="45.29866" lon="6.19134">
        <ele>1550.5999755859</ele>
        <time>2020-12-16T08:29:20.000Z</time>
      </trkpt>
      <trkpt lat="45.2987" lon="6.19128">
        <ele>1550.4000244141</ele>
        <time>2020-12-16T08:29:26.000Z</time>
      </trkpt>
      <trkpt lat="45.29875" lon="6.19118">
        <ele>1550</ele>
        <time>2020-12-16T08:29:32.000Z</time>
      </trkpt>
      <trkpt lat="45.2988" lon="6.1911">
        <ele>1550</ele>
        <time>2020-12-16T08:29:38.000Z</time>
      </trkpt>
      <trkpt lat="45.29886" lon="6.19104">
        <ele>1550.1999511719</ele>
        <time>2020-12-16T08:29:44.000Z</time>
      </trkpt>
      <trkpt lat="45.29889" lon="6.19099">
        <ele>1550.4000244141</ele>
        <time>2020-12-16T08:29:49.000Z</time>
      </trkpt>
      <trkpt lat="45.29893" lon="6.19094">
        <ele>1550.5999755859</ele>
        <time>2020-12-16T08:29:54.000Z</time>
      </trkpt>
      <trkpt lat="45.29896" lon="6.19086">
        <ele>1551</ele>
        <time>2020-12-16T08:30:01.000Z</time>
      </trkpt>
      <trkpt lat="45.29897" lon="6.1908">
        <ele>1551.1999511719</ele>
        <time>2020-12-16T08:30:05.000Z</time>
      </trkpt>
      <trkpt lat="45.299" lon="6.19075">
        <ele>1551.5999755859</ele>
        <time>2020-12-16T08:30:08.000Z</time>
      </trkpt>
      <trkpt lat="45.29901" lon="6.19074">
        <ele>1551.8000488281</ele>
        <time>2020-12-16T08:30:09.000Z</time>
      </trkpt>
      <trkpt lat="45.29903" lon="6.19069">
        <ele>1552.8000488281</ele>
        <time>2020-12-16T08:30:13.000Z</time>
      </trkpt>
      <trkpt lat="45.29904" lon="6.19066">
        <ele>1553.1999511719</ele>
        <time>2020-12-16T08:30:15.000Z</time>
      </trkpt>
      <trkpt lat="45.29904" lon="6.1906">
        <ele>1553.8000488281</ele>
        <time>2020-12-16T08:30:20.000Z</time>
      </trkpt>
      <trkpt lat="45.29907" lon="6.19055">
        <ele>1554.5999755859</ele>
        <time>2020-12-16T08:30:25.000Z</time>
      </trkpt>
      <trkpt lat="45.29907" lon="6.19053">
        <ele>1554.8000488281</ele>
        <time>2020-12-16T08:30:26.000Z</time>
      </trkpt>
      <trkpt lat="45.29909" lon="6.19048">
        <ele>1555.1999511719</ele>
        <time>2020-12-16T08:30:30.000Z</time>
      </trkpt>
      <trkpt lat="45.29909" lon="6.19046">
        <ele>1555.8000488281</ele>
        <time>2020-12-16T08:30:33.000Z</time>
      </trkpt>
      <trkpt lat="45.29909" lon="6.19042">
        <ele>1556.5999755859</ele>
        <time>2020-12-16T08:30:37.000Z</time>
      </trkpt>
      <trkpt lat="45.29909" lon="6.19039">
        <ele>1557</ele>
        <time>2020-12-16T08:30:40.000Z</time>
      </trkpt>
      <trkpt lat="45.29909" lon="6.19035">
        <ele>1557.4000244141</ele>
        <time>2020-12-16T08:30:43.000Z</time>
      </trkpt>
      <trkpt lat="45.2991" lon="6.1903">
        <ele>1558</ele>
        <time>2020-12-16T08:30:47.000Z</time>
      </trkpt>
      <trkpt lat="45.29911" lon="6.19027">
        <ele>1558.5999755859</ele>
        <time>2020-12-16T08:30:51.000Z</time>
      </trkpt>
      <trkpt lat="45.29912" lon="6.19026">
        <ele>1559</ele>
        <time>2020-12-16T08:30:55.000Z</time>
      </trkpt>
      <trkpt lat="45.29912" lon="6.19026">
        <ele>1559.1999511719</ele>
        <time>2020-12-16T08:30:57.000Z</time>
      </trkpt>
      <trkpt lat="45.29912" lon="6.19026">
        <ele>1559.1999511719</ele>
        <time>2020-12-16T08:31:07.000Z</time>
      </trkpt>
      <trkpt lat="45.29912" lon="6.19026">
        <ele>1559</ele>
        <time>2020-12-16T08:31:17.000Z</time>
      </trkpt>
      <trkpt lat="45.29912" lon="6.19026">
        <ele>1559.1999511719</ele>
        <time>2020-12-16T08:31:28.000Z</time>
      </trkpt>
      <trkpt lat="45.29912" lon="6.19026">
        <ele>1559.1999511719</ele>
        <time>2020-12-16T08:31:39.000Z</time>
      </trkpt>
      <trkpt lat="45.29912" lon="6.19026">
        <ele>1559.1999511719</ele>
        <time>2020-12-16T08:31:47.000Z</time>
      </trkpt>
      <trkpt lat="45.29912" lon="6.19026">
        <ele>1559.1999511719</ele>
        <time>2020-12-16T08:31:48.000Z</time>
      </trkpt>
      <trkpt lat="45.29913" lon="6.19027">
        <ele>1559</ele>
        <time>2020-12-16T08:32:03.000Z</time>
      </trkpt>
      <trkpt lat="45.29914" lon="6.19025">
        <ele>1559.1999511719</ele>
        <time>2020-12-16T08:32:15.000Z</time>
      </trkpt>
      <trkpt lat="45.29914" lon="6.19024">
        <ele>1559.1999511719</ele>
        <time>2020-12-16T08:32:28.000Z</time>
      </trkpt>
      <trkpt lat="45.29916" lon="6.19021">
        <ele>1559.4000244141</ele>
        <time>2020-12-16T08:32:37.000Z</time>
      </trkpt>
      <trkpt lat="45.29916" lon="6.19021">
        <ele>1559.5999755859</ele>
        <time>2020-12-16T08:32:47.000Z</time>
      </trkpt>
      <trkpt lat="45.29916" lon="6.19019">
        <ele>1559.4000244141</ele>
        <time>2020-12-16T08:32:57.000Z</time>
      </trkpt>
      <trkpt lat="45.29919" lon="6.19012">
        <ele>1559.8000488281</ele>
        <time>2020-12-16T08:33:05.000Z</time>
      </trkpt>
      <trkpt lat="45.2992" lon="6.19011">
        <ele>1560.1999511719</ele>
        <time>2020-12-16T08:33:08.000Z</time>
      </trkpt>
      <trkpt lat="45.2992" lon="6.19011">
        <ele>1560.5999755859</ele>
        <time>2020-12-16T08:33:17.000Z</time>
      </trkpt>
      <trkpt lat="45.2992" lon="6.19011">
        <ele>1561.1999511719</ele>
        <time>2020-12-16T08:33:31.000Z</time>
      </trkpt>
      <trkpt lat="45.2992" lon="6.19011">
        <ele>1561.4000244141</ele>
        <time>2020-12-16T08:33:32.000Z</time>
      </trkpt>
      <trkpt lat="45.2992" lon="6.19011">
        <ele>1560.8000488281</ele>
        <time>2020-12-16T08:33:40.000Z</time>
      </trkpt>
      <trkpt lat="45.2992" lon="6.19011">
        <ele>1560.8000488281</ele>
        <time>2020-12-16T08:33:50.000Z</time>
      </trkpt>
      <trkpt lat="45.29922" lon="6.19007">
        <ele>1561.4000244141</ele>
        <time>2020-12-16T08:33:58.000Z</time>
      </trkpt>
      <trkpt lat="45.29925" lon="6.19">
        <ele>1562.4000244141</ele>
        <time>2020-12-16T08:34:05.000Z</time>
      </trkpt>
      <trkpt lat="45.29927" lon="6.18997">
        <ele>1562.5999755859</ele>
        <time>2020-12-16T08:34:07.000Z</time>
      </trkpt>
      <trkpt lat="45.29928" lon="6.1899">
        <ele>1563.4000244141</ele>
        <time>2020-12-16T08:34:12.000Z</time>
      </trkpt>
      <trkpt lat="45.29929" lon="6.18988">
        <ele>1563.5999755859</ele>
        <time>2020-12-16T08:34:14.000Z</time>
      </trkpt>
      <trkpt lat="45.29932" lon="6.18979">
        <ele>1564.8000488281</ele>
        <time>2020-12-16T08:34:21.000Z</time>
      </trkpt>
      <trkpt lat="45.29933" lon="6.18967">
        <ele>1565.8000488281</ele>
        <time>2020-12-16T08:34:30.000Z</time>
      </trkpt>
      <trkpt lat="45.29935" lon="6.18958">
        <ele>1566.8000488281</ele>
        <time>2020-12-16T08:34:38.000Z</time>
      </trkpt>
      <trkpt lat="45.29935" lon="6.18957">
        <ele>1567</ele>
        <time>2020-12-16T08:34:39.000Z</time>
      </trkpt>
      <trkpt lat="45.29938" lon="6.18947">
        <ele>1567.4000244141</ele>
        <time>2020-12-16T08:34:48.000Z</time>
      </trkpt>
      <trkpt lat="45.29939" lon="6.18942">
        <ele>1568</ele>
        <time>2020-12-16T08:34:52.000Z</time>
      </trkpt>
      <trkpt lat="45.29939" lon="6.18937">
        <ele>1568.5999755859</ele>
        <time>2020-12-16T08:34:56.000Z</time>
      </trkpt>
      <trkpt lat="45.29941" lon="6.18935">
        <ele>1569.1999511719</ele>
        <time>2020-12-16T08:34:58.000Z</time>
      </trkpt>
      <trkpt lat="45.29942" lon="6.18929">
        <ele>1570.1999511719</ele>
        <time>2020-12-16T08:35:03.000Z</time>
      </trkpt>
      <trkpt lat="45.29944" lon="6.18921">
        <ele>1571.1999511719</ele>
        <time>2020-12-16T08:35:10.000Z</time>
      </trkpt>
      <trkpt lat="45.29944" lon="6.18919">
        <ele>1571.5999755859</ele>
        <time>2020-12-16T08:35:12.000Z</time>
      </trkpt>
      <trkpt lat="45.29944" lon="6.18917">
        <ele>1572.1999511719</ele>
        <time>2020-12-16T08:35:15.000Z</time>
      </trkpt>
      <trkpt lat="45.29943" lon="6.18912">
        <ele>1572.8000488281</ele>
        <time>2020-12-16T08:35:19.000Z</time>
      </trkpt>
      <trkpt lat="45.29943" lon="6.18909">
        <ele>1573.1999511719</ele>
        <time>2020-12-16T08:35:21.000Z</time>
      </trkpt>
      <trkpt lat="45.29942" lon="6.18903">
        <ele>1574.4000244141</ele>
        <time>2020-12-16T08:35:28.000Z</time>
      </trkpt>
      <trkpt lat="45.29943" lon="6.18915">
        <ele>1575.4000244141</ele>
        <time>2020-12-16T08:35:34.000Z</time>
      </trkpt>
      <trkpt lat="45.29943" lon="6.18915">
        <ele>1575.5999755859</ele>
        <time>2020-12-16T08:35:36.000Z</time>
      </trkpt>
      <trkpt lat="45.29944" lon="6.18911">
        <ele>1576</ele>
        <time>2020-12-16T08:35:41.000Z</time>
      </trkpt>
      <trkpt lat="45.29943" lon="6.18909">
        <ele>1576.4000244141</ele>
        <time>2020-12-16T08:35:43.000Z</time>
      </trkpt>
      <trkpt lat="45.29943" lon="6.18902">
        <ele>1577.4000244141</ele>
        <time>2020-12-16T08:35:49.000Z</time>
      </trkpt>
      <trkpt lat="45.29943" lon="6.18901">
        <ele>1577.5999755859</ele>
        <time>2020-12-16T08:35:50.000Z</time>
      </trkpt>
      <trkpt lat="45.29944" lon="6.18894">
        <ele>1578.8000488281</ele>
        <time>2020-12-16T08:35:57.000Z</time>
      </trkpt>
      <trkpt lat="45.29944" lon="6.18892">
        <ele>1579.1999511719</ele>
        <time>2020-12-16T08:35:59.000Z</time>
      </trkpt>
      <trkpt lat="45.29943" lon="6.1889">
        <ele>1579.8000488281</ele>
        <time>2020-12-16T08:36:02.000Z</time>
      </trkpt>
      <trkpt lat="45.29942" lon="6.18886">
        <ele>1580.5999755859</ele>
        <time>2020-12-16T08:36:06.000Z</time>
      </trkpt>
      <trkpt lat="45.29942" lon="6.18885">
        <ele>1581</ele>
        <time>2020-12-16T08:36:08.000Z</time>
      </trkpt>
      <trkpt lat="45.2994" lon="6.18883">
        <ele>1582</ele>
        <time>2020-12-16T08:36:13.000Z</time>
      </trkpt>
      <trkpt lat="45.2994" lon="6.18882">
        <ele>1582.1999511719</ele>
        <time>2020-12-16T08:36:14.000Z</time>
      </trkpt>
      <trkpt lat="45.29942" lon="6.18879">
        <ele>1582.8000488281</ele>
        <time>2020-12-16T08:36:20.000Z</time>
      </trkpt>
      <trkpt lat="45.29942" lon="6.18876">
        <ele>1583.1999511719</ele>
        <time>2020-12-16T08:36:24.000Z</time>
      </trkpt>
      <trkpt lat="45.29942" lon="6.18872">
        <ele>1583.5999755859</ele>
        <time>2020-12-16T08:36:27.000Z</time>
      </trkpt>
      <trkpt lat="45.29943" lon="6.18869">
        <ele>1584.1999511719</ele>
        <time>2020-12-16T08:36:31.000Z</time>
      </trkpt>
      <trkpt lat="45.29945" lon="6.1887">
        <ele>1585</ele>
        <time>2020-12-16T08:36:35.000Z</time>
      </trkpt>
      <trkpt lat="45.29946" lon="6.1887">
        <ele>1585.4000244141</ele>
        <time>2020-12-16T08:36:38.000Z</time>
      </trkpt>
      <trkpt lat="45.29946" lon="6.18868">
        <ele>1586</ele>
        <time>2020-12-16T08:36:43.000Z</time>
      </trkpt>
      <trkpt lat="45.29946" lon="6.18867">
        <ele>1586.4000244141</ele>
        <time>2020-12-16T08:36:46.000Z</time>
      </trkpt>
      <trkpt lat="45.29947" lon="6.18864">
        <ele>1586.5999755859</ele>
        <time>2020-12-16T08:36:49.000Z</time>
      </trkpt>
      <trkpt lat="45.29947" lon="6.18863">
        <ele>1587.4000244141</ele>
        <time>2020-12-16T08:36:53.000Z</time>
      </trkpt>
      <trkpt lat="45.29948" lon="6.18861">
        <ele>1587.8000488281</ele>
        <time>2020-12-16T08:36:55.000Z</time>
      </trkpt>
      <trkpt lat="45.29949" lon="6.18857">
        <ele>1588.5999755859</ele>
        <time>2020-12-16T08:36:59.000Z</time>
      </trkpt>
      <trkpt lat="45.2995" lon="6.18853">
        <ele>1589.4000244141</ele>
        <time>2020-12-16T08:37:04.000Z</time>
      </trkpt>
      <trkpt lat="45.29951" lon="6.18852">
        <ele>1589.5999755859</ele>
        <time>2020-12-16T08:37:05.000Z</time>
      </trkpt>
      <trkpt lat="45.29953" lon="6.18845">
        <ele>1590.5999755859</ele>
        <time>2020-12-16T08:37:12.000Z</time>
      </trkpt>
      <trkpt lat="45.29954" lon="6.18845">
        <ele>1590.8000488281</ele>
        <time>2020-12-16T08:37:13.000Z</time>
      </trkpt>
      <trkpt lat="45.29954" lon="6.18843">
        <ele>1591.8000488281</ele>
        <time>2020-12-16T08:37:19.000Z</time>
      </trkpt>
      <trkpt lat="45.29954" lon="6.18843">
        <ele>1592.1999511719</ele>
        <time>2020-12-16T08:37:21.000Z</time>
      </trkpt>
      <trkpt lat="45.29954" lon="6.18843">
        <ele>1592.8000488281</ele>
        <time>2020-12-16T08:37:25.000Z</time>
      </trkpt>
      <trkpt lat="45.29954" lon="6.18843">
        <ele>1593.4000244141</ele>
        <time>2020-12-16T08:37:28.000Z</time>
      </trkpt>
      <trkpt lat="45.29954" lon="6.18843">
        <ele>1594</ele>
        <time>2020-12-16T08:37:31.000Z</time>
      </trkpt>
      <trkpt lat="45.29954" lon="6.18843">
        <ele>1594.4000244141</ele>
        <time>2020-12-16T08:37:34.000Z</time>
      </trkpt>
      <trkpt lat="45.29954" lon="6.18843">
        <ele>1595.1999511719</ele>
        <time>2020-12-16T08:37:38.000Z</time>
      </trkpt>
      <trkpt lat="45.29954" lon="6.18843">
        <ele>1595.5999755859</ele>
        <time>2020-12-16T08:37:40.000Z</time>
      </trkpt>
      <trkpt lat="45.29954" lon="6.18843">
        <ele>1596.1999511719</ele>
        <time>2020-12-16T08:37:44.000Z</time>
      </trkpt>
      <trkpt lat="45.29954" lon="6.18843">
        <ele>1596.5999755859</ele>
        <time>2020-12-16T08:37:47.000Z</time>
      </trkpt>
      <trkpt lat="45.29954" lon="6.18843">
        <ele>1597.1999511719</ele>
        <time>2020-12-16T08:37:50.000Z</time>
      </trkpt>
      <trkpt lat="45.29954" lon="6.18842">
        <ele>1598.1999511719</ele>
        <time>2020-12-16T08:37:56.000Z</time>
      </trkpt>
      <trkpt lat="45.29954" lon="6.18842">
        <ele>1598.1999511719</ele>
        <time>2020-12-16T08:37:57.000Z</time>
      </trkpt>
      <trkpt lat="45.29954" lon="6.18839">
        <ele>1599.1999511719</ele>
        <time>2020-12-16T08:38:03.000Z</time>
      </trkpt>
      <trkpt lat="45.29955" lon="6.18835">
        <ele>1599.4000244141</ele>
        <time>2020-12-16T08:38:04.000Z</time>
      </trkpt>
      <trkpt lat="45.29958" lon="6.18824">
        <ele>1600.4000244141</ele>
        <time>2020-12-16T08:38:09.000Z</time>
      </trkpt>
      <trkpt lat="45.29958" lon="6.18823">
        <ele>1600.5999755859</ele>
        <time>2020-12-16T08:38:10.000Z</time>
      </trkpt>
      <trkpt lat="45.29962" lon="6.18809">
        <ele>1601.5999755859</ele>
        <time>2020-12-16T08:38:15.000Z</time>
      </trkpt>
      <trkpt lat="45.29963" lon="6.18807">
        <ele>1602</ele>
        <time>2020-12-16T08:38:17.000Z</time>
      </trkpt>
      <trkpt lat="45.29967" lon="6.18804">
        <ele>1602.5999755859</ele>
        <time>2020-12-16T08:38:22.000Z</time>
      </trkpt>
      <trkpt lat="45.29969" lon="6.18799">
        <ele>1603.5999755859</ele>
        <time>2020-12-16T08:38:29.000Z</time>
      </trkpt>
      <trkpt lat="45.29971" lon="6.18797">
        <ele>1604</ele>
        <time>2020-12-16T08:38:31.000Z</time>
      </trkpt>
      <trkpt lat="45.29971" lon="6.18795">
        <ele>1604.5999755859</ele>
        <time>2020-12-16T08:38:34.000Z</time>
      </trkpt>
      <trkpt lat="45.29972" lon="6.18793">
        <ele>1605.1999511719</ele>
        <time>2020-12-16T08:38:37.000Z</time>
      </trkpt>
      <trkpt lat="45.29973" lon="6.18791">
        <ele>1605.5999755859</ele>
        <time>2020-12-16T08:38:40.000Z</time>
      </trkpt>
      <trkpt lat="45.29975" lon="6.18789">
        <ele>1606.4000244141</ele>
        <time>2020-12-16T08:38:44.000Z</time>
      </trkpt>
      <trkpt lat="45.29975" lon="6.18788">
        <ele>1606.5999755859</ele>
        <time>2020-12-16T08:38:45.000Z</time>
      </trkpt>
      <trkpt lat="45.29976" lon="6.18788">
        <ele>1606.8000488281</ele>
        <time>2020-12-16T08:38:46.000Z</time>
      </trkpt>
      <trkpt lat="45.29978" lon="6.18783">
        <ele>1607.8000488281</ele>
        <time>2020-12-16T08:38:53.000Z</time>
      </trkpt>
      <trkpt lat="45.29978" lon="6.18782">
        <ele>1608</ele>
        <time>2020-12-16T08:38:54.000Z</time>
      </trkpt>
      <trkpt lat="45.2998" lon="6.18779">
        <ele>1609</ele>
        <time>2020-12-16T08:38:59.000Z</time>
      </trkpt>
      <trkpt lat="45.29981" lon="6.18778">
        <ele>1609.5999755859</ele>
        <time>2020-12-16T08:39:03.000Z</time>
      </trkpt>
      <trkpt lat="45.29982" lon="6.18777">
        <ele>1610</ele>
        <time>2020-12-16T08:39:05.000Z</time>
      </trkpt>
      <trkpt lat="45.29983" lon="6.18775">
        <ele>1610.8000488281</ele>
        <time>2020-12-16T08:39:11.000Z</time>
      </trkpt>
      <trkpt lat="45.29983" lon="6.18774">
        <ele>1611</ele>
        <time>2020-12-16T08:39:13.000Z</time>
      </trkpt>
      <trkpt lat="45.29984" lon="6.18771">
        <ele>1612.1999511719</ele>
        <time>2020-12-16T08:39:19.000Z</time>
      </trkpt>
      <trkpt lat="45.29987" lon="6.18767">
        <ele>1613</ele>
        <time>2020-12-16T08:39:25.000Z</time>
      </trkpt>
      <trkpt lat="45.29987" lon="6.18766">
        <ele>1613.1999511719</ele>
        <time>2020-12-16T08:39:26.000Z</time>
      </trkpt>
      <trkpt lat="45.2999" lon="6.18763">
        <ele>1614</ele>
        <time>2020-12-16T08:39:31.000Z</time>
      </trkpt>
      <trkpt lat="45.29991" lon="6.18763">
        <ele>1614.4000244141</ele>
        <time>2020-12-16T08:39:33.000Z</time>
      </trkpt>
      <trkpt lat="45.2999" lon="6.1876">
        <ele>1615</ele>
        <time>2020-12-16T08:39:37.000Z</time>
      </trkpt>
      <trkpt lat="45.2999" lon="6.18759">
        <ele>1615.5999755859</ele>
        <time>2020-12-16T08:39:40.000Z</time>
      </trkpt>
      <trkpt lat="45.2999" lon="6.18758">
        <ele>1616.5999755859</ele>
        <time>2020-12-16T08:39:45.000Z</time>
      </trkpt>
      <trkpt lat="45.2999" lon="6.18758">
        <ele>1616.8000488281</ele>
        <time>2020-12-16T08:39:46.000Z</time>
      </trkpt>
      <trkpt lat="45.2999" lon="6.18754">
        <ele>1617.8000488281</ele>
        <time>2020-12-16T08:39:51.000Z</time>
      </trkpt>
      <trkpt lat="45.2999" lon="6.18753">
        <ele>1617.8000488281</ele>
        <time>2020-12-16T08:39:52.000Z</time>
      </trkpt>
      <trkpt lat="45.29994" lon="6.1875">
        <ele>1618.8000488281</ele>
        <time>2020-12-16T08:39:58.000Z</time>
      </trkpt>
      <trkpt lat="45.29995" lon="6.1875">
        <ele>1619.1999511719</ele>
        <time>2020-12-16T08:40:00.000Z</time>
      </trkpt>
      <trkpt lat="45.29997" lon="6.18746">
        <ele>1619.5999755859</ele>
        <time>2020-12-16T08:40:05.000Z</time>
      </trkpt>
      <trkpt lat="45.29997" lon="6.18744">
        <ele>1619.8000488281</ele>
        <time>2020-12-16T08:40:07.000Z</time>
      </trkpt>
      <trkpt lat="45.29997" lon="6.18743">
        <ele>1619.8000488281</ele>
        <time>2020-12-16T08:40:08.000Z</time>
      </trkpt>
      <trkpt lat="45.29999" lon="6.18739">
        <ele>1620.8000488281</ele>
        <time>2020-12-16T08:40:13.000Z</time>
      </trkpt>
      <trkpt lat="45.29999" lon="6.18739">
        <ele>1621</ele>
        <time>2020-12-16T08:40:14.000Z</time>
      </trkpt>
      <trkpt lat="45.3" lon="6.18737">
        <ele>1621.4000244141</ele>
        <time>2020-12-16T08:40:19.000Z</time>
      </trkpt>
      <trkpt lat="45.30003" lon="6.18731">
        <ele>1623</ele>
        <time>2020-12-16T08:40:26.000Z</time>
      </trkpt>
      <trkpt lat="45.30003" lon="6.18729">
        <ele>1624.4000244141</ele>
        <time>2020-12-16T08:40:28.000Z</time>
      </trkpt>
      <trkpt lat="45.30002" lon="6.18724">
        <ele>1624.1999511719</ele>
        <time>2020-12-16T08:40:34.000Z</time>
      </trkpt>
      <trkpt lat="45.30002" lon="6.18719">
        <ele>1625</ele>
        <time>2020-12-16T08:40:40.000Z</time>
      </trkpt>
      <trkpt lat="45.30002" lon="6.18717">
        <ele>1625.4000244141</ele>
        <time>2020-12-16T08:40:42.000Z</time>
      </trkpt>
      <trkpt lat="45.30003" lon="6.18714">
        <ele>1626</ele>
        <time>2020-12-16T08:40:46.000Z</time>
      </trkpt>
      <trkpt lat="45.30004" lon="6.18712">
        <ele>1626.5999755859</ele>
        <time>2020-12-16T08:40:49.000Z</time>
      </trkpt>
      <trkpt lat="45.30004" lon="6.18709">
        <ele>1627.1999511719</ele>
        <time>2020-12-16T08:40:52.000Z</time>
      </trkpt>
      <trkpt lat="45.30005" lon="6.18707">
        <ele>1627.8000488281</ele>
        <time>2020-12-16T08:40:55.000Z</time>
      </trkpt>
      <trkpt lat="45.30006" lon="6.18704">
        <ele>1628.5999755859</ele>
        <time>2020-12-16T08:40:59.000Z</time>
      </trkpt>
      <trkpt lat="45.30008" lon="6.18703">
        <ele>1628.8000488281</ele>
        <time>2020-12-16T08:41:02.000Z</time>
      </trkpt>
      <trkpt lat="45.30009" lon="6.18702">
        <ele>1629.1999511719</ele>
        <time>2020-12-16T08:41:04.000Z</time>
      </trkpt>
      <trkpt lat="45.30011" lon="6.18697">
        <ele>1630</ele>
        <time>2020-12-16T08:41:10.000Z</time>
      </trkpt>
      <trkpt lat="45.30011" lon="6.18697">
        <ele>1630</ele>
        <time>2020-12-16T08:41:11.000Z</time>
      </trkpt>
      <trkpt lat="45.30012" lon="6.18694">
        <ele>1631</ele>
        <time>2020-12-16T08:41:16.000Z</time>
      </trkpt>
      <trkpt lat="45.30012" lon="6.18692">
        <ele>1631.4000244141</ele>
        <time>2020-12-16T08:41:19.000Z</time>
      </trkpt>
      <trkpt lat="45.30013" lon="6.1869">
        <ele>1632.1999511719</ele>
        <time>2020-12-16T08:41:22.000Z</time>
      </trkpt>
      <trkpt lat="45.30012" lon="6.18687">
        <ele>1632.8000488281</ele>
        <time>2020-12-16T08:41:26.000Z</time>
      </trkpt>
      <trkpt lat="45.30012" lon="6.18685">
        <ele>1633.1999511719</ele>
        <time>2020-12-16T08:41:28.000Z</time>
      </trkpt>
      <trkpt lat="45.30013" lon="6.18682">
        <ele>1634</ele>
        <time>2020-12-16T08:41:33.000Z</time>
      </trkpt>
      <trkpt lat="45.30012" lon="6.1868">
        <ele>1634.4000244141</ele>
        <time>2020-12-16T08:41:35.000Z</time>
      </trkpt>
      <trkpt lat="45.30012" lon="6.18677">
        <ele>1635.4000244141</ele>
        <time>2020-12-16T08:41:41.000Z</time>
      </trkpt>
      <trkpt lat="45.30011" lon="6.18673">
        <ele>1636.4000244141</ele>
        <time>2020-12-16T08:41:46.000Z</time>
      </trkpt>
      <trkpt lat="45.3001" lon="6.1867">
        <ele>1637.4000244141</ele>
        <time>2020-12-16T08:41:51.000Z</time>
      </trkpt>
      <trkpt lat="45.3001" lon="6.18669">
        <ele>1637.4000244141</ele>
        <time>2020-12-16T08:41:52.000Z</time>
      </trkpt>
      <trkpt lat="45.30007" lon="6.18667">
        <ele>1638.5999755859</ele>
        <time>2020-12-16T08:41:59.000Z</time>
      </trkpt>
      <trkpt lat="45.30005" lon="6.18665">
        <ele>1639.5999755859</ele>
        <time>2020-12-16T08:42:06.000Z</time>
      </trkpt>
      <trkpt lat="45.30004" lon="6.18665">
        <ele>1640</ele>
        <time>2020-12-16T08:42:08.000Z</time>
      </trkpt>
      <trkpt lat="45.30002" lon="6.18664">
        <ele>1640.8000488281</ele>
        <time>2020-12-16T08:42:11.000Z</time>
      </trkpt>
      <trkpt lat="45.29999" lon="6.18664">
        <ele>1641.4000244141</ele>
        <time>2020-12-16T08:42:15.000Z</time>
      </trkpt>
      <trkpt lat="45.29998" lon="6.18663">
        <ele>1641.5999755859</ele>
        <time>2020-12-16T08:42:16.000Z</time>
      </trkpt>
      <trkpt lat="45.29998" lon="6.18662">
        <ele>1641.8000488281</ele>
        <time>2020-12-16T08:42:17.000Z</time>
      </trkpt>
      <trkpt lat="45.29997" lon="6.18661">
        <ele>1642.1999511719</ele>
        <time>2020-12-16T08:42:20.000Z</time>
      </trkpt>
      <trkpt lat="45.29994" lon="6.18658">
        <ele>1643</ele>
        <time>2020-12-16T08:42:24.000Z</time>
      </trkpt>
      <trkpt lat="45.29994" lon="6.18656">
        <ele>1643.4000244141</ele>
        <time>2020-12-16T08:42:27.000Z</time>
      </trkpt>
      <trkpt lat="45.29994" lon="6.18654">
        <ele>1644</ele>
        <time>2020-12-16T08:42:30.000Z</time>
      </trkpt>
      <trkpt lat="45.29993" lon="6.1865">
        <ele>1645</ele>
        <time>2020-12-16T08:42:35.000Z</time>
      </trkpt>
      <trkpt lat="45.29993" lon="6.18649">
        <ele>1645.1999511719</ele>
        <time>2020-12-16T08:42:36.000Z</time>
      </trkpt>
      <trkpt lat="45.29993" lon="6.18646">
        <ele>1646.1999511719</ele>
        <time>2020-12-16T08:42:41.000Z</time>
      </trkpt>
      <trkpt lat="45.29993" lon="6.18642">
        <ele>1646.8000488281</ele>
        <time>2020-12-16T08:42:45.000Z</time>
      </trkpt>
      <trkpt lat="45.29993" lon="6.18641">
        <ele>1647.4000244141</ele>
        <time>2020-12-16T08:42:48.000Z</time>
      </trkpt>
      <trkpt lat="45.29993" lon="6.18639">
        <ele>1648</ele>
        <time>2020-12-16T08:42:51.000Z</time>
      </trkpt>
      <trkpt lat="45.29993" lon="6.18636">
        <ele>1648.4000244141</ele>
        <time>2020-12-16T08:42:54.000Z</time>
      </trkpt>
      <trkpt lat="45.29993" lon="6.18634">
        <ele>1649.1999511719</ele>
        <time>2020-12-16T08:42:58.000Z</time>
      </trkpt>
      <trkpt lat="45.29993" lon="6.18632">
        <ele>1649.5999755859</ele>
        <time>2020-12-16T08:43:00.000Z</time>
      </trkpt>
      <trkpt lat="45.29993" lon="6.18627">
        <ele>1650.5999755859</ele>
        <time>2020-12-16T08:43:06.000Z</time>
      </trkpt>
      <trkpt lat="45.29993" lon="6.18621">
        <ele>1651.4000244141</ele>
        <time>2020-12-16T08:43:12.000Z</time>
      </trkpt>
      <trkpt lat="45.29992" lon="6.18619">
        <ele>1651.5999755859</ele>
        <time>2020-12-16T08:43:14.000Z</time>
      </trkpt>
      <trkpt lat="45.29993" lon="6.18617">
        <ele>1652.1999511719</ele>
        <time>2020-12-16T08:43:17.000Z</time>
      </trkpt>
      <trkpt lat="45.29994" lon="6.18615">
        <ele>1652.4000244141</ele>
        <time>2020-12-16T08:43:19.000Z</time>
      </trkpt>
      <trkpt lat="45.29994" lon="6.18614">
        <ele>1652.8000488281</ele>
        <time>2020-12-16T08:43:21.000Z</time>
      </trkpt>
      <trkpt lat="45.29994" lon="6.18608">
        <ele>1653.5999755859</ele>
        <time>2020-12-16T08:43:26.000Z</time>
      </trkpt>
      <trkpt lat="45.29994" lon="6.18608">
        <ele>1653.8000488281</ele>
        <time>2020-12-16T08:43:27.000Z</time>
      </trkpt>
      <trkpt lat="45.29994" lon="6.18605">
        <ele>1654</ele>
        <time>2020-12-16T08:43:29.000Z</time>
      </trkpt>
      <trkpt lat="45.29994" lon="6.18602">
        <ele>1654.1999511719</ele>
        <time>2020-12-16T08:43:32.000Z</time>
      </trkpt>
      <trkpt lat="45.29994" lon="6.18599">
        <ele>1654.8000488281</ele>
        <time>2020-12-16T08:43:36.000Z</time>
      </trkpt>
      <trkpt lat="45.29994" lon="6.18598">
        <ele>1655.1999511719</ele>
        <time>2020-12-16T08:43:38.000Z</time>
      </trkpt>
      <trkpt lat="45.29994" lon="6.18594">
        <ele>1655.8000488281</ele>
        <time>2020-12-16T08:43:42.000Z</time>
      </trkpt>
      <trkpt lat="45.29994" lon="6.18591">
        <ele>1656.1999511719</ele>
        <time>2020-12-16T08:43:45.000Z</time>
      </trkpt>
      <trkpt lat="45.29994" lon="6.18589">
        <ele>1657</ele>
        <time>2020-12-16T08:43:48.000Z</time>
      </trkpt>
      <trkpt lat="45.29995" lon="6.18585">
        <ele>1657.5999755859</ele>
        <time>2020-12-16T08:43:52.000Z</time>
      </trkpt>
      <trkpt lat="45.29997" lon="6.18584">
        <ele>1658</ele>
        <time>2020-12-16T08:43:54.000Z</time>
      </trkpt>
      <trkpt lat="45.29999" lon="6.1858">
        <ele>1658.8000488281</ele>
        <time>2020-12-16T08:44:00.000Z</time>
      </trkpt>
      <trkpt lat="45.3" lon="6.18579">
        <ele>1659.1999511719</ele>
        <time>2020-12-16T08:44:02.000Z</time>
      </trkpt>
      <trkpt lat="45.30001" lon="6.18574">
        <ele>1660</ele>
        <time>2020-12-16T08:44:08.000Z</time>
      </trkpt>
      <trkpt lat="45.30001" lon="6.18573">
        <ele>1660.1999511719</ele>
        <time>2020-12-16T08:44:09.000Z</time>
      </trkpt>
      <trkpt lat="45.3" lon="6.18567">
        <ele>1661.1999511719</ele>
        <time>2020-12-16T08:44:15.000Z</time>
      </trkpt>
      <trkpt lat="45.3" lon="6.18565">
        <ele>1661.4000244141</ele>
        <time>2020-12-16T08:44:16.000Z</time>
      </trkpt>
      <trkpt lat="45.30001" lon="6.18563">
        <ele>1662</ele>
        <time>2020-12-16T08:44:20.000Z</time>
      </trkpt>
      <trkpt lat="45.3" lon="6.18562">
        <ele>1662.4000244141</ele>
        <time>2020-12-16T08:44:22.000Z</time>
      </trkpt>
      <trkpt lat="45.3" lon="6.1856">
        <ele>1662.8000488281</ele>
        <time>2020-12-16T08:44:24.000Z</time>
      </trkpt>
      <trkpt lat="45.3" lon="6.18559">
        <ele>1663.1999511719</ele>
        <time>2020-12-16T08:44:26.000Z</time>
      </trkpt>
      <trkpt lat="45.3" lon="6.18558">
        <ele>1663.4000244141</ele>
        <time>2020-12-16T08:44:28.000Z</time>
      </trkpt>
      <trkpt lat="45.29999" lon="6.18553">
        <ele>1664.5999755859</ele>
        <time>2020-12-16T08:44:34.000Z</time>
      </trkpt>
      <trkpt lat="45.29997" lon="6.18548">
        <ele>1665.5999755859</ele>
        <time>2020-12-16T08:44:40.000Z</time>
      </trkpt>
      <trkpt lat="45.29997" lon="6.18546">
        <ele>1665.8000488281</ele>
        <time>2020-12-16T08:44:41.000Z</time>
      </trkpt>
      <trkpt lat="45.29996" lon="6.18543">
        <ele>1666.8000488281</ele>
        <time>2020-12-16T08:44:47.000Z</time>
      </trkpt>
      <trkpt lat="45.29996" lon="6.18543">
        <ele>1667</ele>
        <time>2020-12-16T08:44:48.000Z</time>
      </trkpt>
      <trkpt lat="45.29995" lon="6.18539">
        <ele>1667.5999755859</ele>
        <time>2020-12-16T08:44:53.000Z</time>
      </trkpt>
      <trkpt lat="45.29995" lon="6.18537">
        <ele>1668</ele>
        <time>2020-12-16T08:44:55.000Z</time>
      </trkpt>
      <trkpt lat="45.29994" lon="6.18534">
        <ele>1668.8000488281</ele>
        <time>2020-12-16T08:45:00.000Z</time>
      </trkpt>
      <trkpt lat="45.29994" lon="6.18533">
        <ele>1669</ele>
        <time>2020-12-16T08:45:01.000Z</time>
      </trkpt>
      <trkpt lat="45.29993" lon="6.1853">
        <ele>1670</ele>
        <time>2020-12-16T08:45:06.000Z</time>
      </trkpt>
      <trkpt lat="45.29992" lon="6.18527">
        <ele>1670.4000244141</ele>
        <time>2020-12-16T08:45:10.000Z</time>
      </trkpt>
      <trkpt lat="45.2999" lon="6.18523">
        <ele>1671.1999511719</ele>
        <time>2020-12-16T08:45:15.000Z</time>
      </trkpt>
      <trkpt lat="45.29989" lon="6.18521">
        <ele>1671.5999755859</ele>
        <time>2020-12-16T08:45:18.000Z</time>
      </trkpt>
      <trkpt lat="45.29988" lon="6.18519">
        <ele>1672.1999511719</ele>
        <time>2020-12-16T08:45:21.000Z</time>
      </trkpt>
      <trkpt lat="45.29987" lon="6.18516">
        <ele>1672.8000488281</ele>
        <time>2020-12-16T08:45:24.000Z</time>
      </trkpt>
      <trkpt lat="45.29987" lon="6.18515">
        <ele>1673.1999511719</ele>
        <time>2020-12-16T08:45:26.000Z</time>
      </trkpt>
      <trkpt lat="45.29986" lon="6.18512">
        <ele>1674</ele>
        <time>2020-12-16T08:45:31.000Z</time>
      </trkpt>
      <trkpt lat="45.29986" lon="6.18511">
        <ele>1674.1999511719</ele>
        <time>2020-12-16T08:45:33.000Z</time>
      </trkpt>
      <trkpt lat="45.29985" lon="6.18508">
        <ele>1675.4000244141</ele>
        <time>2020-12-16T08:45:39.000Z</time>
      </trkpt>
      <trkpt lat="45.29985" lon="6.18501">
        <ele>1676.5999755859</ele>
        <time>2020-12-16T08:45:46.000Z</time>
      </trkpt>
      <trkpt lat="45.29986" lon="6.18492">
        <ele>1677.5999755859</ele>
        <time>2020-12-16T08:45:54.000Z</time>
      </trkpt>
      <trkpt lat="45.29986" lon="6.18487">
        <ele>1678.5999755859</ele>
        <time>2020-12-16T08:46:00.000Z</time>
      </trkpt>
      <trkpt lat="45.29986" lon="6.18481">
        <ele>1679.8000488281</ele>
        <time>2020-12-16T08:46:06.000Z</time>
      </trkpt>
      <trkpt lat="45.29985" lon="6.18478">
        <ele>1680.8000488281</ele>
        <time>2020-12-16T08:46:11.000Z</time>
      </trkpt>
      <trkpt lat="45.29985" lon="6.18477">
        <ele>1681</ele>
        <time>2020-12-16T08:46:12.000Z</time>
      </trkpt>
      <trkpt lat="45.29986" lon="6.18474">
        <ele>1681.8000488281</ele>
        <time>2020-12-16T08:46:17.000Z</time>
      </trkpt>
      <trkpt lat="45.29986" lon="6.18474">
        <ele>1682</ele>
        <time>2020-12-16T08:46:18.000Z</time>
      </trkpt>
      <trkpt lat="45.29987" lon="6.18472">
        <ele>1683</ele>
        <time>2020-12-16T08:46:23.000Z</time>
      </trkpt>
      <trkpt lat="45.29987" lon="6.18472">
        <ele>1683.1999511719</ele>
        <time>2020-12-16T08:46:24.000Z</time>
      </trkpt>
      <trkpt lat="45.29989" lon="6.18468">
        <ele>1684</ele>
        <time>2020-12-16T08:46:29.000Z</time>
      </trkpt>
      <trkpt lat="45.29991" lon="6.18467">
        <ele>1684.4000244141</ele>
        <time>2020-12-16T08:46:31.000Z</time>
      </trkpt>
      <trkpt lat="45.29993" lon="6.18465">
        <ele>1685.1999511719</ele>
        <time>2020-12-16T08:46:35.000Z</time>
      </trkpt>
      <trkpt lat="45.29994" lon="6.1846">
        <ele>1685.8000488281</ele>
        <time>2020-12-16T08:46:39.000Z</time>
      </trkpt>
      <trkpt lat="45.29996" lon="6.18458">
        <ele>1686.1999511719</ele>
        <time>2020-12-16T08:46:42.000Z</time>
      </trkpt>
      <trkpt lat="45.29997" lon="6.18457">
        <ele>1686.8000488281</ele>
        <time>2020-12-16T08:46:45.000Z</time>
      </trkpt>
      <trkpt lat="45.29998" lon="6.18456">
        <ele>1687.4000244141</ele>
        <time>2020-12-16T08:46:48.000Z</time>
      </trkpt>
      <trkpt lat="45.3" lon="6.18453">
        <ele>1688.4000244141</ele>
        <time>2020-12-16T08:46:53.000Z</time>
      </trkpt>
      <trkpt lat="45.3" lon="6.18452">
        <ele>1688.5999755859</ele>
        <time>2020-12-16T08:46:54.000Z</time>
      </trkpt>
      <trkpt lat="45.30002" lon="6.18448">
        <ele>1689.8000488281</ele>
        <time>2020-12-16T08:46:59.000Z</time>
      </trkpt>
      <trkpt lat="45.30002" lon="6.18448">
        <ele>1690</ele>
        <time>2020-12-16T08:47:01.000Z</time>
      </trkpt>
      <trkpt lat="45.30004" lon="6.18443">
        <ele>1690.5999755859</ele>
        <time>2020-12-16T08:47:09.000Z</time>
      </trkpt>
      <trkpt lat="45.30005" lon="6.1844">
        <ele>1690.8000488281</ele>
        <time>2020-12-16T08:47:13.000Z</time>
      </trkpt>
      <trkpt lat="45.30004" lon="6.18437">
        <ele>1691.1999511719</ele>
        <time>2020-12-16T08:47:16.000Z</time>
      </trkpt>
      <trkpt lat="45.30005" lon="6.18434">
        <ele>1692</ele>
        <time>2020-12-16T08:47:21.000Z</time>
      </trkpt>
      <trkpt lat="45.30006" lon="6.18432">
        <ele>1692.8000488281</ele>
        <time>2020-12-16T08:47:24.000Z</time>
      </trkpt>
      <trkpt lat="45.30008" lon="6.18429">
        <ele>1693</ele>
        <time>2020-12-16T08:47:27.000Z</time>
      </trkpt>
      <trkpt lat="45.30009" lon="6.18427">
        <ele>1693.4000244141</ele>
        <time>2020-12-16T08:47:29.000Z</time>
      </trkpt>
      <trkpt lat="45.30009" lon="6.18426">
        <ele>1693.5999755859</ele>
        <time>2020-12-16T08:47:30.000Z</time>
      </trkpt>
      <trkpt lat="45.3001" lon="6.18423">
        <ele>1694</ele>
        <time>2020-12-16T08:47:34.000Z</time>
      </trkpt>
      <trkpt lat="45.30011" lon="6.1842">
        <ele>1694.4000244141</ele>
        <time>2020-12-16T08:47:36.000Z</time>
      </trkpt>
      <trkpt lat="45.30013" lon="6.18415">
        <ele>1695.1999511719</ele>
        <time>2020-12-16T08:47:41.000Z</time>
      </trkpt>
      <trkpt lat="45.30013" lon="6.18413">
        <ele>1695.4000244141</ele>
        <time>2020-12-16T08:47:44.000Z</time>
      </trkpt>
      <trkpt lat="45.30012" lon="6.18408">
        <ele>1696.1999511719</ele>
        <time>2020-12-16T08:47:48.000Z</time>
      </trkpt>
      <trkpt lat="45.30013" lon="6.18407">
        <ele>1696.1999511719</ele>
        <time>2020-12-16T08:47:49.000Z</time>
      </trkpt>
      <trkpt lat="45.30013" lon="6.18397">
        <ele>1696.8000488281</ele>
        <time>2020-12-16T08:47:55.000Z</time>
      </trkpt>
      <trkpt lat="45.30012" lon="6.18388">
        <ele>1696.5999755859</ele>
        <time>2020-12-16T08:48:02.000Z</time>
      </trkpt>
      <trkpt lat="45.30011" lon="6.18381">
        <ele>1696.5999755859</ele>
        <time>2020-12-16T08:48:08.000Z</time>
      </trkpt>
      <trkpt lat="45.30009" lon="6.18372">
        <ele>1697</ele>
        <time>2020-12-16T08:48:14.000Z</time>
      </trkpt>
      <trkpt lat="45.30009" lon="6.18366">
        <ele>1697.1999511719</ele>
        <time>2020-12-16T08:48:18.000Z</time>
      </trkpt>
      <trkpt lat="45.30009" lon="6.18364">
        <ele>1697.1999511719</ele>
        <time>2020-12-16T08:48:20.000Z</time>
      </trkpt>
      <trkpt lat="45.30008" lon="6.18353">
        <ele>1697.5999755859</ele>
        <time>2020-12-16T08:48:28.000Z</time>
      </trkpt>
      <trkpt lat="45.30008" lon="6.18352">
        <ele>1697.5999755859</ele>
        <time>2020-12-16T08:48:29.000Z</time>
      </trkpt>
      <trkpt lat="45.30007" lon="6.18347">
        <ele>1697.8000488281</ele>
        <time>2020-12-16T08:48:34.000Z</time>
      </trkpt>
      <trkpt lat="45.30007" lon="6.18342">
        <ele>1698.1999511719</ele>
        <time>2020-12-16T08:48:37.000Z</time>
      </trkpt>
      <trkpt lat="45.30007" lon="6.1834">
        <ele>1698.4000244141</ele>
        <time>2020-12-16T08:48:39.000Z</time>
      </trkpt>
      <trkpt lat="45.30007" lon="6.18337">
        <ele>1698.4000244141</ele>
        <time>2020-12-16T08:48:41.000Z</time>
      </trkpt>
      <trkpt lat="45.30007" lon="6.18335">
        <ele>1698.5999755859</ele>
        <time>2020-12-16T08:48:44.000Z</time>
      </trkpt>
      <trkpt lat="45.30006" lon="6.18331">
        <ele>1698.8000488281</ele>
        <time>2020-12-16T08:48:46.000Z</time>
      </trkpt>
      <trkpt lat="45.30005" lon="6.18326">
        <ele>1699.1999511719</ele>
        <time>2020-12-16T08:48:49.000Z</time>
      </trkpt>
      <trkpt lat="45.30005" lon="6.18323">
        <ele>1699.4000244141</ele>
        <time>2020-12-16T08:48:51.000Z</time>
      </trkpt>
      <trkpt lat="45.30005" lon="6.18319">
        <ele>1699.8000488281</ele>
        <time>2020-12-16T08:48:55.000Z</time>
      </trkpt>
      <trkpt lat="45.30004" lon="6.18313">
        <ele>1700.5999755859</ele>
        <time>2020-12-16T08:48:59.000Z</time>
      </trkpt>
      <trkpt lat="45.30004" lon="6.18311">
        <ele>1701</ele>
        <time>2020-12-16T08:49:01.000Z</time>
      </trkpt>
      <trkpt lat="45.30004" lon="6.1831">
        <ele>1701</ele>
        <time>2020-12-16T08:49:02.000Z</time>
      </trkpt>
      <trkpt lat="45.30004" lon="6.18304">
        <ele>1701.8000488281</ele>
        <time>2020-12-16T08:49:07.000Z</time>
      </trkpt>
      <trkpt lat="45.30004" lon="6.18297">
        <ele>1702.8000488281</ele>
        <time>2020-12-16T08:49:14.000Z</time>
      </trkpt>
      <trkpt lat="45.30004" lon="6.18294">
        <ele>1703.1999511719</ele>
        <time>2020-12-16T08:49:16.000Z</time>
      </trkpt>
      <trkpt lat="45.30005" lon="6.18288">
        <ele>1703.8000488281</ele>
        <time>2020-12-16T08:49:22.000Z</time>
      </trkpt>
      <trkpt lat="45.30006" lon="6.18283">
        <ele>1705</ele>
        <time>2020-12-16T08:49:27.000Z</time>
      </trkpt>
      <trkpt lat="45.30006" lon="6.18282">
        <ele>1705.1999511719</ele>
        <time>2020-12-16T08:49:28.000Z</time>
      </trkpt>
      <trkpt lat="45.30009" lon="6.18276">
        <ele>1706</ele>
        <time>2020-12-16T08:49:35.000Z</time>
      </trkpt>
      <trkpt lat="45.30009" lon="6.18276">
        <ele>1706.1999511719</ele>
        <time>2020-12-16T08:49:36.000Z</time>
      </trkpt>
      <trkpt lat="45.30013" lon="6.18273">
        <ele>1707</ele>
        <time>2020-12-16T08:49:41.000Z</time>
      </trkpt>
      <trkpt lat="45.30014" lon="6.1827">
        <ele>1707.1999511719</ele>
        <time>2020-12-16T08:49:43.000Z</time>
      </trkpt>
      <trkpt lat="45.30015" lon="6.18267">
        <ele>1707.5999755859</ele>
        <time>2020-12-16T08:49:46.000Z</time>
      </trkpt>
      <trkpt lat="45.30015" lon="6.18266">
        <ele>1708.1999511719</ele>
        <time>2020-12-16T08:49:49.000Z</time>
      </trkpt>
      <trkpt lat="45.30017" lon="6.18262">
        <ele>1709</ele>
        <time>2020-12-16T08:49:54.000Z</time>
      </trkpt>
      <trkpt lat="45.30017" lon="6.1826">
        <ele>1709.1999511719</ele>
        <time>2020-12-16T08:49:56.000Z</time>
      </trkpt>
      <trkpt lat="45.30018" lon="6.18254">
        <ele>1710.1999511719</ele>
        <time>2020-12-16T08:50:02.000Z</time>
      </trkpt>
      <trkpt lat="45.30019" lon="6.18254">
        <ele>1710.4000244141</ele>
        <time>2020-12-16T08:50:03.000Z</time>
      </trkpt>
      <trkpt lat="45.30021" lon="6.1825">
        <ele>1711</ele>
        <time>2020-12-16T08:50:08.000Z</time>
      </trkpt>
      <trkpt lat="45.30022" lon="6.18248">
        <ele>1711.5999755859</ele>
        <time>2020-12-16T08:50:11.000Z</time>
      </trkpt>
      <trkpt lat="45.30025" lon="6.18244">
        <ele>1712.5999755859</ele>
        <time>2020-12-16T08:50:16.000Z</time>
      </trkpt>
      <trkpt lat="45.30024" lon="6.18243">
        <ele>1712.8000488281</ele>
        <time>2020-12-16T08:50:17.000Z</time>
      </trkpt>
      <trkpt lat="45.30026" lon="6.18239">
        <ele>1713.8000488281</ele>
        <time>2020-12-16T08:50:23.000Z</time>
      </trkpt>
      <trkpt lat="45.30025" lon="6.18234">
        <ele>1714.8000488281</ele>
        <time>2020-12-16T08:50:30.000Z</time>
      </trkpt>
      <trkpt lat="45.30026" lon="6.1823">
        <ele>1716</ele>
        <time>2020-12-16T08:50:36.000Z</time>
      </trkpt>
      <trkpt lat="45.30028" lon="6.18228">
        <ele>1717</ele>
        <time>2020-12-16T08:50:42.000Z</time>
      </trkpt>
      <trkpt lat="45.3003" lon="6.1822">
        <ele>1718.1999511719</ele>
        <time>2020-12-16T08:50:49.000Z</time>
      </trkpt>
      <trkpt lat="45.30031" lon="6.18216">
        <ele>1718.8000488281</ele>
        <time>2020-12-16T08:50:54.000Z</time>
      </trkpt>
      <trkpt lat="45.3003" lon="6.18212">
        <ele>1719.1999511719</ele>
        <time>2020-12-16T08:50:57.000Z</time>
      </trkpt>
      <trkpt lat="45.30031" lon="6.18209">
        <ele>1720.1999511719</ele>
        <time>2020-12-16T08:51:01.000Z</time>
      </trkpt>
      <trkpt lat="45.30031" lon="6.18209">
        <ele>1720.4000244141</ele>
        <time>2020-12-16T08:51:02.000Z</time>
      </trkpt>
      <trkpt lat="45.30032" lon="6.18205">
        <ele>1721</ele>
        <time>2020-12-16T08:51:06.000Z</time>
      </trkpt>
      <trkpt lat="45.30032" lon="6.18204">
        <ele>1721.4000244141</ele>
        <time>2020-12-16T08:51:08.000Z</time>
      </trkpt>
      <trkpt lat="45.30032" lon="6.18201">
        <ele>1721.8000488281</ele>
        <time>2020-12-16T08:51:11.000Z</time>
      </trkpt>
      <trkpt lat="45.30033" lon="6.18199">
        <ele>1722</ele>
        <time>2020-12-16T08:51:12.000Z</time>
      </trkpt>
      <trkpt lat="45.30034" lon="6.18196">
        <ele>1722.4000244141</ele>
        <time>2020-12-16T08:51:15.000Z</time>
      </trkpt>
      <trkpt lat="45.30034" lon="6.18196">
        <ele>1722.5999755859</ele>
        <time>2020-12-16T08:51:16.000Z</time>
      </trkpt>
      <trkpt lat="45.30035" lon="6.1819">
        <ele>1723.4000244141</ele>
        <time>2020-12-16T08:51:21.000Z</time>
      </trkpt>
      <trkpt lat="45.30035" lon="6.1819">
        <ele>1723.4000244141</ele>
        <time>2020-12-16T08:51:22.000Z</time>
      </trkpt>
      <trkpt lat="45.30038" lon="6.18185">
        <ele>1724.5999755859</ele>
        <time>2020-12-16T08:51:28.000Z</time>
      </trkpt>
      <trkpt lat="45.30041" lon="6.1818">
        <ele>1725.5999755859</ele>
        <time>2020-12-16T08:51:35.000Z</time>
      </trkpt>
      <trkpt lat="45.30041" lon="6.1818">
        <ele>1726</ele>
        <time>2020-12-16T08:51:36.000Z</time>
      </trkpt>
      <trkpt lat="45.30043" lon="6.18175">
        <ele>1726.8000488281</ele>
        <time>2020-12-16T08:51:41.000Z</time>
      </trkpt>
      <trkpt lat="45.30044" lon="6.18173">
        <ele>1727.1999511719</ele>
        <time>2020-12-16T08:51:43.000Z</time>
      </trkpt>
      <trkpt lat="45.30045" lon="6.18171">
        <ele>1727.8000488281</ele>
        <time>2020-12-16T08:51:46.000Z</time>
      </trkpt>
      <trkpt lat="45.30046" lon="6.18167">
        <ele>1728.5999755859</ele>
        <time>2020-12-16T08:51:50.000Z</time>
      </trkpt>
      <trkpt lat="45.30046" lon="6.18167">
        <ele>1728.8000488281</ele>
        <time>2020-12-16T08:51:51.000Z</time>
      </trkpt>
      <trkpt lat="45.30048" lon="6.18165">
        <ele>1729.8000488281</ele>
        <time>2020-12-16T08:51:56.000Z</time>
      </trkpt>
      <trkpt lat="45.30048" lon="6.18164">
        <ele>1730</ele>
        <time>2020-12-16T08:51:57.000Z</time>
      </trkpt>
      <trkpt lat="45.30049" lon="6.1816">
        <ele>1730.5999755859</ele>
        <time>2020-12-16T08:52:01.000Z</time>
      </trkpt>
      <trkpt lat="45.3005" lon="6.18159">
        <ele>1731</ele>
        <time>2020-12-16T08:52:03.000Z</time>
      </trkpt>
      <trkpt lat="45.30051" lon="6.18154">
        <ele>1731.8000488281</ele>
        <time>2020-12-16T08:52:07.000Z</time>
      </trkpt>
      <trkpt lat="45.30051" lon="6.18153">
        <ele>1732</ele>
        <time>2020-12-16T08:52:08.000Z</time>
      </trkpt>
      <trkpt lat="45.30052" lon="6.18149">
        <ele>1733</ele>
        <time>2020-12-16T08:52:14.000Z</time>
      </trkpt>
      <trkpt lat="45.30053" lon="6.18144">
        <ele>1734.1999511719</ele>
        <time>2020-12-16T08:52:21.000Z</time>
      </trkpt>
      <trkpt lat="45.30054" lon="6.18143">
        <ele>1734.4000244141</ele>
        <time>2020-12-16T08:52:22.000Z</time>
      </trkpt>
      <trkpt lat="45.30056" lon="6.1814">
        <ele>1735.1999511719</ele>
        <time>2020-12-16T08:52:27.000Z</time>
      </trkpt>
      <trkpt lat="45.30056" lon="6.18139">
        <ele>1735.4000244141</ele>
        <time>2020-12-16T08:52:28.000Z</time>
      </trkpt>
      <trkpt lat="45.30058" lon="6.18135">
        <ele>1736.4000244141</ele>
        <time>2020-12-16T08:52:33.000Z</time>
      </trkpt>
      <trkpt lat="45.30059" lon="6.18133">
        <ele>1736.5999755859</ele>
        <time>2020-12-16T08:52:34.000Z</time>
      </trkpt>
      <trkpt lat="45.30061" lon="6.18129">
        <ele>1737.4000244141</ele>
        <time>2020-12-16T08:52:38.000Z</time>
      </trkpt>
      <trkpt lat="45.30061" lon="6.18126">
        <ele>1737.8000488281</ele>
        <time>2020-12-16T08:52:41.000Z</time>
      </trkpt>
      <trkpt lat="45.30062" lon="6.1812">
        <ele>1738.1999511719</ele>
        <time>2020-12-16T08:52:46.000Z</time>
      </trkpt>
      <trkpt lat="45.30062" lon="6.18119">
        <ele>1738.4000244141</ele>
        <time>2020-12-16T08:52:47.000Z</time>
      </trkpt>
      <trkpt lat="45.30063" lon="6.18118">
        <ele>1738.5999755859</ele>
        <time>2020-12-16T08:52:48.000Z</time>
      </trkpt>
      <trkpt lat="45.30064" lon="6.18114">
        <ele>1739.1999511719</ele>
        <time>2020-12-16T08:52:55.000Z</time>
      </trkpt>
      <trkpt lat="45.30065" lon="6.18111">
        <ele>1739.4000244141</ele>
        <time>2020-12-16T08:52:57.000Z</time>
      </trkpt>
      <trkpt lat="45.30066" lon="6.18109">
        <ele>1740</ele>
        <time>2020-12-16T08:53:01.000Z</time>
      </trkpt>
      <trkpt lat="45.30066" lon="6.18106">
        <ele>1740.5999755859</ele>
        <time>2020-12-16T08:53:04.000Z</time>
      </trkpt>
      <trkpt lat="45.30066" lon="6.18102">
        <ele>1741</ele>
        <time>2020-12-16T08:53:07.000Z</time>
      </trkpt>
      <trkpt lat="45.30067" lon="6.181">
        <ele>1741.5999755859</ele>
        <time>2020-12-16T08:53:11.000Z</time>
      </trkpt>
      <trkpt lat="45.30067" lon="6.18098">
        <ele>1742.1999511719</ele>
        <time>2020-12-16T08:53:14.000Z</time>
      </trkpt>
      <trkpt lat="45.30067" lon="6.18094">
        <ele>1742.8000488281</ele>
        <time>2020-12-16T08:53:17.000Z</time>
      </trkpt>
      <trkpt lat="45.30068" lon="6.18091">
        <ele>1743.4000244141</ele>
        <time>2020-12-16T08:53:21.000Z</time>
      </trkpt>
      <trkpt lat="45.30068" lon="6.18088">
        <ele>1743.8000488281</ele>
        <time>2020-12-16T08:53:24.000Z</time>
      </trkpt>
      <trkpt lat="45.30068" lon="6.18084">
        <ele>1744.4000244141</ele>
        <time>2020-12-16T08:53:28.000Z</time>
      </trkpt>
      <trkpt lat="45.3007" lon="6.18079">
        <ele>1745</ele>
        <time>2020-12-16T08:53:34.000Z</time>
      </trkpt>
      <trkpt lat="45.30072" lon="6.18072">
        <ele>1746</ele>
        <time>2020-12-16T08:53:41.000Z</time>
      </trkpt>
      <trkpt lat="45.30073" lon="6.18071">
        <ele>1746</ele>
        <time>2020-12-16T08:53:42.000Z</time>
      </trkpt>
      <trkpt lat="45.30075" lon="6.18065">
        <ele>1746.8000488281</ele>
        <time>2020-12-16T08:53:48.000Z</time>
      </trkpt>
      <trkpt lat="45.30076" lon="6.18062">
        <ele>1747.1999511719</ele>
        <time>2020-12-16T08:53:51.000Z</time>
      </trkpt>
      <trkpt lat="45.30077" lon="6.18061">
        <ele>1747.4000244141</ele>
        <time>2020-12-16T08:53:54.000Z</time>
      </trkpt>
      <trkpt lat="45.30078" lon="6.18053">
        <ele>1748.1999511719</ele>
        <time>2020-12-16T08:54:00.000Z</time>
      </trkpt>
      <trkpt lat="45.30081" lon="6.18049">
        <ele>1749.1999511719</ele>
        <time>2020-12-16T08:54:06.000Z</time>
      </trkpt>
      <trkpt lat="45.30081" lon="6.18048">
        <ele>1749.1999511719</ele>
        <time>2020-12-16T08:54:07.000Z</time>
      </trkpt>
      <trkpt lat="45.30084" lon="6.18045">
        <ele>1749.8000488281</ele>
        <time>2020-12-16T08:54:11.000Z</time>
      </trkpt>
      <trkpt lat="45.30084" lon="6.18044">
        <ele>1750</ele>
        <time>2020-12-16T08:54:13.000Z</time>
      </trkpt>
      <trkpt lat="45.30084" lon="6.18042">
        <ele>1750.1999511719</ele>
        <time>2020-12-16T08:54:16.000Z</time>
      </trkpt>
      <trkpt lat="45.30086" lon="6.18041">
        <ele>1750.4000244141</ele>
        <time>2020-12-16T08:54:18.000Z</time>
      </trkpt>
      <trkpt lat="45.30087" lon="6.18041">
        <ele>1750.5999755859</ele>
        <time>2020-12-16T08:54:19.000Z</time>
      </trkpt>
      <trkpt lat="45.30091" lon="6.18037">
        <ele>1751.4000244141</ele>
        <time>2020-12-16T08:54:25.000Z</time>
      </trkpt>
      <trkpt lat="45.30093" lon="6.18038">
        <ele>1751.4000244141</ele>
        <time>2020-12-16T08:54:26.000Z</time>
      </trkpt>
      <trkpt lat="45.30095" lon="6.18038">
        <ele>1751.4000244141</ele>
        <time>2020-12-16T08:54:27.000Z</time>
      </trkpt>
      <trkpt lat="45.301" lon="6.18034">
        <ele>1751.5999755859</ele>
        <time>2020-12-16T08:54:34.000Z</time>
      </trkpt>
      <trkpt lat="45.30104" lon="6.1803">
        <ele>1751.8000488281</ele>
        <time>2020-12-16T08:54:40.000Z</time>
      </trkpt>
      <trkpt lat="45.30105" lon="6.18027">
        <ele>1752.4000244141</ele>
        <time>2020-12-16T08:54:45.000Z</time>
      </trkpt>
      <trkpt lat="45.30106" lon="6.18025">
        <ele>1753</ele>
        <time>2020-12-16T08:54:48.000Z</time>
      </trkpt>
      <trkpt lat="45.30106" lon="6.18021">
        <ele>1753.5999755859</ele>
        <time>2020-12-16T08:54:51.000Z</time>
      </trkpt>
      <trkpt lat="45.30107" lon="6.1802">
        <ele>1753.8000488281</ele>
        <time>2020-12-16T08:54:53.000Z</time>
      </trkpt>
      <trkpt lat="45.3011" lon="6.18018">
        <ele>1754.5999755859</ele>
        <time>2020-12-16T08:54:56.000Z</time>
      </trkpt>
      <trkpt lat="45.30111" lon="6.18015">
        <ele>1755.5999755859</ele>
        <time>2020-12-16T08:55:01.000Z</time>
      </trkpt>
      <trkpt lat="45.30112" lon="6.18014">
        <ele>1755.8000488281</ele>
        <time>2020-12-16T08:55:02.000Z</time>
      </trkpt>
      <trkpt lat="45.30115" lon="6.18012">
        <ele>1756.8000488281</ele>
        <time>2020-12-16T08:55:07.000Z</time>
      </trkpt>
      <trkpt lat="45.30119" lon="6.18008">
        <ele>1757.8000488281</ele>
        <time>2020-12-16T08:55:14.000Z</time>
      </trkpt>
      <trkpt lat="45.3012" lon="6.18007">
        <ele>1757.8000488281</ele>
        <time>2020-12-16T08:55:15.000Z</time>
      </trkpt>
      <trkpt lat="45.30119" lon="6.18002">
        <ele>1758.1999511719</ele>
        <time>2020-12-16T08:55:19.000Z</time>
      </trkpt>
      <trkpt lat="45.3012" lon="6.17999">
        <ele>1759</ele>
        <time>2020-12-16T08:55:23.000Z</time>
      </trkpt>
      <trkpt lat="45.30121" lon="6.17998">
        <ele>1759.4000244141</ele>
        <time>2020-12-16T08:55:26.000Z</time>
      </trkpt>
      <trkpt lat="45.30122" lon="6.17994">
        <ele>1760</ele>
        <time>2020-12-16T08:55:30.000Z</time>
      </trkpt>
      <trkpt lat="45.30124" lon="6.17991">
        <ele>1760.4000244141</ele>
        <time>2020-12-16T08:55:34.000Z</time>
      </trkpt>
      <trkpt lat="45.30124" lon="6.17991">
        <ele>1760.5999755859</ele>
        <time>2020-12-16T08:55:35.000Z</time>
      </trkpt>
      <trkpt lat="45.30125" lon="6.17987">
        <ele>1761.1999511719</ele>
        <time>2020-12-16T08:55:38.000Z</time>
      </trkpt>
      <trkpt lat="45.30126" lon="6.17983">
        <ele>1761.8000488281</ele>
        <time>2020-12-16T08:55:42.000Z</time>
      </trkpt>
      <trkpt lat="45.30126" lon="6.17978">
        <ele>1762.1999511719</ele>
        <time>2020-12-16T08:55:46.000Z</time>
      </trkpt>
      <trkpt lat="45.30127" lon="6.17976">
        <ele>1762.5999755859</ele>
        <time>2020-12-16T08:55:49.000Z</time>
      </trkpt>
      <trkpt lat="45.30128" lon="6.1797">
        <ele>1763.1999511719</ele>
        <time>2020-12-16T08:55:54.000Z</time>
      </trkpt>
      <trkpt lat="45.30128" lon="6.17968">
        <ele>1763.8000488281</ele>
        <time>2020-12-16T08:55:57.000Z</time>
      </trkpt>
      <trkpt lat="45.30129" lon="6.17963">
        <ele>1764.1999511719</ele>
        <time>2020-12-16T08:56:02.000Z</time>
      </trkpt>
      <trkpt lat="45.30129" lon="6.17961">
        <ele>1764.5999755859</ele>
        <time>2020-12-16T08:56:04.000Z</time>
      </trkpt>
      <trkpt lat="45.3013" lon="6.17958">
        <ele>1765.4000244141</ele>
        <time>2020-12-16T08:56:09.000Z</time>
      </trkpt>
      <trkpt lat="45.3013" lon="6.17956">
        <ele>1765.8000488281</ele>
        <time>2020-12-16T08:56:11.000Z</time>
      </trkpt>
      <trkpt lat="45.3013" lon="6.17952">
        <ele>1766.4000244141</ele>
        <time>2020-12-16T08:56:15.000Z</time>
      </trkpt>
      <trkpt lat="45.30131" lon="6.17949">
        <ele>1767</ele>
        <time>2020-12-16T08:56:18.000Z</time>
      </trkpt>
      <trkpt lat="45.30132" lon="6.17945">
        <ele>1767.5999755859</ele>
        <time>2020-12-16T08:56:22.000Z</time>
      </trkpt>
      <trkpt lat="45.30133" lon="6.17943">
        <ele>1767.8000488281</ele>
        <time>2020-12-16T08:56:24.000Z</time>
      </trkpt>
      <trkpt lat="45.30133" lon="6.17939">
        <ele>1768.5999755859</ele>
        <time>2020-12-16T08:56:28.000Z</time>
      </trkpt>
      <trkpt lat="45.30133" lon="6.17938">
        <ele>1768.8000488281</ele>
        <time>2020-12-16T08:56:30.000Z</time>
      </trkpt>
      <trkpt lat="45.30134" lon="6.17936">
        <ele>1769</ele>
        <time>2020-12-16T08:56:31.000Z</time>
      </trkpt>
      <trkpt lat="45.30134" lon="6.17933">
        <ele>1769.5999755859</ele>
        <time>2020-12-16T08:56:35.000Z</time>
      </trkpt>
      <trkpt lat="45.30134" lon="6.17932">
        <ele>1769.5999755859</ele>
        <time>2020-12-16T08:56:36.000Z</time>
      </trkpt>
      <trkpt lat="45.30134" lon="6.17929">
        <ele>1770.5999755859</ele>
        <time>2020-12-16T08:56:42.000Z</time>
      </trkpt>
      <trkpt lat="45.30135" lon="6.17925">
        <ele>1771</ele>
        <time>2020-12-16T08:56:45.000Z</time>
      </trkpt>
      <trkpt lat="45.30135" lon="6.17923">
        <ele>1771.5999755859</ele>
        <time>2020-12-16T08:56:48.000Z</time>
      </trkpt>
      <trkpt lat="45.30134" lon="6.1792">
        <ele>1771.8000488281</ele>
        <time>2020-12-16T08:56:50.000Z</time>
      </trkpt>
      <trkpt lat="45.30134" lon="6.17916">
        <ele>1772.4000244141</ele>
        <time>2020-12-16T08:56:54.000Z</time>
      </trkpt>
      <trkpt lat="45.30134" lon="6.17915">
        <ele>1772.8000488281</ele>
        <time>2020-12-16T08:56:56.000Z</time>
      </trkpt>
      <trkpt lat="45.30134" lon="6.17912">
        <ele>1773.8000488281</ele>
        <time>2020-12-16T08:57:01.000Z</time>
      </trkpt>
      <trkpt lat="45.30134" lon="6.17912">
        <ele>1773.8000488281</ele>
        <time>2020-12-16T08:57:02.000Z</time>
      </trkpt>
      <trkpt lat="45.30135" lon="6.17911">
        <ele>1774</ele>
        <time>2020-12-16T08:57:08.000Z</time>
      </trkpt>
      <trkpt lat="45.30136" lon="6.17909">
        <ele>1774.1999511719</ele>
        <time>2020-12-16T08:57:13.000Z</time>
      </trkpt>
      <trkpt lat="45.30137" lon="6.17908">
        <ele>1774.4000244141</ele>
        <time>2020-12-16T08:57:15.000Z</time>
      </trkpt>
      <trkpt lat="45.30142" lon="6.17904">
        <ele>1774</ele>
        <time>2020-12-16T08:57:22.000Z</time>
      </trkpt>
      <trkpt lat="45.30142" lon="6.17903">
        <ele>1773.8000488281</ele>
        <time>2020-12-16T08:57:28.000Z</time>
      </trkpt>
      <trkpt lat="45.30144" lon="6.17901">
        <ele>1773.8000488281</ele>
        <time>2020-12-16T08:57:33.000Z</time>
      </trkpt>
      <trkpt lat="45.30148" lon="6.17899">
        <ele>1774</ele>
        <time>2020-12-16T08:57:41.000Z</time>
      </trkpt>
      <trkpt lat="45.30148" lon="6.17899">
        <ele>1774.8000488281</ele>
        <time>2020-12-16T08:57:48.000Z</time>
      </trkpt>
      <trkpt lat="45.30152" lon="6.17896">
        <ele>1775</ele>
        <time>2020-12-16T08:57:53.000Z</time>
      </trkpt>
      <trkpt lat="45.30153" lon="6.17896">
        <ele>1775.1999511719</ele>
        <time>2020-12-16T08:57:55.000Z</time>
      </trkpt>
      <trkpt lat="45.30155" lon="6.17896">
        <ele>1775.8000488281</ele>
        <time>2020-12-16T08:57:57.000Z</time>
      </trkpt>
      <trkpt lat="45.30156" lon="6.17896">
        <ele>1776.1999511719</ele>
        <time>2020-12-16T08:57:58.000Z</time>
      </trkpt>
      <trkpt lat="45.30159" lon="6.17896">
        <ele>1777.1999511719</ele>
        <time>2020-12-16T08:58:01.000Z</time>
      </trkpt>
      <trkpt lat="45.30162" lon="6.17894">
        <ele>1778.1999511719</ele>
        <time>2020-12-16T08:58:05.000Z</time>
      </trkpt>
      <trkpt lat="45.30162" lon="6.17892">
        <ele>1778.4000244141</ele>
        <time>2020-12-16T08:58:06.000Z</time>
      </trkpt>
      <trkpt lat="45.30162" lon="6.1789">
        <ele>1778.5999755859</ele>
        <time>2020-12-16T08:58:07.000Z</time>
      </trkpt>
      <trkpt lat="45.30165" lon="6.17888">
        <ele>1779.5999755859</ele>
        <time>2020-12-16T08:58:12.000Z</time>
      </trkpt>
      <trkpt lat="45.30165" lon="6.17887">
        <ele>1779.8000488281</ele>
        <time>2020-12-16T08:58:14.000Z</time>
      </trkpt>
      <trkpt lat="45.30167" lon="6.17884">
        <ele>1780.5999755859</ele>
        <time>2020-12-16T08:58:17.000Z</time>
      </trkpt>
      <trkpt lat="45.30168" lon="6.17881">
        <ele>1781.1999511719</ele>
        <time>2020-12-16T08:58:22.000Z</time>
      </trkpt>
      <trkpt lat="45.30168" lon="6.17879">
        <ele>1781.5999755859</ele>
        <time>2020-12-16T08:58:24.000Z</time>
      </trkpt>
      <trkpt lat="45.30168" lon="6.17876">
        <ele>1782.1999511719</ele>
        <time>2020-12-16T08:58:28.000Z</time>
      </trkpt>
      <trkpt lat="45.30168" lon="6.17874">
        <ele>1782.5999755859</ele>
        <time>2020-12-16T08:58:31.000Z</time>
      </trkpt>
      <trkpt lat="45.30169" lon="6.17871">
        <ele>1783</ele>
        <time>2020-12-16T08:58:35.000Z</time>
      </trkpt>
      <trkpt lat="45.3017" lon="6.17867">
        <ele>1784.1999511719</ele>
        <time>2020-12-16T08:58:39.000Z</time>
      </trkpt>
      <trkpt lat="45.30171" lon="6.17866">
        <ele>1784.5999755859</ele>
        <time>2020-12-16T08:58:41.000Z</time>
      </trkpt>
      <trkpt lat="45.30172" lon="6.1786">
        <ele>1785.1999511719</ele>
        <time>2020-12-16T08:58:47.000Z</time>
      </trkpt>
      <trkpt lat="45.30174" lon="6.17854">
        <ele>1786</ele>
        <time>2020-12-16T08:58:54.000Z</time>
      </trkpt>
      <trkpt lat="45.30174" lon="6.17851">
        <ele>1786.1999511719</ele>
        <time>2020-12-16T08:58:56.000Z</time>
      </trkpt>
      <trkpt lat="45.30176" lon="6.1785">
        <ele>1786.5999755859</ele>
        <time>2020-12-16T08:58:59.000Z</time>
      </trkpt>
      <trkpt lat="45.30177" lon="6.17849">
        <ele>1787</ele>
        <time>2020-12-16T08:59:00.000Z</time>
      </trkpt>
      <trkpt lat="45.30176" lon="6.17849">
        <ele>1787.1999511719</ele>
        <time>2020-12-16T08:59:01.000Z</time>
      </trkpt>
      <trkpt lat="45.3018" lon="6.17846">
        <ele>1788.4000244141</ele>
        <time>2020-12-16T08:59:05.000Z</time>
      </trkpt>
      <trkpt lat="45.30181" lon="6.17842">
        <ele>1788.8000488281</ele>
        <time>2020-12-16T08:59:09.000Z</time>
      </trkpt>
      <trkpt lat="45.30181" lon="6.17842">
        <ele>1788.8000488281</ele>
        <time>2020-12-16T08:59:10.000Z</time>
      </trkpt>
      <trkpt lat="45.30183" lon="6.17839">
        <ele>1788.8000488281</ele>
        <time>2020-12-16T08:59:14.000Z</time>
      </trkpt>
      <trkpt lat="45.30184" lon="6.17839">
        <ele>1789.1999511719</ele>
        <time>2020-12-16T08:59:16.000Z</time>
      </trkpt>
      <trkpt lat="45.30184" lon="6.17839">
        <ele>1789.4000244141</ele>
        <time>2020-12-16T08:59:18.000Z</time>
      </trkpt>
      <trkpt lat="45.30186" lon="6.17835">
        <ele>1790.4000244141</ele>
        <time>2020-12-16T08:59:24.000Z</time>
      </trkpt>
      <trkpt lat="45.30188" lon="6.17833">
        <ele>1791.5999755859</ele>
        <time>2020-12-16T08:59:30.000Z</time>
      </trkpt>
      <trkpt lat="45.3019" lon="6.1783">
        <ele>1791.5999755859</ele>
        <time>2020-12-16T08:59:33.000Z</time>
      </trkpt>
      <trkpt lat="45.30193" lon="6.17825">
        <ele>1792.4000244141</ele>
        <time>2020-12-16T08:59:39.000Z</time>
      </trkpt>
      <trkpt lat="45.30194" lon="6.17824">
        <ele>1792.5999755859</ele>
        <time>2020-12-16T08:59:40.000Z</time>
      </trkpt>
      <trkpt lat="45.30196" lon="6.17822">
        <ele>1793.4000244141</ele>
        <time>2020-12-16T08:59:45.000Z</time>
      </trkpt>
      <trkpt lat="45.30197" lon="6.17819">
        <ele>1793.5999755859</ele>
        <time>2020-12-16T08:59:47.000Z</time>
      </trkpt>
      <trkpt lat="45.30198" lon="6.17819">
        <ele>1793.8000488281</ele>
        <time>2020-12-16T08:59:48.000Z</time>
      </trkpt>
      <trkpt lat="45.302" lon="6.17818">
        <ele>1794</ele>
        <time>2020-12-16T08:59:50.000Z</time>
      </trkpt>
      <trkpt lat="45.30201" lon="6.17816">
        <ele>1794.5999755859</ele>
        <time>2020-12-16T08:59:54.000Z</time>
      </trkpt>
      <trkpt lat="45.30203" lon="6.17813">
        <ele>1795.1999511719</ele>
        <time>2020-12-16T08:59:58.000Z</time>
      </trkpt>
      <trkpt lat="45.30205" lon="6.17813">
        <ele>1795.8000488281</ele>
        <time>2020-12-16T09:00:01.000Z</time>
      </trkpt>
      <trkpt lat="45.30207" lon="6.17813">
        <ele>1796.1999511719</ele>
        <time>2020-12-16T09:00:03.000Z</time>
      </trkpt>
      <trkpt lat="45.30207" lon="6.17813">
        <ele>1797</ele>
        <time>2020-12-16T09:00:07.000Z</time>
      </trkpt>
      <trkpt lat="45.30208" lon="6.17812">
        <ele>1797.4000244141</ele>
        <time>2020-12-16T09:00:09.000Z</time>
      </trkpt>
      <trkpt lat="45.30211" lon="6.17812">
        <ele>1798</ele>
        <time>2020-12-16T09:00:13.000Z</time>
      </trkpt>
      <trkpt lat="45.30212" lon="6.17811">
        <ele>1798.4000244141</ele>
        <time>2020-12-16T09:00:16.000Z</time>
      </trkpt>
      <trkpt lat="45.30214" lon="6.17811">
        <ele>1799.1999511719</ele>
        <time>2020-12-16T09:00:20.000Z</time>
      </trkpt>
      <trkpt lat="45.30215" lon="6.17811">
        <ele>1799.4000244141</ele>
        <time>2020-12-16T09:00:21.000Z</time>
      </trkpt>
      <trkpt lat="45.30216" lon="6.17809">
        <ele>1799.5999755859</ele>
        <time>2020-12-16T09:00:22.000Z</time>
      </trkpt>
      <trkpt lat="45.30219" lon="6.17808">
        <ele>1800.1999511719</ele>
        <time>2020-12-16T09:00:27.000Z</time>
      </trkpt>
      <trkpt lat="45.30219" lon="6.17808">
        <ele>1800.4000244141</ele>
        <time>2020-12-16T09:00:28.000Z</time>
      </trkpt>
      <trkpt lat="45.3022" lon="6.17806">
        <ele>1801.1999511719</ele>
        <time>2020-12-16T09:00:34.000Z</time>
      </trkpt>
      <trkpt lat="45.30221" lon="6.17805">
        <ele>1801.1999511719</ele>
        <time>2020-12-16T09:00:35.000Z</time>
      </trkpt>
      <trkpt lat="45.30221" lon="6.17801">
        <ele>1802.1999511719</ele>
        <time>2020-12-16T09:00:41.000Z</time>
      </trkpt>
      <trkpt lat="45.3022" lon="6.17801">
        <ele>1802.1999511719</ele>
        <time>2020-12-16T09:00:42.000Z</time>
      </trkpt>
      <trkpt lat="45.3022" lon="6.17796">
        <ele>1802.5999755859</ele>
        <time>2020-12-16T09:00:47.000Z</time>
      </trkpt>
      <trkpt lat="45.3022" lon="6.17792">
        <ele>1803.4000244141</ele>
        <time>2020-12-16T09:00:51.000Z</time>
      </trkpt>
      <trkpt lat="45.30219" lon="6.17791">
        <ele>1804</ele>
        <time>2020-12-16T09:00:54.000Z</time>
      </trkpt>
      <trkpt lat="45.3022" lon="6.17789">
        <ele>1804.4000244141</ele>
        <time>2020-12-16T09:00:56.000Z</time>
      </trkpt>
      <trkpt lat="45.3022" lon="6.17785">
        <ele>1805.1999511719</ele>
        <time>2020-12-16T09:01:01.000Z</time>
      </trkpt>
      <trkpt lat="45.3022" lon="6.17783">
        <ele>1805.4000244141</ele>
        <time>2020-12-16T09:01:02.000Z</time>
      </trkpt>
      <trkpt lat="45.3022" lon="6.17778">
        <ele>1806.5999755859</ele>
        <time>2020-12-16T09:01:09.000Z</time>
      </trkpt>
      <trkpt lat="45.3022" lon="6.17772">
        <ele>1807.4000244141</ele>
        <time>2020-12-16T09:01:15.000Z</time>
      </trkpt>
      <trkpt lat="45.3022" lon="6.1777">
        <ele>1807.5999755859</ele>
        <time>2020-12-16T09:01:16.000Z</time>
      </trkpt>
      <trkpt lat="45.30222" lon="6.17768">
        <ele>1808.5999755859</ele>
        <time>2020-12-16T09:01:20.000Z</time>
      </trkpt>
      <trkpt lat="45.30222" lon="6.17767">
        <ele>1809.1999511719</ele>
        <time>2020-12-16T09:01:22.000Z</time>
      </trkpt>
      <trkpt lat="45.30223" lon="6.17766">
        <ele>1809.8000488281</ele>
        <time>2020-12-16T09:01:24.000Z</time>
      </trkpt>
      <trkpt lat="45.30224" lon="6.17763">
        <ele>1810.4000244141</ele>
        <time>2020-12-16T09:01:29.000Z</time>
      </trkpt>
      <trkpt lat="45.30225" lon="6.17759">
        <ele>1811</ele>
        <time>2020-12-16T09:01:33.000Z</time>
      </trkpt>
      <trkpt lat="45.30226" lon="6.17756">
        <ele>1811.1999511719</ele>
        <time>2020-12-16T09:01:35.000Z</time>
      </trkpt>
      <trkpt lat="45.30227" lon="6.17755">
        <ele>1812</ele>
        <time>2020-12-16T09:01:40.000Z</time>
      </trkpt>
      <trkpt lat="45.30227" lon="6.17754">
        <ele>1812.1999511719</ele>
        <time>2020-12-16T09:01:41.000Z</time>
      </trkpt>
      <trkpt lat="45.30229" lon="6.17748">
        <ele>1813</ele>
        <time>2020-12-16T09:01:47.000Z</time>
      </trkpt>
      <trkpt lat="45.30229" lon="6.17748">
        <ele>1813.5999755859</ele>
        <time>2020-12-16T09:01:49.000Z</time>
      </trkpt>
      <trkpt lat="45.3023" lon="6.17747">
        <ele>1814.1999511719</ele>
        <time>2020-12-16T09:01:53.000Z</time>
      </trkpt>
      <trkpt lat="45.30231" lon="6.17745">
        <ele>1814.8000488281</ele>
        <time>2020-12-16T09:01:56.000Z</time>
      </trkpt>
      <trkpt lat="45.30232" lon="6.17744">
        <ele>1815.1999511719</ele>
        <time>2020-12-16T09:01:59.000Z</time>
      </trkpt>
      <trkpt lat="45.30232" lon="6.17744">
        <ele>1815.5999755859</ele>
        <time>2020-12-16T09:02:04.000Z</time>
      </trkpt>
      <trkpt lat="45.30235" lon="6.1774">
        <ele>1816.1999511719</ele>
        <time>2020-12-16T09:02:09.000Z</time>
      </trkpt>
      <trkpt lat="45.30236" lon="6.17739">
        <ele>1816.4000244141</ele>
        <time>2020-12-16T09:02:11.000Z</time>
      </trkpt>
      <trkpt lat="45.30239" lon="6.17739">
        <ele>1817.4000244141</ele>
        <time>2020-12-16T09:02:14.000Z</time>
      </trkpt>
      <trkpt lat="45.3024" lon="6.17739">
        <ele>1818.1999511719</ele>
        <time>2020-12-16T09:02:17.000Z</time>
      </trkpt>
      <trkpt lat="45.3024" lon="6.1774">
        <ele>1818.4000244141</ele>
        <time>2020-12-16T09:02:18.000Z</time>
      </trkpt>
      <trkpt lat="45.30244" lon="6.17741">
        <ele>1819</ele>
        <time>2020-12-16T09:02:24.000Z</time>
      </trkpt>
      <trkpt lat="45.30246" lon="6.17742">
        <ele>1819.4000244141</ele>
        <time>2020-12-16T09:02:27.000Z</time>
      </trkpt>
      <trkpt lat="45.30247" lon="6.17742">
        <ele>1819.8000488281</ele>
        <time>2020-12-16T09:02:30.000Z</time>
      </trkpt>
      <trkpt lat="45.30249" lon="6.17741">
        <ele>1820.5999755859</ele>
        <time>2020-12-16T09:02:33.000Z</time>
      </trkpt>
      <trkpt lat="45.30251" lon="6.17741">
        <ele>1821.5999755859</ele>
        <time>2020-12-16T09:02:38.000Z</time>
      </trkpt>
      <trkpt lat="45.30252" lon="6.1774">
        <ele>1821.8000488281</ele>
        <time>2020-12-16T09:02:39.000Z</time>
      </trkpt>
      <trkpt lat="45.30255" lon="6.1774">
        <ele>1822.4000244141</ele>
        <time>2020-12-16T09:02:45.000Z</time>
      </trkpt>
      <trkpt lat="45.30256" lon="6.17739">
        <ele>1822.8000488281</ele>
        <time>2020-12-16T09:02:47.000Z</time>
      </trkpt>
      <trkpt lat="45.30259" lon="6.17739">
        <ele>1823.5999755859</ele>
        <time>2020-12-16T09:02:53.000Z</time>
      </trkpt>
      <trkpt lat="45.30259" lon="6.17739">
        <ele>1823.8000488281</ele>
        <time>2020-12-16T09:02:54.000Z</time>
      </trkpt>
      <trkpt lat="45.30261" lon="6.17739">
        <ele>1824.1999511719</ele>
        <time>2020-12-16T09:02:56.000Z</time>
      </trkpt>
      <trkpt lat="45.30262" lon="6.17739">
        <ele>1824.4000244141</ele>
        <time>2020-12-16T09:02:58.000Z</time>
      </trkpt>
      <trkpt lat="45.30263" lon="6.17738">
        <ele>1825</ele>
        <time>2020-12-16T09:03:00.000Z</time>
      </trkpt>
      <trkpt lat="45.30264" lon="6.17736">
        <ele>1825.5999755859</ele>
        <time>2020-12-16T09:03:05.000Z</time>
      </trkpt>
      <trkpt lat="45.30264" lon="6.17733">
        <ele>1826</ele>
        <time>2020-12-16T09:03:08.000Z</time>
      </trkpt>
      <trkpt lat="45.30266" lon="6.17729">
        <ele>1827</ele>
        <time>2020-12-16T09:03:14.000Z</time>
      </trkpt>
      <trkpt lat="45.30266" lon="6.17728">
        <ele>1827.1999511719</ele>
        <time>2020-12-16T09:03:15.000Z</time>
      </trkpt>
      <trkpt lat="45.30266" lon="6.17728">
        <ele>1827.8000488281</ele>
        <time>2020-12-16T09:03:21.000Z</time>
      </trkpt>
      <trkpt lat="45.30267" lon="6.17729">
        <ele>1828.1999511719</ele>
        <time>2020-12-16T09:03:24.000Z</time>
      </trkpt>
      <trkpt lat="45.30268" lon="6.1773">
        <ele>1828.4000244141</ele>
        <time>2020-12-16T09:03:25.000Z</time>
      </trkpt>
      <trkpt lat="45.3027" lon="6.17732">
        <ele>1829.1999511719</ele>
        <time>2020-12-16T09:03:31.000Z</time>
      </trkpt>
      <trkpt lat="45.3027" lon="6.17732">
        <ele>1829.4000244141</ele>
        <time>2020-12-16T09:03:32.000Z</time>
      </trkpt>
      <trkpt lat="45.30271" lon="6.17732">
        <ele>1829.8000488281</ele>
        <time>2020-12-16T09:03:36.000Z</time>
      </trkpt>
      <trkpt lat="45.30271" lon="6.17725">
        <ele>1830.1999511719</ele>
        <time>2020-12-16T09:03:42.000Z</time>
      </trkpt>
      <trkpt lat="45.30271" lon="6.17725">
        <ele>1830.4000244141</ele>
        <time>2020-12-16T09:03:43.000Z</time>
      </trkpt>
      <trkpt lat="45.30272" lon="6.17725">
        <ele>1831.4000244141</ele>
        <time>2020-12-16T09:03:48.000Z</time>
      </trkpt>
      <trkpt lat="45.30272" lon="6.17725">
        <ele>1831.4000244141</ele>
        <time>2020-12-16T09:03:49.000Z</time>
      </trkpt>
      <trkpt lat="45.30272" lon="6.17723">
        <ele>1831.8000488281</ele>
        <time>2020-12-16T09:03:54.000Z</time>
      </trkpt>
      <trkpt lat="45.30275" lon="6.17723">
        <ele>1832.1999511719</ele>
        <time>2020-12-16T09:04:00.000Z</time>
      </trkpt>
      <trkpt lat="45.30276" lon="6.17723">
        <ele>1832.5999755859</ele>
        <time>2020-12-16T09:04:02.000Z</time>
      </trkpt>
      <trkpt lat="45.30278" lon="6.17723">
        <ele>1833.4000244141</ele>
        <time>2020-12-16T09:04:07.000Z</time>
      </trkpt>
      <trkpt lat="45.30278" lon="6.17723">
        <ele>1833.5999755859</ele>
        <time>2020-12-16T09:04:08.000Z</time>
      </trkpt>
      <trkpt lat="45.30279" lon="6.1772">
        <ele>1834.5999755859</ele>
        <time>2020-12-16T09:04:13.000Z</time>
      </trkpt>
      <trkpt lat="45.3028" lon="6.1772">
        <ele>1834.8000488281</ele>
        <time>2020-12-16T09:04:14.000Z</time>
      </trkpt>
      <trkpt lat="45.3028" lon="6.17719">
        <ele>1835.1999511719</ele>
        <time>2020-12-16T09:04:18.000Z</time>
      </trkpt>
      <trkpt lat="45.30281" lon="6.17718">
        <ele>1835.8000488281</ele>
        <time>2020-12-16T09:04:21.000Z</time>
      </trkpt>
      <trkpt lat="45.30281" lon="6.17715">
        <ele>1836.4000244141</ele>
        <time>2020-12-16T09:04:25.000Z</time>
      </trkpt>
      <trkpt lat="45.30283" lon="6.17715">
        <ele>1836.8000488281</ele>
        <time>2020-12-16T09:04:30.000Z</time>
      </trkpt>
      <trkpt lat="45.30284" lon="6.17715">
        <ele>1836.8000488281</ele>
        <time>2020-12-16T09:04:31.000Z</time>
      </trkpt>
      <trkpt lat="45.30287" lon="6.17716">
        <ele>1837.8000488281</ele>
        <time>2020-12-16T09:04:37.000Z</time>
      </trkpt>
      <trkpt lat="45.30288" lon="6.17717">
        <ele>1838</ele>
        <time>2020-12-16T09:04:38.000Z</time>
      </trkpt>
      <trkpt lat="45.30289" lon="6.17718">
        <ele>1839</ele>
        <time>2020-12-16T09:04:43.000Z</time>
      </trkpt>
      <trkpt lat="45.3029" lon="6.17718">
        <ele>1839.1999511719</ele>
        <time>2020-12-16T09:04:44.000Z</time>
      </trkpt>
      <trkpt lat="45.3029" lon="6.17716">
        <ele>1840</ele>
        <time>2020-12-16T09:04:50.000Z</time>
      </trkpt>
      <trkpt lat="45.3029" lon="6.17717">
        <ele>1840.1999511719</ele>
        <time>2020-12-16T09:04:51.000Z</time>
      </trkpt>
      <trkpt lat="45.30291" lon="6.17713">
        <ele>1840.5999755859</ele>
        <time>2020-12-16T09:04:54.000Z</time>
      </trkpt>
      <trkpt lat="45.30291" lon="6.17708">
        <ele>1840.8000488281</ele>
        <time>2020-12-16T09:04:58.000Z</time>
      </trkpt>
      <trkpt lat="45.3029" lon="6.17708">
        <ele>1841</ele>
        <time>2020-12-16T09:05:01.000Z</time>
      </trkpt>
      <trkpt lat="45.30289" lon="6.17706">
        <ele>1841.4000244141</ele>
        <time>2020-12-16T09:05:03.000Z</time>
      </trkpt>
      <trkpt lat="45.30289" lon="6.17706">
        <ele>1841.5999755859</ele>
        <time>2020-12-16T09:05:04.000Z</time>
      </trkpt>
      <trkpt lat="45.30289" lon="6.17704">
        <ele>1842.1999511719</ele>
        <time>2020-12-16T09:05:07.000Z</time>
      </trkpt>
      <trkpt lat="45.30288" lon="6.17701">
        <ele>1842.8000488281</ele>
        <time>2020-12-16T09:05:11.000Z</time>
      </trkpt>
      <trkpt lat="45.30287" lon="6.177">
        <ele>1843.4000244141</ele>
        <time>2020-12-16T09:05:14.000Z</time>
      </trkpt>
      <trkpt lat="45.30287" lon="6.17696">
        <ele>1844</ele>
        <time>2020-12-16T09:05:19.000Z</time>
      </trkpt>
      <trkpt lat="45.30287" lon="6.17694">
        <ele>1844.4000244141</ele>
        <time>2020-12-16T09:05:21.000Z</time>
      </trkpt>
      <trkpt lat="45.30287" lon="6.17691">
        <ele>1845</ele>
        <time>2020-12-16T09:05:25.000Z</time>
      </trkpt>
      <trkpt lat="45.30288" lon="6.17688">
        <ele>1845.4000244141</ele>
        <time>2020-12-16T09:05:29.000Z</time>
      </trkpt>
      <trkpt lat="45.30288" lon="6.17686">
        <ele>1846</ele>
        <time>2020-12-16T09:05:32.000Z</time>
      </trkpt>
      <trkpt lat="45.30288" lon="6.17686">
        <ele>1846.5999755859</ele>
        <time>2020-12-16T09:05:36.000Z</time>
      </trkpt>
      <trkpt lat="45.30288" lon="6.17686">
        <ele>1846.8000488281</ele>
        <time>2020-12-16T09:05:39.000Z</time>
      </trkpt>
      <trkpt lat="45.30289" lon="6.17685">
        <ele>1847.4000244141</ele>
        <time>2020-12-16T09:05:46.000Z</time>
      </trkpt>
      <trkpt lat="45.30289" lon="6.17686">
        <ele>1847.8000488281</ele>
        <time>2020-12-16T09:05:47.000Z</time>
      </trkpt>
      <trkpt lat="45.30291" lon="6.17685">
        <ele>1849</ele>
        <time>2020-12-16T09:05:51.000Z</time>
      </trkpt>
      <trkpt lat="45.30292" lon="6.17684">
        <ele>1849.4000244141</ele>
        <time>2020-12-16T09:05:53.000Z</time>
      </trkpt>
      <trkpt lat="45.30294" lon="6.17685">
        <ele>1850</ele>
        <time>2020-12-16T09:05:56.000Z</time>
      </trkpt>
      <trkpt lat="45.30294" lon="6.17685">
        <ele>1850.5999755859</ele>
        <time>2020-12-16T09:05:59.000Z</time>
      </trkpt>
      <trkpt lat="45.30295" lon="6.17685">
        <ele>1851</ele>
        <time>2020-12-16T09:06:01.000Z</time>
      </trkpt>
      <trkpt lat="45.30296" lon="6.17685">
        <ele>1851.5999755859</ele>
        <time>2020-12-16T09:06:05.000Z</time>
      </trkpt>
      <trkpt lat="45.30297" lon="6.17686">
        <ele>1852.1999511719</ele>
        <time>2020-12-16T09:06:08.000Z</time>
      </trkpt>
      <trkpt lat="45.30298" lon="6.17686">
        <ele>1853.1999511719</ele>
        <time>2020-12-16T09:06:12.000Z</time>
      </trkpt>
      <trkpt lat="45.303" lon="6.17685">
        <ele>1853.5999755859</ele>
        <time>2020-12-16T09:06:14.000Z</time>
      </trkpt>
      <trkpt lat="45.30301" lon="6.17685">
        <ele>1854.1999511719</ele>
        <time>2020-12-16T09:06:19.000Z</time>
      </trkpt>
      <trkpt lat="45.303" lon="6.17682">
        <ele>1854.5999755859</ele>
        <time>2020-12-16T09:06:23.000Z</time>
      </trkpt>
      <trkpt lat="45.30301" lon="6.17678">
        <ele>1855</ele>
        <time>2020-12-16T09:06:30.000Z</time>
      </trkpt>
      <trkpt lat="45.30302" lon="6.17676">
        <ele>1855.4000244141</ele>
        <time>2020-12-16T09:06:32.000Z</time>
      </trkpt>
      <trkpt lat="45.30303" lon="6.17672">
        <ele>1856.5999755859</ele>
        <time>2020-12-16T09:06:38.000Z</time>
      </trkpt>
      <trkpt lat="45.30303" lon="6.17672">
        <ele>1856.8000488281</ele>
        <time>2020-12-16T09:06:39.000Z</time>
      </trkpt>
      <trkpt lat="45.30303" lon="6.17668">
        <ele>1857.5999755859</ele>
        <time>2020-12-16T09:06:46.000Z</time>
      </trkpt>
      <trkpt lat="45.30303" lon="6.1766">
        <ele>1858.5999755859</ele>
        <time>2020-12-16T09:06:53.000Z</time>
      </trkpt>
      <trkpt lat="45.30303" lon="6.17658">
        <ele>1858.8000488281</ele>
        <time>2020-12-16T09:06:55.000Z</time>
      </trkpt>
      <trkpt lat="45.30303" lon="6.17654">
        <ele>1859.8000488281</ele>
        <time>2020-12-16T09:07:00.000Z</time>
      </trkpt>
      <trkpt lat="45.30303" lon="6.17654">
        <ele>1859.8000488281</ele>
        <time>2020-12-16T09:07:01.000Z</time>
      </trkpt>
      <trkpt lat="45.30303" lon="6.17648">
        <ele>1860.8000488281</ele>
        <time>2020-12-16T09:07:08.000Z</time>
      </trkpt>
      <trkpt lat="45.30302" lon="6.17646">
        <ele>1862</ele>
        <time>2020-12-16T09:07:16.000Z</time>
      </trkpt>
      <trkpt lat="45.30303" lon="6.17646">
        <ele>1862.5999755859</ele>
        <time>2020-12-16T09:07:21.000Z</time>
      </trkpt>
      <trkpt lat="45.30305" lon="6.17645">
        <ele>1863</ele>
        <time>2020-12-16T09:07:26.000Z</time>
      </trkpt>
      <trkpt lat="45.30307" lon="6.17645">
        <ele>1863.1999511719</ele>
        <time>2020-12-16T09:07:28.000Z</time>
      </trkpt>
      <trkpt lat="45.30309" lon="6.17645">
        <ele>1864.1999511719</ele>
        <time>2020-12-16T09:07:33.000Z</time>
      </trkpt>
      <trkpt lat="45.3031" lon="6.17646">
        <ele>1864.4000244141</ele>
        <time>2020-12-16T09:07:34.000Z</time>
      </trkpt>
      <trkpt lat="45.3031" lon="6.17646">
        <ele>1865.1999511719</ele>
        <time>2020-12-16T09:07:39.000Z</time>
      </trkpt>
      <trkpt lat="45.30311" lon="6.17646">
        <ele>1865.5999755859</ele>
        <time>2020-12-16T09:07:41.000Z</time>
      </trkpt>
      <trkpt lat="45.30312" lon="6.17645">
        <ele>1866</ele>
        <time>2020-12-16T09:07:47.000Z</time>
      </trkpt>
      <trkpt lat="45.30311" lon="6.17644">
        <ele>1866.4000244141</ele>
        <time>2020-12-16T09:07:48.000Z</time>
      </trkpt>
      <trkpt lat="45.30311" lon="6.17643">
        <ele>1866.5999755859</ele>
        <time>2020-12-16T09:07:49.000Z</time>
      </trkpt>
      <trkpt lat="45.30313" lon="6.17638">
        <ele>1867.1999511719</ele>
        <time>2020-12-16T09:07:56.000Z</time>
      </trkpt>
      <trkpt lat="45.30313" lon="6.17638">
        <ele>1867.4000244141</ele>
        <time>2020-12-16T09:07:57.000Z</time>
      </trkpt>
      <trkpt lat="45.30312" lon="6.17637">
        <ele>1868.1999511719</ele>
        <time>2020-12-16T09:08:02.000Z</time>
      </trkpt>
      <trkpt lat="45.30312" lon="6.17637">
        <ele>1868.5999755859</ele>
        <time>2020-12-16T09:08:04.000Z</time>
      </trkpt>
      <trkpt lat="45.30314" lon="6.17636">
        <ele>1869.1999511719</ele>
        <time>2020-12-16T09:08:08.000Z</time>
      </trkpt>
      <trkpt lat="45.30316" lon="6.17636">
        <ele>1869.5999755859</ele>
        <time>2020-12-16T09:08:11.000Z</time>
      </trkpt>
      <trkpt lat="45.30316" lon="6.17636">
        <ele>1870.1999511719</ele>
        <time>2020-12-16T09:08:13.000Z</time>
      </trkpt>
      <trkpt lat="45.30316" lon="6.17636">
        <ele>1870.5999755859</ele>
        <time>2020-12-16T09:08:18.000Z</time>
      </trkpt>
      <trkpt lat="45.30316" lon="6.17636">
        <ele>1870.8000488281</ele>
        <time>2020-12-16T09:08:19.000Z</time>
      </trkpt>
      <trkpt lat="45.30316" lon="6.17634">
        <ele>1871</ele>
        <time>2020-12-16T09:08:24.000Z</time>
      </trkpt>
      <trkpt lat="45.30315" lon="6.17629">
        <ele>1871.8000488281</ele>
        <time>2020-12-16T09:08:30.000Z</time>
      </trkpt>
      <trkpt lat="45.30314" lon="6.17628">
        <ele>1872.8000488281</ele>
        <time>2020-12-16T09:08:35.000Z</time>
      </trkpt>
      <trkpt lat="45.30315" lon="6.17628">
        <ele>1873.4000244141</ele>
        <time>2020-12-16T09:08:38.000Z</time>
      </trkpt>
      <trkpt lat="45.30316" lon="6.17627">
        <ele>1874</ele>
        <time>2020-12-16T09:08:43.000Z</time>
      </trkpt>
      <trkpt lat="45.30317" lon="6.17626">
        <ele>1874.4000244141</ele>
        <time>2020-12-16T09:08:47.000Z</time>
      </trkpt>
      <trkpt lat="45.30319" lon="6.17626">
        <ele>1874.5999755859</ele>
        <time>2020-12-16T09:08:49.000Z</time>
      </trkpt>
      <trkpt lat="45.3032" lon="6.17625">
        <ele>1875</ele>
        <time>2020-12-16T09:08:52.000Z</time>
      </trkpt>
      <trkpt lat="45.3032" lon="6.17625">
        <ele>1875.4000244141</ele>
        <time>2020-12-16T09:08:54.000Z</time>
      </trkpt>
      <trkpt lat="45.30323" lon="6.17625">
        <ele>1876.1999511719</ele>
        <time>2020-12-16T09:08:58.000Z</time>
      </trkpt>
      <trkpt lat="45.30324" lon="6.17625">
        <ele>1876.5999755859</ele>
        <time>2020-12-16T09:09:00.000Z</time>
      </trkpt>
      <trkpt lat="45.30324" lon="6.17624">
        <ele>1877.4000244141</ele>
        <time>2020-12-16T09:09:03.000Z</time>
      </trkpt>
      <trkpt lat="45.30326" lon="6.17624">
        <ele>1878</ele>
        <time>2020-12-16T09:09:07.000Z</time>
      </trkpt>
      <trkpt lat="45.30326" lon="6.17624">
        <ele>1878.4000244141</ele>
        <time>2020-12-16T09:09:09.000Z</time>
      </trkpt>
      <trkpt lat="45.30323" lon="6.1762">
        <ele>1879.1999511719</ele>
        <time>2020-12-16T09:09:14.000Z</time>
      </trkpt>
      <trkpt lat="45.30323" lon="6.17618">
        <ele>1879.5999755859</ele>
        <time>2020-12-16T09:09:18.000Z</time>
      </trkpt>
      <trkpt lat="45.30324" lon="6.17615">
        <ele>1880</ele>
        <time>2020-12-16T09:09:21.000Z</time>
      </trkpt>
      <trkpt lat="45.30323" lon="6.17614">
        <ele>1880.5999755859</ele>
        <time>2020-12-16T09:09:24.000Z</time>
      </trkpt>
      <trkpt lat="45.30322" lon="6.17614">
        <ele>1881.4000244141</ele>
        <time>2020-12-16T09:09:27.000Z</time>
      </trkpt>
      <trkpt lat="45.30322" lon="6.17613">
        <ele>1881.8000488281</ele>
        <time>2020-12-16T09:09:29.000Z</time>
      </trkpt>
      <trkpt lat="45.30321" lon="6.1761">
        <ele>1882.8000488281</ele>
        <time>2020-12-16T09:09:34.000Z</time>
      </trkpt>
      <trkpt lat="45.3032" lon="6.17609">
        <ele>1882.8000488281</ele>
        <time>2020-12-16T09:09:35.000Z</time>
      </trkpt>
      <trkpt lat="45.30319" lon="6.17607">
        <ele>1883.5999755859</ele>
        <time>2020-12-16T09:09:39.000Z</time>
      </trkpt>
      <trkpt lat="45.30319" lon="6.17606">
        <ele>1884</ele>
        <time>2020-12-16T09:09:41.000Z</time>
      </trkpt>
      <trkpt lat="45.30318" lon="6.17603">
        <ele>1884.5999755859</ele>
        <time>2020-12-16T09:09:45.000Z</time>
      </trkpt>
      <trkpt lat="45.30318" lon="6.17602">
        <ele>1885</ele>
        <time>2020-12-16T09:09:47.000Z</time>
      </trkpt>
      <trkpt lat="45.30319" lon="6.176">
        <ele>1886.1999511719</ele>
        <time>2020-12-16T09:09:52.000Z</time>
      </trkpt>
      <trkpt lat="45.30318" lon="6.17597">
        <ele>1887.1999511719</ele>
        <time>2020-12-16T09:09:58.000Z</time>
      </trkpt>
      <trkpt lat="45.30317" lon="6.17596">
        <ele>1887.4000244141</ele>
        <time>2020-12-16T09:09:59.000Z</time>
      </trkpt>
      <trkpt lat="45.30317" lon="6.17591">
        <ele>1888.1999511719</ele>
        <time>2020-12-16T09:10:04.000Z</time>
      </trkpt>
      <trkpt lat="45.30317" lon="6.17591">
        <ele>1888.4000244141</ele>
        <time>2020-12-16T09:10:06.000Z</time>
      </trkpt>
      <trkpt lat="45.30317" lon="6.17589">
        <ele>1889.4000244141</ele>
        <time>2020-12-16T09:10:12.000Z</time>
      </trkpt>
      <trkpt lat="45.30318" lon="6.17587">
        <ele>1890.4000244141</ele>
        <time>2020-12-16T09:10:18.000Z</time>
      </trkpt>
      <trkpt lat="45.30319" lon="6.17587">
        <ele>1890.4000244141</ele>
        <time>2020-12-16T09:10:19.000Z</time>
      </trkpt>
      <trkpt lat="45.30319" lon="6.17588">
        <ele>1890.4000244141</ele>
        <time>2020-12-16T09:10:20.000Z</time>
      </trkpt>
      <trkpt lat="45.3032" lon="6.17588">
        <ele>1891</ele>
        <time>2020-12-16T09:10:24.000Z</time>
      </trkpt>
      <trkpt lat="45.3032" lon="6.17587">
        <ele>1891.4000244141</ele>
        <time>2020-12-16T09:10:27.000Z</time>
      </trkpt>
      <trkpt lat="45.30322" lon="6.17588">
        <ele>1892.4000244141</ele>
        <time>2020-12-16T09:10:32.000Z</time>
      </trkpt>
      <trkpt lat="45.30323" lon="6.17588">
        <ele>1892.5999755859</ele>
        <time>2020-12-16T09:10:33.000Z</time>
      </trkpt>
      <trkpt lat="45.30325" lon="6.17588">
        <ele>1893.5999755859</ele>
        <time>2020-12-16T09:10:39.000Z</time>
      </trkpt>
      <trkpt lat="45.30326" lon="6.17587">
        <ele>1894.5999755859</ele>
        <time>2020-12-16T09:10:42.000Z</time>
      </trkpt>
      <trkpt lat="45.30328" lon="6.17587">
        <ele>1894.8000488281</ele>
        <time>2020-12-16T09:10:45.000Z</time>
      </trkpt>
      <trkpt lat="45.30332" lon="6.17588">
        <ele>1895.8000488281</ele>
        <time>2020-12-16T09:10:52.000Z</time>
      </trkpt>
      <trkpt lat="45.30336" lon="6.17587">
        <ele>1896.8000488281</ele>
        <time>2020-12-16T09:10:58.000Z</time>
      </trkpt>
      <trkpt lat="45.30337" lon="6.17586">
        <ele>1897</ele>
        <time>2020-12-16T09:10:59.000Z</time>
      </trkpt>
      <trkpt lat="45.3034" lon="6.17587">
        <ele>1897.5999755859</ele>
        <time>2020-12-16T09:11:04.000Z</time>
      </trkpt>
      <trkpt lat="45.30341" lon="6.17587">
        <ele>1898</ele>
        <time>2020-12-16T09:11:06.000Z</time>
      </trkpt>
      <trkpt lat="45.30341" lon="6.17586">
        <ele>1898.8000488281</ele>
        <time>2020-12-16T09:11:10.000Z</time>
      </trkpt>
      <trkpt lat="45.30341" lon="6.17586">
        <ele>1899</ele>
        <time>2020-12-16T09:11:12.000Z</time>
      </trkpt>
      <trkpt lat="45.30341" lon="6.17586">
        <ele>1899.5999755859</ele>
        <time>2020-12-16T09:11:17.000Z</time>
      </trkpt>
      <trkpt lat="45.3034" lon="6.17583">
        <ele>1900.1999511719</ele>
        <time>2020-12-16T09:11:23.000Z</time>
      </trkpt>
      <trkpt lat="45.3034" lon="6.17579">
        <ele>1901.1999511719</ele>
        <time>2020-12-16T09:11:29.000Z</time>
      </trkpt>
      <trkpt lat="45.3034" lon="6.17578">
        <ele>1901.4000244141</ele>
        <time>2020-12-16T09:11:30.000Z</time>
      </trkpt>
      <trkpt lat="45.30339" lon="6.17576">
        <ele>1902.1999511719</ele>
        <time>2020-12-16T09:11:35.000Z</time>
      </trkpt>
      <trkpt lat="45.30339" lon="6.17576">
        <ele>1902.4000244141</ele>
        <time>2020-12-16T09:11:36.000Z</time>
      </trkpt>
      <trkpt lat="45.30338" lon="6.17574">
        <ele>1903.4000244141</ele>
        <time>2020-12-16T09:11:42.000Z</time>
      </trkpt>
      <trkpt lat="45.30336" lon="6.17572">
        <ele>1904.5999755859</ele>
        <time>2020-12-16T09:11:49.000Z</time>
      </trkpt>
      <trkpt lat="45.30339" lon="6.17571">
        <ele>1905</ele>
        <time>2020-12-16T09:11:56.000Z</time>
      </trkpt>
      <trkpt lat="45.30341" lon="6.1757">
        <ele>1905.5999755859</ele>
        <time>2020-12-16T09:12:01.000Z</time>
      </trkpt>
      <trkpt lat="45.30344" lon="6.17569">
        <ele>1906.8000488281</ele>
        <time>2020-12-16T09:12:07.000Z</time>
      </trkpt>
      <trkpt lat="45.30347" lon="6.17569">
        <ele>1908</ele>
        <time>2020-12-16T09:12:13.000Z</time>
      </trkpt>
      <trkpt lat="45.30348" lon="6.1757">
        <ele>1909</ele>
        <time>2020-12-16T09:12:21.000Z</time>
      </trkpt>
      <trkpt lat="45.30348" lon="6.1757">
        <ele>1909</ele>
        <time>2020-12-16T09:12:23.000Z</time>
      </trkpt>
      <trkpt lat="45.30348" lon="6.1757">
        <ele>1909.4000244141</ele>
        <time>2020-12-16T09:12:27.000Z</time>
      </trkpt>
      <trkpt lat="45.30348" lon="6.17569">
        <ele>1909.4000244141</ele>
        <time>2020-12-16T09:12:29.000Z</time>
      </trkpt>
      <trkpt lat="45.30349" lon="6.17567">
        <ele>1909.5999755859</ele>
        <time>2020-12-16T09:12:31.000Z</time>
      </trkpt>
      <trkpt lat="45.30347" lon="6.17563">
        <ele>1910.1999511719</ele>
        <time>2020-12-16T09:12:36.000Z</time>
      </trkpt>
      <trkpt lat="45.30346" lon="6.17562">
        <ele>1910.8000488281</ele>
        <time>2020-12-16T09:12:38.000Z</time>
      </trkpt>
      <trkpt lat="45.30347" lon="6.17561">
        <ele>1911.4000244141</ele>
        <time>2020-12-16T09:12:41.000Z</time>
      </trkpt>
      <trkpt lat="45.30347" lon="6.1756">
        <ele>1911.5999755859</ele>
        <time>2020-12-16T09:12:42.000Z</time>
      </trkpt>
      <trkpt lat="45.30345" lon="6.17558">
        <ele>1912.4000244141</ele>
        <time>2020-12-16T09:12:46.000Z</time>
      </trkpt>
      <trkpt lat="45.30345" lon="6.17557">
        <ele>1912.8000488281</ele>
        <time>2020-12-16T09:12:48.000Z</time>
      </trkpt>
      <trkpt lat="45.30344" lon="6.17556">
        <ele>1913.5999755859</ele>
        <time>2020-12-16T09:12:51.000Z</time>
      </trkpt>
      <trkpt lat="45.30344" lon="6.17553">
        <ele>1914</ele>
        <time>2020-12-16T09:12:54.000Z</time>
      </trkpt>
      <trkpt lat="45.30344" lon="6.1755">
        <ele>1914.5999755859</ele>
        <time>2020-12-16T09:12:58.000Z</time>
      </trkpt>
      <trkpt lat="45.30344" lon="6.17548">
        <ele>1915.1999511719</ele>
        <time>2020-12-16T09:13:01.000Z</time>
      </trkpt>
      <trkpt lat="45.30344" lon="6.17548">
        <ele>1915.5999755859</ele>
        <time>2020-12-16T09:13:04.000Z</time>
      </trkpt>
      <trkpt lat="45.30345" lon="6.17546">
        <ele>1916.1999511719</ele>
        <time>2020-12-16T09:13:07.000Z</time>
      </trkpt>
      <trkpt lat="45.30345" lon="6.17545">
        <ele>1916.8000488281</ele>
        <time>2020-12-16T09:13:13.000Z</time>
      </trkpt>
      <trkpt lat="45.30347" lon="6.17547">
        <ele>1918</ele>
        <time>2020-12-16T09:13:21.000Z</time>
      </trkpt>
      <trkpt lat="45.30347" lon="6.17547">
        <ele>1918</ele>
        <time>2020-12-16T09:13:22.000Z</time>
      </trkpt>
      <trkpt lat="45.30349" lon="6.17548">
        <ele>1919.1999511719</ele>
        <time>2020-12-16T09:13:27.000Z</time>
      </trkpt>
      <trkpt lat="45.30349" lon="6.17548">
        <ele>1919.5999755859</ele>
        <time>2020-12-16T09:13:29.000Z</time>
      </trkpt>
      <trkpt lat="45.3035" lon="6.17547">
        <ele>1920.1999511719</ele>
        <time>2020-12-16T09:13:35.000Z</time>
      </trkpt>
      <trkpt lat="45.30351" lon="6.17547">
        <ele>1920.4000244141</ele>
        <time>2020-12-16T09:13:36.000Z</time>
      </trkpt>
      <trkpt lat="45.30354" lon="6.17547">
        <ele>1921.1999511719</ele>
        <time>2020-12-16T09:13:41.000Z</time>
      </trkpt>
      <trkpt lat="45.30354" lon="6.17547">
        <ele>1921.4000244141</ele>
        <time>2020-12-16T09:13:42.000Z</time>
      </trkpt>
      <trkpt lat="45.30356" lon="6.17547">
        <ele>1922</ele>
        <time>2020-12-16T09:13:48.000Z</time>
      </trkpt>
      <trkpt lat="45.30356" lon="6.17545">
        <ele>1922.4000244141</ele>
        <time>2020-12-16T09:13:51.000Z</time>
      </trkpt>
      <trkpt lat="45.30356" lon="6.17545">
        <ele>1922.4000244141</ele>
        <time>2020-12-16T09:13:53.000Z</time>
      </trkpt>
      <trkpt lat="45.30354" lon="6.17541">
        <ele>1923.1999511719</ele>
        <time>2020-12-16T09:13:59.000Z</time>
      </trkpt>
      <trkpt lat="45.30354" lon="6.1754">
        <ele>1923.4000244141</ele>
        <time>2020-12-16T09:14:00.000Z</time>
      </trkpt>
      <trkpt lat="45.30353" lon="6.17535">
        <ele>1924.5999755859</ele>
        <time>2020-12-16T09:14:05.000Z</time>
      </trkpt>
      <trkpt lat="45.30353" lon="6.17531">
        <ele>1925.5999755859</ele>
        <time>2020-12-16T09:14:11.000Z</time>
      </trkpt>
      <trkpt lat="45.30352" lon="6.17531">
        <ele>1925.8000488281</ele>
        <time>2020-12-16T09:14:12.000Z</time>
      </trkpt>
      <trkpt lat="45.3035" lon="6.17525">
        <ele>1926.5999755859</ele>
        <time>2020-12-16T09:14:19.000Z</time>
      </trkpt>
      <trkpt lat="45.30351" lon="6.17519">
        <ele>1927.5999755859</ele>
        <time>2020-12-16T09:14:26.000Z</time>
      </trkpt>
      <trkpt lat="45.30349" lon="6.17515">
        <ele>1928.8000488281</ele>
        <time>2020-12-16T09:14:33.000Z</time>
      </trkpt>
      <trkpt lat="45.30349" lon="6.17514">
        <ele>1929</ele>
        <time>2020-12-16T09:14:34.000Z</time>
      </trkpt>
      <trkpt lat="45.30348" lon="6.17508">
        <ele>1929.8000488281</ele>
        <time>2020-12-16T09:14:40.000Z</time>
      </trkpt>
      <trkpt lat="45.30348" lon="6.17505">
        <ele>1930.8000488281</ele>
        <time>2020-12-16T09:14:46.000Z</time>
      </trkpt>
      <trkpt lat="45.30348" lon="6.17504">
        <ele>1931</ele>
        <time>2020-12-16T09:14:47.000Z</time>
      </trkpt>
      <trkpt lat="45.30347" lon="6.17503">
        <ele>1932</ele>
        <time>2020-12-16T09:14:54.000Z</time>
      </trkpt>
      <trkpt lat="45.30347" lon="6.175">
        <ele>1932.8000488281</ele>
        <time>2020-12-16T09:14:59.000Z</time>
      </trkpt>
      <trkpt lat="45.30347" lon="6.17499">
        <ele>1933</ele>
        <time>2020-12-16T09:15:01.000Z</time>
      </trkpt>
      <trkpt lat="45.30348" lon="6.17499">
        <ele>1933.1999511719</ele>
        <time>2020-12-16T09:15:04.000Z</time>
      </trkpt>
      <trkpt lat="45.30351" lon="6.17501">
        <ele>1934</ele>
        <time>2020-12-16T09:15:10.000Z</time>
      </trkpt>
      <trkpt lat="45.30352" lon="6.17503">
        <ele>1934</ele>
        <time>2020-12-16T09:15:12.000Z</time>
      </trkpt>
      <trkpt lat="45.30354" lon="6.17506">
        <ele>1934.4000244141</ele>
        <time>2020-12-16T09:15:16.000Z</time>
      </trkpt>
      <trkpt lat="45.30357" lon="6.17509">
        <ele>1935.1999511719</ele>
        <time>2020-12-16T09:15:20.000Z</time>
      </trkpt>
      <trkpt lat="45.30358" lon="6.1751">
        <ele>1935.8000488281</ele>
        <time>2020-12-16T09:15:23.000Z</time>
      </trkpt>
      <trkpt lat="45.30358" lon="6.17511">
        <ele>1936.1999511719</ele>
        <time>2020-12-16T09:15:27.000Z</time>
      </trkpt>
      <trkpt lat="45.3036" lon="6.17512">
        <ele>1937.1999511719</ele>
        <time>2020-12-16T09:15:32.000Z</time>
      </trkpt>
      <trkpt lat="45.3036" lon="6.17512">
        <ele>1937.4000244141</ele>
        <time>2020-12-16T09:15:33.000Z</time>
      </trkpt>
      <trkpt lat="45.30363" lon="6.17513">
        <ele>1938</ele>
        <time>2020-12-16T09:15:38.000Z</time>
      </trkpt>
      <trkpt lat="45.30364" lon="6.17514">
        <ele>1938.4000244141</ele>
        <time>2020-12-16T09:15:41.000Z</time>
      </trkpt>
      <trkpt lat="45.30367" lon="6.17515">
        <ele>1939.1999511719</ele>
        <time>2020-12-16T09:15:46.000Z</time>
      </trkpt>
      <trkpt lat="45.30368" lon="6.17515">
        <ele>1939.4000244141</ele>
        <time>2020-12-16T09:15:47.000Z</time>
      </trkpt>
      <trkpt lat="45.30368" lon="6.17515">
        <ele>1939.4000244141</ele>
        <time>2020-12-16T09:15:48.000Z</time>
      </trkpt>
      <trkpt lat="45.30369" lon="6.17516">
        <ele>1940.4000244141</ele>
        <time>2020-12-16T09:15:53.000Z</time>
      </trkpt>
      <trkpt lat="45.3037" lon="6.17516">
        <ele>1940.8000488281</ele>
        <time>2020-12-16T09:15:55.000Z</time>
      </trkpt>
      <trkpt lat="45.30373" lon="6.17514">
        <ele>1941.5999755859</ele>
        <time>2020-12-16T09:16:00.000Z</time>
      </trkpt>
      <trkpt lat="45.30374" lon="6.17514">
        <ele>1941.8000488281</ele>
        <time>2020-12-16T09:16:01.000Z</time>
      </trkpt>
      <trkpt lat="45.30374" lon="6.17514">
        <ele>1942.5999755859</ele>
        <time>2020-12-16T09:16:07.000Z</time>
      </trkpt>
      <trkpt lat="45.30375" lon="6.17514">
        <ele>1943</ele>
        <time>2020-12-16T09:16:09.000Z</time>
      </trkpt>
      <trkpt lat="45.30376" lon="6.17514">
        <ele>1943.8000488281</ele>
        <time>2020-12-16T09:16:13.000Z</time>
      </trkpt>
      <trkpt lat="45.30377" lon="6.17514">
        <ele>1944.1999511719</ele>
        <time>2020-12-16T09:16:15.000Z</time>
      </trkpt>
      <trkpt lat="45.3038" lon="6.17515">
        <ele>1945</ele>
        <time>2020-12-16T09:16:20.000Z</time>
      </trkpt>
      <trkpt lat="45.30381" lon="6.17515">
        <ele>1945.4000244141</ele>
        <time>2020-12-16T09:16:23.000Z</time>
      </trkpt>
      <trkpt lat="45.30382" lon="6.17514">
        <ele>1946</ele>
        <time>2020-12-16T09:16:27.000Z</time>
      </trkpt>
      <trkpt lat="45.30382" lon="6.17514">
        <ele>1946.1999511719</ele>
        <time>2020-12-16T09:16:29.000Z</time>
      </trkpt>
      <trkpt lat="45.30382" lon="6.17513">
        <ele>1947</ele>
        <time>2020-12-16T09:16:35.000Z</time>
      </trkpt>
      <trkpt lat="45.30381" lon="6.17512">
        <ele>1947</ele>
        <time>2020-12-16T09:16:37.000Z</time>
      </trkpt>
      <trkpt lat="45.3038" lon="6.17509">
        <ele>1948</ele>
        <time>2020-12-16T09:16:43.000Z</time>
      </trkpt>
      <trkpt lat="45.3038" lon="6.17508">
        <ele>1948.1999511719</ele>
        <time>2020-12-16T09:16:44.000Z</time>
      </trkpt>
      <trkpt lat="45.30379" lon="6.17507">
        <ele>1949.1999511719</ele>
        <time>2020-12-16T09:16:49.000Z</time>
      </trkpt>
      <trkpt lat="45.30379" lon="6.17506">
        <ele>1950</ele>
        <time>2020-12-16T09:16:56.000Z</time>
      </trkpt>
      <trkpt lat="45.3038" lon="6.17505">
        <ele>1950.1999511719</ele>
        <time>2020-12-16T09:17:02.000Z</time>
      </trkpt>
      <trkpt lat="45.30381" lon="6.17506">
        <ele>1950.4000244141</ele>
        <time>2020-12-16T09:17:03.000Z</time>
      </trkpt>
      <trkpt lat="45.30384" lon="6.17506">
        <ele>1951.1999511719</ele>
        <time>2020-12-16T09:17:09.000Z</time>
      </trkpt>
      <trkpt lat="45.30385" lon="6.17506">
        <ele>1951.4000244141</ele>
        <time>2020-12-16T09:17:10.000Z</time>
      </trkpt>
      <trkpt lat="45.30386" lon="6.17506">
        <ele>1951.8000488281</ele>
        <time>2020-12-16T09:17:15.000Z</time>
      </trkpt>
      <trkpt lat="45.30386" lon="6.17506">
        <ele>1952.4000244141</ele>
        <time>2020-12-16T09:17:20.000Z</time>
      </trkpt>
      <trkpt lat="45.30388" lon="6.17507">
        <ele>1952.5999755859</ele>
        <time>2020-12-16T09:17:23.000Z</time>
      </trkpt>
      <trkpt lat="45.30388" lon="6.17507">
        <ele>1952.8000488281</ele>
        <time>2020-12-16T09:17:37.000Z</time>
      </trkpt>
      <trkpt lat="45.30388" lon="6.17507">
        <ele>1952.8000488281</ele>
        <time>2020-12-16T09:17:51.000Z</time>
      </trkpt>
      <trkpt lat="45.3039" lon="6.17506">
        <ele>1952.8000488281</ele>
        <time>2020-12-16T09:18:03.000Z</time>
      </trkpt>
      <trkpt lat="45.30395" lon="6.17503">
        <ele>1953.1999511719</ele>
        <time>2020-12-16T09:18:11.000Z</time>
      </trkpt>
      <trkpt lat="45.30395" lon="6.17503">
        <ele>1953.5999755859</ele>
        <time>2020-12-16T09:18:13.000Z</time>
      </trkpt>
      <trkpt lat="45.30396" lon="6.17502">
        <ele>1954.1999511719</ele>
        <time>2020-12-16T09:18:16.000Z</time>
      </trkpt>
      <trkpt lat="45.30397" lon="6.17501">
        <ele>1954.8000488281</ele>
        <time>2020-12-16T09:18:20.000Z</time>
      </trkpt>
      <trkpt lat="45.30397" lon="6.175">
        <ele>1955.1999511719</ele>
        <time>2020-12-16T09:18:24.000Z</time>
      </trkpt>
      <trkpt lat="45.30396" lon="6.175">
        <ele>1955.8000488281</ele>
        <time>2020-12-16T09:18:28.000Z</time>
      </trkpt>
      <trkpt lat="45.30396" lon="6.175">
        <ele>1955.8000488281</ele>
        <time>2020-12-16T09:18:30.000Z</time>
      </trkpt>
      <trkpt lat="45.30396" lon="6.175">
        <ele>1956</ele>
        <time>2020-12-16T09:18:42.000Z</time>
      </trkpt>
      <trkpt lat="45.30398" lon="6.175">
        <ele>1956</ele>
        <time>2020-12-16T09:18:51.000Z</time>
      </trkpt>
      <trkpt lat="45.30398" lon="6.175">
        <ele>1955.8000488281</ele>
        <time>2020-12-16T09:19:02.000Z</time>
      </trkpt>
      <trkpt lat="45.30398" lon="6.175">
        <ele>1955.8000488281</ele>
        <time>2020-12-16T09:19:13.000Z</time>
      </trkpt>
      <trkpt lat="45.30397" lon="6.175">
        <ele>1955.4000244141</ele>
        <time>2020-12-16T09:19:24.000Z</time>
      </trkpt>
      <trkpt lat="45.30396" lon="6.17499">
        <ele>1956</ele>
        <time>2020-12-16T09:19:35.000Z</time>
      </trkpt>
      <trkpt lat="45.30396" lon="6.17499">
        <ele>1956.8000488281</ele>
        <time>2020-12-16T09:19:42.000Z</time>
      </trkpt>
      <trkpt lat="45.30396" lon="6.17499">
        <ele>1956.5999755859</ele>
        <time>2020-12-16T09:19:47.000Z</time>
      </trkpt>
      <trkpt lat="45.30393" lon="6.17494">
        <ele>1956.4000244141</ele>
        <time>2020-12-16T09:19:54.000Z</time>
      </trkpt>
      <trkpt lat="45.30394" lon="6.17494">
        <ele>1957.4000244141</ele>
        <time>2020-12-16T09:19:59.000Z</time>
      </trkpt>
      <trkpt lat="45.30394" lon="6.17494">
        <ele>1957.8000488281</ele>
        <time>2020-12-16T09:20:01.000Z</time>
      </trkpt>
      <trkpt lat="45.30397" lon="6.17491">
        <ele>1958.5999755859</ele>
        <time>2020-12-16T09:20:07.000Z</time>
      </trkpt>
      <trkpt lat="45.30398" lon="6.17491">
        <ele>1958.8000488281</ele>
        <time>2020-12-16T09:20:08.000Z</time>
      </trkpt>
      <trkpt lat="45.30399" lon="6.17489">
        <ele>1960</ele>
        <time>2020-12-16T09:20:13.000Z</time>
      </trkpt>
      <trkpt lat="45.304" lon="6.17489">
        <ele>1960.4000244141</ele>
        <time>2020-12-16T09:20:14.000Z</time>
      </trkpt>
      <trkpt lat="45.304" lon="6.17489">
        <ele>1961.1999511719</ele>
        <time>2020-12-16T09:20:17.000Z</time>
      </trkpt>
      <trkpt lat="45.30399" lon="6.17487">
        <ele>1961.5999755859</ele>
        <time>2020-12-16T09:20:20.000Z</time>
      </trkpt>
      <trkpt lat="45.30398" lon="6.17482">
        <ele>1962.1999511719</ele>
        <time>2020-12-16T09:20:25.000Z</time>
      </trkpt>
      <trkpt lat="45.30397" lon="6.1748">
        <ele>1962.5999755859</ele>
        <time>2020-12-16T09:20:27.000Z</time>
      </trkpt>
      <trkpt lat="45.30397" lon="6.17478">
        <ele>1963.4000244141</ele>
        <time>2020-12-16T09:20:30.000Z</time>
      </trkpt>
      <trkpt lat="45.30396" lon="6.17476">
        <ele>1964</ele>
        <time>2020-12-16T09:20:33.000Z</time>
      </trkpt>
      <trkpt lat="45.30396" lon="6.17474">
        <ele>1964.4000244141</ele>
        <time>2020-12-16T09:20:35.000Z</time>
      </trkpt>
      <trkpt lat="45.30395" lon="6.17472">
        <ele>1965.4000244141</ele>
        <time>2020-12-16T09:20:39.000Z</time>
      </trkpt>
      <trkpt lat="45.30392" lon="6.17469">
        <ele>1966.5999755859</ele>
        <time>2020-12-16T09:20:45.000Z</time>
      </trkpt>
      <trkpt lat="45.30392" lon="6.17468">
        <ele>1966.8000488281</ele>
        <time>2020-12-16T09:20:46.000Z</time>
      </trkpt>
      <trkpt lat="45.30391" lon="6.17466">
        <ele>1967.8000488281</ele>
        <time>2020-12-16T09:20:52.000Z</time>
      </trkpt>
      <trkpt lat="45.3039" lon="6.17461">
        <ele>1968.8000488281</ele>
        <time>2020-12-16T09:20:58.000Z</time>
      </trkpt>
      <trkpt lat="45.3039" lon="6.1746">
        <ele>1969</ele>
        <time>2020-12-16T09:20:59.000Z</time>
      </trkpt>
      <trkpt lat="45.3039" lon="6.17458">
        <ele>1969.8000488281</ele>
        <time>2020-12-16T09:21:02.000Z</time>
      </trkpt>
      <trkpt lat="45.30389" lon="6.17457">
        <ele>1969.8000488281</ele>
        <time>2020-12-16T09:21:03.000Z</time>
      </trkpt>
      <trkpt lat="45.3039" lon="6.17457">
        <ele>1970.5999755859</ele>
        <time>2020-12-16T09:21:07.000Z</time>
      </trkpt>
      <trkpt lat="45.3039" lon="6.17457">
        <ele>1971</ele>
        <time>2020-12-16T09:21:09.000Z</time>
      </trkpt>
      <trkpt lat="45.30392" lon="6.17456">
        <ele>1971.1999511719</ele>
        <time>2020-12-16T09:21:12.000Z</time>
      </trkpt>
      <trkpt lat="45.30392" lon="6.17456">
        <ele>1972</ele>
        <time>2020-12-16T09:21:17.000Z</time>
      </trkpt>
      <trkpt lat="45.30392" lon="6.17456">
        <ele>1972.4000244141</ele>
        <time>2020-12-16T09:21:19.000Z</time>
      </trkpt>
      <trkpt lat="45.30392" lon="6.17456">
        <ele>1973</ele>
        <time>2020-12-16T09:21:25.000Z</time>
      </trkpt>
      <trkpt lat="45.30391" lon="6.17454">
        <ele>1973.8000488281</ele>
        <time>2020-12-16T09:21:27.000Z</time>
      </trkpt>
      <trkpt lat="45.3039" lon="6.17453">
        <ele>1974.1999511719</ele>
        <time>2020-12-16T09:21:29.000Z</time>
      </trkpt>
      <trkpt lat="45.30388" lon="6.17448">
        <ele>1975</ele>
        <time>2020-12-16T09:21:35.000Z</time>
      </trkpt>
      <trkpt lat="45.30389" lon="6.17447">
        <ele>1975.4000244141</ele>
        <time>2020-12-16T09:21:37.000Z</time>
      </trkpt>
      <trkpt lat="45.30389" lon="6.17447">
        <ele>1975.5999755859</ele>
        <time>2020-12-16T09:21:39.000Z</time>
      </trkpt>
      <trkpt lat="45.30391" lon="6.17443">
        <ele>1976.4000244141</ele>
        <time>2020-12-16T09:21:45.000Z</time>
      </trkpt>
      <trkpt lat="45.30394" lon="6.17441">
        <ele>1977.5999755859</ele>
        <time>2020-12-16T09:21:50.000Z</time>
      </trkpt>
      <trkpt lat="45.30395" lon="6.17441">
        <ele>1977.8000488281</ele>
        <time>2020-12-16T09:21:52.000Z</time>
      </trkpt>
      <trkpt lat="45.30397" lon="6.1744">
        <ele>1978.5999755859</ele>
        <time>2020-12-16T09:21:56.000Z</time>
      </trkpt>
      <trkpt lat="45.30397" lon="6.1744">
        <ele>1979.4000244141</ele>
        <time>2020-12-16T09:22:00.000Z</time>
      </trkpt>
      <trkpt lat="45.30397" lon="6.1744">
        <ele>1979.5999755859</ele>
        <time>2020-12-16T09:22:01.000Z</time>
      </trkpt>
      <trkpt lat="45.30397" lon="6.1744">
        <ele>1980.5999755859</ele>
        <time>2020-12-16T09:22:07.000Z</time>
      </trkpt>
      <trkpt lat="45.30397" lon="6.1744">
        <ele>1980.8000488281</ele>
        <time>2020-12-16T09:22:08.000Z</time>
      </trkpt>
      <trkpt lat="45.30397" lon="6.1744">
        <ele>1982</ele>
        <time>2020-12-16T09:22:14.000Z</time>
      </trkpt>
      <trkpt lat="45.30398" lon="6.1744">
        <ele>1983.1999511719</ele>
        <time>2020-12-16T09:22:19.000Z</time>
      </trkpt>
      <trkpt lat="45.30398" lon="6.17439">
        <ele>1983.1999511719</ele>
        <time>2020-12-16T09:22:20.000Z</time>
      </trkpt>
      <trkpt lat="45.30398" lon="6.1744">
        <ele>1984.1999511719</ele>
        <time>2020-12-16T09:22:25.000Z</time>
      </trkpt>
      <trkpt lat="45.30398" lon="6.1744">
        <ele>1984.5999755859</ele>
        <time>2020-12-16T09:22:27.000Z</time>
      </trkpt>
      <trkpt lat="45.30398" lon="6.1744">
        <ele>1985.1999511719</ele>
        <time>2020-12-16T09:22:31.000Z</time>
      </trkpt>
      <trkpt lat="45.30398" lon="6.17439">
        <ele>1986.4000244141</ele>
        <time>2020-12-16T09:22:37.000Z</time>
      </trkpt>
      <trkpt lat="45.30398" lon="6.1744">
        <ele>1987.4000244141</ele>
        <time>2020-12-16T09:22:42.000Z</time>
      </trkpt>
      <trkpt lat="45.30398" lon="6.1744">
        <ele>1987.5999755859</ele>
        <time>2020-12-16T09:22:43.000Z</time>
      </trkpt>
      <trkpt lat="45.30398" lon="6.1744">
        <ele>1988.4000244141</ele>
        <time>2020-12-16T09:22:48.000Z</time>
      </trkpt>
      <trkpt lat="45.30398" lon="6.17439">
        <ele>1988.5999755859</ele>
        <time>2020-12-16T09:22:49.000Z</time>
      </trkpt>
      <trkpt lat="45.30398" lon="6.1744">
        <ele>1989.1999511719</ele>
        <time>2020-12-16T09:22:54.000Z</time>
      </trkpt>
      <trkpt lat="45.30398" lon="6.17439">
        <ele>1989.5999755859</ele>
        <time>2020-12-16T09:23:02.000Z</time>
      </trkpt>
      <trkpt lat="45.30398" lon="6.17439">
        <ele>1989.5999755859</ele>
        <time>2020-12-16T09:23:03.000Z</time>
      </trkpt>
      <trkpt lat="45.30402" lon="6.17429">
        <ele>1989.5999755859</ele>
        <time>2020-12-16T09:23:09.000Z</time>
      </trkpt>
      <trkpt lat="45.30402" lon="6.17425">
        <ele>1990</ele>
        <time>2020-12-16T09:23:14.000Z</time>
      </trkpt>
      <trkpt lat="45.30403" lon="6.17425">
        <ele>1990</ele>
        <time>2020-12-16T09:23:21.000Z</time>
      </trkpt>
      <trkpt lat="45.30403" lon="6.17425">
        <ele>1989.8000488281</ele>
        <time>2020-12-16T09:23:32.000Z</time>
      </trkpt>
      <trkpt lat="45.30403" lon="6.17425">
        <ele>1990.1999511719</ele>
        <time>2020-12-16T09:23:44.000Z</time>
      </trkpt>
      <trkpt lat="45.30403" lon="6.17425">
        <ele>1989.8000488281</ele>
        <time>2020-12-16T09:23:54.000Z</time>
      </trkpt>
      <trkpt lat="45.30403" lon="6.17425">
        <ele>1989.8000488281</ele>
        <time>2020-12-16T09:24:11.000Z</time>
      </trkpt>
      <trkpt lat="45.30403" lon="6.17425">
        <ele>1990</ele>
        <time>2020-12-16T09:24:20.000Z</time>
      </trkpt>
      <trkpt lat="45.30403" lon="6.17424">
        <ele>1989.5999755859</ele>
        <time>2020-12-16T09:24:29.000Z</time>
      </trkpt>
      <trkpt lat="45.30403" lon="6.17424">
        <ele>1988.5999755859</ele>
        <time>2020-12-16T09:24:36.000Z</time>
      </trkpt>
      <trkpt lat="45.30403" lon="6.17424">
        <ele>1988.1999511719</ele>
        <time>2020-12-16T09:24:43.000Z</time>
      </trkpt>
      <trkpt lat="45.30403" lon="6.17424">
        <ele>1988.4000244141</ele>
        <time>2020-12-16T09:24:56.000Z</time>
      </trkpt>
      <trkpt lat="45.30403" lon="6.17424">
        <ele>1988.1999511719</ele>
        <time>2020-12-16T09:25:14.000Z</time>
      </trkpt>
      <trkpt lat="45.30403" lon="6.17424">
        <ele>1987.4000244141</ele>
        <time>2020-12-16T09:25:24.000Z</time>
      </trkpt>
      <trkpt lat="45.30403" lon="6.17424">
        <ele>1987.4000244141</ele>
        <time>2020-12-16T09:25:28.000Z</time>
      </trkpt>
      <trkpt lat="45.30403" lon="6.17424">
        <ele>1988.5999755859</ele>
        <time>2020-12-16T09:25:29.000Z</time>
      </trkpt>
      <trkpt lat="45.30403" lon="6.17424">
        <ele>1989.8000488281</ele>
        <time>2020-12-16T09:25:31.000Z</time>
      </trkpt>
      <trkpt lat="45.30403" lon="6.17424">
        <ele>1989.4000244141</ele>
        <time>2020-12-16T09:25:35.000Z</time>
      </trkpt>
      <trkpt lat="45.30403" lon="6.17424">
        <ele>1989.1999511719</ele>
        <time>2020-12-16T09:25:44.000Z</time>
      </trkpt>
      <trkpt lat="45.30403" lon="6.17424">
        <ele>1989.5999755859</ele>
        <time>2020-12-16T09:25:52.000Z</time>
      </trkpt>
      <trkpt lat="45.30403" lon="6.17424">
        <ele>1989.5999755859</ele>
        <time>2020-12-16T09:26:04.000Z</time>
      </trkpt>
      <trkpt lat="45.30404" lon="6.17421">
        <ele>1989.5999755859</ele>
        <time>2020-12-16T09:26:12.000Z</time>
      </trkpt>
      <trkpt lat="45.30403" lon="6.17421">
        <ele>1989.5999755859</ele>
        <time>2020-12-16T09:26:23.000Z</time>
      </trkpt>
      <trkpt lat="45.30403" lon="6.17421">
        <ele>1989.5999755859</ele>
        <time>2020-12-16T09:26:36.000Z</time>
      </trkpt>
      <trkpt lat="45.30403" lon="6.17421">
        <ele>1989.5999755859</ele>
        <time>2020-12-16T09:26:48.000Z</time>
      </trkpt>
      <trkpt lat="45.30403" lon="6.17421">
        <ele>1990</ele>
        <time>2020-12-16T09:26:57.000Z</time>
      </trkpt>
      <trkpt lat="45.30403" lon="6.1742">
        <ele>1989.1999511719</ele>
        <time>2020-12-16T09:27:11.000Z</time>
      </trkpt>
      <trkpt lat="45.30403" lon="6.1742">
        <ele>1989.1999511719</ele>
        <time>2020-12-16T09:27:12.000Z</time>
      </trkpt>
      <trkpt lat="45.30403" lon="6.1742">
        <ele>1989.1999511719</ele>
        <time>2020-12-16T09:27:22.000Z</time>
      </trkpt>
      <trkpt lat="45.30403" lon="6.1742">
        <ele>1988.4000244141</ele>
        <time>2020-12-16T09:27:30.000Z</time>
      </trkpt>
      <trkpt lat="45.30403" lon="6.1742">
        <ele>1989.8000488281</ele>
        <time>2020-12-16T09:27:34.000Z</time>
      </trkpt>
      <trkpt lat="45.30402" lon="6.17422">
        <ele>1989.4000244141</ele>
        <time>2020-12-16T09:27:45.000Z</time>
      </trkpt>
      <trkpt lat="45.30402" lon="6.17422">
        <ele>1989.4000244141</ele>
        <time>2020-12-16T09:27:55.000Z</time>
      </trkpt>
      <trkpt lat="45.30402" lon="6.17422">
        <ele>1989.5999755859</ele>
        <time>2020-12-16T09:28:07.000Z</time>
      </trkpt>
      <trkpt lat="45.30402" lon="6.17423">
        <ele>1989.4000244141</ele>
        <time>2020-12-16T09:28:24.000Z</time>
      </trkpt>
      <trkpt lat="45.30402" lon="6.17423">
        <ele>1989.5999755859</ele>
        <time>2020-12-16T09:28:39.000Z</time>
      </trkpt>
      <trkpt lat="45.30402" lon="6.17423">
        <ele>1989.5999755859</ele>
        <time>2020-12-16T09:28:50.000Z</time>
      </trkpt>
      <trkpt lat="45.30402" lon="6.17423">
        <ele>1989.5999755859</ele>
        <time>2020-12-16T09:29:01.000Z</time>
      </trkpt>
      <trkpt lat="45.30402" lon="6.17423">
        <ele>1989.5999755859</ele>
        <time>2020-12-16T09:29:15.000Z</time>
      </trkpt>
      <trkpt lat="45.30404" lon="6.17422">
        <ele>1989.4000244141</ele>
        <time>2020-12-16T09:29:22.000Z</time>
      </trkpt>
      <trkpt lat="45.30404" lon="6.17422">
        <ele>1989.5999755859</ele>
        <time>2020-12-16T09:29:29.000Z</time>
      </trkpt>
      <trkpt lat="45.30404" lon="6.17422">
        <ele>1989.4000244141</ele>
        <time>2020-12-16T09:29:45.000Z</time>
      </trkpt>
      <trkpt lat="45.30404" lon="6.1742">
        <ele>1989.4000244141</ele>
        <time>2020-12-16T09:29:54.000Z</time>
      </trkpt>
      <trkpt lat="45.30404" lon="6.17419">
        <ele>1989.8000488281</ele>
        <time>2020-12-16T09:30:00.000Z</time>
      </trkpt>
      <trkpt lat="45.30405" lon="6.17416">
        <ele>1990.1999511719</ele>
        <time>2020-12-16T09:30:07.000Z</time>
      </trkpt>
      <trkpt lat="45.30405" lon="6.17415">
        <ele>1990.1999511719</ele>
        <time>2020-12-16T09:30:08.000Z</time>
      </trkpt>
      <trkpt lat="45.30405" lon="6.17409">
        <ele>1990.8000488281</ele>
        <time>2020-12-16T09:30:14.000Z</time>
      </trkpt>
      <trkpt lat="45.30405" lon="6.17408">
        <ele>1991</ele>
        <time>2020-12-16T09:30:15.000Z</time>
      </trkpt>
      <trkpt lat="45.30406" lon="6.17404">
        <ele>1991.8000488281</ele>
        <time>2020-12-16T09:30:20.000Z</time>
      </trkpt>
      <trkpt lat="45.30406" lon="6.17402">
        <ele>1992.1999511719</ele>
        <time>2020-12-16T09:30:22.000Z</time>
      </trkpt>
      <trkpt lat="45.30407" lon="6.17397">
        <ele>1993</ele>
        <time>2020-12-16T09:30:26.000Z</time>
      </trkpt>
      <trkpt lat="45.30407" lon="6.17396">
        <ele>1993.1999511719</ele>
        <time>2020-12-16T09:30:27.000Z</time>
      </trkpt>
      <trkpt lat="45.30407" lon="6.17392">
        <ele>1994.1999511719</ele>
        <time>2020-12-16T09:30:33.000Z</time>
      </trkpt>
      <trkpt lat="45.30407" lon="6.17391">
        <ele>1994.4000244141</ele>
        <time>2020-12-16T09:30:34.000Z</time>
      </trkpt>
      <trkpt lat="45.30407" lon="6.17387">
        <ele>1995.4000244141</ele>
        <time>2020-12-16T09:30:39.000Z</time>
      </trkpt>
      <trkpt lat="45.30407" lon="6.17386">
        <ele>1995.5999755859</ele>
        <time>2020-12-16T09:30:40.000Z</time>
      </trkpt>
      <trkpt lat="45.30408" lon="6.17383">
        <ele>1996.4000244141</ele>
        <time>2020-12-16T09:30:44.000Z</time>
      </trkpt>
      <trkpt lat="45.30408" lon="6.17381">
        <ele>1997</ele>
        <time>2020-12-16T09:30:46.000Z</time>
      </trkpt>
      <trkpt lat="45.30409" lon="6.17377">
        <ele>1997.5999755859</ele>
        <time>2020-12-16T09:30:50.000Z</time>
      </trkpt>
      <trkpt lat="45.3041" lon="6.17376">
        <ele>1998.1999511719</ele>
        <time>2020-12-16T09:30:53.000Z</time>
      </trkpt>
      <trkpt lat="45.3041" lon="6.17376">
        <ele>1998.5999755859</ele>
        <time>2020-12-16T09:30:56.000Z</time>
      </trkpt>
      <trkpt lat="45.30411" lon="6.17373">
        <ele>1999.1999511719</ele>
        <time>2020-12-16T09:31:00.000Z</time>
      </trkpt>
      <trkpt lat="45.30412" lon="6.1737">
        <ele>1999.8000488281</ele>
        <time>2020-12-16T09:31:03.000Z</time>
      </trkpt>
      <trkpt lat="45.30413" lon="6.17367">
        <ele>2000.4000244141</ele>
        <time>2020-12-16T09:31:07.000Z</time>
      </trkpt>
      <trkpt lat="45.30416" lon="6.17364">
        <ele>2001</ele>
        <time>2020-12-16T09:31:11.000Z</time>
      </trkpt>
      <trkpt lat="45.30416" lon="6.17363">
        <ele>2001</ele>
        <time>2020-12-16T09:31:12.000Z</time>
      </trkpt>
      <trkpt lat="45.30417" lon="6.17362">
        <ele>2001.8000488281</ele>
        <time>2020-12-16T09:31:18.000Z</time>
      </trkpt>
      <trkpt lat="45.30418" lon="6.1736">
        <ele>2002</ele>
        <time>2020-12-16T09:31:19.000Z</time>
      </trkpt>
      <trkpt lat="45.30418" lon="6.17359">
        <ele>2002.8000488281</ele>
        <time>2020-12-16T09:31:24.000Z</time>
      </trkpt>
      <trkpt lat="45.30418" lon="6.17358">
        <ele>2002.8000488281</ele>
        <time>2020-12-16T09:31:25.000Z</time>
      </trkpt>
      <trkpt lat="45.30417" lon="6.17358">
        <ele>2003.1999511719</ele>
        <time>2020-12-16T09:31:27.000Z</time>
      </trkpt>
      <trkpt lat="45.30419" lon="6.17354">
        <ele>2003.8000488281</ele>
        <time>2020-12-16T09:31:31.000Z</time>
      </trkpt>
      <trkpt lat="45.3042" lon="6.17352">
        <ele>2004</ele>
        <time>2020-12-16T09:31:33.000Z</time>
      </trkpt>
      <trkpt lat="45.30421" lon="6.17351">
        <ele>2004.1999511719</ele>
        <time>2020-12-16T09:31:35.000Z</time>
      </trkpt>
      <trkpt lat="45.30421" lon="6.17351">
        <ele>2004.5999755859</ele>
        <time>2020-12-16T09:31:38.000Z</time>
      </trkpt>
      <trkpt lat="45.30423" lon="6.17346">
        <ele>2005.1999511719</ele>
        <time>2020-12-16T09:31:44.000Z</time>
      </trkpt>
      <trkpt lat="45.30424" lon="6.17345">
        <ele>2005.4000244141</ele>
        <time>2020-12-16T09:31:45.000Z</time>
      </trkpt>
      <trkpt lat="45.30426" lon="6.17338">
        <ele>2006.1999511719</ele>
        <time>2020-12-16T09:31:52.000Z</time>
      </trkpt>
      <trkpt lat="45.30426" lon="6.17338">
        <ele>2006.4000244141</ele>
        <time>2020-12-16T09:31:54.000Z</time>
      </trkpt>
      <trkpt lat="45.30428" lon="6.17334">
        <ele>2007.1999511719</ele>
        <time>2020-12-16T09:32:00.000Z</time>
      </trkpt>
      <trkpt lat="45.30429" lon="6.17332">
        <ele>2007.4000244141</ele>
        <time>2020-12-16T09:32:02.000Z</time>
      </trkpt>
      <trkpt lat="45.3043" lon="6.17329">
        <ele>2008</ele>
        <time>2020-12-16T09:32:06.000Z</time>
      </trkpt>
      <trkpt lat="45.30431" lon="6.17326">
        <ele>2008.4000244141</ele>
        <time>2020-12-16T09:32:10.000Z</time>
      </trkpt>
      <trkpt lat="45.30432" lon="6.17325">
        <ele>2009</ele>
        <time>2020-12-16T09:32:13.000Z</time>
      </trkpt>
      <trkpt lat="45.30433" lon="6.17322">
        <ele>2009.5999755859</ele>
        <time>2020-12-16T09:32:16.000Z</time>
      </trkpt>
      <trkpt lat="45.30434" lon="6.17318">
        <ele>2010.1999511719</ele>
        <time>2020-12-16T09:32:20.000Z</time>
      </trkpt>
      <trkpt lat="45.30435" lon="6.17317">
        <ele>2010.5999755859</ele>
        <time>2020-12-16T09:32:23.000Z</time>
      </trkpt>
      <trkpt lat="45.30436" lon="6.17315">
        <ele>2011.1999511719</ele>
        <time>2020-12-16T09:32:26.000Z</time>
      </trkpt>
      <trkpt lat="45.30436" lon="6.17313">
        <ele>2011.1999511719</ele>
        <time>2020-12-16T09:32:28.000Z</time>
      </trkpt>
      <trkpt lat="45.30437" lon="6.17311">
        <ele>2011.8000488281</ele>
        <time>2020-12-16T09:32:31.000Z</time>
      </trkpt>
      <trkpt lat="45.30437" lon="6.1731">
        <ele>2012</ele>
        <time>2020-12-16T09:32:32.000Z</time>
      </trkpt>
      <trkpt lat="45.30438" lon="6.17307">
        <ele>2012.4000244141</ele>
        <time>2020-12-16T09:32:35.000Z</time>
      </trkpt>
      <trkpt lat="45.30439" lon="6.17307">
        <ele>2012.5999755859</ele>
        <time>2020-12-16T09:32:38.000Z</time>
      </trkpt>
      <trkpt lat="45.30439" lon="6.17307">
        <ele>2013</ele>
        <time>2020-12-16T09:32:39.000Z</time>
      </trkpt>
      <trkpt lat="45.3044" lon="6.17304">
        <ele>2013.5999755859</ele>
        <time>2020-12-16T09:32:44.000Z</time>
      </trkpt>
      <trkpt lat="45.30441" lon="6.17302">
        <ele>2014</ele>
        <time>2020-12-16T09:32:47.000Z</time>
      </trkpt>
      <trkpt lat="45.30441" lon="6.173">
        <ele>2014.5999755859</ele>
        <time>2020-12-16T09:32:51.000Z</time>
      </trkpt>
      <trkpt lat="45.30442" lon="6.17297">
        <ele>2015</ele>
        <time>2020-12-16T09:32:55.000Z</time>
      </trkpt>
      <trkpt lat="45.30443" lon="6.17296">
        <ele>2015.5999755859</ele>
        <time>2020-12-16T09:32:58.000Z</time>
      </trkpt>
      <trkpt lat="45.30445" lon="6.17292">
        <ele>2016.1999511719</ele>
        <time>2020-12-16T09:33:02.000Z</time>
      </trkpt>
      <trkpt lat="45.30445" lon="6.17291">
        <ele>2016.4000244141</ele>
        <time>2020-12-16T09:33:04.000Z</time>
      </trkpt>
      <trkpt lat="45.30446" lon="6.17289">
        <ele>2016.8000488281</ele>
        <time>2020-12-16T09:33:07.000Z</time>
      </trkpt>
      <trkpt lat="45.30447" lon="6.17288">
        <ele>2017.1999511719</ele>
        <time>2020-12-16T09:33:09.000Z</time>
      </trkpt>
      <trkpt lat="45.30448" lon="6.17285">
        <ele>2018</ele>
        <time>2020-12-16T09:33:15.000Z</time>
      </trkpt>
      <trkpt lat="45.30449" lon="6.17284">
        <ele>2018.1999511719</ele>
        <time>2020-12-16T09:33:16.000Z</time>
      </trkpt>
      <trkpt lat="45.30449" lon="6.17283">
        <ele>2019</ele>
        <time>2020-12-16T09:33:22.000Z</time>
      </trkpt>
      <trkpt lat="45.3045" lon="6.17282">
        <ele>2019.1999511719</ele>
        <time>2020-12-16T09:33:24.000Z</time>
      </trkpt>
      <trkpt lat="45.30451" lon="6.17278">
        <ele>2020.1999511719</ele>
        <time>2020-12-16T09:33:29.000Z</time>
      </trkpt>
      <trkpt lat="45.30452" lon="6.17275">
        <ele>2020.4000244141</ele>
        <time>2020-12-16T09:33:31.000Z</time>
      </trkpt>
      <trkpt lat="45.30452" lon="6.17274">
        <ele>2020.4000244141</ele>
        <time>2020-12-16T09:33:32.000Z</time>
      </trkpt>
      <trkpt lat="45.30453" lon="6.17274">
        <ele>2020.5999755859</ele>
        <time>2020-12-16T09:33:33.000Z</time>
      </trkpt>
      <trkpt lat="45.30454" lon="6.1727">
        <ele>2021.4000244141</ele>
        <time>2020-12-16T09:33:40.000Z</time>
      </trkpt>
      <trkpt lat="45.30455" lon="6.17269">
        <ele>2021.5999755859</ele>
        <time>2020-12-16T09:33:42.000Z</time>
      </trkpt>
      <trkpt lat="45.30456" lon="6.17267">
        <ele>2021.8000488281</ele>
        <time>2020-12-16T09:33:43.000Z</time>
      </trkpt>
      <trkpt lat="45.30457" lon="6.17264">
        <ele>2022.1999511719</ele>
        <time>2020-12-16T09:33:48.000Z</time>
      </trkpt>
      <trkpt lat="45.30458" lon="6.17262">
        <ele>2022.4000244141</ele>
        <time>2020-12-16T09:33:50.000Z</time>
      </trkpt>
      <trkpt lat="45.30459" lon="6.17258">
        <ele>2023</ele>
        <time>2020-12-16T09:33:54.000Z</time>
      </trkpt>
      <trkpt lat="45.30459" lon="6.17256">
        <ele>2023.5999755859</ele>
        <time>2020-12-16T09:33:58.000Z</time>
      </trkpt>
      <trkpt lat="45.3046" lon="6.17254">
        <ele>2024.1999511719</ele>
        <time>2020-12-16T09:34:02.000Z</time>
      </trkpt>
      <trkpt lat="45.30461" lon="6.17253">
        <ele>2024.5999755859</ele>
        <time>2020-12-16T09:34:04.000Z</time>
      </trkpt>
      <trkpt lat="45.30462" lon="6.17249">
        <ele>2025.1999511719</ele>
        <time>2020-12-16T09:34:07.000Z</time>
      </trkpt>
      <trkpt lat="45.30463" lon="6.17246">
        <ele>2025.8000488281</ele>
        <time>2020-12-16T09:34:11.000Z</time>
      </trkpt>
      <trkpt lat="45.30463" lon="6.17246">
        <ele>2026.1999511719</ele>
        <time>2020-12-16T09:34:13.000Z</time>
      </trkpt>
      <trkpt lat="45.30464" lon="6.17243">
        <ele>2026.8000488281</ele>
        <time>2020-12-16T09:34:16.000Z</time>
      </trkpt>
      <trkpt lat="45.30464" lon="6.17243">
        <ele>2027.1999511719</ele>
        <time>2020-12-16T09:34:19.000Z</time>
      </trkpt>
      <trkpt lat="45.30465" lon="6.1724">
        <ele>2027.8000488281</ele>
        <time>2020-12-16T09:34:23.000Z</time>
      </trkpt>
      <trkpt lat="45.30465" lon="6.17239">
        <ele>2028</ele>
        <time>2020-12-16T09:34:24.000Z</time>
      </trkpt>
      <trkpt lat="45.30465" lon="6.17238">
        <ele>2028.1999511719</ele>
        <time>2020-12-16T09:34:25.000Z</time>
      </trkpt>
      <trkpt lat="45.30466" lon="6.17236">
        <ele>2029</ele>
        <time>2020-12-16T09:34:30.000Z</time>
      </trkpt>
      <trkpt lat="45.30466" lon="6.17235">
        <ele>2029</ele>
        <time>2020-12-16T09:34:31.000Z</time>
      </trkpt>
      <trkpt lat="45.30467" lon="6.1723">
        <ele>2030</ele>
        <time>2020-12-16T09:34:37.000Z</time>
      </trkpt>
      <trkpt lat="45.30467" lon="6.17229">
        <ele>2030.1999511719</ele>
        <time>2020-12-16T09:34:38.000Z</time>
      </trkpt>
      <trkpt lat="45.30467" lon="6.17228">
        <ele>2031.1999511719</ele>
        <time>2020-12-16T09:34:42.000Z</time>
      </trkpt>
      <trkpt lat="45.30468" lon="6.17227">
        <ele>2031.4000244141</ele>
        <time>2020-12-16T09:34:44.000Z</time>
      </trkpt>
      <trkpt lat="45.30468" lon="6.17224">
        <ele>2032.1999511719</ele>
        <time>2020-12-16T09:34:49.000Z</time>
      </trkpt>
      <trkpt lat="45.30468" lon="6.17224">
        <ele>2032.4000244141</ele>
        <time>2020-12-16T09:34:50.000Z</time>
      </trkpt>
      <trkpt lat="45.30469" lon="6.1722">
        <ele>2033.4000244141</ele>
        <time>2020-12-16T09:34:56.000Z</time>
      </trkpt>
      <trkpt lat="45.30469" lon="6.17218">
        <ele>2033.8000488281</ele>
        <time>2020-12-16T09:34:58.000Z</time>
      </trkpt>
      <trkpt lat="45.30469" lon="6.17216">
        <ele>2034.1999511719</ele>
        <time>2020-12-16T09:35:01.000Z</time>
      </trkpt>
      <trkpt lat="45.30469" lon="6.17216">
        <ele>2034.4000244141</ele>
        <time>2020-12-16T09:35:02.000Z</time>
      </trkpt>
      <trkpt lat="45.3047" lon="6.17213">
        <ele>2035.4000244141</ele>
        <time>2020-12-16T09:35:06.000Z</time>
      </trkpt>
      <trkpt lat="45.3047" lon="6.17213">
        <ele>2035.5999755859</ele>
        <time>2020-12-16T09:35:07.000Z</time>
      </trkpt>
      <trkpt lat="45.30471" lon="6.17209">
        <ele>2036.4000244141</ele>
        <time>2020-12-16T09:35:11.000Z</time>
      </trkpt>
      <trkpt lat="45.30471" lon="6.17207">
        <ele>2037</ele>
        <time>2020-12-16T09:35:14.000Z</time>
      </trkpt>
      <trkpt lat="45.30472" lon="6.17205">
        <ele>2037.5999755859</ele>
        <time>2020-12-16T09:35:19.000Z</time>
      </trkpt>
      <trkpt lat="45.30472" lon="6.17205">
        <ele>2037.8000488281</ele>
        <time>2020-12-16T09:35:21.000Z</time>
      </trkpt>
      <trkpt lat="45.30472" lon="6.17202">
        <ele>2038.5999755859</ele>
        <time>2020-12-16T09:35:26.000Z</time>
      </trkpt>
      <trkpt lat="45.30472" lon="6.17202">
        <ele>2039</ele>
        <time>2020-12-16T09:35:27.000Z</time>
      </trkpt>
      <trkpt lat="45.30473" lon="6.172">
        <ele>2039.5999755859</ele>
        <time>2020-12-16T09:35:31.000Z</time>
      </trkpt>
      <trkpt lat="45.30473" lon="6.17199">
        <ele>2040</ele>
        <time>2020-12-16T09:35:34.000Z</time>
      </trkpt>
      <trkpt lat="45.30474" lon="6.17196">
        <ele>2040.4000244141</ele>
        <time>2020-12-16T09:35:37.000Z</time>
      </trkpt>
      <trkpt lat="45.30474" lon="6.17194">
        <ele>2040.8000488281</ele>
        <time>2020-12-16T09:35:38.000Z</time>
      </trkpt>
      <trkpt lat="45.30474" lon="6.17194">
        <ele>2041</ele>
        <time>2020-12-16T09:35:39.000Z</time>
      </trkpt>
      <trkpt lat="45.30475" lon="6.17191">
        <ele>2041.8000488281</ele>
        <time>2020-12-16T09:35:44.000Z</time>
      </trkpt>
      <trkpt lat="45.30475" lon="6.1719">
        <ele>2041.8000488281</ele>
        <time>2020-12-16T09:35:45.000Z</time>
      </trkpt>
      <trkpt lat="45.30476" lon="6.17187">
        <ele>2042.8000488281</ele>
        <time>2020-12-16T09:35:51.000Z</time>
      </trkpt>
      <trkpt lat="45.30476" lon="6.17187">
        <ele>2043</ele>
        <time>2020-12-16T09:35:52.000Z</time>
      </trkpt>
      <trkpt lat="45.30478" lon="6.17184">
        <ele>2044</ele>
        <time>2020-12-16T09:35:58.000Z</time>
      </trkpt>
      <trkpt lat="45.30478" lon="6.17184">
        <ele>2044</ele>
        <time>2020-12-16T09:35:59.000Z</time>
      </trkpt>
      <trkpt lat="45.30479" lon="6.1718">
        <ele>2045</ele>
        <time>2020-12-16T09:36:06.000Z</time>
      </trkpt>
      <trkpt lat="45.30479" lon="6.17179">
        <ele>2045.1999511719</ele>
        <time>2020-12-16T09:36:07.000Z</time>
      </trkpt>
      <trkpt lat="45.3048" lon="6.17177">
        <ele>2046</ele>
        <time>2020-12-16T09:36:14.000Z</time>
      </trkpt>
      <trkpt lat="45.30482" lon="6.17173">
        <ele>2046.8000488281</ele>
        <time>2020-12-16T09:36:20.000Z</time>
      </trkpt>
      <trkpt lat="45.30482" lon="6.17171">
        <ele>2047</ele>
        <time>2020-12-16T09:36:22.000Z</time>
      </trkpt>
      <trkpt lat="45.30482" lon="6.17171">
        <ele>2047.5999755859</ele>
        <time>2020-12-16T09:36:26.000Z</time>
      </trkpt>
      <trkpt lat="45.30483" lon="6.17168">
        <ele>2048.1999511719</ele>
        <time>2020-12-16T09:36:30.000Z</time>
      </trkpt>
      <trkpt lat="45.30483" lon="6.17168">
        <ele>2048.3999023438</ele>
        <time>2020-12-16T09:36:31.000Z</time>
      </trkpt>
      <trkpt lat="45.30484" lon="6.17165">
        <ele>2049</ele>
        <time>2020-12-16T09:36:36.000Z</time>
      </trkpt>
      <trkpt lat="45.30483" lon="6.17163">
        <ele>2049.3999023438</ele>
        <time>2020-12-16T09:36:39.000Z</time>
      </trkpt>
      <trkpt lat="45.30484" lon="6.17161">
        <ele>2050</ele>
        <time>2020-12-16T09:36:42.000Z</time>
      </trkpt>
      <trkpt lat="45.30485" lon="6.1716">
        <ele>2050.3999023438</ele>
        <time>2020-12-16T09:36:44.000Z</time>
      </trkpt>
      <trkpt lat="45.30485" lon="6.17157">
        <ele>2051</ele>
        <time>2020-12-16T09:36:48.000Z</time>
      </trkpt>
      <trkpt lat="45.30485" lon="6.17156">
        <ele>2051.3999023438</ele>
        <time>2020-12-16T09:36:51.000Z</time>
      </trkpt>
      <trkpt lat="45.30486" lon="6.17155">
        <ele>2052.1999511719</ele>
        <time>2020-12-16T09:36:54.000Z</time>
      </trkpt>
      <trkpt lat="45.30488" lon="6.17152">
        <ele>2052.6000976562</ele>
        <time>2020-12-16T09:36:57.000Z</time>
      </trkpt>
      <trkpt lat="45.30488" lon="6.17148">
        <ele>2053</ele>
        <time>2020-12-16T09:37:00.000Z</time>
      </trkpt>
      <trkpt lat="45.30488" lon="6.17145">
        <ele>2053.8000488281</ele>
        <time>2020-12-16T09:37:04.000Z</time>
      </trkpt>
      <trkpt lat="45.30488" lon="6.17144">
        <ele>2054.1999511719</ele>
        <time>2020-12-16T09:37:06.000Z</time>
      </trkpt>
      <trkpt lat="45.30489" lon="6.17141">
        <ele>2054.8000488281</ele>
        <time>2020-12-16T09:37:10.000Z</time>
      </trkpt>
      <trkpt lat="45.30489" lon="6.17141">
        <ele>2055</ele>
        <time>2020-12-16T09:37:11.000Z</time>
      </trkpt>
      <trkpt lat="45.3049" lon="6.17139">
        <ele>2055.8000488281</ele>
        <time>2020-12-16T09:37:16.000Z</time>
      </trkpt>
      <trkpt lat="45.3049" lon="6.17139">
        <ele>2056</ele>
        <time>2020-12-16T09:37:17.000Z</time>
      </trkpt>
      <trkpt lat="45.30491" lon="6.17136">
        <ele>2056.8000488281</ele>
        <time>2020-12-16T09:37:23.000Z</time>
      </trkpt>
      <trkpt lat="45.30491" lon="6.17135">
        <ele>2057</ele>
        <time>2020-12-16T09:37:25.000Z</time>
      </trkpt>
      <trkpt lat="45.30493" lon="6.17131">
        <ele>2057.8000488281</ele>
        <time>2020-12-16T09:37:29.000Z</time>
      </trkpt>
      <trkpt lat="45.30493" lon="6.17131">
        <ele>2058</ele>
        <time>2020-12-16T09:37:31.000Z</time>
      </trkpt>
      <trkpt lat="45.30495" lon="6.17128">
        <ele>2059</ele>
        <time>2020-12-16T09:37:36.000Z</time>
      </trkpt>
      <trkpt lat="45.30495" lon="6.17128">
        <ele>2059</ele>
        <time>2020-12-16T09:37:37.000Z</time>
      </trkpt>
      <trkpt lat="45.30497" lon="6.17124">
        <ele>2059.8000488281</ele>
        <time>2020-12-16T09:37:43.000Z</time>
      </trkpt>
      <trkpt lat="45.30498" lon="6.17123">
        <ele>2060.1999511719</ele>
        <time>2020-12-16T09:37:46.000Z</time>
      </trkpt>
      <trkpt lat="45.30498" lon="6.17122">
        <ele>2060.6000976562</ele>
        <time>2020-12-16T09:37:49.000Z</time>
      </trkpt>
      <trkpt lat="45.30498" lon="6.17118">
        <ele>2061.1999511719</ele>
        <time>2020-12-16T09:37:53.000Z</time>
      </trkpt>
      <trkpt lat="45.30499" lon="6.17118">
        <ele>2061.6000976562</ele>
        <time>2020-12-16T09:37:55.000Z</time>
      </trkpt>
      <trkpt lat="45.305" lon="6.17117">
        <ele>2062.3999023438</ele>
        <time>2020-12-16T09:37:59.000Z</time>
      </trkpt>
      <trkpt lat="45.30501" lon="6.17113">
        <ele>2063</ele>
        <time>2020-12-16T09:38:03.000Z</time>
      </trkpt>
      <trkpt lat="45.30501" lon="6.17112">
        <ele>2063.3999023438</ele>
        <time>2020-12-16T09:38:05.000Z</time>
      </trkpt>
      <trkpt lat="45.30501" lon="6.17112">
        <ele>2064.1999511719</ele>
        <time>2020-12-16T09:38:09.000Z</time>
      </trkpt>
      <trkpt lat="45.30501" lon="6.17111">
        <ele>2064.3999023438</ele>
        <time>2020-12-16T09:38:11.000Z</time>
      </trkpt>
      <trkpt lat="45.30502" lon="6.17108">
        <ele>2065</ele>
        <time>2020-12-16T09:38:15.000Z</time>
      </trkpt>
      <trkpt lat="45.30504" lon="6.17102">
        <ele>2065.3999023438</ele>
        <time>2020-12-16T09:38:21.000Z</time>
      </trkpt>
      <trkpt lat="45.30504" lon="6.17101">
        <ele>2065.3999023438</ele>
        <time>2020-12-16T09:38:22.000Z</time>
      </trkpt>
      <trkpt lat="45.30504" lon="6.171">
        <ele>2065.6000976562</ele>
        <time>2020-12-16T09:38:23.000Z</time>
      </trkpt>
      <trkpt lat="45.30505" lon="6.17098">
        <ele>2066</ele>
        <time>2020-12-16T09:38:25.000Z</time>
      </trkpt>
      <trkpt lat="45.30506" lon="6.17096">
        <ele>2066.1999511719</ele>
        <time>2020-12-16T09:38:27.000Z</time>
      </trkpt>
      <trkpt lat="45.30507" lon="6.17094">
        <ele>2066.6000976562</ele>
        <time>2020-12-16T09:38:29.000Z</time>
      </trkpt>
      <trkpt lat="45.30508" lon="6.17094">
        <ele>2066.6000976562</ele>
        <time>2020-12-16T09:38:30.000Z</time>
      </trkpt>
      <trkpt lat="45.30511" lon="6.17092">
        <ele>2067.6000976562</ele>
        <time>2020-12-16T09:38:36.000Z</time>
      </trkpt>
      <trkpt lat="45.30514" lon="6.1709">
        <ele>2068.6000976562</ele>
        <time>2020-12-16T09:38:42.000Z</time>
      </trkpt>
      <trkpt lat="45.30515" lon="6.17089">
        <ele>2068.8000488281</ele>
        <time>2020-12-16T09:38:44.000Z</time>
      </trkpt>
      <trkpt lat="45.30517" lon="6.17087">
        <ele>2069.8000488281</ele>
        <time>2020-12-16T09:38:51.000Z</time>
      </trkpt>
      <trkpt lat="45.30519" lon="6.17087">
        <ele>2070.1999511719</ele>
        <time>2020-12-16T09:38:54.000Z</time>
      </trkpt>
      <trkpt lat="45.30521" lon="6.17086">
        <ele>2070.8000488281</ele>
        <time>2020-12-16T09:38:59.000Z</time>
      </trkpt>
      <trkpt lat="45.30522" lon="6.17087">
        <ele>2071</ele>
        <time>2020-12-16T09:39:02.000Z</time>
      </trkpt>
      <trkpt lat="45.30524" lon="6.17088">
        <ele>2071.8000488281</ele>
        <time>2020-12-16T09:39:06.000Z</time>
      </trkpt>
      <trkpt lat="45.30525" lon="6.17089">
        <ele>2072</ele>
        <time>2020-12-16T09:39:07.000Z</time>
      </trkpt>
      <trkpt lat="45.30526" lon="6.17089">
        <ele>2072.1999511719</ele>
        <time>2020-12-16T09:39:08.000Z</time>
      </trkpt>
      <trkpt lat="45.30529" lon="6.1709">
        <ele>2073</ele>
        <time>2020-12-16T09:39:13.000Z</time>
      </trkpt>
      <trkpt lat="45.3053" lon="6.1709">
        <ele>2073.1999511719</ele>
        <time>2020-12-16T09:39:15.000Z</time>
      </trkpt>
      <trkpt lat="45.30531" lon="6.1709">
        <ele>2074</ele>
        <time>2020-12-16T09:39:21.000Z</time>
      </trkpt>
      <trkpt lat="45.30532" lon="6.17087">
        <ele>2074.8000488281</ele>
        <time>2020-12-16T09:39:29.000Z</time>
      </trkpt>
      <trkpt lat="45.30532" lon="6.17085">
        <ele>2075.1999511719</ele>
        <time>2020-12-16T09:39:32.000Z</time>
      </trkpt>
      <trkpt lat="45.30532" lon="6.17083">
        <ele>2075.6000976562</ele>
        <time>2020-12-16T09:39:35.000Z</time>
      </trkpt>
      <trkpt lat="45.30532" lon="6.17082">
        <ele>2076.1999511719</ele>
        <time>2020-12-16T09:39:38.000Z</time>
      </trkpt>
      <trkpt lat="45.30532" lon="6.17079">
        <ele>2077.3999023438</ele>
        <time>2020-12-16T09:39:43.000Z</time>
      </trkpt>
      <trkpt lat="45.30536" lon="6.17077">
        <ele>2078.3999023438</ele>
        <time>2020-12-16T09:39:49.000Z</time>
      </trkpt>
      <trkpt lat="45.30536" lon="6.17076">
        <ele>2079.3999023438</ele>
        <time>2020-12-16T09:39:53.000Z</time>
      </trkpt>
      <trkpt lat="45.30537" lon="6.17073">
        <ele>2079.6000976562</ele>
        <time>2020-12-16T09:39:55.000Z</time>
      </trkpt>
      <trkpt lat="45.30538" lon="6.17072">
        <ele>2079.8000488281</ele>
        <time>2020-12-16T09:39:56.000Z</time>
      </trkpt>
      <trkpt lat="45.30538" lon="6.17072">
        <ele>2080.6000976562</ele>
        <time>2020-12-16T09:40:00.000Z</time>
      </trkpt>
      <trkpt lat="45.30537" lon="6.1707">
        <ele>2081.6000976562</ele>
        <time>2020-12-16T09:40:05.000Z</time>
      </trkpt>
      <trkpt lat="45.30537" lon="6.1707">
        <ele>2081.8000488281</ele>
        <time>2020-12-16T09:40:06.000Z</time>
      </trkpt>
      <trkpt lat="45.30537" lon="6.17068">
        <ele>2082.6000976562</ele>
        <time>2020-12-16T09:40:11.000Z</time>
      </trkpt>
      <trkpt lat="45.30538" lon="6.17065">
        <ele>2083.8000488281</ele>
        <time>2020-12-16T09:40:17.000Z</time>
      </trkpt>
      <trkpt lat="45.3054" lon="6.17063">
        <ele>2084.6000976562</ele>
        <time>2020-12-16T09:40:22.000Z</time>
      </trkpt>
      <trkpt lat="45.3054" lon="6.17062">
        <ele>2084.8000488281</ele>
        <time>2020-12-16T09:40:24.000Z</time>
      </trkpt>
      <trkpt lat="45.3054" lon="6.17061">
        <ele>2085.3999023438</ele>
        <time>2020-12-16T09:40:28.000Z</time>
      </trkpt>
      <trkpt lat="45.3054" lon="6.17061">
        <ele>2086</ele>
        <time>2020-12-16T09:40:31.000Z</time>
      </trkpt>
      <trkpt lat="45.30541" lon="6.17061">
        <ele>2086.3999023438</ele>
        <time>2020-12-16T09:40:40.000Z</time>
      </trkpt>
      <trkpt lat="45.30542" lon="6.17057">
        <ele>2087.1999511719</ele>
        <time>2020-12-16T09:40:47.000Z</time>
      </trkpt>
      <trkpt lat="45.30542" lon="6.17056">
        <ele>2087.3999023438</ele>
        <time>2020-12-16T09:40:48.000Z</time>
      </trkpt>
      <trkpt lat="45.30542" lon="6.17052">
        <ele>2088.1999511719</ele>
        <time>2020-12-16T09:40:52.000Z</time>
      </trkpt>
      <trkpt lat="45.30542" lon="6.17051">
        <ele>2088.3999023438</ele>
        <time>2020-12-16T09:40:53.000Z</time>
      </trkpt>
      <trkpt lat="45.30543" lon="6.17048">
        <ele>2089.1999511719</ele>
        <time>2020-12-16T09:40:58.000Z</time>
      </trkpt>
      <trkpt lat="45.30543" lon="6.17048">
        <ele>2089.3999023438</ele>
        <time>2020-12-16T09:40:59.000Z</time>
      </trkpt>
      <trkpt lat="45.30544" lon="6.17044">
        <ele>2090.3999023438</ele>
        <time>2020-12-16T09:41:05.000Z</time>
      </trkpt>
      <trkpt lat="45.30544" lon="6.17044">
        <ele>2090.6000976562</ele>
        <time>2020-12-16T09:41:06.000Z</time>
      </trkpt>
      <trkpt lat="45.30544" lon="6.17044">
        <ele>2091.3999023438</ele>
        <time>2020-12-16T09:41:12.000Z</time>
      </trkpt>
      <trkpt lat="45.30544" lon="6.17043">
        <ele>2091.6000976562</ele>
        <time>2020-12-16T09:41:15.000Z</time>
      </trkpt>
      <trkpt lat="45.30546" lon="6.17037">
        <ele>2092</ele>
        <time>2020-12-16T09:41:22.000Z</time>
      </trkpt>
      <trkpt lat="45.30546" lon="6.17037">
        <ele>2092.6000976562</ele>
        <time>2020-12-16T09:41:25.000Z</time>
      </trkpt>
      <trkpt lat="45.30547" lon="6.17035">
        <ele>2093.3999023438</ele>
        <time>2020-12-16T09:41:28.000Z</time>
      </trkpt>
      <trkpt lat="45.30547" lon="6.17034">
        <ele>2093.6000976562</ele>
        <time>2020-12-16T09:41:30.000Z</time>
      </trkpt>
      <trkpt lat="45.30547" lon="6.17034">
        <ele>2094.1999511719</ele>
        <time>2020-12-16T09:41:34.000Z</time>
      </trkpt>
      <trkpt lat="45.30548" lon="6.17033">
        <ele>2094.6000976562</ele>
        <time>2020-12-16T09:41:37.000Z</time>
      </trkpt>
      <trkpt lat="45.30548" lon="6.17031">
        <ele>2095</ele>
        <time>2020-12-16T09:41:40.000Z</time>
      </trkpt>
      <trkpt lat="45.30549" lon="6.1703">
        <ele>2095.1999511719</ele>
        <time>2020-12-16T09:41:41.000Z</time>
      </trkpt>
      <trkpt lat="45.30551" lon="6.17028">
        <ele>2095.6000976562</ele>
        <time>2020-12-16T09:41:45.000Z</time>
      </trkpt>
      <trkpt lat="45.30551" lon="6.17027">
        <ele>2095.8000488281</ele>
        <time>2020-12-16T09:41:46.000Z</time>
      </trkpt>
      <trkpt lat="45.30552" lon="6.17022">
        <ele>2096.8000488281</ele>
        <time>2020-12-16T09:41:52.000Z</time>
      </trkpt>
      <trkpt lat="45.30554" lon="6.17019">
        <ele>2097.6000976562</ele>
        <time>2020-12-16T09:41:59.000Z</time>
      </trkpt>
      <trkpt lat="45.30554" lon="6.17019">
        <ele>2098</ele>
        <time>2020-12-16T09:42:00.000Z</time>
      </trkpt>
      <trkpt lat="45.30555" lon="6.17016">
        <ele>2098.6000976562</ele>
        <time>2020-12-16T09:42:06.000Z</time>
      </trkpt>
      <trkpt lat="45.30556" lon="6.17014">
        <ele>2099</ele>
        <time>2020-12-16T09:42:09.000Z</time>
      </trkpt>
      <trkpt lat="45.30558" lon="6.1701">
        <ele>2099.6000976562</ele>
        <time>2020-12-16T09:42:13.000Z</time>
      </trkpt>
      <trkpt lat="45.30559" lon="6.17008">
        <ele>2100.1999511719</ele>
        <time>2020-12-16T09:42:16.000Z</time>
      </trkpt>
      <trkpt lat="45.3056" lon="6.17008">
        <ele>2100.3999023438</ele>
        <time>2020-12-16T09:42:18.000Z</time>
      </trkpt>
      <trkpt lat="45.30563" lon="6.17006">
        <ele>2101</ele>
        <time>2020-12-16T09:42:22.000Z</time>
      </trkpt>
      <trkpt lat="45.30563" lon="6.17005">
        <ele>2101.1999511719</ele>
        <time>2020-12-16T09:42:23.000Z</time>
      </trkpt>
      <trkpt lat="45.30564" lon="6.17004">
        <ele>2101.3999023438</ele>
        <time>2020-12-16T09:42:24.000Z</time>
      </trkpt>
      <trkpt lat="45.30566" lon="6.17003">
        <ele>2101.8000488281</ele>
        <time>2020-12-16T09:42:26.000Z</time>
      </trkpt>
      <trkpt lat="45.30567" lon="6.17003">
        <ele>2102.1999511719</ele>
        <time>2020-12-16T09:42:29.000Z</time>
      </trkpt>
      <trkpt lat="45.30567" lon="6.17003">
        <ele>2102.3999023438</ele>
        <time>2020-12-16T09:42:31.000Z</time>
      </trkpt>
      <trkpt lat="45.30569" lon="6.17002">
        <ele>2103</ele>
        <time>2020-12-16T09:42:35.000Z</time>
      </trkpt>
      <trkpt lat="45.3057" lon="6.17002">
        <ele>2103.3999023438</ele>
        <time>2020-12-16T09:42:37.000Z</time>
      </trkpt>
      <trkpt lat="45.3057" lon="6.17">
        <ele>2104.3999023438</ele>
        <time>2020-12-16T09:42:41.000Z</time>
      </trkpt>
      <trkpt lat="45.3057" lon="6.16998">
        <ele>2104.3999023438</ele>
        <time>2020-12-16T09:42:42.000Z</time>
      </trkpt>
      <trkpt lat="45.30572" lon="6.16997">
        <ele>2105.6000976562</ele>
        <time>2020-12-16T09:42:48.000Z</time>
      </trkpt>
      <trkpt lat="45.30572" lon="6.16996">
        <ele>2106.1999511719</ele>
        <time>2020-12-16T09:42:56.000Z</time>
      </trkpt>
      <trkpt lat="45.30572" lon="6.16992">
        <ele>2106.6000976562</ele>
        <time>2020-12-16T09:43:01.000Z</time>
      </trkpt>
      <trkpt lat="45.30572" lon="6.16991">
        <ele>2106.8000488281</ele>
        <time>2020-12-16T09:43:02.000Z</time>
      </trkpt>
      <trkpt lat="45.30571" lon="6.16988">
        <ele>2107.3999023438</ele>
        <time>2020-12-16T09:43:04.000Z</time>
      </trkpt>
      <trkpt lat="45.3057" lon="6.16986">
        <ele>2107.8000488281</ele>
        <time>2020-12-16T09:43:06.000Z</time>
      </trkpt>
      <trkpt lat="45.3057" lon="6.16985">
        <ele>2108</ele>
        <time>2020-12-16T09:43:07.000Z</time>
      </trkpt>
      <trkpt lat="45.3057" lon="6.16984">
        <ele>2108.1999511719</ele>
        <time>2020-12-16T09:43:08.000Z</time>
      </trkpt>
      <trkpt lat="45.3057" lon="6.1698">
        <ele>2108.8000488281</ele>
        <time>2020-12-16T09:43:12.000Z</time>
      </trkpt>
      <trkpt lat="45.3057" lon="6.16979">
        <ele>2109</ele>
        <time>2020-12-16T09:43:13.000Z</time>
      </trkpt>
      <trkpt lat="45.30571" lon="6.16976">
        <ele>2110</ele>
        <time>2020-12-16T09:43:18.000Z</time>
      </trkpt>
      <trkpt lat="45.30572" lon="6.16975">
        <ele>2110.1999511719</ele>
        <time>2020-12-16T09:43:19.000Z</time>
      </trkpt>
      <trkpt lat="45.30574" lon="6.16971">
        <ele>2111</ele>
        <time>2020-12-16T09:43:25.000Z</time>
      </trkpt>
      <trkpt lat="45.30576" lon="6.16969">
        <ele>2111.8000488281</ele>
        <time>2020-12-16T09:43:29.000Z</time>
      </trkpt>
      <trkpt lat="45.30577" lon="6.16967">
        <ele>2112</ele>
        <time>2020-12-16T09:43:32.000Z</time>
      </trkpt>
      <trkpt lat="45.30577" lon="6.16967">
        <ele>2113</ele>
        <time>2020-12-16T09:43:39.000Z</time>
      </trkpt>
      <trkpt lat="45.30577" lon="6.16967">
        <ele>2113.1999511719</ele>
        <time>2020-12-16T09:43:40.000Z</time>
      </trkpt>
      <trkpt lat="45.30577" lon="6.16967">
        <ele>2113.3999023438</ele>
        <time>2020-12-16T09:43:49.000Z</time>
      </trkpt>
      <trkpt lat="45.30577" lon="6.16966">
        <ele>2113.1999511719</ele>
        <time>2020-12-16T09:44:01.000Z</time>
      </trkpt>
      <trkpt lat="45.30578" lon="6.16964">
        <ele>2113.1999511719</ele>
        <time>2020-12-16T09:44:07.000Z</time>
      </trkpt>
      <trkpt lat="45.3058" lon="6.1696">
        <ele>2114</ele>
        <time>2020-12-16T09:44:12.000Z</time>
      </trkpt>
      <trkpt lat="45.30581" lon="6.16959">
        <ele>2114.3999023438</ele>
        <time>2020-12-16T09:44:14.000Z</time>
      </trkpt>
      <trkpt lat="45.30581" lon="6.16958">
        <ele>2115.1999511719</ele>
        <time>2020-12-16T09:44:18.000Z</time>
      </trkpt>
      <trkpt lat="45.30581" lon="6.16957">
        <ele>2115.3999023438</ele>
        <time>2020-12-16T09:44:20.000Z</time>
      </trkpt>
      <trkpt lat="45.30581" lon="6.16954">
        <ele>2116</ele>
        <time>2020-12-16T09:44:25.000Z</time>
      </trkpt>
      <trkpt lat="45.30581" lon="6.16953">
        <ele>2116.3999023438</ele>
        <time>2020-12-16T09:44:27.000Z</time>
      </trkpt>
      <trkpt lat="45.30583" lon="6.16952">
        <ele>2117.3999023438</ele>
        <time>2020-12-16T09:44:32.000Z</time>
      </trkpt>
      <trkpt lat="45.30583" lon="6.16952">
        <ele>2117.6000976562</ele>
        <time>2020-12-16T09:44:33.000Z</time>
      </trkpt>
      <trkpt lat="45.30582" lon="6.16946">
        <ele>2118.3999023438</ele>
        <time>2020-12-16T09:44:38.000Z</time>
      </trkpt>
      <trkpt lat="45.30581" lon="6.16945">
        <ele>2118.6000976562</ele>
        <time>2020-12-16T09:44:39.000Z</time>
      </trkpt>
      <trkpt lat="45.30582" lon="6.16942">
        <ele>2119.8000488281</ele>
        <time>2020-12-16T09:44:44.000Z</time>
      </trkpt>
      <trkpt lat="45.30582" lon="6.16938">
        <ele>2120.6000976562</ele>
        <time>2020-12-16T09:44:51.000Z</time>
      </trkpt>
      <trkpt lat="45.30582" lon="6.16938">
        <ele>2120.8000488281</ele>
        <time>2020-12-16T09:44:52.000Z</time>
      </trkpt>
      <trkpt lat="45.30581" lon="6.16935">
        <ele>2121.6000976562</ele>
        <time>2020-12-16T09:44:57.000Z</time>
      </trkpt>
      <trkpt lat="45.30581" lon="6.16935">
        <ele>2121.8000488281</ele>
        <time>2020-12-16T09:44:58.000Z</time>
      </trkpt>
      <trkpt lat="45.30579" lon="6.16929">
        <ele>2123</ele>
        <time>2020-12-16T09:45:05.000Z</time>
      </trkpt>
      <trkpt lat="45.3058" lon="6.16928">
        <ele>2123.8000488281</ele>
        <time>2020-12-16T09:45:10.000Z</time>
      </trkpt>
      <trkpt lat="45.3058" lon="6.16927">
        <ele>2124</ele>
        <time>2020-12-16T09:45:13.000Z</time>
      </trkpt>
      <trkpt lat="45.30579" lon="6.16926">
        <ele>2124.3999023438</ele>
        <time>2020-12-16T09:45:16.000Z</time>
      </trkpt>
      <trkpt lat="45.30579" lon="6.16926">
        <ele>2125.1999511719</ele>
        <time>2020-12-16T09:45:20.000Z</time>
      </trkpt>
      <trkpt lat="45.30579" lon="6.16922">
        <ele>2126.1999511719</ele>
        <time>2020-12-16T09:45:25.000Z</time>
      </trkpt>
      <trkpt lat="45.30579" lon="6.16922">
        <ele>2126.1999511719</ele>
        <time>2020-12-16T09:45:26.000Z</time>
      </trkpt>
      <trkpt lat="45.30581" lon="6.16917">
        <ele>2127.6000976562</ele>
        <time>2020-12-16T09:45:31.000Z</time>
      </trkpt>
      <trkpt lat="45.30582" lon="6.16916">
        <ele>2127.6000976562</ele>
        <time>2020-12-16T09:45:32.000Z</time>
      </trkpt>
      <trkpt lat="45.30582" lon="6.16912">
        <ele>2128.6000976562</ele>
        <time>2020-12-16T09:45:38.000Z</time>
      </trkpt>
      <trkpt lat="45.30582" lon="6.16911">
        <ele>2129</ele>
        <time>2020-12-16T09:45:40.000Z</time>
      </trkpt>
      <trkpt lat="45.30582" lon="6.1691">
        <ele>2129.8000488281</ele>
        <time>2020-12-16T09:45:45.000Z</time>
      </trkpt>
      <trkpt lat="45.30582" lon="6.16904">
        <ele>2130.3999023438</ele>
        <time>2020-12-16T09:45:49.000Z</time>
      </trkpt>
      <trkpt lat="45.30582" lon="6.16903">
        <ele>2130.8000488281</ele>
        <time>2020-12-16T09:45:51.000Z</time>
      </trkpt>
      <trkpt lat="45.30583" lon="6.169">
        <ele>2131.8000488281</ele>
        <time>2020-12-16T09:45:56.000Z</time>
      </trkpt>
      <trkpt lat="45.30582" lon="6.16899">
        <ele>2131.8000488281</ele>
        <time>2020-12-16T09:45:57.000Z</time>
      </trkpt>
      <trkpt lat="45.30581" lon="6.16897">
        <ele>2132.6000976562</ele>
        <time>2020-12-16T09:46:03.000Z</time>
      </trkpt>
      <trkpt lat="45.3058" lon="6.16895">
        <ele>2133</ele>
        <time>2020-12-16T09:46:05.000Z</time>
      </trkpt>
      <trkpt lat="45.3058" lon="6.16894">
        <ele>2133.8000488281</ele>
        <time>2020-12-16T09:46:09.000Z</time>
      </trkpt>
      <trkpt lat="45.3058" lon="6.16893">
        <ele>2134.1999511719</ele>
        <time>2020-12-16T09:46:11.000Z</time>
      </trkpt>
      <trkpt lat="45.3058" lon="6.16892">
        <ele>2134.8000488281</ele>
        <time>2020-12-16T09:46:15.000Z</time>
      </trkpt>
      <trkpt lat="45.30581" lon="6.16891">
        <ele>2135.1999511719</ele>
        <time>2020-12-16T09:46:17.000Z</time>
      </trkpt>
      <trkpt lat="45.30582" lon="6.16891">
        <ele>2135.6000976562</ele>
        <time>2020-12-16T09:46:19.000Z</time>
      </trkpt>
      <trkpt lat="45.30582" lon="6.16887">
        <ele>2136.3999023438</ele>
        <time>2020-12-16T09:46:24.000Z</time>
      </trkpt>
      <trkpt lat="45.30582" lon="6.16886">
        <ele>2136.6000976562</ele>
        <time>2020-12-16T09:46:25.000Z</time>
      </trkpt>
      <trkpt lat="45.30582" lon="6.16882">
        <ele>2137.3999023438</ele>
        <time>2020-12-16T09:46:30.000Z</time>
      </trkpt>
      <trkpt lat="45.30581" lon="6.1688">
        <ele>2137.8000488281</ele>
        <time>2020-12-16T09:46:32.000Z</time>
      </trkpt>
      <trkpt lat="45.30579" lon="6.16876">
        <ele>2138.6000976562</ele>
        <time>2020-12-16T09:46:37.000Z</time>
      </trkpt>
      <trkpt lat="45.30578" lon="6.16875">
        <ele>2138.8000488281</ele>
        <time>2020-12-16T09:46:38.000Z</time>
      </trkpt>
      <trkpt lat="45.30579" lon="6.16871">
        <ele>2139.3999023438</ele>
        <time>2020-12-16T09:46:42.000Z</time>
      </trkpt>
      <trkpt lat="45.30579" lon="6.16872">
        <ele>2139.6000976562</ele>
        <time>2020-12-16T09:46:43.000Z</time>
      </trkpt>
      <trkpt lat="45.30579" lon="6.16869">
        <ele>2140.6000976562</ele>
        <time>2020-12-16T09:46:50.000Z</time>
      </trkpt>
      <trkpt lat="45.30579" lon="6.16869">
        <ele>2140.8000488281</ele>
        <time>2020-12-16T09:46:51.000Z</time>
      </trkpt>
      <trkpt lat="45.3058" lon="6.16867">
        <ele>2141.3999023438</ele>
        <time>2020-12-16T09:46:56.000Z</time>
      </trkpt>
      <trkpt lat="45.3058" lon="6.16867">
        <ele>2141.8000488281</ele>
        <time>2020-12-16T09:46:58.000Z</time>
      </trkpt>
      <trkpt lat="45.30581" lon="6.16865">
        <ele>2142.1999511719</ele>
        <time>2020-12-16T09:47:01.000Z</time>
      </trkpt>
      <trkpt lat="45.30579" lon="6.16861">
        <ele>2143</ele>
        <time>2020-12-16T09:47:05.000Z</time>
      </trkpt>
      <trkpt lat="45.30579" lon="6.1686">
        <ele>2143.1999511719</ele>
        <time>2020-12-16T09:47:07.000Z</time>
      </trkpt>
      <trkpt lat="45.30577" lon="6.16859">
        <ele>2144</ele>
        <time>2020-12-16T09:47:12.000Z</time>
      </trkpt>
      <trkpt lat="45.30577" lon="6.16859">
        <ele>2145.1999511719</ele>
        <time>2020-12-16T09:47:18.000Z</time>
      </trkpt>
      <trkpt lat="45.30577" lon="6.16859">
        <ele>2145.1999511719</ele>
        <time>2020-12-16T09:47:19.000Z</time>
      </trkpt>
      <trkpt lat="45.30576" lon="6.16855">
        <ele>2145.8000488281</ele>
        <time>2020-12-16T09:47:27.000Z</time>
      </trkpt>
      <trkpt lat="45.30576" lon="6.16854">
        <ele>2146.1999511719</ele>
        <time>2020-12-16T09:47:28.000Z</time>
      </trkpt>
      <trkpt lat="45.30577" lon="6.16852">
        <ele>2147.1999511719</ele>
        <time>2020-12-16T09:47:34.000Z</time>
      </trkpt>
      <trkpt lat="45.30577" lon="6.16849">
        <ele>2148.3999023438</ele>
        <time>2020-12-16T09:47:40.000Z</time>
      </trkpt>
      <trkpt lat="45.30577" lon="6.16843">
        <ele>2149.1999511719</ele>
        <time>2020-12-16T09:47:46.000Z</time>
      </trkpt>
      <trkpt lat="45.30577" lon="6.16843">
        <ele>2149.3999023438</ele>
        <time>2020-12-16T09:47:47.000Z</time>
      </trkpt>
      <trkpt lat="45.30577" lon="6.16842">
        <ele>2150.6000976562</ele>
        <time>2020-12-16T09:47:52.000Z</time>
      </trkpt>
      <trkpt lat="45.30577" lon="6.16842">
        <ele>2150.6000976562</ele>
        <time>2020-12-16T09:47:53.000Z</time>
      </trkpt>
      <trkpt lat="45.30576" lon="6.16842">
        <ele>2151.6000976562</ele>
        <time>2020-12-16T09:47:59.000Z</time>
      </trkpt>
      <trkpt lat="45.30576" lon="6.16842">
        <ele>2151.6000976562</ele>
        <time>2020-12-16T09:48:00.000Z</time>
      </trkpt>
      <trkpt lat="45.30576" lon="6.16843">
        <ele>2152.6000976562</ele>
        <time>2020-12-16T09:48:06.000Z</time>
      </trkpt>
      <trkpt lat="45.30576" lon="6.16843">
        <ele>2152.8000488281</ele>
        <time>2020-12-16T09:48:07.000Z</time>
      </trkpt>
      <trkpt lat="45.30574" lon="6.16842">
        <ele>2153.6000976562</ele>
        <time>2020-12-16T09:48:13.000Z</time>
      </trkpt>
      <trkpt lat="45.30573" lon="6.16842">
        <ele>2153.8000488281</ele>
        <time>2020-12-16T09:48:14.000Z</time>
      </trkpt>
      <trkpt lat="45.30573" lon="6.16842">
        <ele>2154.6000976562</ele>
        <time>2020-12-16T09:48:20.000Z</time>
      </trkpt>
      <trkpt lat="45.30573" lon="6.16842">
        <ele>2154.8000488281</ele>
        <time>2020-12-16T09:48:21.000Z</time>
      </trkpt>
      <trkpt lat="45.30573" lon="6.16839">
        <ele>2155.6000976562</ele>
        <time>2020-12-16T09:48:27.000Z</time>
      </trkpt>
      <trkpt lat="45.30574" lon="6.16837">
        <ele>2155.8000488281</ele>
        <time>2020-12-16T09:48:29.000Z</time>
      </trkpt>
      <trkpt lat="45.30575" lon="6.16834">
        <ele>2156.8000488281</ele>
        <time>2020-12-16T09:48:34.000Z</time>
      </trkpt>
      <trkpt lat="45.30575" lon="6.16833">
        <ele>2157</ele>
        <time>2020-12-16T09:48:35.000Z</time>
      </trkpt>
      <trkpt lat="45.30574" lon="6.16829">
        <ele>2158.1999511719</ele>
        <time>2020-12-16T09:48:41.000Z</time>
      </trkpt>
      <trkpt lat="45.30575" lon="6.16828">
        <ele>2159</ele>
        <time>2020-12-16T09:48:49.000Z</time>
      </trkpt>
      <trkpt lat="45.30574" lon="6.16828">
        <ele>2159.1999511719</ele>
        <time>2020-12-16T09:48:52.000Z</time>
      </trkpt>
      <trkpt lat="45.30574" lon="6.16828">
        <ele>2159.3999023438</ele>
        <time>2020-12-16T09:48:56.000Z</time>
      </trkpt>
      <trkpt lat="45.30572" lon="6.16827">
        <ele>2160.1999511719</ele>
        <time>2020-12-16T09:49:03.000Z</time>
      </trkpt>
      <trkpt lat="45.30572" lon="6.16826">
        <ele>2160.6000976562</ele>
        <time>2020-12-16T09:49:04.000Z</time>
      </trkpt>
      <trkpt lat="45.30571" lon="6.16825">
        <ele>2161.1999511719</ele>
        <time>2020-12-16T09:49:09.000Z</time>
      </trkpt>
      <trkpt lat="45.30569" lon="6.16823">
        <ele>2162.1999511719</ele>
        <time>2020-12-16T09:49:14.000Z</time>
      </trkpt>
      <trkpt lat="45.30567" lon="6.16823">
        <ele>2163.1999511719</ele>
        <time>2020-12-16T09:49:20.000Z</time>
      </trkpt>
      <trkpt lat="45.30567" lon="6.16823">
        <ele>2163.3999023438</ele>
        <time>2020-12-16T09:49:21.000Z</time>
      </trkpt>
      <trkpt lat="45.30567" lon="6.16822">
        <ele>2164</ele>
        <time>2020-12-16T09:49:29.000Z</time>
      </trkpt>
      <trkpt lat="45.30566" lon="6.16822">
        <ele>2164.3999023438</ele>
        <time>2020-12-16T09:49:33.000Z</time>
      </trkpt>
      <trkpt lat="45.30566" lon="6.16822">
        <ele>2165</ele>
        <time>2020-12-16T09:49:36.000Z</time>
      </trkpt>
      <trkpt lat="45.30566" lon="6.16822">
        <ele>2165.3999023438</ele>
        <time>2020-12-16T09:49:39.000Z</time>
      </trkpt>
      <trkpt lat="45.30566" lon="6.16822">
        <ele>2166</ele>
        <time>2020-12-16T09:49:45.000Z</time>
      </trkpt>
      <trkpt lat="45.30565" lon="6.1682">
        <ele>2166.3999023438</ele>
        <time>2020-12-16T09:49:53.000Z</time>
      </trkpt>
      <trkpt lat="45.30565" lon="6.16819">
        <ele>2166.6000976562</ele>
        <time>2020-12-16T09:49:54.000Z</time>
      </trkpt>
      <trkpt lat="45.30568" lon="6.16813">
        <ele>2167.3999023438</ele>
        <time>2020-12-16T09:50:00.000Z</time>
      </trkpt>
      <trkpt lat="45.30568" lon="6.16813">
        <ele>2167.3999023438</ele>
        <time>2020-12-16T09:50:01.000Z</time>
      </trkpt>
      <trkpt lat="45.30568" lon="6.16813">
        <ele>2167.6000976562</ele>
        <time>2020-12-16T09:50:02.000Z</time>
      </trkpt>
      <trkpt lat="45.30569" lon="6.1681">
        <ele>2168.1999511719</ele>
        <time>2020-12-16T09:50:05.000Z</time>
      </trkpt>
      <trkpt lat="45.3057" lon="6.1681">
        <ele>2168.8000488281</ele>
        <time>2020-12-16T09:50:08.000Z</time>
      </trkpt>
      <trkpt lat="45.30571" lon="6.16806">
        <ele>2169.3999023438</ele>
        <time>2020-12-16T09:50:12.000Z</time>
      </trkpt>
      <trkpt lat="45.30571" lon="6.16805">
        <ele>2169.8000488281</ele>
        <time>2020-12-16T09:50:15.000Z</time>
      </trkpt>
      <trkpt lat="45.30573" lon="6.16804">
        <ele>2170.3999023438</ele>
        <time>2020-12-16T09:50:18.000Z</time>
      </trkpt>
      <trkpt lat="45.30574" lon="6.16802">
        <ele>2171</ele>
        <time>2020-12-16T09:50:22.000Z</time>
      </trkpt>
      <trkpt lat="45.30575" lon="6.16801">
        <ele>2171.3999023438</ele>
        <time>2020-12-16T09:50:25.000Z</time>
      </trkpt>
      <trkpt lat="45.30576" lon="6.16799">
        <ele>2172</ele>
        <time>2020-12-16T09:50:29.000Z</time>
      </trkpt>
      <trkpt lat="45.30578" lon="6.16799">
        <ele>2172.3999023438</ele>
        <time>2020-12-16T09:50:31.000Z</time>
      </trkpt>
      <trkpt lat="45.30577" lon="6.16799">
        <ele>2172.6000976562</ele>
        <time>2020-12-16T09:50:32.000Z</time>
      </trkpt>
      <trkpt lat="45.30577" lon="6.16799">
        <ele>2173</ele>
        <time>2020-12-16T09:50:36.000Z</time>
      </trkpt>
      <trkpt lat="45.30577" lon="6.16799">
        <ele>2173.3999023438</ele>
        <time>2020-12-16T09:50:40.000Z</time>
      </trkpt>
      <trkpt lat="45.30577" lon="6.16799">
        <ele>2174.1999511719</ele>
        <time>2020-12-16T09:50:45.000Z</time>
      </trkpt>
      <trkpt lat="45.30577" lon="6.16799">
        <ele>2174.6000976562</ele>
        <time>2020-12-16T09:50:47.000Z</time>
      </trkpt>
      <trkpt lat="45.30578" lon="6.16798">
        <ele>2175</ele>
        <time>2020-12-16T09:50:49.000Z</time>
      </trkpt>
      <trkpt lat="45.30579" lon="6.16797">
        <ele>2175.1999511719</ele>
        <time>2020-12-16T09:50:51.000Z</time>
      </trkpt>
      <trkpt lat="45.30577" lon="6.16791">
        <ele>2175.6000976562</ele>
        <time>2020-12-16T09:50:54.000Z</time>
      </trkpt>
      <trkpt lat="45.30577" lon="6.16786">
        <ele>2176.1999511719</ele>
        <time>2020-12-16T09:50:58.000Z</time>
      </trkpt>
      <trkpt lat="45.30577" lon="6.16784">
        <ele>2176.8000488281</ele>
        <time>2020-12-16T09:51:01.000Z</time>
      </trkpt>
      <trkpt lat="45.30575" lon="6.1678">
        <ele>2177.3999023438</ele>
        <time>2020-12-16T09:51:05.000Z</time>
      </trkpt>
      <trkpt lat="45.30577" lon="6.16776">
        <ele>2177.8000488281</ele>
        <time>2020-12-16T09:51:09.000Z</time>
      </trkpt>
      <trkpt lat="45.30579" lon="6.16775">
        <ele>2178.3999023438</ele>
        <time>2020-12-16T09:51:13.000Z</time>
      </trkpt>
      <trkpt lat="45.30582" lon="6.16772">
        <ele>2179</ele>
        <time>2020-12-16T09:51:17.000Z</time>
      </trkpt>
      <trkpt lat="45.30585" lon="6.16771">
        <ele>2179.3999023438</ele>
        <time>2020-12-16T09:51:20.000Z</time>
      </trkpt>
      <trkpt lat="45.30585" lon="6.16767">
        <ele>2180.1999511719</ele>
        <time>2020-12-16T09:51:25.000Z</time>
      </trkpt>
      <trkpt lat="45.30584" lon="6.16765">
        <ele>2180.3999023438</ele>
        <time>2020-12-16T09:51:27.000Z</time>
      </trkpt>
      <trkpt lat="45.30585" lon="6.16761">
        <ele>2181.3999023438</ele>
        <time>2020-12-16T09:51:32.000Z</time>
      </trkpt>
      <trkpt lat="45.30585" lon="6.1676">
        <ele>2181.6000976562</ele>
        <time>2020-12-16T09:51:33.000Z</time>
      </trkpt>
      <trkpt lat="45.30584" lon="6.16754">
        <ele>2182.6000976562</ele>
        <time>2020-12-16T09:51:39.000Z</time>
      </trkpt>
      <trkpt lat="45.30586" lon="6.16752">
        <ele>2183</ele>
        <time>2020-12-16T09:51:41.000Z</time>
      </trkpt>
      <trkpt lat="45.30587" lon="6.16749">
        <ele>2183.3999023438</ele>
        <time>2020-12-16T09:51:48.000Z</time>
      </trkpt>
      <trkpt lat="45.30588" lon="6.16748">
        <ele>2183.8000488281</ele>
        <time>2020-12-16T09:51:50.000Z</time>
      </trkpt>
      <trkpt lat="45.3059" lon="6.16747">
        <ele>2184.8000488281</ele>
        <time>2020-12-16T09:51:54.000Z</time>
      </trkpt>
      <trkpt lat="45.3059" lon="6.16746">
        <ele>2184.8000488281</ele>
        <time>2020-12-16T09:51:55.000Z</time>
      </trkpt>
      <trkpt lat="45.30595" lon="6.16741">
        <ele>2185.6000976562</ele>
        <time>2020-12-16T09:52:01.000Z</time>
      </trkpt>
      <trkpt lat="45.30594" lon="6.16739">
        <ele>2185.8000488281</ele>
        <time>2020-12-16T09:52:03.000Z</time>
      </trkpt>
      <trkpt lat="45.30596" lon="6.16736">
        <ele>2186.8000488281</ele>
        <time>2020-12-16T09:52:08.000Z</time>
      </trkpt>
      <trkpt lat="45.30596" lon="6.16735">
        <ele>2187</ele>
        <time>2020-12-16T09:52:10.000Z</time>
      </trkpt>
      <trkpt lat="45.30597" lon="6.16732">
        <ele>2187.6000976562</ele>
        <time>2020-12-16T09:52:14.000Z</time>
      </trkpt>
      <trkpt lat="45.30598" lon="6.16732">
        <ele>2188.1999511719</ele>
        <time>2020-12-16T09:52:17.000Z</time>
      </trkpt>
      <trkpt lat="45.30596" lon="6.16729">
        <ele>2189</ele>
        <time>2020-12-16T09:52:21.000Z</time>
      </trkpt>
      <trkpt lat="45.30597" lon="6.16729">
        <ele>2189.3999023438</ele>
        <time>2020-12-16T09:52:23.000Z</time>
      </trkpt>
      <trkpt lat="45.30597" lon="6.16727">
        <ele>2190</ele>
        <time>2020-12-16T09:52:28.000Z</time>
      </trkpt>
      <trkpt lat="45.30597" lon="6.16725">
        <ele>2190.3999023438</ele>
        <time>2020-12-16T09:52:31.000Z</time>
      </trkpt>
      <trkpt lat="45.30598" lon="6.16721">
        <ele>2191.1999511719</ele>
        <time>2020-12-16T09:52:35.000Z</time>
      </trkpt>
      <trkpt lat="45.30598" lon="6.16719">
        <ele>2191.6000976562</ele>
        <time>2020-12-16T09:52:37.000Z</time>
      </trkpt>
      <trkpt lat="45.30601" lon="6.16716">
        <ele>2192.6000976562</ele>
        <time>2020-12-16T09:52:42.000Z</time>
      </trkpt>
      <trkpt lat="45.30604" lon="6.1671">
        <ele>2193.8000488281</ele>
        <time>2020-12-16T09:52:50.000Z</time>
      </trkpt>
      <trkpt lat="45.30604" lon="6.16706">
        <ele>2194.8000488281</ele>
        <time>2020-12-16T09:52:57.000Z</time>
      </trkpt>
      <trkpt lat="45.30604" lon="6.16705">
        <ele>2194.8000488281</ele>
        <time>2020-12-16T09:52:58.000Z</time>
      </trkpt>
      <trkpt lat="45.30602" lon="6.16701">
        <ele>2195.6000976562</ele>
        <time>2020-12-16T09:53:03.000Z</time>
      </trkpt>
      <trkpt lat="45.30602" lon="6.167">
        <ele>2196</ele>
        <time>2020-12-16T09:53:05.000Z</time>
      </trkpt>
      <trkpt lat="45.30606" lon="6.16697">
        <ele>2197</ele>
        <time>2020-12-16T09:53:12.000Z</time>
      </trkpt>
      <trkpt lat="45.30606" lon="6.16697">
        <ele>2197.1999511719</ele>
        <time>2020-12-16T09:53:13.000Z</time>
      </trkpt>
      <trkpt lat="45.30607" lon="6.16692">
        <ele>2198.1999511719</ele>
        <time>2020-12-16T09:53:20.000Z</time>
      </trkpt>
      <trkpt lat="45.30607" lon="6.16691">
        <ele>2198.1999511719</ele>
        <time>2020-12-16T09:53:21.000Z</time>
      </trkpt>
      <trkpt lat="45.30609" lon="6.16687">
        <ele>2199</ele>
        <time>2020-12-16T09:53:27.000Z</time>
      </trkpt>
      <trkpt lat="45.30609" lon="6.16687">
        <ele>2199.1999511719</ele>
        <time>2020-12-16T09:53:28.000Z</time>
      </trkpt>
      <trkpt lat="45.30609" lon="6.16682">
        <ele>2200.1999511719</ele>
        <time>2020-12-16T09:53:34.000Z</time>
      </trkpt>
      <trkpt lat="45.30611" lon="6.1668">
        <ele>2201.3999023438</ele>
        <time>2020-12-16T09:53:41.000Z</time>
      </trkpt>
      <trkpt lat="45.30615" lon="6.16678">
        <ele>2202.6000976562</ele>
        <time>2020-12-16T09:53:47.000Z</time>
      </trkpt>
      <trkpt lat="45.30615" lon="6.16678">
        <ele>2203.3999023438</ele>
        <time>2020-12-16T09:53:56.000Z</time>
      </trkpt>
      <trkpt lat="45.30615" lon="6.16678">
        <ele>2203.3999023438</ele>
        <time>2020-12-16T09:54:12.000Z</time>
      </trkpt>
      <trkpt lat="45.30615" lon="6.16678">
        <ele>2203.3999023438</ele>
        <time>2020-12-16T09:54:25.000Z</time>
      </trkpt>
      <trkpt lat="45.30616" lon="6.16675">
        <ele>2203.6000976562</ele>
        <time>2020-12-16T09:54:28.000Z</time>
      </trkpt>
      <trkpt lat="45.30617" lon="6.16672">
        <ele>2204.1999511719</ele>
        <time>2020-12-16T09:54:31.000Z</time>
      </trkpt>
      <trkpt lat="45.30617" lon="6.16672">
        <ele>2204.8000488281</ele>
        <time>2020-12-16T09:54:35.000Z</time>
      </trkpt>
      <trkpt lat="45.30617" lon="6.16672">
        <ele>2205.1999511719</ele>
        <time>2020-12-16T09:54:42.000Z</time>
      </trkpt>
      <trkpt lat="45.3062" lon="6.1667">
        <ele>2205.3999023438</ele>
        <time>2020-12-16T09:54:49.000Z</time>
      </trkpt>
      <trkpt lat="45.30621" lon="6.16666">
        <ele>2205.8000488281</ele>
        <time>2020-12-16T09:54:53.000Z</time>
      </trkpt>
      <trkpt lat="45.30621" lon="6.16664">
        <ele>2206.1999511719</ele>
        <time>2020-12-16T09:54:56.000Z</time>
      </trkpt>
      <trkpt lat="45.30625" lon="6.1666">
        <ele>2206.8000488281</ele>
        <time>2020-12-16T09:55:01.000Z</time>
      </trkpt>
      <trkpt lat="45.30623" lon="6.16656">
        <ele>2207</ele>
        <time>2020-12-16T09:55:03.000Z</time>
      </trkpt>
      <trkpt lat="45.30623" lon="6.16654">
        <ele>2208</ele>
        <time>2020-12-16T09:55:08.000Z</time>
      </trkpt>
      <trkpt lat="45.30623" lon="6.16654">
        <ele>2208.6000976562</ele>
        <time>2020-12-16T09:55:11.000Z</time>
      </trkpt>
      <trkpt lat="45.30626" lon="6.16652">
        <ele>2209</ele>
        <time>2020-12-16T09:55:14.000Z</time>
      </trkpt>
      <trkpt lat="45.30627" lon="6.16649">
        <ele>2209.6000976562</ele>
        <time>2020-12-16T09:55:18.000Z</time>
      </trkpt>
      <trkpt lat="45.30629" lon="6.16645">
        <ele>2210.1999511719</ele>
        <time>2020-12-16T09:55:22.000Z</time>
      </trkpt>
      <trkpt lat="45.30631" lon="6.16644">
        <ele>2210.6000976562</ele>
        <time>2020-12-16T09:55:26.000Z</time>
      </trkpt>
      <trkpt lat="45.30635" lon="6.1664">
        <ele>2211.3999023438</ele>
        <time>2020-12-16T09:55:31.000Z</time>
      </trkpt>
      <trkpt lat="45.30637" lon="6.16637">
        <ele>2212</ele>
        <time>2020-12-16T09:55:35.000Z</time>
      </trkpt>
      <trkpt lat="45.30644" lon="6.16633">
        <ele>2212.1999511719</ele>
        <time>2020-12-16T09:55:43.000Z</time>
      </trkpt>
      <trkpt lat="45.30645" lon="6.16627">
        <ele>2212.3999023438</ele>
        <time>2020-12-16T09:55:48.000Z</time>
      </trkpt>
      <trkpt lat="45.30646" lon="6.16625">
        <ele>2212.6000976562</ele>
        <time>2020-12-16T09:55:50.000Z</time>
      </trkpt>
      <trkpt lat="45.30645" lon="6.16614">
        <ele>2213.3999023438</ele>
        <time>2020-12-16T09:55:58.000Z</time>
      </trkpt>
      <trkpt lat="45.30649" lon="6.16607">
        <ele>2213.6000976562</ele>
        <time>2020-12-16T09:56:05.000Z</time>
      </trkpt>
      <trkpt lat="45.3065" lon="6.16599">
        <ele>2214.1999511719</ele>
        <time>2020-12-16T09:56:13.000Z</time>
      </trkpt>
      <trkpt lat="45.3065" lon="6.16598">
        <ele>2214.6000976562</ele>
        <time>2020-12-16T09:56:15.000Z</time>
      </trkpt>
      <trkpt lat="45.3065" lon="6.16591">
        <ele>2215.6000976562</ele>
        <time>2020-12-16T09:56:21.000Z</time>
      </trkpt>
      <trkpt lat="45.3065" lon="6.1659">
        <ele>2215.8000488281</ele>
        <time>2020-12-16T09:56:22.000Z</time>
      </trkpt>
      <trkpt lat="45.30658" lon="6.16585">
        <ele>2216.8000488281</ele>
        <time>2020-12-16T09:56:30.000Z</time>
      </trkpt>
      <trkpt lat="45.3066" lon="6.16584">
        <ele>2217.6000976562</ele>
        <time>2020-12-16T09:56:38.000Z</time>
      </trkpt>
      <trkpt lat="45.3066" lon="6.16584">
        <ele>2217.6000976562</ele>
        <time>2020-12-16T09:56:48.000Z</time>
      </trkpt>
      <trkpt lat="45.30662" lon="6.16579">
        <ele>2217.8000488281</ele>
        <time>2020-12-16T09:56:53.000Z</time>
      </trkpt>
      <trkpt lat="45.30665" lon="6.16573">
        <ele>2219</ele>
        <time>2020-12-16T09:57:00.000Z</time>
      </trkpt>
      <trkpt lat="45.30666" lon="6.16571">
        <ele>2219.1999511719</ele>
        <time>2020-12-16T09:57:02.000Z</time>
      </trkpt>
      <trkpt lat="45.30666" lon="6.16567">
        <ele>2220</ele>
        <time>2020-12-16T09:57:06.000Z</time>
      </trkpt>
      <trkpt lat="45.30669" lon="6.16565">
        <ele>2220.8000488281</ele>
        <time>2020-12-16T09:57:10.000Z</time>
      </trkpt>
      <trkpt lat="45.3067" lon="6.16564">
        <ele>2221.1999511719</ele>
        <time>2020-12-16T09:57:12.000Z</time>
      </trkpt>
      <trkpt lat="45.30671" lon="6.16561">
        <ele>2222</ele>
        <time>2020-12-16T09:57:18.000Z</time>
      </trkpt>
      <trkpt lat="45.30672" lon="6.16559">
        <ele>2222.1999511719</ele>
        <time>2020-12-16T09:57:20.000Z</time>
      </trkpt>
      <trkpt lat="45.30676" lon="6.16554">
        <ele>2223.1999511719</ele>
        <time>2020-12-16T09:57:28.000Z</time>
      </trkpt>
      <trkpt lat="45.30681" lon="6.16551">
        <ele>2224.3999023438</ele>
        <time>2020-12-16T09:57:34.000Z</time>
      </trkpt>
      <trkpt lat="45.30682" lon="6.16549">
        <ele>2224.8000488281</ele>
        <time>2020-12-16T09:57:36.000Z</time>
      </trkpt>
      <trkpt lat="45.30686" lon="6.16548">
        <ele>2225.6000976562</ele>
        <time>2020-12-16T09:57:41.000Z</time>
      </trkpt>
      <trkpt lat="45.30686" lon="6.16549">
        <ele>2226</ele>
        <time>2020-12-16T09:57:44.000Z</time>
      </trkpt>
      <trkpt lat="45.30686" lon="6.16547">
        <ele>2226.6000976562</ele>
        <time>2020-12-16T09:57:48.000Z</time>
      </trkpt>
      <trkpt lat="45.30687" lon="6.16547">
        <ele>2227</ele>
        <time>2020-12-16T09:57:51.000Z</time>
      </trkpt>
      <trkpt lat="45.30688" lon="6.16545">
        <ele>2227.6000976562</ele>
        <time>2020-12-16T09:57:53.000Z</time>
      </trkpt>
      <trkpt lat="45.3069" lon="6.1654">
        <ele>2228.1999511719</ele>
        <time>2020-12-16T09:57:58.000Z</time>
      </trkpt>
      <trkpt lat="45.3069" lon="6.16536">
        <ele>2228.6000976562</ele>
        <time>2020-12-16T09:58:01.000Z</time>
      </trkpt>
      <trkpt lat="45.30692" lon="6.16531">
        <ele>2229.6000976562</ele>
        <time>2020-12-16T09:58:08.000Z</time>
      </trkpt>
      <trkpt lat="45.30692" lon="6.1653">
        <ele>2229.8000488281</ele>
        <time>2020-12-16T09:58:09.000Z</time>
      </trkpt>
      <trkpt lat="45.30694" lon="6.16528">
        <ele>2231</ele>
        <time>2020-12-16T09:58:17.000Z</time>
      </trkpt>
      <trkpt lat="45.30696" lon="6.16524">
        <ele>2232.1999511719</ele>
        <time>2020-12-16T09:58:23.000Z</time>
      </trkpt>
      <trkpt lat="45.30697" lon="6.16523">
        <ele>2232.1999511719</ele>
        <time>2020-12-16T09:58:24.000Z</time>
      </trkpt>
      <trkpt lat="45.30701" lon="6.16516">
        <ele>2233.1999511719</ele>
        <time>2020-12-16T09:58:32.000Z</time>
      </trkpt>
      <trkpt lat="45.30703" lon="6.16512">
        <ele>2234.3999023438</ele>
        <time>2020-12-16T09:58:38.000Z</time>
      </trkpt>
      <trkpt lat="45.30703" lon="6.16511">
        <ele>2234.6000976562</ele>
        <time>2020-12-16T09:58:40.000Z</time>
      </trkpt>
      <trkpt lat="45.30704" lon="6.16509">
        <ele>2235.3999023438</ele>
        <time>2020-12-16T09:58:45.000Z</time>
      </trkpt>
      <trkpt lat="45.30704" lon="6.16508">
        <ele>2235.8000488281</ele>
        <time>2020-12-16T09:58:48.000Z</time>
      </trkpt>
      <trkpt lat="45.30705" lon="6.16507">
        <ele>2236.3999023438</ele>
        <time>2020-12-16T09:58:51.000Z</time>
      </trkpt>
      <trkpt lat="45.30705" lon="6.16506">
        <ele>2237.3999023438</ele>
        <time>2020-12-16T09:58:57.000Z</time>
      </trkpt>
      <trkpt lat="45.30706" lon="6.16502">
        <ele>2238.6000976562</ele>
        <time>2020-12-16T09:59:03.000Z</time>
      </trkpt>
      <trkpt lat="45.30709" lon="6.16497">
        <ele>2239.6000976562</ele>
        <time>2020-12-16T09:59:08.000Z</time>
      </trkpt>
      <trkpt lat="45.3071" lon="6.16495">
        <ele>2239.8000488281</ele>
        <time>2020-12-16T09:59:10.000Z</time>
      </trkpt>
      <trkpt lat="45.30711" lon="6.16491">
        <ele>2240.6000976562</ele>
        <time>2020-12-16T09:59:15.000Z</time>
      </trkpt>
      <trkpt lat="45.30711" lon="6.1649">
        <ele>2240.8000488281</ele>
        <time>2020-12-16T09:59:16.000Z</time>
      </trkpt>
      <trkpt lat="45.30713" lon="6.16488">
        <ele>2241.8000488281</ele>
        <time>2020-12-16T09:59:22.000Z</time>
      </trkpt>
      <trkpt lat="45.30715" lon="6.16487">
        <ele>2242.1999511719</ele>
        <time>2020-12-16T09:59:25.000Z</time>
      </trkpt>
      <trkpt lat="45.30719" lon="6.16487">
        <ele>2243</ele>
        <time>2020-12-16T09:59:29.000Z</time>
      </trkpt>
      <trkpt lat="45.3072" lon="6.16487">
        <ele>2243.3999023438</ele>
        <time>2020-12-16T09:59:31.000Z</time>
      </trkpt>
      <trkpt lat="45.30721" lon="6.16486">
        <ele>2244</ele>
        <time>2020-12-16T09:59:35.000Z</time>
      </trkpt>
      <trkpt lat="45.30721" lon="6.16486">
        <ele>2245.1999511719</ele>
        <time>2020-12-16T09:59:40.000Z</time>
      </trkpt>
      <trkpt lat="45.30721" lon="6.16486">
        <ele>2245.1999511719</ele>
        <time>2020-12-16T09:59:41.000Z</time>
      </trkpt>
      <trkpt lat="45.30721" lon="6.16486">
        <ele>2245.3999023438</ele>
        <time>2020-12-16T09:59:48.000Z</time>
      </trkpt>
      <trkpt lat="45.30721" lon="6.16486">
        <ele>2246.1999511719</ele>
        <time>2020-12-16T09:59:55.000Z</time>
      </trkpt>
      <trkpt lat="45.30721" lon="6.16486">
        <ele>2246.3999023438</ele>
        <time>2020-12-16T09:59:57.000Z</time>
      </trkpt>
      <trkpt lat="45.30721" lon="6.16486">
        <ele>2247.1999511719</ele>
        <time>2020-12-16T10:00:02.000Z</time>
      </trkpt>
      <trkpt lat="45.30721" lon="6.16486">
        <ele>2247.8000488281</ele>
        <time>2020-12-16T10:00:07.000Z</time>
      </trkpt>
      <trkpt lat="45.30721" lon="6.16486">
        <ele>2248.1999511719</ele>
        <time>2020-12-16T10:00:10.000Z</time>
      </trkpt>
      <trkpt lat="45.30721" lon="6.16486">
        <ele>2248.6000976562</ele>
        <time>2020-12-16T10:00:12.000Z</time>
      </trkpt>
      <trkpt lat="45.30722" lon="6.16486">
        <ele>2249.1999511719</ele>
        <time>2020-12-16T10:00:16.000Z</time>
      </trkpt>
      <trkpt lat="45.30722" lon="6.16486">
        <ele>2250.1999511719</ele>
        <time>2020-12-16T10:00:20.000Z</time>
      </trkpt>
      <trkpt lat="45.30722" lon="6.16486">
        <ele>2250.3999023438</ele>
        <time>2020-12-16T10:00:21.000Z</time>
      </trkpt>
      <trkpt lat="45.30722" lon="6.16486">
        <ele>2251.3999023438</ele>
        <time>2020-12-16T10:00:29.000Z</time>
      </trkpt>
      <trkpt lat="45.30722" lon="6.16486">
        <ele>2252</ele>
        <time>2020-12-16T10:00:33.000Z</time>
      </trkpt>
      <trkpt lat="45.30722" lon="6.16486">
        <ele>2252.6000976562</ele>
        <time>2020-12-16T10:00:37.000Z</time>
      </trkpt>
      <trkpt lat="45.30725" lon="6.16486">
        <ele>2252.8000488281</ele>
        <time>2020-12-16T10:00:39.000Z</time>
      </trkpt>
      <trkpt lat="45.30731" lon="6.16487">
        <ele>2253.6000976562</ele>
        <time>2020-12-16T10:00:43.000Z</time>
      </trkpt>
      <trkpt lat="45.30735" lon="6.16488">
        <ele>2254</ele>
        <time>2020-12-16T10:00:46.000Z</time>
      </trkpt>
      <trkpt lat="45.30741" lon="6.16487">
        <ele>2254.8000488281</ele>
        <time>2020-12-16T10:00:51.000Z</time>
      </trkpt>
      <trkpt lat="45.30741" lon="6.16487">
        <ele>2255.1999511719</ele>
        <time>2020-12-16T10:00:54.000Z</time>
      </trkpt>
      <trkpt lat="45.30747" lon="6.16483">
        <ele>2255.8000488281</ele>
        <time>2020-12-16T10:01:00.000Z</time>
      </trkpt>
      <trkpt lat="45.30748" lon="6.16482">
        <ele>2255.8000488281</ele>
        <time>2020-12-16T10:01:01.000Z</time>
      </trkpt>
      <trkpt lat="45.30752" lon="6.16477">
        <ele>2257</ele>
        <time>2020-12-16T10:01:06.000Z</time>
      </trkpt>
      <trkpt lat="45.30753" lon="6.16475">
        <ele>2258</ele>
        <time>2020-12-16T10:01:12.000Z</time>
      </trkpt>
      <trkpt lat="45.30754" lon="6.16474">
        <ele>2258.6000976562</ele>
        <time>2020-12-16T10:01:15.000Z</time>
      </trkpt>
      <trkpt lat="45.30754" lon="6.16472">
        <ele>2259</ele>
        <time>2020-12-16T10:01:18.000Z</time>
      </trkpt>
      <trkpt lat="45.30754" lon="6.16471">
        <ele>2259.3999023438</ele>
        <time>2020-12-16T10:01:20.000Z</time>
      </trkpt>
      <trkpt lat="45.30755" lon="6.16468">
        <ele>2260.1999511719</ele>
        <time>2020-12-16T10:01:25.000Z</time>
      </trkpt>
      <trkpt lat="45.30756" lon="6.16463">
        <ele>2260.3999023438</ele>
        <time>2020-12-16T10:01:28.000Z</time>
      </trkpt>
      <trkpt lat="45.30757" lon="6.16459">
        <ele>2261.1999511719</ele>
        <time>2020-12-16T10:01:33.000Z</time>
      </trkpt>
      <trkpt lat="45.30756" lon="6.16458">
        <ele>2261.6000976562</ele>
        <time>2020-12-16T10:01:35.000Z</time>
      </trkpt>
      <trkpt lat="45.30757" lon="6.16452">
        <ele>2262.3999023438</ele>
        <time>2020-12-16T10:01:41.000Z</time>
      </trkpt>
      <trkpt lat="45.30756" lon="6.16447">
        <ele>2263.6000976562</ele>
        <time>2020-12-16T10:01:49.000Z</time>
      </trkpt>
      <trkpt lat="45.30756" lon="6.16443">
        <ele>2264.6000976562</ele>
        <time>2020-12-16T10:01:55.000Z</time>
      </trkpt>
      <trkpt lat="45.30756" lon="6.16441">
        <ele>2264.8000488281</ele>
        <time>2020-12-16T10:01:57.000Z</time>
      </trkpt>
      <trkpt lat="45.30755" lon="6.16435">
        <ele>2265.6000976562</ele>
        <time>2020-12-16T10:02:03.000Z</time>
      </trkpt>
      <trkpt lat="45.30755" lon="6.16434">
        <ele>2266</ele>
        <time>2020-12-16T10:02:05.000Z</time>
      </trkpt>
      <trkpt lat="45.30755" lon="6.16431">
        <ele>2266.8000488281</ele>
        <time>2020-12-16T10:02:12.000Z</time>
      </trkpt>
      <trkpt lat="45.30755" lon="6.1643">
        <ele>2267</ele>
        <time>2020-12-16T10:02:13.000Z</time>
      </trkpt>
      <trkpt lat="45.30755" lon="6.16427">
        <ele>2267.8000488281</ele>
        <time>2020-12-16T10:02:17.000Z</time>
      </trkpt>
      <trkpt lat="45.30755" lon="6.16423">
        <ele>2268.8000488281</ele>
        <time>2020-12-16T10:02:23.000Z</time>
      </trkpt>
      <trkpt lat="45.30755" lon="6.16422">
        <ele>2269</ele>
        <time>2020-12-16T10:02:24.000Z</time>
      </trkpt>
      <trkpt lat="45.30754" lon="6.16419">
        <ele>2269.6000976562</ele>
        <time>2020-12-16T10:02:28.000Z</time>
      </trkpt>
      <trkpt lat="45.30754" lon="6.16419">
        <ele>2270</ele>
        <time>2020-12-16T10:02:31.000Z</time>
      </trkpt>
      <trkpt lat="45.30753" lon="6.16415">
        <ele>2270.8000488281</ele>
        <time>2020-12-16T10:02:36.000Z</time>
      </trkpt>
      <trkpt lat="45.30752" lon="6.16415">
        <ele>2271</ele>
        <time>2020-12-16T10:02:38.000Z</time>
      </trkpt>
      <trkpt lat="45.30752" lon="6.16415">
        <ele>2272</ele>
        <time>2020-12-16T10:02:42.000Z</time>
      </trkpt>
      <trkpt lat="45.30752" lon="6.16413">
        <ele>2272.1999511719</ele>
        <time>2020-12-16T10:02:43.000Z</time>
      </trkpt>
      <trkpt lat="45.3075" lon="6.16409">
        <ele>2273.1999511719</ele>
        <time>2020-12-16T10:02:49.000Z</time>
      </trkpt>
      <trkpt lat="45.3075" lon="6.16408">
        <ele>2273.3999023438</ele>
        <time>2020-12-16T10:02:50.000Z</time>
      </trkpt>
      <trkpt lat="45.30752" lon="6.16404">
        <ele>2274.3999023438</ele>
        <time>2020-12-16T10:02:57.000Z</time>
      </trkpt>
      <trkpt lat="45.30754" lon="6.16401">
        <ele>2275.6000976562</ele>
        <time>2020-12-16T10:03:03.000Z</time>
      </trkpt>
      <trkpt lat="45.30756" lon="6.16396">
        <ele>2276.3999023438</ele>
        <time>2020-12-16T10:03:09.000Z</time>
      </trkpt>
      <trkpt lat="45.30756" lon="6.16396">
        <ele>2276.6000976562</ele>
        <time>2020-12-16T10:03:10.000Z</time>
      </trkpt>
      <trkpt lat="45.30757" lon="6.16394">
        <ele>2277.3999023438</ele>
        <time>2020-12-16T10:03:16.000Z</time>
      </trkpt>
      <trkpt lat="45.30758" lon="6.16394">
        <ele>2277.6000976562</ele>
        <time>2020-12-16T10:03:17.000Z</time>
      </trkpt>
      <trkpt lat="45.3076" lon="6.16391">
        <ele>2278.6000976562</ele>
        <time>2020-12-16T10:03:24.000Z</time>
      </trkpt>
      <trkpt lat="45.30763" lon="6.16388">
        <ele>2279.8000488281</ele>
        <time>2020-12-16T10:03:30.000Z</time>
      </trkpt>
      <trkpt lat="45.30767" lon="6.16382">
        <ele>2280.8000488281</ele>
        <time>2020-12-16T10:03:38.000Z</time>
      </trkpt>
      <trkpt lat="45.30767" lon="6.16382">
        <ele>2281</ele>
        <time>2020-12-16T10:03:39.000Z</time>
      </trkpt>
      <trkpt lat="45.30771" lon="6.16381">
        <ele>2282</ele>
        <time>2020-12-16T10:03:46.000Z</time>
      </trkpt>
      <trkpt lat="45.30772" lon="6.16382">
        <ele>2282.1999511719</ele>
        <time>2020-12-16T10:03:47.000Z</time>
      </trkpt>
      <trkpt lat="45.30775" lon="6.1638">
        <ele>2282.8000488281</ele>
        <time>2020-12-16T10:03:52.000Z</time>
      </trkpt>
      <trkpt lat="45.30775" lon="6.1638">
        <ele>2283.1999511719</ele>
        <time>2020-12-16T10:03:53.000Z</time>
      </trkpt>
      <trkpt lat="45.30778" lon="6.16381">
        <ele>2283.8000488281</ele>
        <time>2020-12-16T10:03:58.000Z</time>
      </trkpt>
      <trkpt lat="45.30779" lon="6.16381">
        <ele>2284</ele>
        <time>2020-12-16T10:03:59.000Z</time>
      </trkpt>
      <trkpt lat="45.30779" lon="6.16381">
        <ele>2284.1999511719</ele>
        <time>2020-12-16T10:04:00.000Z</time>
      </trkpt>
      <trkpt lat="45.30782" lon="6.16381">
        <ele>2285.1999511719</ele>
        <time>2020-12-16T10:04:06.000Z</time>
      </trkpt>
      <trkpt lat="45.30786" lon="6.16382">
        <ele>2286.1999511719</ele>
        <time>2020-12-16T10:04:12.000Z</time>
      </trkpt>
      <trkpt lat="45.30786" lon="6.16382">
        <ele>2286.3999023438</ele>
        <time>2020-12-16T10:04:13.000Z</time>
      </trkpt>
      <trkpt lat="45.30788" lon="6.16382">
        <ele>2287.3999023438</ele>
        <time>2020-12-16T10:04:18.000Z</time>
      </trkpt>
      <trkpt lat="45.30788" lon="6.16381">
        <ele>2287.3999023438</ele>
        <time>2020-12-16T10:04:19.000Z</time>
      </trkpt>
      <trkpt lat="45.30787" lon="6.16377">
        <ele>2288.3999023438</ele>
        <time>2020-12-16T10:04:26.000Z</time>
      </trkpt>
      <trkpt lat="45.30786" lon="6.16373">
        <ele>2289.6000976562</ele>
        <time>2020-12-16T10:04:31.000Z</time>
      </trkpt>
      <trkpt lat="45.30786" lon="6.16373">
        <ele>2289.8000488281</ele>
        <time>2020-12-16T10:04:32.000Z</time>
      </trkpt>
      <trkpt lat="45.30786" lon="6.16371">
        <ele>2290.8000488281</ele>
        <time>2020-12-16T10:04:37.000Z</time>
      </trkpt>
      <trkpt lat="45.30786" lon="6.1637">
        <ele>2291.1999511719</ele>
        <time>2020-12-16T10:04:39.000Z</time>
      </trkpt>
      <trkpt lat="45.30785" lon="6.16365">
        <ele>2291.8000488281</ele>
        <time>2020-12-16T10:04:43.000Z</time>
      </trkpt>
      <trkpt lat="45.30785" lon="6.16364">
        <ele>2292.1999511719</ele>
        <time>2020-12-16T10:04:45.000Z</time>
      </trkpt>
      <trkpt lat="45.30785" lon="6.16364">
        <ele>2293</ele>
        <time>2020-12-16T10:04:49.000Z</time>
      </trkpt>
      <trkpt lat="45.30784" lon="6.16361">
        <ele>2293.3999023438</ele>
        <time>2020-12-16T10:04:52.000Z</time>
      </trkpt>
      <trkpt lat="45.30784" lon="6.16359">
        <ele>2294.1999511719</ele>
        <time>2020-12-16T10:04:56.000Z</time>
      </trkpt>
      <trkpt lat="45.30784" lon="6.16359">
        <ele>2294.3999023438</ele>
        <time>2020-12-16T10:04:57.000Z</time>
      </trkpt>
      <trkpt lat="45.30784" lon="6.16358">
        <ele>2295.1999511719</ele>
        <time>2020-12-16T10:05:02.000Z</time>
      </trkpt>
      <trkpt lat="45.30783" lon="6.16354">
        <ele>2295.8000488281</ele>
        <time>2020-12-16T10:05:05.000Z</time>
      </trkpt>
      <trkpt lat="45.30783" lon="6.16351">
        <ele>2296.3999023438</ele>
        <time>2020-12-16T10:05:08.000Z</time>
      </trkpt>
      <trkpt lat="45.30782" lon="6.16347">
        <ele>2297</ele>
        <time>2020-12-16T10:05:12.000Z</time>
      </trkpt>
      <trkpt lat="45.30782" lon="6.16345">
        <ele>2297.3999023438</ele>
        <time>2020-12-16T10:05:15.000Z</time>
      </trkpt>
      <trkpt lat="45.30782" lon="6.16345">
        <ele>2297.8000488281</ele>
        <time>2020-12-16T10:05:18.000Z</time>
      </trkpt>
      <trkpt lat="45.30781" lon="6.16343">
        <ele>2298.6000976562</ele>
        <time>2020-12-16T10:05:22.000Z</time>
      </trkpt>
      <trkpt lat="45.3078" lon="6.1634">
        <ele>2299</ele>
        <time>2020-12-16T10:05:25.000Z</time>
      </trkpt>
      <trkpt lat="45.3078" lon="6.16339">
        <ele>2299.8000488281</ele>
        <time>2020-12-16T10:05:29.000Z</time>
      </trkpt>
      <trkpt lat="45.3078" lon="6.16338">
        <ele>2300.1999511719</ele>
        <time>2020-12-16T10:05:32.000Z</time>
      </trkpt>
      <trkpt lat="45.3078" lon="6.16337">
        <ele>2300.8000488281</ele>
        <time>2020-12-16T10:05:35.000Z</time>
      </trkpt>
      <trkpt lat="45.30781" lon="6.16334">
        <ele>2301.8000488281</ele>
        <time>2020-12-16T10:05:40.000Z</time>
      </trkpt>
      <trkpt lat="45.30782" lon="6.1633">
        <ele>2303</ele>
        <time>2020-12-16T10:05:47.000Z</time>
      </trkpt>
      <trkpt lat="45.30782" lon="6.1633">
        <ele>2303.1999511719</ele>
        <time>2020-12-16T10:05:48.000Z</time>
      </trkpt>
      <trkpt lat="45.30783" lon="6.16329">
        <ele>2304.1999511719</ele>
        <time>2020-12-16T10:05:55.000Z</time>
      </trkpt>
      <trkpt lat="45.30783" lon="6.16329">
        <ele>2304.6000976562</ele>
        <time>2020-12-16T10:05:57.000Z</time>
      </trkpt>
      <trkpt lat="45.30784" lon="6.16325">
        <ele>2305</ele>
        <time>2020-12-16T10:06:02.000Z</time>
      </trkpt>
      <trkpt lat="45.30785" lon="6.16323">
        <ele>2305.1999511719</ele>
        <time>2020-12-16T10:06:04.000Z</time>
      </trkpt>
      <trkpt lat="45.30788" lon="6.1632">
        <ele>2306.3999023438</ele>
        <time>2020-12-16T10:06:10.000Z</time>
      </trkpt>
      <trkpt lat="45.30789" lon="6.16319">
        <ele>2307.3999023438</ele>
        <time>2020-12-16T10:06:17.000Z</time>
      </trkpt>
      <trkpt lat="45.3079" lon="6.16318">
        <ele>2308</ele>
        <time>2020-12-16T10:06:19.000Z</time>
      </trkpt>
      <trkpt lat="45.30791" lon="6.16317">
        <ele>2308.3999023438</ele>
        <time>2020-12-16T10:06:21.000Z</time>
      </trkpt>
      <trkpt lat="45.30792" lon="6.16315">
        <ele>2309.1999511719</ele>
        <time>2020-12-16T10:06:25.000Z</time>
      </trkpt>
      <trkpt lat="45.30793" lon="6.16315">
        <ele>2309.6000976562</ele>
        <time>2020-12-16T10:06:27.000Z</time>
      </trkpt>
      <trkpt lat="45.30793" lon="6.16315">
        <ele>2310.3999023438</ele>
        <time>2020-12-16T10:06:33.000Z</time>
      </trkpt>
      <trkpt lat="45.30792" lon="6.16315">
        <ele>2310.6000976562</ele>
        <time>2020-12-16T10:06:34.000Z</time>
      </trkpt>
      <trkpt lat="45.30792" lon="6.16315">
        <ele>2311.8000488281</ele>
        <time>2020-12-16T10:06:39.000Z</time>
      </trkpt>
      <trkpt lat="45.30792" lon="6.16315">
        <ele>2312.6000976562</ele>
        <time>2020-12-16T10:06:42.000Z</time>
      </trkpt>
      <trkpt lat="45.30793" lon="6.16315">
        <ele>2312.8000488281</ele>
        <time>2020-12-16T10:06:44.000Z</time>
      </trkpt>
      <trkpt lat="45.30795" lon="6.16314">
        <ele>2313.8000488281</ele>
        <time>2020-12-16T10:06:49.000Z</time>
      </trkpt>
      <trkpt lat="45.30797" lon="6.16313">
        <ele>2314</ele>
        <time>2020-12-16T10:06:50.000Z</time>
      </trkpt>
      <trkpt lat="45.30802" lon="6.16309">
        <ele>2314.8000488281</ele>
        <time>2020-12-16T10:06:55.000Z</time>
      </trkpt>
      <trkpt lat="45.30802" lon="6.16308">
        <ele>2315.1999511719</ele>
        <time>2020-12-16T10:06:57.000Z</time>
      </trkpt>
      <trkpt lat="45.30805" lon="6.16308">
        <ele>2315.8000488281</ele>
        <time>2020-12-16T10:07:01.000Z</time>
      </trkpt>
      <trkpt lat="45.30806" lon="6.16307">
        <ele>2316.1999511719</ele>
        <time>2020-12-16T10:07:03.000Z</time>
      </trkpt>
      <trkpt lat="45.30808" lon="6.16307">
        <ele>2317.1999511719</ele>
        <time>2020-12-16T10:07:08.000Z</time>
      </trkpt>
      <trkpt lat="45.30808" lon="6.16307">
        <ele>2317.3999023438</ele>
        <time>2020-12-16T10:07:09.000Z</time>
      </trkpt>
      <trkpt lat="45.30808" lon="6.16307">
        <ele>2318.3999023438</ele>
        <time>2020-12-16T10:07:14.000Z</time>
      </trkpt>
      <trkpt lat="45.30808" lon="6.16307">
        <ele>2318.6000976562</ele>
        <time>2020-12-16T10:07:15.000Z</time>
      </trkpt>
      <trkpt lat="45.30808" lon="6.16307">
        <ele>2319.3999023438</ele>
        <time>2020-12-16T10:07:20.000Z</time>
      </trkpt>
      <trkpt lat="45.30808" lon="6.16307">
        <ele>2319.6000976562</ele>
        <time>2020-12-16T10:07:22.000Z</time>
      </trkpt>
      <trkpt lat="45.30808" lon="6.16307">
        <ele>2319.8000488281</ele>
        <time>2020-12-16T10:07:31.000Z</time>
      </trkpt>
      <trkpt lat="45.30809" lon="6.16306">
        <ele>2320.3999023438</ele>
        <time>2020-12-16T10:07:39.000Z</time>
      </trkpt>
      <trkpt lat="45.30813" lon="6.16302">
        <ele>2320.6000976562</ele>
        <time>2020-12-16T10:07:44.000Z</time>
      </trkpt>
      <trkpt lat="45.30814" lon="6.16299">
        <ele>2321.6000976562</ele>
        <time>2020-12-16T10:07:48.000Z</time>
      </trkpt>
      <trkpt lat="45.30815" lon="6.16298">
        <ele>2321.8000488281</ele>
        <time>2020-12-16T10:07:49.000Z</time>
      </trkpt>
      <trkpt lat="45.30815" lon="6.16295">
        <ele>2322.8000488281</ele>
        <time>2020-12-16T10:07:54.000Z</time>
      </trkpt>
      <trkpt lat="45.30815" lon="6.16294">
        <ele>2323</ele>
        <time>2020-12-16T10:07:55.000Z</time>
      </trkpt>
      <trkpt lat="45.30815" lon="6.1629">
        <ele>2324</ele>
        <time>2020-12-16T10:08:00.000Z</time>
      </trkpt>
      <trkpt lat="45.30815" lon="6.16289">
        <ele>2324.1999511719</ele>
        <time>2020-12-16T10:08:01.000Z</time>
      </trkpt>
      <trkpt lat="45.30815" lon="6.16283">
        <ele>2325.1999511719</ele>
        <time>2020-12-16T10:08:06.000Z</time>
      </trkpt>
      <trkpt lat="45.30815" lon="6.16281">
        <ele>2325.3999023438</ele>
        <time>2020-12-16T10:08:08.000Z</time>
      </trkpt>
      <trkpt lat="45.30815" lon="6.1628">
        <ele>2326.1999511719</ele>
        <time>2020-12-16T10:08:13.000Z</time>
      </trkpt>
      <trkpt lat="45.30815" lon="6.1628">
        <ele>2326.8000488281</ele>
        <time>2020-12-16T10:08:16.000Z</time>
      </trkpt>
      <trkpt lat="45.30815" lon="6.16278">
        <ele>2327.3999023438</ele>
        <time>2020-12-16T10:08:18.000Z</time>
      </trkpt>
      <trkpt lat="45.30813" lon="6.16274">
        <ele>2328.1999511719</ele>
        <time>2020-12-16T10:08:23.000Z</time>
      </trkpt>
      <trkpt lat="45.30813" lon="6.16274">
        <ele>2328.3999023438</ele>
        <time>2020-12-16T10:08:24.000Z</time>
      </trkpt>
      <trkpt lat="45.30813" lon="6.16274">
        <ele>2329.3999023438</ele>
        <time>2020-12-16T10:08:30.000Z</time>
      </trkpt>
      <trkpt lat="45.30813" lon="6.16274">
        <ele>2329.6000976562</ele>
        <time>2020-12-16T10:08:31.000Z</time>
      </trkpt>
      <trkpt lat="45.30813" lon="6.16274">
        <ele>2330.6000976562</ele>
        <time>2020-12-16T10:08:37.000Z</time>
      </trkpt>
      <trkpt lat="45.30813" lon="6.16274">
        <ele>2330.8000488281</ele>
        <time>2020-12-16T10:08:38.000Z</time>
      </trkpt>
      <trkpt lat="45.30813" lon="6.16274">
        <ele>2331.6000976562</ele>
        <time>2020-12-16T10:08:43.000Z</time>
      </trkpt>
      <trkpt lat="45.30813" lon="6.16274">
        <ele>2332.1999511719</ele>
        <time>2020-12-16T10:08:46.000Z</time>
      </trkpt>
      <trkpt lat="45.30813" lon="6.16274">
        <ele>2332.8000488281</ele>
        <time>2020-12-16T10:08:50.000Z</time>
      </trkpt>
      <trkpt lat="45.30813" lon="6.16274">
        <ele>2333.6000976562</ele>
        <time>2020-12-16T10:08:54.000Z</time>
      </trkpt>
      <trkpt lat="45.30813" lon="6.16274">
        <ele>2333.8000488281</ele>
        <time>2020-12-16T10:08:57.000Z</time>
      </trkpt>
      <trkpt lat="45.30813" lon="6.16272">
        <ele>2334.1999511719</ele>
        <time>2020-12-16T10:09:02.000Z</time>
      </trkpt>
      <trkpt lat="45.30814" lon="6.16268">
        <ele>2334.8000488281</ele>
        <time>2020-12-16T10:09:07.000Z</time>
      </trkpt>
      <trkpt lat="45.30815" lon="6.16266">
        <ele>2335.3999023438</ele>
        <time>2020-12-16T10:09:10.000Z</time>
      </trkpt>
      <trkpt lat="45.30815" lon="6.16264">
        <ele>2336</ele>
        <time>2020-12-16T10:09:13.000Z</time>
      </trkpt>
      <trkpt lat="45.30815" lon="6.16259">
        <ele>2336.8000488281</ele>
        <time>2020-12-16T10:09:19.000Z</time>
      </trkpt>
      <trkpt lat="45.30815" lon="6.16258">
        <ele>2337</ele>
        <time>2020-12-16T10:09:20.000Z</time>
      </trkpt>
      <trkpt lat="45.30817" lon="6.16254">
        <ele>2338</ele>
        <time>2020-12-16T10:09:25.000Z</time>
      </trkpt>
      <trkpt lat="45.30818" lon="6.16254">
        <ele>2338.1999511719</ele>
        <time>2020-12-16T10:09:26.000Z</time>
      </trkpt>
      <trkpt lat="45.30819" lon="6.16251">
        <ele>2339.1999511719</ele>
        <time>2020-12-16T10:09:31.000Z</time>
      </trkpt>
      <trkpt lat="45.3082" lon="6.16251">
        <ele>2339.1999511719</ele>
        <time>2020-12-16T10:09:32.000Z</time>
      </trkpt>
      <trkpt lat="45.30821" lon="6.16248">
        <ele>2340.1999511719</ele>
        <time>2020-12-16T10:09:39.000Z</time>
      </trkpt>
      <trkpt lat="45.30822" lon="6.16248">
        <ele>2340.3999023438</ele>
        <time>2020-12-16T10:09:40.000Z</time>
      </trkpt>
      <trkpt lat="45.30824" lon="6.16246">
        <ele>2341.1999511719</ele>
        <time>2020-12-16T10:09:45.000Z</time>
      </trkpt>
      <trkpt lat="45.30824" lon="6.16245">
        <ele>2341.3999023438</ele>
        <time>2020-12-16T10:09:46.000Z</time>
      </trkpt>
      <trkpt lat="45.30826" lon="6.16243">
        <ele>2342.1999511719</ele>
        <time>2020-12-16T10:09:53.000Z</time>
      </trkpt>
      <trkpt lat="45.30827" lon="6.16242">
        <ele>2342.6000976562</ele>
        <time>2020-12-16T10:09:55.000Z</time>
      </trkpt>
      <trkpt lat="45.30829" lon="6.1624">
        <ele>2343.1999511719</ele>
        <time>2020-12-16T10:09:59.000Z</time>
      </trkpt>
      <trkpt lat="45.3083" lon="6.1624">
        <ele>2343.6000976562</ele>
        <time>2020-12-16T10:10:02.000Z</time>
      </trkpt>
      <trkpt lat="45.30831" lon="6.16239">
        <ele>2344.3999023438</ele>
        <time>2020-12-16T10:10:07.000Z</time>
      </trkpt>
      <trkpt lat="45.30831" lon="6.16239">
        <ele>2344.6000976562</ele>
        <time>2020-12-16T10:10:08.000Z</time>
      </trkpt>
      <trkpt lat="45.30833" lon="6.16236">
        <ele>2345.3999023438</ele>
        <time>2020-12-16T10:10:14.000Z</time>
      </trkpt>
      <trkpt lat="45.30834" lon="6.16236">
        <ele>2345.8000488281</ele>
        <time>2020-12-16T10:10:16.000Z</time>
      </trkpt>
      <trkpt lat="45.30835" lon="6.16233">
        <ele>2346.6000976562</ele>
        <time>2020-12-16T10:10:21.000Z</time>
      </trkpt>
      <trkpt lat="45.30835" lon="6.16232">
        <ele>2346.8000488281</ele>
        <time>2020-12-16T10:10:22.000Z</time>
      </trkpt>
      <trkpt lat="45.30836" lon="6.1623">
        <ele>2347.8000488281</ele>
        <time>2020-12-16T10:10:28.000Z</time>
      </trkpt>
      <trkpt lat="45.30836" lon="6.1623">
        <ele>2348</ele>
        <time>2020-12-16T10:10:29.000Z</time>
      </trkpt>
      <trkpt lat="45.30837" lon="6.16228">
        <ele>2349</ele>
        <time>2020-12-16T10:10:36.000Z</time>
      </trkpt>
      <trkpt lat="45.30839" lon="6.16225">
        <ele>2350.3999023438</ele>
        <time>2020-12-16T10:10:43.000Z</time>
      </trkpt>
      <trkpt lat="45.3084" lon="6.16222">
        <ele>2351.6000976562</ele>
        <time>2020-12-16T10:10:49.000Z</time>
      </trkpt>
      <trkpt lat="45.30842" lon="6.16219">
        <ele>2352.6000976562</ele>
        <time>2020-12-16T10:10:56.000Z</time>
      </trkpt>
      <trkpt lat="45.30844" lon="6.16217">
        <ele>2353.6000976562</ele>
        <time>2020-12-16T10:11:02.000Z</time>
      </trkpt>
      <trkpt lat="45.30844" lon="6.16217">
        <ele>2353.8000488281</ele>
        <time>2020-12-16T10:11:03.000Z</time>
      </trkpt>
      <trkpt lat="45.30845" lon="6.16214">
        <ele>2354.8000488281</ele>
        <time>2020-12-16T10:11:09.000Z</time>
      </trkpt>
      <trkpt lat="45.30845" lon="6.16213">
        <ele>2355.8000488281</ele>
        <time>2020-12-16T10:11:15.000Z</time>
      </trkpt>
      <trkpt lat="45.30845" lon="6.16211">
        <ele>2356.3999023438</ele>
        <time>2020-12-16T10:11:17.000Z</time>
      </trkpt>
      <trkpt lat="45.30845" lon="6.1621">
        <ele>2357</ele>
        <time>2020-12-16T10:11:21.000Z</time>
      </trkpt>
      <trkpt lat="45.30847" lon="6.16208">
        <ele>2357.8000488281</ele>
        <time>2020-12-16T10:11:25.000Z</time>
      </trkpt>
      <trkpt lat="45.30847" lon="6.16208">
        <ele>2358</ele>
        <time>2020-12-16T10:11:26.000Z</time>
      </trkpt>
      <trkpt lat="45.30848" lon="6.16206">
        <ele>2359.1999511719</ele>
        <time>2020-12-16T10:11:31.000Z</time>
      </trkpt>
      <trkpt lat="45.30848" lon="6.16206">
        <ele>2359.3999023438</ele>
        <time>2020-12-16T10:11:32.000Z</time>
      </trkpt>
      <trkpt lat="45.3085" lon="6.16204">
        <ele>2360.1999511719</ele>
        <time>2020-12-16T10:11:38.000Z</time>
      </trkpt>
      <trkpt lat="45.3085" lon="6.16204">
        <ele>2360.3999023438</ele>
        <time>2020-12-16T10:11:39.000Z</time>
      </trkpt>
      <trkpt lat="45.30851" lon="6.16203">
        <ele>2361.1999511719</ele>
        <time>2020-12-16T10:11:44.000Z</time>
      </trkpt>
      <trkpt lat="45.30851" lon="6.16202">
        <ele>2362</ele>
        <time>2020-12-16T10:11:48.000Z</time>
      </trkpt>
      <trkpt lat="45.30852" lon="6.16201">
        <ele>2362.3999023438</ele>
        <time>2020-12-16T10:11:50.000Z</time>
      </trkpt>
      <trkpt lat="45.30853" lon="6.16198">
        <ele>2363.1999511719</ele>
        <time>2020-12-16T10:11:54.000Z</time>
      </trkpt>
      <trkpt lat="45.30853" lon="6.16198">
        <ele>2363.6000976562</ele>
        <time>2020-12-16T10:11:55.000Z</time>
      </trkpt>
      <trkpt lat="45.30854" lon="6.16196">
        <ele>2364.6000976562</ele>
        <time>2020-12-16T10:12:00.000Z</time>
      </trkpt>
      <trkpt lat="45.30855" lon="6.16195">
        <ele>2364.8000488281</ele>
        <time>2020-12-16T10:12:01.000Z</time>
      </trkpt>
      <trkpt lat="45.30856" lon="6.16192">
        <ele>2365.6000976562</ele>
        <time>2020-12-16T10:12:06.000Z</time>
      </trkpt>
      <trkpt lat="45.30856" lon="6.16191">
        <ele>2366</ele>
        <time>2020-12-16T10:12:08.000Z</time>
      </trkpt>
      <trkpt lat="45.30856" lon="6.1619">
        <ele>2366.6000976562</ele>
        <time>2020-12-16T10:12:11.000Z</time>
      </trkpt>
      <trkpt lat="45.30857" lon="6.16187">
        <ele>2367.1999511719</ele>
        <time>2020-12-16T10:12:14.000Z</time>
      </trkpt>
      <trkpt lat="45.30857" lon="6.16186">
        <ele>2367.8000488281</ele>
        <time>2020-12-16T10:12:18.000Z</time>
      </trkpt>
      <trkpt lat="45.30858" lon="6.16184">
        <ele>2368.6000976562</ele>
        <time>2020-12-16T10:12:20.000Z</time>
      </trkpt>
      <trkpt lat="45.30858" lon="6.16183">
        <ele>2368.8000488281</ele>
        <time>2020-12-16T10:12:21.000Z</time>
      </trkpt>
      <trkpt lat="45.30859" lon="6.16182">
        <ele>2369</ele>
        <time>2020-12-16T10:12:22.000Z</time>
      </trkpt>
      <trkpt lat="45.3086" lon="6.16181">
        <ele>2369.6000976562</ele>
        <time>2020-12-16T10:12:27.000Z</time>
      </trkpt>
      <trkpt lat="45.3086" lon="6.16179">
        <ele>2370</ele>
        <time>2020-12-16T10:12:30.000Z</time>
      </trkpt>
      <trkpt lat="45.3086" lon="6.16179">
        <ele>2370.1999511719</ele>
        <time>2020-12-16T10:12:32.000Z</time>
      </trkpt>
      <trkpt lat="45.3086" lon="6.16178">
        <ele>2371</ele>
        <time>2020-12-16T10:12:36.000Z</time>
      </trkpt>
      <trkpt lat="45.30861" lon="6.16174">
        <ele>2371.8000488281</ele>
        <time>2020-12-16T10:12:40.000Z</time>
      </trkpt>
      <trkpt lat="45.30861" lon="6.16173">
        <ele>2372</ele>
        <time>2020-12-16T10:12:42.000Z</time>
      </trkpt>
      <trkpt lat="45.30861" lon="6.16173">
        <ele>2372.8000488281</ele>
        <time>2020-12-16T10:12:46.000Z</time>
      </trkpt>
      <trkpt lat="45.30861" lon="6.1617">
        <ele>2373</ele>
        <time>2020-12-16T10:12:48.000Z</time>
      </trkpt>
      <trkpt lat="45.30862" lon="6.16164">
        <ele>2373.6000976562</ele>
        <time>2020-12-16T10:12:52.000Z</time>
      </trkpt>
      <trkpt lat="45.30862" lon="6.16161">
        <ele>2374.1999511719</ele>
        <time>2020-12-16T10:12:55.000Z</time>
      </trkpt>
      <trkpt lat="45.30862" lon="6.1616">
        <ele>2374.6000976562</ele>
        <time>2020-12-16T10:12:58.000Z</time>
      </trkpt>
      <trkpt lat="45.30862" lon="6.16156">
        <ele>2375.3999023438</ele>
        <time>2020-12-16T10:13:04.000Z</time>
      </trkpt>
      <trkpt lat="45.30862" lon="6.16155">
        <ele>2375.3999023438</ele>
        <time>2020-12-16T10:13:05.000Z</time>
      </trkpt>
      <trkpt lat="45.30862" lon="6.16154">
        <ele>2376.3999023438</ele>
        <time>2020-12-16T10:13:10.000Z</time>
      </trkpt>
      <trkpt lat="45.30862" lon="6.16151">
        <ele>2376.6000976562</ele>
        <time>2020-12-16T10:13:12.000Z</time>
      </trkpt>
      <trkpt lat="45.30864" lon="6.16147">
        <ele>2377.3999023438</ele>
        <time>2020-12-16T10:13:17.000Z</time>
      </trkpt>
      <trkpt lat="45.30865" lon="6.16145">
        <ele>2378.3999023438</ele>
        <time>2020-12-16T10:13:24.000Z</time>
      </trkpt>
      <trkpt lat="45.30866" lon="6.16144">
        <ele>2379</ele>
        <time>2020-12-16T10:13:27.000Z</time>
      </trkpt>
      <trkpt lat="45.30866" lon="6.16143">
        <ele>2379.8000488281</ele>
        <time>2020-12-16T10:13:31.000Z</time>
      </trkpt>
      <trkpt lat="45.30866" lon="6.16143">
        <ele>2380.3999023438</ele>
        <time>2020-12-16T10:13:34.000Z</time>
      </trkpt>
      <trkpt lat="45.30866" lon="6.16143">
        <ele>2381</ele>
        <time>2020-12-16T10:13:37.000Z</time>
      </trkpt>
      <trkpt lat="45.30866" lon="6.16143">
        <ele>2381.3999023438</ele>
        <time>2020-12-16T10:13:42.000Z</time>
      </trkpt>
      <trkpt lat="45.30866" lon="6.16143">
        <ele>2381.3999023438</ele>
        <time>2020-12-16T10:13:56.000Z</time>
      </trkpt>
      <trkpt lat="45.30866" lon="6.16143">
        <ele>2381.3999023438</ele>
        <time>2020-12-16T10:14:10.000Z</time>
      </trkpt>
      <trkpt lat="45.30865" lon="6.16143">
        <ele>2381.1999511719</ele>
        <time>2020-12-16T10:14:26.000Z</time>
      </trkpt>
      <trkpt lat="45.30865" lon="6.16143">
        <ele>2380.8000488281</ele>
        <time>2020-12-16T10:14:42.000Z</time>
      </trkpt>
      <trkpt lat="45.30866" lon="6.16142">
        <ele>2380.1999511719</ele>
        <time>2020-12-16T10:14:49.000Z</time>
      </trkpt>
      <trkpt lat="45.30866" lon="6.16142">
        <ele>2380</ele>
        <time>2020-12-16T10:14:51.000Z</time>
      </trkpt>
      <trkpt lat="45.30865" lon="6.16142">
        <ele>2379.8000488281</ele>
        <time>2020-12-16T10:14:58.000Z</time>
      </trkpt>
      <trkpt lat="45.30865" lon="6.16139">
        <ele>2381.1999511719</ele>
        <time>2020-12-16T10:15:03.000Z</time>
      </trkpt>
      <trkpt lat="45.30865" lon="6.16139">
        <ele>2381.3999023438</ele>
        <time>2020-12-16T10:15:15.000Z</time>
      </trkpt>
      <trkpt lat="45.30865" lon="6.16139">
        <ele>2381.6000976562</ele>
        <time>2020-12-16T10:15:28.000Z</time>
      </trkpt>
      <trkpt lat="45.30865" lon="6.16139">
        <ele>2381.3999023438</ele>
        <time>2020-12-16T10:15:44.000Z</time>
      </trkpt>
      <trkpt lat="45.30865" lon="6.16139">
        <ele>2381.3999023438</ele>
        <time>2020-12-16T10:15:56.000Z</time>
      </trkpt>
      <trkpt lat="45.30865" lon="6.16139">
        <ele>2381.3999023438</ele>
        <time>2020-12-16T10:16:09.000Z</time>
      </trkpt>
      <trkpt lat="45.30865" lon="6.16139">
        <ele>2381.6000976562</ele>
        <time>2020-12-16T10:16:19.000Z</time>
      </trkpt>
      <trkpt lat="45.30865" lon="6.16139">
        <ele>2381.3999023438</ele>
        <time>2020-12-16T10:16:32.000Z</time>
      </trkpt>
      <trkpt lat="45.30865" lon="6.16139">
        <ele>2381.6000976562</ele>
        <time>2020-12-16T10:16:43.000Z</time>
      </trkpt>
      <trkpt lat="45.30865" lon="6.16139">
        <ele>2381.6000976562</ele>
        <time>2020-12-16T10:16:56.000Z</time>
      </trkpt>
      <trkpt lat="45.30865" lon="6.16139">
        <ele>2381.6000976562</ele>
        <time>2020-12-16T10:17:06.000Z</time>
      </trkpt>
      <trkpt lat="45.30865" lon="6.16139">
        <ele>2381.6000976562</ele>
        <time>2020-12-16T10:17:17.000Z</time>
      </trkpt>
      <trkpt lat="45.30865" lon="6.16139">
        <ele>2381.3999023438</ele>
        <time>2020-12-16T10:17:30.000Z</time>
      </trkpt>
      <trkpt lat="45.30865" lon="6.16139">
        <ele>2381.8000488281</ele>
        <time>2020-12-16T10:17:43.000Z</time>
      </trkpt>
      <trkpt lat="45.30865" lon="6.16139">
        <ele>2381.1999511719</ele>
        <time>2020-12-16T10:17:56.000Z</time>
      </trkpt>
      <trkpt lat="45.30865" lon="6.16139">
        <ele>2381.3999023438</ele>
        <time>2020-12-16T10:18:09.000Z</time>
      </trkpt>
      <trkpt lat="45.30866" lon="6.16138">
        <ele>2381.3999023438</ele>
        <time>2020-12-16T10:18:24.000Z</time>
      </trkpt>
      <trkpt lat="45.30866" lon="6.16138">
        <ele>2381.3999023438</ele>
        <time>2020-12-16T10:18:35.000Z</time>
      </trkpt>
      <trkpt lat="45.30866" lon="6.16138">
        <ele>2380.8000488281</ele>
        <time>2020-12-16T10:18:47.000Z</time>
      </trkpt>
      <trkpt lat="45.30866" lon="6.16138">
        <ele>2380.6000976562</ele>
        <time>2020-12-16T10:18:58.000Z</time>
      </trkpt>
      <trkpt lat="45.30866" lon="6.16138">
        <ele>2380.8000488281</ele>
        <time>2020-12-16T10:19:14.000Z</time>
      </trkpt>
      <trkpt lat="45.30866" lon="6.16138">
        <ele>2381</ele>
        <time>2020-12-16T10:19:30.000Z</time>
      </trkpt>
      <trkpt lat="45.30866" lon="6.16138">
        <ele>2381</ele>
        <time>2020-12-16T10:19:33.000Z</time>
      </trkpt>
      <trkpt lat="45.30866" lon="6.16138">
        <ele>2381</ele>
        <time>2020-12-16T10:19:41.000Z</time>
      </trkpt>
      <trkpt lat="45.30866" lon="6.16138">
        <ele>2381</ele>
        <time>2020-12-16T10:19:57.000Z</time>
      </trkpt>
      <trkpt lat="45.30866" lon="6.16138">
        <ele>2381</ele>
        <time>2020-12-16T10:20:08.000Z</time>
      </trkpt>
      <trkpt lat="45.30866" lon="6.16138">
        <ele>2380.8000488281</ele>
        <time>2020-12-16T10:20:17.000Z</time>
      </trkpt>
      <trkpt lat="45.30866" lon="6.16138">
        <ele>2381</ele>
        <time>2020-12-16T10:20:35.000Z</time>
      </trkpt>
      <trkpt lat="45.30866" lon="6.16138">
        <ele>2380.8000488281</ele>
        <time>2020-12-16T10:20:48.000Z</time>
      </trkpt>
      <trkpt lat="45.30866" lon="6.16138">
        <ele>2380.8000488281</ele>
        <time>2020-12-16T10:21:04.000Z</time>
      </trkpt>
      <trkpt lat="45.30866" lon="6.16138">
        <ele>2380.6000976562</ele>
        <time>2020-12-16T10:21:14.000Z</time>
      </trkpt>
      <trkpt lat="45.30866" lon="6.16138">
        <ele>2380.8000488281</ele>
        <time>2020-12-16T10:21:21.000Z</time>
      </trkpt>
      <trkpt lat="45.30866" lon="6.16138">
        <ele>2381.1999511719</ele>
        <time>2020-12-16T10:21:32.000Z</time>
      </trkpt>
      <trkpt lat="45.30866" lon="6.16138">
        <ele>2380.8000488281</ele>
        <time>2020-12-16T10:21:49.000Z</time>
      </trkpt>
      <trkpt lat="45.30866" lon="6.16138">
        <ele>2380.6000976562</ele>
        <time>2020-12-16T10:22:03.000Z</time>
      </trkpt>
      <trkpt lat="45.30866" lon="6.16137">
        <ele>2380.6000976562</ele>
        <time>2020-12-16T10:22:13.000Z</time>
      </trkpt>
      <trkpt lat="45.30866" lon="6.16131">
        <ele>2380.8000488281</ele>
        <time>2020-12-16T10:22:20.000Z</time>
      </trkpt>
      <trkpt lat="45.30866" lon="6.16125">
        <ele>2380.3999023438</ele>
        <time>2020-12-16T10:22:26.000Z</time>
      </trkpt>
      <trkpt lat="45.30866" lon="6.16121">
        <ele>2381.1999511719</ele>
        <time>2020-12-16T10:22:33.000Z</time>
      </trkpt>
      <trkpt lat="45.30865" lon="6.16117">
        <ele>2381.1999511719</ele>
        <time>2020-12-16T10:22:40.000Z</time>
      </trkpt>
      <trkpt lat="45.30865" lon="6.16108">
        <ele>2382.1999511719</ele>
        <time>2020-12-16T10:22:47.000Z</time>
      </trkpt>
      <trkpt lat="45.30865" lon="6.16105">
        <ele>2382.1999511719</ele>
        <time>2020-12-16T10:22:49.000Z</time>
      </trkpt>
      <trkpt lat="45.30864" lon="6.16098">
        <ele>2382.6000976562</ele>
        <time>2020-12-16T10:22:55.000Z</time>
      </trkpt>
      <trkpt lat="45.30863" lon="6.16094">
        <ele>2383.1999511719</ele>
        <time>2020-12-16T10:23:00.000Z</time>
      </trkpt>
      <trkpt lat="45.30862" lon="6.16093">
        <ele>2383.3999023438</ele>
        <time>2020-12-16T10:23:01.000Z</time>
      </trkpt>
      <trkpt lat="45.30863" lon="6.16088">
        <ele>2384.3999023438</ele>
        <time>2020-12-16T10:23:08.000Z</time>
      </trkpt>
      <trkpt lat="45.30863" lon="6.16088">
        <ele>2384.8000488281</ele>
        <time>2020-12-16T10:23:09.000Z</time>
      </trkpt>
      <trkpt lat="45.30863" lon="6.16088">
        <ele>2385.3999023438</ele>
        <time>2020-12-16T10:23:15.000Z</time>
      </trkpt>
      <trkpt lat="45.30862" lon="6.16086">
        <ele>2385.3999023438</ele>
        <time>2020-12-16T10:23:19.000Z</time>
      </trkpt>
      <trkpt lat="45.30863" lon="6.1608">
        <ele>2385.6000976562</ele>
        <time>2020-12-16T10:23:23.000Z</time>
      </trkpt>
      <trkpt lat="45.30862" lon="6.16073">
        <ele>2386.1999511719</ele>
        <time>2020-12-16T10:23:29.000Z</time>
      </trkpt>
      <trkpt lat="45.30859" lon="6.16068">
        <ele>2386.3999023438</ele>
        <time>2020-12-16T10:23:35.000Z</time>
      </trkpt>
      <trkpt lat="45.30857" lon="6.16061">
        <ele>2385.8000488281</ele>
        <time>2020-12-16T10:23:43.000Z</time>
      </trkpt>
      <trkpt lat="45.30856" lon="6.16053">
        <ele>2386</ele>
        <time>2020-12-16T10:23:50.000Z</time>
      </trkpt>
      <trkpt lat="45.30855" lon="6.16045">
        <ele>2386.3999023438</ele>
        <time>2020-12-16T10:23:59.000Z</time>
      </trkpt>
      <trkpt lat="45.30855" lon="6.16038">
        <ele>2387.1999511719</ele>
        <time>2020-12-16T10:24:06.000Z</time>
      </trkpt>
      <trkpt lat="45.30855" lon="6.16036">
        <ele>2387.6000976562</ele>
        <time>2020-12-16T10:24:08.000Z</time>
      </trkpt>
      <trkpt lat="45.30853" lon="6.16029">
        <ele>2388.6000976562</ele>
        <time>2020-12-16T10:24:15.000Z</time>
      </trkpt>
      <trkpt lat="45.30853" lon="6.16029">
        <ele>2388.6000976562</ele>
        <time>2020-12-16T10:24:16.000Z</time>
      </trkpt>
      <trkpt lat="45.30851" lon="6.16024">
        <ele>2389.6000976562</ele>
        <time>2020-12-16T10:24:21.000Z</time>
      </trkpt>
      <trkpt lat="45.30851" lon="6.16023">
        <ele>2390</ele>
        <time>2020-12-16T10:24:23.000Z</time>
      </trkpt>
      <trkpt lat="45.3085" lon="6.16018">
        <ele>2390.8000488281</ele>
        <time>2020-12-16T10:24:28.000Z</time>
      </trkpt>
      <trkpt lat="45.30849" lon="6.16015">
        <ele>2391.3999023438</ele>
        <time>2020-12-16T10:24:32.000Z</time>
      </trkpt>
      <trkpt lat="45.30847" lon="6.16013">
        <ele>2392</ele>
        <time>2020-12-16T10:24:35.000Z</time>
      </trkpt>
      <trkpt lat="45.30847" lon="6.16011">
        <ele>2392.3999023438</ele>
        <time>2020-12-16T10:24:39.000Z</time>
      </trkpt>
      <trkpt lat="45.30846" lon="6.16009">
        <ele>2393</ele>
        <time>2020-12-16T10:24:42.000Z</time>
      </trkpt>
      <trkpt lat="45.30844" lon="6.16004">
        <ele>2393.8000488281</ele>
        <time>2020-12-16T10:24:47.000Z</time>
      </trkpt>
      <trkpt lat="45.30844" lon="6.16004">
        <ele>2394</ele>
        <time>2020-12-16T10:24:48.000Z</time>
      </trkpt>
      <trkpt lat="45.30845" lon="6.16">
        <ele>2394.8000488281</ele>
        <time>2020-12-16T10:24:53.000Z</time>
      </trkpt>
      <trkpt lat="45.30845" lon="6.15997">
        <ele>2395.1999511719</ele>
        <time>2020-12-16T10:24:56.000Z</time>
      </trkpt>
      <trkpt lat="45.30845" lon="6.15996">
        <ele>2395.8000488281</ele>
        <time>2020-12-16T10:24:59.000Z</time>
      </trkpt>
      <trkpt lat="45.30846" lon="6.15993">
        <ele>2396.1999511719</ele>
        <time>2020-12-16T10:25:03.000Z</time>
      </trkpt>
      <trkpt lat="45.30846" lon="6.15993">
        <ele>2396.6000976562</ele>
        <time>2020-12-16T10:25:06.000Z</time>
      </trkpt>
      <trkpt lat="45.30847" lon="6.15991">
        <ele>2397.3999023438</ele>
        <time>2020-12-16T10:25:11.000Z</time>
      </trkpt>
      <trkpt lat="45.30848" lon="6.15989">
        <ele>2398.3999023438</ele>
        <time>2020-12-16T10:25:17.000Z</time>
      </trkpt>
      <trkpt lat="45.30848" lon="6.15989">
        <ele>2398.6000976562</ele>
        <time>2020-12-16T10:25:18.000Z</time>
      </trkpt>
      <trkpt lat="45.30852" lon="6.15986">
        <ele>2399.6000976562</ele>
        <time>2020-12-16T10:25:24.000Z</time>
      </trkpt>
      <trkpt lat="45.30852" lon="6.15985">
        <ele>2399.6000976562</ele>
        <time>2020-12-16T10:25:25.000Z</time>
      </trkpt>
      <trkpt lat="45.30854" lon="6.15985">
        <ele>2400.6000976562</ele>
        <time>2020-12-16T10:25:31.000Z</time>
      </trkpt>
      <trkpt lat="45.30855" lon="6.15985">
        <ele>2400.8000488281</ele>
        <time>2020-12-16T10:25:32.000Z</time>
      </trkpt>
      <trkpt lat="45.30857" lon="6.15984">
        <ele>2401.6000976562</ele>
        <time>2020-12-16T10:25:37.000Z</time>
      </trkpt>
      <trkpt lat="45.30858" lon="6.15985">
        <ele>2401.8000488281</ele>
        <time>2020-12-16T10:25:39.000Z</time>
      </trkpt>
      <trkpt lat="45.30861" lon="6.15984">
        <ele>2402.8000488281</ele>
        <time>2020-12-16T10:25:45.000Z</time>
      </trkpt>
      <trkpt lat="45.30862" lon="6.15984">
        <ele>2403.1999511719</ele>
        <time>2020-12-16T10:25:49.000Z</time>
      </trkpt>
      <trkpt lat="45.30863" lon="6.15985">
        <ele>2403.8000488281</ele>
        <time>2020-12-16T10:25:53.000Z</time>
      </trkpt>
      <trkpt lat="45.30864" lon="6.15985">
        <ele>2404.1999511719</ele>
        <time>2020-12-16T10:25:56.000Z</time>
      </trkpt>
      <trkpt lat="45.30865" lon="6.15985">
        <ele>2404.8000488281</ele>
        <time>2020-12-16T10:25:59.000Z</time>
      </trkpt>
      <trkpt lat="45.30866" lon="6.15982">
        <ele>2405.6000976562</ele>
        <time>2020-12-16T10:26:03.000Z</time>
      </trkpt>
      <trkpt lat="45.30867" lon="6.15981">
        <ele>2406</ele>
        <time>2020-12-16T10:26:05.000Z</time>
      </trkpt>
      <trkpt lat="45.30869" lon="6.1598">
        <ele>2407</ele>
        <time>2020-12-16T10:26:11.000Z</time>
      </trkpt>
      <trkpt lat="45.3087" lon="6.15979">
        <ele>2407</ele>
        <time>2020-12-16T10:26:12.000Z</time>
      </trkpt>
      <trkpt lat="45.3087" lon="6.15978">
        <ele>2408</ele>
        <time>2020-12-16T10:26:19.000Z</time>
      </trkpt>
      <trkpt lat="45.30869" lon="6.15978">
        <ele>2408.1999511719</ele>
        <time>2020-12-16T10:26:20.000Z</time>
      </trkpt>
      <trkpt lat="45.30869" lon="6.15976">
        <ele>2409.1999511719</ele>
        <time>2020-12-16T10:26:27.000Z</time>
      </trkpt>
      <trkpt lat="45.30868" lon="6.15975">
        <ele>2409.3999023438</ele>
        <time>2020-12-16T10:26:28.000Z</time>
      </trkpt>
      <trkpt lat="45.30866" lon="6.15972">
        <ele>2410.3999023438</ele>
        <time>2020-12-16T10:26:35.000Z</time>
      </trkpt>
      <trkpt lat="45.30866" lon="6.1597">
        <ele>2410.8000488281</ele>
        <time>2020-12-16T10:26:38.000Z</time>
      </trkpt>
      <trkpt lat="45.30864" lon="6.15967">
        <ele>2411.3999023438</ele>
        <time>2020-12-16T10:26:44.000Z</time>
      </trkpt>
      <trkpt lat="45.30865" lon="6.15965">
        <ele>2412</ele>
        <time>2020-12-16T10:26:47.000Z</time>
      </trkpt>
      <trkpt lat="45.30864" lon="6.15962">
        <ele>2412.3999023438</ele>
        <time>2020-12-16T10:26:51.000Z</time>
      </trkpt>
      <trkpt lat="45.30864" lon="6.15959">
        <ele>2413</ele>
        <time>2020-12-16T10:26:55.000Z</time>
      </trkpt>
      <trkpt lat="45.30864" lon="6.15956">
        <ele>2413.6000976562</ele>
        <time>2020-12-16T10:27:01.000Z</time>
      </trkpt>
      <trkpt lat="45.30863" lon="6.15952">
        <ele>2414</ele>
        <time>2020-12-16T10:27:04.000Z</time>
      </trkpt>
      <trkpt lat="45.30861" lon="6.15949">
        <ele>2414.6000976562</ele>
        <time>2020-12-16T10:27:08.000Z</time>
      </trkpt>
      <trkpt lat="45.3086" lon="6.15945">
        <ele>2415.3999023438</ele>
        <time>2020-12-16T10:27:13.000Z</time>
      </trkpt>
      <trkpt lat="45.3086" lon="6.15943">
        <ele>2415.8000488281</ele>
        <time>2020-12-16T10:27:16.000Z</time>
      </trkpt>
      <trkpt lat="45.30859" lon="6.15942">
        <ele>2416.3999023438</ele>
        <time>2020-12-16T10:27:20.000Z</time>
      </trkpt>
      <trkpt lat="45.30859" lon="6.15937">
        <ele>2417</ele>
        <time>2020-12-16T10:27:24.000Z</time>
      </trkpt>
      <trkpt lat="45.30859" lon="6.15936">
        <ele>2417.6000976562</ele>
        <time>2020-12-16T10:27:28.000Z</time>
      </trkpt>
      <trkpt lat="45.30858" lon="6.15934">
        <ele>2418</ele>
        <time>2020-12-16T10:27:32.000Z</time>
      </trkpt>
      <trkpt lat="45.30857" lon="6.15932">
        <ele>2419</ele>
        <time>2020-12-16T10:27:39.000Z</time>
      </trkpt>
      <trkpt lat="45.30855" lon="6.15931">
        <ele>2420</ele>
        <time>2020-12-16T10:27:47.000Z</time>
      </trkpt>
      <trkpt lat="45.30854" lon="6.1593">
        <ele>2420.1999511719</ele>
        <time>2020-12-16T10:27:49.000Z</time>
      </trkpt>
      <trkpt lat="45.30856" lon="6.15929">
        <ele>2420.3999023438</ele>
        <time>2020-12-16T10:27:52.000Z</time>
      </trkpt>
      <trkpt lat="45.30857" lon="6.15925">
        <ele>2421.1999511719</ele>
        <time>2020-12-16T10:27:58.000Z</time>
      </trkpt>
      <trkpt lat="45.30857" lon="6.15925">
        <ele>2421.6000976562</ele>
        <time>2020-12-16T10:28:00.000Z</time>
      </trkpt>
      <trkpt lat="45.3086" lon="6.15923">
        <ele>2422.1999511719</ele>
        <time>2020-12-16T10:28:04.000Z</time>
      </trkpt>
      <trkpt lat="45.30861" lon="6.15921">
        <ele>2422.8000488281</ele>
        <time>2020-12-16T10:28:07.000Z</time>
      </trkpt>
      <trkpt lat="45.30862" lon="6.1592">
        <ele>2423.3999023438</ele>
        <time>2020-12-16T10:28:11.000Z</time>
      </trkpt>
      <trkpt lat="45.30864" lon="6.15919">
        <ele>2424</ele>
        <time>2020-12-16T10:28:15.000Z</time>
      </trkpt>
      <trkpt lat="45.30865" lon="6.15919">
        <ele>2424.1999511719</ele>
        <time>2020-12-16T10:28:17.000Z</time>
      </trkpt>
      <trkpt lat="45.30866" lon="6.15919">
        <ele>2424.3999023438</ele>
        <time>2020-12-16T10:28:18.000Z</time>
      </trkpt>
      <trkpt lat="45.30867" lon="6.15917">
        <ele>2425</ele>
        <time>2020-12-16T10:28:21.000Z</time>
      </trkpt>
      <trkpt lat="45.30868" lon="6.15917">
        <ele>2425.6000976562</ele>
        <time>2020-12-16T10:28:25.000Z</time>
      </trkpt>
      <trkpt lat="45.30869" lon="6.15916">
        <ele>2426.1999511719</ele>
        <time>2020-12-16T10:28:29.000Z</time>
      </trkpt>
      <trkpt lat="45.3087" lon="6.15915">
        <ele>2426.6000976562</ele>
        <time>2020-12-16T10:28:32.000Z</time>
      </trkpt>
      <trkpt lat="45.30871" lon="6.15915">
        <ele>2427.1999511719</ele>
        <time>2020-12-16T10:28:37.000Z</time>
      </trkpt>
      <trkpt lat="45.30873" lon="6.15914">
        <ele>2427.8000488281</ele>
        <time>2020-12-16T10:28:40.000Z</time>
      </trkpt>
      <trkpt lat="45.30877" lon="6.15915">
        <ele>2428.8000488281</ele>
        <time>2020-12-16T10:28:46.000Z</time>
      </trkpt>
      <trkpt lat="45.30877" lon="6.15915">
        <ele>2428.8000488281</ele>
        <time>2020-12-16T10:28:47.000Z</time>
      </trkpt>
      <trkpt lat="45.30879" lon="6.15915">
        <ele>2430</ele>
        <time>2020-12-16T10:28:54.000Z</time>
      </trkpt>
      <trkpt lat="45.3088" lon="6.15916">
        <ele>2430.1999511719</ele>
        <time>2020-12-16T10:28:56.000Z</time>
      </trkpt>
      <trkpt lat="45.30883" lon="6.15916">
        <ele>2431</ele>
        <time>2020-12-16T10:29:01.000Z</time>
      </trkpt>
      <trkpt lat="45.30885" lon="6.15916">
        <ele>2431.3999023438</ele>
        <time>2020-12-16T10:29:04.000Z</time>
      </trkpt>
      <trkpt lat="45.30887" lon="6.15916">
        <ele>2432.1999511719</ele>
        <time>2020-12-16T10:29:08.000Z</time>
      </trkpt>
      <trkpt lat="45.3089" lon="6.15916">
        <ele>2433</ele>
        <time>2020-12-16T10:29:13.000Z</time>
      </trkpt>
      <trkpt lat="45.3089" lon="6.15916">
        <ele>2433.1999511719</ele>
        <time>2020-12-16T10:29:14.000Z</time>
      </trkpt>
      <trkpt lat="45.30893" lon="6.15916">
        <ele>2434</ele>
        <time>2020-12-16T10:29:19.000Z</time>
      </trkpt>
      <trkpt lat="45.30893" lon="6.15917">
        <ele>2434.1999511719</ele>
        <time>2020-12-16T10:29:20.000Z</time>
      </trkpt>
      <trkpt lat="45.30895" lon="6.15915">
        <ele>2435.3999023438</ele>
        <time>2020-12-16T10:29:26.000Z</time>
      </trkpt>
      <trkpt lat="45.30897" lon="6.15914">
        <ele>2436.6000976562</ele>
        <time>2020-12-16T10:29:32.000Z</time>
      </trkpt>
      <trkpt lat="45.30897" lon="6.15913">
        <ele>2437.1999511719</ele>
        <time>2020-12-16T10:29:35.000Z</time>
      </trkpt>
      <trkpt lat="45.30898" lon="6.15911">
        <ele>2437.6000976562</ele>
        <time>2020-12-16T10:29:38.000Z</time>
      </trkpt>
      <trkpt lat="45.309" lon="6.15907">
        <ele>2438.8000488281</ele>
        <time>2020-12-16T10:29:45.000Z</time>
      </trkpt>
      <trkpt lat="45.30901" lon="6.15901">
        <ele>2440</ele>
        <time>2020-12-16T10:29:53.000Z</time>
      </trkpt>
      <trkpt lat="45.30901" lon="6.15899">
        <ele>2440.1999511719</ele>
        <time>2020-12-16T10:29:55.000Z</time>
      </trkpt>
      <trkpt lat="45.30902" lon="6.15896">
        <ele>2441</ele>
        <time>2020-12-16T10:30:00.000Z</time>
      </trkpt>
      <trkpt lat="45.30901" lon="6.15894">
        <ele>2441.6000976562</ele>
        <time>2020-12-16T10:30:03.000Z</time>
      </trkpt>
      <trkpt lat="45.30903" lon="6.15891">
        <ele>2442</ele>
        <time>2020-12-16T10:30:06.000Z</time>
      </trkpt>
      <trkpt lat="45.30905" lon="6.15884">
        <ele>2443</ele>
        <time>2020-12-16T10:30:13.000Z</time>
      </trkpt>
      <trkpt lat="45.30906" lon="6.15883">
        <ele>2443.1999511719</ele>
        <time>2020-12-16T10:30:14.000Z</time>
      </trkpt>
      <trkpt lat="45.30906" lon="6.15875">
        <ele>2444.3999023438</ele>
        <time>2020-12-16T10:30:21.000Z</time>
      </trkpt>
      <trkpt lat="45.30906" lon="6.15874">
        <ele>2444.3999023438</ele>
        <time>2020-12-16T10:30:22.000Z</time>
      </trkpt>
      <trkpt lat="45.30906" lon="6.1587">
        <ele>2445.3999023438</ele>
        <time>2020-12-16T10:30:29.000Z</time>
      </trkpt>
      <trkpt lat="45.30909" lon="6.15867">
        <ele>2446.3999023438</ele>
        <time>2020-12-16T10:30:36.000Z</time>
      </trkpt>
      <trkpt lat="45.3091" lon="6.15865">
        <ele>2447</ele>
        <time>2020-12-16T10:30:39.000Z</time>
      </trkpt>
      <trkpt lat="45.30912" lon="6.15863">
        <ele>2447.3999023438</ele>
        <time>2020-12-16T10:30:43.000Z</time>
      </trkpt>
      <trkpt lat="45.30914" lon="6.15859">
        <ele>2448.3999023438</ele>
        <time>2020-12-16T10:30:48.000Z</time>
      </trkpt>
      <trkpt lat="45.30914" lon="6.15859">
        <ele>2448.3999023438</ele>
        <time>2020-12-16T10:30:49.000Z</time>
      </trkpt>
      <trkpt lat="45.30918" lon="6.15855">
        <ele>2449.6000976562</ele>
        <time>2020-12-16T10:30:56.000Z</time>
      </trkpt>
      <trkpt lat="45.30918" lon="6.15854">
        <ele>2449.6000976562</ele>
        <time>2020-12-16T10:30:57.000Z</time>
      </trkpt>
      <trkpt lat="45.30923" lon="6.1585">
        <ele>2450.6000976562</ele>
        <time>2020-12-16T10:31:04.000Z</time>
      </trkpt>
      <trkpt lat="45.30925" lon="6.15845">
        <ele>2451.1999511719</ele>
        <time>2020-12-16T10:31:10.000Z</time>
      </trkpt>
      <trkpt lat="45.30926" lon="6.15843">
        <ele>2451.6000976562</ele>
        <time>2020-12-16T10:31:13.000Z</time>
      </trkpt>
      <trkpt lat="45.3093" lon="6.1584">
        <ele>2452.8000488281</ele>
        <time>2020-12-16T10:31:20.000Z</time>
      </trkpt>
      <trkpt lat="45.30931" lon="6.15839">
        <ele>2453.8000488281</ele>
        <time>2020-12-16T10:31:22.000Z</time>
      </trkpt>
      <trkpt lat="45.30934" lon="6.15835">
        <ele>2453.8000488281</ele>
        <time>2020-12-16T10:31:30.000Z</time>
      </trkpt>
      <trkpt lat="45.30936" lon="6.15831">
        <ele>2455</ele>
        <time>2020-12-16T10:31:37.000Z</time>
      </trkpt>
      <trkpt lat="45.30937" lon="6.15828">
        <ele>2455.6000976562</ele>
        <time>2020-12-16T10:31:41.000Z</time>
      </trkpt>
      <trkpt lat="45.30938" lon="6.15826">
        <ele>2456</ele>
        <time>2020-12-16T10:31:44.000Z</time>
      </trkpt>
      <trkpt lat="45.3094" lon="6.15823">
        <ele>2457</ele>
        <time>2020-12-16T10:31:51.000Z</time>
      </trkpt>
      <trkpt lat="45.3094" lon="6.15823">
        <ele>2457.1999511719</ele>
        <time>2020-12-16T10:31:52.000Z</time>
      </trkpt>
      <trkpt lat="45.3094" lon="6.15819">
        <ele>2458.3999023438</ele>
        <time>2020-12-16T10:31:58.000Z</time>
      </trkpt>
      <trkpt lat="45.30941" lon="6.15817">
        <ele>2459.1999511719</ele>
        <time>2020-12-16T10:32:03.000Z</time>
      </trkpt>
      <trkpt lat="45.30941" lon="6.15816">
        <ele>2459.6000976562</ele>
        <time>2020-12-16T10:32:05.000Z</time>
      </trkpt>
      <trkpt lat="45.30942" lon="6.15813">
        <ele>2460.3999023438</ele>
        <time>2020-12-16T10:32:11.000Z</time>
      </trkpt>
      <trkpt lat="45.30942" lon="6.15812">
        <ele>2460.6000976562</ele>
        <time>2020-12-16T10:32:12.000Z</time>
      </trkpt>
      <trkpt lat="45.30943" lon="6.15808">
        <ele>2461.6000976562</ele>
        <time>2020-12-16T10:32:18.000Z</time>
      </trkpt>
      <trkpt lat="45.30944" lon="6.15806">
        <ele>2462.3999023438</ele>
        <time>2020-12-16T10:32:22.000Z</time>
      </trkpt>
      <trkpt lat="45.30944" lon="6.15805">
        <ele>2462.8000488281</ele>
        <time>2020-12-16T10:32:24.000Z</time>
      </trkpt>
      <trkpt lat="45.30945" lon="6.158">
        <ele>2463.8000488281</ele>
        <time>2020-12-16T10:32:30.000Z</time>
      </trkpt>
      <trkpt lat="45.30946" lon="6.158">
        <ele>2464</ele>
        <time>2020-12-16T10:32:31.000Z</time>
      </trkpt>
      <trkpt lat="45.30946" lon="6.15796">
        <ele>2464.8000488281</ele>
        <time>2020-12-16T10:32:36.000Z</time>
      </trkpt>
      <trkpt lat="45.30947" lon="6.15794">
        <ele>2465.3999023438</ele>
        <time>2020-12-16T10:32:39.000Z</time>
      </trkpt>
      <trkpt lat="45.30947" lon="6.15792">
        <ele>2466</ele>
        <time>2020-12-16T10:32:42.000Z</time>
      </trkpt>
      <trkpt lat="45.30948" lon="6.15784">
        <ele>2466.8000488281</ele>
        <time>2020-12-16T10:32:48.000Z</time>
      </trkpt>
      <trkpt lat="45.30949" lon="6.15782">
        <ele>2467</ele>
        <time>2020-12-16T10:32:50.000Z</time>
      </trkpt>
      <trkpt lat="45.3095" lon="6.1578">
        <ele>2467.8000488281</ele>
        <time>2020-12-16T10:32:56.000Z</time>
      </trkpt>
      <trkpt lat="45.3095" lon="6.15778">
        <ele>2468.1999511719</ele>
        <time>2020-12-16T10:32:59.000Z</time>
      </trkpt>
      <trkpt lat="45.30953" lon="6.15773">
        <ele>2469.1999511719</ele>
        <time>2020-12-16T10:33:07.000Z</time>
      </trkpt>
      <trkpt lat="45.30958" lon="6.15765">
        <ele>2470.1999511719</ele>
        <time>2020-12-16T10:33:17.000Z</time>
      </trkpt>
      <trkpt lat="45.30958" lon="6.15764">
        <ele>2470.3999023438</ele>
        <time>2020-12-16T10:33:18.000Z</time>
      </trkpt>
      <trkpt lat="45.3096" lon="6.15759">
        <ele>2471.1999511719</ele>
        <time>2020-12-16T10:33:25.000Z</time>
      </trkpt>
      <trkpt lat="45.30961" lon="6.15758">
        <ele>2471.6000976562</ele>
        <time>2020-12-16T10:33:27.000Z</time>
      </trkpt>
      <trkpt lat="45.30964" lon="6.15754">
        <ele>2472.3999023438</ele>
        <time>2020-12-16T10:33:32.000Z</time>
      </trkpt>
      <trkpt lat="45.30965" lon="6.15751">
        <ele>2473.1999511719</ele>
        <time>2020-12-16T10:33:36.000Z</time>
      </trkpt>
      <trkpt lat="45.30965" lon="6.1575">
        <ele>2473.3999023438</ele>
        <time>2020-12-16T10:33:38.000Z</time>
      </trkpt>
      <trkpt lat="45.30966" lon="6.15746">
        <ele>2474.3999023438</ele>
        <time>2020-12-16T10:33:45.000Z</time>
      </trkpt>
      <trkpt lat="45.30966" lon="6.15745">
        <ele>2474.6000976562</ele>
        <time>2020-12-16T10:33:46.000Z</time>
      </trkpt>
      <trkpt lat="45.30969" lon="6.15742">
        <ele>2475.6000976562</ele>
        <time>2020-12-16T10:33:54.000Z</time>
      </trkpt>
      <trkpt lat="45.30969" lon="6.15742">
        <ele>2475.8000488281</ele>
        <time>2020-12-16T10:33:55.000Z</time>
      </trkpt>
      <trkpt lat="45.3097" lon="6.15739">
        <ele>2476.8000488281</ele>
        <time>2020-12-16T10:34:01.000Z</time>
      </trkpt>
      <trkpt lat="45.3097" lon="6.15738">
        <ele>2477</ele>
        <time>2020-12-16T10:34:03.000Z</time>
      </trkpt>
      <trkpt lat="45.30971" lon="6.15735">
        <ele>2477.8000488281</ele>
        <time>2020-12-16T10:34:09.000Z</time>
      </trkpt>
      <trkpt lat="45.30971" lon="6.15733">
        <ele>2478.8000488281</ele>
        <time>2020-12-16T10:34:15.000Z</time>
      </trkpt>
      <trkpt lat="45.30971" lon="6.15733">
        <ele>2479</ele>
        <time>2020-12-16T10:34:16.000Z</time>
      </trkpt>
      <trkpt lat="45.30973" lon="6.1573">
        <ele>2480.1999511719</ele>
        <time>2020-12-16T10:34:22.000Z</time>
      </trkpt>
      <trkpt lat="45.30973" lon="6.15727">
        <ele>2480.3999023438</ele>
        <time>2020-12-16T10:34:24.000Z</time>
      </trkpt>
      <trkpt lat="45.30975" lon="6.15723">
        <ele>2481.1999511719</ele>
        <time>2020-12-16T10:34:30.000Z</time>
      </trkpt>
      <trkpt lat="45.30975" lon="6.15722">
        <ele>2482</ele>
        <time>2020-12-16T10:34:36.000Z</time>
      </trkpt>
      <trkpt lat="45.30975" lon="6.15722">
        <ele>2482.1999511719</ele>
        <time>2020-12-16T10:34:38.000Z</time>
      </trkpt>
      <trkpt lat="45.30975" lon="6.15722">
        <ele>2483.3999023438</ele>
        <time>2020-12-16T10:34:45.000Z</time>
      </trkpt>
      <trkpt lat="45.3098" lon="6.15724">
        <ele>2484.3999023438</ele>
        <time>2020-12-16T10:34:51.000Z</time>
      </trkpt>
      <trkpt lat="45.3098" lon="6.15725">
        <ele>2484.6000976562</ele>
        <time>2020-12-16T10:34:52.000Z</time>
      </trkpt>
      <trkpt lat="45.30984" lon="6.15727">
        <ele>2485.6000976562</ele>
        <time>2020-12-16T10:34:57.000Z</time>
      </trkpt>
      <trkpt lat="45.30988" lon="6.15729">
        <ele>2486.6000976562</ele>
        <time>2020-12-16T10:35:04.000Z</time>
      </trkpt>
      <trkpt lat="45.30988" lon="6.15729">
        <ele>2487</ele>
        <time>2020-12-16T10:35:06.000Z</time>
      </trkpt>
      <trkpt lat="45.30991" lon="6.15731">
        <ele>2488</ele>
        <time>2020-12-16T10:35:10.000Z</time>
      </trkpt>
      <trkpt lat="45.30992" lon="6.15731">
        <ele>2488.8000488281</ele>
        <time>2020-12-16T10:35:16.000Z</time>
      </trkpt>
      <trkpt lat="45.30993" lon="6.1573">
        <ele>2489</ele>
        <time>2020-12-16T10:35:17.000Z</time>
      </trkpt>
      <trkpt lat="45.30997" lon="6.15726">
        <ele>2490.1999511719</ele>
        <time>2020-12-16T10:35:22.000Z</time>
      </trkpt>
      <trkpt lat="45.30997" lon="6.15724">
        <ele>2490.3999023438</ele>
        <time>2020-12-16T10:35:24.000Z</time>
      </trkpt>
      <trkpt lat="45.30998" lon="6.15718">
        <ele>2491.1999511719</ele>
        <time>2020-12-16T10:35:29.000Z</time>
      </trkpt>
      <trkpt lat="45.31" lon="6.15718">
        <ele>2492.1999511719</ele>
        <time>2020-12-16T10:35:34.000Z</time>
      </trkpt>
      <trkpt lat="45.31" lon="6.15718">
        <ele>2492.3999023438</ele>
        <time>2020-12-16T10:35:35.000Z</time>
      </trkpt>
      <trkpt lat="45.31003" lon="6.15715">
        <ele>2493.3999023438</ele>
        <time>2020-12-16T10:35:43.000Z</time>
      </trkpt>
      <trkpt lat="45.31003" lon="6.15715">
        <ele>2493.3999023438</ele>
        <time>2020-12-16T10:35:44.000Z</time>
      </trkpt>
      <trkpt lat="45.31003" lon="6.15709">
        <ele>2494.6000976562</ele>
        <time>2020-12-16T10:35:52.000Z</time>
      </trkpt>
      <trkpt lat="45.31004" lon="6.15708">
        <ele>2494.8000488281</ele>
        <time>2020-12-16T10:35:54.000Z</time>
      </trkpt>
      <trkpt lat="45.31004" lon="6.15706">
        <ele>2495.6000976562</ele>
        <time>2020-12-16T10:36:00.000Z</time>
      </trkpt>
      <trkpt lat="45.31004" lon="6.15703">
        <ele>2496.3999023438</ele>
        <time>2020-12-16T10:36:05.000Z</time>
      </trkpt>
      <trkpt lat="45.31004" lon="6.15702">
        <ele>2496.8000488281</ele>
        <time>2020-12-16T10:36:07.000Z</time>
      </trkpt>
      <trkpt lat="45.31005" lon="6.15697">
        <ele>2497.8000488281</ele>
        <time>2020-12-16T10:36:15.000Z</time>
      </trkpt>
      <trkpt lat="45.31005" lon="6.15695">
        <ele>2498.8000488281</ele>
        <time>2020-12-16T10:36:23.000Z</time>
      </trkpt>
      <trkpt lat="45.31005" lon="6.15695">
        <ele>2499</ele>
        <time>2020-12-16T10:36:24.000Z</time>
      </trkpt>
      <trkpt lat="45.31006" lon="6.15691">
        <ele>2500</ele>
        <time>2020-12-16T10:36:30.000Z</time>
      </trkpt>
      <trkpt lat="45.31007" lon="6.15691">
        <ele>2500</ele>
        <time>2020-12-16T10:36:31.000Z</time>
      </trkpt>
      <trkpt lat="45.31006" lon="6.15686">
        <ele>2501</ele>
        <time>2020-12-16T10:36:39.000Z</time>
      </trkpt>
      <trkpt lat="45.31006" lon="6.15685">
        <ele>2501.1999511719</ele>
        <time>2020-12-16T10:36:40.000Z</time>
      </trkpt>
      <trkpt lat="45.31006" lon="6.1568">
        <ele>2502.3999023438</ele>
        <time>2020-12-16T10:36:46.000Z</time>
      </trkpt>
      <trkpt lat="45.31008" lon="6.15678">
        <ele>2502.6000976562</ele>
        <time>2020-12-16T10:36:48.000Z</time>
      </trkpt>
      <trkpt lat="45.31008" lon="6.15676">
        <ele>2503.3999023438</ele>
        <time>2020-12-16T10:36:52.000Z</time>
      </trkpt>
      <trkpt lat="45.31008" lon="6.15675">
        <ele>2504.1999511719</ele>
        <time>2020-12-16T10:36:57.000Z</time>
      </trkpt>
      <trkpt lat="45.31008" lon="6.15675">
        <ele>2504.3999023438</ele>
        <time>2020-12-16T10:36:58.000Z</time>
      </trkpt>
      <trkpt lat="45.31008" lon="6.15675">
        <ele>2505.3999023438</ele>
        <time>2020-12-16T10:37:05.000Z</time>
      </trkpt>
      <trkpt lat="45.31008" lon="6.15675">
        <ele>2506.3999023438</ele>
        <time>2020-12-16T10:37:10.000Z</time>
      </trkpt>
      <trkpt lat="45.31008" lon="6.15675">
        <ele>2507.1999511719</ele>
        <time>2020-12-16T10:37:15.000Z</time>
      </trkpt>
      <trkpt lat="45.31008" lon="6.15675">
        <ele>2507.3999023438</ele>
        <time>2020-12-16T10:37:17.000Z</time>
      </trkpt>
      <trkpt lat="45.31008" lon="6.15675">
        <ele>2508.3999023438</ele>
        <time>2020-12-16T10:37:23.000Z</time>
      </trkpt>
      <trkpt lat="45.31008" lon="6.15675">
        <ele>2508.6000976562</ele>
        <time>2020-12-16T10:37:25.000Z</time>
      </trkpt>
      <trkpt lat="45.31008" lon="6.15675">
        <ele>2509.6000976562</ele>
        <time>2020-12-16T10:37:32.000Z</time>
      </trkpt>
      <trkpt lat="45.31008" lon="6.15675">
        <ele>2510.6000976562</ele>
        <time>2020-12-16T10:37:37.000Z</time>
      </trkpt>
      <trkpt lat="45.31008" lon="6.15675">
        <ele>2511.1999511719</ele>
        <time>2020-12-16T10:37:40.000Z</time>
      </trkpt>
      <trkpt lat="45.31008" lon="6.15675">
        <ele>2511.6000976562</ele>
        <time>2020-12-16T10:37:44.000Z</time>
      </trkpt>
      <trkpt lat="45.31009" lon="6.1567">
        <ele>2512.1999511719</ele>
        <time>2020-12-16T10:37:47.000Z</time>
      </trkpt>
      <trkpt lat="45.31011" lon="6.15666">
        <ele>2512.8000488281</ele>
        <time>2020-12-16T10:37:50.000Z</time>
      </trkpt>
      <trkpt lat="45.31012" lon="6.15664">
        <ele>2513.3999023438</ele>
        <time>2020-12-16T10:37:54.000Z</time>
      </trkpt>
      <trkpt lat="45.31012" lon="6.15664">
        <ele>2513.8000488281</ele>
        <time>2020-12-16T10:37:56.000Z</time>
      </trkpt>
      <trkpt lat="45.31012" lon="6.15664">
        <ele>2515</ele>
        <time>2020-12-16T10:38:00.000Z</time>
      </trkpt>
      <trkpt lat="45.31012" lon="6.15664">
        <ele>2515.1999511719</ele>
        <time>2020-12-16T10:38:02.000Z</time>
      </trkpt>
      <trkpt lat="45.31012" lon="6.15664">
        <ele>2516</ele>
        <time>2020-12-16T10:38:07.000Z</time>
      </trkpt>
      <trkpt lat="45.31011" lon="6.15663">
        <ele>2516.8000488281</ele>
        <time>2020-12-16T10:38:14.000Z</time>
      </trkpt>
      <trkpt lat="45.31011" lon="6.15661">
        <ele>2517</ele>
        <time>2020-12-16T10:38:16.000Z</time>
      </trkpt>
      <trkpt lat="45.31011" lon="6.15661">
        <ele>2518</ele>
        <time>2020-12-16T10:38:22.000Z</time>
      </trkpt>
      <trkpt lat="45.31011" lon="6.15661">
        <ele>2518.1999511719</ele>
        <time>2020-12-16T10:38:23.000Z</time>
      </trkpt>
      <trkpt lat="45.31011" lon="6.15661">
        <ele>2519</ele>
        <time>2020-12-16T10:38:30.000Z</time>
      </trkpt>
      <trkpt lat="45.31011" lon="6.15661">
        <ele>2519.1999511719</ele>
        <time>2020-12-16T10:38:31.000Z</time>
      </trkpt>
      <trkpt lat="45.31011" lon="6.15661">
        <ele>2520.1999511719</ele>
        <time>2020-12-16T10:38:38.000Z</time>
      </trkpt>
      <trkpt lat="45.31011" lon="6.15661">
        <ele>2520.6000976562</ele>
        <time>2020-12-16T10:38:40.000Z</time>
      </trkpt>
      <trkpt lat="45.31009" lon="6.15658">
        <ele>2521.3999023438</ele>
        <time>2020-12-16T10:38:45.000Z</time>
      </trkpt>
      <trkpt lat="45.3101" lon="6.15655">
        <ele>2522</ele>
        <time>2020-12-16T10:38:49.000Z</time>
      </trkpt>
      <trkpt lat="45.3101" lon="6.15655">
        <ele>2522.3999023438</ele>
        <time>2020-12-16T10:38:52.000Z</time>
      </trkpt>
      <trkpt lat="45.3101" lon="6.15649">
        <ele>2523.3999023438</ele>
        <time>2020-12-16T10:38:58.000Z</time>
      </trkpt>
      <trkpt lat="45.3101" lon="6.15649">
        <ele>2523.6000976562</ele>
        <time>2020-12-16T10:38:59.000Z</time>
      </trkpt>
      <trkpt lat="45.31011" lon="6.15641">
        <ele>2524.6000976562</ele>
        <time>2020-12-16T10:39:05.000Z</time>
      </trkpt>
      <trkpt lat="45.31011" lon="6.15641">
        <ele>2524.8000488281</ele>
        <time>2020-12-16T10:39:06.000Z</time>
      </trkpt>
      <trkpt lat="45.31015" lon="6.15628">
        <ele>2525.6000976562</ele>
        <time>2020-12-16T10:39:11.000Z</time>
      </trkpt>
      <trkpt lat="45.31017" lon="6.15619">
        <ele>2526.6000976562</ele>
        <time>2020-12-16T10:39:17.000Z</time>
      </trkpt>
      <trkpt lat="45.31017" lon="6.15618">
        <ele>2526.6000976562</ele>
        <time>2020-12-16T10:39:18.000Z</time>
      </trkpt>
      <trkpt lat="45.31018" lon="6.15611">
        <ele>2527.8000488281</ele>
        <time>2020-12-16T10:39:26.000Z</time>
      </trkpt>
      <trkpt lat="45.31019" lon="6.15609">
        <ele>2528.8000488281</ele>
        <time>2020-12-16T10:39:34.000Z</time>
      </trkpt>
      <trkpt lat="45.31019" lon="6.15605">
        <ele>2529</ele>
        <time>2020-12-16T10:39:36.000Z</time>
      </trkpt>
      <trkpt lat="45.31019" lon="6.15597">
        <ele>2529.8000488281</ele>
        <time>2020-12-16T10:39:44.000Z</time>
      </trkpt>
      <trkpt lat="45.31018" lon="6.15594">
        <ele>2530.3999023438</ele>
        <time>2020-12-16T10:39:47.000Z</time>
      </trkpt>
      <trkpt lat="45.31016" lon="6.15593">
        <ele>2530.8000488281</ele>
        <time>2020-12-16T10:39:50.000Z</time>
      </trkpt>
      <trkpt lat="45.31014" lon="6.1559">
        <ele>2532</ele>
        <time>2020-12-16T10:39:57.000Z</time>
      </trkpt>
      <trkpt lat="45.31013" lon="6.15589">
        <ele>2532.3999023438</ele>
        <time>2020-12-16T10:39:58.000Z</time>
      </trkpt>
      <trkpt lat="45.31013" lon="6.15587">
        <ele>2533</ele>
        <time>2020-12-16T10:40:02.000Z</time>
      </trkpt>
      <trkpt lat="45.31012" lon="6.15585">
        <ele>2534</ele>
        <time>2020-12-16T10:40:07.000Z</time>
      </trkpt>
      <trkpt lat="45.31012" lon="6.15584">
        <ele>2534.1999511719</ele>
        <time>2020-12-16T10:40:08.000Z</time>
      </trkpt>
      <trkpt lat="45.3101" lon="6.15582">
        <ele>2535.1999511719</ele>
        <time>2020-12-16T10:40:15.000Z</time>
      </trkpt>
      <trkpt lat="45.3101" lon="6.1558">
        <ele>2535.3999023438</ele>
        <time>2020-12-16T10:40:16.000Z</time>
      </trkpt>
      <trkpt lat="45.31012" lon="6.15576">
        <ele>2536.3999023438</ele>
        <time>2020-12-16T10:40:21.000Z</time>
      </trkpt>
      <trkpt lat="45.31013" lon="6.1557">
        <ele>2537.1999511719</ele>
        <time>2020-12-16T10:40:24.000Z</time>
      </trkpt>
      <trkpt lat="45.31013" lon="6.15568">
        <ele>2537.3999023438</ele>
        <time>2020-12-16T10:40:25.000Z</time>
      </trkpt>
      <trkpt lat="45.31015" lon="6.1556">
        <ele>2538.3999023438</ele>
        <time>2020-12-16T10:40:32.000Z</time>
      </trkpt>
      <trkpt lat="45.31015" lon="6.1556">
        <ele>2538.8000488281</ele>
        <time>2020-12-16T10:40:34.000Z</time>
      </trkpt>
      <trkpt lat="45.31016" lon="6.15558">
        <ele>2539.6000976562</ele>
        <time>2020-12-16T10:40:38.000Z</time>
      </trkpt>
      <trkpt lat="45.31017" lon="6.15556">
        <ele>2540.1999511719</ele>
        <time>2020-12-16T10:40:42.000Z</time>
      </trkpt>
      <trkpt lat="45.3102" lon="6.1555">
        <ele>2540.6000976562</ele>
        <time>2020-12-16T10:40:47.000Z</time>
      </trkpt>
      <trkpt lat="45.31021" lon="6.15548">
        <ele>2541.1999511719</ele>
        <time>2020-12-16T10:40:50.000Z</time>
      </trkpt>
      <trkpt lat="45.31022" lon="6.15548">
        <ele>2541.6000976562</ele>
        <time>2020-12-16T10:40:53.000Z</time>
      </trkpt>
      <trkpt lat="45.31023" lon="6.15546">
        <ele>2542.1999511719</ele>
        <time>2020-12-16T10:40:56.000Z</time>
      </trkpt>
      <trkpt lat="45.31024" lon="6.15545">
        <ele>2542.8000488281</ele>
        <time>2020-12-16T10:40:59.000Z</time>
      </trkpt>
      <trkpt lat="45.31026" lon="6.15545">
        <ele>2543.6000976562</ele>
        <time>2020-12-16T10:41:05.000Z</time>
      </trkpt>
      <trkpt lat="45.31026" lon="6.15545">
        <ele>2543.8000488281</ele>
        <time>2020-12-16T10:41:06.000Z</time>
      </trkpt>
      <trkpt lat="45.31026" lon="6.15546">
        <ele>2544.8000488281</ele>
        <time>2020-12-16T10:41:11.000Z</time>
      </trkpt>
      <trkpt lat="45.31024" lon="6.15547">
        <ele>2545.8000488281</ele>
        <time>2020-12-16T10:41:18.000Z</time>
      </trkpt>
      <trkpt lat="45.31023" lon="6.15547">
        <ele>2546</ele>
        <time>2020-12-16T10:41:19.000Z</time>
      </trkpt>
      <trkpt lat="45.31022" lon="6.15544">
        <ele>2547</ele>
        <time>2020-12-16T10:41:27.000Z</time>
      </trkpt>
      <trkpt lat="45.31022" lon="6.15544">
        <ele>2547.6000976562</ele>
        <time>2020-12-16T10:41:30.000Z</time>
      </trkpt>
      <trkpt lat="45.3102" lon="6.15545">
        <ele>2548.3999023438</ele>
        <time>2020-12-16T10:41:34.000Z</time>
      </trkpt>
      <trkpt lat="45.31017" lon="6.15548">
        <ele>2549</ele>
        <time>2020-12-16T10:41:39.000Z</time>
      </trkpt>
      <trkpt lat="45.31014" lon="6.1555">
        <ele>2549.3999023438</ele>
        <time>2020-12-16T10:41:42.000Z</time>
      </trkpt>
      <trkpt lat="45.31008" lon="6.15554">
        <ele>2550.6000976562</ele>
        <time>2020-12-16T10:41:49.000Z</time>
      </trkpt>
      <trkpt lat="45.31006" lon="6.15554">
        <ele>2550.8000488281</ele>
        <time>2020-12-16T10:41:51.000Z</time>
      </trkpt>
      <trkpt lat="45.31001" lon="6.15555">
        <ele>2551.6000976562</ele>
        <time>2020-12-16T10:41:56.000Z</time>
      </trkpt>
      <trkpt lat="45.31" lon="6.15555">
        <ele>2552.6000976562</ele>
        <time>2020-12-16T10:42:00.000Z</time>
      </trkpt>
      <trkpt lat="45.31" lon="6.15554">
        <ele>2552.8000488281</ele>
        <time>2020-12-16T10:42:01.000Z</time>
      </trkpt>
      <trkpt lat="45.31" lon="6.15553">
        <ele>2553.8000488281</ele>
        <time>2020-12-16T10:42:07.000Z</time>
      </trkpt>
      <trkpt lat="45.31001" lon="6.15553">
        <ele>2554.3999023438</ele>
        <time>2020-12-16T10:42:10.000Z</time>
      </trkpt>
      <trkpt lat="45.31002" lon="6.15551">
        <ele>2554.8000488281</ele>
        <time>2020-12-16T10:42:13.000Z</time>
      </trkpt>
      <trkpt lat="45.31014" lon="6.15521">
        <ele>2556</ele>
        <time>2020-12-16T10:42:20.000Z</time>
      </trkpt>
      <trkpt lat="45.31018" lon="6.15512">
        <ele>2557</ele>
        <time>2020-12-16T10:42:25.000Z</time>
      </trkpt>
      <trkpt lat="45.31018" lon="6.15512">
        <ele>2557.1999511719</ele>
        <time>2020-12-16T10:42:26.000Z</time>
      </trkpt>
      <trkpt lat="45.31019" lon="6.15511">
        <ele>2558.1999511719</ele>
        <time>2020-12-16T10:42:32.000Z</time>
      </trkpt>
      <trkpt lat="45.31019" lon="6.15511">
        <ele>2558.1999511719</ele>
        <time>2020-12-16T10:42:33.000Z</time>
      </trkpt>
      <trkpt lat="45.3102" lon="6.1551">
        <ele>2559.1999511719</ele>
        <time>2020-12-16T10:42:39.000Z</time>
      </trkpt>
      <trkpt lat="45.3102" lon="6.1551">
        <ele>2559.3999023438</ele>
        <time>2020-12-16T10:42:41.000Z</time>
      </trkpt>
      <trkpt lat="45.31022" lon="6.15509">
        <ele>2560.3999023438</ele>
        <time>2020-12-16T10:42:48.000Z</time>
      </trkpt>
      <trkpt lat="45.31024" lon="6.1551">
        <ele>2561</ele>
        <time>2020-12-16T10:42:54.000Z</time>
      </trkpt>
      <trkpt lat="45.31025" lon="6.15506">
        <ele>2561.3999023438</ele>
        <time>2020-12-16T10:43:00.000Z</time>
      </trkpt>
      <trkpt lat="45.31025" lon="6.15505">
        <ele>2562</ele>
        <time>2020-12-16T10:43:04.000Z</time>
      </trkpt>
      <trkpt lat="45.31025" lon="6.15505">
        <ele>2562.6000976562</ele>
        <time>2020-12-16T10:43:08.000Z</time>
      </trkpt>
      <trkpt lat="45.31025" lon="6.15505">
        <ele>2563.1999511719</ele>
        <time>2020-12-16T10:43:11.000Z</time>
      </trkpt>
      <trkpt lat="45.31025" lon="6.15505">
        <ele>2563.6000976562</ele>
        <time>2020-12-16T10:43:14.000Z</time>
      </trkpt>
      <trkpt lat="45.31025" lon="6.15505">
        <ele>2564.1999511719</ele>
        <time>2020-12-16T10:43:21.000Z</time>
      </trkpt>
      <trkpt lat="45.31025" lon="6.15505">
        <ele>2564.6000976562</ele>
        <time>2020-12-16T10:43:24.000Z</time>
      </trkpt>
      <trkpt lat="45.31026" lon="6.15501">
        <ele>2565.1999511719</ele>
        <time>2020-12-16T10:43:29.000Z</time>
      </trkpt>
      <trkpt lat="45.31026" lon="6.15499">
        <ele>2565.6000976562</ele>
        <time>2020-12-16T10:43:31.000Z</time>
      </trkpt>
      <trkpt lat="45.31026" lon="6.15494">
        <ele>2566.8000488281</ele>
        <time>2020-12-16T10:43:37.000Z</time>
      </trkpt>
      <trkpt lat="45.31026" lon="6.15493">
        <ele>2567</ele>
        <time>2020-12-16T10:43:38.000Z</time>
      </trkpt>
      <trkpt lat="45.31026" lon="6.1549">
        <ele>2567.8000488281</ele>
        <time>2020-12-16T10:43:44.000Z</time>
      </trkpt>
      <trkpt lat="45.31026" lon="6.1549">
        <ele>2568</ele>
        <time>2020-12-16T10:43:45.000Z</time>
      </trkpt>
      <trkpt lat="45.31026" lon="6.1549">
        <ele>2568.8000488281</ele>
        <time>2020-12-16T10:43:55.000Z</time>
      </trkpt>
      <trkpt lat="45.31026" lon="6.1549">
        <ele>2568.8000488281</ele>
        <time>2020-12-16T10:43:56.000Z</time>
      </trkpt>
      <trkpt lat="45.31026" lon="6.1549">
        <ele>2569.6000976562</ele>
        <time>2020-12-16T10:44:03.000Z</time>
      </trkpt>
      <trkpt lat="45.31026" lon="6.1549">
        <ele>2569.8000488281</ele>
        <time>2020-12-16T10:44:04.000Z</time>
      </trkpt>
      <trkpt lat="45.31026" lon="6.1549">
        <ele>2570.3999023438</ele>
        <time>2020-12-16T10:44:10.000Z</time>
      </trkpt>
      <trkpt lat="45.31026" lon="6.1549">
        <ele>2570.8000488281</ele>
        <time>2020-12-16T10:44:15.000Z</time>
      </trkpt>
      <trkpt lat="45.31026" lon="6.1549">
        <ele>2571.1999511719</ele>
        <time>2020-12-16T10:44:17.000Z</time>
      </trkpt>
      <trkpt lat="45.31026" lon="6.15489">
        <ele>2572</ele>
        <time>2020-12-16T10:44:22.000Z</time>
      </trkpt>
      <trkpt lat="45.31026" lon="6.15489">
        <ele>2572.8000488281</ele>
        <time>2020-12-16T10:44:27.000Z</time>
      </trkpt>
      <trkpt lat="45.31026" lon="6.15489">
        <ele>2573</ele>
        <time>2020-12-16T10:44:28.000Z</time>
      </trkpt>
      <trkpt lat="45.31026" lon="6.15489">
        <ele>2573.8000488281</ele>
        <time>2020-12-16T10:44:35.000Z</time>
      </trkpt>
      <trkpt lat="45.31026" lon="6.15489">
        <ele>2574</ele>
        <time>2020-12-16T10:44:36.000Z</time>
      </trkpt>
      <trkpt lat="45.31026" lon="6.15489">
        <ele>2574.8000488281</ele>
        <time>2020-12-16T10:44:43.000Z</time>
      </trkpt>
      <trkpt lat="45.31026" lon="6.15489">
        <ele>2575</ele>
        <time>2020-12-16T10:44:45.000Z</time>
      </trkpt>
      <trkpt lat="45.31026" lon="6.15487">
        <ele>2576</ele>
        <time>2020-12-16T10:44:50.000Z</time>
      </trkpt>
      <trkpt lat="45.31027" lon="6.15486">
        <ele>2576.1999511719</ele>
        <time>2020-12-16T10:44:51.000Z</time>
      </trkpt>
      <trkpt lat="45.31028" lon="6.15481">
        <ele>2576.6000976562</ele>
        <time>2020-12-16T10:44:57.000Z</time>
      </trkpt>
      <trkpt lat="45.3103" lon="6.15474">
        <ele>2576.8000488281</ele>
        <time>2020-12-16T10:45:04.000Z</time>
      </trkpt>
      <trkpt lat="45.31033" lon="6.15469">
        <ele>2577.1999511719</ele>
        <time>2020-12-16T10:45:08.000Z</time>
      </trkpt>
      <trkpt lat="45.31034" lon="6.15465">
        <ele>2577.3999023438</ele>
        <time>2020-12-16T10:45:10.000Z</time>
      </trkpt>
      <trkpt lat="45.31036" lon="6.15458">
        <ele>2578.1999511719</ele>
        <time>2020-12-16T10:45:16.000Z</time>
      </trkpt>
      <trkpt lat="45.31036" lon="6.15456">
        <ele>2578.6000976562</ele>
        <time>2020-12-16T10:45:18.000Z</time>
      </trkpt>
      <trkpt lat="45.31036" lon="6.15456">
        <ele>2579.3999023438</ele>
        <time>2020-12-16T10:45:25.000Z</time>
      </trkpt>
      <trkpt lat="45.31036" lon="6.15456">
        <ele>2579.6000976562</ele>
        <time>2020-12-16T10:45:27.000Z</time>
      </trkpt>
      <trkpt lat="45.31036" lon="6.15456">
        <ele>2580.1999511719</ele>
        <time>2020-12-16T10:45:33.000Z</time>
      </trkpt>
      <trkpt lat="45.31036" lon="6.15456">
        <ele>2580.3999023438</ele>
        <time>2020-12-16T10:45:37.000Z</time>
      </trkpt>
      <trkpt lat="45.31036" lon="6.15456">
        <ele>2580.6000976562</ele>
        <time>2020-12-16T10:45:43.000Z</time>
      </trkpt>
      <trkpt lat="45.31032" lon="6.15458">
        <ele>2581</ele>
        <time>2020-12-16T10:45:50.000Z</time>
      </trkpt>
      <trkpt lat="45.31031" lon="6.15458">
        <ele>2581.6000976562</ele>
        <time>2020-12-16T10:45:55.000Z</time>
      </trkpt>
      <trkpt lat="45.31031" lon="6.15458">
        <ele>2581.8000488281</ele>
        <time>2020-12-16T10:45:58.000Z</time>
      </trkpt>
      <trkpt lat="45.31031" lon="6.15458">
        <ele>2582</ele>
        <time>2020-12-16T10:46:08.000Z</time>
      </trkpt>
      <trkpt lat="45.31031" lon="6.15458">
        <ele>2582</ele>
        <time>2020-12-16T10:46:20.000Z</time>
      </trkpt>
      <trkpt lat="45.31031" lon="6.15458">
        <ele>2582</ele>
        <time>2020-12-16T10:46:22.000Z</time>
      </trkpt>
      <trkpt lat="45.31031" lon="6.15458">
        <ele>2582.6000976562</ele>
        <time>2020-12-16T10:46:29.000Z</time>
      </trkpt>
      <trkpt lat="45.31031" lon="6.15457">
        <ele>2583.3999023438</ele>
        <time>2020-12-16T10:46:37.000Z</time>
      </trkpt>
      <trkpt lat="45.31031" lon="6.15456">
        <ele>2583.6000976562</ele>
        <time>2020-12-16T10:46:38.000Z</time>
      </trkpt>
      <trkpt lat="45.31031" lon="6.15452">
        <ele>2584.3999023438</ele>
        <time>2020-12-16T10:46:46.000Z</time>
      </trkpt>
      <trkpt lat="45.31031" lon="6.15452">
        <ele>2584.6000976562</ele>
        <time>2020-12-16T10:46:47.000Z</time>
      </trkpt>
      <trkpt lat="45.31031" lon="6.1545">
        <ele>2585.3999023438</ele>
        <time>2020-12-16T10:46:55.000Z</time>
      </trkpt>
      <trkpt lat="45.3103" lon="6.15448">
        <ele>2585.6000976562</ele>
        <time>2020-12-16T10:47:03.000Z</time>
      </trkpt>
      <trkpt lat="45.3103" lon="6.15448">
        <ele>2585.8000488281</ele>
        <time>2020-12-16T10:47:05.000Z</time>
      </trkpt>
      <trkpt lat="45.31029" lon="6.15447">
        <ele>2586.6000976562</ele>
        <time>2020-12-16T10:47:11.000Z</time>
      </trkpt>
      <trkpt lat="45.31028" lon="6.15446">
        <ele>2586.8000488281</ele>
        <time>2020-12-16T10:47:13.000Z</time>
      </trkpt>
      <trkpt lat="45.31026" lon="6.15444">
        <ele>2587.6000976562</ele>
        <time>2020-12-16T10:47:20.000Z</time>
      </trkpt>
      <trkpt lat="45.31026" lon="6.15444">
        <ele>2587.8000488281</ele>
        <time>2020-12-16T10:47:22.000Z</time>
      </trkpt>
      <trkpt lat="45.31026" lon="6.15444">
        <ele>2588.6000976562</ele>
        <time>2020-12-16T10:47:29.000Z</time>
      </trkpt>
      <trkpt lat="45.31026" lon="6.15444">
        <ele>2588.8000488281</ele>
        <time>2020-12-16T10:47:33.000Z</time>
      </trkpt>
      <trkpt lat="45.31026" lon="6.15444">
        <ele>2589</ele>
        <time>2020-12-16T10:47:38.000Z</time>
      </trkpt>
      <trkpt lat="45.31026" lon="6.15443">
        <ele>2589.3999023438</ele>
        <time>2020-12-16T10:47:47.000Z</time>
      </trkpt>
      <trkpt lat="45.31027" lon="6.15442">
        <ele>2589.8000488281</ele>
        <time>2020-12-16T10:47:51.000Z</time>
      </trkpt>
      <trkpt lat="45.31028" lon="6.15441">
        <ele>2590.3999023438</ele>
        <time>2020-12-16T10:47:56.000Z</time>
      </trkpt>
      <trkpt lat="45.31028" lon="6.15441">
        <ele>2590.8000488281</ele>
        <time>2020-12-16T10:47:59.000Z</time>
      </trkpt>
      <trkpt lat="45.31028" lon="6.15442">
        <ele>2591.6000976562</ele>
        <time>2020-12-16T10:48:05.000Z</time>
      </trkpt>
      <trkpt lat="45.31029" lon="6.15442">
        <ele>2591.8000488281</ele>
        <time>2020-12-16T10:48:07.000Z</time>
      </trkpt>
      <trkpt lat="45.31029" lon="6.15442">
        <ele>2592</ele>
        <time>2020-12-16T10:48:08.000Z</time>
      </trkpt>
      <trkpt lat="45.31029" lon="6.15442">
        <ele>2592.3999023438</ele>
        <time>2020-12-16T10:48:12.000Z</time>
      </trkpt>
      <trkpt lat="45.31029" lon="6.15442">
        <ele>2592.8000488281</ele>
        <time>2020-12-16T10:48:21.000Z</time>
      </trkpt>
      <trkpt lat="45.31029" lon="6.15442">
        <ele>2593</ele>
        <time>2020-12-16T10:48:28.000Z</time>
      </trkpt>
      <trkpt lat="45.31029" lon="6.15441">
        <ele>2593.1999511719</ele>
        <time>2020-12-16T10:48:29.000Z</time>
      </trkpt>
      <trkpt lat="45.31028" lon="6.15439">
        <ele>2593.8000488281</ele>
        <time>2020-12-16T10:48:36.000Z</time>
      </trkpt>
      <trkpt lat="45.31028" lon="6.15439">
        <ele>2594</ele>
        <time>2020-12-16T10:48:38.000Z</time>
      </trkpt>
      <trkpt lat="45.31029" lon="6.15438">
        <ele>2594.8000488281</ele>
        <time>2020-12-16T10:48:46.000Z</time>
      </trkpt>
      <trkpt lat="45.31029" lon="6.15438">
        <ele>2595.1999511719</ele>
        <time>2020-12-16T10:48:48.000Z</time>
      </trkpt>
      <trkpt lat="45.31029" lon="6.15438">
        <ele>2596.3999023438</ele>
        <time>2020-12-16T10:48:54.000Z</time>
      </trkpt>
      <trkpt lat="45.31029" lon="6.15438">
        <ele>2596.3999023438</ele>
        <time>2020-12-16T10:49:07.000Z</time>
      </trkpt>
      <trkpt lat="45.31035" lon="6.15435">
        <ele>2596.6000976562</ele>
        <time>2020-12-16T10:49:14.000Z</time>
      </trkpt>
      <trkpt lat="45.31036" lon="6.15434">
        <ele>2596</ele>
        <time>2020-12-16T10:49:21.000Z</time>
      </trkpt>
      <trkpt lat="45.31036" lon="6.15434">
        <ele>2595.3999023438</ele>
        <time>2020-12-16T10:49:34.000Z</time>
      </trkpt>
      <trkpt lat="45.31036" lon="6.15434">
        <ele>2595.6000976562</ele>
        <time>2020-12-16T10:49:47.000Z</time>
      </trkpt>
      <trkpt lat="45.31037" lon="6.15433">
        <ele>2595.8000488281</ele>
        <time>2020-12-16T10:50:01.000Z</time>
      </trkpt>
      <trkpt lat="45.31037" lon="6.15433">
        <ele>2595.8000488281</ele>
        <time>2020-12-16T10:50:07.000Z</time>
      </trkpt>
      <trkpt lat="45.31037" lon="6.15433">
        <ele>2595.8000488281</ele>
        <time>2020-12-16T10:50:20.000Z</time>
      </trkpt>
      <trkpt lat="45.31037" lon="6.15433">
        <ele>2595.8000488281</ele>
        <time>2020-12-16T10:50:31.000Z</time>
      </trkpt>
      <trkpt lat="45.31037" lon="6.15433">
        <ele>2596.3999023438</ele>
        <time>2020-12-16T10:50:40.000Z</time>
      </trkpt>
      <trkpt lat="45.31038" lon="6.15432">
        <ele>2596.3999023438</ele>
        <time>2020-12-16T10:50:47.000Z</time>
      </trkpt>
      <trkpt lat="45.31038" lon="6.15429">
        <ele>2596.3999023438</ele>
        <time>2020-12-16T10:50:53.000Z</time>
      </trkpt>
      <trkpt lat="45.31038" lon="6.15428">
        <ele>2596.8000488281</ele>
        <time>2020-12-16T10:51:01.000Z</time>
      </trkpt>
      <trkpt lat="45.31039" lon="6.15429">
        <ele>2597.1999511719</ele>
        <time>2020-12-16T10:51:09.000Z</time>
      </trkpt>
      <trkpt lat="45.31039" lon="6.15429">
        <ele>2597.3999023438</ele>
        <time>2020-12-16T10:51:13.000Z</time>
      </trkpt>
      <trkpt lat="45.31041" lon="6.1543">
        <ele>2597.3999023438</ele>
        <time>2020-12-16T10:51:17.000Z</time>
      </trkpt>
      <trkpt lat="45.31041" lon="6.1543">
        <ele>2597.8000488281</ele>
        <time>2020-12-16T10:51:27.000Z</time>
      </trkpt>
      <trkpt lat="45.31041" lon="6.15429">
        <ele>2597.8000488281</ele>
        <time>2020-12-16T10:51:33.000Z</time>
      </trkpt>
      <trkpt lat="45.31041" lon="6.15429">
        <ele>2597.6000976562</ele>
        <time>2020-12-16T10:51:40.000Z</time>
      </trkpt>
      <trkpt lat="45.31041" lon="6.15429">
        <ele>2597.3999023438</ele>
        <time>2020-12-16T10:51:49.000Z</time>
      </trkpt>
      <trkpt lat="45.31041" lon="6.15429">
        <ele>2597.6000976562</ele>
        <time>2020-12-16T10:52:03.000Z</time>
      </trkpt>
      <trkpt lat="45.31041" lon="6.15429">
        <ele>2597.3999023438</ele>
        <time>2020-12-16T10:52:15.000Z</time>
      </trkpt>
      <trkpt lat="45.31041" lon="6.15429">
        <ele>2596.8000488281</ele>
        <time>2020-12-16T10:52:30.000Z</time>
      </trkpt>
      <trkpt lat="45.31041" lon="6.15429">
        <ele>2596.8000488281</ele>
        <time>2020-12-16T10:52:40.000Z</time>
      </trkpt>
      <trkpt lat="45.31041" lon="6.15429">
        <ele>2596.6000976562</ele>
        <time>2020-12-16T10:52:52.000Z</time>
      </trkpt>
      <trkpt lat="45.31041" lon="6.15429">
        <ele>2596.6000976562</ele>
        <time>2020-12-16T10:53:09.000Z</time>
      </trkpt>
      <trkpt lat="45.31041" lon="6.15429">
        <ele>2596.6000976562</ele>
        <time>2020-12-16T10:53:22.000Z</time>
      </trkpt>
      <trkpt lat="45.31041" lon="6.15429">
        <ele>2596.3999023438</ele>
        <time>2020-12-16T10:53:26.000Z</time>
      </trkpt>
      <trkpt lat="45.31041" lon="6.15429">
        <ele>2596.3999023438</ele>
        <time>2020-12-16T10:53:34.000Z</time>
      </trkpt>
      <trkpt lat="45.31041" lon="6.15429">
        <ele>2597</ele>
        <time>2020-12-16T10:53:42.000Z</time>
      </trkpt>
      <trkpt lat="45.31042" lon="6.15429">
        <ele>2597.1999511719</ele>
        <time>2020-12-16T10:53:48.000Z</time>
      </trkpt>
      <trkpt lat="45.31042" lon="6.15429">
        <ele>2596.6000976562</ele>
        <time>2020-12-16T10:54:03.000Z</time>
      </trkpt>
      <trkpt lat="45.31042" lon="6.15429">
        <ele>2596.3999023438</ele>
        <time>2020-12-16T10:54:20.000Z</time>
      </trkpt>
      <trkpt lat="45.31042" lon="6.15429">
        <ele>2596.8000488281</ele>
        <time>2020-12-16T10:54:39.000Z</time>
      </trkpt>
      <trkpt lat="45.31042" lon="6.15429">
        <ele>2597.1999511719</ele>
        <time>2020-12-16T10:54:52.000Z</time>
      </trkpt>
      <trkpt lat="45.31043" lon="6.15429">
        <ele>2596.8000488281</ele>
        <time>2020-12-16T10:54:57.000Z</time>
      </trkpt>
      <trkpt lat="45.31043" lon="6.15429">
        <ele>2597</ele>
        <time>2020-12-16T10:55:05.000Z</time>
      </trkpt>
      <trkpt lat="45.31043" lon="6.15429">
        <ele>2597.3999023438</ele>
        <time>2020-12-16T10:55:11.000Z</time>
      </trkpt>
      <trkpt lat="45.31043" lon="6.15429">
        <ele>2597</ele>
        <time>2020-12-16T10:55:21.000Z</time>
      </trkpt>
      <trkpt lat="45.31043" lon="6.15429">
        <ele>2597.3999023438</ele>
        <time>2020-12-16T10:55:32.000Z</time>
      </trkpt>
      <trkpt lat="45.31043" lon="6.1543">
        <ele>2597.3999023438</ele>
        <time>2020-12-16T10:55:52.000Z</time>
      </trkpt>
      <trkpt lat="45.31043" lon="6.1543">
        <ele>2597.1999511719</ele>
        <time>2020-12-16T10:56:10.000Z</time>
      </trkpt>
      <trkpt lat="45.31043" lon="6.1543">
        <ele>2597.1999511719</ele>
        <time>2020-12-16T10:56:20.000Z</time>
      </trkpt>
      <trkpt lat="45.31043" lon="6.1543">
        <ele>2597.1999511719</ele>
        <time>2020-12-16T10:56:29.000Z</time>
      </trkpt>
      <trkpt lat="45.31043" lon="6.1543">
        <ele>2597.1999511719</ele>
        <time>2020-12-16T10:56:43.000Z</time>
      </trkpt>
      <trkpt lat="45.31043" lon="6.1543">
        <ele>2597</ele>
        <time>2020-12-16T10:57:02.000Z</time>
      </trkpt>
      <trkpt lat="45.31043" lon="6.1543">
        <ele>2597.1999511719</ele>
        <time>2020-12-16T10:57:23.000Z</time>
      </trkpt>
      <trkpt lat="45.31043" lon="6.1543">
        <ele>2596.8000488281</ele>
        <time>2020-12-16T10:57:38.000Z</time>
      </trkpt>
      <trkpt lat="45.31043" lon="6.1543">
        <ele>2596.8000488281</ele>
        <time>2020-12-16T10:57:51.000Z</time>
      </trkpt>
      <trkpt lat="45.31043" lon="6.1543">
        <ele>2596.8000488281</ele>
        <time>2020-12-16T10:58:05.000Z</time>
      </trkpt>
      <trkpt lat="45.31043" lon="6.1543">
        <ele>2597</ele>
        <time>2020-12-16T10:58:08.000Z</time>
      </trkpt>
      <trkpt lat="45.31043" lon="6.1543">
        <ele>2597.3999023438</ele>
        <time>2020-12-16T10:58:30.000Z</time>
      </trkpt>
      <trkpt lat="45.31043" lon="6.1543">
        <ele>2597.6000976562</ele>
        <time>2020-12-16T10:58:53.000Z</time>
      </trkpt>
      <trkpt lat="45.31043" lon="6.1543">
        <ele>2597.3999023438</ele>
        <time>2020-12-16T10:59:13.000Z</time>
      </trkpt>
      <trkpt lat="45.31043" lon="6.1543">
        <ele>2597.6000976562</ele>
        <time>2020-12-16T10:59:35.000Z</time>
      </trkpt>
      <trkpt lat="45.31044" lon="6.1543">
        <ele>2598</ele>
        <time>2020-12-16T10:59:52.000Z</time>
      </trkpt>
      <trkpt lat="45.31044" lon="6.1543">
        <ele>2598</ele>
        <time>2020-12-16T10:59:59.000Z</time>
      </trkpt>
      <trkpt lat="45.31044" lon="6.1543">
        <ele>2598.3999023438</ele>
        <time>2020-12-16T11:00:04.000Z</time>
      </trkpt>
      <trkpt lat="45.31044" lon="6.1543">
        <ele>2598.6000976562</ele>
        <time>2020-12-16T11:00:11.000Z</time>
      </trkpt>
      <trkpt lat="45.31044" lon="6.1543">
        <ele>2598.3999023438</ele>
        <time>2020-12-16T11:00:33.000Z</time>
      </trkpt>
      <trkpt lat="45.31044" lon="6.1543">
        <ele>2598.1999511719</ele>
        <time>2020-12-16T11:00:51.000Z</time>
      </trkpt>
      <trkpt lat="45.31044" lon="6.1543">
        <ele>2597.8000488281</ele>
        <time>2020-12-16T11:01:14.000Z</time>
      </trkpt>
      <trkpt lat="45.31044" lon="6.1543">
        <ele>2598</ele>
        <time>2020-12-16T11:01:31.000Z</time>
      </trkpt>
      <trkpt lat="45.31044" lon="6.15429">
        <ele>2598</ele>
        <time>2020-12-16T11:01:46.000Z</time>
      </trkpt>
      <trkpt lat="45.31044" lon="6.15429">
        <ele>2598.3999023438</ele>
        <time>2020-12-16T11:01:52.000Z</time>
      </trkpt>
      <trkpt lat="45.31044" lon="6.15429">
        <ele>2598.1999511719</ele>
        <time>2020-12-16T11:01:58.000Z</time>
      </trkpt>
      <trkpt lat="45.31044" lon="6.15429">
        <ele>2599.1999511719</ele>
        <time>2020-12-16T11:02:11.000Z</time>
      </trkpt>
      <trkpt lat="45.31044" lon="6.15429">
        <ele>2597.3999023438</ele>
        <time>2020-12-16T11:02:16.000Z</time>
      </trkpt>
      <trkpt lat="45.31044" lon="6.15429">
        <ele>2595.8000488281</ele>
        <time>2020-12-16T11:02:18.000Z</time>
      </trkpt>
      <trkpt lat="45.31044" lon="6.15429">
        <ele>2596.6000976562</ele>
        <time>2020-12-16T11:02:21.000Z</time>
      </trkpt>
      <trkpt lat="45.31044" lon="6.15429">
        <ele>2597.8000488281</ele>
        <time>2020-12-16T11:02:22.000Z</time>
      </trkpt>
      <trkpt lat="45.31044" lon="6.15429">
        <ele>2599.1999511719</ele>
        <time>2020-12-16T11:02:24.000Z</time>
      </trkpt>
      <trkpt lat="45.31044" lon="6.15429">
        <ele>2598.1999511719</ele>
        <time>2020-12-16T11:02:27.000Z</time>
      </trkpt>
      <trkpt lat="45.31044" lon="6.15429">
        <ele>2597.6000976562</ele>
        <time>2020-12-16T11:02:31.000Z</time>
      </trkpt>
      <trkpt lat="45.31043" lon="6.15428">
        <ele>2598</ele>
        <time>2020-12-16T11:02:36.000Z</time>
      </trkpt>
      <trkpt lat="45.31043" lon="6.15428">
        <ele>2599</ele>
        <time>2020-12-16T11:02:44.000Z</time>
      </trkpt>
      <trkpt lat="45.31043" lon="6.15428">
        <ele>2599</ele>
        <time>2020-12-16T11:02:55.000Z</time>
      </trkpt>
      <trkpt lat="45.31043" lon="6.15428">
        <ele>2599</ele>
        <time>2020-12-16T11:03:08.000Z</time>
      </trkpt>
      <trkpt lat="45.31043" lon="6.15428">
        <ele>2598.8000488281</ele>
        <time>2020-12-16T11:03:22.000Z</time>
      </trkpt>
      <trkpt lat="45.31043" lon="6.15428">
        <ele>2598.8000488281</ele>
        <time>2020-12-16T11:03:32.000Z</time>
      </trkpt>
      <trkpt lat="45.31044" lon="6.15429">
        <ele>2598.8000488281</ele>
        <time>2020-12-16T11:03:44.000Z</time>
      </trkpt>
      <trkpt lat="45.31044" lon="6.15429">
        <ele>2599.1999511719</ele>
        <time>2020-12-16T11:03:48.000Z</time>
      </trkpt>
      <trkpt lat="45.31044" lon="6.15429">
        <ele>2599.1999511719</ele>
        <time>2020-12-16T11:03:52.000Z</time>
      </trkpt>
      <trkpt lat="45.31044" lon="6.15429">
        <ele>2599</ele>
        <time>2020-12-16T11:04:03.000Z</time>
      </trkpt>
      <trkpt lat="45.31044" lon="6.15429">
        <ele>2599</ele>
        <time>2020-12-16T11:04:15.000Z</time>
      </trkpt>
      <trkpt lat="45.31044" lon="6.15429">
        <ele>2599.3999023438</ele>
        <time>2020-12-16T11:04:25.000Z</time>
      </trkpt>
      <trkpt lat="45.31044" lon="6.15429">
        <ele>2599.3999023438</ele>
        <time>2020-12-16T11:04:33.000Z</time>
      </trkpt>
      <trkpt lat="45.31044" lon="6.15429">
        <ele>2599.3999023438</ele>
        <time>2020-12-16T11:04:38.000Z</time>
      </trkpt>
      <trkpt lat="45.31044" lon="6.15429">
        <ele>2598.8000488281</ele>
        <time>2020-12-16T11:04:46.000Z</time>
      </trkpt>
      <trkpt lat="45.31044" lon="6.15429">
        <ele>2599.1999511719</ele>
        <time>2020-12-16T11:04:54.000Z</time>
      </trkpt>
      <trkpt lat="45.31044" lon="6.15428">
        <ele>2599.3999023438</ele>
        <time>2020-12-16T11:05:04.000Z</time>
      </trkpt>
      <trkpt lat="45.31044" lon="6.15427">
        <ele>2599.1999511719</ele>
        <time>2020-12-16T11:05:11.000Z</time>
      </trkpt>
      <trkpt lat="45.31044" lon="6.15417">
        <ele>2599</ele>
        <time>2020-12-16T11:05:19.000Z</time>
      </trkpt>
      <trkpt lat="45.31047" lon="6.15405">
        <ele>2598.8000488281</ele>
        <time>2020-12-16T11:05:21.000Z</time>
      </trkpt>
      <trkpt lat="45.31048" lon="6.154">
        <ele>2598.6000976562</ele>
        <time>2020-12-16T11:05:22.000Z</time>
      </trkpt>
      <trkpt lat="45.3105" lon="6.15395">
        <ele>2598.1999511719</ele>
        <time>2020-12-16T11:05:23.000Z</time>
      </trkpt>
      <trkpt lat="45.31051" lon="6.15393">
        <ele>2596.6000976562</ele>
        <time>2020-12-16T11:05:25.000Z</time>
      </trkpt>
      <trkpt lat="45.31051" lon="6.15393">
        <ele>2595</ele>
        <time>2020-12-16T11:05:27.000Z</time>
      </trkpt>
      <trkpt lat="45.31051" lon="6.15393">
        <ele>2593.8000488281</ele>
        <time>2020-12-16T11:05:29.000Z</time>
      </trkpt>
      <trkpt lat="45.31051" lon="6.15392">
        <ele>2593</ele>
        <time>2020-12-16T11:05:32.000Z</time>
      </trkpt>
      <trkpt lat="45.3105" lon="6.1539">
        <ele>2592.8000488281</ele>
        <time>2020-12-16T11:05:33.000Z</time>
      </trkpt>
      <trkpt lat="45.31048" lon="6.15387">
        <ele>2592.8000488281</ele>
        <time>2020-12-16T11:05:35.000Z</time>
      </trkpt>
      <trkpt lat="45.31048" lon="6.15384">
        <ele>2592.8000488281</ele>
        <time>2020-12-16T11:05:36.000Z</time>
      </trkpt>
      <trkpt lat="45.31045" lon="6.15379">
        <ele>2591</ele>
        <time>2020-12-16T11:05:38.000Z</time>
      </trkpt>
      <trkpt lat="45.31043" lon="6.15379">
        <ele>2590.1999511719</ele>
        <time>2020-12-16T11:05:39.000Z</time>
      </trkpt>
      <trkpt lat="45.31041" lon="6.15377">
        <ele>2589.3999023438</ele>
        <time>2020-12-16T11:05:40.000Z</time>
      </trkpt>
      <trkpt lat="45.3104" lon="6.15375">
        <ele>2588.1999511719</ele>
        <time>2020-12-16T11:05:41.000Z</time>
      </trkpt>
      <trkpt lat="45.31038" lon="6.15375">
        <ele>2587.1999511719</ele>
        <time>2020-12-16T11:05:42.000Z</time>
      </trkpt>
      <trkpt lat="45.31036" lon="6.15374">
        <ele>2586</ele>
        <time>2020-12-16T11:05:43.000Z</time>
      </trkpt>
      <trkpt lat="45.31033" lon="6.15375">
        <ele>2585</ele>
        <time>2020-12-16T11:05:44.000Z</time>
      </trkpt>
      <trkpt lat="45.31029" lon="6.15376">
        <ele>2583</ele>
        <time>2020-12-16T11:05:46.000Z</time>
      </trkpt>
      <trkpt lat="45.31028" lon="6.15377">
        <ele>2582.3999023438</ele>
        <time>2020-12-16T11:05:47.000Z</time>
      </trkpt>
      <trkpt lat="45.31028" lon="6.15377">
        <ele>2581.8000488281</ele>
        <time>2020-12-16T11:05:48.000Z</time>
      </trkpt>
      <trkpt lat="45.31028" lon="6.15377">
        <ele>2581.6000976562</ele>
        <time>2020-12-16T11:05:59.000Z</time>
      </trkpt>
      <trkpt lat="45.31028" lon="6.15377">
        <ele>2581.8000488281</ele>
        <time>2020-12-16T11:06:08.000Z</time>
      </trkpt>
      <trkpt lat="45.31027" lon="6.15376">
        <ele>2581.6000976562</ele>
        <time>2020-12-16T11:06:15.000Z</time>
      </trkpt>
      <trkpt lat="45.31023" lon="6.15375">
        <ele>2581.3999023438</ele>
        <time>2020-12-16T11:06:17.000Z</time>
      </trkpt>
      <trkpt lat="45.31015" lon="6.15371">
        <ele>2580.8000488281</ele>
        <time>2020-12-16T11:06:22.000Z</time>
      </trkpt>
      <trkpt lat="45.31015" lon="6.15371">
        <ele>2580.6000976562</ele>
        <time>2020-12-16T11:06:23.000Z</time>
      </trkpt>
      <trkpt lat="45.31016" lon="6.15367">
        <ele>2580</ele>
        <time>2020-12-16T11:06:30.000Z</time>
      </trkpt>
      <trkpt lat="45.31018" lon="6.15365">
        <ele>2580</ele>
        <time>2020-12-16T11:06:31.000Z</time>
      </trkpt>
      <trkpt lat="45.31018" lon="6.15353">
        <ele>2579.6000976562</ele>
        <time>2020-12-16T11:06:34.000Z</time>
      </trkpt>
      <trkpt lat="45.31021" lon="6.15343">
        <ele>2577.8000488281</ele>
        <time>2020-12-16T11:06:36.000Z</time>
      </trkpt>
      <trkpt lat="45.31019" lon="6.15339">
        <ele>2576.3999023438</ele>
        <time>2020-12-16T11:06:37.000Z</time>
      </trkpt>
      <trkpt lat="45.31019" lon="6.15334">
        <ele>2575</ele>
        <time>2020-12-16T11:06:38.000Z</time>
      </trkpt>
      <trkpt lat="45.31023" lon="6.15331">
        <ele>2573.6000976562</ele>
        <time>2020-12-16T11:06:39.000Z</time>
      </trkpt>
      <trkpt lat="45.31027" lon="6.15327">
        <ele>2572</ele>
        <time>2020-12-16T11:06:40.000Z</time>
      </trkpt>
      <trkpt lat="45.3103" lon="6.15322">
        <ele>2570.1999511719</ele>
        <time>2020-12-16T11:06:41.000Z</time>
      </trkpt>
      <trkpt lat="45.31029" lon="6.15316">
        <ele>2568.3999023438</ele>
        <time>2020-12-16T11:06:42.000Z</time>
      </trkpt>
      <trkpt lat="45.3103" lon="6.1531">
        <ele>2566.6000976562</ele>
        <time>2020-12-16T11:06:43.000Z</time>
      </trkpt>
      <trkpt lat="45.3103" lon="6.15304">
        <ele>2564.8000488281</ele>
        <time>2020-12-16T11:06:44.000Z</time>
      </trkpt>
      <trkpt lat="45.31031" lon="6.15299">
        <ele>2563</ele>
        <time>2020-12-16T11:06:45.000Z</time>
      </trkpt>
      <trkpt lat="45.31033" lon="6.15295">
        <ele>2561</ele>
        <time>2020-12-16T11:06:46.000Z</time>
      </trkpt>
      <trkpt lat="45.31035" lon="6.15292">
        <ele>2558.8000488281</ele>
        <time>2020-12-16T11:06:47.000Z</time>
      </trkpt>
      <trkpt lat="45.31035" lon="6.15286">
        <ele>2556.8000488281</ele>
        <time>2020-12-16T11:06:48.000Z</time>
      </trkpt>
      <trkpt lat="45.31036" lon="6.15282">
        <ele>2553</ele>
        <time>2020-12-16T11:06:49.000Z</time>
      </trkpt>
      <trkpt lat="45.31037" lon="6.15278">
        <ele>2551</ele>
        <time>2020-12-16T11:06:50.000Z</time>
      </trkpt>
      <trkpt lat="45.31038" lon="6.15274">
        <ele>2549.1999511719</ele>
        <time>2020-12-16T11:06:51.000Z</time>
      </trkpt>
      <trkpt lat="45.31037" lon="6.15271">
        <ele>2547.3999023438</ele>
        <time>2020-12-16T11:06:52.000Z</time>
      </trkpt>
      <trkpt lat="45.31035" lon="6.15269">
        <ele>2545.8000488281</ele>
        <time>2020-12-16T11:06:53.000Z</time>
      </trkpt>
      <trkpt lat="45.31034" lon="6.15265">
        <ele>2544.1999511719</ele>
        <time>2020-12-16T11:06:54.000Z</time>
      </trkpt>
      <trkpt lat="45.31036" lon="6.1526">
        <ele>2542.8000488281</ele>
        <time>2020-12-16T11:06:55.000Z</time>
      </trkpt>
      <trkpt lat="45.31037" lon="6.15255">
        <ele>2541.1999511719</ele>
        <time>2020-12-16T11:06:56.000Z</time>
      </trkpt>
      <trkpt lat="45.31036" lon="6.1525">
        <ele>2539.3999023438</ele>
        <time>2020-12-16T11:06:57.000Z</time>
      </trkpt>
      <trkpt lat="45.31035" lon="6.15244">
        <ele>2537.8000488281</ele>
        <time>2020-12-16T11:06:58.000Z</time>
      </trkpt>
      <trkpt lat="45.31035" lon="6.15238">
        <ele>2536.1999511719</ele>
        <time>2020-12-16T11:06:59.000Z</time>
      </trkpt>
      <trkpt lat="45.31033" lon="6.15232">
        <ele>2534.1999511719</ele>
        <time>2020-12-16T11:07:00.000Z</time>
      </trkpt>
      <trkpt lat="45.31033" lon="6.15225">
        <ele>2532.1999511719</ele>
        <time>2020-12-16T11:07:01.000Z</time>
      </trkpt>
      <trkpt lat="45.31035" lon="6.15221">
        <ele>2530.1999511719</ele>
        <time>2020-12-16T11:07:02.000Z</time>
      </trkpt>
      <trkpt lat="45.31037" lon="6.15217">
        <ele>2527.8000488281</ele>
        <time>2020-12-16T11:07:03.000Z</time>
      </trkpt>
      <trkpt lat="45.3104" lon="6.15212">
        <ele>2525.3999023438</ele>
        <time>2020-12-16T11:07:04.000Z</time>
      </trkpt>
      <trkpt lat="45.31038" lon="6.15204">
        <ele>2523</ele>
        <time>2020-12-16T11:07:05.000Z</time>
      </trkpt>
      <trkpt lat="45.31036" lon="6.15196">
        <ele>2520.6000976562</ele>
        <time>2020-12-16T11:07:06.000Z</time>
      </trkpt>
      <trkpt lat="45.31032" lon="6.15189">
        <ele>2518.3999023438</ele>
        <time>2020-12-16T11:07:07.000Z</time>
      </trkpt>
      <trkpt lat="45.3103" lon="6.1518">
        <ele>2516.6000976562</ele>
        <time>2020-12-16T11:07:08.000Z</time>
      </trkpt>
      <trkpt lat="45.31028" lon="6.15171">
        <ele>2514.8000488281</ele>
        <time>2020-12-16T11:07:09.000Z</time>
      </trkpt>
      <trkpt lat="45.31027" lon="6.15164">
        <ele>2512.6000976562</ele>
        <time>2020-12-16T11:07:10.000Z</time>
      </trkpt>
      <trkpt lat="45.31025" lon="6.1516">
        <ele>2510.6000976562</ele>
        <time>2020-12-16T11:07:11.000Z</time>
      </trkpt>
      <trkpt lat="45.31024" lon="6.15156">
        <ele>2508.3999023438</ele>
        <time>2020-12-16T11:07:12.000Z</time>
      </trkpt>
      <trkpt lat="45.31022" lon="6.15151">
        <ele>2504.3999023438</ele>
        <time>2020-12-16T11:07:13.000Z</time>
      </trkpt>
      <trkpt lat="45.31019" lon="6.15147">
        <ele>2502.6000976562</ele>
        <time>2020-12-16T11:07:14.000Z</time>
      </trkpt>
      <trkpt lat="45.31016" lon="6.15141">
        <ele>2501.1999511719</ele>
        <time>2020-12-16T11:07:15.000Z</time>
      </trkpt>
      <trkpt lat="45.31013" lon="6.15136">
        <ele>2500.1999511719</ele>
        <time>2020-12-16T11:07:16.000Z</time>
      </trkpt>
      <trkpt lat="45.3101" lon="6.15133">
        <ele>2499</ele>
        <time>2020-12-16T11:07:17.000Z</time>
      </trkpt>
      <trkpt lat="45.31009" lon="6.15133">
        <ele>2498</ele>
        <time>2020-12-16T11:07:18.000Z</time>
      </trkpt>
      <trkpt lat="45.31007" lon="6.15132">
        <ele>2496.8000488281</ele>
        <time>2020-12-16T11:07:19.000Z</time>
      </trkpt>
      <trkpt lat="45.31007" lon="6.15132">
        <ele>2495.6000976562</ele>
        <time>2020-12-16T11:07:20.000Z</time>
      </trkpt>
      <trkpt lat="45.31007" lon="6.15132">
        <ele>2494.3999023438</ele>
        <time>2020-12-16T11:07:21.000Z</time>
      </trkpt>
      <trkpt lat="45.31007" lon="6.15132">
        <ele>2493.3999023438</ele>
        <time>2020-12-16T11:07:22.000Z</time>
      </trkpt>
      <trkpt lat="45.31007" lon="6.15132">
        <ele>2492.1999511719</ele>
        <time>2020-12-16T11:07:24.000Z</time>
      </trkpt>
      <trkpt lat="45.31007" lon="6.15132">
        <ele>2491.6000976562</ele>
        <time>2020-12-16T11:07:27.000Z</time>
      </trkpt>
      <trkpt lat="45.31007" lon="6.15129">
        <ele>2491.6000976562</ele>
        <time>2020-12-16T11:07:28.000Z</time>
      </trkpt>
      <trkpt lat="45.31003" lon="6.15126">
        <ele>2491.6000976562</ele>
        <time>2020-12-16T11:07:30.000Z</time>
      </trkpt>
      <trkpt lat="45.31001" lon="6.15127">
        <ele>2491</ele>
        <time>2020-12-16T11:07:34.000Z</time>
      </trkpt>
      <trkpt lat="45.31001" lon="6.15127">
        <ele>2490.1999511719</ele>
        <time>2020-12-16T11:07:36.000Z</time>
      </trkpt>
      <trkpt lat="45.31001" lon="6.15127">
        <ele>2489.6000976562</ele>
        <time>2020-12-16T11:07:37.000Z</time>
      </trkpt>
      <trkpt lat="45.31001" lon="6.15127">
        <ele>2489.3999023438</ele>
        <time>2020-12-16T11:07:45.000Z</time>
      </trkpt>
      <trkpt lat="45.31001" lon="6.15127">
        <ele>2489.3999023438</ele>
        <time>2020-12-16T11:07:48.000Z</time>
      </trkpt>
      <trkpt lat="45.31001" lon="6.15127">
        <ele>2489.3999023438</ele>
        <time>2020-12-16T11:08:01.000Z</time>
      </trkpt>
      <trkpt lat="45.30999" lon="6.15127">
        <ele>2489.3999023438</ele>
        <time>2020-12-16T11:08:11.000Z</time>
      </trkpt>
      <trkpt lat="45.30999" lon="6.15127">
        <ele>2489.3999023438</ele>
        <time>2020-12-16T11:08:23.000Z</time>
      </trkpt>
      <trkpt lat="45.30999" lon="6.15127">
        <ele>2489.6000976562</ele>
        <time>2020-12-16T11:08:36.000Z</time>
      </trkpt>
      <trkpt lat="45.30997" lon="6.15127">
        <ele>2489.6000976562</ele>
        <time>2020-12-16T11:08:51.000Z</time>
      </trkpt>
      <trkpt lat="45.30995" lon="6.15123">
        <ele>2489.6000976562</ele>
        <time>2020-12-16T11:09:02.000Z</time>
      </trkpt>
      <trkpt lat="45.30988" lon="6.15108">
        <ele>2489.1999511719</ele>
        <time>2020-12-16T11:09:06.000Z</time>
      </trkpt>
      <trkpt lat="45.30985" lon="6.15095">
        <ele>2488.1999511719</ele>
        <time>2020-12-16T11:09:08.000Z</time>
      </trkpt>
      <trkpt lat="45.30986" lon="6.15087">
        <ele>2487.3999023438</ele>
        <time>2020-12-16T11:09:09.000Z</time>
      </trkpt>
      <trkpt lat="45.30983" lon="6.1508">
        <ele>2486.6000976562</ele>
        <time>2020-12-16T11:09:10.000Z</time>
      </trkpt>
      <trkpt lat="45.30981" lon="6.15075">
        <ele>2485.6000976562</ele>
        <time>2020-12-16T11:09:11.000Z</time>
      </trkpt>
      <trkpt lat="45.30978" lon="6.15072">
        <ele>2484.1999511719</ele>
        <time>2020-12-16T11:09:12.000Z</time>
      </trkpt>
      <trkpt lat="45.30976" lon="6.1507">
        <ele>2481</ele>
        <time>2020-12-16T11:09:13.000Z</time>
      </trkpt>
      <trkpt lat="45.30974" lon="6.1507">
        <ele>2479.3999023438</ele>
        <time>2020-12-16T11:09:14.000Z</time>
      </trkpt>
      <trkpt lat="45.30972" lon="6.1507">
        <ele>2477.8000488281</ele>
        <time>2020-12-16T11:09:15.000Z</time>
      </trkpt>
      <trkpt lat="45.30971" lon="6.1507">
        <ele>2476.6000976562</ele>
        <time>2020-12-16T11:09:16.000Z</time>
      </trkpt>
      <trkpt lat="45.3097" lon="6.15072">
        <ele>2475</ele>
        <time>2020-12-16T11:09:18.000Z</time>
      </trkpt>
      <trkpt lat="45.3097" lon="6.15073">
        <ele>2474.6000976562</ele>
        <time>2020-12-16T11:09:19.000Z</time>
      </trkpt>
      <trkpt lat="45.3097" lon="6.15073">
        <ele>2473.8000488281</ele>
        <time>2020-12-16T11:09:22.000Z</time>
      </trkpt>
      <trkpt lat="45.3097" lon="6.15073">
        <ele>2473.6000976562</ele>
        <time>2020-12-16T11:09:31.000Z</time>
      </trkpt>
      <trkpt lat="45.30965" lon="6.1507">
        <ele>2473.6000976562</ele>
        <time>2020-12-16T11:09:39.000Z</time>
      </trkpt>
      <trkpt lat="45.30961" lon="6.15054">
        <ele>2473.3999023438</ele>
        <time>2020-12-16T11:09:42.000Z</time>
      </trkpt>
      <trkpt lat="45.30957" lon="6.15036">
        <ele>2472.1999511719</ele>
        <time>2020-12-16T11:09:44.000Z</time>
      </trkpt>
      <trkpt lat="45.30955" lon="6.15026">
        <ele>2471.1999511719</ele>
        <time>2020-12-16T11:09:45.000Z</time>
      </trkpt>
      <trkpt lat="45.30956" lon="6.15018">
        <ele>2469.8000488281</ele>
        <time>2020-12-16T11:09:46.000Z</time>
      </trkpt>
      <trkpt lat="45.30956" lon="6.15009">
        <ele>2468.1999511719</ele>
        <time>2020-12-16T11:09:47.000Z</time>
      </trkpt>
      <trkpt lat="45.30954" lon="6.15003">
        <ele>2466.3999023438</ele>
        <time>2020-12-16T11:09:48.000Z</time>
      </trkpt>
      <trkpt lat="45.30953" lon="6.14999">
        <ele>2464.3999023438</ele>
        <time>2020-12-16T11:09:49.000Z</time>
      </trkpt>
      <trkpt lat="45.30953" lon="6.14995">
        <ele>2462.3999023438</ele>
        <time>2020-12-16T11:09:50.000Z</time>
      </trkpt>
      <trkpt lat="45.30953" lon="6.14992">
        <ele>2461</ele>
        <time>2020-12-16T11:09:51.000Z</time>
      </trkpt>
      <trkpt lat="45.30953" lon="6.14989">
        <ele>2459.8000488281</ele>
        <time>2020-12-16T11:09:52.000Z</time>
      </trkpt>
      <trkpt lat="45.3095" lon="6.14987">
        <ele>2459</ele>
        <time>2020-12-16T11:09:53.000Z</time>
      </trkpt>
      <trkpt lat="45.30949" lon="6.14982">
        <ele>2458.1999511719</ele>
        <time>2020-12-16T11:09:54.000Z</time>
      </trkpt>
      <trkpt lat="45.30945" lon="6.14972">
        <ele>2456.8000488281</ele>
        <time>2020-12-16T11:09:56.000Z</time>
      </trkpt>
      <trkpt lat="45.30942" lon="6.14966">
        <ele>2456</ele>
        <time>2020-12-16T11:09:57.000Z</time>
      </trkpt>
      <trkpt lat="45.30943" lon="6.14959">
        <ele>2454.8000488281</ele>
        <time>2020-12-16T11:09:58.000Z</time>
      </trkpt>
      <trkpt lat="45.30942" lon="6.14954">
        <ele>2453.6000976562</ele>
        <time>2020-12-16T11:09:59.000Z</time>
      </trkpt>
      <trkpt lat="45.30941" lon="6.14949">
        <ele>2452.1999511719</ele>
        <time>2020-12-16T11:10:00.000Z</time>
      </trkpt>
      <trkpt lat="45.30942" lon="6.14943">
        <ele>2449</ele>
        <time>2020-12-16T11:10:01.000Z</time>
      </trkpt>
      <trkpt lat="45.30941" lon="6.14937">
        <ele>2447.1999511719</ele>
        <time>2020-12-16T11:10:02.000Z</time>
      </trkpt>
      <trkpt lat="45.30941" lon="6.14932">
        <ele>2445.6000976562</ele>
        <time>2020-12-16T11:10:03.000Z</time>
      </trkpt>
      <trkpt lat="45.30942" lon="6.14925">
        <ele>2443.8000488281</ele>
        <time>2020-12-16T11:10:04.000Z</time>
      </trkpt>
      <trkpt lat="45.30942" lon="6.1492">
        <ele>2442</ele>
        <time>2020-12-16T11:10:05.000Z</time>
      </trkpt>
      <trkpt lat="45.30943" lon="6.14915">
        <ele>2440.1999511719</ele>
        <time>2020-12-16T11:10:06.000Z</time>
      </trkpt>
      <trkpt lat="45.30943" lon="6.14909">
        <ele>2438.6000976562</ele>
        <time>2020-12-16T11:10:07.000Z</time>
      </trkpt>
      <trkpt lat="45.30943" lon="6.14904">
        <ele>2436.6000976562</ele>
        <time>2020-12-16T11:10:08.000Z</time>
      </trkpt>
      <trkpt lat="45.30941" lon="6.14898">
        <ele>2434.8000488281</ele>
        <time>2020-12-16T11:10:09.000Z</time>
      </trkpt>
      <trkpt lat="45.30941" lon="6.14892">
        <ele>2433</ele>
        <time>2020-12-16T11:10:10.000Z</time>
      </trkpt>
      <trkpt lat="45.30941" lon="6.14888">
        <ele>2431.3999023438</ele>
        <time>2020-12-16T11:10:11.000Z</time>
      </trkpt>
      <trkpt lat="45.30938" lon="6.14886">
        <ele>2430</ele>
        <time>2020-12-16T11:10:12.000Z</time>
      </trkpt>
      <trkpt lat="45.30933" lon="6.14887">
        <ele>2428.3999023438</ele>
        <time>2020-12-16T11:10:13.000Z</time>
      </trkpt>
      <trkpt lat="45.30929" lon="6.14886">
        <ele>2426.6000976562</ele>
        <time>2020-12-16T11:10:14.000Z</time>
      </trkpt>
      <trkpt lat="45.30929" lon="6.14886">
        <ele>2425.1999511719</ele>
        <time>2020-12-16T11:10:15.000Z</time>
      </trkpt>
      <trkpt lat="45.30929" lon="6.14886">
        <ele>2424</ele>
        <time>2020-12-16T11:10:16.000Z</time>
      </trkpt>
      <trkpt lat="45.30929" lon="6.14886">
        <ele>2423</ele>
        <time>2020-12-16T11:10:18.000Z</time>
      </trkpt>
      <trkpt lat="45.30929" lon="6.14886">
        <ele>2422.3999023438</ele>
        <time>2020-12-16T11:10:23.000Z</time>
      </trkpt>
      <trkpt lat="45.30929" lon="6.14885">
        <ele>2422.1999511719</ele>
        <time>2020-12-16T11:10:35.000Z</time>
      </trkpt>
      <trkpt lat="45.30929" lon="6.14884">
        <ele>2422.1999511719</ele>
        <time>2020-12-16T11:10:36.000Z</time>
      </trkpt>
      <trkpt lat="45.30925" lon="6.14879">
        <ele>2422.1999511719</ele>
        <time>2020-12-16T11:10:39.000Z</time>
      </trkpt>
      <trkpt lat="45.30923" lon="6.14874">
        <ele>2422</ele>
        <time>2020-12-16T11:10:40.000Z</time>
      </trkpt>
      <trkpt lat="45.30918" lon="6.1487">
        <ele>2420.8000488281</ele>
        <time>2020-12-16T11:10:42.000Z</time>
      </trkpt>
      <trkpt lat="45.30916" lon="6.14867">
        <ele>2419.8000488281</ele>
        <time>2020-12-16T11:10:43.000Z</time>
      </trkpt>
      <trkpt lat="45.30915" lon="6.14861">
        <ele>2418.6000976562</ele>
        <time>2020-12-16T11:10:44.000Z</time>
      </trkpt>
      <trkpt lat="45.30912" lon="6.14857">
        <ele>2417.1999511719</ele>
        <time>2020-12-16T11:10:45.000Z</time>
      </trkpt>
      <trkpt lat="45.30909" lon="6.14853">
        <ele>2415.8000488281</ele>
        <time>2020-12-16T11:10:46.000Z</time>
      </trkpt>
      <trkpt lat="45.30905" lon="6.14852">
        <ele>2414</ele>
        <time>2020-12-16T11:10:47.000Z</time>
      </trkpt>
      <trkpt lat="45.30902" lon="6.14848">
        <ele>2412.1999511719</ele>
        <time>2020-12-16T11:10:48.000Z</time>
      </trkpt>
      <trkpt lat="45.30901" lon="6.14846">
        <ele>2408.8000488281</ele>
        <time>2020-12-16T11:10:49.000Z</time>
      </trkpt>
      <trkpt lat="45.30899" lon="6.14846">
        <ele>2407.3999023438</ele>
        <time>2020-12-16T11:10:50.000Z</time>
      </trkpt>
      <trkpt lat="45.30898" lon="6.1485">
        <ele>2405.6000976562</ele>
        <time>2020-12-16T11:10:51.000Z</time>
      </trkpt>
      <trkpt lat="45.30898" lon="6.14851">
        <ele>2403.8000488281</ele>
        <time>2020-12-16T11:10:52.000Z</time>
      </trkpt>
      <trkpt lat="45.30895" lon="6.14851">
        <ele>2402.3999023438</ele>
        <time>2020-12-16T11:10:53.000Z</time>
      </trkpt>
      <trkpt lat="45.30892" lon="6.14848">
        <ele>2401.1999511719</ele>
        <time>2020-12-16T11:10:54.000Z</time>
      </trkpt>
      <trkpt lat="45.30888" lon="6.14849">
        <ele>2399.8000488281</ele>
        <time>2020-12-16T11:10:56.000Z</time>
      </trkpt>
      <trkpt lat="45.30887" lon="6.14848">
        <ele>2399</ele>
        <time>2020-12-16T11:10:57.000Z</time>
      </trkpt>
      <trkpt lat="45.30885" lon="6.14847">
        <ele>2398</ele>
        <time>2020-12-16T11:10:58.000Z</time>
      </trkpt>
      <trkpt lat="45.30885" lon="6.14843">
        <ele>2396.8000488281</ele>
        <time>2020-12-16T11:10:59.000Z</time>
      </trkpt>
      <trkpt lat="45.30884" lon="6.14837">
        <ele>2395.3999023438</ele>
        <time>2020-12-16T11:11:00.000Z</time>
      </trkpt>
      <trkpt lat="45.30883" lon="6.1483">
        <ele>2393.8000488281</ele>
        <time>2020-12-16T11:11:01.000Z</time>
      </trkpt>
      <trkpt lat="45.30882" lon="6.14824">
        <ele>2392.3999023438</ele>
        <time>2020-12-16T11:11:02.000Z</time>
      </trkpt>
      <trkpt lat="45.30883" lon="6.14818">
        <ele>2391</ele>
        <time>2020-12-16T11:11:03.000Z</time>
      </trkpt>
      <trkpt lat="45.30881" lon="6.14814">
        <ele>2389.1999511719</ele>
        <time>2020-12-16T11:11:04.000Z</time>
      </trkpt>
      <trkpt lat="45.30879" lon="6.1481">
        <ele>2387</ele>
        <time>2020-12-16T11:11:05.000Z</time>
      </trkpt>
      <trkpt lat="45.30876" lon="6.14802">
        <ele>2385</ele>
        <time>2020-12-16T11:11:06.000Z</time>
      </trkpt>
      <trkpt lat="45.30875" lon="6.14792">
        <ele>2383.3999023438</ele>
        <time>2020-12-16T11:11:07.000Z</time>
      </trkpt>
      <trkpt lat="45.30876" lon="6.14785">
        <ele>2382.1999511719</ele>
        <time>2020-12-16T11:11:08.000Z</time>
      </trkpt>
      <trkpt lat="45.30876" lon="6.14779">
        <ele>2381</ele>
        <time>2020-12-16T11:11:09.000Z</time>
      </trkpt>
      <trkpt lat="45.30874" lon="6.14773">
        <ele>2379.8000488281</ele>
        <time>2020-12-16T11:11:10.000Z</time>
      </trkpt>
      <trkpt lat="45.30873" lon="6.14766">
        <ele>2378.1999511719</ele>
        <time>2020-12-16T11:11:11.000Z</time>
      </trkpt>
      <trkpt lat="45.30873" lon="6.14757">
        <ele>2376.6000976562</ele>
        <time>2020-12-16T11:11:12.000Z</time>
      </trkpt>
      <trkpt lat="45.30872" lon="6.14748">
        <ele>2374.1999511719</ele>
        <time>2020-12-16T11:11:13.000Z</time>
      </trkpt>
      <trkpt lat="45.30871" lon="6.14732">
        <ele>2372.8000488281</ele>
        <time>2020-12-16T11:11:15.000Z</time>
      </trkpt>
      <trkpt lat="45.30872" lon="6.14718">
        <ele>2371.3999023438</ele>
        <time>2020-12-16T11:11:17.000Z</time>
      </trkpt>
      <trkpt lat="45.30871" lon="6.14705">
        <ele>2370</ele>
        <time>2020-12-16T11:11:19.000Z</time>
      </trkpt>
      <trkpt lat="45.30871" lon="6.14695">
        <ele>2368.8000488281</ele>
        <time>2020-12-16T11:11:21.000Z</time>
      </trkpt>
      <trkpt lat="45.30869" lon="6.14686">
        <ele>2368</ele>
        <time>2020-12-16T11:11:23.000Z</time>
      </trkpt>
      <trkpt lat="45.30868" lon="6.14682">
        <ele>2367.6000976562</ele>
        <time>2020-12-16T11:11:24.000Z</time>
      </trkpt>
      <trkpt lat="45.30867" lon="6.14665">
        <ele>2366.6000976562</ele>
        <time>2020-12-16T11:11:28.000Z</time>
      </trkpt>
      <trkpt lat="45.30867" lon="6.14664">
        <ele>2366.3999023438</ele>
        <time>2020-12-16T11:11:29.000Z</time>
      </trkpt>
      <trkpt lat="45.30865" lon="6.14661">
        <ele>2365.6000976562</ele>
        <time>2020-12-16T11:11:32.000Z</time>
      </trkpt>
      <trkpt lat="45.30864" lon="6.14657">
        <ele>2365.1999511719</ele>
        <time>2020-12-16T11:11:33.000Z</time>
      </trkpt>
      <trkpt lat="45.30861" lon="6.14656">
        <ele>2363.8000488281</ele>
        <time>2020-12-16T11:11:37.000Z</time>
      </trkpt>
      <trkpt lat="45.30859" lon="6.14649">
        <ele>2361.8000488281</ele>
        <time>2020-12-16T11:11:39.000Z</time>
      </trkpt>
      <trkpt lat="45.30858" lon="6.14646">
        <ele>2360.3999023438</ele>
        <time>2020-12-16T11:11:40.000Z</time>
      </trkpt>
      <trkpt lat="45.30857" lon="6.14647">
        <ele>2359.1999511719</ele>
        <time>2020-12-16T11:11:41.000Z</time>
      </trkpt>
      <trkpt lat="45.30857" lon="6.14646">
        <ele>2358</ele>
        <time>2020-12-16T11:11:42.000Z</time>
      </trkpt>
      <trkpt lat="45.30855" lon="6.14642">
        <ele>2356.8000488281</ele>
        <time>2020-12-16T11:11:43.000Z</time>
      </trkpt>
      <trkpt lat="45.30853" lon="6.1464">
        <ele>2355.6000976562</ele>
        <time>2020-12-16T11:11:44.000Z</time>
      </trkpt>
      <trkpt lat="45.30852" lon="6.14637">
        <ele>2354.3999023438</ele>
        <time>2020-12-16T11:11:45.000Z</time>
      </trkpt>
      <trkpt lat="45.3085" lon="6.14633">
        <ele>2353.3999023438</ele>
        <time>2020-12-16T11:11:46.000Z</time>
      </trkpt>
      <trkpt lat="45.30845" lon="6.14629">
        <ele>2351.3999023438</ele>
        <time>2020-12-16T11:11:48.000Z</time>
      </trkpt>
      <trkpt lat="45.3084" lon="6.14633">
        <ele>2349.6000976562</ele>
        <time>2020-12-16T11:11:50.000Z</time>
      </trkpt>
      <trkpt lat="45.30836" lon="6.14636">
        <ele>2348</ele>
        <time>2020-12-16T11:11:52.000Z</time>
      </trkpt>
      <trkpt lat="45.30832" lon="6.14639">
        <ele>2346.8000488281</ele>
        <time>2020-12-16T11:11:54.000Z</time>
      </trkpt>
      <trkpt lat="45.30831" lon="6.1464">
        <ele>2346.3999023438</ele>
        <time>2020-12-16T11:11:55.000Z</time>
      </trkpt>
      <trkpt lat="45.30829" lon="6.14646">
        <ele>2345.8000488281</ele>
        <time>2020-12-16T11:11:58.000Z</time>
      </trkpt>
      <trkpt lat="45.30829" lon="6.14646">
        <ele>2345.3999023438</ele>
        <time>2020-12-16T11:12:00.000Z</time>
      </trkpt>
      <trkpt lat="45.30826" lon="6.14646">
        <ele>2345</ele>
        <time>2020-12-16T11:12:08.000Z</time>
      </trkpt>
      <trkpt lat="45.30815" lon="6.14641">
        <ele>2344.8000488281</ele>
        <time>2020-12-16T11:12:13.000Z</time>
      </trkpt>
      <trkpt lat="45.30801" lon="6.14634">
        <ele>2343.6000976562</ele>
        <time>2020-12-16T11:12:17.000Z</time>
      </trkpt>
      <trkpt lat="45.308" lon="6.14631">
        <ele>2343.1999511719</ele>
        <time>2020-12-16T11:12:18.000Z</time>
      </trkpt>
      <trkpt lat="45.30792" lon="6.14626">
        <ele>2342.3999023438</ele>
        <time>2020-12-16T11:12:20.000Z</time>
      </trkpt>
      <trkpt lat="45.30782" lon="6.14616">
        <ele>2341.3999023438</ele>
        <time>2020-12-16T11:12:23.000Z</time>
      </trkpt>
      <trkpt lat="45.30771" lon="6.14609">
        <ele>2340</ele>
        <time>2020-12-16T11:12:26.000Z</time>
      </trkpt>
      <trkpt lat="45.30763" lon="6.146">
        <ele>2339.1999511719</ele>
        <time>2020-12-16T11:12:28.000Z</time>
      </trkpt>
      <trkpt lat="45.30759" lon="6.14595">
        <ele>2338.8000488281</ele>
        <time>2020-12-16T11:12:29.000Z</time>
      </trkpt>
      <trkpt lat="45.3075" lon="6.14582">
        <ele>2337.3999023438</ele>
        <time>2020-12-16T11:12:32.000Z</time>
      </trkpt>
      <trkpt lat="45.30748" lon="6.14578">
        <ele>2336.8000488281</ele>
        <time>2020-12-16T11:12:33.000Z</time>
      </trkpt>
      <trkpt lat="45.30745" lon="6.14574">
        <ele>2336.3999023438</ele>
        <time>2020-12-16T11:12:34.000Z</time>
      </trkpt>
      <trkpt lat="45.30739" lon="6.14563">
        <ele>2335.1999511719</ele>
        <time>2020-12-16T11:12:37.000Z</time>
      </trkpt>
      <trkpt lat="45.30735" lon="6.14558">
        <ele>2334.3999023438</ele>
        <time>2020-12-16T11:12:39.000Z</time>
      </trkpt>
      <trkpt lat="45.30733" lon="6.14556">
        <ele>2334</ele>
        <time>2020-12-16T11:12:40.000Z</time>
      </trkpt>
      <trkpt lat="45.30728" lon="6.14549">
        <ele>2333</ele>
        <time>2020-12-16T11:12:43.000Z</time>
      </trkpt>
      <trkpt lat="45.30727" lon="6.14545">
        <ele>2332.8000488281</ele>
        <time>2020-12-16T11:12:44.000Z</time>
      </trkpt>
      <trkpt lat="45.30723" lon="6.1454">
        <ele>2332.6000976562</ele>
        <time>2020-12-16T11:12:45.000Z</time>
      </trkpt>
      <trkpt lat="45.30718" lon="6.14527">
        <ele>2332.1999511719</ele>
        <time>2020-12-16T11:12:47.000Z</time>
      </trkpt>
      <trkpt lat="45.30716" lon="6.14523">
        <ele>2331.8000488281</ele>
        <time>2020-12-16T11:12:48.000Z</time>
      </trkpt>
      <trkpt lat="45.30713" lon="6.14516">
        <ele>2329.8000488281</ele>
        <time>2020-12-16T11:12:50.000Z</time>
      </trkpt>
      <trkpt lat="45.30709" lon="6.14507">
        <ele>2328.8000488281</ele>
        <time>2020-12-16T11:12:52.000Z</time>
      </trkpt>
      <trkpt lat="45.30707" lon="6.14502">
        <ele>2328.6000976562</ele>
        <time>2020-12-16T11:12:53.000Z</time>
      </trkpt>
      <trkpt lat="45.30702" lon="6.1449">
        <ele>2327.3999023438</ele>
        <time>2020-12-16T11:12:56.000Z</time>
      </trkpt>
      <trkpt lat="45.30701" lon="6.14487">
        <ele>2327</ele>
        <time>2020-12-16T11:12:57.000Z</time>
      </trkpt>
      <trkpt lat="45.30699" lon="6.14483">
        <ele>2326.3999023438</ele>
        <time>2020-12-16T11:12:59.000Z</time>
      </trkpt>
      <trkpt lat="45.30696" lon="6.14479">
        <ele>2325.1999511719</ele>
        <time>2020-12-16T11:13:03.000Z</time>
      </trkpt>
      <trkpt lat="45.30697" lon="6.1448">
        <ele>2324.3999023438</ele>
        <time>2020-12-16T11:13:10.000Z</time>
      </trkpt>
      <trkpt lat="45.30696" lon="6.14479">
        <ele>2324.3999023438</ele>
        <time>2020-12-16T11:13:11.000Z</time>
      </trkpt>
      <trkpt lat="45.30693" lon="6.14477">
        <ele>2324.3999023438</ele>
        <time>2020-12-16T11:13:14.000Z</time>
      </trkpt>
      <trkpt lat="45.30693" lon="6.14476">
        <ele>2324.1999511719</ele>
        <time>2020-12-16T11:13:15.000Z</time>
      </trkpt>
      <trkpt lat="45.30693" lon="6.14476">
        <ele>2323.6000976562</ele>
        <time>2020-12-16T11:13:20.000Z</time>
      </trkpt>
      <trkpt lat="45.30693" lon="6.14476">
        <ele>2323.3999023438</ele>
        <time>2020-12-16T11:13:27.000Z</time>
      </trkpt>
      <trkpt lat="45.30693" lon="6.14476">
        <ele>2323.3999023438</ele>
        <time>2020-12-16T11:13:40.000Z</time>
      </trkpt>
      <trkpt lat="45.30693" lon="6.14476">
        <ele>2323.3999023438</ele>
        <time>2020-12-16T11:13:51.000Z</time>
      </trkpt>
      <trkpt lat="45.30693" lon="6.1448">
        <ele>2323.1999511719</ele>
        <time>2020-12-16T11:13:58.000Z</time>
      </trkpt>
      <trkpt lat="45.30693" lon="6.1448">
        <ele>2323.1999511719</ele>
        <time>2020-12-16T11:14:02.000Z</time>
      </trkpt>
      <trkpt lat="45.30693" lon="6.1448">
        <ele>2323.1999511719</ele>
        <time>2020-12-16T11:14:05.000Z</time>
      </trkpt>
      <trkpt lat="45.30693" lon="6.1448">
        <ele>2323</ele>
        <time>2020-12-16T11:14:17.000Z</time>
      </trkpt>
      <trkpt lat="45.30693" lon="6.1448">
        <ele>2323</ele>
        <time>2020-12-16T11:14:25.000Z</time>
      </trkpt>
      <trkpt lat="45.30694" lon="6.14485">
        <ele>2323.1999511719</ele>
        <time>2020-12-16T11:14:36.000Z</time>
      </trkpt>
      <trkpt lat="45.30694" lon="6.14485">
        <ele>2323</ele>
        <time>2020-12-16T11:14:42.000Z</time>
      </trkpt>
      <trkpt lat="45.30694" lon="6.14485">
        <ele>2322.6000976562</ele>
        <time>2020-12-16T11:14:51.000Z</time>
      </trkpt>
      <trkpt lat="45.30694" lon="6.14486">
        <ele>2322.6000976562</ele>
        <time>2020-12-16T11:15:00.000Z</time>
      </trkpt>
      <trkpt lat="45.30694" lon="6.14486">
        <ele>2322.6000976562</ele>
        <time>2020-12-16T11:15:13.000Z</time>
      </trkpt>
      <trkpt lat="45.30694" lon="6.14486">
        <ele>2322.8000488281</ele>
        <time>2020-12-16T11:15:26.000Z</time>
      </trkpt>
      <trkpt lat="45.30694" lon="6.14487">
        <ele>2323</ele>
        <time>2020-12-16T11:15:37.000Z</time>
      </trkpt>
      <trkpt lat="45.30694" lon="6.14487">
        <ele>2323</ele>
        <time>2020-12-16T11:15:49.000Z</time>
      </trkpt>
      <trkpt lat="45.30694" lon="6.14487">
        <ele>2323</ele>
        <time>2020-12-16T11:16:03.000Z</time>
      </trkpt>
      <trkpt lat="45.30695" lon="6.14487">
        <ele>2323.1999511719</ele>
        <time>2020-12-16T11:16:19.000Z</time>
      </trkpt>
      <trkpt lat="45.30695" lon="6.14487">
        <ele>2323.3999023438</ele>
        <time>2020-12-16T11:16:31.000Z</time>
      </trkpt>
      <trkpt lat="45.30695" lon="6.14487">
        <ele>2323.3999023438</ele>
        <time>2020-12-16T11:16:39.000Z</time>
      </trkpt>
      <trkpt lat="45.30695" lon="6.14487">
        <ele>2323.3999023438</ele>
        <time>2020-12-16T11:16:41.000Z</time>
      </trkpt>
      <trkpt lat="45.30695" lon="6.14487">
        <ele>2323.3999023438</ele>
        <time>2020-12-16T11:17:00.000Z</time>
      </trkpt>
      <trkpt lat="45.30695" lon="6.14487">
        <ele>2323.3999023438</ele>
        <time>2020-12-16T11:17:19.000Z</time>
      </trkpt>
      <trkpt lat="45.30695" lon="6.14487">
        <ele>2323.6000976562</ele>
        <time>2020-12-16T11:17:31.000Z</time>
      </trkpt>
      <trkpt lat="45.30695" lon="6.14487">
        <ele>2323.6000976562</ele>
        <time>2020-12-16T11:17:46.000Z</time>
      </trkpt>
      <trkpt lat="45.30695" lon="6.14487">
        <ele>2323.8000488281</ele>
        <time>2020-12-16T11:17:56.000Z</time>
      </trkpt>
      <trkpt lat="45.30695" lon="6.14487">
        <ele>2323.8000488281</ele>
        <time>2020-12-16T11:18:07.000Z</time>
      </trkpt>
      <trkpt lat="45.30695" lon="6.14487">
        <ele>2324</ele>
        <time>2020-12-16T11:18:21.000Z</time>
      </trkpt>
      <trkpt lat="45.30695" lon="6.14487">
        <ele>2324</ele>
        <time>2020-12-16T11:18:36.000Z</time>
      </trkpt>
      <trkpt lat="45.30695" lon="6.14487">
        <ele>2324</ele>
        <time>2020-12-16T11:18:51.000Z</time>
      </trkpt>
      <trkpt lat="45.30695" lon="6.14487">
        <ele>2324.1999511719</ele>
        <time>2020-12-16T11:19:02.000Z</time>
      </trkpt>
      <trkpt lat="45.30695" lon="6.14487">
        <ele>2324.1999511719</ele>
        <time>2020-12-16T11:19:17.000Z</time>
      </trkpt>
      <trkpt lat="45.30695" lon="6.14487">
        <ele>2324.1999511719</ele>
        <time>2020-12-16T11:19:21.000Z</time>
      </trkpt>
      <trkpt lat="45.30695" lon="6.14487">
        <ele>2324.3999023438</ele>
        <time>2020-12-16T11:19:33.000Z</time>
      </trkpt>
      <trkpt lat="45.30695" lon="6.14487">
        <ele>2324.1999511719</ele>
        <time>2020-12-16T11:19:39.000Z</time>
      </trkpt>
      <trkpt lat="45.30695" lon="6.14488">
        <ele>2324.1999511719</ele>
        <time>2020-12-16T11:19:45.000Z</time>
      </trkpt>
      <trkpt lat="45.30695" lon="6.14488">
        <ele>2324.6000976562</ele>
        <time>2020-12-16T11:19:54.000Z</time>
      </trkpt>
      <trkpt lat="45.30695" lon="6.14488">
        <ele>2324.3999023438</ele>
        <time>2020-12-16T11:20:05.000Z</time>
      </trkpt>
      <trkpt lat="45.30694" lon="6.14488">
        <ele>2325</ele>
        <time>2020-12-16T11:20:12.000Z</time>
      </trkpt>
      <trkpt lat="45.30694" lon="6.14488">
        <ele>2324.8000488281</ele>
        <time>2020-12-16T11:20:20.000Z</time>
      </trkpt>
      <trkpt lat="45.30694" lon="6.14488">
        <ele>2324.6000976562</ele>
        <time>2020-12-16T11:20:24.000Z</time>
      </trkpt>
      <trkpt lat="45.30694" lon="6.14488">
        <ele>2324.3999023438</ele>
        <time>2020-12-16T11:20:38.000Z</time>
      </trkpt>
      <trkpt lat="45.30694" lon="6.14488">
        <ele>2324.8000488281</ele>
        <time>2020-12-16T11:20:49.000Z</time>
      </trkpt>
      <trkpt lat="45.30694" lon="6.14489">
        <ele>2324.6000976562</ele>
        <time>2020-12-16T11:20:57.000Z</time>
      </trkpt>
      <trkpt lat="45.30694" lon="6.14489">
        <ele>2325.1999511719</ele>
        <time>2020-12-16T11:21:08.000Z</time>
      </trkpt>
      <trkpt lat="45.30694" lon="6.14489">
        <ele>2325.1999511719</ele>
        <time>2020-12-16T11:21:11.000Z</time>
      </trkpt>
      <trkpt lat="45.30695" lon="6.14489">
        <ele>2325.3999023438</ele>
        <time>2020-12-16T11:21:16.000Z</time>
      </trkpt>
      <trkpt lat="45.30695" lon="6.1449">
        <ele>2325.1999511719</ele>
        <time>2020-12-16T11:21:22.000Z</time>
      </trkpt>
      <trkpt lat="45.30695" lon="6.1449">
        <ele>2324.3999023438</ele>
        <time>2020-12-16T11:21:35.000Z</time>
      </trkpt>
      <trkpt lat="45.30693" lon="6.1449">
        <ele>2324.1999511719</ele>
        <time>2020-12-16T11:21:45.000Z</time>
      </trkpt>
      <trkpt lat="45.30693" lon="6.1449">
        <ele>2324.1999511719</ele>
        <time>2020-12-16T11:21:47.000Z</time>
      </trkpt>
      <trkpt lat="45.30694" lon="6.1449">
        <ele>2324.1999511719</ele>
        <time>2020-12-16T11:21:55.000Z</time>
      </trkpt>
      <trkpt lat="45.30693" lon="6.1449">
        <ele>2324.1999511719</ele>
        <time>2020-12-16T11:21:56.000Z</time>
      </trkpt>
      <trkpt lat="45.30693" lon="6.1449">
        <ele>2324.1999511719</ele>
        <time>2020-12-16T11:21:59.000Z</time>
      </trkpt>
      <trkpt lat="45.30694" lon="6.14489">
        <ele>2324</ele>
        <time>2020-12-16T11:22:03.000Z</time>
      </trkpt>
      <trkpt lat="45.30694" lon="6.14488">
        <ele>2324</ele>
        <time>2020-12-16T11:22:07.000Z</time>
      </trkpt>
      <trkpt lat="45.30694" lon="6.14488">
        <ele>2323.3999023438</ele>
        <time>2020-12-16T11:22:23.000Z</time>
      </trkpt>
      <trkpt lat="45.30694" lon="6.14488">
        <ele>2323.1999511719</ele>
        <time>2020-12-16T11:22:44.000Z</time>
      </trkpt>
      <trkpt lat="45.30694" lon="6.14488">
        <ele>2323.6000976562</ele>
        <time>2020-12-16T11:22:59.000Z</time>
      </trkpt>
      <trkpt lat="45.30693" lon="6.1449">
        <ele>2323.6000976562</ele>
        <time>2020-12-16T11:23:02.000Z</time>
      </trkpt>
      <trkpt lat="45.30693" lon="6.1449">
        <ele>2323.8000488281</ele>
        <time>2020-12-16T11:23:04.000Z</time>
      </trkpt>
      <trkpt lat="45.30693" lon="6.1449">
        <ele>2324.1999511719</ele>
        <time>2020-12-16T11:23:11.000Z</time>
      </trkpt>
      <trkpt lat="45.30693" lon="6.1449">
        <ele>2324.6000976562</ele>
        <time>2020-12-16T11:23:20.000Z</time>
      </trkpt>
      <trkpt lat="45.30693" lon="6.1449">
        <ele>2324.1999511719</ele>
        <time>2020-12-16T11:23:33.000Z</time>
      </trkpt>
      <trkpt lat="45.30694" lon="6.14491">
        <ele>2324.8000488281</ele>
        <time>2020-12-16T11:23:40.000Z</time>
      </trkpt>
      <trkpt lat="45.30695" lon="6.14495">
        <ele>2325.3999023438</ele>
        <time>2020-12-16T11:23:46.000Z</time>
      </trkpt>
      <trkpt lat="45.30695" lon="6.14495">
        <ele>2325.6000976562</ele>
        <time>2020-12-16T11:23:47.000Z</time>
      </trkpt>
      <trkpt lat="45.30695" lon="6.14499">
        <ele>2326.3999023438</ele>
        <time>2020-12-16T11:23:54.000Z</time>
      </trkpt>
      <trkpt lat="45.30695" lon="6.14499">
        <ele>2326.3999023438</ele>
        <time>2020-12-16T11:23:55.000Z</time>
      </trkpt>
      <trkpt lat="45.30695" lon="6.145">
        <ele>2327</ele>
        <time>2020-12-16T11:24:03.000Z</time>
      </trkpt>
      <trkpt lat="45.30691" lon="6.145">
        <ele>2327.3999023438</ele>
        <time>2020-12-16T11:24:09.000Z</time>
      </trkpt>
      <trkpt lat="45.3069" lon="6.14501">
        <ele>2327.6000976562</ele>
        <time>2020-12-16T11:24:10.000Z</time>
      </trkpt>
      <trkpt lat="45.30689" lon="6.14504">
        <ele>2328.6000976562</ele>
        <time>2020-12-16T11:24:15.000Z</time>
      </trkpt>
      <trkpt lat="45.30689" lon="6.14503">
        <ele>2328.8000488281</ele>
        <time>2020-12-16T11:24:16.000Z</time>
      </trkpt>
      <trkpt lat="45.30689" lon="6.14503">
        <ele>2329.6000976562</ele>
        <time>2020-12-16T11:24:19.000Z</time>
      </trkpt>
      <trkpt lat="45.30689" lon="6.14503">
        <ele>2330</ele>
        <time>2020-12-16T11:24:25.000Z</time>
      </trkpt>
      <trkpt lat="45.30689" lon="6.14503">
        <ele>2330.1999511719</ele>
        <time>2020-12-16T11:24:35.000Z</time>
      </trkpt>
      <trkpt lat="45.3069" lon="6.14503">
        <ele>2330</ele>
        <time>2020-12-16T11:24:46.000Z</time>
      </trkpt>
      <trkpt lat="45.3069" lon="6.14503">
        <ele>2330.6000976562</ele>
        <time>2020-12-16T11:24:54.000Z</time>
      </trkpt>
      <trkpt lat="45.3069" lon="6.14503">
        <ele>2330.6000976562</ele>
        <time>2020-12-16T11:24:56.000Z</time>
      </trkpt>
      <trkpt lat="45.30692" lon="6.14501">
        <ele>2330.8000488281</ele>
        <time>2020-12-16T11:25:04.000Z</time>
      </trkpt>
      <trkpt lat="45.30692" lon="6.14501">
        <ele>2331.1999511719</ele>
        <time>2020-12-16T11:25:16.000Z</time>
      </trkpt>
      <trkpt lat="45.30692" lon="6.14501">
        <ele>2331</ele>
        <time>2020-12-16T11:25:28.000Z</time>
      </trkpt>
      <trkpt lat="45.30692" lon="6.14501">
        <ele>2330.8000488281</ele>
        <time>2020-12-16T11:25:40.000Z</time>
      </trkpt>
      <trkpt lat="45.30692" lon="6.14501">
        <ele>2330.8000488281</ele>
        <time>2020-12-16T11:25:49.000Z</time>
      </trkpt>
      <trkpt lat="45.30692" lon="6.14508">
        <ele>2331.3999023438</ele>
        <time>2020-12-16T11:25:56.000Z</time>
      </trkpt>
      <trkpt lat="45.30692" lon="6.14511">
        <ele>2331.8000488281</ele>
        <time>2020-12-16T11:25:59.000Z</time>
      </trkpt>
      <trkpt lat="45.30694" lon="6.14515">
        <ele>2333.1999511719</ele>
        <time>2020-12-16T11:26:03.000Z</time>
      </trkpt>
      <trkpt lat="45.30694" lon="6.14516">
        <ele>2333.3999023438</ele>
        <time>2020-12-16T11:26:04.000Z</time>
      </trkpt>
      <trkpt lat="45.30691" lon="6.14519">
        <ele>2334.1999511719</ele>
        <time>2020-12-16T11:26:08.000Z</time>
      </trkpt>
      <trkpt lat="45.30688" lon="6.14521">
        <ele>2334.8000488281</ele>
        <time>2020-12-16T11:26:11.000Z</time>
      </trkpt>
      <trkpt lat="45.30689" lon="6.14521">
        <ele>2335.1999511719</ele>
        <time>2020-12-16T11:26:14.000Z</time>
      </trkpt>
      <trkpt lat="45.30688" lon="6.14522">
        <ele>2335.6000976562</ele>
        <time>2020-12-16T11:26:16.000Z</time>
      </trkpt>
      <trkpt lat="45.30687" lon="6.14523">
        <ele>2336.3999023438</ele>
        <time>2020-12-16T11:26:19.000Z</time>
      </trkpt>
      <trkpt lat="45.30688" lon="6.14525">
        <ele>2337.1999511719</ele>
        <time>2020-12-16T11:26:23.000Z</time>
      </trkpt>
      <trkpt lat="45.30688" lon="6.14525">
        <ele>2337.3999023438</ele>
        <time>2020-12-16T11:26:24.000Z</time>
      </trkpt>
      <trkpt lat="45.30689" lon="6.14526">
        <ele>2338.3999023438</ele>
        <time>2020-12-16T11:26:28.000Z</time>
      </trkpt>
      <trkpt lat="45.30689" lon="6.14526">
        <ele>2338.6000976562</ele>
        <time>2020-12-16T11:26:29.000Z</time>
      </trkpt>
      <trkpt lat="45.30689" lon="6.14529">
        <ele>2339.3999023438</ele>
        <time>2020-12-16T11:26:34.000Z</time>
      </trkpt>
      <trkpt lat="45.3069" lon="6.14531">
        <ele>2339.8000488281</ele>
        <time>2020-12-16T11:26:36.000Z</time>
      </trkpt>
      <trkpt lat="45.30691" lon="6.14533">
        <ele>2340.6000976562</ele>
        <time>2020-12-16T11:26:41.000Z</time>
      </trkpt>
      <trkpt lat="45.30691" lon="6.14533">
        <ele>2341</ele>
        <time>2020-12-16T11:26:43.000Z</time>
      </trkpt>
      <trkpt lat="45.30691" lon="6.14535">
        <ele>2341.8000488281</ele>
        <time>2020-12-16T11:26:48.000Z</time>
      </trkpt>
      <trkpt lat="45.30691" lon="6.14535">
        <ele>2341.8000488281</ele>
        <time>2020-12-16T11:26:49.000Z</time>
      </trkpt>
      <trkpt lat="45.30691" lon="6.14536">
        <ele>2342.3999023438</ele>
        <time>2020-12-16T11:26:56.000Z</time>
      </trkpt>
      <trkpt lat="45.30692" lon="6.14538">
        <ele>2342.8000488281</ele>
        <time>2020-12-16T11:26:59.000Z</time>
      </trkpt>
      <trkpt lat="45.30694" lon="6.14543">
        <ele>2343.3999023438</ele>
        <time>2020-12-16T11:27:03.000Z</time>
      </trkpt>
      <trkpt lat="45.30694" lon="6.14546">
        <ele>2343.8000488281</ele>
        <time>2020-12-16T11:27:06.000Z</time>
      </trkpt>
      <trkpt lat="45.30695" lon="6.14548">
        <ele>2344.3999023438</ele>
        <time>2020-12-16T11:27:10.000Z</time>
      </trkpt>
      <trkpt lat="45.30695" lon="6.1455">
        <ele>2344.8000488281</ele>
        <time>2020-12-16T11:27:12.000Z</time>
      </trkpt>
      <trkpt lat="45.30696" lon="6.14555">
        <ele>2345.8000488281</ele>
        <time>2020-12-16T11:27:18.000Z</time>
      </trkpt>
      <trkpt lat="45.30697" lon="6.14556">
        <ele>2346</ele>
        <time>2020-12-16T11:27:19.000Z</time>
      </trkpt>
      <trkpt lat="45.30697" lon="6.14561">
        <ele>2347</ele>
        <time>2020-12-16T11:27:26.000Z</time>
      </trkpt>
      <trkpt lat="45.30697" lon="6.14562">
        <ele>2347.1999511719</ele>
        <time>2020-12-16T11:27:27.000Z</time>
      </trkpt>
      <trkpt lat="45.30698" lon="6.14566">
        <ele>2348</ele>
        <time>2020-12-16T11:27:32.000Z</time>
      </trkpt>
      <trkpt lat="45.30696" lon="6.14568">
        <ele>2348.6000976562</ele>
        <time>2020-12-16T11:27:35.000Z</time>
      </trkpt>
      <trkpt lat="45.30696" lon="6.14572">
        <ele>2349.1999511719</ele>
        <time>2020-12-16T11:27:39.000Z</time>
      </trkpt>
      <trkpt lat="45.30696" lon="6.14574">
        <ele>2349.6000976562</ele>
        <time>2020-12-16T11:27:41.000Z</time>
      </trkpt>
      <trkpt lat="45.30695" lon="6.14575">
        <ele>2350.1999511719</ele>
        <time>2020-12-16T11:27:46.000Z</time>
      </trkpt>
      <trkpt lat="45.30695" lon="6.14577">
        <ele>2350.6000976562</ele>
        <time>2020-12-16T11:27:49.000Z</time>
      </trkpt>
      <trkpt lat="45.30694" lon="6.14578">
        <ele>2351.1999511719</ele>
        <time>2020-12-16T11:27:54.000Z</time>
      </trkpt>
      <trkpt lat="45.30694" lon="6.14578">
        <ele>2351.6000976562</ele>
        <time>2020-12-16T11:27:57.000Z</time>
      </trkpt>
      <trkpt lat="45.30693" lon="6.14578">
        <ele>2352.1999511719</ele>
        <time>2020-12-16T11:28:03.000Z</time>
      </trkpt>
      <trkpt lat="45.30693" lon="6.14578">
        <ele>2352.3999023438</ele>
        <time>2020-12-16T11:28:04.000Z</time>
      </trkpt>
      <trkpt lat="45.3069" lon="6.14578">
        <ele>2353.1999511719</ele>
        <time>2020-12-16T11:28:09.000Z</time>
      </trkpt>
      <trkpt lat="45.30686" lon="6.14575">
        <ele>2354.1999511719</ele>
        <time>2020-12-16T11:28:14.000Z</time>
      </trkpt>
      <trkpt lat="45.30686" lon="6.14575">
        <ele>2354.3999023438</ele>
        <time>2020-12-16T11:28:15.000Z</time>
      </trkpt>
      <trkpt lat="45.30682" lon="6.14575">
        <ele>2355.1999511719</ele>
        <time>2020-12-16T11:28:20.000Z</time>
      </trkpt>
      <trkpt lat="45.30682" lon="6.14574">
        <ele>2355.6000976562</ele>
        <time>2020-12-16T11:28:23.000Z</time>
      </trkpt>
      <trkpt lat="45.30681" lon="6.14574">
        <ele>2356.1999511719</ele>
        <time>2020-12-16T11:28:28.000Z</time>
      </trkpt>
      <trkpt lat="45.30681" lon="6.14575">
        <ele>2356.3999023438</ele>
        <time>2020-12-16T11:28:35.000Z</time>
      </trkpt>
      <trkpt lat="45.30681" lon="6.14575">
        <ele>2356.6000976562</ele>
        <time>2020-12-16T11:28:44.000Z</time>
      </trkpt>
      <trkpt lat="45.3068" lon="6.14574">
        <ele>2357</ele>
        <time>2020-12-16T11:28:53.000Z</time>
      </trkpt>
      <trkpt lat="45.3068" lon="6.14574">
        <ele>2358</ele>
        <time>2020-12-16T11:28:54.000Z</time>
      </trkpt>
      <trkpt lat="45.30675" lon="6.14574">
        <ele>2358</ele>
        <time>2020-12-16T11:28:59.000Z</time>
      </trkpt>
      <trkpt lat="45.3067" lon="6.14573">
        <ele>2358.3999023438</ele>
        <time>2020-12-16T11:29:05.000Z</time>
      </trkpt>
      <trkpt lat="45.30667" lon="6.14573">
        <ele>2359.1999511719</ele>
        <time>2020-12-16T11:29:10.000Z</time>
      </trkpt>
      <trkpt lat="45.30666" lon="6.14573">
        <ele>2359.3999023438</ele>
        <time>2020-12-16T11:29:11.000Z</time>
      </trkpt>
      <trkpt lat="45.30663" lon="6.14573">
        <ele>2360.6000976562</ele>
        <time>2020-12-16T11:29:15.000Z</time>
      </trkpt>
      <trkpt lat="45.30659" lon="6.14573">
        <ele>2361.3999023438</ele>
        <time>2020-12-16T11:29:19.000Z</time>
      </trkpt>
      <trkpt lat="45.30658" lon="6.14573">
        <ele>2361.6000976562</ele>
        <time>2020-12-16T11:29:20.000Z</time>
      </trkpt>
      <trkpt lat="45.30655" lon="6.14573">
        <ele>2362.6000976562</ele>
        <time>2020-12-16T11:29:26.000Z</time>
      </trkpt>
      <trkpt lat="45.30654" lon="6.14573">
        <ele>2362.8000488281</ele>
        <time>2020-12-16T11:29:27.000Z</time>
      </trkpt>
      <trkpt lat="45.30651" lon="6.14574">
        <ele>2363.8000488281</ele>
        <time>2020-12-16T11:29:32.000Z</time>
      </trkpt>
      <trkpt lat="45.30649" lon="6.14574">
        <ele>2364.3999023438</ele>
        <time>2020-12-16T11:29:35.000Z</time>
      </trkpt>
      <trkpt lat="45.30648" lon="6.14575">
        <ele>2365</ele>
        <time>2020-12-16T11:29:38.000Z</time>
      </trkpt>
      <trkpt lat="45.30645" lon="6.14576">
        <ele>2365.8000488281</ele>
        <time>2020-12-16T11:29:43.000Z</time>
      </trkpt>
      <trkpt lat="45.30644" lon="6.14576">
        <ele>2366</ele>
        <time>2020-12-16T11:29:44.000Z</time>
      </trkpt>
      <trkpt lat="45.30643" lon="6.14577">
        <ele>2366.8000488281</ele>
        <time>2020-12-16T11:29:50.000Z</time>
      </trkpt>
      <trkpt lat="45.30643" lon="6.14577">
        <ele>2367.1999511719</ele>
        <time>2020-12-16T11:29:52.000Z</time>
      </trkpt>
      <trkpt lat="45.3064" lon="6.14575">
        <ele>2368</ele>
        <time>2020-12-16T11:29:58.000Z</time>
      </trkpt>
      <trkpt lat="45.3064" lon="6.14575">
        <ele>2368.1999511719</ele>
        <time>2020-12-16T11:29:59.000Z</time>
      </trkpt>
      <trkpt lat="45.30643" lon="6.14576">
        <ele>2369.3999023438</ele>
        <time>2020-12-16T11:30:04.000Z</time>
      </trkpt>
      <trkpt lat="45.30644" lon="6.14577">
        <ele>2370.3999023438</ele>
        <time>2020-12-16T11:30:10.000Z</time>
      </trkpt>
      <trkpt lat="45.30647" lon="6.14579">
        <ele>2371</ele>
        <time>2020-12-16T11:30:14.000Z</time>
      </trkpt>
      <trkpt lat="45.30648" lon="6.14581">
        <ele>2371.6000976562</ele>
        <time>2020-12-16T11:30:18.000Z</time>
      </trkpt>
      <trkpt lat="45.3065" lon="6.14585">
        <ele>2372.3999023438</ele>
        <time>2020-12-16T11:30:22.000Z</time>
      </trkpt>
      <trkpt lat="45.3065" lon="6.14586">
        <ele>2372.6000976562</ele>
        <time>2020-12-16T11:30:24.000Z</time>
      </trkpt>
      <trkpt lat="45.30649" lon="6.1459">
        <ele>2373.6000976562</ele>
        <time>2020-12-16T11:30:30.000Z</time>
      </trkpt>
      <trkpt lat="45.30649" lon="6.14597">
        <ele>2374.6000976562</ele>
        <time>2020-12-16T11:30:38.000Z</time>
      </trkpt>
      <trkpt lat="45.30649" lon="6.14598">
        <ele>2375</ele>
        <time>2020-12-16T11:30:40.000Z</time>
      </trkpt>
      <trkpt lat="45.30649" lon="6.14602">
        <ele>2375.8000488281</ele>
        <time>2020-12-16T11:30:44.000Z</time>
      </trkpt>
      <trkpt lat="45.30648" lon="6.14606">
        <ele>2376.3999023438</ele>
        <time>2020-12-16T11:30:48.000Z</time>
      </trkpt>
      <trkpt lat="45.30649" lon="6.14608">
        <ele>2377</ele>
        <time>2020-12-16T11:30:51.000Z</time>
      </trkpt>
      <trkpt lat="45.3065" lon="6.14612">
        <ele>2377.8000488281</ele>
        <time>2020-12-16T11:30:58.000Z</time>
      </trkpt>
      <trkpt lat="45.3065" lon="6.14613">
        <ele>2378</ele>
        <time>2020-12-16T11:31:00.000Z</time>
      </trkpt>
      <trkpt lat="45.3065" lon="6.14616">
        <ele>2379</ele>
        <time>2020-12-16T11:31:08.000Z</time>
      </trkpt>
      <trkpt lat="45.3065" lon="6.14617">
        <ele>2379.1999511719</ele>
        <time>2020-12-16T11:31:09.000Z</time>
      </trkpt>
      <trkpt lat="45.30648" lon="6.14622">
        <ele>2380.1999511719</ele>
        <time>2020-12-16T11:31:16.000Z</time>
      </trkpt>
      <trkpt lat="45.30648" lon="6.14622">
        <ele>2380.6000976562</ele>
        <time>2020-12-16T11:31:18.000Z</time>
      </trkpt>
      <trkpt lat="45.30648" lon="6.14623">
        <ele>2381.3999023438</ele>
        <time>2020-12-16T11:31:20.000Z</time>
      </trkpt>
      <trkpt lat="45.30646" lon="6.14622">
        <ele>2381.6000976562</ele>
        <time>2020-12-16T11:31:24.000Z</time>
      </trkpt>
      <trkpt lat="45.30642" lon="6.14618">
        <ele>2382.3999023438</ele>
        <time>2020-12-16T11:31:32.000Z</time>
      </trkpt>
      <trkpt lat="45.30641" lon="6.14617">
        <ele>2382.6000976562</ele>
        <time>2020-12-16T11:31:33.000Z</time>
      </trkpt>
      <trkpt lat="45.30637" lon="6.14615">
        <ele>2383.8000488281</ele>
        <time>2020-12-16T11:31:39.000Z</time>
      </trkpt>
      <trkpt lat="45.30636" lon="6.14615">
        <ele>2383.8000488281</ele>
        <time>2020-12-16T11:31:40.000Z</time>
      </trkpt>
      <trkpt lat="45.30631" lon="6.14616">
        <ele>2384.8000488281</ele>
        <time>2020-12-16T11:31:46.000Z</time>
      </trkpt>
      <trkpt lat="45.3063" lon="6.14615">
        <ele>2385</ele>
        <time>2020-12-16T11:31:47.000Z</time>
      </trkpt>
      <trkpt lat="45.3063" lon="6.14615">
        <ele>2385.6000976562</ele>
        <time>2020-12-16T11:31:54.000Z</time>
      </trkpt>
      <trkpt lat="45.3063" lon="6.14615">
        <ele>2385.8000488281</ele>
        <time>2020-12-16T11:31:56.000Z</time>
      </trkpt>
      <trkpt lat="45.30631" lon="6.14615">
        <ele>2386.3999023438</ele>
        <time>2020-12-16T11:32:00.000Z</time>
      </trkpt>
      <trkpt lat="45.30632" lon="6.1462">
        <ele>2387</ele>
        <time>2020-12-16T11:32:06.000Z</time>
      </trkpt>
      <trkpt lat="45.30632" lon="6.14622">
        <ele>2387.6000976562</ele>
        <time>2020-12-16T11:32:08.000Z</time>
      </trkpt>
      <trkpt lat="45.30633" lon="6.14626">
        <ele>2388</ele>
        <time>2020-12-16T11:32:11.000Z</time>
      </trkpt>
      <trkpt lat="45.30635" lon="6.1463">
        <ele>2388.6000976562</ele>
        <time>2020-12-16T11:32:16.000Z</time>
      </trkpt>
      <trkpt lat="45.30634" lon="6.14633">
        <ele>2389.1999511719</ele>
        <time>2020-12-16T11:32:19.000Z</time>
      </trkpt>
      <trkpt lat="45.30634" lon="6.14636">
        <ele>2390</ele>
        <time>2020-12-16T11:32:23.000Z</time>
      </trkpt>
      <trkpt lat="45.30635" lon="6.14638">
        <ele>2390.3999023438</ele>
        <time>2020-12-16T11:32:25.000Z</time>
      </trkpt>
      <trkpt lat="45.30637" lon="6.14642">
        <ele>2391.1999511719</ele>
        <time>2020-12-16T11:32:31.000Z</time>
      </trkpt>
      <trkpt lat="45.30637" lon="6.14643">
        <ele>2391.3999023438</ele>
        <time>2020-12-16T11:32:32.000Z</time>
      </trkpt>
      <trkpt lat="45.3064" lon="6.14648">
        <ele>2392.3999023438</ele>
        <time>2020-12-16T11:32:40.000Z</time>
      </trkpt>
      <trkpt lat="45.30639" lon="6.14648">
        <ele>2392.6000976562</ele>
        <time>2020-12-16T11:32:41.000Z</time>
      </trkpt>
      <trkpt lat="45.30641" lon="6.14654">
        <ele>2393.3999023438</ele>
        <time>2020-12-16T11:32:48.000Z</time>
      </trkpt>
      <trkpt lat="45.30642" lon="6.14655">
        <ele>2393.6000976562</ele>
        <time>2020-12-16T11:32:49.000Z</time>
      </trkpt>
      <trkpt lat="45.30643" lon="6.14659">
        <ele>2394.3999023438</ele>
        <time>2020-12-16T11:32:55.000Z</time>
      </trkpt>
      <trkpt lat="45.30644" lon="6.14662">
        <ele>2395</ele>
        <time>2020-12-16T11:32:59.000Z</time>
      </trkpt>
      <trkpt lat="45.30645" lon="6.14665">
        <ele>2395.6000976562</ele>
        <time>2020-12-16T11:33:03.000Z</time>
      </trkpt>
      <trkpt lat="45.30645" lon="6.14669">
        <ele>2396.6000976562</ele>
        <time>2020-12-16T11:33:09.000Z</time>
      </trkpt>
      <trkpt lat="45.30646" lon="6.14671">
        <ele>2397.3999023438</ele>
        <time>2020-12-16T11:33:16.000Z</time>
      </trkpt>
      <trkpt lat="45.30646" lon="6.14671">
        <ele>2397.8000488281</ele>
        <time>2020-12-16T11:33:21.000Z</time>
      </trkpt>
      <trkpt lat="45.30646" lon="6.14671">
        <ele>2398</ele>
        <time>2020-12-16T11:33:24.000Z</time>
      </trkpt>
      <trkpt lat="45.30643" lon="6.1467">
        <ele>2398.1999511719</ele>
        <time>2020-12-16T11:33:32.000Z</time>
      </trkpt>
      <trkpt lat="45.30637" lon="6.1467">
        <ele>2398.8000488281</ele>
        <time>2020-12-16T11:33:39.000Z</time>
      </trkpt>
      <trkpt lat="45.30635" lon="6.14671">
        <ele>2399</ele>
        <time>2020-12-16T11:33:41.000Z</time>
      </trkpt>
      <trkpt lat="45.30632" lon="6.14671">
        <ele>2399.8000488281</ele>
        <time>2020-12-16T11:33:45.000Z</time>
      </trkpt>
      <trkpt lat="45.3063" lon="6.14671">
        <ele>2400.1999511719</ele>
        <time>2020-12-16T11:33:47.000Z</time>
      </trkpt>
      <trkpt lat="45.30627" lon="6.14671">
        <ele>2401</ele>
        <time>2020-12-16T11:33:51.000Z</time>
      </trkpt>
      <trkpt lat="45.30624" lon="6.14671">
        <ele>2401.6000976562</ele>
        <time>2020-12-16T11:33:55.000Z</time>
      </trkpt>
      <trkpt lat="45.30623" lon="6.14672">
        <ele>2402</ele>
        <time>2020-12-16T11:33:58.000Z</time>
      </trkpt>
      <trkpt lat="45.30623" lon="6.14672">
        <ele>2402.6000976562</ele>
        <time>2020-12-16T11:34:03.000Z</time>
      </trkpt>
      <trkpt lat="45.30621" lon="6.14672">
        <ele>2403</ele>
        <time>2020-12-16T11:34:06.000Z</time>
      </trkpt>
      <trkpt lat="45.30617" lon="6.14673">
        <ele>2403.6000976562</ele>
        <time>2020-12-16T11:34:11.000Z</time>
      </trkpt>
      <trkpt lat="45.30614" lon="6.14674">
        <ele>2404.1999511719</ele>
        <time>2020-12-16T11:34:15.000Z</time>
      </trkpt>
      <trkpt lat="45.30609" lon="6.14676">
        <ele>2404.6000976562</ele>
        <time>2020-12-16T11:34:19.000Z</time>
      </trkpt>
      <trkpt lat="45.30604" lon="6.14678">
        <ele>2405.1999511719</ele>
        <time>2020-12-16T11:34:24.000Z</time>
      </trkpt>
      <trkpt lat="45.306" lon="6.14679">
        <ele>2405.6000976562</ele>
        <time>2020-12-16T11:34:27.000Z</time>
      </trkpt>
      <trkpt lat="45.30594" lon="6.14681">
        <ele>2406</ele>
        <time>2020-12-16T11:34:32.000Z</time>
      </trkpt>
      <trkpt lat="45.30593" lon="6.14681">
        <ele>2406</ele>
        <time>2020-12-16T11:34:33.000Z</time>
      </trkpt>
      <trkpt lat="45.30591" lon="6.14682">
        <ele>2406.1999511719</ele>
        <time>2020-12-16T11:34:35.000Z</time>
      </trkpt>
      <trkpt lat="45.30589" lon="6.14682">
        <ele>2406.3999023438</ele>
        <time>2020-12-16T11:34:37.000Z</time>
      </trkpt>
      <trkpt lat="45.30584" lon="6.14682">
        <ele>2406.6000976562</ele>
        <time>2020-12-16T11:34:43.000Z</time>
      </trkpt>
      <trkpt lat="45.30579" lon="6.14679">
        <ele>2407</ele>
        <time>2020-12-16T11:34:50.000Z</time>
      </trkpt>
      <trkpt lat="45.30575" lon="6.14678">
        <ele>2407.1999511719</ele>
        <time>2020-12-16T11:34:55.000Z</time>
      </trkpt>
      <trkpt lat="45.30574" lon="6.14678">
        <ele>2407.3999023438</ele>
        <time>2020-12-16T11:34:56.000Z</time>
      </trkpt>
      <trkpt lat="45.3057" lon="6.14677">
        <ele>2407.8000488281</ele>
        <time>2020-12-16T11:35:01.000Z</time>
      </trkpt>
      <trkpt lat="45.30569" lon="6.14677">
        <ele>2408.1999511719</ele>
        <time>2020-12-16T11:35:03.000Z</time>
      </trkpt>
      <trkpt lat="45.30566" lon="6.14677">
        <ele>2408.3999023438</ele>
        <time>2020-12-16T11:35:06.000Z</time>
      </trkpt>
      <trkpt lat="45.30562" lon="6.14678">
        <ele>2409</ele>
        <time>2020-12-16T11:35:11.000Z</time>
      </trkpt>
      <trkpt lat="45.3056" lon="6.14679">
        <ele>2409.3999023438</ele>
        <time>2020-12-16T11:35:14.000Z</time>
      </trkpt>
      <trkpt lat="45.30558" lon="6.14678">
        <ele>2409.6000976562</ele>
        <time>2020-12-16T11:35:15.000Z</time>
      </trkpt>
      <trkpt lat="45.30553" lon="6.14679">
        <ele>2410.3999023438</ele>
        <time>2020-12-16T11:35:20.000Z</time>
      </trkpt>
      <trkpt lat="45.30552" lon="6.14679">
        <ele>2410.6000976562</ele>
        <time>2020-12-16T11:35:21.000Z</time>
      </trkpt>
      <trkpt lat="45.30547" lon="6.14679">
        <ele>2411.8000488281</ele>
        <time>2020-12-16T11:35:25.000Z</time>
      </trkpt>
      <trkpt lat="45.30545" lon="6.1468">
        <ele>2412</ele>
        <time>2020-12-16T11:35:27.000Z</time>
      </trkpt>
      <trkpt lat="45.30541" lon="6.14682">
        <ele>2412.8000488281</ele>
        <time>2020-12-16T11:35:32.000Z</time>
      </trkpt>
      <trkpt lat="45.30541" lon="6.14683">
        <ele>2412.8000488281</ele>
        <time>2020-12-16T11:35:33.000Z</time>
      </trkpt>
      <trkpt lat="45.3054" lon="6.14685">
        <ele>2414</ele>
        <time>2020-12-16T11:35:37.000Z</time>
      </trkpt>
      <trkpt lat="45.3054" lon="6.14687">
        <ele>2414.8000488281</ele>
        <time>2020-12-16T11:35:41.000Z</time>
      </trkpt>
      <trkpt lat="45.30539" lon="6.14687">
        <ele>2415</ele>
        <time>2020-12-16T11:35:42.000Z</time>
      </trkpt>
      <trkpt lat="45.30536" lon="6.1469">
        <ele>2416</ele>
        <time>2020-12-16T11:35:47.000Z</time>
      </trkpt>
      <trkpt lat="45.30536" lon="6.1469">
        <ele>2416.1999511719</ele>
        <time>2020-12-16T11:35:48.000Z</time>
      </trkpt>
      <trkpt lat="45.30532" lon="6.14691">
        <ele>2417</ele>
        <time>2020-12-16T11:35:52.000Z</time>
      </trkpt>
      <trkpt lat="45.30529" lon="6.14691">
        <ele>2417.1999511719</ele>
        <time>2020-12-16T11:35:54.000Z</time>
      </trkpt>
      <trkpt lat="45.30527" lon="6.1469">
        <ele>2417.6000976562</ele>
        <time>2020-12-16T11:35:58.000Z</time>
      </trkpt>
      <trkpt lat="45.30524" lon="6.14689">
        <ele>2418.3999023438</ele>
        <time>2020-12-16T11:36:02.000Z</time>
      </trkpt>
      <trkpt lat="45.30523" lon="6.14689">
        <ele>2418.8000488281</ele>
        <time>2020-12-16T11:36:03.000Z</time>
      </trkpt>
      <trkpt lat="45.30519" lon="6.14688">
        <ele>2419.3999023438</ele>
        <time>2020-12-16T11:36:08.000Z</time>
      </trkpt>
      <trkpt lat="45.30518" lon="6.14687">
        <ele>2420.3999023438</ele>
        <time>2020-12-16T11:36:11.000Z</time>
      </trkpt>
      <trkpt lat="45.30517" lon="6.14687">
        <ele>2420.6000976562</ele>
        <time>2020-12-16T11:36:12.000Z</time>
      </trkpt>
      <trkpt lat="45.30513" lon="6.14685">
        <ele>2421.6000976562</ele>
        <time>2020-12-16T11:36:18.000Z</time>
      </trkpt>
      <trkpt lat="45.30513" lon="6.14685">
        <ele>2422</ele>
        <time>2020-12-16T11:36:19.000Z</time>
      </trkpt>
      <trkpt lat="45.30512" lon="6.14685">
        <ele>2422.6000976562</ele>
        <time>2020-12-16T11:36:23.000Z</time>
      </trkpt>
      <trkpt lat="45.30511" lon="6.14686">
        <ele>2423.1999511719</ele>
        <time>2020-12-16T11:36:26.000Z</time>
      </trkpt>
      <trkpt lat="45.3051" lon="6.14687">
        <ele>2423.8000488281</ele>
        <time>2020-12-16T11:36:30.000Z</time>
      </trkpt>
      <trkpt lat="45.3051" lon="6.14689">
        <ele>2424.8000488281</ele>
        <time>2020-12-16T11:36:34.000Z</time>
      </trkpt>
      <trkpt lat="45.3051" lon="6.14692">
        <ele>2425.8000488281</ele>
        <time>2020-12-16T11:36:40.000Z</time>
      </trkpt>
      <trkpt lat="45.30509" lon="6.14694">
        <ele>2426.6000976562</ele>
        <time>2020-12-16T11:36:42.000Z</time>
      </trkpt>
      <trkpt lat="45.30509" lon="6.14695">
        <ele>2427</ele>
        <time>2020-12-16T11:36:44.000Z</time>
      </trkpt>
      <trkpt lat="45.30507" lon="6.14701">
        <ele>2428</ele>
        <time>2020-12-16T11:36:50.000Z</time>
      </trkpt>
      <trkpt lat="45.30508" lon="6.14702">
        <ele>2428.3999023438</ele>
        <time>2020-12-16T11:36:52.000Z</time>
      </trkpt>
      <trkpt lat="45.30508" lon="6.14706">
        <ele>2429.3999023438</ele>
        <time>2020-12-16T11:36:58.000Z</time>
      </trkpt>
      <trkpt lat="45.30508" lon="6.1471">
        <ele>2430.3999023438</ele>
        <time>2020-12-16T11:37:04.000Z</time>
      </trkpt>
      <trkpt lat="45.30508" lon="6.1471">
        <ele>2430.6000976562</ele>
        <time>2020-12-16T11:37:05.000Z</time>
      </trkpt>
      <trkpt lat="45.30508" lon="6.1471">
        <ele>2431.6000976562</ele>
        <time>2020-12-16T11:37:09.000Z</time>
      </trkpt>
      <trkpt lat="45.30508" lon="6.1471">
        <ele>2432.1999511719</ele>
        <time>2020-12-16T11:37:14.000Z</time>
      </trkpt>
      <trkpt lat="45.30508" lon="6.1471">
        <ele>2432.6000976562</ele>
        <time>2020-12-16T11:37:20.000Z</time>
      </trkpt>
      <trkpt lat="45.30508" lon="6.1471">
        <ele>2432.6000976562</ele>
        <time>2020-12-16T11:37:21.000Z</time>
      </trkpt>
      <trkpt lat="45.30505" lon="6.14711">
        <ele>2433.6000976562</ele>
        <time>2020-12-16T11:37:28.000Z</time>
      </trkpt>
      <trkpt lat="45.30504" lon="6.14711">
        <ele>2433.6000976562</ele>
        <time>2020-12-16T11:37:29.000Z</time>
      </trkpt>
      <trkpt lat="45.30498" lon="6.14711">
        <ele>2434.6000976562</ele>
        <time>2020-12-16T11:37:36.000Z</time>
      </trkpt>
      <trkpt lat="45.30497" lon="6.1471">
        <ele>2435</ele>
        <time>2020-12-16T11:37:38.000Z</time>
      </trkpt>
      <trkpt lat="45.30495" lon="6.14709">
        <ele>2435.8000488281</ele>
        <time>2020-12-16T11:37:41.000Z</time>
      </trkpt>
      <trkpt lat="45.30489" lon="6.1471">
        <ele>2436.6000976562</ele>
        <time>2020-12-16T11:37:46.000Z</time>
      </trkpt>
      <trkpt lat="45.30489" lon="6.1471">
        <ele>2436.8000488281</ele>
        <time>2020-12-16T11:37:47.000Z</time>
      </trkpt>
      <trkpt lat="45.30484" lon="6.14709">
        <ele>2437.8000488281</ele>
        <time>2020-12-16T11:37:52.000Z</time>
      </trkpt>
      <trkpt lat="45.30484" lon="6.14709">
        <ele>2438</ele>
        <time>2020-12-16T11:37:53.000Z</time>
      </trkpt>
      <trkpt lat="45.30477" lon="6.14708">
        <ele>2439</ele>
        <time>2020-12-16T11:38:00.000Z</time>
      </trkpt>
      <trkpt lat="45.30475" lon="6.14708">
        <ele>2439.3999023438</ele>
        <time>2020-12-16T11:38:02.000Z</time>
      </trkpt>
      <trkpt lat="45.30474" lon="6.14707">
        <ele>2440</ele>
        <time>2020-12-16T11:38:05.000Z</time>
      </trkpt>
      <trkpt lat="45.30474" lon="6.14707">
        <ele>2440.8000488281</ele>
        <time>2020-12-16T11:38:10.000Z</time>
      </trkpt>
      <trkpt lat="45.30474" lon="6.14707">
        <ele>2441.1999511719</ele>
        <time>2020-12-16T11:38:12.000Z</time>
      </trkpt>
      <trkpt lat="45.30474" lon="6.14707">
        <ele>2441.3999023438</ele>
        <time>2020-12-16T11:38:18.000Z</time>
      </trkpt>
      <trkpt lat="45.30473" lon="6.14708">
        <ele>2442.1999511719</ele>
        <time>2020-12-16T11:38:26.000Z</time>
      </trkpt>
      <trkpt lat="45.3047" lon="6.14711">
        <ele>2443.3999023438</ele>
        <time>2020-12-16T11:38:31.000Z</time>
      </trkpt>
      <trkpt lat="45.30469" lon="6.14714">
        <ele>2444.1999511719</ele>
        <time>2020-12-16T11:38:36.000Z</time>
      </trkpt>
      <trkpt lat="45.30468" lon="6.14715">
        <ele>2444.6000976562</ele>
        <time>2020-12-16T11:38:38.000Z</time>
      </trkpt>
      <trkpt lat="45.30468" lon="6.1472">
        <ele>2445.3999023438</ele>
        <time>2020-12-16T11:38:44.000Z</time>
      </trkpt>
      <trkpt lat="45.30468" lon="6.14721">
        <ele>2445.6000976562</ele>
        <time>2020-12-16T11:38:45.000Z</time>
      </trkpt>
      <trkpt lat="45.30468" lon="6.14725">
        <ele>2446.8000488281</ele>
        <time>2020-12-16T11:38:51.000Z</time>
      </trkpt>
      <trkpt lat="45.30468" lon="6.1473">
        <ele>2447.3999023438</ele>
        <time>2020-12-16T11:38:55.000Z</time>
      </trkpt>
      <trkpt lat="45.30469" lon="6.14732">
        <ele>2447.8000488281</ele>
        <time>2020-12-16T11:38:57.000Z</time>
      </trkpt>
      <trkpt lat="45.3047" lon="6.14734">
        <ele>2448.8000488281</ele>
        <time>2020-12-16T11:39:02.000Z</time>
      </trkpt>
      <trkpt lat="45.3047" lon="6.14734">
        <ele>2449</ele>
        <time>2020-12-16T11:39:03.000Z</time>
      </trkpt>
      <trkpt lat="45.30468" lon="6.14734">
        <ele>2449.8000488281</ele>
        <time>2020-12-16T11:39:10.000Z</time>
      </trkpt>
      <trkpt lat="45.30466" lon="6.14736">
        <ele>2450</ele>
        <time>2020-12-16T11:39:12.000Z</time>
      </trkpt>
      <trkpt lat="45.30465" lon="6.14737">
        <ele>2451</ele>
        <time>2020-12-16T11:39:17.000Z</time>
      </trkpt>
      <trkpt lat="45.30465" lon="6.14737">
        <ele>2451.1999511719</ele>
        <time>2020-12-16T11:39:18.000Z</time>
      </trkpt>
      <trkpt lat="45.30461" lon="6.14737">
        <ele>2452.1999511719</ele>
        <time>2020-12-16T11:39:25.000Z</time>
      </trkpt>
      <trkpt lat="45.30459" lon="6.14737">
        <ele>2453.3999023438</ele>
        <time>2020-12-16T11:39:30.000Z</time>
      </trkpt>
      <trkpt lat="45.30459" lon="6.14737">
        <ele>2453.8000488281</ele>
        <time>2020-12-16T11:39:32.000Z</time>
      </trkpt>
      <trkpt lat="45.30459" lon="6.14738">
        <ele>2454.1999511719</ele>
        <time>2020-12-16T11:39:38.000Z</time>
      </trkpt>
      <trkpt lat="45.30459" lon="6.1474">
        <ele>2454.3999023438</ele>
        <time>2020-12-16T11:39:40.000Z</time>
      </trkpt>
      <trkpt lat="45.30459" lon="6.14744">
        <ele>2455</ele>
        <time>2020-12-16T11:39:47.000Z</time>
      </trkpt>
      <trkpt lat="45.30459" lon="6.14748">
        <ele>2455.3999023438</ele>
        <time>2020-12-16T11:39:52.000Z</time>
      </trkpt>
      <trkpt lat="45.3046" lon="6.14753">
        <ele>2456.1999511719</ele>
        <time>2020-12-16T11:39:56.000Z</time>
      </trkpt>
      <trkpt lat="45.3046" lon="6.14755">
        <ele>2456.3999023438</ele>
        <time>2020-12-16T11:39:58.000Z</time>
      </trkpt>
      <trkpt lat="45.30462" lon="6.14761">
        <ele>2457.6000976562</ele>
        <time>2020-12-16T11:40:05.000Z</time>
      </trkpt>
      <trkpt lat="45.30462" lon="6.14766">
        <ele>2458.8000488281</ele>
        <time>2020-12-16T11:40:11.000Z</time>
      </trkpt>
      <trkpt lat="45.30461" lon="6.14771">
        <ele>2460</ele>
        <time>2020-12-16T11:40:16.000Z</time>
      </trkpt>
      <trkpt lat="45.30461" lon="6.14772">
        <ele>2460.3999023438</ele>
        <time>2020-12-16T11:40:18.000Z</time>
      </trkpt>
      <trkpt lat="45.3046" lon="6.14775">
        <ele>2461</ele>
        <time>2020-12-16T11:40:21.000Z</time>
      </trkpt>
      <trkpt lat="45.30459" lon="6.1478">
        <ele>2461.3999023438</ele>
        <time>2020-12-16T11:40:28.000Z</time>
      </trkpt>
      <trkpt lat="45.30457" lon="6.14787">
        <ele>2461.6000976562</ele>
        <time>2020-12-16T11:40:36.000Z</time>
      </trkpt>
      <trkpt lat="45.30455" lon="6.14789">
        <ele>2462.1999511719</ele>
        <time>2020-12-16T11:40:42.000Z</time>
      </trkpt>
      <trkpt lat="45.30454" lon="6.14789">
        <ele>2462.3999023438</ele>
        <time>2020-12-16T11:40:44.000Z</time>
      </trkpt>
      <trkpt lat="45.30457" lon="6.1479">
        <ele>2463.1999511719</ele>
        <time>2020-12-16T11:40:49.000Z</time>
      </trkpt>
      <trkpt lat="45.30456" lon="6.14791">
        <ele>2463.6000976562</ele>
        <time>2020-12-16T11:40:53.000Z</time>
      </trkpt>
      <trkpt lat="45.30456" lon="6.14792">
        <ele>2464.1999511719</ele>
        <time>2020-12-16T11:40:57.000Z</time>
      </trkpt>
      <trkpt lat="45.30455" lon="6.14794">
        <ele>2464.8000488281</ele>
        <time>2020-12-16T11:41:01.000Z</time>
      </trkpt>
      <trkpt lat="45.30456" lon="6.14798">
        <ele>2465.1999511719</ele>
        <time>2020-12-16T11:41:07.000Z</time>
      </trkpt>
      <trkpt lat="45.30455" lon="6.14799">
        <ele>2465.6000976562</ele>
        <time>2020-12-16T11:41:09.000Z</time>
      </trkpt>
      <trkpt lat="45.30456" lon="6.14802">
        <ele>2466.3999023438</ele>
        <time>2020-12-16T11:41:13.000Z</time>
      </trkpt>
      <trkpt lat="45.30456" lon="6.14803">
        <ele>2466.8000488281</ele>
        <time>2020-12-16T11:41:16.000Z</time>
      </trkpt>
      <trkpt lat="45.30456" lon="6.14807">
        <ele>2467.6000976562</ele>
        <time>2020-12-16T11:41:21.000Z</time>
      </trkpt>
      <trkpt lat="45.30455" lon="6.14809">
        <ele>2468</ele>
        <time>2020-12-16T11:41:24.000Z</time>
      </trkpt>
      <trkpt lat="45.30454" lon="6.1481">
        <ele>2468.6000976562</ele>
        <time>2020-12-16T11:41:27.000Z</time>
      </trkpt>
      <trkpt lat="45.30452" lon="6.14811">
        <ele>2469.1999511719</ele>
        <time>2020-12-16T11:41:30.000Z</time>
      </trkpt>
      <trkpt lat="45.3045" lon="6.14813">
        <ele>2469.8000488281</ele>
        <time>2020-12-16T11:41:36.000Z</time>
      </trkpt>
      <trkpt lat="45.30449" lon="6.14814">
        <ele>2470.3999023438</ele>
        <time>2020-12-16T11:41:40.000Z</time>
      </trkpt>
      <trkpt lat="45.30449" lon="6.14816">
        <ele>2470.8000488281</ele>
        <time>2020-12-16T11:41:43.000Z</time>
      </trkpt>
      <trkpt lat="45.30448" lon="6.14818">
        <ele>2471.6000976562</ele>
        <time>2020-12-16T11:41:48.000Z</time>
      </trkpt>
      <trkpt lat="45.30446" lon="6.14819">
        <ele>2472</ele>
        <time>2020-12-16T11:41:50.000Z</time>
      </trkpt>
      <trkpt lat="45.30444" lon="6.14826">
        <ele>2472.8000488281</ele>
        <time>2020-12-16T11:41:56.000Z</time>
      </trkpt>
      <trkpt lat="45.30444" lon="6.14827">
        <ele>2473</ele>
        <time>2020-12-16T11:41:57.000Z</time>
      </trkpt>
      <trkpt lat="45.30443" lon="6.14829">
        <ele>2474.1999511719</ele>
        <time>2020-12-16T11:42:03.000Z</time>
      </trkpt>
      <trkpt lat="45.30443" lon="6.14829">
        <ele>2474.3999023438</ele>
        <time>2020-12-16T11:42:04.000Z</time>
      </trkpt>
      <trkpt lat="45.3044" lon="6.14828">
        <ele>2475</ele>
        <time>2020-12-16T11:42:16.000Z</time>
      </trkpt>
      <trkpt lat="45.30441" lon="6.14822">
        <ele>2475.1999511719</ele>
        <time>2020-12-16T11:42:22.000Z</time>
      </trkpt>
      <trkpt lat="45.30439" lon="6.14821">
        <ele>2475.3999023438</ele>
        <time>2020-12-16T11:42:24.000Z</time>
      </trkpt>
      <trkpt lat="45.30435" lon="6.14816">
        <ele>2476.3999023438</ele>
        <time>2020-12-16T11:42:29.000Z</time>
      </trkpt>
      <trkpt lat="45.30435" lon="6.14815">
        <ele>2476.3999023438</ele>
        <time>2020-12-16T11:42:30.000Z</time>
      </trkpt>
      <trkpt lat="45.3043" lon="6.14811">
        <ele>2477.1999511719</ele>
        <time>2020-12-16T11:42:35.000Z</time>
      </trkpt>
      <trkpt lat="45.30429" lon="6.1481">
        <ele>2477.3999023438</ele>
        <time>2020-12-16T11:42:37.000Z</time>
      </trkpt>
      <trkpt lat="45.30428" lon="6.14806">
        <ele>2478</ele>
        <time>2020-12-16T11:42:42.000Z</time>
      </trkpt>
      <trkpt lat="45.30427" lon="6.14802">
        <ele>2478.3999023438</ele>
        <time>2020-12-16T11:42:46.000Z</time>
      </trkpt>
      <trkpt lat="45.30427" lon="6.14799">
        <ele>2479</ele>
        <time>2020-12-16T11:42:50.000Z</time>
      </trkpt>
      <trkpt lat="45.30427" lon="6.14798">
        <ele>2479.6000976562</ele>
        <time>2020-12-16T11:42:52.000Z</time>
      </trkpt>
      <trkpt lat="45.30426" lon="6.14797">
        <ele>2480.6000976562</ele>
        <time>2020-12-16T11:42:58.000Z</time>
      </trkpt>
      <trkpt lat="45.30421" lon="6.14799">
        <ele>2481.3999023438</ele>
        <time>2020-12-16T11:43:06.000Z</time>
      </trkpt>
      <trkpt lat="45.30418" lon="6.14801">
        <ele>2481.6000976562</ele>
        <time>2020-12-16T11:43:10.000Z</time>
      </trkpt>
      <trkpt lat="45.30416" lon="6.14803">
        <ele>2481.8000488281</ele>
        <time>2020-12-16T11:43:12.000Z</time>
      </trkpt>
      <trkpt lat="45.30414" lon="6.14803">
        <ele>2482</ele>
        <time>2020-12-16T11:43:14.000Z</time>
      </trkpt>
      <trkpt lat="45.30412" lon="6.14804">
        <ele>2482.6000976562</ele>
        <time>2020-12-16T11:43:20.000Z</time>
      </trkpt>
      <trkpt lat="45.30411" lon="6.14804">
        <ele>2482.8000488281</ele>
        <time>2020-12-16T11:43:21.000Z</time>
      </trkpt>
      <trkpt lat="45.30409" lon="6.14806">
        <ele>2483.6000976562</ele>
        <time>2020-12-16T11:43:26.000Z</time>
      </trkpt>
      <trkpt lat="45.30408" lon="6.1481">
        <ele>2484.3999023438</ele>
        <time>2020-12-16T11:43:30.000Z</time>
      </trkpt>
      <trkpt lat="45.30408" lon="6.14813">
        <ele>2484.8000488281</ele>
        <time>2020-12-16T11:43:33.000Z</time>
      </trkpt>
      <trkpt lat="45.30408" lon="6.14816">
        <ele>2485.8000488281</ele>
        <time>2020-12-16T11:43:38.000Z</time>
      </trkpt>
      <trkpt lat="45.30407" lon="6.14819">
        <ele>2487</ele>
        <time>2020-12-16T11:43:43.000Z</time>
      </trkpt>
      <trkpt lat="45.30408" lon="6.14821">
        <ele>2487.3999023438</ele>
        <time>2020-12-16T11:43:46.000Z</time>
      </trkpt>
      <trkpt lat="45.30406" lon="6.14821">
        <ele>2487.8000488281</ele>
        <time>2020-12-16T11:43:52.000Z</time>
      </trkpt>
      <trkpt lat="45.30405" lon="6.14819">
        <ele>2488</ele>
        <time>2020-12-16T11:43:55.000Z</time>
      </trkpt>
      <trkpt lat="45.30403" lon="6.14818">
        <ele>2488.1999511719</ele>
        <time>2020-12-16T11:43:57.000Z</time>
      </trkpt>
      <trkpt lat="45.30401" lon="6.14818">
        <ele>2488.3999023438</ele>
        <time>2020-12-16T11:43:59.000Z</time>
      </trkpt>
      <trkpt lat="45.30399" lon="6.14818">
        <ele>2489.1999511719</ele>
        <time>2020-12-16T11:44:04.000Z</time>
      </trkpt>
      <trkpt lat="45.30399" lon="6.14818">
        <ele>2489.3999023438</ele>
        <time>2020-12-16T11:44:05.000Z</time>
      </trkpt>
      <trkpt lat="45.304" lon="6.14817">
        <ele>2490</ele>
        <time>2020-12-16T11:44:12.000Z</time>
      </trkpt>
      <trkpt lat="45.30401" lon="6.14816">
        <ele>2490.1999511719</ele>
        <time>2020-12-16T11:44:15.000Z</time>
      </trkpt>
      <trkpt lat="45.304" lon="6.14818">
        <ele>2490.6000976562</ele>
        <time>2020-12-16T11:44:19.000Z</time>
      </trkpt>
      <trkpt lat="45.304" lon="6.14821">
        <ele>2491.1999511719</ele>
        <time>2020-12-16T11:44:25.000Z</time>
      </trkpt>
      <trkpt lat="45.30399" lon="6.14823">
        <ele>2491.8000488281</ele>
        <time>2020-12-16T11:44:28.000Z</time>
      </trkpt>
      <trkpt lat="45.30399" lon="6.14824">
        <ele>2492.1999511719</ele>
        <time>2020-12-16T11:44:30.000Z</time>
      </trkpt>
      <trkpt lat="45.30399" lon="6.14826">
        <ele>2493.3999023438</ele>
        <time>2020-12-16T11:44:36.000Z</time>
      </trkpt>
      <trkpt lat="45.30398" lon="6.14829">
        <ele>2493.8000488281</ele>
        <time>2020-12-16T11:44:42.000Z</time>
      </trkpt>
      <trkpt lat="45.30395" lon="6.14832">
        <ele>2494.1999511719</ele>
        <time>2020-12-16T11:44:48.000Z</time>
      </trkpt>
      <trkpt lat="45.30394" lon="6.14831">
        <ele>2494.3999023438</ele>
        <time>2020-12-16T11:44:51.000Z</time>
      </trkpt>
      <trkpt lat="45.30391" lon="6.14832">
        <ele>2495</ele>
        <time>2020-12-16T11:44:54.000Z</time>
      </trkpt>
      <trkpt lat="45.30389" lon="6.14831">
        <ele>2495.6000976562</ele>
        <time>2020-12-16T11:44:57.000Z</time>
      </trkpt>
      <trkpt lat="45.30387" lon="6.14831">
        <ele>2496</ele>
        <time>2020-12-16T11:45:00.000Z</time>
      </trkpt>
      <trkpt lat="45.30386" lon="6.14829">
        <ele>2496.6000976562</ele>
        <time>2020-12-16T11:45:03.000Z</time>
      </trkpt>
      <trkpt lat="45.30384" lon="6.14827">
        <ele>2497.1999511719</ele>
        <time>2020-12-16T11:45:06.000Z</time>
      </trkpt>
      <trkpt lat="45.30383" lon="6.14825">
        <ele>2497.6000976562</ele>
        <time>2020-12-16T11:45:09.000Z</time>
      </trkpt>
      <trkpt lat="45.30381" lon="6.14819">
        <ele>2498.3999023438</ele>
        <time>2020-12-16T11:45:14.000Z</time>
      </trkpt>
      <trkpt lat="45.30381" lon="6.14817">
        <ele>2499</ele>
        <time>2020-12-16T11:45:16.000Z</time>
      </trkpt>
      <trkpt lat="45.30379" lon="6.14811">
        <ele>2500</ele>
        <time>2020-12-16T11:45:22.000Z</time>
      </trkpt>
      <trkpt lat="45.3037" lon="6.14806">
        <ele>2501.1999511719</ele>
        <time>2020-12-16T11:45:28.000Z</time>
      </trkpt>
      <trkpt lat="45.30368" lon="6.14806">
        <ele>2501.3999023438</ele>
        <time>2020-12-16T11:45:29.000Z</time>
      </trkpt>
      <trkpt lat="45.30364" lon="6.14802">
        <ele>2502.3999023438</ele>
        <time>2020-12-16T11:45:34.000Z</time>
      </trkpt>
      <trkpt lat="45.3036" lon="6.148">
        <ele>2503</ele>
        <time>2020-12-16T11:45:37.000Z</time>
      </trkpt>
      <trkpt lat="45.3036" lon="6.14796">
        <ele>2503.6000976562</ele>
        <time>2020-12-16T11:45:40.000Z</time>
      </trkpt>
      <trkpt lat="45.30359" lon="6.14794">
        <ele>2504.3999023438</ele>
        <time>2020-12-16T11:45:44.000Z</time>
      </trkpt>
      <trkpt lat="45.30357" lon="6.14792">
        <ele>2504.8000488281</ele>
        <time>2020-12-16T11:45:47.000Z</time>
      </trkpt>
      <trkpt lat="45.30355" lon="6.1479">
        <ele>2505.3999023438</ele>
        <time>2020-12-16T11:45:50.000Z</time>
      </trkpt>
      <trkpt lat="45.30354" lon="6.14788">
        <ele>2506</ele>
        <time>2020-12-16T11:45:53.000Z</time>
      </trkpt>
      <trkpt lat="45.30348" lon="6.14786">
        <ele>2507</ele>
        <time>2020-12-16T11:45:58.000Z</time>
      </trkpt>
      <trkpt lat="45.30343" lon="6.14785">
        <ele>2508</ele>
        <time>2020-12-16T11:46:03.000Z</time>
      </trkpt>
      <trkpt lat="45.30341" lon="6.14784">
        <ele>2508.6000976562</ele>
        <time>2020-12-16T11:46:04.000Z</time>
      </trkpt>
      <trkpt lat="45.30339" lon="6.14783">
        <ele>2509</ele>
        <time>2020-12-16T11:46:07.000Z</time>
      </trkpt>
      <trkpt lat="45.30335" lon="6.14782">
        <ele>2510</ele>
        <time>2020-12-16T11:46:12.000Z</time>
      </trkpt>
      <trkpt lat="45.30333" lon="6.14781">
        <ele>2511.1999511719</ele>
        <time>2020-12-16T11:46:17.000Z</time>
      </trkpt>
      <trkpt lat="45.30333" lon="6.14781">
        <ele>2511.6000976562</ele>
        <time>2020-12-16T11:46:19.000Z</time>
      </trkpt>
      <trkpt lat="45.30329" lon="6.14777">
        <ele>2512.1999511719</ele>
        <time>2020-12-16T11:46:27.000Z</time>
      </trkpt>
      <trkpt lat="45.30328" lon="6.14776">
        <ele>2512.6000976562</ele>
        <time>2020-12-16T11:46:28.000Z</time>
      </trkpt>
      <trkpt lat="45.30319" lon="6.14774">
        <ele>2513.3999023438</ele>
        <time>2020-12-16T11:46:34.000Z</time>
      </trkpt>
      <trkpt lat="45.30318" lon="6.14773">
        <ele>2513.6000976562</ele>
        <time>2020-12-16T11:46:35.000Z</time>
      </trkpt>
      <trkpt lat="45.30311" lon="6.14771">
        <ele>2514.6000976562</ele>
        <time>2020-12-16T11:46:41.000Z</time>
      </trkpt>
      <trkpt lat="45.3031" lon="6.14771">
        <ele>2514.6000976562</ele>
        <time>2020-12-16T11:46:42.000Z</time>
      </trkpt>
      <trkpt lat="45.30307" lon="6.14766">
        <ele>2515.6000976562</ele>
        <time>2020-12-16T11:46:48.000Z</time>
      </trkpt>
      <trkpt lat="45.30307" lon="6.14766">
        <ele>2515.8000488281</ele>
        <time>2020-12-16T11:46:49.000Z</time>
      </trkpt>
      <trkpt lat="45.30303" lon="6.14763">
        <ele>2516.8000488281</ele>
        <time>2020-12-16T11:46:53.000Z</time>
      </trkpt>
      <trkpt lat="45.30301" lon="6.14762">
        <ele>2517</ele>
        <time>2020-12-16T11:46:55.000Z</time>
      </trkpt>
      <trkpt lat="45.30296" lon="6.14756">
        <ele>2517.6000976562</ele>
        <time>2020-12-16T11:47:03.000Z</time>
      </trkpt>
      <trkpt lat="45.30293" lon="6.14753">
        <ele>2517.8000488281</ele>
        <time>2020-12-16T11:47:05.000Z</time>
      </trkpt>
      <trkpt lat="45.3029" lon="6.14748">
        <ele>2518.3999023438</ele>
        <time>2020-12-16T11:47:10.000Z</time>
      </trkpt>
      <trkpt lat="45.30288" lon="6.14744">
        <ele>2518.8000488281</ele>
        <time>2020-12-16T11:47:14.000Z</time>
      </trkpt>
      <trkpt lat="45.30287" lon="6.14741">
        <ele>2519.3999023438</ele>
        <time>2020-12-16T11:47:16.000Z</time>
      </trkpt>
      <trkpt lat="45.30286" lon="6.14738">
        <ele>2519.8000488281</ele>
        <time>2020-12-16T11:47:19.000Z</time>
      </trkpt>
      <trkpt lat="45.30283" lon="6.14732">
        <ele>2520.3999023438</ele>
        <time>2020-12-16T11:47:23.000Z</time>
      </trkpt>
      <trkpt lat="45.30282" lon="6.14729">
        <ele>2521</ele>
        <time>2020-12-16T11:47:26.000Z</time>
      </trkpt>
      <trkpt lat="45.30279" lon="6.14726">
        <ele>2521.3999023438</ele>
        <time>2020-12-16T11:47:29.000Z</time>
      </trkpt>
      <trkpt lat="45.30277" lon="6.14723">
        <ele>2522</ele>
        <time>2020-12-16T11:47:34.000Z</time>
      </trkpt>
      <trkpt lat="45.30277" lon="6.14722">
        <ele>2522.1999511719</ele>
        <time>2020-12-16T11:47:35.000Z</time>
      </trkpt>
      <trkpt lat="45.30272" lon="6.1472">
        <ele>2523.1999511719</ele>
        <time>2020-12-16T11:47:41.000Z</time>
      </trkpt>
      <trkpt lat="45.30271" lon="6.14719">
        <ele>2523.3999023438</ele>
        <time>2020-12-16T11:47:43.000Z</time>
      </trkpt>
      <trkpt lat="45.30267" lon="6.14715">
        <ele>2524.1999511719</ele>
        <time>2020-12-16T11:47:48.000Z</time>
      </trkpt>
      <trkpt lat="45.30266" lon="6.14715">
        <ele>2524.6000976562</ele>
        <time>2020-12-16T11:47:50.000Z</time>
      </trkpt>
      <trkpt lat="45.30265" lon="6.14712">
        <ele>2525.1999511719</ele>
        <time>2020-12-16T11:47:53.000Z</time>
      </trkpt>
      <trkpt lat="45.30265" lon="6.14709">
        <ele>2525.8000488281</ele>
        <time>2020-12-16T11:47:56.000Z</time>
      </trkpt>
      <trkpt lat="45.30262" lon="6.14706">
        <ele>2526.3999023438</ele>
        <time>2020-12-16T11:48:00.000Z</time>
      </trkpt>
      <trkpt lat="45.30261" lon="6.14704">
        <ele>2527</ele>
        <time>2020-12-16T11:48:03.000Z</time>
      </trkpt>
      <trkpt lat="45.30259" lon="6.14703">
        <ele>2527.6000976562</ele>
        <time>2020-12-16T11:48:05.000Z</time>
      </trkpt>
      <trkpt lat="45.30256" lon="6.14701">
        <ele>2528.3999023438</ele>
        <time>2020-12-16T11:48:09.000Z</time>
      </trkpt>
      <trkpt lat="45.30255" lon="6.14701">
        <ele>2528.6000976562</ele>
        <time>2020-12-16T11:48:10.000Z</time>
      </trkpt>
      <trkpt lat="45.3025" lon="6.14697">
        <ele>2529.8000488281</ele>
        <time>2020-12-16T11:48:16.000Z</time>
      </trkpt>
      <trkpt lat="45.30244" lon="6.14693">
        <ele>2530.8000488281</ele>
        <time>2020-12-16T11:48:22.000Z</time>
      </trkpt>
      <trkpt lat="45.30243" lon="6.14693">
        <ele>2531</ele>
        <time>2020-12-16T11:48:23.000Z</time>
      </trkpt>
      <trkpt lat="45.3024" lon="6.14691">
        <ele>2531.8000488281</ele>
        <time>2020-12-16T11:48:27.000Z</time>
      </trkpt>
      <trkpt lat="45.30236" lon="6.1469">
        <ele>2533</ele>
        <time>2020-12-16T11:48:30.000Z</time>
      </trkpt>
      <trkpt lat="45.30235" lon="6.1469">
        <ele>2533.1999511719</ele>
        <time>2020-12-16T11:48:31.000Z</time>
      </trkpt>
      <trkpt lat="45.3023" lon="6.14689">
        <ele>2534.1999511719</ele>
        <time>2020-12-16T11:48:36.000Z</time>
      </trkpt>
      <trkpt lat="45.30228" lon="6.14687">
        <ele>2534.6000976562</ele>
        <time>2020-12-16T11:48:38.000Z</time>
      </trkpt>
      <trkpt lat="45.30224" lon="6.14687">
        <ele>2535.1999511719</ele>
        <time>2020-12-16T11:48:42.000Z</time>
      </trkpt>
      <trkpt lat="45.30222" lon="6.14686">
        <ele>2535.8000488281</ele>
        <time>2020-12-16T11:48:45.000Z</time>
      </trkpt>
      <trkpt lat="45.3022" lon="6.14684">
        <ele>2536.3999023438</ele>
        <time>2020-12-16T11:48:48.000Z</time>
      </trkpt>
      <trkpt lat="45.30216" lon="6.14681">
        <ele>2536.8000488281</ele>
        <time>2020-12-16T11:48:52.000Z</time>
      </trkpt>
      <trkpt lat="45.30218" lon="6.14673">
        <ele>2537.6000976562</ele>
        <time>2020-12-16T11:48:55.000Z</time>
      </trkpt>
      <trkpt lat="45.30217" lon="6.14673">
        <ele>2538</ele>
        <time>2020-12-16T11:48:58.000Z</time>
      </trkpt>
      <trkpt lat="45.30217" lon="6.14673">
        <ele>2538.3999023438</ele>
        <time>2020-12-16T11:49:05.000Z</time>
      </trkpt>
      <trkpt lat="45.30214" lon="6.14672">
        <ele>2538.6000976562</ele>
        <time>2020-12-16T11:49:07.000Z</time>
      </trkpt>
      <trkpt lat="45.3021" lon="6.1467">
        <ele>2539.3999023438</ele>
        <time>2020-12-16T11:49:11.000Z</time>
      </trkpt>
      <trkpt lat="45.30209" lon="6.14669">
        <ele>2539.6000976562</ele>
        <time>2020-12-16T11:49:12.000Z</time>
      </trkpt>
      <trkpt lat="45.30205" lon="6.14667">
        <ele>2540.8000488281</ele>
        <time>2020-12-16T11:49:17.000Z</time>
      </trkpt>
      <trkpt lat="45.30203" lon="6.14667">
        <ele>2541.1999511719</ele>
        <time>2020-12-16T11:49:19.000Z</time>
      </trkpt>
      <trkpt lat="45.30203" lon="6.14666">
        <ele>2542</ele>
        <time>2020-12-16T11:49:23.000Z</time>
      </trkpt>
      <trkpt lat="45.30202" lon="6.14665">
        <ele>2542.6000976562</ele>
        <time>2020-12-16T11:49:26.000Z</time>
      </trkpt>
      <trkpt lat="45.30202" lon="6.14665">
        <ele>2543</ele>
        <time>2020-12-16T11:49:29.000Z</time>
      </trkpt>
      <trkpt lat="45.30198" lon="6.14662">
        <ele>2544.1999511719</ele>
        <time>2020-12-16T11:49:34.000Z</time>
      </trkpt>
      <trkpt lat="45.30189" lon="6.14659">
        <ele>2545.6000976562</ele>
        <time>2020-12-16T11:49:41.000Z</time>
      </trkpt>
      <trkpt lat="45.30189" lon="6.14658">
        <ele>2545.8000488281</ele>
        <time>2020-12-16T11:49:42.000Z</time>
      </trkpt>
      <trkpt lat="45.30186" lon="6.14654">
        <ele>2546.8000488281</ele>
        <time>2020-12-16T11:49:48.000Z</time>
      </trkpt>
      <trkpt lat="45.30185" lon="6.14653">
        <ele>2547</ele>
        <time>2020-12-16T11:49:49.000Z</time>
      </trkpt>
      <trkpt lat="45.30181" lon="6.14652">
        <ele>2547.8000488281</ele>
        <time>2020-12-16T11:49:53.000Z</time>
      </trkpt>
      <trkpt lat="45.30179" lon="6.14651">
        <ele>2548.3999023438</ele>
        <time>2020-12-16T11:49:55.000Z</time>
      </trkpt>
      <trkpt lat="45.30179" lon="6.14651">
        <ele>2548.8000488281</ele>
        <time>2020-12-16T11:49:57.000Z</time>
      </trkpt>
      <trkpt lat="45.30173" lon="6.1465">
        <ele>2550</ele>
        <time>2020-12-16T11:50:02.000Z</time>
      </trkpt>
      <trkpt lat="45.30173" lon="6.1465">
        <ele>2550.1999511719</ele>
        <time>2020-12-16T11:50:03.000Z</time>
      </trkpt>
      <trkpt lat="45.30171" lon="6.14648">
        <ele>2551</ele>
        <time>2020-12-16T11:50:07.000Z</time>
      </trkpt>
      <trkpt lat="45.3017" lon="6.14647">
        <ele>2551.6000976562</ele>
        <time>2020-12-16T11:50:10.000Z</time>
      </trkpt>
      <trkpt lat="45.30167" lon="6.14643">
        <ele>2552.1999511719</ele>
        <time>2020-12-16T11:50:14.000Z</time>
      </trkpt>
      <trkpt lat="45.30164" lon="6.14642">
        <ele>2552.6000976562</ele>
        <time>2020-12-16T11:50:17.000Z</time>
      </trkpt>
      <trkpt lat="45.30161" lon="6.14641">
        <ele>2553.1999511719</ele>
        <time>2020-12-16T11:50:20.000Z</time>
      </trkpt>
      <trkpt lat="45.30157" lon="6.14641">
        <ele>2553.6000976562</ele>
        <time>2020-12-16T11:50:24.000Z</time>
      </trkpt>
      <trkpt lat="45.30153" lon="6.14639">
        <ele>2554.1999511719</ele>
        <time>2020-12-16T11:50:27.000Z</time>
      </trkpt>
      <trkpt lat="45.30152" lon="6.14639">
        <ele>2555.1999511719</ele>
        <time>2020-12-16T11:50:31.000Z</time>
      </trkpt>
      <trkpt lat="45.30152" lon="6.14639">
        <ele>2555.3999023438</ele>
        <time>2020-12-16T11:50:32.000Z</time>
      </trkpt>
      <trkpt lat="45.30147" lon="6.14639">
        <ele>2556.3999023438</ele>
        <time>2020-12-16T11:50:37.000Z</time>
      </trkpt>
      <trkpt lat="45.30143" lon="6.14639">
        <ele>2557.3999023438</ele>
        <time>2020-12-16T11:50:42.000Z</time>
      </trkpt>
      <trkpt lat="45.30142" lon="6.14639">
        <ele>2557.3999023438</ele>
        <time>2020-12-16T11:50:43.000Z</time>
      </trkpt>
      <trkpt lat="45.30137" lon="6.14635">
        <ele>2558.6000976562</ele>
        <time>2020-12-16T11:50:49.000Z</time>
      </trkpt>
      <trkpt lat="45.30136" lon="6.14635">
        <ele>2558.6000976562</ele>
        <time>2020-12-16T11:50:50.000Z</time>
      </trkpt>
      <trkpt lat="45.30133" lon="6.14635">
        <ele>2559.6000976562</ele>
        <time>2020-12-16T11:50:54.000Z</time>
      </trkpt>
      <trkpt lat="45.30133" lon="6.14635">
        <ele>2560.1999511719</ele>
        <time>2020-12-16T11:50:57.000Z</time>
      </trkpt>
      <trkpt lat="45.30133" lon="6.14635">
        <ele>2560.6000976562</ele>
        <time>2020-12-16T11:51:02.000Z</time>
      </trkpt>
      <trkpt lat="45.30133" lon="6.14635">
        <ele>2560.6000976562</ele>
        <time>2020-12-16T11:51:09.000Z</time>
      </trkpt>
      <trkpt lat="45.30133" lon="6.14635">
        <ele>2560.6000976562</ele>
        <time>2020-12-16T11:51:22.000Z</time>
      </trkpt>
      <trkpt lat="45.30133" lon="6.14635">
        <ele>2560.8000488281</ele>
        <time>2020-12-16T11:51:34.000Z</time>
      </trkpt>
      <trkpt lat="45.30134" lon="6.14633">
        <ele>2560.6000976562</ele>
        <time>2020-12-16T11:51:50.000Z</time>
      </trkpt>
      <trkpt lat="45.30133" lon="6.14632">
        <ele>2560.6000976562</ele>
        <time>2020-12-16T11:52:00.000Z</time>
      </trkpt>
      <trkpt lat="45.30126" lon="6.14628">
        <ele>2561.6000976562</ele>
        <time>2020-12-16T11:52:07.000Z</time>
      </trkpt>
      <trkpt lat="45.30125" lon="6.14627">
        <ele>2561.8000488281</ele>
        <time>2020-12-16T11:52:08.000Z</time>
      </trkpt>
      <trkpt lat="45.30124" lon="6.14625">
        <ele>2562.8000488281</ele>
        <time>2020-12-16T11:52:12.000Z</time>
      </trkpt>
      <trkpt lat="45.30119" lon="6.14624">
        <ele>2563.3999023438</ele>
        <time>2020-12-16T11:52:15.000Z</time>
      </trkpt>
      <trkpt lat="45.30117" lon="6.14623">
        <ele>2564</ele>
        <time>2020-12-16T11:52:18.000Z</time>
      </trkpt>
      <trkpt lat="45.30113" lon="6.14621">
        <ele>2565</ele>
        <time>2020-12-16T11:52:23.000Z</time>
      </trkpt>
      <trkpt lat="45.30107" lon="6.14616">
        <ele>2566.1999511719</ele>
        <time>2020-12-16T11:52:31.000Z</time>
      </trkpt>
      <trkpt lat="45.30101" lon="6.14613">
        <ele>2567.3999023438</ele>
        <time>2020-12-16T11:52:37.000Z</time>
      </trkpt>
      <trkpt lat="45.30096" lon="6.14611">
        <ele>2568.3999023438</ele>
        <time>2020-12-16T11:52:43.000Z</time>
      </trkpt>
      <trkpt lat="45.30095" lon="6.1461">
        <ele>2568.6000976562</ele>
        <time>2020-12-16T11:52:44.000Z</time>
      </trkpt>
      <trkpt lat="45.30091" lon="6.14608">
        <ele>2569.3999023438</ele>
        <time>2020-12-16T11:52:49.000Z</time>
      </trkpt>
      <trkpt lat="45.30089" lon="6.14606">
        <ele>2570.1999511719</ele>
        <time>2020-12-16T11:52:53.000Z</time>
      </trkpt>
      <trkpt lat="45.30088" lon="6.14606">
        <ele>2570.6000976562</ele>
        <time>2020-12-16T11:52:54.000Z</time>
      </trkpt>
      <trkpt lat="45.30083" lon="6.14604">
        <ele>2571.6000976562</ele>
        <time>2020-12-16T11:53:00.000Z</time>
      </trkpt>
      <trkpt lat="45.30082" lon="6.14604">
        <ele>2571.8000488281</ele>
        <time>2020-12-16T11:53:01.000Z</time>
      </trkpt>
      <trkpt lat="45.30079" lon="6.14602">
        <ele>2572.8000488281</ele>
        <time>2020-12-16T11:53:06.000Z</time>
      </trkpt>
      <trkpt lat="45.30077" lon="6.146">
        <ele>2573.1999511719</ele>
        <time>2020-12-16T11:53:10.000Z</time>
      </trkpt>
      <trkpt lat="45.30074" lon="6.146">
        <ele>2573.8000488281</ele>
        <time>2020-12-16T11:53:16.000Z</time>
      </trkpt>
      <trkpt lat="45.30073" lon="6.146">
        <ele>2574.1999511719</ele>
        <time>2020-12-16T11:53:18.000Z</time>
      </trkpt>
      <trkpt lat="45.30068" lon="6.146">
        <ele>2575</ele>
        <time>2020-12-16T11:53:23.000Z</time>
      </trkpt>
      <trkpt lat="45.30067" lon="6.14599">
        <ele>2575.3999023438</ele>
        <time>2020-12-16T11:53:27.000Z</time>
      </trkpt>
      <trkpt lat="45.30066" lon="6.14598">
        <ele>2576</ele>
        <time>2020-12-16T11:53:31.000Z</time>
      </trkpt>
      <trkpt lat="45.30065" lon="6.14597">
        <ele>2577</ele>
        <time>2020-12-16T11:53:36.000Z</time>
      </trkpt>
      <trkpt lat="45.30065" lon="6.14597">
        <ele>2577.1999511719</ele>
        <time>2020-12-16T11:53:37.000Z</time>
      </trkpt>
      <trkpt lat="45.30064" lon="6.14596">
        <ele>2578.1999511719</ele>
        <time>2020-12-16T11:53:42.000Z</time>
      </trkpt>
      <trkpt lat="45.30063" lon="6.14595">
        <ele>2578.3999023438</ele>
        <time>2020-12-16T11:53:43.000Z</time>
      </trkpt>
      <trkpt lat="45.3006" lon="6.14595">
        <ele>2579.3999023438</ele>
        <time>2020-12-16T11:53:48.000Z</time>
      </trkpt>
      <trkpt lat="45.3006" lon="6.14595">
        <ele>2579.6000976562</ele>
        <time>2020-12-16T11:53:49.000Z</time>
      </trkpt>
      <trkpt lat="45.30057" lon="6.14596">
        <ele>2580.6000976562</ele>
        <time>2020-12-16T11:53:55.000Z</time>
      </trkpt>
      <trkpt lat="45.30056" lon="6.14596">
        <ele>2580.8000488281</ele>
        <time>2020-12-16T11:53:56.000Z</time>
      </trkpt>
      <trkpt lat="45.30054" lon="6.14597">
        <ele>2581.6000976562</ele>
        <time>2020-12-16T11:54:01.000Z</time>
      </trkpt>
      <trkpt lat="45.30052" lon="6.14598">
        <ele>2582.1999511719</ele>
        <time>2020-12-16T11:54:04.000Z</time>
      </trkpt>
      <trkpt lat="45.30051" lon="6.14597">
        <ele>2582.8000488281</ele>
        <time>2020-12-16T11:54:06.000Z</time>
      </trkpt>
      <trkpt lat="45.3005" lon="6.14593">
        <ele>2583.6000976562</ele>
        <time>2020-12-16T11:54:12.000Z</time>
      </trkpt>
      <trkpt lat="45.3005" lon="6.14591">
        <ele>2584</ele>
        <time>2020-12-16T11:54:14.000Z</time>
      </trkpt>
      <trkpt lat="45.30049" lon="6.14588">
        <ele>2585</ele>
        <time>2020-12-16T11:54:21.000Z</time>
      </trkpt>
      <trkpt lat="45.30049" lon="6.14588">
        <ele>2585</ele>
        <time>2020-12-16T11:54:22.000Z</time>
      </trkpt>
      <trkpt lat="45.30049" lon="6.14588">
        <ele>2586.1999511719</ele>
        <time>2020-12-16T11:54:28.000Z</time>
      </trkpt>
      <trkpt lat="45.30057" lon="6.14577">
        <ele>2586.8000488281</ele>
        <time>2020-12-16T11:54:31.000Z</time>
      </trkpt>
      <trkpt lat="45.30063" lon="6.1457">
        <ele>2587.1999511719</ele>
        <time>2020-12-16T11:54:33.000Z</time>
      </trkpt>
      <trkpt lat="45.30096" lon="6.14556">
        <ele>2588.1999511719</ele>
        <time>2020-12-16T11:54:39.000Z</time>
      </trkpt>
      <trkpt lat="45.30118" lon="6.14548">
        <ele>2589.1999511719</ele>
        <time>2020-12-16T11:54:45.000Z</time>
      </trkpt>
      <trkpt lat="45.30127" lon="6.14542">
        <ele>2590</ele>
        <time>2020-12-16T11:54:49.000Z</time>
      </trkpt>
      <trkpt lat="45.30131" lon="6.14539">
        <ele>2590.1999511719</ele>
        <time>2020-12-16T11:54:51.000Z</time>
      </trkpt>
      <trkpt lat="45.30141" lon="6.14534">
        <ele>2591.3999023438</ele>
        <time>2020-12-16T11:54:56.000Z</time>
      </trkpt>
      <trkpt lat="45.30145" lon="6.14532">
        <ele>2591.8000488281</ele>
        <time>2020-12-16T11:54:58.000Z</time>
      </trkpt>
      <trkpt lat="45.3015" lon="6.14528">
        <ele>2592.6000976562</ele>
        <time>2020-12-16T11:55:02.000Z</time>
      </trkpt>
      <trkpt lat="45.30151" lon="6.14525">
        <ele>2593.3999023438</ele>
        <time>2020-12-16T11:55:07.000Z</time>
      </trkpt>
      <trkpt lat="45.30151" lon="6.14525">
        <ele>2593.6000976562</ele>
        <time>2020-12-16T11:55:08.000Z</time>
      </trkpt>
      <trkpt lat="45.30149" lon="6.14526">
        <ele>2594.3999023438</ele>
        <time>2020-12-16T11:55:13.000Z</time>
      </trkpt>
      <trkpt lat="45.30148" lon="6.14527">
        <ele>2594.8000488281</ele>
        <time>2020-12-16T11:55:15.000Z</time>
      </trkpt>
      <trkpt lat="45.30145" lon="6.14527">
        <ele>2596</ele>
        <time>2020-12-16T11:55:19.000Z</time>
      </trkpt>
      <trkpt lat="45.30144" lon="6.14528">
        <ele>2596.3999023438</ele>
        <time>2020-12-16T11:55:21.000Z</time>
      </trkpt>
      <trkpt lat="45.30142" lon="6.14529">
        <ele>2597.1999511719</ele>
        <time>2020-12-16T11:55:26.000Z</time>
      </trkpt>
      <trkpt lat="45.3014" lon="6.14529">
        <ele>2597.6000976562</ele>
        <time>2020-12-16T11:55:29.000Z</time>
      </trkpt>
      <trkpt lat="45.30137" lon="6.1453">
        <ele>2598.1999511719</ele>
        <time>2020-12-16T11:55:34.000Z</time>
      </trkpt>
      <trkpt lat="45.30135" lon="6.14531">
        <ele>2598.8000488281</ele>
        <time>2020-12-16T11:55:37.000Z</time>
      </trkpt>
      <trkpt lat="45.30132" lon="6.14531">
        <ele>2599.1999511719</ele>
        <time>2020-12-16T11:55:41.000Z</time>
      </trkpt>
      <trkpt lat="45.30128" lon="6.14532">
        <ele>2600</ele>
        <time>2020-12-16T11:55:46.000Z</time>
      </trkpt>
      <trkpt lat="45.30127" lon="6.14533">
        <ele>2600.3999023438</ele>
        <time>2020-12-16T11:55:48.000Z</time>
      </trkpt>
      <trkpt lat="45.30122" lon="6.14534">
        <ele>2601.3999023438</ele>
        <time>2020-12-16T11:55:54.000Z</time>
      </trkpt>
      <trkpt lat="45.30122" lon="6.14534">
        <ele>2601.6000976562</ele>
        <time>2020-12-16T11:55:55.000Z</time>
      </trkpt>
      <trkpt lat="45.30117" lon="6.14534">
        <ele>2602.6000976562</ele>
        <time>2020-12-16T11:56:00.000Z</time>
      </trkpt>
      <trkpt lat="45.30116" lon="6.14533">
        <ele>2603</ele>
        <time>2020-12-16T11:56:03.000Z</time>
      </trkpt>
      <trkpt lat="45.30114" lon="6.14532">
        <ele>2604</ele>
        <time>2020-12-16T11:56:06.000Z</time>
      </trkpt>
      <trkpt lat="45.30111" lon="6.14531">
        <ele>2605.1999511719</ele>
        <time>2020-12-16T11:56:10.000Z</time>
      </trkpt>
      <trkpt lat="45.30111" lon="6.14531">
        <ele>2605.3999023438</ele>
        <time>2020-12-16T11:56:11.000Z</time>
      </trkpt>
      <trkpt lat="45.30109" lon="6.14531">
        <ele>2606.1999511719</ele>
        <time>2020-12-16T11:56:14.000Z</time>
      </trkpt>
      <trkpt lat="45.30106" lon="6.1453">
        <ele>2606.6000976562</ele>
        <time>2020-12-16T11:56:19.000Z</time>
      </trkpt>
      <trkpt lat="45.30103" lon="6.14529">
        <ele>2607.3999023438</ele>
        <time>2020-12-16T11:56:24.000Z</time>
      </trkpt>
      <trkpt lat="45.30101" lon="6.1453">
        <ele>2608.6000976562</ele>
        <time>2020-12-16T11:56:28.000Z</time>
      </trkpt>
      <trkpt lat="45.30095" lon="6.14531">
        <ele>2609.8000488281</ele>
        <time>2020-12-16T11:56:36.000Z</time>
      </trkpt>
      <trkpt lat="45.3009" lon="6.14533">
        <ele>2610.1999511719</ele>
        <time>2020-12-16T11:56:44.000Z</time>
      </trkpt>
      <trkpt lat="45.30086" lon="6.14532">
        <ele>2610.8000488281</ele>
        <time>2020-12-16T11:56:48.000Z</time>
      </trkpt>
      <trkpt lat="45.30084" lon="6.14533">
        <ele>2611.3999023438</ele>
        <time>2020-12-16T11:56:52.000Z</time>
      </trkpt>
      <trkpt lat="45.30082" lon="6.14533">
        <ele>2611.8000488281</ele>
        <time>2020-12-16T11:56:54.000Z</time>
      </trkpt>
      <trkpt lat="45.30078" lon="6.14535">
        <ele>2612.8000488281</ele>
        <time>2020-12-16T11:57:00.000Z</time>
      </trkpt>
      <trkpt lat="45.30076" lon="6.14534">
        <ele>2613.1999511719</ele>
        <time>2020-12-16T11:57:02.000Z</time>
      </trkpt>
      <trkpt lat="45.30074" lon="6.14534">
        <ele>2614</ele>
        <time>2020-12-16T11:57:06.000Z</time>
      </trkpt>
      <trkpt lat="45.3007" lon="6.14534">
        <ele>2614.8000488281</ele>
        <time>2020-12-16T11:57:11.000Z</time>
      </trkpt>
      <trkpt lat="45.30068" lon="6.14534">
        <ele>2615.1999511719</ele>
        <time>2020-12-16T11:57:13.000Z</time>
      </trkpt>
      <trkpt lat="45.30064" lon="6.14533">
        <ele>2616.1999511719</ele>
        <time>2020-12-16T11:57:18.000Z</time>
      </trkpt>
      <trkpt lat="45.30063" lon="6.14533">
        <ele>2616.3999023438</ele>
        <time>2020-12-16T11:57:19.000Z</time>
      </trkpt>
      <trkpt lat="45.30062" lon="6.14533">
        <ele>2617.3999023438</ele>
        <time>2020-12-16T11:57:23.000Z</time>
      </trkpt>
      <trkpt lat="45.3006" lon="6.14533">
        <ele>2618.1999511719</ele>
        <time>2020-12-16T11:57:26.000Z</time>
      </trkpt>
      <trkpt lat="45.30059" lon="6.14533">
        <ele>2618.6000976562</ele>
        <time>2020-12-16T11:57:27.000Z</time>
      </trkpt>
      <trkpt lat="45.30057" lon="6.14533">
        <ele>2619.8000488281</ele>
        <time>2020-12-16T11:57:31.000Z</time>
      </trkpt>
      <trkpt lat="45.30055" lon="6.14533">
        <ele>2620.3999023438</ele>
        <time>2020-12-16T11:57:33.000Z</time>
      </trkpt>
      <trkpt lat="45.30054" lon="6.14534">
        <ele>2620.8000488281</ele>
        <time>2020-12-16T11:57:35.000Z</time>
      </trkpt>
      <trkpt lat="45.30051" lon="6.14534">
        <ele>2622</ele>
        <time>2020-12-16T11:57:40.000Z</time>
      </trkpt>
      <trkpt lat="45.3005" lon="6.14534">
        <ele>2622.1999511719</ele>
        <time>2020-12-16T11:57:42.000Z</time>
      </trkpt>
      <trkpt lat="45.30044" lon="6.14535">
        <ele>2623</ele>
        <time>2020-12-16T11:57:51.000Z</time>
      </trkpt>
      <trkpt lat="45.30044" lon="6.14535">
        <ele>2623.1999511719</ele>
        <time>2020-12-16T11:57:52.000Z</time>
      </trkpt>
      <trkpt lat="45.3004" lon="6.14536">
        <ele>2624.1999511719</ele>
        <time>2020-12-16T11:57:58.000Z</time>
      </trkpt>
      <trkpt lat="45.3004" lon="6.14536">
        <ele>2624.3999023438</ele>
        <time>2020-12-16T11:57:59.000Z</time>
      </trkpt>
      <trkpt lat="45.30038" lon="6.14536">
        <ele>2625.1999511719</ele>
        <time>2020-12-16T11:58:04.000Z</time>
      </trkpt>
      <trkpt lat="45.30037" lon="6.14536">
        <ele>2625.8000488281</ele>
        <time>2020-12-16T11:58:06.000Z</time>
      </trkpt>
      <trkpt lat="45.30035" lon="6.14536">
        <ele>2626.1999511719</ele>
        <time>2020-12-16T11:58:10.000Z</time>
      </trkpt>
      <trkpt lat="45.30031" lon="6.14538">
        <ele>2627.1999511719</ele>
        <time>2020-12-16T11:58:15.000Z</time>
      </trkpt>
      <trkpt lat="45.30031" lon="6.14538">
        <ele>2627.3999023438</ele>
        <time>2020-12-16T11:58:16.000Z</time>
      </trkpt>
      <trkpt lat="45.30028" lon="6.14538">
        <ele>2628.6000976562</ele>
        <time>2020-12-16T11:58:22.000Z</time>
      </trkpt>
      <trkpt lat="45.30025" lon="6.14539">
        <ele>2629.6000976562</ele>
        <time>2020-12-16T11:58:27.000Z</time>
      </trkpt>
      <trkpt lat="45.30024" lon="6.14539">
        <ele>2630.1999511719</ele>
        <time>2020-12-16T11:58:29.000Z</time>
      </trkpt>
      <trkpt lat="45.30023" lon="6.14539">
        <ele>2630.8000488281</ele>
        <time>2020-12-16T11:58:31.000Z</time>
      </trkpt>
      <trkpt lat="45.30019" lon="6.14539">
        <ele>2631.8000488281</ele>
        <time>2020-12-16T11:58:38.000Z</time>
      </trkpt>
      <trkpt lat="45.30015" lon="6.14541">
        <ele>2633</ele>
        <time>2020-12-16T11:58:46.000Z</time>
      </trkpt>
      <trkpt lat="45.30011" lon="6.14543">
        <ele>2634</ele>
        <time>2020-12-16T11:58:53.000Z</time>
      </trkpt>
      <trkpt lat="45.30009" lon="6.14543">
        <ele>2635.1999511719</ele>
        <time>2020-12-16T11:58:57.000Z</time>
      </trkpt>
      <trkpt lat="45.30009" lon="6.14543">
        <ele>2635.1999511719</ele>
        <time>2020-12-16T11:58:58.000Z</time>
      </trkpt>
      <trkpt lat="45.30007" lon="6.14544">
        <ele>2636.1999511719</ele>
        <time>2020-12-16T11:59:04.000Z</time>
      </trkpt>
      <trkpt lat="45.30006" lon="6.14545">
        <ele>2636.6000976562</ele>
        <time>2020-12-16T11:59:07.000Z</time>
      </trkpt>
      <trkpt lat="45.30003" lon="6.14545">
        <ele>2637.3999023438</ele>
        <time>2020-12-16T11:59:11.000Z</time>
      </trkpt>
      <trkpt lat="45.30001" lon="6.14546">
        <ele>2637.6000976562</ele>
        <time>2020-12-16T11:59:14.000Z</time>
      </trkpt>
      <trkpt lat="45.29998" lon="6.14548">
        <ele>2638.3999023438</ele>
        <time>2020-12-16T11:59:20.000Z</time>
      </trkpt>
      <trkpt lat="45.29997" lon="6.14549">
        <ele>2639</ele>
        <time>2020-12-16T11:59:23.000Z</time>
      </trkpt>
      <trkpt lat="45.29995" lon="6.1455">
        <ele>2639.6000976562</ele>
        <time>2020-12-16T11:59:27.000Z</time>
      </trkpt>
      <trkpt lat="45.29994" lon="6.1455">
        <ele>2640.1999511719</ele>
        <time>2020-12-16T11:59:30.000Z</time>
      </trkpt>
      <trkpt lat="45.29993" lon="6.14551">
        <ele>2640.6000976562</ele>
        <time>2020-12-16T11:59:32.000Z</time>
      </trkpt>
      <trkpt lat="45.29991" lon="6.14553">
        <ele>2641.6000976562</ele>
        <time>2020-12-16T11:59:36.000Z</time>
      </trkpt>
      <trkpt lat="45.2999" lon="6.14553">
        <ele>2641.8000488281</ele>
        <time>2020-12-16T11:59:37.000Z</time>
      </trkpt>
      <trkpt lat="45.29987" lon="6.14555">
        <ele>2642.8000488281</ele>
        <time>2020-12-16T11:59:42.000Z</time>
      </trkpt>
      <trkpt lat="45.29984" lon="6.14557">
        <ele>2643.6000976562</ele>
        <time>2020-12-16T11:59:46.000Z</time>
      </trkpt>
      <trkpt lat="45.29982" lon="6.14559">
        <ele>2644</ele>
        <time>2020-12-16T11:59:49.000Z</time>
      </trkpt>
      <trkpt lat="45.29979" lon="6.14561">
        <ele>2644.6000976562</ele>
        <time>2020-12-16T11:59:54.000Z</time>
      </trkpt>
      <trkpt lat="45.29978" lon="6.14563">
        <ele>2645</ele>
        <time>2020-12-16T11:59:57.000Z</time>
      </trkpt>
      <trkpt lat="45.29974" lon="6.14568">
        <ele>2646</ele>
        <time>2020-12-16T12:00:03.000Z</time>
      </trkpt>
      <trkpt lat="45.29972" lon="6.1457">
        <ele>2647.1999511719</ele>
        <time>2020-12-16T12:00:08.000Z</time>
      </trkpt>
      <trkpt lat="45.29972" lon="6.14571">
        <ele>2647.3999023438</ele>
        <time>2020-12-16T12:00:10.000Z</time>
      </trkpt>
      <trkpt lat="45.29972" lon="6.14573">
        <ele>2648.1999511719</ele>
        <time>2020-12-16T12:00:14.000Z</time>
      </trkpt>
      <trkpt lat="45.29971" lon="6.14574">
        <ele>2648.8000488281</ele>
        <time>2020-12-16T12:00:17.000Z</time>
      </trkpt>
      <trkpt lat="45.29971" lon="6.14574">
        <ele>2649.3999023438</ele>
        <time>2020-12-16T12:00:19.000Z</time>
      </trkpt>
      <trkpt lat="45.29968" lon="6.14576">
        <ele>2650.3999023438</ele>
        <time>2020-12-16T12:00:24.000Z</time>
      </trkpt>
      <trkpt lat="45.29968" lon="6.14575">
        <ele>2650.3999023438</ele>
        <time>2020-12-16T12:00:25.000Z</time>
      </trkpt>
      <trkpt lat="45.29964" lon="6.14574">
        <ele>2651.3999023438</ele>
        <time>2020-12-16T12:00:31.000Z</time>
      </trkpt>
      <trkpt lat="45.2996" lon="6.14572">
        <ele>2652.1999511719</ele>
        <time>2020-12-16T12:00:37.000Z</time>
      </trkpt>
      <trkpt lat="45.29953" lon="6.1457">
        <ele>2652.6000976562</ele>
        <time>2020-12-16T12:00:43.000Z</time>
      </trkpt>
      <trkpt lat="45.29953" lon="6.14569">
        <ele>2652.6000976562</ele>
        <time>2020-12-16T12:00:44.000Z</time>
      </trkpt>
      <trkpt lat="45.29951" lon="6.14563">
        <ele>2653.6000976562</ele>
        <time>2020-12-16T12:00:50.000Z</time>
      </trkpt>
      <trkpt lat="45.2995" lon="6.14562">
        <ele>2654</ele>
        <time>2020-12-16T12:00:52.000Z</time>
      </trkpt>
      <trkpt lat="45.2995" lon="6.14561">
        <ele>2654.8000488281</ele>
        <time>2020-12-16T12:00:56.000Z</time>
      </trkpt>
      <trkpt lat="45.2995" lon="6.14561">
        <ele>2655.8000488281</ele>
        <time>2020-12-16T12:01:01.000Z</time>
      </trkpt>
      <trkpt lat="45.29949" lon="6.14562">
        <ele>2656.8000488281</ele>
        <time>2020-12-16T12:01:09.000Z</time>
      </trkpt>
      <trkpt lat="45.29949" lon="6.14561">
        <ele>2657</ele>
        <time>2020-12-16T12:01:10.000Z</time>
      </trkpt>
      <trkpt lat="45.2995" lon="6.14563">
        <ele>2658</ele>
        <time>2020-12-16T12:01:15.000Z</time>
      </trkpt>
      <trkpt lat="45.2995" lon="6.14563">
        <ele>2658.1999511719</ele>
        <time>2020-12-16T12:01:16.000Z</time>
      </trkpt>
      <trkpt lat="45.29949" lon="6.14565">
        <ele>2659</ele>
        <time>2020-12-16T12:01:19.000Z</time>
      </trkpt>
      <trkpt lat="45.2995" lon="6.14566">
        <ele>2659.6000976562</ele>
        <time>2020-12-16T12:01:24.000Z</time>
      </trkpt>
      <trkpt lat="45.2995" lon="6.14566">
        <ele>2660.1999511719</ele>
        <time>2020-12-16T12:01:27.000Z</time>
      </trkpt>
      <trkpt lat="45.2995" lon="6.14566">
        <ele>2660.8000488281</ele>
        <time>2020-12-16T12:01:31.000Z</time>
      </trkpt>
      <trkpt lat="45.2995" lon="6.14566">
        <ele>2661.1999511719</ele>
        <time>2020-12-16T12:01:33.000Z</time>
      </trkpt>
      <trkpt lat="45.2995" lon="6.14566">
        <ele>2662</ele>
        <time>2020-12-16T12:01:40.000Z</time>
      </trkpt>
      <trkpt lat="45.2995" lon="6.14566">
        <ele>2662.1999511719</ele>
        <time>2020-12-16T12:01:42.000Z</time>
      </trkpt>
      <trkpt lat="45.2995" lon="6.14566">
        <ele>2663</ele>
        <time>2020-12-16T12:01:46.000Z</time>
      </trkpt>
      <trkpt lat="45.2995" lon="6.14566">
        <ele>2663.1999511719</ele>
        <time>2020-12-16T12:01:48.000Z</time>
      </trkpt>
      <trkpt lat="45.2995" lon="6.14566">
        <ele>2663.6000976562</ele>
        <time>2020-12-16T12:01:51.000Z</time>
      </trkpt>
      <trkpt lat="45.29945" lon="6.14565">
        <ele>2664.1999511719</ele>
        <time>2020-12-16T12:01:55.000Z</time>
      </trkpt>
      <trkpt lat="45.29937" lon="6.14564">
        <ele>2664.8000488281</ele>
        <time>2020-12-16T12:01:58.000Z</time>
      </trkpt>
      <trkpt lat="45.29936" lon="6.14563">
        <ele>2665.3999023438</ele>
        <time>2020-12-16T12:02:01.000Z</time>
      </trkpt>
      <trkpt lat="45.29936" lon="6.1456">
        <ele>2666.6000976562</ele>
        <time>2020-12-16T12:02:06.000Z</time>
      </trkpt>
      <trkpt lat="45.29936" lon="6.1456">
        <ele>2667</ele>
        <time>2020-12-16T12:02:07.000Z</time>
      </trkpt>
      <trkpt lat="45.29936" lon="6.1456">
        <ele>2667.6000976562</ele>
        <time>2020-12-16T12:02:10.000Z</time>
      </trkpt>
      <trkpt lat="45.29935" lon="6.1456">
        <ele>2668.3999023438</ele>
        <time>2020-12-16T12:02:13.000Z</time>
      </trkpt>
      <trkpt lat="45.29934" lon="6.1456">
        <ele>2668.6000976562</ele>
        <time>2020-12-16T12:02:14.000Z</time>
      </trkpt>
      <trkpt lat="45.29928" lon="6.14561">
        <ele>2669.3999023438</ele>
        <time>2020-12-16T12:02:22.000Z</time>
      </trkpt>
      <trkpt lat="45.29927" lon="6.14562">
        <ele>2669.8000488281</ele>
        <time>2020-12-16T12:02:24.000Z</time>
      </trkpt>
      <trkpt lat="45.29923" lon="6.1456">
        <ele>2670.8000488281</ele>
        <time>2020-12-16T12:02:29.000Z</time>
      </trkpt>
      <trkpt lat="45.29922" lon="6.14559">
        <ele>2671</ele>
        <time>2020-12-16T12:02:30.000Z</time>
      </trkpt>
      <trkpt lat="45.29921" lon="6.14558">
        <ele>2672.1999511719</ele>
        <time>2020-12-16T12:02:35.000Z</time>
      </trkpt>
      <trkpt lat="45.29921" lon="6.14558">
        <ele>2672.3999023438</ele>
        <time>2020-12-16T12:02:36.000Z</time>
      </trkpt>
      <trkpt lat="45.29919" lon="6.14556">
        <ele>2673.1999511719</ele>
        <time>2020-12-16T12:02:39.000Z</time>
      </trkpt>
      <trkpt lat="45.29916" lon="6.14553">
        <ele>2674.1999511719</ele>
        <time>2020-12-16T12:02:44.000Z</time>
      </trkpt>
      <trkpt lat="45.29916" lon="6.14553">
        <ele>2674.3999023438</ele>
        <time>2020-12-16T12:02:45.000Z</time>
      </trkpt>
      <trkpt lat="45.29912" lon="6.14552">
        <ele>2675.3999023438</ele>
        <time>2020-12-16T12:02:49.000Z</time>
      </trkpt>
      <trkpt lat="45.29911" lon="6.14552">
        <ele>2676</ele>
        <time>2020-12-16T12:02:52.000Z</time>
      </trkpt>
      <trkpt lat="45.29909" lon="6.14551">
        <ele>2676.3999023438</ele>
        <time>2020-12-16T12:02:54.000Z</time>
      </trkpt>
      <trkpt lat="45.29906" lon="6.14551">
        <ele>2677.6000976562</ele>
        <time>2020-12-16T12:02:59.000Z</time>
      </trkpt>
      <trkpt lat="45.29902" lon="6.14551">
        <ele>2678.6000976562</ele>
        <time>2020-12-16T12:03:05.000Z</time>
      </trkpt>
      <trkpt lat="45.29901" lon="6.1455">
        <ele>2679</ele>
        <time>2020-12-16T12:03:07.000Z</time>
      </trkpt>
      <trkpt lat="45.299" lon="6.14549">
        <ele>2679.8000488281</ele>
        <time>2020-12-16T12:03:10.000Z</time>
      </trkpt>
      <trkpt lat="45.29899" lon="6.14549">
        <ele>2680.6000976562</ele>
        <time>2020-12-16T12:03:14.000Z</time>
      </trkpt>
      <trkpt lat="45.29899" lon="6.14549">
        <ele>2680.8000488281</ele>
        <time>2020-12-16T12:03:15.000Z</time>
      </trkpt>
      <trkpt lat="45.29896" lon="6.14549">
        <ele>2681.3999023438</ele>
        <time>2020-12-16T12:03:21.000Z</time>
      </trkpt>
      <trkpt lat="45.29893" lon="6.14551">
        <ele>2681.8000488281</ele>
        <time>2020-12-16T12:03:24.000Z</time>
      </trkpt>
      <trkpt lat="45.29892" lon="6.14552">
        <ele>2682.1999511719</ele>
        <time>2020-12-16T12:03:26.000Z</time>
      </trkpt>
      <trkpt lat="45.29892" lon="6.14552">
        <ele>2682.3999023438</ele>
        <time>2020-12-16T12:03:28.000Z</time>
      </trkpt>
      <trkpt lat="45.29893" lon="6.14555">
        <ele>2682.8000488281</ele>
        <time>2020-12-16T12:03:33.000Z</time>
      </trkpt>
      <trkpt lat="45.29893" lon="6.14555">
        <ele>2683</ele>
        <time>2020-12-16T12:03:34.000Z</time>
      </trkpt>
      <trkpt lat="45.29897" lon="6.1456">
        <ele>2683.8000488281</ele>
        <time>2020-12-16T12:03:41.000Z</time>
      </trkpt>
      <trkpt lat="45.29901" lon="6.14562">
        <ele>2683.6000976562</ele>
        <time>2020-12-16T12:03:48.000Z</time>
      </trkpt>
      <trkpt lat="45.29903" lon="6.14566">
        <ele>2683.8000488281</ele>
        <time>2020-12-16T12:03:54.000Z</time>
      </trkpt>
      <trkpt lat="45.29904" lon="6.14567">
        <ele>2684.1999511719</ele>
        <time>2020-12-16T12:03:56.000Z</time>
      </trkpt>
      <trkpt lat="45.29908" lon="6.14568">
        <ele>2684.8000488281</ele>
        <time>2020-12-16T12:04:03.000Z</time>
      </trkpt>
      <trkpt lat="45.29908" lon="6.14568">
        <ele>2685</ele>
        <time>2020-12-16T12:04:04.000Z</time>
      </trkpt>
      <trkpt lat="45.29908" lon="6.14568">
        <ele>2686</ele>
        <time>2020-12-16T12:04:14.000Z</time>
      </trkpt>
      <trkpt lat="45.29908" lon="6.14568">
        <ele>2686.1999511719</ele>
        <time>2020-12-16T12:04:22.000Z</time>
      </trkpt>
      <trkpt lat="45.29908" lon="6.14568">
        <ele>2686.1999511719</ele>
        <time>2020-12-16T12:04:34.000Z</time>
      </trkpt>
      <trkpt lat="45.29908" lon="6.14569">
        <ele>2686.1999511719</ele>
        <time>2020-12-16T12:04:38.000Z</time>
      </trkpt>
      <trkpt lat="45.29908" lon="6.1457">
        <ele>2686</ele>
        <time>2020-12-16T12:04:44.000Z</time>
      </trkpt>
      <trkpt lat="45.29908" lon="6.1457">
        <ele>2686.1999511719</ele>
        <time>2020-12-16T12:04:56.000Z</time>
      </trkpt>
      <trkpt lat="45.29908" lon="6.1457">
        <ele>2686.3999023438</ele>
        <time>2020-12-16T12:05:07.000Z</time>
      </trkpt>
      <trkpt lat="45.29908" lon="6.1457">
        <ele>2686.6000976562</ele>
        <time>2020-12-16T12:05:20.000Z</time>
      </trkpt>
      <trkpt lat="45.29908" lon="6.1457">
        <ele>2685.8000488281</ele>
        <time>2020-12-16T12:05:28.000Z</time>
      </trkpt>
      <trkpt lat="45.29908" lon="6.1457">
        <ele>2686</ele>
        <time>2020-12-16T12:05:41.000Z</time>
      </trkpt>
      <trkpt lat="45.29908" lon="6.1457">
        <ele>2685.6000976562</ele>
        <time>2020-12-16T12:05:59.000Z</time>
      </trkpt>
      <trkpt lat="45.29908" lon="6.1457">
        <ele>2685.1999511719</ele>
        <time>2020-12-16T12:06:12.000Z</time>
      </trkpt>
      <trkpt lat="45.29908" lon="6.1457">
        <ele>2685.1999511719</ele>
        <time>2020-12-16T12:06:14.000Z</time>
      </trkpt>
      <trkpt lat="45.29908" lon="6.1457">
        <ele>2685.1999511719</ele>
        <time>2020-12-16T12:06:22.000Z</time>
      </trkpt>
      <trkpt lat="45.29908" lon="6.1457">
        <ele>2684.6000976562</ele>
        <time>2020-12-16T12:06:24.000Z</time>
      </trkpt>
      <trkpt lat="45.29908" lon="6.1457">
        <ele>2683.3999023438</ele>
        <time>2020-12-16T12:06:32.000Z</time>
      </trkpt>
      <trkpt lat="45.29908" lon="6.1457">
        <ele>2683.1999511719</ele>
        <time>2020-12-16T12:06:33.000Z</time>
      </trkpt>
      <trkpt lat="45.29908" lon="6.1457">
        <ele>2684.8000488281</ele>
        <time>2020-12-16T12:06:36.000Z</time>
      </trkpt>
      <trkpt lat="45.29908" lon="6.1457">
        <ele>2685.8000488281</ele>
        <time>2020-12-16T12:06:37.000Z</time>
      </trkpt>
      <trkpt lat="45.29908" lon="6.1457">
        <ele>2686.6000976562</ele>
        <time>2020-12-16T12:06:40.000Z</time>
      </trkpt>
      <trkpt lat="45.29908" lon="6.1457">
        <ele>2686.3999023438</ele>
        <time>2020-12-16T12:06:52.000Z</time>
      </trkpt>
      <trkpt lat="45.29908" lon="6.1457">
        <ele>2686.1999511719</ele>
        <time>2020-12-16T12:07:06.000Z</time>
      </trkpt>
      <trkpt lat="45.29908" lon="6.1457">
        <ele>2686.3999023438</ele>
        <time>2020-12-16T12:07:16.000Z</time>
      </trkpt>
      <trkpt lat="45.29909" lon="6.1457">
        <ele>2686.1999511719</ele>
        <time>2020-12-16T12:07:31.000Z</time>
      </trkpt>
      <trkpt lat="45.29909" lon="6.1457">
        <ele>2685.6000976562</ele>
        <time>2020-12-16T12:07:46.000Z</time>
      </trkpt>
      <trkpt lat="45.29909" lon="6.1457">
        <ele>2685.8000488281</ele>
        <time>2020-12-16T12:08:04.000Z</time>
      </trkpt>
      <trkpt lat="45.29909" lon="6.1457">
        <ele>2685.8000488281</ele>
        <time>2020-12-16T12:08:17.000Z</time>
      </trkpt>
      <trkpt lat="45.29909" lon="6.1457">
        <ele>2686.6000976562</ele>
        <time>2020-12-16T12:08:32.000Z</time>
      </trkpt>
      <trkpt lat="45.29909" lon="6.1457">
        <ele>2686.8000488281</ele>
        <time>2020-12-16T12:08:39.000Z</time>
      </trkpt>
      <trkpt lat="45.29909" lon="6.1457">
        <ele>2687</ele>
        <time>2020-12-16T12:08:45.000Z</time>
      </trkpt>
      <trkpt lat="45.29908" lon="6.14572">
        <ele>2686.6000976562</ele>
        <time>2020-12-16T12:08:53.000Z</time>
      </trkpt>
      <trkpt lat="45.29908" lon="6.14572">
        <ele>2685.8000488281</ele>
        <time>2020-12-16T12:08:59.000Z</time>
      </trkpt>
      <trkpt lat="45.29908" lon="6.14572">
        <ele>2685.6000976562</ele>
        <time>2020-12-16T12:09:04.000Z</time>
      </trkpt>
      <trkpt lat="45.29908" lon="6.14572">
        <ele>2685.6000976562</ele>
        <time>2020-12-16T12:09:17.000Z</time>
      </trkpt>
      <trkpt lat="45.29908" lon="6.14572">
        <ele>2685.6000976562</ele>
        <time>2020-12-16T12:09:32.000Z</time>
      </trkpt>
      <trkpt lat="45.29908" lon="6.14572">
        <ele>2685.6000976562</ele>
        <time>2020-12-16T12:09:46.000Z</time>
      </trkpt>
      <trkpt lat="45.29908" lon="6.14573">
        <ele>2685.3999023438</ele>
        <time>2020-12-16T12:09:53.000Z</time>
      </trkpt>
      <trkpt lat="45.29911" lon="6.14573">
        <ele>2685</ele>
        <time>2020-12-16T12:10:04.000Z</time>
      </trkpt>
      <trkpt lat="45.29911" lon="6.14573">
        <ele>2685.3999023438</ele>
        <time>2020-12-16T12:10:13.000Z</time>
      </trkpt>
      <trkpt lat="45.29911" lon="6.14572">
        <ele>2685.3999023438</ele>
        <time>2020-12-16T12:10:24.000Z</time>
      </trkpt>
      <trkpt lat="45.29911" lon="6.14572">
        <ele>2684.8000488281</ele>
        <time>2020-12-16T12:10:38.000Z</time>
      </trkpt>
      <trkpt lat="45.29911" lon="6.14572">
        <ele>2685.8000488281</ele>
        <time>2020-12-16T12:10:50.000Z</time>
      </trkpt>
      <trkpt lat="45.29912" lon="6.14573">
        <ele>2686</ele>
        <time>2020-12-16T12:11:05.000Z</time>
      </trkpt>
      <trkpt lat="45.29912" lon="6.14573">
        <ele>2685.6000976562</ele>
        <time>2020-12-16T12:11:21.000Z</time>
      </trkpt>
      <trkpt lat="45.29912" lon="6.14573">
        <ele>2685.6000976562</ele>
        <time>2020-12-16T12:11:35.000Z</time>
      </trkpt>
      <trkpt lat="45.29912" lon="6.14574">
        <ele>2685.3999023438</ele>
        <time>2020-12-16T12:11:50.000Z</time>
      </trkpt>
      <trkpt lat="45.29912" lon="6.14575">
        <ele>2685.6000976562</ele>
        <time>2020-12-16T12:11:56.000Z</time>
      </trkpt>
      <trkpt lat="45.29912" lon="6.14576">
        <ele>2686.1999511719</ele>
        <time>2020-12-16T12:12:02.000Z</time>
      </trkpt>
      <trkpt lat="45.29912" lon="6.14576">
        <ele>2686.1999511719</ele>
        <time>2020-12-16T12:12:20.000Z</time>
      </trkpt>
      <trkpt lat="45.2991" lon="6.14574">
        <ele>2686.1999511719</ele>
        <time>2020-12-16T12:12:28.000Z</time>
      </trkpt>
      <trkpt lat="45.29903" lon="6.14569">
        <ele>2685.6000976562</ele>
        <time>2020-12-16T12:12:35.000Z</time>
      </trkpt>
      <trkpt lat="45.29901" lon="6.14568">
        <ele>2685.3999023438</ele>
        <time>2020-12-16T12:12:36.000Z</time>
      </trkpt>
      <trkpt lat="45.29898" lon="6.14565">
        <ele>2684.6000976562</ele>
        <time>2020-12-16T12:12:39.000Z</time>
      </trkpt>
      <trkpt lat="45.29895" lon="6.14564">
        <ele>2683.6000976562</ele>
        <time>2020-12-16T12:12:42.000Z</time>
      </trkpt>
      <trkpt lat="45.29895" lon="6.14564">
        <ele>2683.6000976562</ele>
        <time>2020-12-16T12:12:43.000Z</time>
      </trkpt>
      <trkpt lat="45.29893" lon="6.1456">
        <ele>2683.3999023438</ele>
        <time>2020-12-16T12:12:49.000Z</time>
      </trkpt>
      <trkpt lat="45.29893" lon="6.1456">
        <ele>2683.3999023438</ele>
        <time>2020-12-16T12:12:59.000Z</time>
      </trkpt>
      <trkpt lat="45.29893" lon="6.1456">
        <ele>2683</ele>
        <time>2020-12-16T12:13:16.000Z</time>
      </trkpt>
      <trkpt lat="45.29893" lon="6.1456">
        <ele>2683.6000976562</ele>
        <time>2020-12-16T12:13:34.000Z</time>
      </trkpt>
      <trkpt lat="45.29893" lon="6.1456">
        <ele>2682.8000488281</ele>
        <time>2020-12-16T12:13:49.000Z</time>
      </trkpt>
      <trkpt lat="45.29893" lon="6.1456">
        <ele>2683</ele>
        <time>2020-12-16T12:14:02.000Z</time>
      </trkpt>
      <trkpt lat="45.29893" lon="6.1456">
        <ele>2683</ele>
        <time>2020-12-16T12:14:14.000Z</time>
      </trkpt>
      <trkpt lat="45.29893" lon="6.1456">
        <ele>2683</ele>
        <time>2020-12-16T12:14:32.000Z</time>
      </trkpt>
      <trkpt lat="45.29893" lon="6.1456">
        <ele>2682.6000976562</ele>
        <time>2020-12-16T12:14:44.000Z</time>
      </trkpt>
      <trkpt lat="45.29891" lon="6.14554">
        <ele>2682.6000976562</ele>
        <time>2020-12-16T12:14:51.000Z</time>
      </trkpt>
      <trkpt lat="45.29891" lon="6.14552">
        <ele>2682.3999023438</ele>
        <time>2020-12-16T12:14:52.000Z</time>
      </trkpt>
      <trkpt lat="45.2989" lon="6.14545">
        <ele>2681.8000488281</ele>
        <time>2020-12-16T12:14:56.000Z</time>
      </trkpt>
      <trkpt lat="45.29891" lon="6.14543">
        <ele>2681.6000976562</ele>
        <time>2020-12-16T12:14:58.000Z</time>
      </trkpt>
      <trkpt lat="45.29891" lon="6.1454">
        <ele>2681.3999023438</ele>
        <time>2020-12-16T12:15:00.000Z</time>
      </trkpt>
      <trkpt lat="45.29891" lon="6.14532">
        <ele>2681.6000976562</ele>
        <time>2020-12-16T12:15:07.000Z</time>
      </trkpt>
      <trkpt lat="45.29891" lon="6.1452">
        <ele>2682</ele>
        <time>2020-12-16T12:15:16.000Z</time>
      </trkpt>
      <trkpt lat="45.29892" lon="6.14516">
        <ele>2682.3999023438</ele>
        <time>2020-12-16T12:15:20.000Z</time>
      </trkpt>
      <trkpt lat="45.29894" lon="6.14513">
        <ele>2683</ele>
        <time>2020-12-16T12:15:24.000Z</time>
      </trkpt>
      <trkpt lat="45.29897" lon="6.14509">
        <ele>2683.3999023438</ele>
        <time>2020-12-16T12:15:30.000Z</time>
      </trkpt>
      <trkpt lat="45.29898" lon="6.14505">
        <ele>2684.1999511719</ele>
        <time>2020-12-16T12:15:35.000Z</time>
      </trkpt>
      <trkpt lat="45.29898" lon="6.14503">
        <ele>2684.6000976562</ele>
        <time>2020-12-16T12:15:37.000Z</time>
      </trkpt>
      <trkpt lat="45.29897" lon="6.145">
        <ele>2685.8000488281</ele>
        <time>2020-12-16T12:15:43.000Z</time>
      </trkpt>
      <trkpt lat="45.29897" lon="6.14499">
        <ele>2686.1999511719</ele>
        <time>2020-12-16T12:15:44.000Z</time>
      </trkpt>
      <trkpt lat="45.29897" lon="6.14496">
        <ele>2686.8000488281</ele>
        <time>2020-12-16T12:15:49.000Z</time>
      </trkpt>
      <trkpt lat="45.29897" lon="6.14495">
        <ele>2687.3999023438</ele>
        <time>2020-12-16T12:15:52.000Z</time>
      </trkpt>
      <trkpt lat="45.29897" lon="6.14495">
        <ele>2688</ele>
        <time>2020-12-16T12:15:56.000Z</time>
      </trkpt>
      <trkpt lat="45.29897" lon="6.14495">
        <ele>2688.1999511719</ele>
        <time>2020-12-16T12:16:00.000Z</time>
      </trkpt>
      <trkpt lat="45.29897" lon="6.14495">
        <ele>2689</ele>
        <time>2020-12-16T12:16:07.000Z</time>
      </trkpt>
      <trkpt lat="45.29897" lon="6.14495">
        <ele>2689.1999511719</ele>
        <time>2020-12-16T12:16:09.000Z</time>
      </trkpt>
      <trkpt lat="45.29897" lon="6.14495">
        <ele>2690</ele>
        <time>2020-12-16T12:16:14.000Z</time>
      </trkpt>
      <trkpt lat="45.29897" lon="6.14495">
        <ele>2690.8000488281</ele>
        <time>2020-12-16T12:16:18.000Z</time>
      </trkpt>
      <trkpt lat="45.29897" lon="6.14495">
        <ele>2691.1999511719</ele>
        <time>2020-12-16T12:16:21.000Z</time>
      </trkpt>
      <trkpt lat="45.29897" lon="6.14495">
        <ele>2692.1999511719</ele>
        <time>2020-12-16T12:16:28.000Z</time>
      </trkpt>
      <trkpt lat="45.29895" lon="6.14481">
        <ele>2693.1999511719</ele>
        <time>2020-12-16T12:16:35.000Z</time>
      </trkpt>
      <trkpt lat="45.29895" lon="6.14481">
        <ele>2693.6000976562</ele>
        <time>2020-12-16T12:16:37.000Z</time>
      </trkpt>
      <trkpt lat="45.29895" lon="6.14481">
        <ele>2693.8000488281</ele>
        <time>2020-12-16T12:16:51.000Z</time>
      </trkpt>
      <trkpt lat="45.29895" lon="6.14481">
        <ele>2693.8000488281</ele>
        <time>2020-12-16T12:17:06.000Z</time>
      </trkpt>
      <trkpt lat="45.29893" lon="6.14474">
        <ele>2694</ele>
        <time>2020-12-16T12:17:14.000Z</time>
      </trkpt>
      <trkpt lat="45.29893" lon="6.14474">
        <ele>2694.3999023438</ele>
        <time>2020-12-16T12:17:16.000Z</time>
      </trkpt>
      <trkpt lat="45.29893" lon="6.14474">
        <ele>2694.8000488281</ele>
        <time>2020-12-16T12:17:22.000Z</time>
      </trkpt>
      <trkpt lat="45.29886" lon="6.14465">
        <ele>2695.3999023438</ele>
        <time>2020-12-16T12:17:28.000Z</time>
      </trkpt>
      <trkpt lat="45.29884" lon="6.14459">
        <ele>2695.8000488281</ele>
        <time>2020-12-16T12:17:31.000Z</time>
      </trkpt>
      <trkpt lat="45.29881" lon="6.14452">
        <ele>2696.6000976562</ele>
        <time>2020-12-16T12:17:37.000Z</time>
      </trkpt>
      <trkpt lat="45.29879" lon="6.14448">
        <ele>2697.1999511719</ele>
        <time>2020-12-16T12:17:42.000Z</time>
      </trkpt>
      <trkpt lat="45.29877" lon="6.14447">
        <ele>2697.6000976562</ele>
        <time>2020-12-16T12:17:46.000Z</time>
      </trkpt>
      <trkpt lat="45.29877" lon="6.14446">
        <ele>2697.6000976562</ele>
        <time>2020-12-16T12:17:50.000Z</time>
      </trkpt>
      <trkpt lat="45.29874" lon="6.1444">
        <ele>2698</ele>
        <time>2020-12-16T12:17:58.000Z</time>
      </trkpt>
      <trkpt lat="45.29871" lon="6.14438">
        <ele>2698.6000976562</ele>
        <time>2020-12-16T12:18:04.000Z</time>
      </trkpt>
      <trkpt lat="45.29871" lon="6.14438">
        <ele>2698.8000488281</ele>
        <time>2020-12-16T12:18:07.000Z</time>
      </trkpt>
      <trkpt lat="45.29871" lon="6.14438">
        <ele>2699.3999023438</ele>
        <time>2020-12-16T12:18:15.000Z</time>
      </trkpt>
      <trkpt lat="45.29871" lon="6.14438">
        <ele>2699.6000976562</ele>
        <time>2020-12-16T12:18:19.000Z</time>
      </trkpt>
      <trkpt lat="45.29871" lon="6.14438">
        <ele>2700.1999511719</ele>
        <time>2020-12-16T12:18:24.000Z</time>
      </trkpt>
      <trkpt lat="45.29871" lon="6.14438">
        <ele>2700.6000976562</ele>
        <time>2020-12-16T12:18:30.000Z</time>
      </trkpt>
      <trkpt lat="45.29871" lon="6.14438">
        <ele>2701</ele>
        <time>2020-12-16T12:18:34.000Z</time>
      </trkpt>
      <trkpt lat="45.29871" lon="6.14438">
        <ele>2701.8000488281</ele>
        <time>2020-12-16T12:18:41.000Z</time>
      </trkpt>
      <trkpt lat="45.29868" lon="6.14436">
        <ele>2702</ele>
        <time>2020-12-16T12:18:44.000Z</time>
      </trkpt>
      <trkpt lat="45.29859" lon="6.14427">
        <ele>2702.8000488281</ele>
        <time>2020-12-16T12:18:51.000Z</time>
      </trkpt>
      <trkpt lat="45.29857" lon="6.14426">
        <ele>2703</ele>
        <time>2020-12-16T12:18:52.000Z</time>
      </trkpt>
      <trkpt lat="45.29848" lon="6.14418">
        <ele>2704</ele>
        <time>2020-12-16T12:18:59.000Z</time>
      </trkpt>
      <trkpt lat="45.29846" lon="6.14415">
        <ele>2704.1999511719</ele>
        <time>2020-12-16T12:19:02.000Z</time>
      </trkpt>
      <trkpt lat="45.29841" lon="6.14411">
        <ele>2705</ele>
        <time>2020-12-16T12:19:09.000Z</time>
      </trkpt>
      <trkpt lat="45.2984" lon="6.1441">
        <ele>2705.1999511719</ele>
        <time>2020-12-16T12:19:11.000Z</time>
      </trkpt>
      <trkpt lat="45.2984" lon="6.1441">
        <ele>2705.8000488281</ele>
        <time>2020-12-16T12:19:17.000Z</time>
      </trkpt>
      <trkpt lat="45.29838" lon="6.1441">
        <ele>2706.1999511719</ele>
        <time>2020-12-16T12:19:20.000Z</time>
      </trkpt>
      <trkpt lat="45.29832" lon="6.14407">
        <ele>2706.3999023438</ele>
        <time>2020-12-16T12:19:25.000Z</time>
      </trkpt>
      <trkpt lat="45.29822" lon="6.14402">
        <ele>2707</ele>
        <time>2020-12-16T12:19:33.000Z</time>
      </trkpt>
      <trkpt lat="45.29821" lon="6.14401">
        <ele>2707.1999511719</ele>
        <time>2020-12-16T12:19:34.000Z</time>
      </trkpt>
      <trkpt lat="45.29813" lon="6.14398">
        <ele>2708</ele>
        <time>2020-12-16T12:19:42.000Z</time>
      </trkpt>
      <trkpt lat="45.29812" lon="6.14397">
        <ele>2708.1999511719</ele>
        <time>2020-12-16T12:19:43.000Z</time>
      </trkpt>
      <trkpt lat="45.29808" lon="6.14394">
        <ele>2708.8000488281</ele>
        <time>2020-12-16T12:19:49.000Z</time>
      </trkpt>
      <trkpt lat="45.29804" lon="6.14393">
        <ele>2709.1999511719</ele>
        <time>2020-12-16T12:19:53.000Z</time>
      </trkpt>
      <trkpt lat="45.298" lon="6.14391">
        <ele>2709.6000976562</ele>
        <time>2020-12-16T12:19:58.000Z</time>
      </trkpt>
      <trkpt lat="45.29795" lon="6.14389">
        <ele>2710.1999511719</ele>
        <time>2020-12-16T12:20:05.000Z</time>
      </trkpt>
      <trkpt lat="45.29794" lon="6.14388">
        <ele>2710.3999023438</ele>
        <time>2020-12-16T12:20:06.000Z</time>
      </trkpt>
      <trkpt lat="45.29788" lon="6.14384">
        <ele>2711</ele>
        <time>2020-12-16T12:20:14.000Z</time>
      </trkpt>
      <trkpt lat="45.29785" lon="6.14381">
        <ele>2711.1999511719</ele>
        <time>2020-12-16T12:20:20.000Z</time>
      </trkpt>
      <trkpt lat="45.29783" lon="6.1438">
        <ele>2711.3999023438</ele>
        <time>2020-12-16T12:20:22.000Z</time>
      </trkpt>
      <trkpt lat="45.29778" lon="6.14379">
        <ele>2711.6000976562</ele>
        <time>2020-12-16T12:20:27.000Z</time>
      </trkpt>
      <trkpt lat="45.29774" lon="6.14376">
        <ele>2711.8000488281</ele>
        <time>2020-12-16T12:20:35.000Z</time>
      </trkpt>
      <trkpt lat="45.29769" lon="6.14375">
        <ele>2711.6000976562</ele>
        <time>2020-12-16T12:20:43.000Z</time>
      </trkpt>
      <trkpt lat="45.29764" lon="6.14372">
        <ele>2711.6000976562</ele>
        <time>2020-12-16T12:20:51.000Z</time>
      </trkpt>
      <trkpt lat="45.29758" lon="6.1437">
        <ele>2711.3999023438</ele>
        <time>2020-12-16T12:21:01.000Z</time>
      </trkpt>
      <trkpt lat="45.29748" lon="6.1437">
        <ele>2710.8000488281</ele>
        <time>2020-12-16T12:21:11.000Z</time>
      </trkpt>
      <trkpt lat="45.29748" lon="6.14371">
        <ele>2710.8000488281</ele>
        <time>2020-12-16T12:21:20.000Z</time>
      </trkpt>
      <trkpt lat="45.29748" lon="6.14371">
        <ele>2711</ele>
        <time>2020-12-16T12:21:27.000Z</time>
      </trkpt>
      <trkpt lat="45.29746" lon="6.14371">
        <ele>2711.6000976562</ele>
        <time>2020-12-16T12:21:35.000Z</time>
      </trkpt>
      <trkpt lat="45.29743" lon="6.14372">
        <ele>2711.8000488281</ele>
        <time>2020-12-16T12:21:42.000Z</time>
      </trkpt>
      <trkpt lat="45.29738" lon="6.14372">
        <ele>2712.3999023438</ele>
        <time>2020-12-16T12:21:46.000Z</time>
      </trkpt>
      <trkpt lat="45.29736" lon="6.14373">
        <ele>2712.8000488281</ele>
        <time>2020-12-16T12:21:50.000Z</time>
      </trkpt>
      <trkpt lat="45.2973" lon="6.14373">
        <ele>2713.3999023438</ele>
        <time>2020-12-16T12:21:56.000Z</time>
      </trkpt>
      <trkpt lat="45.29729" lon="6.14373">
        <ele>2713.8000488281</ele>
        <time>2020-12-16T12:21:58.000Z</time>
      </trkpt>
      <trkpt lat="45.29723" lon="6.14372">
        <ele>2714.6000976562</ele>
        <time>2020-12-16T12:22:03.000Z</time>
      </trkpt>
      <trkpt lat="45.29718" lon="6.14372">
        <ele>2715.6000976562</ele>
        <time>2020-12-16T12:22:08.000Z</time>
      </trkpt>
      <trkpt lat="45.29718" lon="6.14372">
        <ele>2715.6000976562</ele>
        <time>2020-12-16T12:22:09.000Z</time>
      </trkpt>
      <trkpt lat="45.29715" lon="6.14373">
        <ele>2716.6000976562</ele>
        <time>2020-12-16T12:22:16.000Z</time>
      </trkpt>
      <trkpt lat="45.29715" lon="6.14373">
        <ele>2716.8000488281</ele>
        <time>2020-12-16T12:22:17.000Z</time>
      </trkpt>
      <trkpt lat="45.29712" lon="6.14375">
        <ele>2717.8000488281</ele>
        <time>2020-12-16T12:22:25.000Z</time>
      </trkpt>
      <trkpt lat="45.29712" lon="6.14375">
        <ele>2717.8000488281</ele>
        <time>2020-12-16T12:22:33.000Z</time>
      </trkpt>
      <trkpt lat="45.29712" lon="6.14375">
        <ele>2718</ele>
        <time>2020-12-16T12:22:35.000Z</time>
      </trkpt>
      <trkpt lat="45.29712" lon="6.14375">
        <ele>2718.8000488281</ele>
        <time>2020-12-16T12:22:40.000Z</time>
      </trkpt>
      <trkpt lat="45.29712" lon="6.14375">
        <ele>2719.3999023438</ele>
        <time>2020-12-16T12:22:43.000Z</time>
      </trkpt>
      <trkpt lat="45.29712" lon="6.14375">
        <ele>2720</ele>
        <time>2020-12-16T12:22:46.000Z</time>
      </trkpt>
      <trkpt lat="45.29712" lon="6.14375">
        <ele>2720.6000976562</ele>
        <time>2020-12-16T12:22:49.000Z</time>
      </trkpt>
      <trkpt lat="45.2971" lon="6.14375">
        <ele>2721</ele>
        <time>2020-12-16T12:22:52.000Z</time>
      </trkpt>
      <trkpt lat="45.29707" lon="6.14378">
        <ele>2722</ele>
        <time>2020-12-16T12:22:56.000Z</time>
      </trkpt>
      <trkpt lat="45.29706" lon="6.14378">
        <ele>2722.1999511719</ele>
        <time>2020-12-16T12:22:57.000Z</time>
      </trkpt>
      <trkpt lat="45.29706" lon="6.14378">
        <ele>2723.1999511719</ele>
        <time>2020-12-16T12:23:05.000Z</time>
      </trkpt>
      <trkpt lat="45.29706" lon="6.14378">
        <ele>2724.1999511719</ele>
        <time>2020-12-16T12:23:13.000Z</time>
      </trkpt>
      <trkpt lat="45.29706" lon="6.14378">
        <ele>2724.6000976562</ele>
        <time>2020-12-16T12:23:15.000Z</time>
      </trkpt>
      <trkpt lat="45.29704" lon="6.1438">
        <ele>2725.3999023438</ele>
        <time>2020-12-16T12:23:20.000Z</time>
      </trkpt>
      <trkpt lat="45.29704" lon="6.1438">
        <ele>2725.6000976562</ele>
        <time>2020-12-16T12:23:22.000Z</time>
      </trkpt>
      <trkpt lat="45.29704" lon="6.1438">
        <ele>2726.6000976562</ele>
        <time>2020-12-16T12:23:30.000Z</time>
      </trkpt>
      <trkpt lat="45.29704" lon="6.1438">
        <ele>2727.6000976562</ele>
        <time>2020-12-16T12:23:37.000Z</time>
      </trkpt>
      <trkpt lat="45.29704" lon="6.1438">
        <ele>2727.8000488281</ele>
        <time>2020-12-16T12:23:38.000Z</time>
      </trkpt>
      <trkpt lat="45.29698" lon="6.14383">
        <ele>2729</ele>
        <time>2020-12-16T12:23:44.000Z</time>
      </trkpt>
      <trkpt lat="45.29697" lon="6.14383">
        <ele>2729.1999511719</ele>
        <time>2020-12-16T12:23:45.000Z</time>
      </trkpt>
      <trkpt lat="45.29697" lon="6.14383">
        <ele>2730.1999511719</ele>
        <time>2020-12-16T12:23:51.000Z</time>
      </trkpt>
      <trkpt lat="45.29697" lon="6.14383">
        <ele>2730.3999023438</ele>
        <time>2020-12-16T12:23:53.000Z</time>
      </trkpt>
      <trkpt lat="45.29697" lon="6.14383">
        <ele>2731.1999511719</ele>
        <time>2020-12-16T12:23:58.000Z</time>
      </trkpt>
      <trkpt lat="45.29697" lon="6.14383">
        <ele>2731.6000976562</ele>
        <time>2020-12-16T12:24:00.000Z</time>
      </trkpt>
      <trkpt lat="45.29697" lon="6.14383">
        <ele>2732.1999511719</ele>
        <time>2020-12-16T12:24:06.000Z</time>
      </trkpt>
      <trkpt lat="45.29697" lon="6.14383">
        <ele>2732.6000976562</ele>
        <time>2020-12-16T12:24:08.000Z</time>
      </trkpt>
      <trkpt lat="45.29693" lon="6.14387">
        <ele>2733.3999023438</ele>
        <time>2020-12-16T12:24:13.000Z</time>
      </trkpt>
      <trkpt lat="45.29691" lon="6.14388">
        <ele>2733.8000488281</ele>
        <time>2020-12-16T12:24:15.000Z</time>
      </trkpt>
      <trkpt lat="45.29686" lon="6.14391">
        <ele>2734.6000976562</ele>
        <time>2020-12-16T12:24:20.000Z</time>
      </trkpt>
      <trkpt lat="45.29686" lon="6.14391">
        <ele>2734.8000488281</ele>
        <time>2020-12-16T12:24:21.000Z</time>
      </trkpt>
      <trkpt lat="45.29686" lon="6.14391">
        <ele>2735.3999023438</ele>
        <time>2020-12-16T12:24:31.000Z</time>
      </trkpt>
      <trkpt lat="45.29686" lon="6.14391">
        <ele>2735.1999511719</ele>
        <time>2020-12-16T12:24:44.000Z</time>
      </trkpt>
      <trkpt lat="45.29685" lon="6.14391">
        <ele>2735.1999511719</ele>
        <time>2020-12-16T12:25:01.000Z</time>
      </trkpt>
      <trkpt lat="45.29685" lon="6.14391">
        <ele>2735.1999511719</ele>
        <time>2020-12-16T12:25:14.000Z</time>
      </trkpt>
      <trkpt lat="45.29685" lon="6.14391">
        <ele>2735.1999511719</ele>
        <time>2020-12-16T12:25:30.000Z</time>
      </trkpt>
      <trkpt lat="45.29684" lon="6.14391">
        <ele>2735.1999511719</ele>
        <time>2020-12-16T12:25:45.000Z</time>
      </trkpt>
      <trkpt lat="45.29684" lon="6.14391">
        <ele>2735.1999511719</ele>
        <time>2020-12-16T12:25:56.000Z</time>
      </trkpt>
      <trkpt lat="45.29684" lon="6.14391">
        <ele>2735.1999511719</ele>
        <time>2020-12-16T12:26:09.000Z</time>
      </trkpt>
      <trkpt lat="45.29684" lon="6.14391">
        <ele>2735.6000976562</ele>
        <time>2020-12-16T12:26:15.000Z</time>
      </trkpt>
      <trkpt lat="45.29684" lon="6.14391">
        <ele>2736</ele>
        <time>2020-12-16T12:26:17.000Z</time>
      </trkpt>
      <trkpt lat="45.29683" lon="6.14391">
        <ele>2736.1999511719</ele>
        <time>2020-12-16T12:26:26.000Z</time>
      </trkpt>
      <trkpt lat="45.29683" lon="6.14391">
        <ele>2736.8000488281</ele>
        <time>2020-12-16T12:26:33.000Z</time>
      </trkpt>
      <trkpt lat="45.29683" lon="6.14391">
        <ele>2737</ele>
        <time>2020-12-16T12:26:35.000Z</time>
      </trkpt>
      <trkpt lat="45.29683" lon="6.14391">
        <ele>2737.8000488281</ele>
        <time>2020-12-16T12:26:38.000Z</time>
      </trkpt>
      <trkpt lat="45.29683" lon="6.14391">
        <ele>2738.8000488281</ele>
        <time>2020-12-16T12:26:43.000Z</time>
      </trkpt>
      <trkpt lat="45.29682" lon="6.14391">
        <ele>2740</ele>
        <time>2020-12-16T12:26:48.000Z</time>
      </trkpt>
      <trkpt lat="45.29675" lon="6.14387">
        <ele>2740.6000976562</ele>
        <time>2020-12-16T12:26:52.000Z</time>
      </trkpt>
      <trkpt lat="45.29672" lon="6.14387">
        <ele>2741</ele>
        <time>2020-12-16T12:26:54.000Z</time>
      </trkpt>
      <trkpt lat="45.29665" lon="6.14385">
        <ele>2742.1999511719</ele>
        <time>2020-12-16T12:26:59.000Z</time>
      </trkpt>
      <trkpt lat="45.29663" lon="6.14385">
        <ele>2742.3999023438</ele>
        <time>2020-12-16T12:27:00.000Z</time>
      </trkpt>
      <trkpt lat="45.29658" lon="6.14384">
        <ele>2743.1999511719</ele>
        <time>2020-12-16T12:27:04.000Z</time>
      </trkpt>
      <trkpt lat="45.29655" lon="6.14383">
        <ele>2744.1999511719</ele>
        <time>2020-12-16T12:27:09.000Z</time>
      </trkpt>
      <trkpt lat="45.29655" lon="6.14383">
        <ele>2744.1999511719</ele>
        <time>2020-12-16T12:27:10.000Z</time>
      </trkpt>
      <trkpt lat="45.29655" lon="6.14383">
        <ele>2745.3999023438</ele>
        <time>2020-12-16T12:27:16.000Z</time>
      </trkpt>
      <trkpt lat="45.29655" lon="6.14383">
        <ele>2745.3999023438</ele>
        <time>2020-12-16T12:27:17.000Z</time>
      </trkpt>
      <trkpt lat="45.29655" lon="6.14383">
        <ele>2745.3999023438</ele>
        <time>2020-12-16T12:27:27.000Z</time>
      </trkpt>
      <trkpt lat="45.29655" lon="6.14383">
        <ele>2746.3999023438</ele>
        <time>2020-12-16T12:27:36.000Z</time>
      </trkpt>
      <trkpt lat="45.29655" lon="6.14383">
        <ele>2746.3999023438</ele>
        <time>2020-12-16T12:27:37.000Z</time>
      </trkpt>
      <trkpt lat="45.29655" lon="6.14383">
        <ele>2747.1999511719</ele>
        <time>2020-12-16T12:27:44.000Z</time>
      </trkpt>
      <trkpt lat="45.29654" lon="6.14383">
        <ele>2747.3999023438</ele>
        <time>2020-12-16T12:27:48.000Z</time>
      </trkpt>
      <trkpt lat="45.29654" lon="6.14383">
        <ele>2748</ele>
        <time>2020-12-16T12:27:52.000Z</time>
      </trkpt>
      <trkpt lat="45.29654" lon="6.14383">
        <ele>2748.3999023438</ele>
        <time>2020-12-16T12:27:54.000Z</time>
      </trkpt>
      <trkpt lat="45.29654" lon="6.14383">
        <ele>2748.6000976562</ele>
        <time>2020-12-16T12:27:55.000Z</time>
      </trkpt>
      <trkpt lat="45.29654" lon="6.14383">
        <ele>2749.6000976562</ele>
        <time>2020-12-16T12:28:01.000Z</time>
      </trkpt>
      <trkpt lat="45.29654" lon="6.14383">
        <ele>2749.8000488281</ele>
        <time>2020-12-16T12:28:02.000Z</time>
      </trkpt>
      <trkpt lat="45.29654" lon="6.14383">
        <ele>2750.3999023438</ele>
        <time>2020-12-16T12:28:18.000Z</time>
      </trkpt>
      <trkpt lat="45.29654" lon="6.14383">
        <ele>2750.8000488281</ele>
        <time>2020-12-16T12:28:25.000Z</time>
      </trkpt>
      <trkpt lat="45.29654" lon="6.14383">
        <ele>2751</ele>
        <time>2020-12-16T12:28:26.000Z</time>
      </trkpt>
      <trkpt lat="45.29653" lon="6.14379">
        <ele>2751.8000488281</ele>
        <time>2020-12-16T12:28:32.000Z</time>
      </trkpt>
      <trkpt lat="45.29652" lon="6.14378">
        <ele>2752</ele>
        <time>2020-12-16T12:28:33.000Z</time>
      </trkpt>
      <trkpt lat="45.29647" lon="6.14377">
        <ele>2753</ele>
        <time>2020-12-16T12:28:38.000Z</time>
      </trkpt>
      <trkpt lat="45.29645" lon="6.14377">
        <ele>2753.3999023438</ele>
        <time>2020-12-16T12:28:41.000Z</time>
      </trkpt>
      <trkpt lat="45.29642" lon="6.14377">
        <ele>2754.1999511719</ele>
        <time>2020-12-16T12:28:45.000Z</time>
      </trkpt>
      <trkpt lat="45.2964" lon="6.14378">
        <ele>2754.6000976562</ele>
        <time>2020-12-16T12:28:48.000Z</time>
      </trkpt>
      <trkpt lat="45.29639" lon="6.14378">
        <ele>2755.1999511719</ele>
        <time>2020-12-16T12:28:52.000Z</time>
      </trkpt>
      <trkpt lat="45.29639" lon="6.14378">
        <ele>2755.8000488281</ele>
        <time>2020-12-16T12:28:55.000Z</time>
      </trkpt>
      <trkpt lat="45.29638" lon="6.14378">
        <ele>2756.1999511719</ele>
        <time>2020-12-16T12:28:57.000Z</time>
      </trkpt>
      <trkpt lat="45.29637" lon="6.1438">
        <ele>2757</ele>
        <time>2020-12-16T12:29:02.000Z</time>
      </trkpt>
      <trkpt lat="45.29637" lon="6.1438">
        <ele>2757.3999023438</ele>
        <time>2020-12-16T12:29:04.000Z</time>
      </trkpt>
      <trkpt lat="45.29637" lon="6.1438">
        <ele>2757.8000488281</ele>
        <time>2020-12-16T12:29:09.000Z</time>
      </trkpt>
      <trkpt lat="45.29637" lon="6.1438">
        <ele>2758.3999023438</ele>
        <time>2020-12-16T12:29:14.000Z</time>
      </trkpt>
      <trkpt lat="45.29637" lon="6.1438">
        <ele>2759.1999511719</ele>
        <time>2020-12-16T12:29:18.000Z</time>
      </trkpt>
      <trkpt lat="45.29637" lon="6.1438">
        <ele>2759.6000976562</ele>
        <time>2020-12-16T12:29:20.000Z</time>
      </trkpt>
      <trkpt lat="45.29637" lon="6.1438">
        <ele>2760.6000976562</ele>
        <time>2020-12-16T12:29:26.000Z</time>
      </trkpt>
      <trkpt lat="45.29637" lon="6.1438">
        <ele>2761</ele>
        <time>2020-12-16T12:29:28.000Z</time>
      </trkpt>
      <trkpt lat="45.29637" lon="6.1438">
        <ele>2761.8000488281</ele>
        <time>2020-12-16T12:29:32.000Z</time>
      </trkpt>
      <trkpt lat="45.29637" lon="6.1438">
        <ele>2762.1999511719</ele>
        <time>2020-12-16T12:29:34.000Z</time>
      </trkpt>
      <trkpt lat="45.29637" lon="6.1438">
        <ele>2763</ele>
        <time>2020-12-16T12:29:38.000Z</time>
      </trkpt>
      <trkpt lat="45.29635" lon="6.14379">
        <ele>2763.6000976562</ele>
        <time>2020-12-16T12:29:43.000Z</time>
      </trkpt>
      <trkpt lat="45.29635" lon="6.1438">
        <ele>2764.1999511719</ele>
        <time>2020-12-16T12:29:45.000Z</time>
      </trkpt>
      <trkpt lat="45.29635" lon="6.1438">
        <ele>2765.1999511719</ele>
        <time>2020-12-16T12:29:51.000Z</time>
      </trkpt>
      <trkpt lat="45.29635" lon="6.1438">
        <ele>2765.3999023438</ele>
        <time>2020-12-16T12:29:52.000Z</time>
      </trkpt>
      <trkpt lat="45.29635" lon="6.1438">
        <ele>2766.3999023438</ele>
        <time>2020-12-16T12:29:57.000Z</time>
      </trkpt>
      <trkpt lat="45.29635" lon="6.1438">
        <ele>2767</ele>
        <time>2020-12-16T12:30:01.000Z</time>
      </trkpt>
      <trkpt lat="45.29635" lon="6.1438">
        <ele>2767.3999023438</ele>
        <time>2020-12-16T12:30:03.000Z</time>
      </trkpt>
      <trkpt lat="45.29635" lon="6.1438">
        <ele>2768.6000976562</ele>
        <time>2020-12-16T12:30:09.000Z</time>
      </trkpt>
      <trkpt lat="45.29635" lon="6.1438">
        <ele>2769.6000976562</ele>
        <time>2020-12-16T12:30:17.000Z</time>
      </trkpt>
      <trkpt lat="45.29634" lon="6.14379">
        <ele>2770.8000488281</ele>
        <time>2020-12-16T12:30:25.000Z</time>
      </trkpt>
      <trkpt lat="45.29634" lon="6.14379">
        <ele>2770.8000488281</ele>
        <time>2020-12-16T12:30:26.000Z</time>
      </trkpt>
      <trkpt lat="45.29634" lon="6.14379">
        <ele>2771.8000488281</ele>
        <time>2020-12-16T12:30:32.000Z</time>
      </trkpt>
      <trkpt lat="45.29634" lon="6.14379">
        <ele>2772.3999023438</ele>
        <time>2020-12-16T12:30:35.000Z</time>
      </trkpt>
      <trkpt lat="45.29634" lon="6.14379">
        <ele>2772.8000488281</ele>
        <time>2020-12-16T12:30:39.000Z</time>
      </trkpt>
      <trkpt lat="45.29634" lon="6.14379">
        <ele>2774</ele>
        <time>2020-12-16T12:30:45.000Z</time>
      </trkpt>
      <trkpt lat="45.29634" lon="6.14379">
        <ele>2775</ele>
        <time>2020-12-16T12:30:54.000Z</time>
      </trkpt>
      <trkpt lat="45.29633" lon="6.14378">
        <ele>2775.8000488281</ele>
        <time>2020-12-16T12:31:03.000Z</time>
      </trkpt>
      <trkpt lat="45.29633" lon="6.14378">
        <ele>2776</ele>
        <time>2020-12-16T12:31:11.000Z</time>
      </trkpt>
      <trkpt lat="45.29633" lon="6.14378">
        <ele>2776</ele>
        <time>2020-12-16T12:31:15.000Z</time>
      </trkpt>
      <trkpt lat="45.29633" lon="6.14378">
        <ele>2775.8000488281</ele>
        <time>2020-12-16T12:31:21.000Z</time>
      </trkpt>
      <trkpt lat="45.29633" lon="6.14378">
        <ele>2775.6000976562</ele>
        <time>2020-12-16T12:31:29.000Z</time>
      </trkpt>
      <trkpt lat="45.29631" lon="6.14378">
        <ele>2775</ele>
        <time>2020-12-16T12:31:41.000Z</time>
      </trkpt>
      <trkpt lat="45.29631" lon="6.14378">
        <ele>2774.8000488281</ele>
        <time>2020-12-16T12:31:42.000Z</time>
      </trkpt>
      <trkpt lat="45.29631" lon="6.14377">
        <ele>2774.6000976562</ele>
        <time>2020-12-16T12:31:49.000Z</time>
      </trkpt>
      <trkpt lat="45.29631" lon="6.14377">
        <ele>2774.6000976562</ele>
        <time>2020-12-16T12:31:56.000Z</time>
      </trkpt>
      <trkpt lat="45.29631" lon="6.14377">
        <ele>2774.8000488281</ele>
        <time>2020-12-16T12:32:04.000Z</time>
      </trkpt>
      <trkpt lat="45.29631" lon="6.14377">
        <ele>2775</ele>
        <time>2020-12-16T12:32:14.000Z</time>
      </trkpt>
      <trkpt lat="45.29631" lon="6.14377">
        <ele>2775.1999511719</ele>
        <time>2020-12-16T12:32:20.000Z</time>
      </trkpt>
      <trkpt lat="45.2963" lon="6.14376">
        <ele>2775.1999511719</ele>
        <time>2020-12-16T12:32:37.000Z</time>
      </trkpt>
      <trkpt lat="45.2963" lon="6.14376">
        <ele>2775.3999023438</ele>
        <time>2020-12-16T12:32:51.000Z</time>
      </trkpt>
      <trkpt lat="45.29629" lon="6.14375">
        <ele>2775.3999023438</ele>
        <time>2020-12-16T12:33:07.000Z</time>
      </trkpt>
      <trkpt lat="45.29629" lon="6.14375">
        <ele>2775.1999511719</ele>
        <time>2020-12-16T12:33:20.000Z</time>
      </trkpt>
      <trkpt lat="45.29629" lon="6.14375">
        <ele>2775.1999511719</ele>
        <time>2020-12-16T12:33:37.000Z</time>
      </trkpt>
      <trkpt lat="45.29629" lon="6.14374">
        <ele>2775.1999511719</ele>
        <time>2020-12-16T12:33:51.000Z</time>
      </trkpt>
      <trkpt lat="45.29629" lon="6.14374">
        <ele>2774.8000488281</ele>
        <time>2020-12-16T12:34:05.000Z</time>
      </trkpt>
      <trkpt lat="45.29629" lon="6.14374">
        <ele>2774.6000976562</ele>
        <time>2020-12-16T12:34:15.000Z</time>
      </trkpt>
      <trkpt lat="45.29627" lon="6.14373">
        <ele>2774.1999511719</ele>
        <time>2020-12-16T12:34:25.000Z</time>
      </trkpt>
      <trkpt lat="45.29627" lon="6.14373">
        <ele>2774.1999511719</ele>
        <time>2020-12-16T12:34:37.000Z</time>
      </trkpt>
      <trkpt lat="45.29627" lon="6.14373">
        <ele>2774.3999023438</ele>
        <time>2020-12-16T12:34:51.000Z</time>
      </trkpt>
      <trkpt lat="45.29624" lon="6.1437">
        <ele>2774.3999023438</ele>
        <time>2020-12-16T12:35:05.000Z</time>
      </trkpt>
      <trkpt lat="45.29624" lon="6.1437">
        <ele>2774.1999511719</ele>
        <time>2020-12-16T12:35:24.000Z</time>
      </trkpt>
      <trkpt lat="45.29624" lon="6.1437">
        <ele>2774.1999511719</ele>
        <time>2020-12-16T12:35:39.000Z</time>
      </trkpt>
      <trkpt lat="45.29623" lon="6.14369">
        <ele>2774.1999511719</ele>
        <time>2020-12-16T12:35:56.000Z</time>
      </trkpt>
      <trkpt lat="45.29623" lon="6.14369">
        <ele>2774</ele>
        <time>2020-12-16T12:36:13.000Z</time>
      </trkpt>
      <trkpt lat="45.29621" lon="6.14368">
        <ele>2774</ele>
        <time>2020-12-16T12:36:27.000Z</time>
      </trkpt>
      <trkpt lat="45.29621" lon="6.14368">
        <ele>2774</ele>
        <time>2020-12-16T12:36:42.000Z</time>
      </trkpt>
      <trkpt lat="45.29621" lon="6.14368">
        <ele>2774.1999511719</ele>
        <time>2020-12-16T12:37:01.000Z</time>
      </trkpt>
      <trkpt lat="45.29618" lon="6.14364">
        <ele>2774.1999511719</ele>
        <time>2020-12-16T12:37:16.000Z</time>
      </trkpt>
      <trkpt lat="45.29618" lon="6.14364">
        <ele>2774.1999511719</ele>
        <time>2020-12-16T12:37:36.000Z</time>
      </trkpt>
      <trkpt lat="45.29615" lon="6.14362">
        <ele>2774</ele>
        <time>2020-12-16T12:37:52.000Z</time>
      </trkpt>
      <trkpt lat="45.29615" lon="6.14362">
        <ele>2774.1999511719</ele>
        <time>2020-12-16T12:38:03.000Z</time>
      </trkpt>
      <trkpt lat="45.29615" lon="6.14362">
        <ele>2774.3999023438</ele>
        <time>2020-12-16T12:38:20.000Z</time>
      </trkpt>
      <trkpt lat="45.29611" lon="6.14357">
        <ele>2774.1999511719</ele>
        <time>2020-12-16T12:38:39.000Z</time>
      </trkpt>
      <trkpt lat="45.29611" lon="6.14357">
        <ele>2774</ele>
        <time>2020-12-16T12:38:53.000Z</time>
      </trkpt>
      <trkpt lat="45.29611" lon="6.14357">
        <ele>2773.8000488281</ele>
        <time>2020-12-16T12:38:55.000Z</time>
      </trkpt>
      <trkpt lat="45.29609" lon="6.14355">
        <ele>2774</ele>
        <time>2020-12-16T12:39:10.000Z</time>
      </trkpt>
      <trkpt lat="45.29609" lon="6.14355">
        <ele>2774.3999023438</ele>
        <time>2020-12-16T12:39:30.000Z</time>
      </trkpt>
      <trkpt lat="45.29607" lon="6.14353">
        <ele>2774.3999023438</ele>
        <time>2020-12-16T12:39:49.000Z</time>
      </trkpt>
      <trkpt lat="45.29607" lon="6.14353">
        <ele>2774.6000976562</ele>
        <time>2020-12-16T12:40:07.000Z</time>
      </trkpt>
      <trkpt lat="45.29606" lon="6.14352">
        <ele>2774.3999023438</ele>
        <time>2020-12-16T12:40:27.000Z</time>
      </trkpt>
      <trkpt lat="45.29606" lon="6.14352">
        <ele>2774.3999023438</ele>
        <time>2020-12-16T12:40:38.000Z</time>
      </trkpt>
      <trkpt lat="45.29606" lon="6.14352">
        <ele>2774.3999023438</ele>
        <time>2020-12-16T12:40:56.000Z</time>
      </trkpt>
      <trkpt lat="45.29604" lon="6.1435">
        <ele>2774</ele>
        <time>2020-12-16T12:41:13.000Z</time>
      </trkpt>
      <trkpt lat="45.29604" lon="6.1435">
        <ele>2774</ele>
        <time>2020-12-16T12:41:27.000Z</time>
      </trkpt>
      <trkpt lat="45.29604" lon="6.1435">
        <ele>2774</ele>
        <time>2020-12-16T12:41:43.000Z</time>
      </trkpt>
      <trkpt lat="45.29604" lon="6.1435">
        <ele>2774</ele>
        <time>2020-12-16T12:42:01.000Z</time>
      </trkpt>
      <trkpt lat="45.29604" lon="6.1435">
        <ele>2774.3999023438</ele>
        <time>2020-12-16T12:42:17.000Z</time>
      </trkpt>
      <trkpt lat="45.29603" lon="6.14349">
        <ele>2774.8000488281</ele>
        <time>2020-12-16T12:42:35.000Z</time>
      </trkpt>
      <trkpt lat="45.29603" lon="6.14349">
        <ele>2775</ele>
        <time>2020-12-16T12:42:38.000Z</time>
      </trkpt>
      <trkpt lat="45.29603" lon="6.14349">
        <ele>2774.6000976562</ele>
        <time>2020-12-16T12:42:56.000Z</time>
      </trkpt>
      <trkpt lat="45.29601" lon="6.14348">
        <ele>2774.8000488281</ele>
        <time>2020-12-16T12:43:17.000Z</time>
      </trkpt>
      <trkpt lat="45.29601" lon="6.14348">
        <ele>2774.8000488281</ele>
        <time>2020-12-16T12:43:34.000Z</time>
      </trkpt>
      <trkpt lat="45.29598" lon="6.14346">
        <ele>2774.6000976562</ele>
        <time>2020-12-16T12:43:43.000Z</time>
      </trkpt>
      <trkpt lat="45.29596" lon="6.14345">
        <ele>2773.3999023438</ele>
        <time>2020-12-16T12:43:47.000Z</time>
      </trkpt>
      <trkpt lat="45.29596" lon="6.14345">
        <ele>2774.8000488281</ele>
        <time>2020-12-16T12:43:51.000Z</time>
      </trkpt>
      <trkpt lat="45.29594" lon="6.14343">
        <ele>2775.6000976562</ele>
        <time>2020-12-16T12:43:58.000Z</time>
      </trkpt>
      <trkpt lat="45.29594" lon="6.14343">
        <ele>2775.6000976562</ele>
        <time>2020-12-16T12:44:08.000Z</time>
      </trkpt>
      <trkpt lat="45.29594" lon="6.14343">
        <ele>2775.8000488281</ele>
        <time>2020-12-16T12:44:16.000Z</time>
      </trkpt>
      <trkpt lat="45.29594" lon="6.14343">
        <ele>2774.8000488281</ele>
        <time>2020-12-16T12:44:20.000Z</time>
      </trkpt>
      <trkpt lat="45.29594" lon="6.14343">
        <ele>2774.6000976562</ele>
        <time>2020-12-16T12:44:21.000Z</time>
      </trkpt>
      <trkpt lat="45.29594" lon="6.14343">
        <ele>2774</ele>
        <time>2020-12-16T12:44:35.000Z</time>
      </trkpt>
      <trkpt lat="45.29594" lon="6.14342">
        <ele>2774</ele>
        <time>2020-12-16T12:44:47.000Z</time>
      </trkpt>
      <trkpt lat="45.29594" lon="6.14342">
        <ele>2773.8000488281</ele>
        <time>2020-12-16T12:45:07.000Z</time>
      </trkpt>
      <trkpt lat="45.29594" lon="6.14342">
        <ele>2773.6000976562</ele>
        <time>2020-12-16T12:45:14.000Z</time>
      </trkpt>
      <trkpt lat="45.29592" lon="6.14343">
        <ele>2773.3999023438</ele>
        <time>2020-12-16T12:45:22.000Z</time>
      </trkpt>
      <trkpt lat="45.29592" lon="6.14343">
        <ele>2773.6000976562</ele>
        <time>2020-12-16T12:45:39.000Z</time>
      </trkpt>
      <trkpt lat="45.29592" lon="6.14343">
        <ele>2773.6000976562</ele>
        <time>2020-12-16T12:45:54.000Z</time>
      </trkpt>
      <trkpt lat="45.2959" lon="6.1434">
        <ele>2773.6000976562</ele>
        <time>2020-12-16T12:46:05.000Z</time>
      </trkpt>
      <trkpt lat="45.2959" lon="6.14338">
        <ele>2774</ele>
        <time>2020-12-16T12:46:12.000Z</time>
      </trkpt>
      <trkpt lat="45.2959" lon="6.14338">
        <ele>2774.6000976562</ele>
        <time>2020-12-16T12:46:14.000Z</time>
      </trkpt>
      <trkpt lat="45.2959" lon="6.14338">
        <ele>2774.8000488281</ele>
        <time>2020-12-16T12:46:23.000Z</time>
      </trkpt>
      <trkpt lat="45.2959" lon="6.14338">
        <ele>2774.6000976562</ele>
        <time>2020-12-16T12:46:33.000Z</time>
      </trkpt>
      <trkpt lat="45.2959" lon="6.14338">
        <ele>2775</ele>
        <time>2020-12-16T12:46:43.000Z</time>
      </trkpt>
      <trkpt lat="45.2959" lon="6.14338">
        <ele>2774.8000488281</ele>
        <time>2020-12-16T12:46:56.000Z</time>
      </trkpt>
      <trkpt lat="45.2959" lon="6.14338">
        <ele>2774.6000976562</ele>
        <time>2020-12-16T12:47:04.000Z</time>
      </trkpt>
      <trkpt lat="45.2959" lon="6.14338">
        <ele>2774.3999023438</ele>
        <time>2020-12-16T12:47:18.000Z</time>
      </trkpt>
      <trkpt lat="45.2959" lon="6.14338">
        <ele>2774.6000976562</ele>
        <time>2020-12-16T12:47:31.000Z</time>
      </trkpt>
      <trkpt lat="45.2959" lon="6.14338">
        <ele>2775</ele>
        <time>2020-12-16T12:47:40.000Z</time>
      </trkpt>
      <trkpt lat="45.2959" lon="6.14338">
        <ele>2774.8000488281</ele>
        <time>2020-12-16T12:47:48.000Z</time>
      </trkpt>
      <trkpt lat="45.2959" lon="6.14338">
        <ele>2774.8000488281</ele>
        <time>2020-12-16T12:47:58.000Z</time>
      </trkpt>
      <trkpt lat="45.2959" lon="6.14338">
        <ele>2775</ele>
        <time>2020-12-16T12:48:07.000Z</time>
      </trkpt>
      <trkpt lat="45.2959" lon="6.14338">
        <ele>2775</ele>
        <time>2020-12-16T12:48:15.000Z</time>
      </trkpt>
      <trkpt lat="45.2959" lon="6.14338">
        <ele>2775</ele>
        <time>2020-12-16T12:48:26.000Z</time>
      </trkpt>
      <trkpt lat="45.2959" lon="6.14338">
        <ele>2774.6000976562</ele>
        <time>2020-12-16T12:48:39.000Z</time>
      </trkpt>
      <trkpt lat="45.2959" lon="6.14338">
        <ele>2775</ele>
        <time>2020-12-16T12:48:54.000Z</time>
      </trkpt>
      <trkpt lat="45.2959" lon="6.14338">
        <ele>2775.3999023438</ele>
        <time>2020-12-16T12:49:07.000Z</time>
      </trkpt>
      <trkpt lat="45.2959" lon="6.14338">
        <ele>2775.1999511719</ele>
        <time>2020-12-16T12:49:14.000Z</time>
      </trkpt>
      <trkpt lat="45.2959" lon="6.14338">
        <ele>2775.3999023438</ele>
        <time>2020-12-16T12:49:26.000Z</time>
      </trkpt>
      <trkpt lat="45.2959" lon="6.14338">
        <ele>2775.1999511719</ele>
        <time>2020-12-16T12:49:38.000Z</time>
      </trkpt>
      <trkpt lat="45.2959" lon="6.14339">
        <ele>2775.1999511719</ele>
        <time>2020-12-16T12:49:43.000Z</time>
      </trkpt>
      <trkpt lat="45.2959" lon="6.14339">
        <ele>2775.1999511719</ele>
        <time>2020-12-16T12:49:50.000Z</time>
      </trkpt>
      <trkpt lat="45.2959" lon="6.14339">
        <ele>2775.1999511719</ele>
        <time>2020-12-16T12:50:02.000Z</time>
      </trkpt>
      <trkpt lat="45.2959" lon="6.1434">
        <ele>2775.1999511719</ele>
        <time>2020-12-16T12:50:07.000Z</time>
      </trkpt>
      <trkpt lat="45.29589" lon="6.14338">
        <ele>2775.3999023438</ele>
        <time>2020-12-16T12:50:17.000Z</time>
      </trkpt>
      <trkpt lat="45.29587" lon="6.14333">
        <ele>2775.1999511719</ele>
        <time>2020-12-16T12:50:23.000Z</time>
      </trkpt>
      <trkpt lat="45.29587" lon="6.14333">
        <ele>2775.1999511719</ele>
        <time>2020-12-16T12:50:36.000Z</time>
      </trkpt>
      <trkpt lat="45.29587" lon="6.14333">
        <ele>2775</ele>
        <time>2020-12-16T12:50:47.000Z</time>
      </trkpt>
      <trkpt lat="45.29587" lon="6.14329">
        <ele>2775.3999023438</ele>
        <time>2020-12-16T12:50:53.000Z</time>
      </trkpt>
      <trkpt lat="45.29587" lon="6.14328">
        <ele>2775.3999023438</ele>
        <time>2020-12-16T12:50:59.000Z</time>
      </trkpt>
      <trkpt lat="45.29586" lon="6.14328">
        <ele>2775.1999511719</ele>
        <time>2020-12-16T12:51:08.000Z</time>
      </trkpt>
      <trkpt lat="45.29586" lon="6.14328">
        <ele>2775.8000488281</ele>
        <time>2020-12-16T12:51:13.000Z</time>
      </trkpt>
      <trkpt lat="45.29586" lon="6.14328">
        <ele>2775.6000976562</ele>
        <time>2020-12-16T12:51:20.000Z</time>
      </trkpt>
      <trkpt lat="45.29586" lon="6.14329">
        <ele>2775.6000976562</ele>
        <time>2020-12-16T12:51:28.000Z</time>
      </trkpt>
      <trkpt lat="45.29586" lon="6.14327">
        <ele>2775.8000488281</ele>
        <time>2020-12-16T12:51:33.000Z</time>
      </trkpt>
      <trkpt lat="45.29586" lon="6.14327">
        <ele>2775.8000488281</ele>
        <time>2020-12-16T12:51:41.000Z</time>
      </trkpt>
      <trkpt lat="45.29586" lon="6.14327">
        <ele>2775.3999023438</ele>
        <time>2020-12-16T12:51:51.000Z</time>
      </trkpt>
      <trkpt lat="45.29586" lon="6.14327">
        <ele>2775</ele>
        <time>2020-12-16T12:52:04.000Z</time>
      </trkpt>
      <trkpt lat="45.29586" lon="6.14325">
        <ele>2775.3999023438</ele>
        <time>2020-12-16T12:52:13.000Z</time>
      </trkpt>
      <trkpt lat="45.29584" lon="6.14324">
        <ele>2775.3999023438</ele>
        <time>2020-12-16T12:52:23.000Z</time>
      </trkpt>
      <trkpt lat="45.29581" lon="6.14326">
        <ele>2775.1999511719</ele>
        <time>2020-12-16T12:52:26.000Z</time>
      </trkpt>
      <trkpt lat="45.29579" lon="6.14328">
        <ele>2775</ele>
        <time>2020-12-16T12:52:27.000Z</time>
      </trkpt>
      <trkpt lat="45.29577" lon="6.14327">
        <ele>2774.6000976562</ele>
        <time>2020-12-16T12:52:28.000Z</time>
      </trkpt>
      <trkpt lat="45.2957" lon="6.14323">
        <ele>2773.6000976562</ele>
        <time>2020-12-16T12:52:30.000Z</time>
      </trkpt>
      <trkpt lat="45.29567" lon="6.14325">
        <ele>2771.3999023438</ele>
        <time>2020-12-16T12:52:32.000Z</time>
      </trkpt>
      <trkpt lat="45.29564" lon="6.14324">
        <ele>2769.8000488281</ele>
        <time>2020-12-16T12:52:33.000Z</time>
      </trkpt>
      <trkpt lat="45.2956" lon="6.14323">
        <ele>2768.1999511719</ele>
        <time>2020-12-16T12:52:34.000Z</time>
      </trkpt>
      <trkpt lat="45.29556" lon="6.14323">
        <ele>2764.1999511719</ele>
        <time>2020-12-16T12:52:35.000Z</time>
      </trkpt>
      <trkpt lat="45.29555" lon="6.14324">
        <ele>2762</ele>
        <time>2020-12-16T12:52:36.000Z</time>
      </trkpt>
      <trkpt lat="45.29554" lon="6.14324">
        <ele>2760</ele>
        <time>2020-12-16T12:52:37.000Z</time>
      </trkpt>
      <trkpt lat="45.29552" lon="6.14325">
        <ele>2758</ele>
        <time>2020-12-16T12:52:38.000Z</time>
      </trkpt>
      <trkpt lat="45.29551" lon="6.14328">
        <ele>2755.6000976562</ele>
        <time>2020-12-16T12:52:39.000Z</time>
      </trkpt>
      <trkpt lat="45.29549" lon="6.14334">
        <ele>2753.1999511719</ele>
        <time>2020-12-16T12:52:40.000Z</time>
      </trkpt>
      <trkpt lat="45.29547" lon="6.1434">
        <ele>2750.8000488281</ele>
        <time>2020-12-16T12:52:41.000Z</time>
      </trkpt>
      <trkpt lat="45.29547" lon="6.14342">
        <ele>2748.8000488281</ele>
        <time>2020-12-16T12:52:42.000Z</time>
      </trkpt>
      <trkpt lat="45.29547" lon="6.14344">
        <ele>2747</ele>
        <time>2020-12-16T12:52:43.000Z</time>
      </trkpt>
      <trkpt lat="45.29547" lon="6.14344">
        <ele>2745.6000976562</ele>
        <time>2020-12-16T12:52:44.000Z</time>
      </trkpt>
      <trkpt lat="45.29547" lon="6.14344">
        <ele>2744.3999023438</ele>
        <time>2020-12-16T12:52:45.000Z</time>
      </trkpt>
      <trkpt lat="45.29546" lon="6.14344">
        <ele>2742.8000488281</ele>
        <time>2020-12-16T12:52:47.000Z</time>
      </trkpt>
      <trkpt lat="45.29546" lon="6.14348">
        <ele>2742.1999511719</ele>
        <time>2020-12-16T12:52:49.000Z</time>
      </trkpt>
      <trkpt lat="45.29546" lon="6.1435">
        <ele>2741.6000976562</ele>
        <time>2020-12-16T12:52:52.000Z</time>
      </trkpt>
      <trkpt lat="45.29546" lon="6.1435">
        <ele>2740.6000976562</ele>
        <time>2020-12-16T12:52:55.000Z</time>
      </trkpt>
      <trkpt lat="45.29546" lon="6.1435">
        <ele>2740.1999511719</ele>
        <time>2020-12-16T12:52:56.000Z</time>
      </trkpt>
      <trkpt lat="45.29546" lon="6.1435">
        <ele>2739.8000488281</ele>
        <time>2020-12-16T12:53:06.000Z</time>
      </trkpt>
      <trkpt lat="45.29546" lon="6.1435">
        <ele>2739.8000488281</ele>
        <time>2020-12-16T12:53:22.000Z</time>
      </trkpt>
      <trkpt lat="45.29546" lon="6.14354">
        <ele>2739.6000976562</ele>
        <time>2020-12-16T12:53:32.000Z</time>
      </trkpt>
      <trkpt lat="45.29546" lon="6.14354">
        <ele>2739.6000976562</ele>
        <time>2020-12-16T12:53:42.000Z</time>
      </trkpt>
      <trkpt lat="45.29546" lon="6.14354">
        <ele>2739.6000976562</ele>
        <time>2020-12-16T12:53:55.000Z</time>
      </trkpt>
      <trkpt lat="45.29546" lon="6.14355">
        <ele>2740</ele>
        <time>2020-12-16T12:54:11.000Z</time>
      </trkpt>
      <trkpt lat="45.29546" lon="6.14355">
        <ele>2739.8000488281</ele>
        <time>2020-12-16T12:54:20.000Z</time>
      </trkpt>
      <trkpt lat="45.29546" lon="6.14355">
        <ele>2739.8000488281</ele>
        <time>2020-12-16T12:54:32.000Z</time>
      </trkpt>
      <trkpt lat="45.29546" lon="6.14355">
        <ele>2739.6000976562</ele>
        <time>2020-12-16T12:54:41.000Z</time>
      </trkpt>
      <trkpt lat="45.29546" lon="6.14355">
        <ele>2739.3999023438</ele>
        <time>2020-12-16T12:54:43.000Z</time>
      </trkpt>
      <trkpt lat="45.29544" lon="6.14352">
        <ele>2739.3999023438</ele>
        <time>2020-12-16T12:54:45.000Z</time>
      </trkpt>
      <trkpt lat="45.29543" lon="6.14351">
        <ele>2739.1999511719</ele>
        <time>2020-12-16T12:54:46.000Z</time>
      </trkpt>
      <trkpt lat="45.29537" lon="6.14355">
        <ele>2738.1999511719</ele>
        <time>2020-12-16T12:54:49.000Z</time>
      </trkpt>
      <trkpt lat="45.29532" lon="6.14357">
        <ele>2736.6000976562</ele>
        <time>2020-12-16T12:54:51.000Z</time>
      </trkpt>
      <trkpt lat="45.29529" lon="6.14361">
        <ele>2735.1999511719</ele>
        <time>2020-12-16T12:54:52.000Z</time>
      </trkpt>
      <trkpt lat="45.29526" lon="6.14365">
        <ele>2733.6000976562</ele>
        <time>2020-12-16T12:54:53.000Z</time>
      </trkpt>
      <trkpt lat="45.29524" lon="6.14367">
        <ele>2732</ele>
        <time>2020-12-16T12:54:54.000Z</time>
      </trkpt>
      <trkpt lat="45.29522" lon="6.14368">
        <ele>2730.1999511719</ele>
        <time>2020-12-16T12:54:55.000Z</time>
      </trkpt>
      <trkpt lat="45.2952" lon="6.1437">
        <ele>2728.6000976562</ele>
        <time>2020-12-16T12:54:56.000Z</time>
      </trkpt>
      <trkpt lat="45.29521" lon="6.14368">
        <ele>2727.1999511719</ele>
        <time>2020-12-16T12:54:57.000Z</time>
      </trkpt>
      <trkpt lat="45.2952" lon="6.14368">
        <ele>2725.8000488281</ele>
        <time>2020-12-16T12:54:58.000Z</time>
      </trkpt>
      <trkpt lat="45.2952" lon="6.14369">
        <ele>2723.6000976562</ele>
        <time>2020-12-16T12:54:59.000Z</time>
      </trkpt>
      <trkpt lat="45.29518" lon="6.14371">
        <ele>2722.3999023438</ele>
        <time>2020-12-16T12:55:00.000Z</time>
      </trkpt>
      <trkpt lat="45.29516" lon="6.14371">
        <ele>2721</ele>
        <time>2020-12-16T12:55:01.000Z</time>
      </trkpt>
      <trkpt lat="45.29513" lon="6.14369">
        <ele>2719.3999023438</ele>
        <time>2020-12-16T12:55:02.000Z</time>
      </trkpt>
      <trkpt lat="45.29511" lon="6.14368">
        <ele>2717.3999023438</ele>
        <time>2020-12-16T12:55:03.000Z</time>
      </trkpt>
      <trkpt lat="45.29509" lon="6.14367">
        <ele>2715.3999023438</ele>
        <time>2020-12-16T12:55:04.000Z</time>
      </trkpt>
      <trkpt lat="45.29508" lon="6.14365">
        <ele>2713.1999511719</ele>
        <time>2020-12-16T12:55:05.000Z</time>
      </trkpt>
      <trkpt lat="45.29507" lon="6.14365">
        <ele>2710.8000488281</ele>
        <time>2020-12-16T12:55:06.000Z</time>
      </trkpt>
      <trkpt lat="45.29505" lon="6.14361">
        <ele>2708.1999511719</ele>
        <time>2020-12-16T12:55:07.000Z</time>
      </trkpt>
      <trkpt lat="45.29502" lon="6.14356">
        <ele>2705.6000976562</ele>
        <time>2020-12-16T12:55:08.000Z</time>
      </trkpt>
      <trkpt lat="45.295" lon="6.14352">
        <ele>2703.3999023438</ele>
        <time>2020-12-16T12:55:09.000Z</time>
      </trkpt>
      <trkpt lat="45.29496" lon="6.14351">
        <ele>2700.8000488281</ele>
        <time>2020-12-16T12:55:10.000Z</time>
      </trkpt>
      <trkpt lat="45.29492" lon="6.14351">
        <ele>2698.1999511719</ele>
        <time>2020-12-16T12:55:11.000Z</time>
      </trkpt>
      <trkpt lat="45.29487" lon="6.14351">
        <ele>2695.3999023438</ele>
        <time>2020-12-16T12:55:12.000Z</time>
      </trkpt>
      <trkpt lat="45.29481" lon="6.14354">
        <ele>2693</ele>
        <time>2020-12-16T12:55:13.000Z</time>
      </trkpt>
      <trkpt lat="45.29475" lon="6.14356">
        <ele>2690.8000488281</ele>
        <time>2020-12-16T12:55:14.000Z</time>
      </trkpt>
      <trkpt lat="45.29471" lon="6.14355">
        <ele>2688.8000488281</ele>
        <time>2020-12-16T12:55:15.000Z</time>
      </trkpt>
      <trkpt lat="45.29468" lon="6.14356">
        <ele>2687</ele>
        <time>2020-12-16T12:55:16.000Z</time>
      </trkpt>
      <trkpt lat="45.29466" lon="6.14356">
        <ele>2685.3999023438</ele>
        <time>2020-12-16T12:55:17.000Z</time>
      </trkpt>
      <trkpt lat="45.29464" lon="6.14356">
        <ele>2684</ele>
        <time>2020-12-16T12:55:18.000Z</time>
      </trkpt>
      <trkpt lat="45.29461" lon="6.14357">
        <ele>2682.6000976562</ele>
        <time>2020-12-16T12:55:19.000Z</time>
      </trkpt>
      <trkpt lat="45.29461" lon="6.14357">
        <ele>2681.3999023438</ele>
        <time>2020-12-16T12:55:20.000Z</time>
      </trkpt>
      <trkpt lat="45.29461" lon="6.14357">
        <ele>2680</ele>
        <time>2020-12-16T12:55:22.000Z</time>
      </trkpt>
      <trkpt lat="45.29461" lon="6.14357">
        <ele>2679.1999511719</ele>
        <time>2020-12-16T12:55:31.000Z</time>
      </trkpt>
      <trkpt lat="45.29455" lon="6.14359">
        <ele>2679.1999511719</ele>
        <time>2020-12-16T12:55:38.000Z</time>
      </trkpt>
      <trkpt lat="45.29445" lon="6.14366">
        <ele>2679</ele>
        <time>2020-12-16T12:55:40.000Z</time>
      </trkpt>
      <trkpt lat="45.29442" lon="6.14369">
        <ele>2679</ele>
        <time>2020-12-16T12:55:41.000Z</time>
      </trkpt>
      <trkpt lat="45.29433" lon="6.14371">
        <ele>2678.3999023438</ele>
        <time>2020-12-16T12:55:43.000Z</time>
      </trkpt>
      <trkpt lat="45.29428" lon="6.1437">
        <ele>2677.6000976562</ele>
        <time>2020-12-16T12:55:44.000Z</time>
      </trkpt>
      <trkpt lat="45.29424" lon="6.1437">
        <ele>2676.3999023438</ele>
        <time>2020-12-16T12:55:45.000Z</time>
      </trkpt>
      <trkpt lat="45.29419" lon="6.14372">
        <ele>2674.8000488281</ele>
        <time>2020-12-16T12:55:46.000Z</time>
      </trkpt>
      <trkpt lat="45.29415" lon="6.1437">
        <ele>2673</ele>
        <time>2020-12-16T12:55:47.000Z</time>
      </trkpt>
      <trkpt lat="45.29409" lon="6.14374">
        <ele>2669.6000976562</ele>
        <time>2020-12-16T12:55:48.000Z</time>
      </trkpt>
      <trkpt lat="45.29404" lon="6.14376">
        <ele>2667.8000488281</ele>
        <time>2020-12-16T12:55:49.000Z</time>
      </trkpt>
      <trkpt lat="45.29398" lon="6.14378">
        <ele>2666</ele>
        <time>2020-12-16T12:55:50.000Z</time>
      </trkpt>
      <trkpt lat="45.29391" lon="6.14379">
        <ele>2664.3999023438</ele>
        <time>2020-12-16T12:55:51.000Z</time>
      </trkpt>
      <trkpt lat="45.29386" lon="6.14374">
        <ele>2662.6000976562</ele>
        <time>2020-12-16T12:55:52.000Z</time>
      </trkpt>
      <trkpt lat="45.29382" lon="6.14369">
        <ele>2660.6000976562</ele>
        <time>2020-12-16T12:55:53.000Z</time>
      </trkpt>
      <trkpt lat="45.29378" lon="6.14364">
        <ele>2658.3999023438</ele>
        <time>2020-12-16T12:55:54.000Z</time>
      </trkpt>
      <trkpt lat="45.29375" lon="6.14364">
        <ele>2656.1999511719</ele>
        <time>2020-12-16T12:55:55.000Z</time>
      </trkpt>
      <trkpt lat="45.29372" lon="6.1436">
        <ele>2654.3999023438</ele>
        <time>2020-12-16T12:55:56.000Z</time>
      </trkpt>
      <trkpt lat="45.2937" lon="6.14358">
        <ele>2652.6000976562</ele>
        <time>2020-12-16T12:55:57.000Z</time>
      </trkpt>
      <trkpt lat="45.29369" lon="6.14357">
        <ele>2651.1999511719</ele>
        <time>2020-12-16T12:55:58.000Z</time>
      </trkpt>
      <trkpt lat="45.29366" lon="6.14355">
        <ele>2649.6000976562</ele>
        <time>2020-12-16T12:55:59.000Z</time>
      </trkpt>
      <trkpt lat="45.29363" lon="6.14356">
        <ele>2647.8000488281</ele>
        <time>2020-12-16T12:56:00.000Z</time>
      </trkpt>
      <trkpt lat="45.29359" lon="6.14351">
        <ele>2646</ele>
        <time>2020-12-16T12:56:01.000Z</time>
      </trkpt>
      <trkpt lat="45.29354" lon="6.14346">
        <ele>2643.8000488281</ele>
        <time>2020-12-16T12:56:02.000Z</time>
      </trkpt>
      <trkpt lat="45.29349" lon="6.14343">
        <ele>2641.8000488281</ele>
        <time>2020-12-16T12:56:03.000Z</time>
      </trkpt>
      <trkpt lat="45.29342" lon="6.14345">
        <ele>2639.6000976562</ele>
        <time>2020-12-16T12:56:04.000Z</time>
      </trkpt>
      <trkpt lat="45.29335" lon="6.1435">
        <ele>2637.1999511719</ele>
        <time>2020-12-16T12:56:05.000Z</time>
      </trkpt>
      <trkpt lat="45.2933" lon="6.14356">
        <ele>2635.1999511719</ele>
        <time>2020-12-16T12:56:06.000Z</time>
      </trkpt>
      <trkpt lat="45.29324" lon="6.14362">
        <ele>2633.1999511719</ele>
        <time>2020-12-16T12:56:07.000Z</time>
      </trkpt>
      <trkpt lat="45.29319" lon="6.1437">
        <ele>2631.1999511719</ele>
        <time>2020-12-16T12:56:08.000Z</time>
      </trkpt>
      <trkpt lat="45.29317" lon="6.14381">
        <ele>2629.1999511719</ele>
        <time>2020-12-16T12:56:09.000Z</time>
      </trkpt>
      <trkpt lat="45.29316" lon="6.14386">
        <ele>2627.1999511719</ele>
        <time>2020-12-16T12:56:10.000Z</time>
      </trkpt>
      <trkpt lat="45.29314" lon="6.1439">
        <ele>2625.3999023438</ele>
        <time>2020-12-16T12:56:11.000Z</time>
      </trkpt>
      <trkpt lat="45.29311" lon="6.14392">
        <ele>2622</ele>
        <time>2020-12-16T12:56:12.000Z</time>
      </trkpt>
      <trkpt lat="45.29311" lon="6.14392">
        <ele>2620.6000976562</ele>
        <time>2020-12-16T12:56:13.000Z</time>
      </trkpt>
      <trkpt lat="45.29311" lon="6.14392">
        <ele>2619</ele>
        <time>2020-12-16T12:56:15.000Z</time>
      </trkpt>
      <trkpt lat="45.29311" lon="6.14392">
        <ele>2618</ele>
        <time>2020-12-16T12:56:19.000Z</time>
      </trkpt>
      <trkpt lat="45.29311" lon="6.14392">
        <ele>2617.8000488281</ele>
        <time>2020-12-16T12:56:26.000Z</time>
      </trkpt>
      <trkpt lat="45.29308" lon="6.14397">
        <ele>2617.8000488281</ele>
        <time>2020-12-16T12:56:33.000Z</time>
      </trkpt>
      <trkpt lat="45.29306" lon="6.14402">
        <ele>2617.8000488281</ele>
        <time>2020-12-16T12:56:34.000Z</time>
      </trkpt>
      <trkpt lat="45.29299" lon="6.14416">
        <ele>2617.6000976562</ele>
        <time>2020-12-16T12:56:38.000Z</time>
      </trkpt>
      <trkpt lat="45.29292" lon="6.14424">
        <ele>2616.8000488281</ele>
        <time>2020-12-16T12:56:40.000Z</time>
      </trkpt>
      <trkpt lat="45.29288" lon="6.14425">
        <ele>2615.8000488281</ele>
        <time>2020-12-16T12:56:41.000Z</time>
      </trkpt>
      <trkpt lat="45.29285" lon="6.1443">
        <ele>2614.8000488281</ele>
        <time>2020-12-16T12:56:42.000Z</time>
      </trkpt>
      <trkpt lat="45.29283" lon="6.14434">
        <ele>2613.8000488281</ele>
        <time>2020-12-16T12:56:43.000Z</time>
      </trkpt>
      <trkpt lat="45.2928" lon="6.14436">
        <ele>2612.8000488281</ele>
        <time>2020-12-16T12:56:44.000Z</time>
      </trkpt>
      <trkpt lat="45.29279" lon="6.14435">
        <ele>2612</ele>
        <time>2020-12-16T12:56:45.000Z</time>
      </trkpt>
      <trkpt lat="45.29274" lon="6.14433">
        <ele>2610.1999511719</ele>
        <time>2020-12-16T12:56:47.000Z</time>
      </trkpt>
      <trkpt lat="45.2927" lon="6.14432">
        <ele>2609</ele>
        <time>2020-12-16T12:56:48.000Z</time>
      </trkpt>
      <trkpt lat="45.29267" lon="6.14431">
        <ele>2607.6000976562</ele>
        <time>2020-12-16T12:56:49.000Z</time>
      </trkpt>
      <trkpt lat="45.29266" lon="6.14429">
        <ele>2606</ele>
        <time>2020-12-16T12:56:50.000Z</time>
      </trkpt>
      <trkpt lat="45.29262" lon="6.1443">
        <ele>2604.6000976562</ele>
        <time>2020-12-16T12:56:51.000Z</time>
      </trkpt>
      <trkpt lat="45.29257" lon="6.14432">
        <ele>2602.8000488281</ele>
        <time>2020-12-16T12:56:52.000Z</time>
      </trkpt>
      <trkpt lat="45.29253" lon="6.14435">
        <ele>2601.1999511719</ele>
        <time>2020-12-16T12:56:53.000Z</time>
      </trkpt>
      <trkpt lat="45.2925" lon="6.14434">
        <ele>2599.3999023438</ele>
        <time>2020-12-16T12:56:54.000Z</time>
      </trkpt>
      <trkpt lat="45.2925" lon="6.14432">
        <ele>2597.8000488281</ele>
        <time>2020-12-16T12:56:55.000Z</time>
      </trkpt>
      <trkpt lat="45.29246" lon="6.14435">
        <ele>2596.1999511719</ele>
        <time>2020-12-16T12:56:56.000Z</time>
      </trkpt>
      <trkpt lat="45.29243" lon="6.14439">
        <ele>2594.6000976562</ele>
        <time>2020-12-16T12:56:57.000Z</time>
      </trkpt>
      <trkpt lat="45.29243" lon="6.14437">
        <ele>2593</ele>
        <time>2020-12-16T12:56:58.000Z</time>
      </trkpt>
      <trkpt lat="45.29242" lon="6.14432">
        <ele>2591.1999511719</ele>
        <time>2020-12-16T12:56:59.000Z</time>
      </trkpt>
      <trkpt lat="45.29241" lon="6.14428">
        <ele>2587.1999511719</ele>
        <time>2020-12-16T12:57:00.000Z</time>
      </trkpt>
      <trkpt lat="45.29241" lon="6.14424">
        <ele>2585.1999511719</ele>
        <time>2020-12-16T12:57:01.000Z</time>
      </trkpt>
      <trkpt lat="45.29239" lon="6.14423">
        <ele>2583.1999511719</ele>
        <time>2020-12-16T12:57:02.000Z</time>
      </trkpt>
      <trkpt lat="45.29237" lon="6.14423">
        <ele>2581.6000976562</ele>
        <time>2020-12-16T12:57:03.000Z</time>
      </trkpt>
      <trkpt lat="45.29235" lon="6.14418">
        <ele>2580</ele>
        <time>2020-12-16T12:57:04.000Z</time>
      </trkpt>
      <trkpt lat="45.29232" lon="6.14415">
        <ele>2578.3999023438</ele>
        <time>2020-12-16T12:57:05.000Z</time>
      </trkpt>
      <trkpt lat="45.29231" lon="6.14413">
        <ele>2576.3999023438</ele>
        <time>2020-12-16T12:57:06.000Z</time>
      </trkpt>
      <trkpt lat="45.2923" lon="6.14413">
        <ele>2574.3999023438</ele>
        <time>2020-12-16T12:57:07.000Z</time>
      </trkpt>
      <trkpt lat="45.29228" lon="6.14414">
        <ele>2572.3999023438</ele>
        <time>2020-12-16T12:57:08.000Z</time>
      </trkpt>
      <trkpt lat="45.29224" lon="6.14418">
        <ele>2570.8000488281</ele>
        <time>2020-12-16T12:57:09.000Z</time>
      </trkpt>
      <trkpt lat="45.29223" lon="6.14418">
        <ele>2569.6000976562</ele>
        <time>2020-12-16T12:57:10.000Z</time>
      </trkpt>
      <trkpt lat="45.29223" lon="6.14419">
        <ele>2568.3999023438</ele>
        <time>2020-12-16T12:57:11.000Z</time>
      </trkpt>
      <trkpt lat="45.29223" lon="6.1442">
        <ele>2567.3999023438</ele>
        <time>2020-12-16T12:57:12.000Z</time>
      </trkpt>
      <trkpt lat="45.29223" lon="6.1442">
        <ele>2566.1999511719</ele>
        <time>2020-12-16T12:57:13.000Z</time>
      </trkpt>
      <trkpt lat="45.29223" lon="6.1442">
        <ele>2565</ele>
        <time>2020-12-16T12:57:14.000Z</time>
      </trkpt>
      <trkpt lat="45.29209" lon="6.14467">
        <ele>2563.3999023438</ele>
        <time>2020-12-16T12:57:16.000Z</time>
      </trkpt>
      <trkpt lat="45.29186" lon="6.14471">
        <ele>2562.8000488281</ele>
        <time>2020-12-16T12:57:18.000Z</time>
      </trkpt>
      <trkpt lat="45.29179" lon="6.14467">
        <ele>2562.3999023438</ele>
        <time>2020-12-16T12:57:20.000Z</time>
      </trkpt>
      <trkpt lat="45.29175" lon="6.14468">
        <ele>2562.3999023438</ele>
        <time>2020-12-16T12:57:22.000Z</time>
      </trkpt>
      <trkpt lat="45.29161" lon="6.14474">
        <ele>2560.6000976562</ele>
        <time>2020-12-16T12:57:25.000Z</time>
      </trkpt>
      <trkpt lat="45.29156" lon="6.14478">
        <ele>2559.3999023438</ele>
        <time>2020-12-16T12:57:26.000Z</time>
      </trkpt>
      <trkpt lat="45.29151" lon="6.14482">
        <ele>2558</ele>
        <time>2020-12-16T12:57:27.000Z</time>
      </trkpt>
      <trkpt lat="45.29147" lon="6.14485">
        <ele>2556.1999511719</ele>
        <time>2020-12-16T12:57:28.000Z</time>
      </trkpt>
      <trkpt lat="45.29142" lon="6.14488">
        <ele>2554.3999023438</ele>
        <time>2020-12-16T12:57:29.000Z</time>
      </trkpt>
      <trkpt lat="45.29137" lon="6.14492">
        <ele>2553</ele>
        <time>2020-12-16T12:57:30.000Z</time>
      </trkpt>
      <trkpt lat="45.29133" lon="6.14494">
        <ele>2552</ele>
        <time>2020-12-16T12:57:31.000Z</time>
      </trkpt>
      <trkpt lat="45.29126" lon="6.145">
        <ele>2550.1999511719</ele>
        <time>2020-12-16T12:57:33.000Z</time>
      </trkpt>
      <trkpt lat="45.29122" lon="6.14504">
        <ele>2549.3999023438</ele>
        <time>2020-12-16T12:57:34.000Z</time>
      </trkpt>
      <trkpt lat="45.29117" lon="6.14508">
        <ele>2548.6000976562</ele>
        <time>2020-12-16T12:57:35.000Z</time>
      </trkpt>
      <trkpt lat="45.29112" lon="6.14514">
        <ele>2547.3999023438</ele>
        <time>2020-12-16T12:57:37.000Z</time>
      </trkpt>
      <trkpt lat="45.29111" lon="6.14516">
        <ele>2546.6000976562</ele>
        <time>2020-12-16T12:57:38.000Z</time>
      </trkpt>
      <trkpt lat="45.2911" lon="6.14518">
        <ele>2545.8000488281</ele>
        <time>2020-12-16T12:57:39.000Z</time>
      </trkpt>
      <trkpt lat="45.29108" lon="6.1452">
        <ele>2544.1999511719</ele>
        <time>2020-12-16T12:57:41.000Z</time>
      </trkpt>
      <trkpt lat="45.29107" lon="6.14522">
        <ele>2543.6000976562</ele>
        <time>2020-12-16T12:57:42.000Z</time>
      </trkpt>
      <trkpt lat="45.29106" lon="6.14522">
        <ele>2543.1999511719</ele>
        <time>2020-12-16T12:57:43.000Z</time>
      </trkpt>
      <trkpt lat="45.29099" lon="6.14522">
        <ele>2542</ele>
        <time>2020-12-16T12:57:46.000Z</time>
      </trkpt>
      <trkpt lat="45.29095" lon="6.14526">
        <ele>2539.3999023438</ele>
        <time>2020-12-16T12:57:48.000Z</time>
      </trkpt>
      <trkpt lat="45.29092" lon="6.14529">
        <ele>2538.1999511719</ele>
        <time>2020-12-16T12:57:49.000Z</time>
      </trkpt>
      <trkpt lat="45.29086" lon="6.14532">
        <ele>2537</ele>
        <time>2020-12-16T12:57:50.000Z</time>
      </trkpt>
      <trkpt lat="45.29081" lon="6.14536">
        <ele>2535.6000976562</ele>
        <time>2020-12-16T12:57:51.000Z</time>
      </trkpt>
      <trkpt lat="45.29077" lon="6.14539">
        <ele>2534.6000976562</ele>
        <time>2020-12-16T12:57:52.000Z</time>
      </trkpt>
      <trkpt lat="45.29075" lon="6.14541">
        <ele>2532.8000488281</ele>
        <time>2020-12-16T12:57:54.000Z</time>
      </trkpt>
      <trkpt lat="45.29074" lon="6.14544">
        <ele>2531.3999023438</ele>
        <time>2020-12-16T12:57:56.000Z</time>
      </trkpt>
      <trkpt lat="45.29073" lon="6.14544">
        <ele>2530.1999511719</ele>
        <time>2020-12-16T12:57:58.000Z</time>
      </trkpt>
      <trkpt lat="45.29072" lon="6.14545">
        <ele>2529.3999023438</ele>
        <time>2020-12-16T12:58:01.000Z</time>
      </trkpt>
      <trkpt lat="45.29072" lon="6.14547">
        <ele>2529.1999511719</ele>
        <time>2020-12-16T12:58:04.000Z</time>
      </trkpt>
      <trkpt lat="45.29072" lon="6.14545">
        <ele>2529.1999511719</ele>
        <time>2020-12-16T12:58:13.000Z</time>
      </trkpt>
      <trkpt lat="45.29072" lon="6.14542">
        <ele>2529</ele>
        <time>2020-12-16T12:58:24.000Z</time>
      </trkpt>
      <trkpt lat="45.29069" lon="6.14544">
        <ele>2529</ele>
        <time>2020-12-16T12:58:36.000Z</time>
      </trkpt>
      <trkpt lat="45.29069" lon="6.14549">
        <ele>2529</ele>
        <time>2020-12-16T12:58:49.000Z</time>
      </trkpt>
      <trkpt lat="45.29068" lon="6.14549">
        <ele>2529</ele>
        <time>2020-12-16T12:58:59.000Z</time>
      </trkpt>
      <trkpt lat="45.29068" lon="6.14549">
        <ele>2528.8000488281</ele>
        <time>2020-12-16T12:59:12.000Z</time>
      </trkpt>
      <trkpt lat="45.29068" lon="6.14549">
        <ele>2528.8000488281</ele>
        <time>2020-12-16T12:59:22.000Z</time>
      </trkpt>
      <trkpt lat="45.29068" lon="6.14549">
        <ele>2529</ele>
        <time>2020-12-16T12:59:31.000Z</time>
      </trkpt>
      <trkpt lat="45.29064" lon="6.14553">
        <ele>2528.3999023438</ele>
        <time>2020-12-16T12:59:36.000Z</time>
      </trkpt>
      <trkpt lat="45.29054" lon="6.14552">
        <ele>2528.1999511719</ele>
        <time>2020-12-16T12:59:39.000Z</time>
      </trkpt>
      <trkpt lat="45.29052" lon="6.14548">
        <ele>2528</ele>
        <time>2020-12-16T12:59:40.000Z</time>
      </trkpt>
      <trkpt lat="45.29045" lon="6.14554">
        <ele>2527</ele>
        <time>2020-12-16T12:59:42.000Z</time>
      </trkpt>
      <trkpt lat="45.29043" lon="6.14556">
        <ele>2526.3999023438</ele>
        <time>2020-12-16T12:59:43.000Z</time>
      </trkpt>
      <trkpt lat="45.29039" lon="6.14555">
        <ele>2524.3999023438</ele>
        <time>2020-12-16T12:59:45.000Z</time>
      </trkpt>
      <trkpt lat="45.29035" lon="6.14554">
        <ele>2523.1999511719</ele>
        <time>2020-12-16T12:59:46.000Z</time>
      </trkpt>
      <trkpt lat="45.29033" lon="6.14555">
        <ele>2522</ele>
        <time>2020-12-16T12:59:47.000Z</time>
      </trkpt>
      <trkpt lat="45.2903" lon="6.14556">
        <ele>2519.1999511719</ele>
        <time>2020-12-16T12:59:48.000Z</time>
      </trkpt>
      <trkpt lat="45.29027" lon="6.14553">
        <ele>2517.8000488281</ele>
        <time>2020-12-16T12:59:49.000Z</time>
      </trkpt>
      <trkpt lat="45.29025" lon="6.1455">
        <ele>2516.3999023438</ele>
        <time>2020-12-16T12:59:50.000Z</time>
      </trkpt>
      <trkpt lat="45.29023" lon="6.14552">
        <ele>2515</ele>
        <time>2020-12-16T12:59:51.000Z</time>
      </trkpt>
      <trkpt lat="45.2902" lon="6.14557">
        <ele>2513.8000488281</ele>
        <time>2020-12-16T12:59:52.000Z</time>
      </trkpt>
      <trkpt lat="45.29018" lon="6.1456">
        <ele>2512.8000488281</ele>
        <time>2020-12-16T12:59:53.000Z</time>
      </trkpt>
      <trkpt lat="45.29008" lon="6.14561">
        <ele>2510.8000488281</ele>
        <time>2020-12-16T12:59:55.000Z</time>
      </trkpt>
      <trkpt lat="45.29002" lon="6.14565">
        <ele>2508.8000488281</ele>
        <time>2020-12-16T12:59:57.000Z</time>
      </trkpt>
      <trkpt lat="45.29" lon="6.14568">
        <ele>2507.6000976562</ele>
        <time>2020-12-16T12:59:58.000Z</time>
      </trkpt>
      <trkpt lat="45.28997" lon="6.1457">
        <ele>2506.1999511719</ele>
        <time>2020-12-16T12:59:59.000Z</time>
      </trkpt>
      <trkpt lat="45.28993" lon="6.14573">
        <ele>2505</ele>
        <time>2020-12-16T13:00:00.000Z</time>
      </trkpt>
      <trkpt lat="45.28989" lon="6.1457">
        <ele>2503.8000488281</ele>
        <time>2020-12-16T13:00:01.000Z</time>
      </trkpt>
      <trkpt lat="45.28985" lon="6.14566">
        <ele>2502.8000488281</ele>
        <time>2020-12-16T13:00:02.000Z</time>
      </trkpt>
      <trkpt lat="45.28979" lon="6.1456">
        <ele>2500.8000488281</ele>
        <time>2020-12-16T13:00:04.000Z</time>
      </trkpt>
      <trkpt lat="45.28976" lon="6.14558">
        <ele>2499.8000488281</ele>
        <time>2020-12-16T13:00:05.000Z</time>
      </trkpt>
      <trkpt lat="45.28975" lon="6.14558">
        <ele>2499</ele>
        <time>2020-12-16T13:00:06.000Z</time>
      </trkpt>
      <trkpt lat="45.28973" lon="6.14559">
        <ele>2497.1999511719</ele>
        <time>2020-12-16T13:00:08.000Z</time>
      </trkpt>
      <trkpt lat="45.28972" lon="6.1456">
        <ele>2496.6000976562</ele>
        <time>2020-12-16T13:00:09.000Z</time>
      </trkpt>
      <trkpt lat="45.28972" lon="6.1456">
        <ele>2496.1999511719</ele>
        <time>2020-12-16T13:00:10.000Z</time>
      </trkpt>
      <trkpt lat="45.2897" lon="6.14564">
        <ele>2495.8000488281</ele>
        <time>2020-12-16T13:00:11.000Z</time>
      </trkpt>
      <trkpt lat="45.28965" lon="6.14569">
        <ele>2494.8000488281</ele>
        <time>2020-12-16T13:00:13.000Z</time>
      </trkpt>
      <trkpt lat="45.28961" lon="6.14572">
        <ele>2493.1999511719</ele>
        <time>2020-12-16T13:00:15.000Z</time>
      </trkpt>
      <trkpt lat="45.28958" lon="6.14576">
        <ele>2492</ele>
        <time>2020-12-16T13:00:16.000Z</time>
      </trkpt>
      <trkpt lat="45.28957" lon="6.14578">
        <ele>2490.6000976562</ele>
        <time>2020-12-16T13:00:17.000Z</time>
      </trkpt>
      <trkpt lat="45.28959" lon="6.14581">
        <ele>2489.3999023438</ele>
        <time>2020-12-16T13:00:18.000Z</time>
      </trkpt>
      <trkpt lat="45.28959" lon="6.14582">
        <ele>2488.1999511719</ele>
        <time>2020-12-16T13:00:19.000Z</time>
      </trkpt>
      <trkpt lat="45.2896" lon="6.14586">
        <ele>2486.8000488281</ele>
        <time>2020-12-16T13:00:20.000Z</time>
      </trkpt>
      <trkpt lat="45.28958" lon="6.14591">
        <ele>2485.6000976562</ele>
        <time>2020-12-16T13:00:21.000Z</time>
      </trkpt>
      <trkpt lat="45.28957" lon="6.14594">
        <ele>2484.6000976562</ele>
        <time>2020-12-16T13:00:22.000Z</time>
      </trkpt>
      <trkpt lat="45.28956" lon="6.14597">
        <ele>2483.6000976562</ele>
        <time>2020-12-16T13:00:23.000Z</time>
      </trkpt>
      <trkpt lat="45.28954" lon="6.146">
        <ele>2482.3999023438</ele>
        <time>2020-12-16T13:00:24.000Z</time>
      </trkpt>
      <trkpt lat="45.28951" lon="6.14606">
        <ele>2481.1999511719</ele>
        <time>2020-12-16T13:00:25.000Z</time>
      </trkpt>
      <trkpt lat="45.28949" lon="6.14611">
        <ele>2479.8000488281</ele>
        <time>2020-12-16T13:00:26.000Z</time>
      </trkpt>
      <trkpt lat="45.28952" lon="6.14617">
        <ele>2478.3999023438</ele>
        <time>2020-12-16T13:00:27.000Z</time>
      </trkpt>
      <trkpt lat="45.28954" lon="6.14621">
        <ele>2477</ele>
        <time>2020-12-16T13:00:28.000Z</time>
      </trkpt>
      <trkpt lat="45.28954" lon="6.14624">
        <ele>2475.6000976562</ele>
        <time>2020-12-16T13:00:29.000Z</time>
      </trkpt>
      <trkpt lat="45.28955" lon="6.14627">
        <ele>2474.3999023438</ele>
        <time>2020-12-16T13:00:30.000Z</time>
      </trkpt>
      <trkpt lat="45.28955" lon="6.14627">
        <ele>2472.6000976562</ele>
        <time>2020-12-16T13:00:32.000Z</time>
      </trkpt>
      <trkpt lat="45.28955" lon="6.14628">
        <ele>2471.8000488281</ele>
        <time>2020-12-16T13:00:34.000Z</time>
      </trkpt>
      <trkpt lat="45.28952" lon="6.1463">
        <ele>2471.6000976562</ele>
        <time>2020-12-16T13:00:35.000Z</time>
      </trkpt>
      <trkpt lat="45.28951" lon="6.14633">
        <ele>2471</ele>
        <time>2020-12-16T13:00:36.000Z</time>
      </trkpt>
      <trkpt lat="45.28954" lon="6.14648">
        <ele>2470.1999511719</ele>
        <time>2020-12-16T13:00:38.000Z</time>
      </trkpt>
      <trkpt lat="45.28954" lon="6.14656">
        <ele>2469.6000976562</ele>
        <time>2020-12-16T13:00:39.000Z</time>
      </trkpt>
      <trkpt lat="45.28956" lon="6.14665">
        <ele>2468.8000488281</ele>
        <time>2020-12-16T13:00:40.000Z</time>
      </trkpt>
      <trkpt lat="45.28957" lon="6.14678">
        <ele>2466.8000488281</ele>
        <time>2020-12-16T13:00:42.000Z</time>
      </trkpt>
      <trkpt lat="45.28959" lon="6.14685">
        <ele>2464.8000488281</ele>
        <time>2020-12-16T13:00:44.000Z</time>
      </trkpt>
      <trkpt lat="45.2896" lon="6.14686">
        <ele>2463</ele>
        <time>2020-12-16T13:00:46.000Z</time>
      </trkpt>
      <trkpt lat="45.2896" lon="6.14686">
        <ele>2461.3999023438</ele>
        <time>2020-12-16T13:00:48.000Z</time>
      </trkpt>
      <trkpt lat="45.2896" lon="6.14686">
        <ele>2460.3999023438</ele>
        <time>2020-12-16T13:00:51.000Z</time>
      </trkpt>
      <trkpt lat="45.2896" lon="6.14686">
        <ele>2460.1999511719</ele>
        <time>2020-12-16T13:00:53.000Z</time>
      </trkpt>
      <trkpt lat="45.2896" lon="6.14686">
        <ele>2459.8000488281</ele>
        <time>2020-12-16T13:01:06.000Z</time>
      </trkpt>
      <trkpt lat="45.28961" lon="6.14689">
        <ele>2459.6000976562</ele>
        <time>2020-12-16T13:01:12.000Z</time>
      </trkpt>
      <trkpt lat="45.28961" lon="6.14689">
        <ele>2459.1999511719</ele>
        <time>2020-12-16T13:01:14.000Z</time>
      </trkpt>
      <trkpt lat="45.28961" lon="6.14689">
        <ele>2458.1999511719</ele>
        <time>2020-12-16T13:01:17.000Z</time>
      </trkpt>
      <trkpt lat="45.28961" lon="6.14689">
        <ele>2457.8000488281</ele>
        <time>2020-12-16T13:01:18.000Z</time>
      </trkpt>
      <trkpt lat="45.28961" lon="6.14689">
        <ele>2457</ele>
        <time>2020-12-16T13:01:21.000Z</time>
      </trkpt>
      <trkpt lat="45.28961" lon="6.14689">
        <ele>2456.6000976562</ele>
        <time>2020-12-16T13:01:27.000Z</time>
      </trkpt>
      <trkpt lat="45.28961" lon="6.14689">
        <ele>2456.3999023438</ele>
        <time>2020-12-16T13:01:36.000Z</time>
      </trkpt>
      <trkpt lat="45.28961" lon="6.14689">
        <ele>2456.1999511719</ele>
        <time>2020-12-16T13:01:49.000Z</time>
      </trkpt>
      <trkpt lat="45.28961" lon="6.14692">
        <ele>2456.1999511719</ele>
        <time>2020-12-16T13:02:00.000Z</time>
      </trkpt>
      <trkpt lat="45.28966" lon="6.14682">
        <ele>2456.1999511719</ele>
        <time>2020-12-16T13:02:16.000Z</time>
      </trkpt>
      <trkpt lat="45.28959" lon="6.14686">
        <ele>2456</ele>
        <time>2020-12-16T13:02:29.000Z</time>
      </trkpt>
      <trkpt lat="45.28958" lon="6.14687">
        <ele>2456</ele>
        <time>2020-12-16T13:02:42.000Z</time>
      </trkpt>
      <trkpt lat="45.28955" lon="6.14689">
        <ele>2456</ele>
        <time>2020-12-16T13:02:52.000Z</time>
      </trkpt>
      <trkpt lat="45.28957" lon="6.14688">
        <ele>2455.8000488281</ele>
        <time>2020-12-16T13:03:01.000Z</time>
      </trkpt>
      <trkpt lat="45.28959" lon="6.14687">
        <ele>2455.6000976562</ele>
        <time>2020-12-16T13:03:12.000Z</time>
      </trkpt>
      <trkpt lat="45.28967" lon="6.14691">
        <ele>2455.3999023438</ele>
        <time>2020-12-16T13:03:21.000Z</time>
      </trkpt>
      <trkpt lat="45.28969" lon="6.14693">
        <ele>2455.3999023438</ele>
        <time>2020-12-16T13:03:22.000Z</time>
      </trkpt>
      <trkpt lat="45.28968" lon="6.14697">
        <ele>2455.1999511719</ele>
        <time>2020-12-16T13:03:25.000Z</time>
      </trkpt>
      <trkpt lat="45.28968" lon="6.147">
        <ele>2455</ele>
        <time>2020-12-16T13:03:27.000Z</time>
      </trkpt>
      <trkpt lat="45.28969" lon="6.14702">
        <ele>2454.3999023438</ele>
        <time>2020-12-16T13:03:30.000Z</time>
      </trkpt>
      <trkpt lat="45.28969" lon="6.14704">
        <ele>2453.8000488281</ele>
        <time>2020-12-16T13:03:33.000Z</time>
      </trkpt>
      <trkpt lat="45.28968" lon="6.14706">
        <ele>2453.3999023438</ele>
        <time>2020-12-16T13:03:38.000Z</time>
      </trkpt>
      <trkpt lat="45.28966" lon="6.14708">
        <ele>2453.3999023438</ele>
        <time>2020-12-16T13:03:46.000Z</time>
      </trkpt>
      <trkpt lat="45.28965" lon="6.14712">
        <ele>2453.3999023438</ele>
        <time>2020-12-16T13:03:47.000Z</time>
      </trkpt>
      <trkpt lat="45.28961" lon="6.14709">
        <ele>2453</ele>
        <time>2020-12-16T13:03:49.000Z</time>
      </trkpt>
      <trkpt lat="45.28957" lon="6.14707">
        <ele>2452.3999023438</ele>
        <time>2020-12-16T13:03:51.000Z</time>
      </trkpt>
      <trkpt lat="45.28953" lon="6.14705">
        <ele>2451.3999023438</ele>
        <time>2020-12-16T13:03:53.000Z</time>
      </trkpt>
      <trkpt lat="45.28948" lon="6.14703">
        <ele>2450.6000976562</ele>
        <time>2020-12-16T13:03:55.000Z</time>
      </trkpt>
      <trkpt lat="45.28945" lon="6.14703">
        <ele>2450.1999511719</ele>
        <time>2020-12-16T13:03:56.000Z</time>
      </trkpt>
      <trkpt lat="45.28941" lon="6.14707">
        <ele>2449.1999511719</ele>
        <time>2020-12-16T13:03:58.000Z</time>
      </trkpt>
      <trkpt lat="45.28941" lon="6.14711">
        <ele>2448.8000488281</ele>
        <time>2020-12-16T13:03:59.000Z</time>
      </trkpt>
      <trkpt lat="45.28939" lon="6.14713">
        <ele>2447.6000976562</ele>
        <time>2020-12-16T13:04:01.000Z</time>
      </trkpt>
      <trkpt lat="45.28935" lon="6.1472">
        <ele>2445.8000488281</ele>
        <time>2020-12-16T13:04:03.000Z</time>
      </trkpt>
      <trkpt lat="45.2893" lon="6.14723">
        <ele>2444.6000976562</ele>
        <time>2020-12-16T13:04:04.000Z</time>
      </trkpt>
      <trkpt lat="45.28926" lon="6.14725">
        <ele>2443.1999511719</ele>
        <time>2020-12-16T13:04:05.000Z</time>
      </trkpt>
      <trkpt lat="45.28922" lon="6.14725">
        <ele>2442</ele>
        <time>2020-12-16T13:04:06.000Z</time>
      </trkpt>
      <trkpt lat="45.28919" lon="6.14726">
        <ele>2440.8000488281</ele>
        <time>2020-12-16T13:04:07.000Z</time>
      </trkpt>
      <trkpt lat="45.28915" lon="6.14726">
        <ele>2439.3999023438</ele>
        <time>2020-12-16T13:04:08.000Z</time>
      </trkpt>
      <trkpt lat="45.28912" lon="6.14726">
        <ele>2438</ele>
        <time>2020-12-16T13:04:09.000Z</time>
      </trkpt>
      <trkpt lat="45.28905" lon="6.14719">
        <ele>2436.8000488281</ele>
        <time>2020-12-16T13:04:10.000Z</time>
      </trkpt>
      <trkpt lat="45.28901" lon="6.14719">
        <ele>2435.8000488281</ele>
        <time>2020-12-16T13:04:11.000Z</time>
      </trkpt>
      <trkpt lat="45.28897" lon="6.14713">
        <ele>2434</ele>
        <time>2020-12-16T13:04:12.000Z</time>
      </trkpt>
      <trkpt lat="45.28887" lon="6.14711">
        <ele>2432.3999023438</ele>
        <time>2020-12-16T13:04:14.000Z</time>
      </trkpt>
      <trkpt lat="45.28878" lon="6.14709">
        <ele>2431</ele>
        <time>2020-12-16T13:04:16.000Z</time>
      </trkpt>
      <trkpt lat="45.28874" lon="6.14706">
        <ele>2430.1999511719</ele>
        <time>2020-12-16T13:04:17.000Z</time>
      </trkpt>
      <trkpt lat="45.2887" lon="6.14705">
        <ele>2429.6000976562</ele>
        <time>2020-12-16T13:04:18.000Z</time>
      </trkpt>
      <trkpt lat="45.28867" lon="6.14704">
        <ele>2428.3999023438</ele>
        <time>2020-12-16T13:04:20.000Z</time>
      </trkpt>
      <trkpt lat="45.28865" lon="6.14704">
        <ele>2427.1999511719</ele>
        <time>2020-12-16T13:04:22.000Z</time>
      </trkpt>
      <trkpt lat="45.28865" lon="6.14704">
        <ele>2426.1999511719</ele>
        <time>2020-12-16T13:04:27.000Z</time>
      </trkpt>
      <trkpt lat="45.28865" lon="6.14704">
        <ele>2426.1999511719</ele>
        <time>2020-12-16T13:04:29.000Z</time>
      </trkpt>
      <trkpt lat="45.28864" lon="6.14705">
        <ele>2426.1999511719</ele>
        <time>2020-12-16T13:04:36.000Z</time>
      </trkpt>
      <trkpt lat="45.28862" lon="6.14708">
        <ele>2426</ele>
        <time>2020-12-16T13:04:38.000Z</time>
      </trkpt>
      <trkpt lat="45.28863" lon="6.14711">
        <ele>2426</ele>
        <time>2020-12-16T13:04:39.000Z</time>
      </trkpt>
      <trkpt lat="45.28862" lon="6.14713">
        <ele>2425.6000976562</ele>
        <time>2020-12-16T13:04:40.000Z</time>
      </trkpt>
      <trkpt lat="45.28861" lon="6.14713">
        <ele>2424.8000488281</ele>
        <time>2020-12-16T13:04:41.000Z</time>
      </trkpt>
      <trkpt lat="45.28858" lon="6.14719">
        <ele>2423.8000488281</ele>
        <time>2020-12-16T13:04:42.000Z</time>
      </trkpt>
      <trkpt lat="45.28858" lon="6.14722">
        <ele>2422.6000976562</ele>
        <time>2020-12-16T13:04:43.000Z</time>
      </trkpt>
      <trkpt lat="45.28857" lon="6.14728">
        <ele>2421.3999023438</ele>
        <time>2020-12-16T13:04:44.000Z</time>
      </trkpt>
      <trkpt lat="45.28857" lon="6.14731">
        <ele>2420.1999511719</ele>
        <time>2020-12-16T13:04:45.000Z</time>
      </trkpt>
      <trkpt lat="45.28856" lon="6.1473">
        <ele>2418.8000488281</ele>
        <time>2020-12-16T13:04:46.000Z</time>
      </trkpt>
      <trkpt lat="45.28854" lon="6.14729">
        <ele>2417.6000976562</ele>
        <time>2020-12-16T13:04:47.000Z</time>
      </trkpt>
      <trkpt lat="45.28852" lon="6.14729">
        <ele>2416.1999511719</ele>
        <time>2020-12-16T13:04:48.000Z</time>
      </trkpt>
      <trkpt lat="45.28852" lon="6.14729">
        <ele>2415</ele>
        <time>2020-12-16T13:04:49.000Z</time>
      </trkpt>
      <trkpt lat="45.28854" lon="6.14732">
        <ele>2413.8000488281</ele>
        <time>2020-12-16T13:04:50.000Z</time>
      </trkpt>
      <trkpt lat="45.28857" lon="6.14739">
        <ele>2412</ele>
        <time>2020-12-16T13:04:52.000Z</time>
      </trkpt>
      <trkpt lat="45.28857" lon="6.14745">
        <ele>2410.8000488281</ele>
        <time>2020-12-16T13:04:54.000Z</time>
      </trkpt>
      <trkpt lat="45.28858" lon="6.14748">
        <ele>2410</ele>
        <time>2020-12-16T13:04:55.000Z</time>
      </trkpt>
      <trkpt lat="45.28857" lon="6.14751">
        <ele>2409.3999023438</ele>
        <time>2020-12-16T13:04:56.000Z</time>
      </trkpt>
      <trkpt lat="45.28854" lon="6.14755">
        <ele>2408.8000488281</ele>
        <time>2020-12-16T13:04:57.000Z</time>
      </trkpt>
      <trkpt lat="45.28853" lon="6.14757">
        <ele>2408.1999511719</ele>
        <time>2020-12-16T13:04:58.000Z</time>
      </trkpt>
      <trkpt lat="45.28849" lon="6.14763">
        <ele>2405.6000976562</ele>
        <time>2020-12-16T13:05:00.000Z</time>
      </trkpt>
      <trkpt lat="45.28847" lon="6.14768">
        <ele>2404.6000976562</ele>
        <time>2020-12-16T13:05:01.000Z</time>
      </trkpt>
      <trkpt lat="45.28846" lon="6.14772">
        <ele>2403.3999023438</ele>
        <time>2020-12-16T13:05:02.000Z</time>
      </trkpt>
      <trkpt lat="45.28847" lon="6.14776">
        <ele>2402.1999511719</ele>
        <time>2020-12-16T13:05:03.000Z</time>
      </trkpt>
      <trkpt lat="45.28846" lon="6.14778">
        <ele>2400.8000488281</ele>
        <time>2020-12-16T13:05:04.000Z</time>
      </trkpt>
      <trkpt lat="45.28843" lon="6.14779">
        <ele>2399.3999023438</ele>
        <time>2020-12-16T13:05:05.000Z</time>
      </trkpt>
      <trkpt lat="45.2884" lon="6.14781">
        <ele>2398.1999511719</ele>
        <time>2020-12-16T13:05:06.000Z</time>
      </trkpt>
      <trkpt lat="45.2884" lon="6.14784">
        <ele>2396.8000488281</ele>
        <time>2020-12-16T13:05:07.000Z</time>
      </trkpt>
      <trkpt lat="45.2884" lon="6.14786">
        <ele>2395.6000976562</ele>
        <time>2020-12-16T13:05:08.000Z</time>
      </trkpt>
      <trkpt lat="45.28839" lon="6.14789">
        <ele>2394.3999023438</ele>
        <time>2020-12-16T13:05:09.000Z</time>
      </trkpt>
      <trkpt lat="45.28839" lon="6.14789">
        <ele>2393.3999023438</ele>
        <time>2020-12-16T13:05:10.000Z</time>
      </trkpt>
      <trkpt lat="45.28839" lon="6.14789">
        <ele>2392.1999511719</ele>
        <time>2020-12-16T13:05:11.000Z</time>
      </trkpt>
      <trkpt lat="45.28839" lon="6.14789">
        <ele>2390.6000976562</ele>
        <time>2020-12-16T13:05:13.000Z</time>
      </trkpt>
      <trkpt lat="45.28839" lon="6.14789">
        <ele>2389.6000976562</ele>
        <time>2020-12-16T13:05:17.000Z</time>
      </trkpt>
      <trkpt lat="45.28839" lon="6.14789">
        <ele>2389.3999023438</ele>
        <time>2020-12-16T13:05:27.000Z</time>
      </trkpt>
      <trkpt lat="45.28832" lon="6.1479">
        <ele>2389.3999023438</ele>
        <time>2020-12-16T13:05:30.000Z</time>
      </trkpt>
      <trkpt lat="45.2883" lon="6.1479">
        <ele>2389.1999511719</ele>
        <time>2020-12-16T13:05:31.000Z</time>
      </trkpt>
      <trkpt lat="45.28828" lon="6.1479">
        <ele>2388.1999511719</ele>
        <time>2020-12-16T13:05:33.000Z</time>
      </trkpt>
      <trkpt lat="45.28826" lon="6.1479">
        <ele>2387.3999023438</ele>
        <time>2020-12-16T13:05:34.000Z</time>
      </trkpt>
      <trkpt lat="45.28824" lon="6.1479">
        <ele>2386.8000488281</ele>
        <time>2020-12-16T13:05:35.000Z</time>
      </trkpt>
      <trkpt lat="45.28823" lon="6.1479">
        <ele>2386.1999511719</ele>
        <time>2020-12-16T13:05:36.000Z</time>
      </trkpt>
      <trkpt lat="45.28822" lon="6.14793">
        <ele>2385.6000976562</ele>
        <time>2020-12-16T13:05:37.000Z</time>
      </trkpt>
      <trkpt lat="45.28822" lon="6.148">
        <ele>2384.8000488281</ele>
        <time>2020-12-16T13:05:39.000Z</time>
      </trkpt>
      <trkpt lat="45.28823" lon="6.14802">
        <ele>2384.3999023438</ele>
        <time>2020-12-16T13:05:40.000Z</time>
      </trkpt>
      <trkpt lat="45.28822" lon="6.14804">
        <ele>2383.8000488281</ele>
        <time>2020-12-16T13:05:41.000Z</time>
      </trkpt>
      <trkpt lat="45.2882" lon="6.14804">
        <ele>2383</ele>
        <time>2020-12-16T13:05:42.000Z</time>
      </trkpt>
      <trkpt lat="45.28818" lon="6.14806">
        <ele>2380.8000488281</ele>
        <time>2020-12-16T13:05:44.000Z</time>
      </trkpt>
      <trkpt lat="45.28819" lon="6.1481">
        <ele>2379.6000976562</ele>
        <time>2020-12-16T13:05:45.000Z</time>
      </trkpt>
      <trkpt lat="45.28818" lon="6.14814">
        <ele>2378.3999023438</ele>
        <time>2020-12-16T13:05:46.000Z</time>
      </trkpt>
      <trkpt lat="45.28818" lon="6.14817">
        <ele>2377.1999511719</ele>
        <time>2020-12-16T13:05:47.000Z</time>
      </trkpt>
      <trkpt lat="45.28817" lon="6.14818">
        <ele>2374.6000976562</ele>
        <time>2020-12-16T13:05:48.000Z</time>
      </trkpt>
      <trkpt lat="45.28815" lon="6.14818">
        <ele>2373.3999023438</ele>
        <time>2020-12-16T13:05:49.000Z</time>
      </trkpt>
      <trkpt lat="45.28813" lon="6.1482">
        <ele>2372.1999511719</ele>
        <time>2020-12-16T13:05:50.000Z</time>
      </trkpt>
      <trkpt lat="45.28812" lon="6.14823">
        <ele>2371</ele>
        <time>2020-12-16T13:05:51.000Z</time>
      </trkpt>
      <trkpt lat="45.28811" lon="6.14826">
        <ele>2369.6000976562</ele>
        <time>2020-12-16T13:05:52.000Z</time>
      </trkpt>
      <trkpt lat="45.2881" lon="6.14827">
        <ele>2368.1999511719</ele>
        <time>2020-12-16T13:05:53.000Z</time>
      </trkpt>
      <trkpt lat="45.28807" lon="6.14829">
        <ele>2366.6000976562</ele>
        <time>2020-12-16T13:05:54.000Z</time>
      </trkpt>
      <trkpt lat="45.28805" lon="6.14833">
        <ele>2365</ele>
        <time>2020-12-16T13:05:55.000Z</time>
      </trkpt>
      <trkpt lat="45.28803" lon="6.14838">
        <ele>2363.3999023438</ele>
        <time>2020-12-16T13:05:56.000Z</time>
      </trkpt>
      <trkpt lat="45.28801" lon="6.14842">
        <ele>2361.8000488281</ele>
        <time>2020-12-16T13:05:57.000Z</time>
      </trkpt>
      <trkpt lat="45.28799" lon="6.14844">
        <ele>2360.1999511719</ele>
        <time>2020-12-16T13:05:58.000Z</time>
      </trkpt>
      <trkpt lat="45.28796" lon="6.14849">
        <ele>2358.6000976562</ele>
        <time>2020-12-16T13:05:59.000Z</time>
      </trkpt>
      <trkpt lat="45.28793" lon="6.14856">
        <ele>2357</ele>
        <time>2020-12-16T13:06:00.000Z</time>
      </trkpt>
      <trkpt lat="45.28791" lon="6.14862">
        <ele>2355.6000976562</ele>
        <time>2020-12-16T13:06:01.000Z</time>
      </trkpt>
      <trkpt lat="45.28789" lon="6.14869">
        <ele>2354</ele>
        <time>2020-12-16T13:06:02.000Z</time>
      </trkpt>
      <trkpt lat="45.28793" lon="6.14876">
        <ele>2352.1999511719</ele>
        <time>2020-12-16T13:06:03.000Z</time>
      </trkpt>
      <trkpt lat="45.28792" lon="6.14881">
        <ele>2350.3999023438</ele>
        <time>2020-12-16T13:06:04.000Z</time>
      </trkpt>
      <trkpt lat="45.2879" lon="6.14882">
        <ele>2348.6000976562</ele>
        <time>2020-12-16T13:06:05.000Z</time>
      </trkpt>
      <trkpt lat="45.28787" lon="6.14885">
        <ele>2346.8000488281</ele>
        <time>2020-12-16T13:06:06.000Z</time>
      </trkpt>
      <trkpt lat="45.28784" lon="6.1489">
        <ele>2345.1999511719</ele>
        <time>2020-12-16T13:06:07.000Z</time>
      </trkpt>
      <trkpt lat="45.28784" lon="6.14893">
        <ele>2344</ele>
        <time>2020-12-16T13:06:08.000Z</time>
      </trkpt>
      <trkpt lat="45.28782" lon="6.14897">
        <ele>2342.6000976562</ele>
        <time>2020-12-16T13:06:09.000Z</time>
      </trkpt>
      <trkpt lat="45.28781" lon="6.14899">
        <ele>2341.1999511719</ele>
        <time>2020-12-16T13:06:10.000Z</time>
      </trkpt>
      <trkpt lat="45.28781" lon="6.149">
        <ele>2339.8000488281</ele>
        <time>2020-12-16T13:06:11.000Z</time>
      </trkpt>
      <trkpt lat="45.2878" lon="6.14901">
        <ele>2336.8000488281</ele>
        <time>2020-12-16T13:06:12.000Z</time>
      </trkpt>
      <trkpt lat="45.2878" lon="6.14901">
        <ele>2335.3999023438</ele>
        <time>2020-12-16T13:06:13.000Z</time>
      </trkpt>
      <trkpt lat="45.2878" lon="6.14901">
        <ele>2334.1999511719</ele>
        <time>2020-12-16T13:06:14.000Z</time>
      </trkpt>
      <trkpt lat="45.2878" lon="6.14901">
        <ele>2332.8000488281</ele>
        <time>2020-12-16T13:06:16.000Z</time>
      </trkpt>
      <trkpt lat="45.2878" lon="6.14901">
        <ele>2332</ele>
        <time>2020-12-16T13:06:20.000Z</time>
      </trkpt>
      <trkpt lat="45.2878" lon="6.14901">
        <ele>2332</ele>
        <time>2020-12-16T13:06:33.000Z</time>
      </trkpt>
      <trkpt lat="45.28779" lon="6.14902">
        <ele>2331.8000488281</ele>
        <time>2020-12-16T13:06:38.000Z</time>
      </trkpt>
      <trkpt lat="45.28776" lon="6.14901">
        <ele>2331.8000488281</ele>
        <time>2020-12-16T13:06:39.000Z</time>
      </trkpt>
      <trkpt lat="45.28773" lon="6.14903">
        <ele>2331.8000488281</ele>
        <time>2020-12-16T13:06:41.000Z</time>
      </trkpt>
      <trkpt lat="45.28773" lon="6.14903">
        <ele>2331.1999511719</ele>
        <time>2020-12-16T13:06:43.000Z</time>
      </trkpt>
      <trkpt lat="45.28773" lon="6.14903">
        <ele>2330.3999023438</ele>
        <time>2020-12-16T13:06:45.000Z</time>
      </trkpt>
      <trkpt lat="45.28771" lon="6.14904">
        <ele>2330</ele>
        <time>2020-12-16T13:06:47.000Z</time>
      </trkpt>
      <trkpt lat="45.2877" lon="6.14908">
        <ele>2330</ele>
        <time>2020-12-16T13:06:48.000Z</time>
      </trkpt>
      <trkpt lat="45.28771" lon="6.14922">
        <ele>2329.3999023438</ele>
        <time>2020-12-16T13:06:51.000Z</time>
      </trkpt>
      <trkpt lat="45.2877" lon="6.14927">
        <ele>2328</ele>
        <time>2020-12-16T13:06:53.000Z</time>
      </trkpt>
      <trkpt lat="45.28767" lon="6.14927">
        <ele>2327</ele>
        <time>2020-12-16T13:06:54.000Z</time>
      </trkpt>
      <trkpt lat="45.28766" lon="6.14928">
        <ele>2326</ele>
        <time>2020-12-16T13:06:55.000Z</time>
      </trkpt>
      <trkpt lat="45.28766" lon="6.14933">
        <ele>2325</ele>
        <time>2020-12-16T13:06:56.000Z</time>
      </trkpt>
      <trkpt lat="45.28767" lon="6.14939">
        <ele>2323.8000488281</ele>
        <time>2020-12-16T13:06:57.000Z</time>
      </trkpt>
      <trkpt lat="45.28769" lon="6.14944">
        <ele>2322.6000976562</ele>
        <time>2020-12-16T13:06:58.000Z</time>
      </trkpt>
      <trkpt lat="45.2877" lon="6.14949">
        <ele>2321.1999511719</ele>
        <time>2020-12-16T13:06:59.000Z</time>
      </trkpt>
      <trkpt lat="45.28771" lon="6.14952">
        <ele>2317.8000488281</ele>
        <time>2020-12-16T13:07:00.000Z</time>
      </trkpt>
      <trkpt lat="45.28772" lon="6.14954">
        <ele>2315.6000976562</ele>
        <time>2020-12-16T13:07:01.000Z</time>
      </trkpt>
      <trkpt lat="45.28772" lon="6.14954">
        <ele>2313.6000976562</ele>
        <time>2020-12-16T13:07:02.000Z</time>
      </trkpt>
      <trkpt lat="45.28772" lon="6.14954">
        <ele>2312</ele>
        <time>2020-12-16T13:07:03.000Z</time>
      </trkpt>
      <trkpt lat="45.28772" lon="6.14957">
        <ele>2310.8000488281</ele>
        <time>2020-12-16T13:07:04.000Z</time>
      </trkpt>
      <trkpt lat="45.28766" lon="6.14957">
        <ele>2309.3999023438</ele>
        <time>2020-12-16T13:07:06.000Z</time>
      </trkpt>
      <trkpt lat="45.28763" lon="6.14956">
        <ele>2309</ele>
        <time>2020-12-16T13:07:07.000Z</time>
      </trkpt>
      <trkpt lat="45.28762" lon="6.14956">
        <ele>2308.3999023438</ele>
        <time>2020-12-16T13:07:08.000Z</time>
      </trkpt>
      <trkpt lat="45.2876" lon="6.14959">
        <ele>2306.3999023438</ele>
        <time>2020-12-16T13:07:10.000Z</time>
      </trkpt>
      <trkpt lat="45.28761" lon="6.14964">
        <ele>2305.1999511719</ele>
        <time>2020-12-16T13:07:11.000Z</time>
      </trkpt>
      <trkpt lat="45.28764" lon="6.14973">
        <ele>2303.8000488281</ele>
        <time>2020-12-16T13:07:13.000Z</time>
      </trkpt>
      <trkpt lat="45.28767" lon="6.14975">
        <ele>2303</ele>
        <time>2020-12-16T13:07:14.000Z</time>
      </trkpt>
      <trkpt lat="45.28768" lon="6.14976">
        <ele>2302.3999023438</ele>
        <time>2020-12-16T13:07:15.000Z</time>
      </trkpt>
      <trkpt lat="45.28766" lon="6.14978">
        <ele>2301.3999023438</ele>
        <time>2020-12-16T13:07:16.000Z</time>
      </trkpt>
      <trkpt lat="45.28763" lon="6.14979">
        <ele>2300.3999023438</ele>
        <time>2020-12-16T13:07:17.000Z</time>
      </trkpt>
      <trkpt lat="45.28761" lon="6.1498">
        <ele>2299.1999511719</ele>
        <time>2020-12-16T13:07:18.000Z</time>
      </trkpt>
      <trkpt lat="45.28759" lon="6.14981">
        <ele>2298</ele>
        <time>2020-12-16T13:07:19.000Z</time>
      </trkpt>
      <trkpt lat="45.28758" lon="6.14981">
        <ele>2296.8000488281</ele>
        <time>2020-12-16T13:07:20.000Z</time>
      </trkpt>
      <trkpt lat="45.28759" lon="6.14981">
        <ele>2295.3999023438</ele>
        <time>2020-12-16T13:07:21.000Z</time>
      </trkpt>
      <trkpt lat="45.28761" lon="6.14981">
        <ele>2294.1999511719</ele>
        <time>2020-12-16T13:07:22.000Z</time>
      </trkpt>
      <trkpt lat="45.28762" lon="6.14983">
        <ele>2293.1999511719</ele>
        <time>2020-12-16T13:07:23.000Z</time>
      </trkpt>
      <trkpt lat="45.28762" lon="6.14985">
        <ele>2291.6000976562</ele>
        <time>2020-12-16T13:07:24.000Z</time>
      </trkpt>
      <trkpt lat="45.28761" lon="6.14988">
        <ele>2289.3999023438</ele>
        <time>2020-12-16T13:07:26.000Z</time>
      </trkpt>
      <trkpt lat="45.28761" lon="6.14988">
        <ele>2287.8000488281</ele>
        <time>2020-12-16T13:07:27.000Z</time>
      </trkpt>
      <trkpt lat="45.28761" lon="6.14988">
        <ele>2286.1999511719</ele>
        <time>2020-12-16T13:07:28.000Z</time>
      </trkpt>
      <trkpt lat="45.28761" lon="6.14988">
        <ele>2284.8000488281</ele>
        <time>2020-12-16T13:07:29.000Z</time>
      </trkpt>
      <trkpt lat="45.28761" lon="6.14989">
        <ele>2283.3999023438</ele>
        <time>2020-12-16T13:07:31.000Z</time>
      </trkpt>
      <trkpt lat="45.28761" lon="6.14989">
        <ele>2282.6000976562</ele>
        <time>2020-12-16T13:07:37.000Z</time>
      </trkpt>
      <trkpt lat="45.28761" lon="6.14991">
        <ele>2282.3999023438</ele>
        <time>2020-12-16T13:07:41.000Z</time>
      </trkpt>
      <trkpt lat="45.2876" lon="6.14992">
        <ele>2282.3999023438</ele>
        <time>2020-12-16T13:07:42.000Z</time>
      </trkpt>
      <trkpt lat="45.28758" lon="6.14993">
        <ele>2282.1999511719</ele>
        <time>2020-12-16T13:07:44.000Z</time>
      </trkpt>
      <trkpt lat="45.28752" lon="6.14996">
        <ele>2282</ele>
        <time>2020-12-16T13:07:47.000Z</time>
      </trkpt>
      <trkpt lat="45.2875" lon="6.14998">
        <ele>2281</ele>
        <time>2020-12-16T13:07:50.000Z</time>
      </trkpt>
      <trkpt lat="45.28748" lon="6.15">
        <ele>2280.1999511719</ele>
        <time>2020-12-16T13:07:52.000Z</time>
      </trkpt>
      <trkpt lat="45.28747" lon="6.15002">
        <ele>2280</ele>
        <time>2020-12-16T13:07:53.000Z</time>
      </trkpt>
      <trkpt lat="45.28741" lon="6.15007">
        <ele>2279.8000488281</ele>
        <time>2020-12-16T13:07:55.000Z</time>
      </trkpt>
      <trkpt lat="45.28737" lon="6.15008">
        <ele>2279</ele>
        <time>2020-12-16T13:07:57.000Z</time>
      </trkpt>
      <trkpt lat="45.28737" lon="6.15008">
        <ele>2278.1999511719</ele>
        <time>2020-12-16T13:07:58.000Z</time>
      </trkpt>
      <trkpt lat="45.28737" lon="6.15008">
        <ele>2277.3999023438</ele>
        <time>2020-12-16T13:07:59.000Z</time>
      </trkpt>
      <trkpt lat="45.28737" lon="6.15008">
        <ele>2276</ele>
        <time>2020-12-16T13:08:01.000Z</time>
      </trkpt>
      <trkpt lat="45.28737" lon="6.15008">
        <ele>2275</ele>
        <time>2020-12-16T13:08:05.000Z</time>
      </trkpt>
      <trkpt lat="45.28736" lon="6.15009">
        <ele>2274.8000488281</ele>
        <time>2020-12-16T13:08:07.000Z</time>
      </trkpt>
      <trkpt lat="45.28735" lon="6.15011">
        <ele>2274.8000488281</ele>
        <time>2020-12-16T13:08:08.000Z</time>
      </trkpt>
      <trkpt lat="45.2873" lon="6.15013">
        <ele>2274.8000488281</ele>
        <time>2020-12-16T13:08:10.000Z</time>
      </trkpt>
      <trkpt lat="45.28726" lon="6.15016">
        <ele>2273.1999511719</ele>
        <time>2020-12-16T13:08:13.000Z</time>
      </trkpt>
      <trkpt lat="45.28725" lon="6.15019">
        <ele>2272.3999023438</ele>
        <time>2020-12-16T13:08:14.000Z</time>
      </trkpt>
      <trkpt lat="45.28725" lon="6.15024">
        <ele>2271.6000976562</ele>
        <time>2020-12-16T13:08:15.000Z</time>
      </trkpt>
      <trkpt lat="45.28724" lon="6.15035">
        <ele>2270.3999023438</ele>
        <time>2020-12-16T13:08:17.000Z</time>
      </trkpt>
      <trkpt lat="45.28726" lon="6.15039">
        <ele>2268.1999511719</ele>
        <time>2020-12-16T13:08:19.000Z</time>
      </trkpt>
      <trkpt lat="45.28727" lon="6.15039">
        <ele>2267</ele>
        <time>2020-12-16T13:08:20.000Z</time>
      </trkpt>
      <trkpt lat="45.28728" lon="6.1504">
        <ele>2265.6000976562</ele>
        <time>2020-12-16T13:08:21.000Z</time>
      </trkpt>
      <trkpt lat="45.28727" lon="6.1504">
        <ele>2264.6000976562</ele>
        <time>2020-12-16T13:08:22.000Z</time>
      </trkpt>
      <trkpt lat="45.28726" lon="6.15041">
        <ele>2263.6000976562</ele>
        <time>2020-12-16T13:08:23.000Z</time>
      </trkpt>
      <trkpt lat="45.28726" lon="6.15041">
        <ele>2262.8000488281</ele>
        <time>2020-12-16T13:08:24.000Z</time>
      </trkpt>
      <trkpt lat="45.28725" lon="6.15044">
        <ele>2261.8000488281</ele>
        <time>2020-12-16T13:08:25.000Z</time>
      </trkpt>
      <trkpt lat="45.28723" lon="6.15045">
        <ele>2261</ele>
        <time>2020-12-16T13:08:26.000Z</time>
      </trkpt>
      <trkpt lat="45.28724" lon="6.15047">
        <ele>2259</ele>
        <time>2020-12-16T13:08:28.000Z</time>
      </trkpt>
      <trkpt lat="45.28724" lon="6.1505">
        <ele>2258</ele>
        <time>2020-12-16T13:08:29.000Z</time>
      </trkpt>
      <trkpt lat="45.28722" lon="6.15052">
        <ele>2256.8000488281</ele>
        <time>2020-12-16T13:08:30.000Z</time>
      </trkpt>
      <trkpt lat="45.28721" lon="6.15053">
        <ele>2255.6000976562</ele>
        <time>2020-12-16T13:08:31.000Z</time>
      </trkpt>
      <trkpt lat="45.2872" lon="6.15054">
        <ele>2254.3999023438</ele>
        <time>2020-12-16T13:08:32.000Z</time>
      </trkpt>
      <trkpt lat="45.28721" lon="6.15055">
        <ele>2253</ele>
        <time>2020-12-16T13:08:33.000Z</time>
      </trkpt>
      <trkpt lat="45.2872" lon="6.15055">
        <ele>2251.6000976562</ele>
        <time>2020-12-16T13:08:34.000Z</time>
      </trkpt>
      <trkpt lat="45.28721" lon="6.15057">
        <ele>2250.3999023438</ele>
        <time>2020-12-16T13:08:35.000Z</time>
      </trkpt>
      <trkpt lat="45.28722" lon="6.15059">
        <ele>2249.3999023438</ele>
        <time>2020-12-16T13:08:36.000Z</time>
      </trkpt>
      <trkpt lat="45.28721" lon="6.15062">
        <ele>2247.8000488281</ele>
        <time>2020-12-16T13:08:37.000Z</time>
      </trkpt>
      <trkpt lat="45.28721" lon="6.15066">
        <ele>2246.1999511719</ele>
        <time>2020-12-16T13:08:39.000Z</time>
      </trkpt>
      <trkpt lat="45.2872" lon="6.15068">
        <ele>2244.1999511719</ele>
        <time>2020-12-16T13:08:41.000Z</time>
      </trkpt>
      <trkpt lat="45.2872" lon="6.1507">
        <ele>2243.1999511719</ele>
        <time>2020-12-16T13:08:42.000Z</time>
      </trkpt>
      <trkpt lat="45.2872" lon="6.15071">
        <ele>2242.3999023438</ele>
        <time>2020-12-16T13:08:43.000Z</time>
      </trkpt>
      <trkpt lat="45.28719" lon="6.15072">
        <ele>2241.1999511719</ele>
        <time>2020-12-16T13:08:45.000Z</time>
      </trkpt>
      <trkpt lat="45.28719" lon="6.15073">
        <ele>2240.8000488281</ele>
        <time>2020-12-16T13:08:49.000Z</time>
      </trkpt>
      <trkpt lat="45.28718" lon="6.15079">
        <ele>2240.8000488281</ele>
        <time>2020-12-16T13:08:51.000Z</time>
      </trkpt>
      <trkpt lat="45.28719" lon="6.15083">
        <ele>2240.8000488281</ele>
        <time>2020-12-16T13:08:52.000Z</time>
      </trkpt>
      <trkpt lat="45.2872" lon="6.15081">
        <ele>2240.1999511719</ele>
        <time>2020-12-16T13:08:55.000Z</time>
      </trkpt>
      <trkpt lat="45.2872" lon="6.15084">
        <ele>2239.6000976562</ele>
        <time>2020-12-16T13:08:56.000Z</time>
      </trkpt>
      <trkpt lat="45.2872" lon="6.15088">
        <ele>2238.8000488281</ele>
        <time>2020-12-16T13:08:57.000Z</time>
      </trkpt>
      <trkpt lat="45.28718" lon="6.15089">
        <ele>2238.1999511719</ele>
        <time>2020-12-16T13:08:58.000Z</time>
      </trkpt>
      <trkpt lat="45.28717" lon="6.15089">
        <ele>2237.6000976562</ele>
        <time>2020-12-16T13:08:59.000Z</time>
      </trkpt>
      <trkpt lat="45.28717" lon="6.15088">
        <ele>2236.1999511719</ele>
        <time>2020-12-16T13:09:01.000Z</time>
      </trkpt>
      <trkpt lat="45.28716" lon="6.15089">
        <ele>2235.8000488281</ele>
        <time>2020-12-16T13:09:02.000Z</time>
      </trkpt>
      <trkpt lat="45.28717" lon="6.15091">
        <ele>2235</ele>
        <time>2020-12-16T13:09:04.000Z</time>
      </trkpt>
      <trkpt lat="45.28718" lon="6.15094">
        <ele>2234.6000976562</ele>
        <time>2020-12-16T13:09:05.000Z</time>
      </trkpt>
      <trkpt lat="45.2872" lon="6.15105">
        <ele>2233.8000488281</ele>
        <time>2020-12-16T13:09:07.000Z</time>
      </trkpt>
      <trkpt lat="45.28723" lon="6.15114">
        <ele>2232</ele>
        <time>2020-12-16T13:09:09.000Z</time>
      </trkpt>
      <trkpt lat="45.28723" lon="6.15116">
        <ele>2230.8000488281</ele>
        <time>2020-12-16T13:09:10.000Z</time>
      </trkpt>
      <trkpt lat="45.28723" lon="6.1512">
        <ele>2229.6000976562</ele>
        <time>2020-12-16T13:09:11.000Z</time>
      </trkpt>
      <trkpt lat="45.28722" lon="6.15125">
        <ele>2228.6000976562</ele>
        <time>2020-12-16T13:09:12.000Z</time>
      </trkpt>
      <trkpt lat="45.28721" lon="6.15127">
        <ele>2228</ele>
        <time>2020-12-16T13:09:13.000Z</time>
      </trkpt>
      <trkpt lat="45.2872" lon="6.15128">
        <ele>2226.6000976562</ele>
        <time>2020-12-16T13:09:15.000Z</time>
      </trkpt>
      <trkpt lat="45.28717" lon="6.15126">
        <ele>2225.8000488281</ele>
        <time>2020-12-16T13:09:16.000Z</time>
      </trkpt>
      <trkpt lat="45.28714" lon="6.15123">
        <ele>2225</ele>
        <time>2020-12-16T13:09:17.000Z</time>
      </trkpt>
      <trkpt lat="45.28706" lon="6.15121">
        <ele>2223.3999023438</ele>
        <time>2020-12-16T13:09:19.000Z</time>
      </trkpt>
      <trkpt lat="45.28702" lon="6.15121">
        <ele>2222.6000976562</ele>
        <time>2020-12-16T13:09:20.000Z</time>
      </trkpt>
      <trkpt lat="45.28697" lon="6.1512">
        <ele>2221.8000488281</ele>
        <time>2020-12-16T13:09:21.000Z</time>
      </trkpt>
      <trkpt lat="45.28689" lon="6.15119">
        <ele>2220.6000976562</ele>
        <time>2020-12-16T13:09:23.000Z</time>
      </trkpt>
      <trkpt lat="45.28687" lon="6.15117">
        <ele>2220</ele>
        <time>2020-12-16T13:09:24.000Z</time>
      </trkpt>
      <trkpt lat="45.28683" lon="6.15116">
        <ele>2219.1999511719</ele>
        <time>2020-12-16T13:09:25.000Z</time>
      </trkpt>
      <trkpt lat="45.28671" lon="6.15114">
        <ele>2218.1999511719</ele>
        <time>2020-12-16T13:09:29.000Z</time>
      </trkpt>
      <trkpt lat="45.28668" lon="6.15117">
        <ele>2217.1999511719</ele>
        <time>2020-12-16T13:09:33.000Z</time>
      </trkpt>
      <trkpt lat="45.28668" lon="6.15117">
        <ele>2217</ele>
        <time>2020-12-16T13:09:34.000Z</time>
      </trkpt>
      <trkpt lat="45.28665" lon="6.15118">
        <ele>2217</ele>
        <time>2020-12-16T13:09:38.000Z</time>
      </trkpt>
      <trkpt lat="45.28663" lon="6.15119">
        <ele>2217</ele>
        <time>2020-12-16T13:09:40.000Z</time>
      </trkpt>
      <trkpt lat="45.28659" lon="6.1512">
        <ele>2217</ele>
        <time>2020-12-16T13:09:42.000Z</time>
      </trkpt>
      <trkpt lat="45.28652" lon="6.15121">
        <ele>2216.8000488281</ele>
        <time>2020-12-16T13:09:45.000Z</time>
      </trkpt>
      <trkpt lat="45.28644" lon="6.1512">
        <ele>2216</ele>
        <time>2020-12-16T13:09:49.000Z</time>
      </trkpt>
      <trkpt lat="45.28641" lon="6.15117">
        <ele>2215.8000488281</ele>
        <time>2020-12-16T13:09:50.000Z</time>
      </trkpt>
      <trkpt lat="45.28635" lon="6.15105">
        <ele>2214.8000488281</ele>
        <time>2020-12-16T13:09:53.000Z</time>
      </trkpt>
      <trkpt lat="45.28631" lon="6.15105">
        <ele>2213.8000488281</ele>
        <time>2020-12-16T13:09:55.000Z</time>
      </trkpt>
      <trkpt lat="45.28627" lon="6.15109">
        <ele>2212.6000976562</ele>
        <time>2020-12-16T13:09:57.000Z</time>
      </trkpt>
      <trkpt lat="45.2862" lon="6.15114">
        <ele>2211.8000488281</ele>
        <time>2020-12-16T13:09:59.000Z</time>
      </trkpt>
      <trkpt lat="45.28617" lon="6.15116">
        <ele>2211.3999023438</ele>
        <time>2020-12-16T13:10:00.000Z</time>
      </trkpt>
      <trkpt lat="45.28614" lon="6.15118">
        <ele>2210.3999023438</ele>
        <time>2020-12-16T13:10:02.000Z</time>
      </trkpt>
      <trkpt lat="45.28614" lon="6.15118">
        <ele>2209.8000488281</ele>
        <time>2020-12-16T13:10:03.000Z</time>
      </trkpt>
      <trkpt lat="45.28614" lon="6.15119">
        <ele>2208.3999023438</ele>
        <time>2020-12-16T13:10:06.000Z</time>
      </trkpt>
      <trkpt lat="45.28614" lon="6.15121">
        <ele>2208</ele>
        <time>2020-12-16T13:10:08.000Z</time>
      </trkpt>
      <trkpt lat="45.28614" lon="6.15122">
        <ele>2207.3999023438</ele>
        <time>2020-12-16T13:10:10.000Z</time>
      </trkpt>
      <trkpt lat="45.28614" lon="6.15122">
        <ele>2207</ele>
        <time>2020-12-16T13:10:16.000Z</time>
      </trkpt>
      <trkpt lat="45.28614" lon="6.15122">
        <ele>2207</ele>
        <time>2020-12-16T13:10:25.000Z</time>
      </trkpt>
      <trkpt lat="45.28614" lon="6.15121">
        <ele>2206.6000976562</ele>
        <time>2020-12-16T13:10:33.000Z</time>
      </trkpt>
      <trkpt lat="45.28614" lon="6.15121">
        <ele>2206.3999023438</ele>
        <time>2020-12-16T13:10:36.000Z</time>
      </trkpt>
      <trkpt lat="45.28614" lon="6.15121">
        <ele>2205.8000488281</ele>
        <time>2020-12-16T13:10:50.000Z</time>
      </trkpt>
      <trkpt lat="45.28614" lon="6.15121">
        <ele>2206.1999511719</ele>
        <time>2020-12-16T13:11:08.000Z</time>
      </trkpt>
      <trkpt lat="45.28617" lon="6.15118">
        <ele>2206.3999023438</ele>
        <time>2020-12-16T13:11:32.000Z</time>
      </trkpt>
      <trkpt lat="45.28617" lon="6.15117">
        <ele>2206.3999023438</ele>
        <time>2020-12-16T13:11:47.000Z</time>
      </trkpt>
      <trkpt lat="45.28617" lon="6.15117">
        <ele>2206.8000488281</ele>
        <time>2020-12-16T13:11:55.000Z</time>
      </trkpt>
      <trkpt lat="45.28618" lon="6.15119">
        <ele>2206.6000976562</ele>
        <time>2020-12-16T13:12:01.000Z</time>
      </trkpt>
      <trkpt lat="45.28618" lon="6.15119">
        <ele>2207.3999023438</ele>
        <time>2020-12-16T13:12:05.000Z</time>
      </trkpt>
      <trkpt lat="45.28618" lon="6.15119">
        <ele>2207</ele>
        <time>2020-12-16T13:12:10.000Z</time>
      </trkpt>
      <trkpt lat="45.28618" lon="6.15119">
        <ele>2207.3999023438</ele>
        <time>2020-12-16T13:12:18.000Z</time>
      </trkpt>
      <trkpt lat="45.28618" lon="6.15119">
        <ele>2207.3999023438</ele>
        <time>2020-12-16T13:12:31.000Z</time>
      </trkpt>
      <trkpt lat="45.28618" lon="6.15119">
        <ele>2207.1999511719</ele>
        <time>2020-12-16T13:12:39.000Z</time>
      </trkpt>
      <trkpt lat="45.28618" lon="6.15119">
        <ele>2207.3999023438</ele>
        <time>2020-12-16T13:12:56.000Z</time>
      </trkpt>
      <trkpt lat="45.28618" lon="6.15119">
        <ele>2207.1999511719</ele>
        <time>2020-12-16T13:13:10.000Z</time>
      </trkpt>
      <trkpt lat="45.28618" lon="6.15119">
        <ele>2207.3999023438</ele>
        <time>2020-12-16T13:13:23.000Z</time>
      </trkpt>
      <trkpt lat="45.28618" lon="6.15119">
        <ele>2206.8000488281</ele>
        <time>2020-12-16T13:13:37.000Z</time>
      </trkpt>
      <trkpt lat="45.28618" lon="6.15119">
        <ele>2207.3999023438</ele>
        <time>2020-12-16T13:13:52.000Z</time>
      </trkpt>
      <trkpt lat="45.28617" lon="6.15119">
        <ele>2207.1999511719</ele>
        <time>2020-12-16T13:14:05.000Z</time>
      </trkpt>
      <trkpt lat="45.28617" lon="6.15119">
        <ele>2207.3999023438</ele>
        <time>2020-12-16T13:14:15.000Z</time>
      </trkpt>
      <trkpt lat="45.28617" lon="6.15119">
        <ele>2207.3999023438</ele>
        <time>2020-12-16T13:14:25.000Z</time>
      </trkpt>
      <trkpt lat="45.28616" lon="6.15122">
        <ele>2207.3999023438</ele>
        <time>2020-12-16T13:14:30.000Z</time>
      </trkpt>
      <trkpt lat="45.2861" lon="6.15134">
        <ele>2207.1999511719</ele>
        <time>2020-12-16T13:14:34.000Z</time>
      </trkpt>
      <trkpt lat="45.28605" lon="6.15138">
        <ele>2206.3999023438</ele>
        <time>2020-12-16T13:14:37.000Z</time>
      </trkpt>
      <trkpt lat="45.28603" lon="6.1514">
        <ele>2206</ele>
        <time>2020-12-16T13:14:38.000Z</time>
      </trkpt>
      <trkpt lat="45.28601" lon="6.1514">
        <ele>2205.6000976562</ele>
        <time>2020-12-16T13:14:39.000Z</time>
      </trkpt>
      <trkpt lat="45.286" lon="6.15141">
        <ele>2205</ele>
        <time>2020-12-16T13:14:40.000Z</time>
      </trkpt>
      <trkpt lat="45.28599" lon="6.15143">
        <ele>2204.6000976562</ele>
        <time>2020-12-16T13:14:41.000Z</time>
      </trkpt>
      <trkpt lat="45.28591" lon="6.15148">
        <ele>2203.6000976562</ele>
        <time>2020-12-16T13:14:43.000Z</time>
      </trkpt>
      <trkpt lat="45.28583" lon="6.15151">
        <ele>2202.3999023438</ele>
        <time>2020-12-16T13:14:45.000Z</time>
      </trkpt>
      <trkpt lat="45.28578" lon="6.15153">
        <ele>2201.1999511719</ele>
        <time>2020-12-16T13:14:47.000Z</time>
      </trkpt>
      <trkpt lat="45.28574" lon="6.15157">
        <ele>2200</ele>
        <time>2020-12-16T13:14:49.000Z</time>
      </trkpt>
      <trkpt lat="45.28573" lon="6.15159">
        <ele>2199.1999511719</ele>
        <time>2020-12-16T13:14:50.000Z</time>
      </trkpt>
      <trkpt lat="45.28573" lon="6.15162">
        <ele>2198.6000976562</ele>
        <time>2020-12-16T13:14:51.000Z</time>
      </trkpt>
      <trkpt lat="45.2857" lon="6.15162">
        <ele>2197.3999023438</ele>
        <time>2020-12-16T13:14:54.000Z</time>
      </trkpt>
      <trkpt lat="45.2857" lon="6.15165">
        <ele>2196.6000976562</ele>
        <time>2020-12-16T13:14:56.000Z</time>
      </trkpt>
      <trkpt lat="45.2857" lon="6.15167">
        <ele>2196.1999511719</ele>
        <time>2020-12-16T13:14:57.000Z</time>
      </trkpt>
      <trkpt lat="45.28567" lon="6.15173">
        <ele>2194.8000488281</ele>
        <time>2020-12-16T13:15:00.000Z</time>
      </trkpt>
      <trkpt lat="45.28563" lon="6.15175">
        <ele>2193.6000976562</ele>
        <time>2020-12-16T13:15:01.000Z</time>
      </trkpt>
      <trkpt lat="45.28559" lon="6.15177">
        <ele>2193</ele>
        <time>2020-12-16T13:15:02.000Z</time>
      </trkpt>
      <trkpt lat="45.28555" lon="6.15179">
        <ele>2192.3999023438</ele>
        <time>2020-12-16T13:15:03.000Z</time>
      </trkpt>
      <trkpt lat="45.28553" lon="6.15178">
        <ele>2191.1999511719</ele>
        <time>2020-12-16T13:15:05.000Z</time>
      </trkpt>
      <trkpt lat="45.28553" lon="6.15178">
        <ele>2190</ele>
        <time>2020-12-16T13:15:07.000Z</time>
      </trkpt>
      <trkpt lat="45.28553" lon="6.15178">
        <ele>2188.8000488281</ele>
        <time>2020-12-16T13:15:10.000Z</time>
      </trkpt>
      <trkpt lat="45.28553" lon="6.15178">
        <ele>2188.1999511719</ele>
        <time>2020-12-16T13:15:12.000Z</time>
      </trkpt>
      <trkpt lat="45.28553" lon="6.1518">
        <ele>2188</ele>
        <time>2020-12-16T13:15:15.000Z</time>
      </trkpt>
      <trkpt lat="45.28549" lon="6.15181">
        <ele>2188</ele>
        <time>2020-12-16T13:15:17.000Z</time>
      </trkpt>
      <trkpt lat="45.28537" lon="6.15188">
        <ele>2187.8000488281</ele>
        <time>2020-12-16T13:15:21.000Z</time>
      </trkpt>
      <trkpt lat="45.28535" lon="6.15191">
        <ele>2187.3999023438</ele>
        <time>2020-12-16T13:15:22.000Z</time>
      </trkpt>
      <trkpt lat="45.28532" lon="6.15193">
        <ele>2186.8000488281</ele>
        <time>2020-12-16T13:15:24.000Z</time>
      </trkpt>
      <trkpt lat="45.28532" lon="6.15194">
        <ele>2185.8000488281</ele>
        <time>2020-12-16T13:15:25.000Z</time>
      </trkpt>
      <trkpt lat="45.28532" lon="6.15194">
        <ele>2184.6000976562</ele>
        <time>2020-12-16T13:15:28.000Z</time>
      </trkpt>
      <trkpt lat="45.28532" lon="6.15194">
        <ele>2183.8000488281</ele>
        <time>2020-12-16T13:15:33.000Z</time>
      </trkpt>
      <trkpt lat="45.28531" lon="6.15196">
        <ele>2183.6000976562</ele>
        <time>2020-12-16T13:15:35.000Z</time>
      </trkpt>
      <trkpt lat="45.28528" lon="6.15203">
        <ele>2183.6000976562</ele>
        <time>2020-12-16T13:15:37.000Z</time>
      </trkpt>
      <trkpt lat="45.28525" lon="6.15206">
        <ele>2183.6000976562</ele>
        <time>2020-12-16T13:15:39.000Z</time>
      </trkpt>
      <trkpt lat="45.28525" lon="6.15206">
        <ele>2183.3999023438</ele>
        <time>2020-12-16T13:15:40.000Z</time>
      </trkpt>
      <trkpt lat="45.28525" lon="6.15206">
        <ele>2182.1999511719</ele>
        <time>2020-12-16T13:15:42.000Z</time>
      </trkpt>
      <trkpt lat="45.2852" lon="6.15208">
        <ele>2180.8000488281</ele>
        <time>2020-12-16T13:15:44.000Z</time>
      </trkpt>
      <trkpt lat="45.28514" lon="6.15204">
        <ele>2179.8000488281</ele>
        <time>2020-12-16T13:15:46.000Z</time>
      </trkpt>
      <trkpt lat="45.28514" lon="6.15203">
        <ele>2179.3999023438</ele>
        <time>2020-12-16T13:15:47.000Z</time>
      </trkpt>
      <trkpt lat="45.28513" lon="6.15202">
        <ele>2178</ele>
        <time>2020-12-16T13:15:49.000Z</time>
      </trkpt>
      <trkpt lat="45.28513" lon="6.15202">
        <ele>2176.6000976562</ele>
        <time>2020-12-16T13:15:51.000Z</time>
      </trkpt>
      <trkpt lat="45.28512" lon="6.15202">
        <ele>2175.8000488281</ele>
        <time>2020-12-16T13:15:52.000Z</time>
      </trkpt>
      <trkpt lat="45.28511" lon="6.15205">
        <ele>2175.3999023438</ele>
        <time>2020-12-16T13:15:53.000Z</time>
      </trkpt>
      <trkpt lat="45.28511" lon="6.15211">
        <ele>2175</ele>
        <time>2020-12-16T13:15:54.000Z</time>
      </trkpt>
      <trkpt lat="45.28513" lon="6.15221">
        <ele>2174.1999511719</ele>
        <time>2020-12-16T13:15:56.000Z</time>
      </trkpt>
      <trkpt lat="45.28514" lon="6.15223">
        <ele>2173.6000976562</ele>
        <time>2020-12-16T13:15:57.000Z</time>
      </trkpt>
      <trkpt lat="45.28514" lon="6.15223">
        <ele>2172.8000488281</ele>
        <time>2020-12-16T13:15:58.000Z</time>
      </trkpt>
      <trkpt lat="45.28514" lon="6.15223">
        <ele>2171</ele>
        <time>2020-12-16T13:16:00.000Z</time>
      </trkpt>
      <trkpt lat="45.28512" lon="6.15225">
        <ele>2170.1999511719</ele>
        <time>2020-12-16T13:16:01.000Z</time>
      </trkpt>
      <trkpt lat="45.28508" lon="6.15225">
        <ele>2169.6000976562</ele>
        <time>2020-12-16T13:16:02.000Z</time>
      </trkpt>
      <trkpt lat="45.28504" lon="6.15224">
        <ele>2169.1999511719</ele>
        <time>2020-12-16T13:16:03.000Z</time>
      </trkpt>
      <trkpt lat="45.28495" lon="6.15221">
        <ele>2168.3999023438</ele>
        <time>2020-12-16T13:16:05.000Z</time>
      </trkpt>
      <trkpt lat="45.28493" lon="6.1522">
        <ele>2167.6000976562</ele>
        <time>2020-12-16T13:16:07.000Z</time>
      </trkpt>
      <trkpt lat="45.28493" lon="6.1522">
        <ele>2167</ele>
        <time>2020-12-16T13:16:08.000Z</time>
      </trkpt>
      <trkpt lat="45.28492" lon="6.15221">
        <ele>2166.1999511719</ele>
        <time>2020-12-16T13:16:09.000Z</time>
      </trkpt>
      <trkpt lat="45.2849" lon="6.15223">
        <ele>2165.6000976562</ele>
        <time>2020-12-16T13:16:10.000Z</time>
      </trkpt>
      <trkpt lat="45.2849" lon="6.15228">
        <ele>2164.8000488281</ele>
        <time>2020-12-16T13:16:11.000Z</time>
      </trkpt>
      <trkpt lat="45.28489" lon="6.15232">
        <ele>2164.1999511719</ele>
        <time>2020-12-16T13:16:12.000Z</time>
      </trkpt>
      <trkpt lat="45.28489" lon="6.15235">
        <ele>2163</ele>
        <time>2020-12-16T13:16:13.000Z</time>
      </trkpt>
      <trkpt lat="45.28489" lon="6.1524">
        <ele>2162.3999023438</ele>
        <time>2020-12-16T13:16:14.000Z</time>
      </trkpt>
      <trkpt lat="45.28487" lon="6.15244">
        <ele>2161.8000488281</ele>
        <time>2020-12-16T13:16:15.000Z</time>
      </trkpt>
      <trkpt lat="45.28481" lon="6.1525">
        <ele>2160.1999511719</ele>
        <time>2020-12-16T13:16:17.000Z</time>
      </trkpt>
      <trkpt lat="45.28475" lon="6.15251">
        <ele>2158.6000976562</ele>
        <time>2020-12-16T13:16:19.000Z</time>
      </trkpt>
      <trkpt lat="45.28467" lon="6.15251">
        <ele>2157.1999511719</ele>
        <time>2020-12-16T13:16:21.000Z</time>
      </trkpt>
      <trkpt lat="45.28457" lon="6.15253">
        <ele>2155.8000488281</ele>
        <time>2020-12-16T13:16:23.000Z</time>
      </trkpt>
      <trkpt lat="45.28454" lon="6.15254">
        <ele>2155.1999511719</ele>
        <time>2020-12-16T13:16:24.000Z</time>
      </trkpt>
      <trkpt lat="45.2845" lon="6.15254">
        <ele>2154.6000976562</ele>
        <time>2020-12-16T13:16:25.000Z</time>
      </trkpt>
      <trkpt lat="45.2845" lon="6.15254">
        <ele>2153.1999511719</ele>
        <time>2020-12-16T13:16:27.000Z</time>
      </trkpt>
      <trkpt lat="45.28451" lon="6.15254">
        <ele>2152</ele>
        <time>2020-12-16T13:16:29.000Z</time>
      </trkpt>
      <trkpt lat="45.28451" lon="6.15256">
        <ele>2151.3999023438</ele>
        <time>2020-12-16T13:16:30.000Z</time>
      </trkpt>
      <trkpt lat="45.28448" lon="6.15263">
        <ele>2150.8000488281</ele>
        <time>2020-12-16T13:16:32.000Z</time>
      </trkpt>
      <trkpt lat="45.28452" lon="6.15275">
        <ele>2150.1999511719</ele>
        <time>2020-12-16T13:16:35.000Z</time>
      </trkpt>
      <trkpt lat="45.28448" lon="6.15283">
        <ele>2148.6000976562</ele>
        <time>2020-12-16T13:16:37.000Z</time>
      </trkpt>
      <trkpt lat="45.28446" lon="6.1529">
        <ele>2146.8000488281</ele>
        <time>2020-12-16T13:16:39.000Z</time>
      </trkpt>
      <trkpt lat="45.28448" lon="6.15294">
        <ele>2145.6000976562</ele>
        <time>2020-12-16T13:16:40.000Z</time>
      </trkpt>
      <trkpt lat="45.2845" lon="6.15298">
        <ele>2144.6000976562</ele>
        <time>2020-12-16T13:16:41.000Z</time>
      </trkpt>
      <trkpt lat="45.28452" lon="6.153">
        <ele>2143.3999023438</ele>
        <time>2020-12-16T13:16:42.000Z</time>
      </trkpt>
      <trkpt lat="45.28454" lon="6.15306">
        <ele>2141.6000976562</ele>
        <time>2020-12-16T13:16:44.000Z</time>
      </trkpt>
      <trkpt lat="45.28455" lon="6.15309">
        <ele>2140.8000488281</ele>
        <time>2020-12-16T13:16:45.000Z</time>
      </trkpt>
      <trkpt lat="45.28455" lon="6.15313">
        <ele>2140</ele>
        <time>2020-12-16T13:16:46.000Z</time>
      </trkpt>
      <trkpt lat="45.28453" lon="6.15317">
        <ele>2139.6000976562</ele>
        <time>2020-12-16T13:16:47.000Z</time>
      </trkpt>
      <trkpt lat="45.28451" lon="6.15321">
        <ele>2139</ele>
        <time>2020-12-16T13:16:48.000Z</time>
      </trkpt>
      <trkpt lat="45.28449" lon="6.15323">
        <ele>2138.6000976562</ele>
        <time>2020-12-16T13:16:49.000Z</time>
      </trkpt>
      <trkpt lat="45.28443" lon="6.15326">
        <ele>2137.3999023438</ele>
        <time>2020-12-16T13:16:51.000Z</time>
      </trkpt>
      <trkpt lat="45.28444" lon="6.15332">
        <ele>2136</ele>
        <time>2020-12-16T13:16:53.000Z</time>
      </trkpt>
      <trkpt lat="45.28444" lon="6.15339">
        <ele>2134</ele>
        <time>2020-12-16T13:16:55.000Z</time>
      </trkpt>
      <trkpt lat="45.28445" lon="6.15342">
        <ele>2133</ele>
        <time>2020-12-16T13:16:56.000Z</time>
      </trkpt>
      <trkpt lat="45.28445" lon="6.15345">
        <ele>2131.8000488281</ele>
        <time>2020-12-16T13:16:57.000Z</time>
      </trkpt>
      <trkpt lat="45.28445" lon="6.15348">
        <ele>2130.8000488281</ele>
        <time>2020-12-16T13:16:58.000Z</time>
      </trkpt>
      <trkpt lat="45.28445" lon="6.15353">
        <ele>2129.3999023438</ele>
        <time>2020-12-16T13:17:00.000Z</time>
      </trkpt>
      <trkpt lat="45.28445" lon="6.15351">
        <ele>2129</ele>
        <time>2020-12-16T13:17:02.000Z</time>
      </trkpt>
      <trkpt lat="45.28448" lon="6.15337">
        <ele>2129</ele>
        <time>2020-12-16T13:17:08.000Z</time>
      </trkpt>
      <trkpt lat="45.28451" lon="6.15322">
        <ele>2129.3999023438</ele>
        <time>2020-12-16T13:17:15.000Z</time>
      </trkpt>
      <trkpt lat="45.28452" lon="6.1533">
        <ele>2129.8000488281</ele>
        <time>2020-12-16T13:17:24.000Z</time>
      </trkpt>
      <trkpt lat="45.28457" lon="6.15335">
        <ele>2128.6000976562</ele>
        <time>2020-12-16T13:17:28.000Z</time>
      </trkpt>
      <trkpt lat="45.28457" lon="6.15335">
        <ele>2127.8000488281</ele>
        <time>2020-12-16T13:17:29.000Z</time>
      </trkpt>
      <trkpt lat="45.28457" lon="6.15335">
        <ele>2126.6000976562</ele>
        <time>2020-12-16T13:17:31.000Z</time>
      </trkpt>
      <trkpt lat="45.28457" lon="6.15335">
        <ele>2125.8000488281</ele>
        <time>2020-12-16T13:17:36.000Z</time>
      </trkpt>
      <trkpt lat="45.28457" lon="6.15335">
        <ele>2125.6000976562</ele>
        <time>2020-12-16T13:17:48.000Z</time>
      </trkpt>
      <trkpt lat="45.28457" lon="6.15335">
        <ele>2125.6000976562</ele>
        <time>2020-12-16T13:17:49.000Z</time>
      </trkpt>
      <trkpt lat="45.28457" lon="6.15335">
        <ele>2125.6000976562</ele>
        <time>2020-12-16T13:18:02.000Z</time>
      </trkpt>
      <trkpt lat="45.28456" lon="6.15336">
        <ele>2125.3999023438</ele>
        <time>2020-12-16T13:18:08.000Z</time>
      </trkpt>
      <trkpt lat="45.28454" lon="6.15338">
        <ele>2125.3999023438</ele>
        <time>2020-12-16T13:18:10.000Z</time>
      </trkpt>
      <trkpt lat="45.2845" lon="6.1534">
        <ele>2125.3999023438</ele>
        <time>2020-12-16T13:18:12.000Z</time>
      </trkpt>
      <trkpt lat="45.28446" lon="6.15343">
        <ele>2124.3999023438</ele>
        <time>2020-12-16T13:18:15.000Z</time>
      </trkpt>
      <trkpt lat="45.28447" lon="6.15347">
        <ele>2123.3999023438</ele>
        <time>2020-12-16T13:18:17.000Z</time>
      </trkpt>
      <trkpt lat="45.28447" lon="6.15347">
        <ele>2122.8000488281</ele>
        <time>2020-12-16T13:18:18.000Z</time>
      </trkpt>
      <trkpt lat="45.28447" lon="6.15347">
        <ele>2121</ele>
        <time>2020-12-16T13:18:20.000Z</time>
      </trkpt>
      <trkpt lat="45.28447" lon="6.15347">
        <ele>2119.6000976562</ele>
        <time>2020-12-16T13:18:22.000Z</time>
      </trkpt>
      <trkpt lat="45.28447" lon="6.15348">
        <ele>2118.3999023438</ele>
        <time>2020-12-16T13:18:25.000Z</time>
      </trkpt>
      <trkpt lat="45.28446" lon="6.15347">
        <ele>2118.1999511719</ele>
        <time>2020-12-16T13:18:28.000Z</time>
      </trkpt>
      <trkpt lat="45.28446" lon="6.15348">
        <ele>2118.1999511719</ele>
        <time>2020-12-16T13:18:40.000Z</time>
      </trkpt>
      <trkpt lat="45.28448" lon="6.15354">
        <ele>2118.1999511719</ele>
        <time>2020-12-16T13:18:44.000Z</time>
      </trkpt>
      <trkpt lat="45.28447" lon="6.15358">
        <ele>2117.8000488281</ele>
        <time>2020-12-16T13:18:49.000Z</time>
      </trkpt>
      <trkpt lat="45.28448" lon="6.15361">
        <ele>2117.3999023438</ele>
        <time>2020-12-16T13:18:52.000Z</time>
      </trkpt>
      <trkpt lat="45.28448" lon="6.15361">
        <ele>2117</ele>
        <time>2020-12-16T13:18:53.000Z</time>
      </trkpt>
      <trkpt lat="45.28447" lon="6.15365">
        <ele>2116.3999023438</ele>
        <time>2020-12-16T13:18:55.000Z</time>
      </trkpt>
      <trkpt lat="45.28447" lon="6.1537">
        <ele>2116.3999023438</ele>
        <time>2020-12-16T13:18:56.000Z</time>
      </trkpt>
      <trkpt lat="45.28447" lon="6.15375">
        <ele>2116.1999511719</ele>
        <time>2020-12-16T13:18:57.000Z</time>
      </trkpt>
      <trkpt lat="45.28447" lon="6.15379">
        <ele>2114.6000976562</ele>
        <time>2020-12-16T13:19:00.000Z</time>
      </trkpt>
      <trkpt lat="45.28447" lon="6.15379">
        <ele>2112.3999023438</ele>
        <time>2020-12-16T13:19:01.000Z</time>
      </trkpt>
      <trkpt lat="45.28447" lon="6.15379">
        <ele>2111.3999023438</ele>
        <time>2020-12-16T13:19:02.000Z</time>
      </trkpt>
      <trkpt lat="45.28447" lon="6.15379">
        <ele>2110</ele>
        <time>2020-12-16T13:19:04.000Z</time>
      </trkpt>
      <trkpt lat="45.28447" lon="6.15379">
        <ele>2109</ele>
        <time>2020-12-16T13:19:10.000Z</time>
      </trkpt>
      <trkpt lat="45.28447" lon="6.1538">
        <ele>2109.1999511719</ele>
        <time>2020-12-16T13:19:15.000Z</time>
      </trkpt>
      <trkpt lat="45.28447" lon="6.15381">
        <ele>2109.1999511719</ele>
        <time>2020-12-16T13:19:20.000Z</time>
      </trkpt>
      <trkpt lat="45.28445" lon="6.15381">
        <ele>2109.8000488281</ele>
        <time>2020-12-16T13:19:28.000Z</time>
      </trkpt>
      <trkpt lat="45.28445" lon="6.15381">
        <ele>2109.6000976562</ele>
        <time>2020-12-16T13:19:34.000Z</time>
      </trkpt>
      <trkpt lat="45.28444" lon="6.15382">
        <ele>2109.3999023438</ele>
        <time>2020-12-16T13:19:35.000Z</time>
      </trkpt>
      <trkpt lat="45.28442" lon="6.15387">
        <ele>2109.3999023438</ele>
        <time>2020-12-16T13:19:38.000Z</time>
      </trkpt>
      <trkpt lat="45.28441" lon="6.1539">
        <ele>2109</ele>
        <time>2020-12-16T13:19:39.000Z</time>
      </trkpt>
      <trkpt lat="45.2844" lon="6.15393">
        <ele>2108.8000488281</ele>
        <time>2020-12-16T13:19:40.000Z</time>
      </trkpt>
      <trkpt lat="45.28434" lon="6.15403">
        <ele>2107.3999023438</ele>
        <time>2020-12-16T13:19:43.000Z</time>
      </trkpt>
      <trkpt lat="45.28427" lon="6.15411">
        <ele>2106.1999511719</ele>
        <time>2020-12-16T13:19:45.000Z</time>
      </trkpt>
      <trkpt lat="45.28421" lon="6.15423">
        <ele>2104.8000488281</ele>
        <time>2020-12-16T13:19:47.000Z</time>
      </trkpt>
      <trkpt lat="45.28418" lon="6.15427">
        <ele>2104.1999511719</ele>
        <time>2020-12-16T13:19:48.000Z</time>
      </trkpt>
      <trkpt lat="45.28417" lon="6.15431">
        <ele>2103.6000976562</ele>
        <time>2020-12-16T13:19:49.000Z</time>
      </trkpt>
      <trkpt lat="45.28416" lon="6.15434">
        <ele>2102.6000976562</ele>
        <time>2020-12-16T13:19:51.000Z</time>
      </trkpt>
      <trkpt lat="45.28416" lon="6.15434">
        <ele>2102.3999023438</ele>
        <time>2020-12-16T13:20:02.000Z</time>
      </trkpt>
      <trkpt lat="45.28416" lon="6.15434">
        <ele>2102.6000976562</ele>
        <time>2020-12-16T13:20:11.000Z</time>
      </trkpt>
      <trkpt lat="45.28416" lon="6.15434">
        <ele>2102.6000976562</ele>
        <time>2020-12-16T13:20:24.000Z</time>
      </trkpt>
      <trkpt lat="45.28415" lon="6.15435">
        <ele>2102.6000976562</ele>
        <time>2020-12-16T13:20:36.000Z</time>
      </trkpt>
      <trkpt lat="45.28414" lon="6.15436">
        <ele>2102.6000976562</ele>
        <time>2020-12-16T13:20:45.000Z</time>
      </trkpt>
      <trkpt lat="45.28414" lon="6.15436">
        <ele>2102.6000976562</ele>
        <time>2020-12-16T13:20:53.000Z</time>
      </trkpt>
      <trkpt lat="45.28414" lon="6.15436">
        <ele>2102.6000976562</ele>
        <time>2020-12-16T13:21:07.000Z</time>
      </trkpt>
      <trkpt lat="45.2841" lon="6.1544">
        <ele>2102.6000976562</ele>
        <time>2020-12-16T13:21:12.000Z</time>
      </trkpt>
      <trkpt lat="45.28408" lon="6.15441">
        <ele>2102.6000976562</ele>
        <time>2020-12-16T13:21:13.000Z</time>
      </trkpt>
      <trkpt lat="45.28401" lon="6.15445">
        <ele>2102.1999511719</ele>
        <time>2020-12-16T13:21:16.000Z</time>
      </trkpt>
      <trkpt lat="45.284" lon="6.15447">
        <ele>2102</ele>
        <time>2020-12-16T13:21:17.000Z</time>
      </trkpt>
      <trkpt lat="45.28399" lon="6.1545">
        <ele>2101.6000976562</ele>
        <time>2020-12-16T13:21:18.000Z</time>
      </trkpt>
      <trkpt lat="45.284" lon="6.15452">
        <ele>2101</ele>
        <time>2020-12-16T13:21:20.000Z</time>
      </trkpt>
      <trkpt lat="45.284" lon="6.15453">
        <ele>2100.8000488281</ele>
        <time>2020-12-16T13:21:21.000Z</time>
      </trkpt>
      <trkpt lat="45.28401" lon="6.15453">
        <ele>2100.6000976562</ele>
        <time>2020-12-16T13:21:22.000Z</time>
      </trkpt>
      <trkpt lat="45.28402" lon="6.15451">
        <ele>2099.3999023438</ele>
        <time>2020-12-16T13:21:24.000Z</time>
      </trkpt>
      <trkpt lat="45.28401" lon="6.1545">
        <ele>2099</ele>
        <time>2020-12-16T13:21:25.000Z</time>
      </trkpt>
      <trkpt lat="45.28401" lon="6.1545">
        <ele>2097.8000488281</ele>
        <time>2020-12-16T13:21:26.000Z</time>
      </trkpt>
      <trkpt lat="45.28401" lon="6.1545">
        <ele>2096.3999023438</ele>
        <time>2020-12-16T13:21:29.000Z</time>
      </trkpt>
      <trkpt lat="45.28401" lon="6.1545">
        <ele>2096</ele>
        <time>2020-12-16T13:21:38.000Z</time>
      </trkpt>
      <trkpt lat="45.28403" lon="6.1545">
        <ele>2096</ele>
        <time>2020-12-16T13:21:42.000Z</time>
      </trkpt>
      <trkpt lat="45.28405" lon="6.1545">
        <ele>2096</ele>
        <time>2020-12-16T13:21:44.000Z</time>
      </trkpt>
      <trkpt lat="45.28407" lon="6.15451">
        <ele>2095.6000976562</ele>
        <time>2020-12-16T13:21:47.000Z</time>
      </trkpt>
      <trkpt lat="45.28408" lon="6.15454">
        <ele>2095.3999023438</ele>
        <time>2020-12-16T13:21:48.000Z</time>
      </trkpt>
      <trkpt lat="45.28407" lon="6.15457">
        <ele>2095.1999511719</ele>
        <time>2020-12-16T13:21:49.000Z</time>
      </trkpt>
      <trkpt lat="45.28408" lon="6.15461">
        <ele>2094.3999023438</ele>
        <time>2020-12-16T13:21:51.000Z</time>
      </trkpt>
      <trkpt lat="45.28407" lon="6.15468">
        <ele>2093.1999511719</ele>
        <time>2020-12-16T13:21:54.000Z</time>
      </trkpt>
      <trkpt lat="45.28406" lon="6.15472">
        <ele>2091.8000488281</ele>
        <time>2020-12-16T13:21:57.000Z</time>
      </trkpt>
      <trkpt lat="45.28406" lon="6.15472">
        <ele>2090.6000976562</ele>
        <time>2020-12-16T13:22:00.000Z</time>
      </trkpt>
      <trkpt lat="45.28406" lon="6.15472">
        <ele>2090.6000976562</ele>
        <time>2020-12-16T13:22:01.000Z</time>
      </trkpt>
      <trkpt lat="45.28406" lon="6.15472">
        <ele>2090.1999511719</ele>
        <time>2020-12-16T13:22:11.000Z</time>
      </trkpt>
      <trkpt lat="45.28403" lon="6.1548">
        <ele>2089.8000488281</ele>
        <time>2020-12-16T13:22:19.000Z</time>
      </trkpt>
      <trkpt lat="45.28402" lon="6.15485">
        <ele>2089.6000976562</ele>
        <time>2020-12-16T13:22:20.000Z</time>
      </trkpt>
      <trkpt lat="45.28402" lon="6.15491">
        <ele>2088.8000488281</ele>
        <time>2020-12-16T13:22:22.000Z</time>
      </trkpt>
      <trkpt lat="45.28404" lon="6.15494">
        <ele>2088.1999511719</ele>
        <time>2020-12-16T13:22:23.000Z</time>
      </trkpt>
      <trkpt lat="45.28405" lon="6.15499">
        <ele>2086.6000976562</ele>
        <time>2020-12-16T13:22:25.000Z</time>
      </trkpt>
      <trkpt lat="45.28404" lon="6.15501">
        <ele>2084.8000488281</ele>
        <time>2020-12-16T13:22:27.000Z</time>
      </trkpt>
      <trkpt lat="45.28403" lon="6.15503">
        <ele>2083.8000488281</ele>
        <time>2020-12-16T13:22:28.000Z</time>
      </trkpt>
      <trkpt lat="45.28403" lon="6.15505">
        <ele>2083</ele>
        <time>2020-12-16T13:22:29.000Z</time>
      </trkpt>
      <trkpt lat="45.284" lon="6.15509">
        <ele>2082.1999511719</ele>
        <time>2020-12-16T13:22:30.000Z</time>
      </trkpt>
      <trkpt lat="45.284" lon="6.15512">
        <ele>2081.6000976562</ele>
        <time>2020-12-16T13:22:31.000Z</time>
      </trkpt>
      <trkpt lat="45.28401" lon="6.15513">
        <ele>2080.1999511719</ele>
        <time>2020-12-16T13:22:33.000Z</time>
      </trkpt>
      <trkpt lat="45.28402" lon="6.15514">
        <ele>2079.3999023438</ele>
        <time>2020-12-16T13:22:34.000Z</time>
      </trkpt>
      <trkpt lat="45.28404" lon="6.15514">
        <ele>2078.3999023438</ele>
        <time>2020-12-16T13:22:35.000Z</time>
      </trkpt>
      <trkpt lat="45.28408" lon="6.15515">
        <ele>2076.8000488281</ele>
        <time>2020-12-16T13:22:37.000Z</time>
      </trkpt>
      <trkpt lat="45.2841" lon="6.15517">
        <ele>2075.8000488281</ele>
        <time>2020-12-16T13:22:38.000Z</time>
      </trkpt>
      <trkpt lat="45.28412" lon="6.15521">
        <ele>2075</ele>
        <time>2020-12-16T13:22:40.000Z</time>
      </trkpt>
      <trkpt lat="45.28414" lon="6.15523">
        <ele>2074.6000976562</ele>
        <time>2020-12-16T13:22:41.000Z</time>
      </trkpt>
      <trkpt lat="45.28414" lon="6.15525">
        <ele>2073.6000976562</ele>
        <time>2020-12-16T13:22:43.000Z</time>
      </trkpt>
      <trkpt lat="45.28413" lon="6.15526">
        <ele>2073</ele>
        <time>2020-12-16T13:22:44.000Z</time>
      </trkpt>
      <trkpt lat="45.28412" lon="6.15529">
        <ele>2072.3999023438</ele>
        <time>2020-12-16T13:22:46.000Z</time>
      </trkpt>
      <trkpt lat="45.28408" lon="6.15533">
        <ele>2071.6000976562</ele>
        <time>2020-12-16T13:22:50.000Z</time>
      </trkpt>
      <trkpt lat="45.28408" lon="6.15535">
        <ele>2071.1999511719</ele>
        <time>2020-12-16T13:22:51.000Z</time>
      </trkpt>
      <trkpt lat="45.28406" lon="6.15538">
        <ele>2070.1999511719</ele>
        <time>2020-12-16T13:22:54.000Z</time>
      </trkpt>
      <trkpt lat="45.28406" lon="6.15538">
        <ele>2069.6000976562</ele>
        <time>2020-12-16T13:22:55.000Z</time>
      </trkpt>
      <trkpt lat="45.28406" lon="6.15538">
        <ele>2068.8000488281</ele>
        <time>2020-12-16T13:22:56.000Z</time>
      </trkpt>
      <trkpt lat="45.28406" lon="6.15538">
        <ele>2067.1999511719</ele>
        <time>2020-12-16T13:22:58.000Z</time>
      </trkpt>
      <trkpt lat="45.28406" lon="6.15538">
        <ele>2066.1999511719</ele>
        <time>2020-12-16T13:23:01.000Z</time>
      </trkpt>
      <trkpt lat="45.28406" lon="6.15538">
        <ele>2066.1999511719</ele>
        <time>2020-12-16T13:23:07.000Z</time>
      </trkpt>
      <trkpt lat="45.28405" lon="6.15539">
        <ele>2066.3999023438</ele>
        <time>2020-12-16T13:23:18.000Z</time>
      </trkpt>
      <trkpt lat="45.28405" lon="6.15539">
        <ele>2066.8000488281</ele>
        <time>2020-12-16T13:23:27.000Z</time>
      </trkpt>
      <trkpt lat="45.28405" lon="6.15542">
        <ele>2066.8000488281</ele>
        <time>2020-12-16T13:23:34.000Z</time>
      </trkpt>
      <trkpt lat="45.28405" lon="6.15542">
        <ele>2066.8000488281</ele>
        <time>2020-12-16T13:23:43.000Z</time>
      </trkpt>
      <trkpt lat="45.28405" lon="6.15545">
        <ele>2067.1999511719</ele>
        <time>2020-12-16T13:23:50.000Z</time>
      </trkpt>
      <trkpt lat="45.28403" lon="6.15547">
        <ele>2067.1999511719</ele>
        <time>2020-12-16T13:23:51.000Z</time>
      </trkpt>
      <trkpt lat="45.28398" lon="6.15552">
        <ele>2067</ele>
        <time>2020-12-16T13:23:54.000Z</time>
      </trkpt>
      <trkpt lat="45.28398" lon="6.15557">
        <ele>2066.1999511719</ele>
        <time>2020-12-16T13:23:56.000Z</time>
      </trkpt>
      <trkpt lat="45.28396" lon="6.15567">
        <ele>2065.3999023438</ele>
        <time>2020-12-16T13:23:58.000Z</time>
      </trkpt>
      <trkpt lat="45.28396" lon="6.1557">
        <ele>2065</ele>
        <time>2020-12-16T13:23:59.000Z</time>
      </trkpt>
      <trkpt lat="45.28398" lon="6.15574">
        <ele>2063.8000488281</ele>
        <time>2020-12-16T13:24:01.000Z</time>
      </trkpt>
      <trkpt lat="45.284" lon="6.15579">
        <ele>2062.1999511719</ele>
        <time>2020-12-16T13:24:03.000Z</time>
      </trkpt>
      <trkpt lat="45.28398" lon="6.15583">
        <ele>2060.6000976562</ele>
        <time>2020-12-16T13:24:05.000Z</time>
      </trkpt>
      <trkpt lat="45.28396" lon="6.15588">
        <ele>2059</ele>
        <time>2020-12-16T13:24:07.000Z</time>
      </trkpt>
      <trkpt lat="45.28392" lon="6.15593">
        <ele>2057.8000488281</ele>
        <time>2020-12-16T13:24:09.000Z</time>
      </trkpt>
      <trkpt lat="45.2839" lon="6.15595">
        <ele>2057.3999023438</ele>
        <time>2020-12-16T13:24:10.000Z</time>
      </trkpt>
      <trkpt lat="45.2839" lon="6.15596">
        <ele>2056.8000488281</ele>
        <time>2020-12-16T13:24:11.000Z</time>
      </trkpt>
      <trkpt lat="45.28388" lon="6.15597">
        <ele>2055.1999511719</ele>
        <time>2020-12-16T13:24:13.000Z</time>
      </trkpt>
      <trkpt lat="45.28388" lon="6.15597">
        <ele>2053</ele>
        <time>2020-12-16T13:24:14.000Z</time>
      </trkpt>
      <trkpt lat="45.28388" lon="6.15597">
        <ele>2051.6000976562</ele>
        <time>2020-12-16T13:24:16.000Z</time>
      </trkpt>
      <trkpt lat="45.28389" lon="6.156">
        <ele>2050.8000488281</ele>
        <time>2020-12-16T13:24:21.000Z</time>
      </trkpt>
      <trkpt lat="45.28386" lon="6.15603">
        <ele>2050.6000976562</ele>
        <time>2020-12-16T13:24:27.000Z</time>
      </trkpt>
      <trkpt lat="45.28386" lon="6.15603">
        <ele>2050.6000976562</ele>
        <time>2020-12-16T13:24:28.000Z</time>
      </trkpt>
      <trkpt lat="45.28387" lon="6.15607">
        <ele>2050</ele>
        <time>2020-12-16T13:24:32.000Z</time>
      </trkpt>
      <trkpt lat="45.28389" lon="6.15611">
        <ele>2049.8000488281</ele>
        <time>2020-12-16T13:24:33.000Z</time>
      </trkpt>
      <trkpt lat="45.28391" lon="6.15616">
        <ele>2049.6000976562</ele>
        <time>2020-12-16T13:24:35.000Z</time>
      </trkpt>
      <trkpt lat="45.28391" lon="6.15617">
        <ele>2049.1999511719</ele>
        <time>2020-12-16T13:24:36.000Z</time>
      </trkpt>
      <trkpt lat="45.2839" lon="6.15618">
        <ele>2047</ele>
        <time>2020-12-16T13:24:38.000Z</time>
      </trkpt>
      <trkpt lat="45.2839" lon="6.15619">
        <ele>2045.8000488281</ele>
        <time>2020-12-16T13:24:41.000Z</time>
      </trkpt>
      <trkpt lat="45.2839" lon="6.1562">
        <ele>2045.5999755859</ele>
        <time>2020-12-16T13:24:42.000Z</time>
      </trkpt>
      <trkpt lat="45.2839" lon="6.1562">
        <ele>2045.5999755859</ele>
        <time>2020-12-16T13:24:47.000Z</time>
      </trkpt>
      <trkpt lat="45.2839" lon="6.15626">
        <ele>2046</ele>
        <time>2020-12-16T13:24:53.000Z</time>
      </trkpt>
      <trkpt lat="45.28394" lon="6.15632">
        <ele>2045.4000244141</ele>
        <time>2020-12-16T13:24:57.000Z</time>
      </trkpt>
      <trkpt lat="45.28394" lon="6.15632">
        <ele>2044.8000488281</ele>
        <time>2020-12-16T13:24:58.000Z</time>
      </trkpt>
      <trkpt lat="45.28394" lon="6.15632">
        <ele>2043.8000488281</ele>
        <time>2020-12-16T13:25:00.000Z</time>
      </trkpt>
      <trkpt lat="45.28393" lon="6.15636">
        <ele>2043.1999511719</ele>
        <time>2020-12-16T13:25:03.000Z</time>
      </trkpt>
      <trkpt lat="45.28391" lon="6.15636">
        <ele>2043</ele>
        <time>2020-12-16T13:25:04.000Z</time>
      </trkpt>
      <trkpt lat="45.28385" lon="6.15637">
        <ele>2042.5999755859</ele>
        <time>2020-12-16T13:25:06.000Z</time>
      </trkpt>
      <trkpt lat="45.28384" lon="6.15637">
        <ele>2041.5999755859</ele>
        <time>2020-12-16T13:25:08.000Z</time>
      </trkpt>
      <trkpt lat="45.28384" lon="6.15637">
        <ele>2040.4000244141</ele>
        <time>2020-12-16T13:25:10.000Z</time>
      </trkpt>
      <trkpt lat="45.2838" lon="6.15644">
        <ele>2039.1999511719</ele>
        <time>2020-12-16T13:25:16.000Z</time>
      </trkpt>
      <trkpt lat="45.28379" lon="6.15647">
        <ele>2038.1999511719</ele>
        <time>2020-12-16T13:25:19.000Z</time>
      </trkpt>
      <trkpt lat="45.28379" lon="6.15647">
        <ele>2036.4000244141</ele>
        <time>2020-12-16T13:25:21.000Z</time>
      </trkpt>
      <trkpt lat="45.28379" lon="6.15647">
        <ele>2034.8000488281</ele>
        <time>2020-12-16T13:25:23.000Z</time>
      </trkpt>
      <trkpt lat="45.28379" lon="6.15649">
        <ele>2033.5999755859</ele>
        <time>2020-12-16T13:25:26.000Z</time>
      </trkpt>
      <trkpt lat="45.28379" lon="6.15649">
        <ele>2033.5999755859</ele>
        <time>2020-12-16T13:25:28.000Z</time>
      </trkpt>
      <trkpt lat="45.28379" lon="6.15649">
        <ele>2033.8000488281</ele>
        <time>2020-12-16T13:25:36.000Z</time>
      </trkpt>
      <trkpt lat="45.28378" lon="6.15649">
        <ele>2034.1999511719</ele>
        <time>2020-12-16T13:25:43.000Z</time>
      </trkpt>
      <trkpt lat="45.2838" lon="6.15658">
        <ele>2034.1999511719</ele>
        <time>2020-12-16T13:25:48.000Z</time>
      </trkpt>
      <trkpt lat="45.28384" lon="6.15664">
        <ele>2033.8000488281</ele>
        <time>2020-12-16T13:25:50.000Z</time>
      </trkpt>
      <trkpt lat="45.28386" lon="6.15664">
        <ele>2033.1999511719</ele>
        <time>2020-12-16T13:25:51.000Z</time>
      </trkpt>
      <trkpt lat="45.28386" lon="6.15663">
        <ele>2032.5999755859</ele>
        <time>2020-12-16T13:25:52.000Z</time>
      </trkpt>
      <trkpt lat="45.28388" lon="6.15663">
        <ele>2031</ele>
        <time>2020-12-16T13:25:54.000Z</time>
      </trkpt>
      <trkpt lat="45.28388" lon="6.15663">
        <ele>2030.5999755859</ele>
        <time>2020-12-16T13:25:55.000Z</time>
      </trkpt>
      <trkpt lat="45.28387" lon="6.15662">
        <ele>2030.1999511719</ele>
        <time>2020-12-16T13:26:02.000Z</time>
      </trkpt>
      <trkpt lat="45.28387" lon="6.15663">
        <ele>2030.1999511719</ele>
        <time>2020-12-16T13:26:09.000Z</time>
      </trkpt>
      <trkpt lat="45.2839" lon="6.15666">
        <ele>2030.1999511719</ele>
        <time>2020-12-16T13:26:12.000Z</time>
      </trkpt>
      <trkpt lat="45.28393" lon="6.15671">
        <ele>2030.1999511719</ele>
        <time>2020-12-16T13:26:13.000Z</time>
      </trkpt>
      <trkpt lat="45.28397" lon="6.15678">
        <ele>2029.8000488281</ele>
        <time>2020-12-16T13:26:15.000Z</time>
      </trkpt>
      <trkpt lat="45.28397" lon="6.15679">
        <ele>2028.1999511719</ele>
        <time>2020-12-16T13:26:17.000Z</time>
      </trkpt>
      <trkpt lat="45.28397" lon="6.15679">
        <ele>2026.8000488281</ele>
        <time>2020-12-16T13:26:19.000Z</time>
      </trkpt>
      <trkpt lat="45.28398" lon="6.15682">
        <ele>2026.4000244141</ele>
        <time>2020-12-16T13:26:21.000Z</time>
      </trkpt>
      <trkpt lat="45.28399" lon="6.15688">
        <ele>2026.1999511719</ele>
        <time>2020-12-16T13:26:23.000Z</time>
      </trkpt>
      <trkpt lat="45.28399" lon="6.15694">
        <ele>2026</ele>
        <time>2020-12-16T13:26:25.000Z</time>
      </trkpt>
      <trkpt lat="45.28399" lon="6.15695">
        <ele>2025.8000488281</ele>
        <time>2020-12-16T13:26:26.000Z</time>
      </trkpt>
      <trkpt lat="45.284" lon="6.15696">
        <ele>2024.4000244141</ele>
        <time>2020-12-16T13:26:28.000Z</time>
      </trkpt>
      <trkpt lat="45.284" lon="6.15696">
        <ele>2023.1999511719</ele>
        <time>2020-12-16T13:26:30.000Z</time>
      </trkpt>
      <trkpt lat="45.284" lon="6.15696">
        <ele>2022.8000488281</ele>
        <time>2020-12-16T13:26:31.000Z</time>
      </trkpt>
      <trkpt lat="45.28399" lon="6.15697">
        <ele>2022.5999755859</ele>
        <time>2020-12-16T13:26:39.000Z</time>
      </trkpt>
      <trkpt lat="45.28399" lon="6.15697">
        <ele>2022.5999755859</ele>
        <time>2020-12-16T13:26:46.000Z</time>
      </trkpt>
      <trkpt lat="45.28399" lon="6.15707">
        <ele>2022.4000244141</ele>
        <time>2020-12-16T13:26:50.000Z</time>
      </trkpt>
      <trkpt lat="45.28398" lon="6.15709">
        <ele>2021.8000488281</ele>
        <time>2020-12-16T13:26:52.000Z</time>
      </trkpt>
      <trkpt lat="45.28398" lon="6.15709">
        <ele>2021.1999511719</ele>
        <time>2020-12-16T13:26:53.000Z</time>
      </trkpt>
      <trkpt lat="45.28398" lon="6.15709">
        <ele>2020.5999755859</ele>
        <time>2020-12-16T13:26:54.000Z</time>
      </trkpt>
      <trkpt lat="45.28398" lon="6.15709">
        <ele>2019.4000244141</ele>
        <time>2020-12-16T13:26:56.000Z</time>
      </trkpt>
      <trkpt lat="45.28398" lon="6.15708">
        <ele>2018.8000488281</ele>
        <time>2020-12-16T13:27:00.000Z</time>
      </trkpt>
      <trkpt lat="45.28397" lon="6.1571">
        <ele>2018.8000488281</ele>
        <time>2020-12-16T13:27:05.000Z</time>
      </trkpt>
      <trkpt lat="45.28397" lon="6.1571">
        <ele>2018.4000244141</ele>
        <time>2020-12-16T13:27:09.000Z</time>
      </trkpt>
      <trkpt lat="45.28397" lon="6.1571">
        <ele>2018.1999511719</ele>
        <time>2020-12-16T13:27:11.000Z</time>
      </trkpt>
      <trkpt lat="45.28398" lon="6.15711">
        <ele>2017.4000244141</ele>
        <time>2020-12-16T13:27:19.000Z</time>
      </trkpt>
      <trkpt lat="45.28397" lon="6.15711">
        <ele>2017.1999511719</ele>
        <time>2020-12-16T13:27:21.000Z</time>
      </trkpt>
      <trkpt lat="45.28399" lon="6.15715">
        <ele>2016.4000244141</ele>
        <time>2020-12-16T13:27:25.000Z</time>
      </trkpt>
      <trkpt lat="45.28402" lon="6.15719">
        <ele>2016</ele>
        <time>2020-12-16T13:27:27.000Z</time>
      </trkpt>
      <trkpt lat="45.28405" lon="6.15724">
        <ele>2015.4000244141</ele>
        <time>2020-12-16T13:27:29.000Z</time>
      </trkpt>
      <trkpt lat="45.28404" lon="6.15722">
        <ele>2014.5999755859</ele>
        <time>2020-12-16T13:27:31.000Z</time>
      </trkpt>
      <trkpt lat="45.28404" lon="6.15723">
        <ele>2013.5999755859</ele>
        <time>2020-12-16T13:27:33.000Z</time>
      </trkpt>
      <trkpt lat="45.28404" lon="6.15724">
        <ele>2013.4000244141</ele>
        <time>2020-12-16T13:27:34.000Z</time>
      </trkpt>
      <trkpt lat="45.28406" lon="6.15735">
        <ele>2013.1999511719</ele>
        <time>2020-12-16T13:27:38.000Z</time>
      </trkpt>
      <trkpt lat="45.28405" lon="6.1574">
        <ele>2013</ele>
        <time>2020-12-16T13:27:39.000Z</time>
      </trkpt>
      <trkpt lat="45.28406" lon="6.15756">
        <ele>2012</ele>
        <time>2020-12-16T13:27:43.000Z</time>
      </trkpt>
      <trkpt lat="45.28408" lon="6.15762">
        <ele>2010.4000244141</ele>
        <time>2020-12-16T13:27:45.000Z</time>
      </trkpt>
      <trkpt lat="45.28408" lon="6.15768">
        <ele>2008.8000488281</ele>
        <time>2020-12-16T13:27:47.000Z</time>
      </trkpt>
      <trkpt lat="45.2841" lon="6.15778">
        <ele>2007.5999755859</ele>
        <time>2020-12-16T13:27:49.000Z</time>
      </trkpt>
      <trkpt lat="45.28409" lon="6.15785">
        <ele>2006.1999511719</ele>
        <time>2020-12-16T13:27:51.000Z</time>
      </trkpt>
      <trkpt lat="45.28408" lon="6.1579">
        <ele>2005</ele>
        <time>2020-12-16T13:27:53.000Z</time>
      </trkpt>
      <trkpt lat="45.2841" lon="6.15789">
        <ele>2003.8000488281</ele>
        <time>2020-12-16T13:27:55.000Z</time>
      </trkpt>
      <trkpt lat="45.2841" lon="6.15789">
        <ele>2002.8000488281</ele>
        <time>2020-12-16T13:27:57.000Z</time>
      </trkpt>
      <trkpt lat="45.28412" lon="6.15787">
        <ele>2002.4000244141</ele>
        <time>2020-12-16T13:28:02.000Z</time>
      </trkpt>
      <trkpt lat="45.28412" lon="6.15788">
        <ele>2002.5999755859</ele>
        <time>2020-12-16T13:28:03.000Z</time>
      </trkpt>
      <trkpt lat="45.28412" lon="6.15787">
        <ele>2003</ele>
        <time>2020-12-16T13:28:07.000Z</time>
      </trkpt>
      <trkpt lat="45.28411" lon="6.15792">
        <ele>2003.1999511719</ele>
        <time>2020-12-16T13:28:12.000Z</time>
      </trkpt>
      <trkpt lat="45.28411" lon="6.1581">
        <ele>2002.8000488281</ele>
        <time>2020-12-16T13:28:15.000Z</time>
      </trkpt>
      <trkpt lat="45.2841" lon="6.15824">
        <ele>2001.5999755859</ele>
        <time>2020-12-16T13:28:17.000Z</time>
      </trkpt>
      <trkpt lat="45.28411" lon="6.15837">
        <ele>2000</ele>
        <time>2020-12-16T13:28:19.000Z</time>
      </trkpt>
      <trkpt lat="45.28411" lon="6.1584">
        <ele>1999.1999511719</ele>
        <time>2020-12-16T13:28:20.000Z</time>
      </trkpt>
      <trkpt lat="45.28411" lon="6.15841">
        <ele>1998.4000244141</ele>
        <time>2020-12-16T13:28:21.000Z</time>
      </trkpt>
      <trkpt lat="45.28411" lon="6.15841">
        <ele>1997.1999511719</ele>
        <time>2020-12-16T13:28:23.000Z</time>
      </trkpt>
      <trkpt lat="45.28411" lon="6.15841">
        <ele>1996.4000244141</ele>
        <time>2020-12-16T13:28:24.000Z</time>
      </trkpt>
      <trkpt lat="45.28411" lon="6.15841">
        <ele>1995.8000488281</ele>
        <time>2020-12-16T13:28:25.000Z</time>
      </trkpt>
      <trkpt lat="45.28411" lon="6.15841">
        <ele>1994.8000488281</ele>
        <time>2020-12-16T13:28:31.000Z</time>
      </trkpt>
      <trkpt lat="45.28411" lon="6.15841">
        <ele>1994.8000488281</ele>
        <time>2020-12-16T13:28:34.000Z</time>
      </trkpt>
      <trkpt lat="45.28411" lon="6.15843">
        <ele>1995</ele>
        <time>2020-12-16T13:28:43.000Z</time>
      </trkpt>
      <trkpt lat="45.28411" lon="6.15843">
        <ele>1994.8000488281</ele>
        <time>2020-12-16T13:28:51.000Z</time>
      </trkpt>
      <trkpt lat="45.28411" lon="6.15844">
        <ele>1994.4000244141</ele>
        <time>2020-12-16T13:28:58.000Z</time>
      </trkpt>
      <trkpt lat="45.28412" lon="6.15846">
        <ele>1995.1999511719</ele>
        <time>2020-12-16T13:29:05.000Z</time>
      </trkpt>
      <trkpt lat="45.28414" lon="6.15853">
        <ele>1995.4000244141</ele>
        <time>2020-12-16T13:29:12.000Z</time>
      </trkpt>
      <trkpt lat="45.28415" lon="6.15856">
        <ele>1995.4000244141</ele>
        <time>2020-12-16T13:29:13.000Z</time>
      </trkpt>
      <trkpt lat="45.28418" lon="6.15868">
        <ele>1994.8000488281</ele>
        <time>2020-12-16T13:29:18.000Z</time>
      </trkpt>
      <trkpt lat="45.28422" lon="6.15876">
        <ele>1993.8000488281</ele>
        <time>2020-12-16T13:29:21.000Z</time>
      </trkpt>
      <trkpt lat="45.28421" lon="6.15876">
        <ele>1992.1999511719</ele>
        <time>2020-12-16T13:29:24.000Z</time>
      </trkpt>
      <trkpt lat="45.28421" lon="6.15876">
        <ele>1990.8000488281</ele>
        <time>2020-12-16T13:29:26.000Z</time>
      </trkpt>
      <trkpt lat="45.28421" lon="6.15876">
        <ele>1989.5999755859</ele>
        <time>2020-12-16T13:29:28.000Z</time>
      </trkpt>
      <trkpt lat="45.28421" lon="6.15876">
        <ele>1989.4000244141</ele>
        <time>2020-12-16T13:29:29.000Z</time>
      </trkpt>
      <trkpt lat="45.28421" lon="6.15876">
        <ele>1989.4000244141</ele>
        <time>2020-12-16T13:29:39.000Z</time>
      </trkpt>
      <trkpt lat="45.28421" lon="6.15876">
        <ele>1989.4000244141</ele>
        <time>2020-12-16T13:29:47.000Z</time>
      </trkpt>
      <trkpt lat="45.28421" lon="6.15876">
        <ele>1989.4000244141</ele>
        <time>2020-12-16T13:29:49.000Z</time>
      </trkpt>
      <trkpt lat="45.28419" lon="6.15876">
        <ele>1989.5999755859</ele>
        <time>2020-12-16T13:29:52.000Z</time>
      </trkpt>
      <trkpt lat="45.28419" lon="6.15876">
        <ele>1989.5999755859</ele>
        <time>2020-12-16T13:29:58.000Z</time>
      </trkpt>
      <trkpt lat="45.28419" lon="6.15876">
        <ele>1990.1999511719</ele>
        <time>2020-12-16T13:30:07.000Z</time>
      </trkpt>
      <trkpt lat="45.28419" lon="6.15876">
        <ele>1990.1999511719</ele>
        <time>2020-12-16T13:30:17.000Z</time>
      </trkpt>
      <trkpt lat="45.28419" lon="6.15877">
        <ele>1990.1999511719</ele>
        <time>2020-12-16T13:30:24.000Z</time>
      </trkpt>
      <trkpt lat="45.28418" lon="6.15879">
        <ele>1989.8000488281</ele>
        <time>2020-12-16T13:30:29.000Z</time>
      </trkpt>
      <trkpt lat="45.28417" lon="6.15881">
        <ele>1989.4000244141</ele>
        <time>2020-12-16T13:30:33.000Z</time>
      </trkpt>
      <trkpt lat="45.28417" lon="6.15884">
        <ele>1989.4000244141</ele>
        <time>2020-12-16T13:30:34.000Z</time>
      </trkpt>
      <trkpt lat="45.28418" lon="6.15898">
        <ele>1989</ele>
        <time>2020-12-16T13:30:37.000Z</time>
      </trkpt>
      <trkpt lat="45.28418" lon="6.15903">
        <ele>1988.8000488281</ele>
        <time>2020-12-16T13:30:38.000Z</time>
      </trkpt>
      <trkpt lat="45.28417" lon="6.15906">
        <ele>1987.8000488281</ele>
        <time>2020-12-16T13:30:39.000Z</time>
      </trkpt>
      <trkpt lat="45.28416" lon="6.15911">
        <ele>1986.5999755859</ele>
        <time>2020-12-16T13:30:41.000Z</time>
      </trkpt>
      <trkpt lat="45.28415" lon="6.15914">
        <ele>1986.1999511719</ele>
        <time>2020-12-16T13:30:42.000Z</time>
      </trkpt>
      <trkpt lat="45.28415" lon="6.15918">
        <ele>1985.8000488281</ele>
        <time>2020-12-16T13:30:43.000Z</time>
      </trkpt>
      <trkpt lat="45.28415" lon="6.15922">
        <ele>1985.4000244141</ele>
        <time>2020-12-16T13:30:44.000Z</time>
      </trkpt>
      <trkpt lat="45.28414" lon="6.15923">
        <ele>1985.1999511719</ele>
        <time>2020-12-16T13:30:45.000Z</time>
      </trkpt>
      <trkpt lat="45.28414" lon="6.15924">
        <ele>1984.5999755859</ele>
        <time>2020-12-16T13:30:46.000Z</time>
      </trkpt>
      <trkpt lat="45.28414" lon="6.15924">
        <ele>1984.1999511719</ele>
        <time>2020-12-16T13:30:47.000Z</time>
      </trkpt>
      <trkpt lat="45.28414" lon="6.15924">
        <ele>1982.8000488281</ele>
        <time>2020-12-16T13:30:49.000Z</time>
      </trkpt>
      <trkpt lat="45.28414" lon="6.15924">
        <ele>1981.8000488281</ele>
        <time>2020-12-16T13:30:52.000Z</time>
      </trkpt>
      <trkpt lat="45.28414" lon="6.15924">
        <ele>1981.5999755859</ele>
        <time>2020-12-16T13:30:53.000Z</time>
      </trkpt>
      <trkpt lat="45.28414" lon="6.15924">
        <ele>1981.8000488281</ele>
        <time>2020-12-16T13:31:01.000Z</time>
      </trkpt>
      <trkpt lat="45.28415" lon="6.15925">
        <ele>1982.8000488281</ele>
        <time>2020-12-16T13:31:09.000Z</time>
      </trkpt>
      <trkpt lat="45.28415" lon="6.15925">
        <ele>1982.8000488281</ele>
        <time>2020-12-16T13:31:11.000Z</time>
      </trkpt>
      <trkpt lat="45.28415" lon="6.15925">
        <ele>1982.8000488281</ele>
        <time>2020-12-16T13:31:17.000Z</time>
      </trkpt>
      <trkpt lat="45.28415" lon="6.15925">
        <ele>1983</ele>
        <time>2020-12-16T13:31:21.000Z</time>
      </trkpt>
      <trkpt lat="45.28415" lon="6.15925">
        <ele>1983</ele>
        <time>2020-12-16T13:31:27.000Z</time>
      </trkpt>
      <trkpt lat="45.28415" lon="6.15926">
        <ele>1982.8000488281</ele>
        <time>2020-12-16T13:31:32.000Z</time>
      </trkpt>
      <trkpt lat="45.28415" lon="6.15927">
        <ele>1982.8000488281</ele>
        <time>2020-12-16T13:31:38.000Z</time>
      </trkpt>
      <trkpt lat="45.28415" lon="6.15926">
        <ele>1983</ele>
        <time>2020-12-16T13:31:44.000Z</time>
      </trkpt>
      <trkpt lat="45.28415" lon="6.15926">
        <ele>1983.1999511719</ele>
        <time>2020-12-16T13:31:52.000Z</time>
      </trkpt>
      <trkpt lat="45.28417" lon="6.15928">
        <ele>1983</ele>
        <time>2020-12-16T13:31:58.000Z</time>
      </trkpt>
      <trkpt lat="45.28416" lon="6.15928">
        <ele>1983</ele>
        <time>2020-12-16T13:32:05.000Z</time>
      </trkpt>
      <trkpt lat="45.28417" lon="6.15931">
        <ele>1983</ele>
        <time>2020-12-16T13:32:11.000Z</time>
      </trkpt>
      <trkpt lat="45.28417" lon="6.15936">
        <ele>1982.8000488281</ele>
        <time>2020-12-16T13:32:13.000Z</time>
      </trkpt>
      <trkpt lat="45.28417" lon="6.15943">
        <ele>1982.1999511719</ele>
        <time>2020-12-16T13:32:16.000Z</time>
      </trkpt>
      <trkpt lat="45.28416" lon="6.15948">
        <ele>1981.4000244141</ele>
        <time>2020-12-16T13:32:18.000Z</time>
      </trkpt>
      <trkpt lat="45.28414" lon="6.15956">
        <ele>1980.4000244141</ele>
        <time>2020-12-16T13:32:21.000Z</time>
      </trkpt>
      <trkpt lat="45.28413" lon="6.1596">
        <ele>1980.1999511719</ele>
        <time>2020-12-16T13:32:22.000Z</time>
      </trkpt>
      <trkpt lat="45.28413" lon="6.15964">
        <ele>1980</ele>
        <time>2020-12-16T13:32:23.000Z</time>
      </trkpt>
      <trkpt lat="45.28411" lon="6.1598">
        <ele>1979</ele>
        <time>2020-12-16T13:32:26.000Z</time>
      </trkpt>
      <trkpt lat="45.28409" lon="6.15986">
        <ele>1978.5999755859</ele>
        <time>2020-12-16T13:32:27.000Z</time>
      </trkpt>
      <trkpt lat="45.28407" lon="6.15997">
        <ele>1977.5999755859</ele>
        <time>2020-12-16T13:32:29.000Z</time>
      </trkpt>
      <trkpt lat="45.28407" lon="6.16004">
        <ele>1977</ele>
        <time>2020-12-16T13:32:30.000Z</time>
      </trkpt>
      <trkpt lat="45.28407" lon="6.1601">
        <ele>1976.4000244141</ele>
        <time>2020-12-16T13:32:31.000Z</time>
      </trkpt>
      <trkpt lat="45.28405" lon="6.16022">
        <ele>1975.1999511719</ele>
        <time>2020-12-16T13:32:33.000Z</time>
      </trkpt>
      <trkpt lat="45.28403" lon="6.16039">
        <ele>1973.8000488281</ele>
        <time>2020-12-16T13:32:35.000Z</time>
      </trkpt>
      <trkpt lat="45.28396" lon="6.16055">
        <ele>1972.1999511719</ele>
        <time>2020-12-16T13:32:37.000Z</time>
      </trkpt>
      <trkpt lat="45.28393" lon="6.16063">
        <ele>1971.1999511719</ele>
        <time>2020-12-16T13:32:38.000Z</time>
      </trkpt>
      <trkpt lat="45.2839" lon="6.16069">
        <ele>1969.8000488281</ele>
        <time>2020-12-16T13:32:39.000Z</time>
      </trkpt>
      <trkpt lat="45.28388" lon="6.16073">
        <ele>1966.8000488281</ele>
        <time>2020-12-16T13:32:40.000Z</time>
      </trkpt>
      <trkpt lat="45.28386" lon="6.16075">
        <ele>1965.4000244141</ele>
        <time>2020-12-16T13:32:41.000Z</time>
      </trkpt>
      <trkpt lat="45.28384" lon="6.16081">
        <ele>1964.4000244141</ele>
        <time>2020-12-16T13:32:42.000Z</time>
      </trkpt>
      <trkpt lat="45.28381" lon="6.16088">
        <ele>1962.8000488281</ele>
        <time>2020-12-16T13:32:44.000Z</time>
      </trkpt>
      <trkpt lat="45.2838" lon="6.1609">
        <ele>1961.8000488281</ele>
        <time>2020-12-16T13:32:45.000Z</time>
      </trkpt>
      <trkpt lat="45.2838" lon="6.16092">
        <ele>1961</ele>
        <time>2020-12-16T13:32:46.000Z</time>
      </trkpt>
      <trkpt lat="45.2838" lon="6.16091">
        <ele>1959.4000244141</ele>
        <time>2020-12-16T13:32:48.000Z</time>
      </trkpt>
      <trkpt lat="45.2838" lon="6.16091">
        <ele>1958.4000244141</ele>
        <time>2020-12-16T13:32:51.000Z</time>
      </trkpt>
      <trkpt lat="45.2838" lon="6.16091">
        <ele>1958.1999511719</ele>
        <time>2020-12-16T13:32:57.000Z</time>
      </trkpt>
      <trkpt lat="45.2838" lon="6.16091">
        <ele>1958</ele>
        <time>2020-12-16T13:33:07.000Z</time>
      </trkpt>
      <trkpt lat="45.2838" lon="6.16091">
        <ele>1958</ele>
        <time>2020-12-16T13:33:21.000Z</time>
      </trkpt>
      <trkpt lat="45.28379" lon="6.16091">
        <ele>1958</ele>
        <time>2020-12-16T13:33:34.000Z</time>
      </trkpt>
      <trkpt lat="45.28379" lon="6.16091">
        <ele>1957.8000488281</ele>
        <time>2020-12-16T13:33:45.000Z</time>
      </trkpt>
      <trkpt lat="45.28379" lon="6.16091">
        <ele>1958</ele>
        <time>2020-12-16T13:33:59.000Z</time>
      </trkpt>
      <trkpt lat="45.28379" lon="6.16091">
        <ele>1957.8000488281</ele>
        <time>2020-12-16T13:34:10.000Z</time>
      </trkpt>
      <trkpt lat="45.28379" lon="6.16091">
        <ele>1957.8000488281</ele>
        <time>2020-12-16T13:34:20.000Z</time>
      </trkpt>
      <trkpt lat="45.28378" lon="6.16091">
        <ele>1957.8000488281</ele>
        <time>2020-12-16T13:34:27.000Z</time>
      </trkpt>
      <trkpt lat="45.28378" lon="6.16091">
        <ele>1957.8000488281</ele>
        <time>2020-12-16T13:34:36.000Z</time>
      </trkpt>
      <trkpt lat="45.28378" lon="6.16091">
        <ele>1957.5999755859</ele>
        <time>2020-12-16T13:34:46.000Z</time>
      </trkpt>
      <trkpt lat="45.28378" lon="6.16091">
        <ele>1957.8000488281</ele>
        <time>2020-12-16T13:34:55.000Z</time>
      </trkpt>
      <trkpt lat="45.28377" lon="6.16093">
        <ele>1957.5999755859</ele>
        <time>2020-12-16T13:35:12.000Z</time>
      </trkpt>
      <trkpt lat="45.28377" lon="6.16093">
        <ele>1957.4000244141</ele>
        <time>2020-12-16T13:35:26.000Z</time>
      </trkpt>
      <trkpt lat="45.28377" lon="6.16093">
        <ele>1957.5999755859</ele>
        <time>2020-12-16T13:35:35.000Z</time>
      </trkpt>
      <trkpt lat="45.28376" lon="6.16094">
        <ele>1957.5999755859</ele>
        <time>2020-12-16T13:35:44.000Z</time>
      </trkpt>
      <trkpt lat="45.28376" lon="6.16094">
        <ele>1957.8000488281</ele>
        <time>2020-12-16T13:35:53.000Z</time>
      </trkpt>
      <trkpt lat="45.28376" lon="6.16094">
        <ele>1957.8000488281</ele>
        <time>2020-12-16T13:36:04.000Z</time>
      </trkpt>
      <trkpt lat="45.28374" lon="6.16096">
        <ele>1957.8000488281</ele>
        <time>2020-12-16T13:36:11.000Z</time>
      </trkpt>
      <trkpt lat="45.28371" lon="6.16097">
        <ele>1957.4000244141</ele>
        <time>2020-12-16T13:36:14.000Z</time>
      </trkpt>
      <trkpt lat="45.2837" lon="6.16098">
        <ele>1957.1999511719</ele>
        <time>2020-12-16T13:36:15.000Z</time>
      </trkpt>
      <trkpt lat="45.28369" lon="6.16099">
        <ele>1956.8000488281</ele>
        <time>2020-12-16T13:36:16.000Z</time>
      </trkpt>
      <trkpt lat="45.28366" lon="6.161">
        <ele>1955.8000488281</ele>
        <time>2020-12-16T13:36:19.000Z</time>
      </trkpt>
      <trkpt lat="45.28365" lon="6.16103">
        <ele>1955.4000244141</ele>
        <time>2020-12-16T13:36:20.000Z</time>
      </trkpt>
      <trkpt lat="45.28364" lon="6.16105">
        <ele>1954.5999755859</ele>
        <time>2020-12-16T13:36:22.000Z</time>
      </trkpt>
      <trkpt lat="45.28362" lon="6.16107">
        <ele>1953.4000244141</ele>
        <time>2020-12-16T13:36:25.000Z</time>
      </trkpt>
      <trkpt lat="45.28358" lon="6.16116">
        <ele>1952.1999511719</ele>
        <time>2020-12-16T13:36:29.000Z</time>
      </trkpt>
      <trkpt lat="45.28356" lon="6.16126">
        <ele>1951.5999755859</ele>
        <time>2020-12-16T13:36:31.000Z</time>
      </trkpt>
      <trkpt lat="45.28355" lon="6.16129">
        <ele>1951</ele>
        <time>2020-12-16T13:36:32.000Z</time>
      </trkpt>
      <trkpt lat="45.28355" lon="6.1613">
        <ele>1950.5999755859</ele>
        <time>2020-12-16T13:36:33.000Z</time>
      </trkpt>
      <trkpt lat="45.28355" lon="6.1613">
        <ele>1950</ele>
        <time>2020-12-16T13:36:34.000Z</time>
      </trkpt>
      <trkpt lat="45.28355" lon="6.1613">
        <ele>1948.5999755859</ele>
        <time>2020-12-16T13:36:36.000Z</time>
      </trkpt>
      <trkpt lat="45.28355" lon="6.1613">
        <ele>1948</ele>
        <time>2020-12-16T13:36:37.000Z</time>
      </trkpt>
      <trkpt lat="45.28355" lon="6.1613">
        <ele>1947.5999755859</ele>
        <time>2020-12-16T13:36:39.000Z</time>
      </trkpt>
      <trkpt lat="45.28355" lon="6.1613">
        <ele>1947.1999511719</ele>
        <time>2020-12-16T13:36:44.000Z</time>
      </trkpt>
      <trkpt lat="45.28355" lon="6.1613">
        <ele>1947.1999511719</ele>
        <time>2020-12-16T13:36:53.000Z</time>
      </trkpt>
      <trkpt lat="45.28355" lon="6.1613">
        <ele>1947</ele>
        <time>2020-12-16T13:37:05.000Z</time>
      </trkpt>
      <trkpt lat="45.28355" lon="6.1613">
        <ele>1947.1999511719</ele>
        <time>2020-12-16T13:37:13.000Z</time>
      </trkpt>
      <trkpt lat="45.28355" lon="6.1613">
        <ele>1946.8000488281</ele>
        <time>2020-12-16T13:37:23.000Z</time>
      </trkpt>
      <trkpt lat="45.28355" lon="6.1613">
        <ele>1947.1999511719</ele>
        <time>2020-12-16T13:37:36.000Z</time>
      </trkpt>
      <trkpt lat="45.28355" lon="6.1613">
        <ele>1947.1999511719</ele>
        <time>2020-12-16T13:37:49.000Z</time>
      </trkpt>
      <trkpt lat="45.28351" lon="6.16131">
        <ele>1947.1999511719</ele>
        <time>2020-12-16T13:37:57.000Z</time>
      </trkpt>
      <trkpt lat="45.28348" lon="6.16131">
        <ele>1947.1999511719</ele>
        <time>2020-12-16T13:37:58.000Z</time>
      </trkpt>
      <trkpt lat="45.28346" lon="6.16127">
        <ele>1946.4000244141</ele>
        <time>2020-12-16T13:38:01.000Z</time>
      </trkpt>
      <trkpt lat="45.28347" lon="6.16125">
        <ele>1945.1999511719</ele>
        <time>2020-12-16T13:38:03.000Z</time>
      </trkpt>
      <trkpt lat="45.28345" lon="6.16125">
        <ele>1944.4000244141</ele>
        <time>2020-12-16T13:38:05.000Z</time>
      </trkpt>
      <trkpt lat="45.28343" lon="6.16128">
        <ele>1944.1999511719</ele>
        <time>2020-12-16T13:38:06.000Z</time>
      </trkpt>
      <trkpt lat="45.28342" lon="6.16146">
        <ele>1943.8000488281</ele>
        <time>2020-12-16T13:38:09.000Z</time>
      </trkpt>
      <trkpt lat="45.28341" lon="6.16155">
        <ele>1942.4000244141</ele>
        <time>2020-12-16T13:38:12.000Z</time>
      </trkpt>
      <trkpt lat="45.28336" lon="6.16155">
        <ele>1940.5999755859</ele>
        <time>2020-12-16T13:38:14.000Z</time>
      </trkpt>
      <trkpt lat="45.28333" lon="6.16153">
        <ele>1939.8000488281</ele>
        <time>2020-12-16T13:38:15.000Z</time>
      </trkpt>
      <trkpt lat="45.28331" lon="6.16149">
        <ele>1938.8000488281</ele>
        <time>2020-12-16T13:38:16.000Z</time>
      </trkpt>
      <trkpt lat="45.28326" lon="6.16139">
        <ele>1937.8000488281</ele>
        <time>2020-12-16T13:38:18.000Z</time>
      </trkpt>
      <trkpt lat="45.28322" lon="6.1613">
        <ele>1935.8000488281</ele>
        <time>2020-12-16T13:38:20.000Z</time>
      </trkpt>
      <trkpt lat="45.28319" lon="6.16127">
        <ele>1935</ele>
        <time>2020-12-16T13:38:21.000Z</time>
      </trkpt>
      <trkpt lat="45.28317" lon="6.16127">
        <ele>1934</ele>
        <time>2020-12-16T13:38:22.000Z</time>
      </trkpt>
      <trkpt lat="45.28315" lon="6.16133">
        <ele>1932.5999755859</ele>
        <time>2020-12-16T13:38:24.000Z</time>
      </trkpt>
      <trkpt lat="45.28312" lon="6.16133">
        <ele>1932</ele>
        <time>2020-12-16T13:38:25.000Z</time>
      </trkpt>
      <trkpt lat="45.2831" lon="6.16133">
        <ele>1931</ele>
        <time>2020-12-16T13:38:26.000Z</time>
      </trkpt>
      <trkpt lat="45.28305" lon="6.1613">
        <ele>1929</ele>
        <time>2020-12-16T13:38:28.000Z</time>
      </trkpt>
      <trkpt lat="45.28302" lon="6.1613">
        <ele>1927.8000488281</ele>
        <time>2020-12-16T13:38:29.000Z</time>
      </trkpt>
      <trkpt lat="45.28302" lon="6.16133">
        <ele>1926.5999755859</ele>
        <time>2020-12-16T13:38:30.000Z</time>
      </trkpt>
      <trkpt lat="45.28301" lon="6.16134">
        <ele>1925.5999755859</ele>
        <time>2020-12-16T13:38:31.000Z</time>
      </trkpt>
      <trkpt lat="45.28301" lon="6.16134">
        <ele>1924.4000244141</ele>
        <time>2020-12-16T13:38:32.000Z</time>
      </trkpt>
      <trkpt lat="45.28301" lon="6.16135">
        <ele>1923.1999511719</ele>
        <time>2020-12-16T13:38:33.000Z</time>
      </trkpt>
      <trkpt lat="45.28301" lon="6.16135">
        <ele>1922.1999511719</ele>
        <time>2020-12-16T13:38:34.000Z</time>
      </trkpt>
      <trkpt lat="45.28301" lon="6.16135">
        <ele>1920.8000488281</ele>
        <time>2020-12-16T13:38:36.000Z</time>
      </trkpt>
      <trkpt lat="45.28301" lon="6.16138">
        <ele>1920.5999755859</ele>
        <time>2020-12-16T13:38:37.000Z</time>
      </trkpt>
      <trkpt lat="45.28296" lon="6.16137">
        <ele>1920.1999511719</ele>
        <time>2020-12-16T13:38:39.000Z</time>
      </trkpt>
      <trkpt lat="45.28293" lon="6.1614">
        <ele>1919.8000488281</ele>
        <time>2020-12-16T13:38:40.000Z</time>
      </trkpt>
      <trkpt lat="45.28288" lon="6.16153">
        <ele>1918.1999511719</ele>
        <time>2020-12-16T13:38:42.000Z</time>
      </trkpt>
      <trkpt lat="45.28287" lon="6.16157">
        <ele>1917.1999511719</ele>
        <time>2020-12-16T13:38:43.000Z</time>
      </trkpt>
      <trkpt lat="45.28286" lon="6.1616">
        <ele>1915.5999755859</ele>
        <time>2020-12-16T13:38:44.000Z</time>
      </trkpt>
      <trkpt lat="45.28285" lon="6.16162">
        <ele>1914.1999511719</ele>
        <time>2020-12-16T13:38:45.000Z</time>
      </trkpt>
      <trkpt lat="45.28282" lon="6.16163">
        <ele>1913</ele>
        <time>2020-12-16T13:38:46.000Z</time>
      </trkpt>
      <trkpt lat="45.28277" lon="6.16168">
        <ele>1911.1999511719</ele>
        <time>2020-12-16T13:38:48.000Z</time>
      </trkpt>
      <trkpt lat="45.28275" lon="6.16171">
        <ele>1909.4000244141</ele>
        <time>2020-12-16T13:38:50.000Z</time>
      </trkpt>
      <trkpt lat="45.28274" lon="6.16172">
        <ele>1908.4000244141</ele>
        <time>2020-12-16T13:38:51.000Z</time>
      </trkpt>
      <trkpt lat="45.28273" lon="6.16172">
        <ele>1907.1999511719</ele>
        <time>2020-12-16T13:38:52.000Z</time>
      </trkpt>
      <trkpt lat="45.28272" lon="6.16174">
        <ele>1906.1999511719</ele>
        <time>2020-12-16T13:38:53.000Z</time>
      </trkpt>
      <trkpt lat="45.28272" lon="6.16174">
        <ele>1904.8000488281</ele>
        <time>2020-12-16T13:38:55.000Z</time>
      </trkpt>
      <trkpt lat="45.28272" lon="6.16174">
        <ele>1904</ele>
        <time>2020-12-16T13:39:04.000Z</time>
      </trkpt>
      <trkpt lat="45.28272" lon="6.16174">
        <ele>1904</ele>
        <time>2020-12-16T13:39:14.000Z</time>
      </trkpt>
      <trkpt lat="45.2827" lon="6.16174">
        <ele>1904</ele>
        <time>2020-12-16T13:39:22.000Z</time>
      </trkpt>
      <trkpt lat="45.28268" lon="6.16175">
        <ele>1904.4000244141</ele>
        <time>2020-12-16T13:39:28.000Z</time>
      </trkpt>
      <trkpt lat="45.28268" lon="6.16175">
        <ele>1904.5999755859</ele>
        <time>2020-12-16T13:39:38.000Z</time>
      </trkpt>
      <trkpt lat="45.28265" lon="6.16175">
        <ele>1904.5999755859</ele>
        <time>2020-12-16T13:39:44.000Z</time>
      </trkpt>
      <trkpt lat="45.28264" lon="6.16175">
        <ele>1904.4000244141</ele>
        <time>2020-12-16T13:39:45.000Z</time>
      </trkpt>
      <trkpt lat="45.28262" lon="6.16179">
        <ele>1904.4000244141</ele>
        <time>2020-12-16T13:39:47.000Z</time>
      </trkpt>
      <trkpt lat="45.28261" lon="6.1619">
        <ele>1903.8000488281</ele>
        <time>2020-12-16T13:39:49.000Z</time>
      </trkpt>
      <trkpt lat="45.28251" lon="6.16192">
        <ele>1901.5999755859</ele>
        <time>2020-12-16T13:39:52.000Z</time>
      </trkpt>
      <trkpt lat="45.28248" lon="6.16188">
        <ele>1900.8000488281</ele>
        <time>2020-12-16T13:39:53.000Z</time>
      </trkpt>
      <trkpt lat="45.28246" lon="6.16186">
        <ele>1900</ele>
        <time>2020-12-16T13:39:54.000Z</time>
      </trkpt>
      <trkpt lat="45.28246" lon="6.16187">
        <ele>1899</ele>
        <time>2020-12-16T13:39:55.000Z</time>
      </trkpt>
      <trkpt lat="45.28246" lon="6.16185">
        <ele>1898.1999511719</ele>
        <time>2020-12-16T13:39:56.000Z</time>
      </trkpt>
      <trkpt lat="45.28246" lon="6.16185">
        <ele>1897</ele>
        <time>2020-12-16T13:39:58.000Z</time>
      </trkpt>
      <trkpt lat="45.28246" lon="6.16185">
        <ele>1896.4000244141</ele>
        <time>2020-12-16T13:40:01.000Z</time>
      </trkpt>
      <trkpt lat="45.28244" lon="6.16189">
        <ele>1896.1999511719</ele>
        <time>2020-12-16T13:40:05.000Z</time>
      </trkpt>
      <trkpt lat="45.28244" lon="6.16196">
        <ele>1896</ele>
        <time>2020-12-16T13:40:06.000Z</time>
      </trkpt>
      <trkpt lat="45.28244" lon="6.16205">
        <ele>1895.8000488281</ele>
        <time>2020-12-16T13:40:07.000Z</time>
      </trkpt>
      <trkpt lat="45.28244" lon="6.16211">
        <ele>1894.8000488281</ele>
        <time>2020-12-16T13:40:09.000Z</time>
      </trkpt>
      <trkpt lat="45.28244" lon="6.16211">
        <ele>1893.8000488281</ele>
        <time>2020-12-16T13:40:10.000Z</time>
      </trkpt>
      <trkpt lat="45.28244" lon="6.16212">
        <ele>1892.5999755859</ele>
        <time>2020-12-16T13:40:11.000Z</time>
      </trkpt>
      <trkpt lat="45.28244" lon="6.16212">
        <ele>1891.5999755859</ele>
        <time>2020-12-16T13:40:12.000Z</time>
      </trkpt>
      <trkpt lat="45.28244" lon="6.16213">
        <ele>1890.5999755859</ele>
        <time>2020-12-16T13:40:14.000Z</time>
      </trkpt>
      <trkpt lat="45.28242" lon="6.16212">
        <ele>1890.4000244141</ele>
        <time>2020-12-16T13:40:15.000Z</time>
      </trkpt>
      <trkpt lat="45.28242" lon="6.16212">
        <ele>1890</ele>
        <time>2020-12-16T13:40:19.000Z</time>
      </trkpt>
      <trkpt lat="45.28236" lon="6.16209">
        <ele>1889.1999511719</ele>
        <time>2020-12-16T13:40:23.000Z</time>
      </trkpt>
      <trkpt lat="45.28236" lon="6.16209">
        <ele>1887.8000488281</ele>
        <time>2020-12-16T13:40:26.000Z</time>
      </trkpt>
      <trkpt lat="45.28234" lon="6.1621">
        <ele>1887</ele>
        <time>2020-12-16T13:40:30.000Z</time>
      </trkpt>
      <trkpt lat="45.28226" lon="6.1621">
        <ele>1886.8000488281</ele>
        <time>2020-12-16T13:40:33.000Z</time>
      </trkpt>
      <trkpt lat="45.28222" lon="6.1621">
        <ele>1886.5999755859</ele>
        <time>2020-12-16T13:40:34.000Z</time>
      </trkpt>
      <trkpt lat="45.28221" lon="6.16211">
        <ele>1885.5999755859</ele>
        <time>2020-12-16T13:40:37.000Z</time>
      </trkpt>
      <trkpt lat="45.28218" lon="6.1621">
        <ele>1884.5999755859</ele>
        <time>2020-12-16T13:40:39.000Z</time>
      </trkpt>
      <trkpt lat="45.28217" lon="6.16212">
        <ele>1883.8000488281</ele>
        <time>2020-12-16T13:40:40.000Z</time>
      </trkpt>
      <trkpt lat="45.28216" lon="6.16213">
        <ele>1883.1999511719</ele>
        <time>2020-12-16T13:40:42.000Z</time>
      </trkpt>
      <trkpt lat="45.28216" lon="6.16213">
        <ele>1882.1999511719</ele>
        <time>2020-12-16T13:40:44.000Z</time>
      </trkpt>
      <trkpt lat="45.28216" lon="6.16213">
        <ele>1880.8000488281</ele>
        <time>2020-12-16T13:40:46.000Z</time>
      </trkpt>
      <trkpt lat="45.28216" lon="6.16214">
        <ele>1880</ele>
        <time>2020-12-16T13:40:50.000Z</time>
      </trkpt>
      <trkpt lat="45.28216" lon="6.16214">
        <ele>1880</ele>
        <time>2020-12-16T13:41:01.000Z</time>
      </trkpt>
      <trkpt lat="45.28212" lon="6.16223">
        <ele>1880.1999511719</ele>
        <time>2020-12-16T13:41:06.000Z</time>
      </trkpt>
      <trkpt lat="45.28209" lon="6.16233">
        <ele>1879.8000488281</ele>
        <time>2020-12-16T13:41:08.000Z</time>
      </trkpt>
      <trkpt lat="45.28208" lon="6.16242">
        <ele>1878.8000488281</ele>
        <time>2020-12-16T13:41:10.000Z</time>
      </trkpt>
      <trkpt lat="45.28207" lon="6.16244">
        <ele>1878.1999511719</ele>
        <time>2020-12-16T13:41:11.000Z</time>
      </trkpt>
      <trkpt lat="45.28207" lon="6.16244">
        <ele>1877.4000244141</ele>
        <time>2020-12-16T13:41:12.000Z</time>
      </trkpt>
      <trkpt lat="45.28206" lon="6.16246">
        <ele>1876.1999511719</ele>
        <time>2020-12-16T13:41:15.000Z</time>
      </trkpt>
      <trkpt lat="45.28203" lon="6.16244">
        <ele>1876</ele>
        <time>2020-12-16T13:41:16.000Z</time>
      </trkpt>
      <trkpt lat="45.28195" lon="6.16242">
        <ele>1874.8000488281</ele>
        <time>2020-12-16T13:41:20.000Z</time>
      </trkpt>
      <trkpt lat="45.28193" lon="6.16242">
        <ele>1873.5999755859</ele>
        <time>2020-12-16T13:41:22.000Z</time>
      </trkpt>
      <trkpt lat="45.28189" lon="6.1624">
        <ele>1872.5999755859</ele>
        <time>2020-12-16T13:41:26.000Z</time>
      </trkpt>
      <trkpt lat="45.28189" lon="6.16241">
        <ele>1871.5999755859</ele>
        <time>2020-12-16T13:41:28.000Z</time>
      </trkpt>
      <trkpt lat="45.28186" lon="6.16241">
        <ele>1870.5999755859</ele>
        <time>2020-12-16T13:41:34.000Z</time>
      </trkpt>
      <trkpt lat="45.28185" lon="6.16241">
        <ele>1870.4000244141</ele>
        <time>2020-12-16T13:41:35.000Z</time>
      </trkpt>
      <trkpt lat="45.28185" lon="6.16241">
        <ele>1869.8000488281</ele>
        <time>2020-12-16T13:41:37.000Z</time>
      </trkpt>
      <trkpt lat="45.28185" lon="6.16241">
        <ele>1869.1999511719</ele>
        <time>2020-12-16T13:41:39.000Z</time>
      </trkpt>
      <trkpt lat="45.28184" lon="6.16241">
        <ele>1868.4000244141</ele>
        <time>2020-12-16T13:41:47.000Z</time>
      </trkpt>
      <trkpt lat="45.28183" lon="6.1624">
        <ele>1868.1999511719</ele>
        <time>2020-12-16T13:41:52.000Z</time>
      </trkpt>
      <trkpt lat="45.2818" lon="6.16243">
        <ele>1868</ele>
        <time>2020-12-16T13:41:54.000Z</time>
      </trkpt>
      <trkpt lat="45.28179" lon="6.16247">
        <ele>1867.4000244141</ele>
        <time>2020-12-16T13:42:00.000Z</time>
      </trkpt>
      <trkpt lat="45.2818" lon="6.16247">
        <ele>1867.1999511719</ele>
        <time>2020-12-16T13:42:02.000Z</time>
      </trkpt>
      <trkpt lat="45.2818" lon="6.16247">
        <ele>1866.8000488281</ele>
        <time>2020-12-16T13:42:06.000Z</time>
      </trkpt>
      <trkpt lat="45.28181" lon="6.16248">
        <ele>1866.1999511719</ele>
        <time>2020-12-16T13:42:12.000Z</time>
      </trkpt>
      <trkpt lat="45.28181" lon="6.16248">
        <ele>1866</ele>
        <time>2020-12-16T13:42:13.000Z</time>
      </trkpt>
      <trkpt lat="45.28179" lon="6.16251">
        <ele>1865</ele>
        <time>2020-12-16T13:42:18.000Z</time>
      </trkpt>
      <trkpt lat="45.28175" lon="6.16251">
        <ele>1863.8000488281</ele>
        <time>2020-12-16T13:42:22.000Z</time>
      </trkpt>
      <trkpt lat="45.28173" lon="6.16249">
        <ele>1863.5999755859</ele>
        <time>2020-12-16T13:42:23.000Z</time>
      </trkpt>
      <trkpt lat="45.28172" lon="6.1625">
        <ele>1862.8000488281</ele>
        <time>2020-12-16T13:42:26.000Z</time>
      </trkpt>
      <trkpt lat="45.28172" lon="6.1625">
        <ele>1862.4000244141</ele>
        <time>2020-12-16T13:42:27.000Z</time>
      </trkpt>
      <trkpt lat="45.28172" lon="6.1625">
        <ele>1861.1999511719</ele>
        <time>2020-12-16T13:42:30.000Z</time>
      </trkpt>
      <trkpt lat="45.28172" lon="6.1625">
        <ele>1860.8000488281</ele>
        <time>2020-12-16T13:42:35.000Z</time>
      </trkpt>
      <trkpt lat="45.28172" lon="6.1625">
        <ele>1860.1999511719</ele>
        <time>2020-12-16T13:42:44.000Z</time>
      </trkpt>
      <trkpt lat="45.2817" lon="6.1625">
        <ele>1860.1999511719</ele>
        <time>2020-12-16T13:42:45.000Z</time>
      </trkpt>
      <trkpt lat="45.28167" lon="6.16251">
        <ele>1859.8000488281</ele>
        <time>2020-12-16T13:42:48.000Z</time>
      </trkpt>
      <trkpt lat="45.28166" lon="6.16252">
        <ele>1859</ele>
        <time>2020-12-16T13:42:52.000Z</time>
      </trkpt>
      <trkpt lat="45.28166" lon="6.16252">
        <ele>1858.8000488281</ele>
        <time>2020-12-16T13:42:54.000Z</time>
      </trkpt>
      <trkpt lat="45.28165" lon="6.16252">
        <ele>1858.5999755859</ele>
        <time>2020-12-16T13:43:00.000Z</time>
      </trkpt>
      <trkpt lat="45.28164" lon="6.1625">
        <ele>1858.5999755859</ele>
        <time>2020-12-16T13:43:07.000Z</time>
      </trkpt>
      <trkpt lat="45.28164" lon="6.16255">
        <ele>1858.5999755859</ele>
        <time>2020-12-16T13:43:13.000Z</time>
      </trkpt>
      <trkpt lat="45.28164" lon="6.16258">
        <ele>1858.5999755859</ele>
        <time>2020-12-16T13:43:14.000Z</time>
      </trkpt>
      <trkpt lat="45.28164" lon="6.16258">
        <ele>1858</ele>
        <time>2020-12-16T13:43:17.000Z</time>
      </trkpt>
      <trkpt lat="45.28163" lon="6.16257">
        <ele>1857.5999755859</ele>
        <time>2020-12-16T13:43:18.000Z</time>
      </trkpt>
      <trkpt lat="45.28162" lon="6.16257">
        <ele>1857.1999511719</ele>
        <time>2020-12-16T13:43:19.000Z</time>
      </trkpt>
      <trkpt lat="45.28162" lon="6.16257">
        <ele>1856.5999755859</ele>
        <time>2020-12-16T13:43:22.000Z</time>
      </trkpt>
      <trkpt lat="45.28162" lon="6.16257">
        <ele>1856.5999755859</ele>
        <time>2020-12-16T13:43:23.000Z</time>
      </trkpt>
      <trkpt lat="45.28162" lon="6.16258">
        <ele>1856</ele>
        <time>2020-12-16T13:43:29.000Z</time>
      </trkpt>
      <trkpt lat="45.28161" lon="6.16262">
        <ele>1855.4000244141</ele>
        <time>2020-12-16T13:43:33.000Z</time>
      </trkpt>
      <trkpt lat="45.28161" lon="6.16262">
        <ele>1855.1999511719</ele>
        <time>2020-12-16T13:43:34.000Z</time>
      </trkpt>
      <trkpt lat="45.28161" lon="6.16262">
        <ele>1854.1999511719</ele>
        <time>2020-12-16T13:43:39.000Z</time>
      </trkpt>
      <trkpt lat="45.2816" lon="6.16263">
        <ele>1854</ele>
        <time>2020-12-16T13:43:41.000Z</time>
      </trkpt>
      <trkpt lat="45.28159" lon="6.16265">
        <ele>1853.4000244141</ele>
        <time>2020-12-16T13:43:48.000Z</time>
      </trkpt>
      <trkpt lat="45.28159" lon="6.16265">
        <ele>1853.1999511719</ele>
        <time>2020-12-16T13:43:51.000Z</time>
      </trkpt>
      <trkpt lat="45.28159" lon="6.16265">
        <ele>1853</ele>
        <time>2020-12-16T13:43:55.000Z</time>
      </trkpt>
      <trkpt lat="45.28158" lon="6.16272">
        <ele>1852.8000488281</ele>
        <time>2020-12-16T13:44:00.000Z</time>
      </trkpt>
      <trkpt lat="45.28157" lon="6.16274">
        <ele>1852</ele>
        <time>2020-12-16T13:44:03.000Z</time>
      </trkpt>
      <trkpt lat="45.28157" lon="6.16276">
        <ele>1851.4000244141</ele>
        <time>2020-12-16T13:44:06.000Z</time>
      </trkpt>
      <trkpt lat="45.28157" lon="6.16277">
        <ele>1851</ele>
        <time>2020-12-16T13:44:09.000Z</time>
      </trkpt>
      <trkpt lat="45.28157" lon="6.16278">
        <ele>1850.5999755859</ele>
        <time>2020-12-16T13:44:12.000Z</time>
      </trkpt>
      <trkpt lat="45.28156" lon="6.16279">
        <ele>1849.8000488281</ele>
        <time>2020-12-16T13:44:16.000Z</time>
      </trkpt>
      <trkpt lat="45.28156" lon="6.1628">
        <ele>1849.5999755859</ele>
        <time>2020-12-16T13:44:19.000Z</time>
      </trkpt>
      <trkpt lat="45.28155" lon="6.16283">
        <ele>1848.8000488281</ele>
        <time>2020-12-16T13:44:25.000Z</time>
      </trkpt>
      <trkpt lat="45.28154" lon="6.16285">
        <ele>1848.5999755859</ele>
        <time>2020-12-16T13:44:27.000Z</time>
      </trkpt>
      <trkpt lat="45.28154" lon="6.16287">
        <ele>1847.5999755859</ele>
        <time>2020-12-16T13:44:32.000Z</time>
      </trkpt>
      <trkpt lat="45.28154" lon="6.16287">
        <ele>1847.4000244141</ele>
        <time>2020-12-16T13:44:33.000Z</time>
      </trkpt>
      <trkpt lat="45.28155" lon="6.1629">
        <ele>1846.5999755859</ele>
        <time>2020-12-16T13:44:36.000Z</time>
      </trkpt>
      <trkpt lat="45.28155" lon="6.16291">
        <ele>1846</ele>
        <time>2020-12-16T13:44:38.000Z</time>
      </trkpt>
      <trkpt lat="45.28155" lon="6.16291">
        <ele>1845.4000244141</ele>
        <time>2020-12-16T13:44:40.000Z</time>
      </trkpt>
      <trkpt lat="45.28155" lon="6.16291">
        <ele>1845</ele>
        <time>2020-12-16T13:44:46.000Z</time>
      </trkpt>
      <trkpt lat="45.28157" lon="6.16294">
        <ele>1845</ele>
        <time>2020-12-16T13:44:47.000Z</time>
      </trkpt>
      <trkpt lat="45.2816" lon="6.16306">
        <ele>1845</ele>
        <time>2020-12-16T13:44:49.000Z</time>
      </trkpt>
      <trkpt lat="45.28163" lon="6.16321">
        <ele>1844.1999511719</ele>
        <time>2020-12-16T13:44:51.000Z</time>
      </trkpt>
      <trkpt lat="45.28162" lon="6.16322">
        <ele>1843.4000244141</ele>
        <time>2020-12-16T13:44:52.000Z</time>
      </trkpt>
      <trkpt lat="45.2816" lon="6.16322">
        <ele>1842</ele>
        <time>2020-12-16T13:44:53.000Z</time>
      </trkpt>
      <trkpt lat="45.28159" lon="6.16323">
        <ele>1840.5999755859</ele>
        <time>2020-12-16T13:44:54.000Z</time>
      </trkpt>
      <trkpt lat="45.28159" lon="6.16323">
        <ele>1839.1999511719</ele>
        <time>2020-12-16T13:44:55.000Z</time>
      </trkpt>
      <trkpt lat="45.28159" lon="6.16323">
        <ele>1838</ele>
        <time>2020-12-16T13:44:56.000Z</time>
      </trkpt>
      <trkpt lat="45.28157" lon="6.16324">
        <ele>1836.8000488281</ele>
        <time>2020-12-16T13:44:58.000Z</time>
      </trkpt>
      <trkpt lat="45.28155" lon="6.16325">
        <ele>1836</ele>
        <time>2020-12-16T13:45:04.000Z</time>
      </trkpt>
      <trkpt lat="45.28154" lon="6.16326">
        <ele>1836.1999511719</ele>
        <time>2020-12-16T13:45:11.000Z</time>
      </trkpt>
      <trkpt lat="45.28154" lon="6.16326">
        <ele>1836.8000488281</ele>
        <time>2020-12-16T13:45:19.000Z</time>
      </trkpt>
      <trkpt lat="45.28153" lon="6.16326">
        <ele>1836.8000488281</ele>
        <time>2020-12-16T13:45:25.000Z</time>
      </trkpt>
      <trkpt lat="45.28152" lon="6.1634">
        <ele>1836.5999755859</ele>
        <time>2020-12-16T13:45:29.000Z</time>
      </trkpt>
      <trkpt lat="45.28152" lon="6.16356">
        <ele>1836</ele>
        <time>2020-12-16T13:45:31.000Z</time>
      </trkpt>
      <trkpt lat="45.28152" lon="6.16364">
        <ele>1835.5999755859</ele>
        <time>2020-12-16T13:45:32.000Z</time>
      </trkpt>
      <trkpt lat="45.2815" lon="6.16369">
        <ele>1834.8000488281</ele>
        <time>2020-12-16T13:45:33.000Z</time>
      </trkpt>
      <trkpt lat="45.28148" lon="6.16373">
        <ele>1834</ele>
        <time>2020-12-16T13:45:34.000Z</time>
      </trkpt>
      <trkpt lat="45.28147" lon="6.16377">
        <ele>1833</ele>
        <time>2020-12-16T13:45:35.000Z</time>
      </trkpt>
      <trkpt lat="45.28145" lon="6.16381">
        <ele>1832.4000244141</ele>
        <time>2020-12-16T13:45:36.000Z</time>
      </trkpt>
      <trkpt lat="45.28142" lon="6.16386">
        <ele>1831.5999755859</ele>
        <time>2020-12-16T13:45:40.000Z</time>
      </trkpt>
      <trkpt lat="45.28141" lon="6.16389">
        <ele>1832</ele>
        <time>2020-12-16T13:45:45.000Z</time>
      </trkpt>
      <trkpt lat="45.2814" lon="6.16392">
        <ele>1832.4000244141</ele>
        <time>2020-12-16T13:45:51.000Z</time>
      </trkpt>
      <trkpt lat="45.2814" lon="6.16394">
        <ele>1832.4000244141</ele>
        <time>2020-12-16T13:45:56.000Z</time>
      </trkpt>
      <trkpt lat="45.28141" lon="6.16401">
        <ele>1832.4000244141</ele>
        <time>2020-12-16T13:45:59.000Z</time>
      </trkpt>
      <trkpt lat="45.2814" lon="6.16405">
        <ele>1832.4000244141</ele>
        <time>2020-12-16T13:46:01.000Z</time>
      </trkpt>
      <trkpt lat="45.2814" lon="6.16409">
        <ele>1832.1999511719</ele>
        <time>2020-12-16T13:46:03.000Z</time>
      </trkpt>
      <trkpt lat="45.28139" lon="6.16419">
        <ele>1832</ele>
        <time>2020-12-16T13:46:09.000Z</time>
      </trkpt>
      <trkpt lat="45.28136" lon="6.16436">
        <ele>1831.8000488281</ele>
        <time>2020-12-16T13:46:15.000Z</time>
      </trkpt>
      <trkpt lat="45.28133" lon="6.16449">
        <ele>1831.1999511719</ele>
        <time>2020-12-16T13:46:18.000Z</time>
      </trkpt>
      <trkpt lat="45.2813" lon="6.16461">
        <ele>1830.4000244141</ele>
        <time>2020-12-16T13:46:20.000Z</time>
      </trkpt>
      <trkpt lat="45.28129" lon="6.16466">
        <ele>1830</ele>
        <time>2020-12-16T13:46:21.000Z</time>
      </trkpt>
      <trkpt lat="45.28127" lon="6.16473">
        <ele>1829</ele>
        <time>2020-12-16T13:46:23.000Z</time>
      </trkpt>
      <trkpt lat="45.28127" lon="6.16487">
        <ele>1828</ele>
        <time>2020-12-16T13:46:25.000Z</time>
      </trkpt>
      <trkpt lat="45.28127" lon="6.16494">
        <ele>1827.5999755859</ele>
        <time>2020-12-16T13:46:26.000Z</time>
      </trkpt>
      <trkpt lat="45.28126" lon="6.16517">
        <ele>1826</ele>
        <time>2020-12-16T13:46:29.000Z</time>
      </trkpt>
      <trkpt lat="45.28126" lon="6.16533">
        <ele>1824.8000488281</ele>
        <time>2020-12-16T13:46:31.000Z</time>
      </trkpt>
      <trkpt lat="45.28125" lon="6.1655">
        <ele>1823.4000244141</ele>
        <time>2020-12-16T13:46:33.000Z</time>
      </trkpt>
      <trkpt lat="45.28122" lon="6.16567">
        <ele>1822</ele>
        <time>2020-12-16T13:46:35.000Z</time>
      </trkpt>
      <trkpt lat="45.28118" lon="6.16576">
        <ele>1820.8000488281</ele>
        <time>2020-12-16T13:46:37.000Z</time>
      </trkpt>
      <trkpt lat="45.28115" lon="6.16583">
        <ele>1820.4000244141</ele>
        <time>2020-12-16T13:46:40.000Z</time>
      </trkpt>
      <trkpt lat="45.28115" lon="6.16586">
        <ele>1820.5999755859</ele>
        <time>2020-12-16T13:46:41.000Z</time>
      </trkpt>
      <trkpt lat="45.28113" lon="6.16594">
        <ele>1821</ele>
        <time>2020-12-16T13:46:46.000Z</time>
      </trkpt>
      <trkpt lat="45.28112" lon="6.16594">
        <ele>1821</ele>
        <time>2020-12-16T13:46:53.000Z</time>
      </trkpt>
      <trkpt lat="45.28112" lon="6.16594">
        <ele>1821.1999511719</ele>
        <time>2020-12-16T13:47:11.000Z</time>
      </trkpt>
      <trkpt lat="45.28112" lon="6.16594">
        <ele>1821.1999511719</ele>
        <time>2020-12-16T13:47:24.000Z</time>
      </trkpt>
      <trkpt lat="45.28111" lon="6.16595">
        <ele>1821.1999511719</ele>
        <time>2020-12-16T13:47:39.000Z</time>
      </trkpt>
      <trkpt lat="45.28111" lon="6.16595">
        <ele>1821.1999511719</ele>
        <time>2020-12-16T13:47:51.000Z</time>
      </trkpt>
      <trkpt lat="45.28111" lon="6.16595">
        <ele>1821.4000244141</ele>
        <time>2020-12-16T13:48:06.000Z</time>
      </trkpt>
      <trkpt lat="45.28114" lon="6.16597">
        <ele>1821.4000244141</ele>
        <time>2020-12-16T13:48:20.000Z</time>
      </trkpt>
      <trkpt lat="45.28114" lon="6.16597">
        <ele>1821.4000244141</ele>
        <time>2020-12-16T13:48:34.000Z</time>
      </trkpt>
      <trkpt lat="45.28114" lon="6.16598">
        <ele>1821.4000244141</ele>
        <time>2020-12-16T13:48:48.000Z</time>
      </trkpt>
      <trkpt lat="45.28114" lon="6.16598">
        <ele>1821.4000244141</ele>
        <time>2020-12-16T13:49:01.000Z</time>
      </trkpt>
      <trkpt lat="45.28114" lon="6.16598">
        <ele>1821.1999511719</ele>
        <time>2020-12-16T13:49:17.000Z</time>
      </trkpt>
      <trkpt lat="45.28115" lon="6.16597">
        <ele>1821.1999511719</ele>
        <time>2020-12-16T13:49:30.000Z</time>
      </trkpt>
      <trkpt lat="45.28115" lon="6.16597">
        <ele>1821.1999511719</ele>
        <time>2020-12-16T13:49:41.000Z</time>
      </trkpt>
      <trkpt lat="45.28115" lon="6.16597">
        <ele>1821.1999511719</ele>
        <time>2020-12-16T13:49:53.000Z</time>
      </trkpt>
      <trkpt lat="45.28116" lon="6.16597">
        <ele>1821</ele>
        <time>2020-12-16T13:50:11.000Z</time>
      </trkpt>
      <trkpt lat="45.28116" lon="6.16597">
        <ele>1821</ele>
        <time>2020-12-16T13:50:22.000Z</time>
      </trkpt>
      <trkpt lat="45.28115" lon="6.16598">
        <ele>1820.8000488281</ele>
        <time>2020-12-16T13:50:37.000Z</time>
      </trkpt>
      <trkpt lat="45.28114" lon="6.166">
        <ele>1820.8000488281</ele>
        <time>2020-12-16T13:50:44.000Z</time>
      </trkpt>
      <trkpt lat="45.28114" lon="6.16609">
        <ele>1820.5999755859</ele>
        <time>2020-12-16T13:50:52.000Z</time>
      </trkpt>
      <trkpt lat="45.28117" lon="6.16618">
        <ele>1820.4000244141</ele>
        <time>2020-12-16T13:50:59.000Z</time>
      </trkpt>
      <trkpt lat="45.28119" lon="6.16628">
        <ele>1819.8000488281</ele>
        <time>2020-12-16T13:51:04.000Z</time>
      </trkpt>
      <trkpt lat="45.28119" lon="6.1663">
        <ele>1819.4000244141</ele>
        <time>2020-12-16T13:51:05.000Z</time>
      </trkpt>
      <trkpt lat="45.28118" lon="6.16642">
        <ele>1819</ele>
        <time>2020-12-16T13:51:08.000Z</time>
      </trkpt>
      <trkpt lat="45.28115" lon="6.16656">
        <ele>1818</ele>
        <time>2020-12-16T13:51:12.000Z</time>
      </trkpt>
      <trkpt lat="45.28114" lon="6.16662">
        <ele>1817.8000488281</ele>
        <time>2020-12-16T13:51:13.000Z</time>
      </trkpt>
      <trkpt lat="45.28114" lon="6.1667">
        <ele>1817</ele>
        <time>2020-12-16T13:51:15.000Z</time>
      </trkpt>
      <trkpt lat="45.28115" lon="6.1668">
        <ele>1815.8000488281</ele>
        <time>2020-12-16T13:51:17.000Z</time>
      </trkpt>
      <trkpt lat="45.28111" lon="6.16686">
        <ele>1815</ele>
        <time>2020-12-16T13:51:18.000Z</time>
      </trkpt>
      <trkpt lat="45.28109" lon="6.16688">
        <ele>1814.4000244141</ele>
        <time>2020-12-16T13:51:19.000Z</time>
      </trkpt>
      <trkpt lat="45.28105" lon="6.16692">
        <ele>1813.1999511719</ele>
        <time>2020-12-16T13:51:21.000Z</time>
      </trkpt>
      <trkpt lat="45.28105" lon="6.16694">
        <ele>1812.5999755859</ele>
        <time>2020-12-16T13:51:22.000Z</time>
      </trkpt>
      <trkpt lat="45.28106" lon="6.16693">
        <ele>1812</ele>
        <time>2020-12-16T13:51:23.000Z</time>
      </trkpt>
      <trkpt lat="45.28106" lon="6.16694">
        <ele>1811</ele>
        <time>2020-12-16T13:51:26.000Z</time>
      </trkpt>
      <trkpt lat="45.28106" lon="6.16694">
        <ele>1810.8000488281</ele>
        <time>2020-12-16T13:51:29.000Z</time>
      </trkpt>
      <trkpt lat="45.28106" lon="6.16694">
        <ele>1811.1999511719</ele>
        <time>2020-12-16T13:51:38.000Z</time>
      </trkpt>
      <trkpt lat="45.28107" lon="6.16706">
        <ele>1811</ele>
        <time>2020-12-16T13:51:42.000Z</time>
      </trkpt>
      <trkpt lat="45.28109" lon="6.16719">
        <ele>1809.5999755859</ele>
        <time>2020-12-16T13:51:47.000Z</time>
      </trkpt>
      <trkpt lat="45.2811" lon="6.16724">
        <ele>1809.4000244141</ele>
        <time>2020-12-16T13:51:48.000Z</time>
      </trkpt>
      <trkpt lat="45.28112" lon="6.16732">
        <ele>1808.5999755859</ele>
        <time>2020-12-16T13:51:50.000Z</time>
      </trkpt>
      <trkpt lat="45.28113" lon="6.16741">
        <ele>1806.5999755859</ele>
        <time>2020-12-16T13:51:53.000Z</time>
      </trkpt>
      <trkpt lat="45.28114" lon="6.16745">
        <ele>1806.1999511719</ele>
        <time>2020-12-16T13:51:54.000Z</time>
      </trkpt>
      <trkpt lat="45.28116" lon="6.16754">
        <ele>1805.5999755859</ele>
        <time>2020-12-16T13:51:57.000Z</time>
      </trkpt>
      <trkpt lat="45.28118" lon="6.16761">
        <ele>1804.8000488281</ele>
        <time>2020-12-16T13:52:00.000Z</time>
      </trkpt>
      <trkpt lat="45.28118" lon="6.16765">
        <ele>1804.1999511719</ele>
        <time>2020-12-16T13:52:02.000Z</time>
      </trkpt>
      <trkpt lat="45.2812" lon="6.16774">
        <ele>1803</ele>
        <time>2020-12-16T13:52:06.000Z</time>
      </trkpt>
      <trkpt lat="45.2812" lon="6.16784">
        <ele>1802</ele>
        <time>2020-12-16T13:52:09.000Z</time>
      </trkpt>
      <trkpt lat="45.2812" lon="6.1679">
        <ele>1800.4000244141</ele>
        <time>2020-12-16T13:52:12.000Z</time>
      </trkpt>
      <trkpt lat="45.28121" lon="6.16796">
        <ele>1799.4000244141</ele>
        <time>2020-12-16T13:52:14.000Z</time>
      </trkpt>
      <trkpt lat="45.28123" lon="6.16805">
        <ele>1798.4000244141</ele>
        <time>2020-12-16T13:52:16.000Z</time>
      </trkpt>
      <trkpt lat="45.28121" lon="6.16813">
        <ele>1797.5999755859</ele>
        <time>2020-12-16T13:52:17.000Z</time>
      </trkpt>
      <trkpt lat="45.28117" lon="6.16828">
        <ele>1796.1999511719</ele>
        <time>2020-12-16T13:52:19.000Z</time>
      </trkpt>
      <trkpt lat="45.28111" lon="6.16843">
        <ele>1794.4000244141</ele>
        <time>2020-12-16T13:52:21.000Z</time>
      </trkpt>
      <trkpt lat="45.28109" lon="6.16855">
        <ele>1793</ele>
        <time>2020-12-16T13:52:23.000Z</time>
      </trkpt>
      <trkpt lat="45.28109" lon="6.16856">
        <ele>1791.5999755859</ele>
        <time>2020-12-16T13:52:25.000Z</time>
      </trkpt>
      <trkpt lat="45.28108" lon="6.16858">
        <ele>1791.1999511719</ele>
        <time>2020-12-16T13:52:26.000Z</time>
      </trkpt>
      <trkpt lat="45.28107" lon="6.1686">
        <ele>1790.5999755859</ele>
        <time>2020-12-16T13:52:27.000Z</time>
      </trkpt>
      <trkpt lat="45.28106" lon="6.16867">
        <ele>1790.1999511719</ele>
        <time>2020-12-16T13:52:29.000Z</time>
      </trkpt>
      <trkpt lat="45.28105" lon="6.16872">
        <ele>1789.5999755859</ele>
        <time>2020-12-16T13:52:31.000Z</time>
      </trkpt>
      <trkpt lat="45.28105" lon="6.16874">
        <ele>1789.4000244141</ele>
        <time>2020-12-16T13:52:32.000Z</time>
      </trkpt>
      <trkpt lat="45.28104" lon="6.16884">
        <ele>1788.1999511719</ele>
        <time>2020-12-16T13:52:35.000Z</time>
      </trkpt>
      <trkpt lat="45.28104" lon="6.16884">
        <ele>1787.8000488281</ele>
        <time>2020-12-16T13:52:36.000Z</time>
      </trkpt>
      <trkpt lat="45.28103" lon="6.16886">
        <ele>1787</ele>
        <time>2020-12-16T13:52:38.000Z</time>
      </trkpt>
      <trkpt lat="45.28103" lon="6.16887">
        <ele>1786</ele>
        <time>2020-12-16T13:52:40.000Z</time>
      </trkpt>
      <trkpt lat="45.28103" lon="6.16887">
        <ele>1785.1999511719</ele>
        <time>2020-12-16T13:52:41.000Z</time>
      </trkpt>
      <trkpt lat="45.28102" lon="6.16888">
        <ele>1785</ele>
        <time>2020-12-16T13:52:42.000Z</time>
      </trkpt>
      <trkpt lat="45.28098" lon="6.16896">
        <ele>1784.8000488281</ele>
        <time>2020-12-16T13:52:44.000Z</time>
      </trkpt>
      <trkpt lat="45.28097" lon="6.16902">
        <ele>1784.5999755859</ele>
        <time>2020-12-16T13:52:45.000Z</time>
      </trkpt>
      <trkpt lat="45.28096" lon="6.16912">
        <ele>1784</ele>
        <time>2020-12-16T13:52:47.000Z</time>
      </trkpt>
      <trkpt lat="45.28095" lon="6.16914">
        <ele>1782.5999755859</ele>
        <time>2020-12-16T13:52:49.000Z</time>
      </trkpt>
      <trkpt lat="45.28094" lon="6.16916">
        <ele>1781</ele>
        <time>2020-12-16T13:52:51.000Z</time>
      </trkpt>
      <trkpt lat="45.28092" lon="6.16931">
        <ele>1779.8000488281</ele>
        <time>2020-12-16T13:52:54.000Z</time>
      </trkpt>
      <trkpt lat="45.28091" lon="6.16942">
        <ele>1778.4000244141</ele>
        <time>2020-12-16T13:52:57.000Z</time>
      </trkpt>
      <trkpt lat="45.2809" lon="6.16947">
        <ele>1777.5999755859</ele>
        <time>2020-12-16T13:52:58.000Z</time>
      </trkpt>
      <trkpt lat="45.28089" lon="6.16952">
        <ele>1777</ele>
        <time>2020-12-16T13:52:59.000Z</time>
      </trkpt>
      <trkpt lat="45.28089" lon="6.16957">
        <ele>1776</ele>
        <time>2020-12-16T13:53:01.000Z</time>
      </trkpt>
      <trkpt lat="45.28089" lon="6.16957">
        <ele>1775</ele>
        <time>2020-12-16T13:53:03.000Z</time>
      </trkpt>
      <trkpt lat="45.28088" lon="6.16961">
        <ele>1773.4000244141</ele>
        <time>2020-12-16T13:53:05.000Z</time>
      </trkpt>
      <trkpt lat="45.28088" lon="6.16962">
        <ele>1773</ele>
        <time>2020-12-16T13:53:06.000Z</time>
      </trkpt>
      <trkpt lat="45.28088" lon="6.16963">
        <ele>1772.8000488281</ele>
        <time>2020-12-16T13:53:07.000Z</time>
      </trkpt>
      <trkpt lat="45.28085" lon="6.16969">
        <ele>1772.1999511719</ele>
        <time>2020-12-16T13:53:09.000Z</time>
      </trkpt>
      <trkpt lat="45.28082" lon="6.16972">
        <ele>1771.1999511719</ele>
        <time>2020-12-16T13:53:12.000Z</time>
      </trkpt>
      <trkpt lat="45.2808" lon="6.16973">
        <ele>1770.5999755859</ele>
        <time>2020-12-16T13:53:13.000Z</time>
      </trkpt>
      <trkpt lat="45.28078" lon="6.16975">
        <ele>1769.8000488281</ele>
        <time>2020-12-16T13:53:14.000Z</time>
      </trkpt>
      <trkpt lat="45.28077" lon="6.16977">
        <ele>1769.1999511719</ele>
        <time>2020-12-16T13:53:15.000Z</time>
      </trkpt>
      <trkpt lat="45.28077" lon="6.16977">
        <ele>1768.5999755859</ele>
        <time>2020-12-16T13:53:16.000Z</time>
      </trkpt>
      <trkpt lat="45.28077" lon="6.16977">
        <ele>1767.4000244141</ele>
        <time>2020-12-16T13:53:18.000Z</time>
      </trkpt>
      <trkpt lat="45.28077" lon="6.16977">
        <ele>1766.8000488281</ele>
        <time>2020-12-16T13:53:19.000Z</time>
      </trkpt>
      <trkpt lat="45.28077" lon="6.16979">
        <ele>1766.1999511719</ele>
        <time>2020-12-16T13:53:20.000Z</time>
      </trkpt>
      <trkpt lat="45.28078" lon="6.16985">
        <ele>1765.1999511719</ele>
        <time>2020-12-16T13:53:23.000Z</time>
      </trkpt>
      <trkpt lat="45.28078" lon="6.16985">
        <ele>1764.8000488281</ele>
        <time>2020-12-16T13:53:24.000Z</time>
      </trkpt>
      <trkpt lat="45.28077" lon="6.1699">
        <ele>1763.8000488281</ele>
        <time>2020-12-16T13:53:26.000Z</time>
      </trkpt>
      <trkpt lat="45.28076" lon="6.17004">
        <ele>1762.1999511719</ele>
        <time>2020-12-16T13:53:29.000Z</time>
      </trkpt>
      <trkpt lat="45.28075" lon="6.17012">
        <ele>1761.5999755859</ele>
        <time>2020-12-16T13:53:30.000Z</time>
      </trkpt>
      <trkpt lat="45.28075" lon="6.1702">
        <ele>1761</ele>
        <time>2020-12-16T13:53:31.000Z</time>
      </trkpt>
      <trkpt lat="45.28076" lon="6.17028">
        <ele>1760.4000244141</ele>
        <time>2020-12-16T13:53:32.000Z</time>
      </trkpt>
      <trkpt lat="45.28076" lon="6.17037">
        <ele>1759.4000244141</ele>
        <time>2020-12-16T13:53:33.000Z</time>
      </trkpt>
      <trkpt lat="45.28077" lon="6.17045">
        <ele>1758.4000244141</ele>
        <time>2020-12-16T13:53:34.000Z</time>
      </trkpt>
      <trkpt lat="45.28075" lon="6.17052">
        <ele>1757.4000244141</ele>
        <time>2020-12-16T13:53:35.000Z</time>
      </trkpt>
      <trkpt lat="45.28075" lon="6.17059">
        <ele>1756.1999511719</ele>
        <time>2020-12-16T13:53:36.000Z</time>
      </trkpt>
      <trkpt lat="45.28073" lon="6.17067">
        <ele>1755.1999511719</ele>
        <time>2020-12-16T13:53:37.000Z</time>
      </trkpt>
      <trkpt lat="45.28072" lon="6.17075">
        <ele>1754.4000244141</ele>
        <time>2020-12-16T13:53:38.000Z</time>
      </trkpt>
      <trkpt lat="45.28068" lon="6.1709">
        <ele>1753.1999511719</ele>
        <time>2020-12-16T13:53:40.000Z</time>
      </trkpt>
      <trkpt lat="45.28066" lon="6.17096">
        <ele>1752.4000244141</ele>
        <time>2020-12-16T13:53:41.000Z</time>
      </trkpt>
      <trkpt lat="45.28065" lon="6.17101">
        <ele>1751.5999755859</ele>
        <time>2020-12-16T13:53:42.000Z</time>
      </trkpt>
      <trkpt lat="45.28064" lon="6.17112">
        <ele>1750</ele>
        <time>2020-12-16T13:53:44.000Z</time>
      </trkpt>
      <trkpt lat="45.28063" lon="6.17115">
        <ele>1749.1999511719</ele>
        <time>2020-12-16T13:53:45.000Z</time>
      </trkpt>
      <trkpt lat="45.28062" lon="6.17117">
        <ele>1748.8000488281</ele>
        <time>2020-12-16T13:53:46.000Z</time>
      </trkpt>
      <trkpt lat="45.28062" lon="6.17117">
        <ele>1748</ele>
        <time>2020-12-16T13:53:48.000Z</time>
      </trkpt>
      <trkpt lat="45.28062" lon="6.17117">
        <ele>1747.5999755859</ele>
        <time>2020-12-16T13:53:49.000Z</time>
      </trkpt>
      <trkpt lat="45.28062" lon="6.17117">
        <ele>1746.1999511719</ele>
        <time>2020-12-16T13:53:52.000Z</time>
      </trkpt>
      <trkpt lat="45.28062" lon="6.17117">
        <ele>1745.1999511719</ele>
        <time>2020-12-16T13:53:56.000Z</time>
      </trkpt>
      <trkpt lat="45.28062" lon="6.17117">
        <ele>1745</ele>
        <time>2020-12-16T13:54:01.000Z</time>
      </trkpt>
      <trkpt lat="45.28062" lon="6.17117">
        <ele>1745.4000244141</ele>
        <time>2020-12-16T13:54:14.000Z</time>
      </trkpt>
      <trkpt lat="45.28062" lon="6.17117">
        <ele>1745.1999511719</ele>
        <time>2020-12-16T13:54:16.000Z</time>
      </trkpt>
      <trkpt lat="45.28058" lon="6.17118">
        <ele>1745.1999511719</ele>
        <time>2020-12-16T13:54:19.000Z</time>
      </trkpt>
      <trkpt lat="45.28055" lon="6.17124">
        <ele>1745.1999511719</ele>
        <time>2020-12-16T13:54:22.000Z</time>
      </trkpt>
      <trkpt lat="45.28051" lon="6.17131">
        <ele>1744.8000488281</ele>
        <time>2020-12-16T13:54:25.000Z</time>
      </trkpt>
      <trkpt lat="45.28049" lon="6.17136">
        <ele>1743.8000488281</ele>
        <time>2020-12-16T13:54:28.000Z</time>
      </trkpt>
      <trkpt lat="45.28047" lon="6.17138">
        <ele>1743.4000244141</ele>
        <time>2020-12-16T13:54:29.000Z</time>
      </trkpt>
      <trkpt lat="45.28044" lon="6.17151">
        <ele>1742.8000488281</ele>
        <time>2020-12-16T13:54:32.000Z</time>
      </trkpt>
      <trkpt lat="45.28044" lon="6.17154">
        <ele>1742.5999755859</ele>
        <time>2020-12-16T13:54:33.000Z</time>
      </trkpt>
      <trkpt lat="45.28042" lon="6.17161">
        <ele>1741.8000488281</ele>
        <time>2020-12-16T13:54:35.000Z</time>
      </trkpt>
      <trkpt lat="45.28039" lon="6.17164">
        <ele>1741.4000244141</ele>
        <time>2020-12-16T13:54:36.000Z</time>
      </trkpt>
      <trkpt lat="45.28037" lon="6.17165">
        <ele>1740.8000488281</ele>
        <time>2020-12-16T13:54:37.000Z</time>
      </trkpt>
      <trkpt lat="45.28034" lon="6.17166">
        <ele>1740.1999511719</ele>
        <time>2020-12-16T13:54:38.000Z</time>
      </trkpt>
      <trkpt lat="45.28026" lon="6.17172">
        <ele>1739.1999511719</ele>
        <time>2020-12-16T13:54:40.000Z</time>
      </trkpt>
      <trkpt lat="45.28023" lon="6.17177">
        <ele>1738</ele>
        <time>2020-12-16T13:54:41.000Z</time>
      </trkpt>
      <trkpt lat="45.28018" lon="6.17184">
        <ele>1736.4000244141</ele>
        <time>2020-12-16T13:54:43.000Z</time>
      </trkpt>
      <trkpt lat="45.28016" lon="6.17183">
        <ele>1734.4000244141</ele>
        <time>2020-12-16T13:54:45.000Z</time>
      </trkpt>
      <trkpt lat="45.28016" lon="6.17183">
        <ele>1733.1999511719</ele>
        <time>2020-12-16T13:54:46.000Z</time>
      </trkpt>
      <trkpt lat="45.28016" lon="6.17183">
        <ele>1731.8000488281</ele>
        <time>2020-12-16T13:54:48.000Z</time>
      </trkpt>
      <trkpt lat="45.28016" lon="6.17183">
        <ele>1731</ele>
        <time>2020-12-16T13:54:55.000Z</time>
      </trkpt>
      <trkpt lat="45.28016" lon="6.17183">
        <ele>1731.4000244141</ele>
        <time>2020-12-16T13:55:05.000Z</time>
      </trkpt>
      <trkpt lat="45.28016" lon="6.17183">
        <ele>1732.1999511719</ele>
        <time>2020-12-16T13:55:14.000Z</time>
      </trkpt>
      <trkpt lat="45.28014" lon="6.17184">
        <ele>1732.1999511719</ele>
        <time>2020-12-16T13:55:15.000Z</time>
      </trkpt>
      <trkpt lat="45.2801" lon="6.172">
        <ele>1731.4000244141</ele>
        <time>2020-12-16T13:55:19.000Z</time>
      </trkpt>
      <trkpt lat="45.28009" lon="6.17206">
        <ele>1731</ele>
        <time>2020-12-16T13:55:20.000Z</time>
      </trkpt>
      <trkpt lat="45.28009" lon="6.17211">
        <ele>1730.5999755859</ele>
        <time>2020-12-16T13:55:21.000Z</time>
      </trkpt>
      <trkpt lat="45.28008" lon="6.17216">
        <ele>1729.8000488281</ele>
        <time>2020-12-16T13:55:22.000Z</time>
      </trkpt>
      <trkpt lat="45.28007" lon="6.17222">
        <ele>1729.1999511719</ele>
        <time>2020-12-16T13:55:23.000Z</time>
      </trkpt>
      <trkpt lat="45.28005" lon="6.17231">
        <ele>1728</ele>
        <time>2020-12-16T13:55:25.000Z</time>
      </trkpt>
      <trkpt lat="45.28004" lon="6.17236">
        <ele>1727</ele>
        <time>2020-12-16T13:55:27.000Z</time>
      </trkpt>
      <trkpt lat="45.28004" lon="6.17236">
        <ele>1726.4000244141</ele>
        <time>2020-12-16T13:55:28.000Z</time>
      </trkpt>
      <trkpt lat="45.28004" lon="6.17236">
        <ele>1725.5999755859</ele>
        <time>2020-12-16T13:55:29.000Z</time>
      </trkpt>
      <trkpt lat="45.28004" lon="6.17236">
        <ele>1725</ele>
        <time>2020-12-16T13:55:33.000Z</time>
      </trkpt>
      <trkpt lat="45.28005" lon="6.17238">
        <ele>1725</ele>
        <time>2020-12-16T13:55:34.000Z</time>
      </trkpt>
      <trkpt lat="45.28005" lon="6.1725">
        <ele>1725</ele>
        <time>2020-12-16T13:55:37.000Z</time>
      </trkpt>
      <trkpt lat="45.28006" lon="6.17255">
        <ele>1724.8000488281</ele>
        <time>2020-12-16T13:55:38.000Z</time>
      </trkpt>
      <trkpt lat="45.28006" lon="6.1726">
        <ele>1724.4000244141</ele>
        <time>2020-12-16T13:55:39.000Z</time>
      </trkpt>
      <trkpt lat="45.28007" lon="6.17273">
        <ele>1723.4000244141</ele>
        <time>2020-12-16T13:55:42.000Z</time>
      </trkpt>
      <trkpt lat="45.28006" lon="6.1728">
        <ele>1722.4000244141</ele>
        <time>2020-12-16T13:55:44.000Z</time>
      </trkpt>
      <trkpt lat="45.28006" lon="6.17286">
        <ele>1721.1999511719</ele>
        <time>2020-12-16T13:55:47.000Z</time>
      </trkpt>
      <trkpt lat="45.28007" lon="6.17288">
        <ele>1719.8000488281</ele>
        <time>2020-12-16T13:55:51.000Z</time>
      </trkpt>
      <trkpt lat="45.28007" lon="6.17288">
        <ele>1719.5999755859</ele>
        <time>2020-12-16T13:55:52.000Z</time>
      </trkpt>
      <trkpt lat="45.28007" lon="6.17288">
        <ele>1718.8000488281</ele>
        <time>2020-12-16T13:55:58.000Z</time>
      </trkpt>
      <trkpt lat="45.28007" lon="6.17288">
        <ele>1718.8000488281</ele>
        <time>2020-12-16T13:56:02.000Z</time>
      </trkpt>
      <trkpt lat="45.28007" lon="6.17288">
        <ele>1718.8000488281</ele>
        <time>2020-12-16T13:56:12.000Z</time>
      </trkpt>
      <trkpt lat="45.28007" lon="6.17288">
        <ele>1719</ele>
        <time>2020-12-16T13:56:30.000Z</time>
      </trkpt>
      <trkpt lat="45.28007" lon="6.17288">
        <ele>1719</ele>
        <time>2020-12-16T13:56:39.000Z</time>
      </trkpt>
      <trkpt lat="45.28008" lon="6.17299">
        <ele>1719</ele>
        <time>2020-12-16T13:56:42.000Z</time>
      </trkpt>
      <trkpt lat="45.2801" lon="6.17311">
        <ele>1718.4000244141</ele>
        <time>2020-12-16T13:56:45.000Z</time>
      </trkpt>
      <trkpt lat="45.28009" lon="6.17315">
        <ele>1718</ele>
        <time>2020-12-16T13:56:46.000Z</time>
      </trkpt>
      <trkpt lat="45.28009" lon="6.17318">
        <ele>1717.4000244141</ele>
        <time>2020-12-16T13:56:47.000Z</time>
      </trkpt>
      <trkpt lat="45.28009" lon="6.17329">
        <ele>1716</ele>
        <time>2020-12-16T13:56:50.000Z</time>
      </trkpt>
      <trkpt lat="45.2801" lon="6.17332">
        <ele>1715.5999755859</ele>
        <time>2020-12-16T13:56:51.000Z</time>
      </trkpt>
      <trkpt lat="45.2801" lon="6.17334">
        <ele>1714.8000488281</ele>
        <time>2020-12-16T13:56:53.000Z</time>
      </trkpt>
      <trkpt lat="45.2801" lon="6.17334">
        <ele>1714.1999511719</ele>
        <time>2020-12-16T13:56:54.000Z</time>
      </trkpt>
      <trkpt lat="45.28009" lon="6.17337">
        <ele>1713.5999755859</ele>
        <time>2020-12-16T13:56:56.000Z</time>
      </trkpt>
      <trkpt lat="45.28009" lon="6.17351">
        <ele>1712.8000488281</ele>
        <time>2020-12-16T13:57:00.000Z</time>
      </trkpt>
      <trkpt lat="45.2801" lon="6.17352">
        <ele>1712.4000244141</ele>
        <time>2020-12-16T13:57:01.000Z</time>
      </trkpt>
      <trkpt lat="45.2801" lon="6.17352">
        <ele>1711.4000244141</ele>
        <time>2020-12-16T13:57:04.000Z</time>
      </trkpt>
      <trkpt lat="45.2801" lon="6.17352">
        <ele>1710</ele>
        <time>2020-12-16T13:57:06.000Z</time>
      </trkpt>
      <trkpt lat="45.2801" lon="6.17352">
        <ele>1709</ele>
        <time>2020-12-16T13:57:10.000Z</time>
      </trkpt>
      <trkpt lat="45.2801" lon="6.17352">
        <ele>1708.8000488281</ele>
        <time>2020-12-16T13:57:11.000Z</time>
      </trkpt>
      <trkpt lat="45.2801" lon="6.17352">
        <ele>1708.8000488281</ele>
        <time>2020-12-16T13:57:18.000Z</time>
      </trkpt>
      <trkpt lat="45.2801" lon="6.17352">
        <ele>1709.4000244141</ele>
        <time>2020-12-16T13:57:28.000Z</time>
      </trkpt>
      <trkpt lat="45.28011" lon="6.17358">
        <ele>1709.4000244141</ele>
        <time>2020-12-16T13:57:33.000Z</time>
      </trkpt>
      <trkpt lat="45.28011" lon="6.1736">
        <ele>1709.1999511719</ele>
        <time>2020-12-16T13:57:34.000Z</time>
      </trkpt>
      <trkpt lat="45.28011" lon="6.17373">
        <ele>1708</ele>
        <time>2020-12-16T13:57:38.000Z</time>
      </trkpt>
      <trkpt lat="45.28011" lon="6.17379">
        <ele>1707.5999755859</ele>
        <time>2020-12-16T13:57:39.000Z</time>
      </trkpt>
      <trkpt lat="45.28014" lon="6.17399">
        <ele>1706.1999511719</ele>
        <time>2020-12-16T13:57:42.000Z</time>
      </trkpt>
      <trkpt lat="45.28016" lon="6.17412">
        <ele>1704.5999755859</ele>
        <time>2020-12-16T13:57:44.000Z</time>
      </trkpt>
      <trkpt lat="45.28018" lon="6.17426">
        <ele>1702.5999755859</ele>
        <time>2020-12-16T13:57:46.000Z</time>
      </trkpt>
      <trkpt lat="45.28019" lon="6.17432">
        <ele>1701.5999755859</ele>
        <time>2020-12-16T13:57:47.000Z</time>
      </trkpt>
      <trkpt lat="45.2802" lon="6.17437">
        <ele>1700.8000488281</ele>
        <time>2020-12-16T13:57:48.000Z</time>
      </trkpt>
      <trkpt lat="45.2802" lon="6.17449">
        <ele>1699.1999511719</ele>
        <time>2020-12-16T13:57:50.000Z</time>
      </trkpt>
      <trkpt lat="45.28021" lon="6.17463">
        <ele>1698</ele>
        <time>2020-12-16T13:57:52.000Z</time>
      </trkpt>
      <trkpt lat="45.28023" lon="6.17475">
        <ele>1696.8000488281</ele>
        <time>2020-12-16T13:57:54.000Z</time>
      </trkpt>
      <trkpt lat="45.28022" lon="6.17481">
        <ele>1696.1999511719</ele>
        <time>2020-12-16T13:57:55.000Z</time>
      </trkpt>
      <trkpt lat="45.28022" lon="6.17487">
        <ele>1695.8000488281</ele>
        <time>2020-12-16T13:57:56.000Z</time>
      </trkpt>
      <trkpt lat="45.28021" lon="6.17499">
        <ele>1694.5999755859</ele>
        <time>2020-12-16T13:57:58.000Z</time>
      </trkpt>
      <trkpt lat="45.28021" lon="6.17511">
        <ele>1693.1999511719</ele>
        <time>2020-12-16T13:58:00.000Z</time>
      </trkpt>
      <trkpt lat="45.28021" lon="6.1752">
        <ele>1692.1999511719</ele>
        <time>2020-12-16T13:58:02.000Z</time>
      </trkpt>
      <trkpt lat="45.2802" lon="6.17529">
        <ele>1691.5999755859</ele>
        <time>2020-12-16T13:58:04.000Z</time>
      </trkpt>
      <trkpt lat="45.2802" lon="6.17535">
        <ele>1691.1999511719</ele>
        <time>2020-12-16T13:58:05.000Z</time>
      </trkpt>
      <trkpt lat="45.2802" lon="6.17542">
        <ele>1690.5999755859</ele>
        <time>2020-12-16T13:58:06.000Z</time>
      </trkpt>
      <trkpt lat="45.2802" lon="6.1755">
        <ele>1690.1999511719</ele>
        <time>2020-12-16T13:58:07.000Z</time>
      </trkpt>
      <trkpt lat="45.2802" lon="6.17559">
        <ele>1689.5999755859</ele>
        <time>2020-12-16T13:58:08.000Z</time>
      </trkpt>
      <trkpt lat="45.28019" lon="6.17567">
        <ele>1689</ele>
        <time>2020-12-16T13:58:09.000Z</time>
      </trkpt>
      <trkpt lat="45.28019" lon="6.17575">
        <ele>1688.1999511719</ele>
        <time>2020-12-16T13:58:10.000Z</time>
      </trkpt>
      <trkpt lat="45.28017" lon="6.17589">
        <ele>1686.4000244141</ele>
        <time>2020-12-16T13:58:12.000Z</time>
      </trkpt>
      <trkpt lat="45.28016" lon="6.17598">
        <ele>1684.8000488281</ele>
        <time>2020-12-16T13:58:14.000Z</time>
      </trkpt>
      <trkpt lat="45.28015" lon="6.17606">
        <ele>1683.5999755859</ele>
        <time>2020-12-16T13:58:16.000Z</time>
      </trkpt>
      <trkpt lat="45.28013" lon="6.17616">
        <ele>1682.5999755859</ele>
        <time>2020-12-16T13:58:18.000Z</time>
      </trkpt>
      <trkpt lat="45.28012" lon="6.17622">
        <ele>1682.1999511719</ele>
        <time>2020-12-16T13:58:19.000Z</time>
      </trkpt>
      <trkpt lat="45.2801" lon="6.17632">
        <ele>1681.4000244141</ele>
        <time>2020-12-16T13:58:21.000Z</time>
      </trkpt>
      <trkpt lat="45.2801" lon="6.17634">
        <ele>1680.8000488281</ele>
        <time>2020-12-16T13:58:22.000Z</time>
      </trkpt>
      <trkpt lat="45.2801" lon="6.17635">
        <ele>1680.4000244141</ele>
        <time>2020-12-16T13:58:23.000Z</time>
      </trkpt>
      <trkpt lat="45.2801" lon="6.17635">
        <ele>1679.4000244141</ele>
        <time>2020-12-16T13:58:26.000Z</time>
      </trkpt>
      <trkpt lat="45.2801" lon="6.17635">
        <ele>1679</ele>
        <time>2020-12-16T13:58:32.000Z</time>
      </trkpt>
      <trkpt lat="45.28008" lon="6.17646">
        <ele>1678.8000488281</ele>
        <time>2020-12-16T13:58:36.000Z</time>
      </trkpt>
      <trkpt lat="45.28008" lon="6.17661">
        <ele>1678</ele>
        <time>2020-12-16T13:58:40.000Z</time>
      </trkpt>
      <trkpt lat="45.28007" lon="6.17665">
        <ele>1677</ele>
        <time>2020-12-16T13:58:41.000Z</time>
      </trkpt>
      <trkpt lat="45.28007" lon="6.17677">
        <ele>1676.1999511719</ele>
        <time>2020-12-16T13:58:43.000Z</time>
      </trkpt>
      <trkpt lat="45.28007" lon="6.17684">
        <ele>1675.8000488281</ele>
        <time>2020-12-16T13:58:44.000Z</time>
      </trkpt>
      <trkpt lat="45.28005" lon="6.17697">
        <ele>1674.5999755859</ele>
        <time>2020-12-16T13:58:46.000Z</time>
      </trkpt>
      <trkpt lat="45.28004" lon="6.17702">
        <ele>1674</ele>
        <time>2020-12-16T13:58:47.000Z</time>
      </trkpt>
      <trkpt lat="45.28004" lon="6.17707">
        <ele>1673.1999511719</ele>
        <time>2020-12-16T13:58:48.000Z</time>
      </trkpt>
      <trkpt lat="45.28004" lon="6.17715">
        <ele>1671.5999755859</ele>
        <time>2020-12-16T13:58:50.000Z</time>
      </trkpt>
      <trkpt lat="45.28005" lon="6.17726">
        <ele>1670.5999755859</ele>
        <time>2020-12-16T13:58:52.000Z</time>
      </trkpt>
      <trkpt lat="45.28006" lon="6.1774">
        <ele>1669.5999755859</ele>
        <time>2020-12-16T13:58:54.000Z</time>
      </trkpt>
      <trkpt lat="45.28007" lon="6.17745">
        <ele>1669.1999511719</ele>
        <time>2020-12-16T13:58:55.000Z</time>
      </trkpt>
      <trkpt lat="45.28008" lon="6.17749">
        <ele>1668.5999755859</ele>
        <time>2020-12-16T13:58:56.000Z</time>
      </trkpt>
      <trkpt lat="45.28009" lon="6.17753">
        <ele>1668</ele>
        <time>2020-12-16T13:58:57.000Z</time>
      </trkpt>
      <trkpt lat="45.2801" lon="6.17757">
        <ele>1666.8000488281</ele>
        <time>2020-12-16T13:58:59.000Z</time>
      </trkpt>
      <trkpt lat="45.2801" lon="6.17758">
        <ele>1666.4000244141</ele>
        <time>2020-12-16T13:59:00.000Z</time>
      </trkpt>
      <trkpt lat="45.2801" lon="6.17758">
        <ele>1665.8000488281</ele>
        <time>2020-12-16T13:59:05.000Z</time>
      </trkpt>
      <trkpt lat="45.2801" lon="6.17758">
        <ele>1665.8000488281</ele>
        <time>2020-12-16T13:59:06.000Z</time>
      </trkpt>
      <trkpt lat="45.2801" lon="6.17758">
        <ele>1665.8000488281</ele>
        <time>2020-12-16T13:59:15.000Z</time>
      </trkpt>
      <trkpt lat="45.28003" lon="6.17771">
        <ele>1665.5999755859</ele>
        <time>2020-12-16T13:59:20.000Z</time>
      </trkpt>
      <trkpt lat="45.27999" lon="6.17786">
        <ele>1664.5999755859</ele>
        <time>2020-12-16T13:59:23.000Z</time>
      </trkpt>
      <trkpt lat="45.27998" lon="6.17796">
        <ele>1663.5999755859</ele>
        <time>2020-12-16T13:59:25.000Z</time>
      </trkpt>
      <trkpt lat="45.27997" lon="6.17802">
        <ele>1663</ele>
        <time>2020-12-16T13:59:26.000Z</time>
      </trkpt>
      <trkpt lat="45.27995" lon="6.17817">
        <ele>1661.5999755859</ele>
        <time>2020-12-16T13:59:28.000Z</time>
      </trkpt>
      <trkpt lat="45.27995" lon="6.17824">
        <ele>1660</ele>
        <time>2020-12-16T13:59:29.000Z</time>
      </trkpt>
      <trkpt lat="45.27993" lon="6.17839">
        <ele>1658.4000244141</ele>
        <time>2020-12-16T13:59:31.000Z</time>
      </trkpt>
      <trkpt lat="45.27992" lon="6.17846">
        <ele>1657.5999755859</ele>
        <time>2020-12-16T13:59:32.000Z</time>
      </trkpt>
      <trkpt lat="45.27991" lon="6.17853">
        <ele>1656.5999755859</ele>
        <time>2020-12-16T13:59:33.000Z</time>
      </trkpt>
      <trkpt lat="45.2799" lon="6.17866">
        <ele>1655</ele>
        <time>2020-12-16T13:59:35.000Z</time>
      </trkpt>
      <trkpt lat="45.27986" lon="6.1788">
        <ele>1653.5999755859</ele>
        <time>2020-12-16T13:59:37.000Z</time>
      </trkpt>
      <trkpt lat="45.27983" lon="6.17887">
        <ele>1653.1999511719</ele>
        <time>2020-12-16T13:59:38.000Z</time>
      </trkpt>
      <trkpt lat="45.27979" lon="6.17903">
        <ele>1652.1999511719</ele>
        <time>2020-12-16T13:59:40.000Z</time>
      </trkpt>
      <trkpt lat="45.27978" lon="6.17918">
        <ele>1651</ele>
        <time>2020-12-16T13:59:42.000Z</time>
      </trkpt>
      <trkpt lat="45.27977" lon="6.17926">
        <ele>1650.4000244141</ele>
        <time>2020-12-16T13:59:43.000Z</time>
      </trkpt>
      <trkpt lat="45.27976" lon="6.17933">
        <ele>1649.5999755859</ele>
        <time>2020-12-16T13:59:44.000Z</time>
      </trkpt>
      <trkpt lat="45.27977" lon="6.1794">
        <ele>1648.8000488281</ele>
        <time>2020-12-16T13:59:45.000Z</time>
      </trkpt>
      <trkpt lat="45.27978" lon="6.17943">
        <ele>1648.1999511719</ele>
        <time>2020-12-16T13:59:46.000Z</time>
      </trkpt>
      <trkpt lat="45.27978" lon="6.17944">
        <ele>1647.4000244141</ele>
        <time>2020-12-16T13:59:47.000Z</time>
      </trkpt>
      <trkpt lat="45.27978" lon="6.17944">
        <ele>1646.8000488281</ele>
        <time>2020-12-16T13:59:48.000Z</time>
      </trkpt>
      <trkpt lat="45.27978" lon="6.17944">
        <ele>1645.5999755859</ele>
        <time>2020-12-16T13:59:50.000Z</time>
      </trkpt>
      <trkpt lat="45.27978" lon="6.17944">
        <ele>1645.1999511719</ele>
        <time>2020-12-16T13:59:54.000Z</time>
      </trkpt>
      <trkpt lat="45.27974" lon="6.17958">
        <ele>1645</ele>
        <time>2020-12-16T13:59:57.000Z</time>
      </trkpt>
      <trkpt lat="45.27972" lon="6.17964">
        <ele>1645</ele>
        <time>2020-12-16T13:59:58.000Z</time>
      </trkpt>
      <trkpt lat="45.2797" lon="6.17971">
        <ele>1644.5999755859</ele>
        <time>2020-12-16T13:59:59.000Z</time>
      </trkpt>
      <trkpt lat="45.27969" lon="6.17977">
        <ele>1644.1999511719</ele>
        <time>2020-12-16T14:00:00.000Z</time>
      </trkpt>
      <trkpt lat="45.27969" lon="6.17983">
        <ele>1643.5999755859</ele>
        <time>2020-12-16T14:00:01.000Z</time>
      </trkpt>
      <trkpt lat="45.27967" lon="6.1799">
        <ele>1642.8000488281</ele>
        <time>2020-12-16T14:00:02.000Z</time>
      </trkpt>
      <trkpt lat="45.27967" lon="6.17996">
        <ele>1642.1999511719</ele>
        <time>2020-12-16T14:00:03.000Z</time>
      </trkpt>
      <trkpt lat="45.27967" lon="6.18002">
        <ele>1641.4000244141</ele>
        <time>2020-12-16T14:00:04.000Z</time>
      </trkpt>
      <trkpt lat="45.27967" lon="6.18006">
        <ele>1640.4000244141</ele>
        <time>2020-12-16T14:00:05.000Z</time>
      </trkpt>
      <trkpt lat="45.27967" lon="6.18007">
        <ele>1639.5999755859</ele>
        <time>2020-12-16T14:00:06.000Z</time>
      </trkpt>
      <trkpt lat="45.27968" lon="6.18007">
        <ele>1638</ele>
        <time>2020-12-16T14:00:08.000Z</time>
      </trkpt>
      <trkpt lat="45.27968" lon="6.18007">
        <ele>1636.5999755859</ele>
        <time>2020-12-16T14:00:10.000Z</time>
      </trkpt>
      <trkpt lat="45.27967" lon="6.18016">
        <ele>1635.8000488281</ele>
        <time>2020-12-16T14:00:13.000Z</time>
      </trkpt>
      <trkpt lat="45.27967" lon="6.18021">
        <ele>1635.4000244141</ele>
        <time>2020-12-16T14:00:14.000Z</time>
      </trkpt>
      <trkpt lat="45.27969" lon="6.1803">
        <ele>1635</ele>
        <time>2020-12-16T14:00:16.000Z</time>
      </trkpt>
      <trkpt lat="45.2797" lon="6.18036">
        <ele>1634.1999511719</ele>
        <time>2020-12-16T14:00:17.000Z</time>
      </trkpt>
      <trkpt lat="45.2797" lon="6.18042">
        <ele>1633.5999755859</ele>
        <time>2020-12-16T14:00:18.000Z</time>
      </trkpt>
      <trkpt lat="45.27971" lon="6.18048">
        <ele>1633.1999511719</ele>
        <time>2020-12-16T14:00:19.000Z</time>
      </trkpt>
      <trkpt lat="45.27973" lon="6.18057">
        <ele>1632</ele>
        <time>2020-12-16T14:00:21.000Z</time>
      </trkpt>
      <trkpt lat="45.27972" lon="6.18069">
        <ele>1630.8000488281</ele>
        <time>2020-12-16T14:00:23.000Z</time>
      </trkpt>
      <trkpt lat="45.27971" lon="6.18076">
        <ele>1630.1999511719</ele>
        <time>2020-12-16T14:00:24.000Z</time>
      </trkpt>
      <trkpt lat="45.27971" lon="6.18078">
        <ele>1629.5999755859</ele>
        <time>2020-12-16T14:00:25.000Z</time>
      </trkpt>
      <trkpt lat="45.27971" lon="6.1808">
        <ele>1629</ele>
        <time>2020-12-16T14:00:26.000Z</time>
      </trkpt>
      <trkpt lat="45.27972" lon="6.18081">
        <ele>1628.4000244141</ele>
        <time>2020-12-16T14:00:27.000Z</time>
      </trkpt>
      <trkpt lat="45.27972" lon="6.18081">
        <ele>1626.5999755859</ele>
        <time>2020-12-16T14:00:29.000Z</time>
      </trkpt>
      <trkpt lat="45.27972" lon="6.18081">
        <ele>1624.8000488281</ele>
        <time>2020-12-16T14:00:31.000Z</time>
      </trkpt>
      <trkpt lat="45.27972" lon="6.18081">
        <ele>1623.8000488281</ele>
        <time>2020-12-16T14:00:34.000Z</time>
      </trkpt>
      <trkpt lat="45.27972" lon="6.18081">
        <ele>1623.5999755859</ele>
        <time>2020-12-16T14:00:39.000Z</time>
      </trkpt>
      <trkpt lat="45.27972" lon="6.18081">
        <ele>1623.8000488281</ele>
        <time>2020-12-16T14:00:48.000Z</time>
      </trkpt>
      <trkpt lat="45.27972" lon="6.18081">
        <ele>1623.1999511719</ele>
        <time>2020-12-16T14:00:54.000Z</time>
      </trkpt>
      <trkpt lat="45.27971" lon="6.18082">
        <ele>1623</ele>
        <time>2020-12-16T14:00:59.000Z</time>
      </trkpt>
      <trkpt lat="45.27972" lon="6.18091">
        <ele>1623.1999511719</ele>
        <time>2020-12-16T14:01:05.000Z</time>
      </trkpt>
      <trkpt lat="45.27974" lon="6.18114">
        <ele>1622.8000488281</ele>
        <time>2020-12-16T14:01:09.000Z</time>
      </trkpt>
      <trkpt lat="45.27974" lon="6.18122">
        <ele>1622.4000244141</ele>
        <time>2020-12-16T14:01:10.000Z</time>
      </trkpt>
      <trkpt lat="45.27974" lon="6.18135">
        <ele>1621.4000244141</ele>
        <time>2020-12-16T14:01:12.000Z</time>
      </trkpt>
      <trkpt lat="45.27974" lon="6.18139">
        <ele>1620.8000488281</ele>
        <time>2020-12-16T14:01:13.000Z</time>
      </trkpt>
      <trkpt lat="45.27974" lon="6.18142">
        <ele>1619.1999511719</ele>
        <time>2020-12-16T14:01:15.000Z</time>
      </trkpt>
      <trkpt lat="45.27974" lon="6.18149">
        <ele>1618.4000244141</ele>
        <time>2020-12-16T14:01:20.000Z</time>
      </trkpt>
      <trkpt lat="45.27976" lon="6.18159">
        <ele>1618.5999755859</ele>
        <time>2020-12-16T14:01:27.000Z</time>
      </trkpt>
      <trkpt lat="45.27977" lon="6.1817">
        <ele>1618.4000244141</ele>
        <time>2020-12-16T14:01:32.000Z</time>
      </trkpt>
      <trkpt lat="45.27979" lon="6.18179">
        <ele>1618.1999511719</ele>
        <time>2020-12-16T14:01:34.000Z</time>
      </trkpt>
      <trkpt lat="45.2798" lon="6.18182">
        <ele>1617.8000488281</ele>
        <time>2020-12-16T14:01:36.000Z</time>
      </trkpt>
      <trkpt lat="45.2798" lon="6.18182">
        <ele>1617.1999511719</ele>
        <time>2020-12-16T14:01:38.000Z</time>
      </trkpt>
      <trkpt lat="45.2798" lon="6.18182">
        <ele>1616.1999511719</ele>
        <time>2020-12-16T14:01:42.000Z</time>
      </trkpt>
      <trkpt lat="45.2798" lon="6.18182">
        <ele>1616.1999511719</ele>
        <time>2020-12-16T14:01:43.000Z</time>
      </trkpt>
      <trkpt lat="45.2798" lon="6.18182">
        <ele>1616.1999511719</ele>
        <time>2020-12-16T14:01:53.000Z</time>
      </trkpt>
      <trkpt lat="45.2798" lon="6.18182">
        <ele>1616</ele>
        <time>2020-12-16T14:01:59.000Z</time>
      </trkpt>
      <trkpt lat="45.2798" lon="6.18182">
        <ele>1615.8000488281</ele>
        <time>2020-12-16T14:02:06.000Z</time>
      </trkpt>
      <trkpt lat="45.2798" lon="6.18182">
        <ele>1615.1999511719</ele>
        <time>2020-12-16T14:02:12.000Z</time>
      </trkpt>
      <trkpt lat="45.27981" lon="6.18183">
        <ele>1615</ele>
        <time>2020-12-16T14:02:16.000Z</time>
      </trkpt>
      <trkpt lat="45.27981" lon="6.18183">
        <ele>1614.8000488281</ele>
        <time>2020-12-16T14:02:26.000Z</time>
      </trkpt>
      <trkpt lat="45.27981" lon="6.18183">
        <ele>1614.8000488281</ele>
        <time>2020-12-16T14:02:36.000Z</time>
      </trkpt>
      <trkpt lat="45.27982" lon="6.18187">
        <ele>1614.8000488281</ele>
        <time>2020-12-16T14:02:40.000Z</time>
      </trkpt>
      <trkpt lat="45.27984" lon="6.18194">
        <ele>1614.5999755859</ele>
        <time>2020-12-16T14:02:42.000Z</time>
      </trkpt>
      <trkpt lat="45.27986" lon="6.18204">
        <ele>1614</ele>
        <time>2020-12-16T14:02:46.000Z</time>
      </trkpt>
      <trkpt lat="45.27986" lon="6.18206">
        <ele>1613.8000488281</ele>
        <time>2020-12-16T14:02:47.000Z</time>
      </trkpt>
      <trkpt lat="45.27983" lon="6.18209">
        <ele>1612.8000488281</ele>
        <time>2020-12-16T14:02:50.000Z</time>
      </trkpt>
      <trkpt lat="45.27981" lon="6.18209">
        <ele>1612.4000244141</ele>
        <time>2020-12-16T14:02:52.000Z</time>
      </trkpt>
      <trkpt lat="45.27981" lon="6.18213">
        <ele>1612</ele>
        <time>2020-12-16T14:02:54.000Z</time>
      </trkpt>
      <trkpt lat="45.27982" lon="6.18217">
        <ele>1612</ele>
        <time>2020-12-16T14:02:55.000Z</time>
      </trkpt>
      <trkpt lat="45.27986" lon="6.18221">
        <ele>1611.8000488281</ele>
        <time>2020-12-16T14:02:56.000Z</time>
      </trkpt>
      <trkpt lat="45.2799" lon="6.18224">
        <ele>1611.4000244141</ele>
        <time>2020-12-16T14:02:58.000Z</time>
      </trkpt>
      <trkpt lat="45.27992" lon="6.18224">
        <ele>1610.1999511719</ele>
        <time>2020-12-16T14:03:00.000Z</time>
      </trkpt>
      <trkpt lat="45.27992" lon="6.18224">
        <ele>1608.8000488281</ele>
        <time>2020-12-16T14:03:02.000Z</time>
      </trkpt>
      <trkpt lat="45.27992" lon="6.18224">
        <ele>1608</ele>
        <time>2020-12-16T14:03:05.000Z</time>
      </trkpt>
      <trkpt lat="45.27993" lon="6.18226">
        <ele>1608</ele>
        <time>2020-12-16T14:03:08.000Z</time>
      </trkpt>
      <trkpt lat="45.27994" lon="6.1823">
        <ele>1608.1999511719</ele>
        <time>2020-12-16T14:03:11.000Z</time>
      </trkpt>
      <trkpt lat="45.27992" lon="6.18243">
        <ele>1608.1999511719</ele>
        <time>2020-12-16T14:03:15.000Z</time>
      </trkpt>
      <trkpt lat="45.2799" lon="6.18255">
        <ele>1607.5999755859</ele>
        <time>2020-12-16T14:03:18.000Z</time>
      </trkpt>
      <trkpt lat="45.27988" lon="6.18265">
        <ele>1606.8000488281</ele>
        <time>2020-12-16T14:03:20.000Z</time>
      </trkpt>
      <trkpt lat="45.27987" lon="6.18269">
        <ele>1606.4000244141</ele>
        <time>2020-12-16T14:03:21.000Z</time>
      </trkpt>
      <trkpt lat="45.27986" lon="6.18274">
        <ele>1605.1999511719</ele>
        <time>2020-12-16T14:03:24.000Z</time>
      </trkpt>
      <trkpt lat="45.27985" lon="6.18277">
        <ele>1604.8000488281</ele>
        <time>2020-12-16T14:03:26.000Z</time>
      </trkpt>
      <trkpt lat="45.27983" lon="6.18283">
        <ele>1605</ele>
        <time>2020-12-16T14:03:31.000Z</time>
      </trkpt>
      <trkpt lat="45.27979" lon="6.1829">
        <ele>1605.4000244141</ele>
        <time>2020-12-16T14:03:38.000Z</time>
      </trkpt>
      <trkpt lat="45.27976" lon="6.183">
        <ele>1605.5999755859</ele>
        <time>2020-12-16T14:03:45.000Z</time>
      </trkpt>
      <trkpt lat="45.27971" lon="6.18314">
        <ele>1605.4000244141</ele>
        <time>2020-12-16T14:03:53.000Z</time>
      </trkpt>
      <trkpt lat="45.27964" lon="6.18332">
        <ele>1604.5999755859</ele>
        <time>2020-12-16T14:03:59.000Z</time>
      </trkpt>
      <trkpt lat="45.27961" lon="6.18342">
        <ele>1604</ele>
        <time>2020-12-16T14:04:02.000Z</time>
      </trkpt>
      <trkpt lat="45.27955" lon="6.18359">
        <ele>1602.8000488281</ele>
        <time>2020-12-16T14:04:06.000Z</time>
      </trkpt>
      <trkpt lat="45.27952" lon="6.1837">
        <ele>1602.1999511719</ele>
        <time>2020-12-16T14:04:08.000Z</time>
      </trkpt>
      <trkpt lat="45.27952" lon="6.18374">
        <ele>1601.8000488281</ele>
        <time>2020-12-16T14:04:09.000Z</time>
      </trkpt>
      <trkpt lat="45.27951" lon="6.18377">
        <ele>1601.4000244141</ele>
        <time>2020-12-16T14:04:10.000Z</time>
      </trkpt>
      <trkpt lat="45.27949" lon="6.18382">
        <ele>1600.1999511719</ele>
        <time>2020-12-16T14:04:12.000Z</time>
      </trkpt>
      <trkpt lat="45.27947" lon="6.1839">
        <ele>1598.8000488281</ele>
        <time>2020-12-16T14:04:14.000Z</time>
      </trkpt>
      <trkpt lat="45.27938" lon="6.18401">
        <ele>1597.4000244141</ele>
        <time>2020-12-16T14:04:17.000Z</time>
      </trkpt>
      <trkpt lat="45.27934" lon="6.18404">
        <ele>1596.1999511719</ele>
        <time>2020-12-16T14:04:18.000Z</time>
      </trkpt>
      <trkpt lat="45.27931" lon="6.18412">
        <ele>1595</ele>
        <time>2020-12-16T14:04:20.000Z</time>
      </trkpt>
      <trkpt lat="45.27931" lon="6.18412">
        <ele>1593.5999755859</ele>
        <time>2020-12-16T14:04:22.000Z</time>
      </trkpt>
      <trkpt lat="45.27932" lon="6.18412">
        <ele>1592.8000488281</ele>
        <time>2020-12-16T14:04:23.000Z</time>
      </trkpt>
      <trkpt lat="45.27932" lon="6.18412">
        <ele>1592.1999511719</ele>
        <time>2020-12-16T14:04:24.000Z</time>
      </trkpt>
      <trkpt lat="45.27933" lon="6.18412">
        <ele>1591.4000244141</ele>
        <time>2020-12-16T14:04:30.000Z</time>
      </trkpt>
      <trkpt lat="45.27926" lon="6.18419">
        <ele>1591.4000244141</ele>
        <time>2020-12-16T14:04:34.000Z</time>
      </trkpt>
      <trkpt lat="45.27923" lon="6.18418">
        <ele>1591.4000244141</ele>
        <time>2020-12-16T14:04:35.000Z</time>
      </trkpt>
      <trkpt lat="45.27922" lon="6.18418">
        <ele>1591.1999511719</ele>
        <time>2020-12-16T14:04:36.000Z</time>
      </trkpt>
      <trkpt lat="45.27922" lon="6.18417">
        <ele>1589.5999755859</ele>
        <time>2020-12-16T14:04:39.000Z</time>
      </trkpt>
      <trkpt lat="45.27923" lon="6.18417">
        <ele>1587.8000488281</ele>
        <time>2020-12-16T14:04:41.000Z</time>
      </trkpt>
      <trkpt lat="45.27924" lon="6.18417">
        <ele>1586.8000488281</ele>
        <time>2020-12-16T14:04:42.000Z</time>
      </trkpt>
      <trkpt lat="45.27925" lon="6.18417">
        <ele>1586.8000488281</ele>
        <time>2020-12-16T14:04:43.000Z</time>
      </trkpt>
      <trkpt lat="45.27927" lon="6.18415">
        <ele>1586.8000488281</ele>
        <time>2020-12-16T14:04:49.000Z</time>
      </trkpt>
      <trkpt lat="45.27925" lon="6.1841">
        <ele>1585.8000488281</ele>
        <time>2020-12-16T14:04:55.000Z</time>
      </trkpt>
      <trkpt lat="45.27924" lon="6.18409">
        <ele>1585.5999755859</ele>
        <time>2020-12-16T14:04:56.000Z</time>
      </trkpt>
      <trkpt lat="45.27926" lon="6.18406">
        <ele>1585</ele>
        <time>2020-12-16T14:05:01.000Z</time>
      </trkpt>
      <trkpt lat="45.2792" lon="6.18406">
        <ele>1585</ele>
        <time>2020-12-16T14:05:03.000Z</time>
      </trkpt>
      <trkpt lat="45.27919" lon="6.18408">
        <ele>1585</ele>
        <time>2020-12-16T14:05:04.000Z</time>
      </trkpt>
      <trkpt lat="45.27918" lon="6.18414">
        <ele>1584.4000244141</ele>
        <time>2020-12-16T14:05:07.000Z</time>
      </trkpt>
      <trkpt lat="45.27917" lon="6.18416">
        <ele>1583.5999755859</ele>
        <time>2020-12-16T14:05:09.000Z</time>
      </trkpt>
      <trkpt lat="45.27917" lon="6.18416">
        <ele>1583.1999511719</ele>
        <time>2020-12-16T14:05:10.000Z</time>
      </trkpt>
      <trkpt lat="45.27916" lon="6.18417">
        <ele>1582.1999511719</ele>
        <time>2020-12-16T14:05:13.000Z</time>
      </trkpt>
      <trkpt lat="45.27916" lon="6.18418">
        <ele>1581.5999755859</ele>
        <time>2020-12-16T14:05:15.000Z</time>
      </trkpt>
      <trkpt lat="45.27916" lon="6.1842">
        <ele>1581</ele>
        <time>2020-12-16T14:05:18.000Z</time>
      </trkpt>
      <trkpt lat="45.27915" lon="6.18424">
        <ele>1580.5999755859</ele>
        <time>2020-12-16T14:05:20.000Z</time>
      </trkpt>
      <trkpt lat="45.27915" lon="6.1843">
        <ele>1579.8000488281</ele>
        <time>2020-12-16T14:05:24.000Z</time>
      </trkpt>
      <trkpt lat="45.27916" lon="6.18434">
        <ele>1579</ele>
        <time>2020-12-16T14:05:26.000Z</time>
      </trkpt>
      <trkpt lat="45.27917" lon="6.18435">
        <ele>1578.5999755859</ele>
        <time>2020-12-16T14:05:27.000Z</time>
      </trkpt>
      <trkpt lat="45.27919" lon="6.18438">
        <ele>1577</ele>
        <time>2020-12-16T14:05:30.000Z</time>
      </trkpt>
      <trkpt lat="45.2792" lon="6.18443">
        <ele>1575.8000488281</ele>
        <time>2020-12-16T14:05:34.000Z</time>
      </trkpt>
      <trkpt lat="45.27921" lon="6.18446">
        <ele>1575.5999755859</ele>
        <time>2020-12-16T14:05:35.000Z</time>
      </trkpt>
      <trkpt lat="45.27921" lon="6.18449">
        <ele>1574.5999755859</ele>
        <time>2020-12-16T14:05:39.000Z</time>
      </trkpt>
      <trkpt lat="45.27921" lon="6.18449">
        <ele>1574.1999511719</ele>
        <time>2020-12-16T14:05:41.000Z</time>
      </trkpt>
      <trkpt lat="45.27915" lon="6.18455">
        <ele>1573.8000488281</ele>
        <time>2020-12-16T14:05:43.000Z</time>
      </trkpt>
      <trkpt lat="45.27911" lon="6.18458">
        <ele>1573.5999755859</ele>
        <time>2020-12-16T14:05:46.000Z</time>
      </trkpt>
      <trkpt lat="45.27909" lon="6.1846">
        <ele>1572</ele>
        <time>2020-12-16T14:05:49.000Z</time>
      </trkpt>
      <trkpt lat="45.27906" lon="6.18462">
        <ele>1571.4000244141</ele>
        <time>2020-12-16T14:05:50.000Z</time>
      </trkpt>
      <trkpt lat="45.27902" lon="6.18464">
        <ele>1571</ele>
        <time>2020-12-16T14:05:51.000Z</time>
      </trkpt>
      <trkpt lat="45.27899" lon="6.18464">
        <ele>1570.8000488281</ele>
        <time>2020-12-16T14:05:52.000Z</time>
      </trkpt>
      <trkpt lat="45.27893" lon="6.1847">
        <ele>1569.5999755859</ele>
        <time>2020-12-16T14:05:54.000Z</time>
      </trkpt>
      <trkpt lat="45.27893" lon="6.18476">
        <ele>1568.1999511719</ele>
        <time>2020-12-16T14:05:56.000Z</time>
      </trkpt>
      <trkpt lat="45.27894" lon="6.18477">
        <ele>1567.5999755859</ele>
        <time>2020-12-16T14:05:57.000Z</time>
      </trkpt>
      <trkpt lat="45.27894" lon="6.18477">
        <ele>1566.8000488281</ele>
        <time>2020-12-16T14:05:58.000Z</time>
      </trkpt>
      <trkpt lat="45.27894" lon="6.18477">
        <ele>1565</ele>
        <time>2020-12-16T14:06:00.000Z</time>
      </trkpt>
      <trkpt lat="45.27894" lon="6.18478">
        <ele>1564</ele>
        <time>2020-12-16T14:06:03.000Z</time>
      </trkpt>
      <trkpt lat="45.27893" lon="6.1848">
        <ele>1563.8000488281</ele>
        <time>2020-12-16T14:06:04.000Z</time>
      </trkpt>
      <trkpt lat="45.27895" lon="6.18489">
        <ele>1563.5999755859</ele>
        <time>2020-12-16T14:06:07.000Z</time>
      </trkpt>
      <trkpt lat="45.27895" lon="6.18493">
        <ele>1563.4000244141</ele>
        <time>2020-12-16T14:06:08.000Z</time>
      </trkpt>
      <trkpt lat="45.27895" lon="6.18501">
        <ele>1562.5999755859</ele>
        <time>2020-12-16T14:06:10.000Z</time>
      </trkpt>
      <trkpt lat="45.27894" lon="6.18506">
        <ele>1562.1999511719</ele>
        <time>2020-12-16T14:06:11.000Z</time>
      </trkpt>
      <trkpt lat="45.27893" lon="6.18514">
        <ele>1561.4000244141</ele>
        <time>2020-12-16T14:06:13.000Z</time>
      </trkpt>
      <trkpt lat="45.27893" lon="6.18514">
        <ele>1560.8000488281</ele>
        <time>2020-12-16T14:06:14.000Z</time>
      </trkpt>
      <trkpt lat="45.27893" lon="6.18515">
        <ele>1559.8000488281</ele>
        <time>2020-12-16T14:06:16.000Z</time>
      </trkpt>
      <trkpt lat="45.27893" lon="6.18515">
        <ele>1557.4000244141</ele>
        <time>2020-12-16T14:06:18.000Z</time>
      </trkpt>
      <trkpt lat="45.27893" lon="6.18517">
        <ele>1556.5999755859</ele>
        <time>2020-12-16T14:06:20.000Z</time>
      </trkpt>
      <trkpt lat="45.27893" lon="6.18517">
        <ele>1556.4000244141</ele>
        <time>2020-12-16T14:06:21.000Z</time>
      </trkpt>
      <trkpt lat="45.27893" lon="6.18517">
        <ele>1556</ele>
        <time>2020-12-16T14:06:28.000Z</time>
      </trkpt>
      <trkpt lat="45.27893" lon="6.18517">
        <ele>1556</ele>
        <time>2020-12-16T14:06:37.000Z</time>
      </trkpt>
      <trkpt lat="45.27893" lon="6.18517">
        <ele>1556.4000244141</ele>
        <time>2020-12-16T14:06:44.000Z</time>
      </trkpt>
      <trkpt lat="45.27893" lon="6.18517">
        <ele>1556.5999755859</ele>
        <time>2020-12-16T14:06:52.000Z</time>
      </trkpt>
      <trkpt lat="45.27893" lon="6.1852">
        <ele>1556.5999755859</ele>
        <time>2020-12-16T14:06:56.000Z</time>
      </trkpt>
      <trkpt lat="45.27893" lon="6.18523">
        <ele>1556.5999755859</ele>
        <time>2020-12-16T14:06:57.000Z</time>
      </trkpt>
      <trkpt lat="45.27896" lon="6.18532">
        <ele>1556.5999755859</ele>
        <time>2020-12-16T14:07:02.000Z</time>
      </trkpt>
      <trkpt lat="45.27903" lon="6.18548">
        <ele>1555.1999511719</ele>
        <time>2020-12-16T14:07:08.000Z</time>
      </trkpt>
      <trkpt lat="45.27905" lon="6.18562">
        <ele>1554</ele>
        <time>2020-12-16T14:07:11.000Z</time>
      </trkpt>
      <trkpt lat="45.27905" lon="6.18568">
        <ele>1553.5999755859</ele>
        <time>2020-12-16T14:07:12.000Z</time>
      </trkpt>
      <trkpt lat="45.27906" lon="6.18574">
        <ele>1553</ele>
        <time>2020-12-16T14:07:13.000Z</time>
      </trkpt>
      <trkpt lat="45.27907" lon="6.1858">
        <ele>1552.5999755859</ele>
        <time>2020-12-16T14:07:14.000Z</time>
      </trkpt>
      <trkpt lat="45.27908" lon="6.18589">
        <ele>1551.4000244141</ele>
        <time>2020-12-16T14:07:16.000Z</time>
      </trkpt>
      <trkpt lat="45.27908" lon="6.18594">
        <ele>1550.1999511719</ele>
        <time>2020-12-16T14:07:18.000Z</time>
      </trkpt>
      <trkpt lat="45.27908" lon="6.18596">
        <ele>1549.5999755859</ele>
        <time>2020-12-16T14:07:19.000Z</time>
      </trkpt>
      <trkpt lat="45.27907" lon="6.18601">
        <ele>1549.1999511719</ele>
        <time>2020-12-16T14:07:20.000Z</time>
      </trkpt>
      <trkpt lat="45.27906" lon="6.18606">
        <ele>1548.8000488281</ele>
        <time>2020-12-16T14:07:21.000Z</time>
      </trkpt>
      <trkpt lat="45.27906" lon="6.18619">
        <ele>1547.5999755859</ele>
        <time>2020-12-16T14:07:25.000Z</time>
      </trkpt>
      <trkpt lat="45.27906" lon="6.18619">
        <ele>1546.5999755859</ele>
        <time>2020-12-16T14:07:27.000Z</time>
      </trkpt>
      <trkpt lat="45.27905" lon="6.18619">
        <ele>1545.1999511719</ele>
        <time>2020-12-16T14:07:30.000Z</time>
      </trkpt>
      <trkpt lat="45.27905" lon="6.18619">
        <ele>1545.1999511719</ele>
        <time>2020-12-16T14:07:32.000Z</time>
      </trkpt>
      <trkpt lat="45.27904" lon="6.18626">
        <ele>1545</ele>
        <time>2020-12-16T14:07:37.000Z</time>
      </trkpt>
      <trkpt lat="45.27904" lon="6.18645">
        <ele>1544.5999755859</ele>
        <time>2020-12-16T14:07:40.000Z</time>
      </trkpt>
      <trkpt lat="45.27904" lon="6.18659">
        <ele>1544.1999511719</ele>
        <time>2020-12-16T14:07:42.000Z</time>
      </trkpt>
      <trkpt lat="45.27904" lon="6.18672">
        <ele>1543</ele>
        <time>2020-12-16T14:07:44.000Z</time>
      </trkpt>
      <trkpt lat="45.27903" lon="6.18685">
        <ele>1541.8000488281</ele>
        <time>2020-12-16T14:07:46.000Z</time>
      </trkpt>
      <trkpt lat="45.279" lon="6.18698">
        <ele>1540.5999755859</ele>
        <time>2020-12-16T14:07:48.000Z</time>
      </trkpt>
      <trkpt lat="45.27897" lon="6.18713">
        <ele>1539.4000244141</ele>
        <time>2020-12-16T14:07:50.000Z</time>
      </trkpt>
      <trkpt lat="45.27896" lon="6.18722">
        <ele>1539</ele>
        <time>2020-12-16T14:07:51.000Z</time>
      </trkpt>
      <trkpt lat="45.27894" lon="6.18732">
        <ele>1538.4000244141</ele>
        <time>2020-12-16T14:07:52.000Z</time>
      </trkpt>
      <trkpt lat="45.27894" lon="6.18742">
        <ele>1537.8000488281</ele>
        <time>2020-12-16T14:07:53.000Z</time>
      </trkpt>
      <trkpt lat="45.27894" lon="6.18751">
        <ele>1536.1999511719</ele>
        <time>2020-12-16T14:07:54.000Z</time>
      </trkpt>
      <trkpt lat="45.27893" lon="6.18761">
        <ele>1535.4000244141</ele>
        <time>2020-12-16T14:07:55.000Z</time>
      </trkpt>
      <trkpt lat="45.27891" lon="6.18771">
        <ele>1534.4000244141</ele>
        <time>2020-12-16T14:07:56.000Z</time>
      </trkpt>
      <trkpt lat="45.2789" lon="6.18781">
        <ele>1533.1999511719</ele>
        <time>2020-12-16T14:07:57.000Z</time>
      </trkpt>
      <trkpt lat="45.27889" lon="6.18791">
        <ele>1532.1999511719</ele>
        <time>2020-12-16T14:07:58.000Z</time>
      </trkpt>
      <trkpt lat="45.27888" lon="6.18801">
        <ele>1531.1999511719</ele>
        <time>2020-12-16T14:07:59.000Z</time>
      </trkpt>
      <trkpt lat="45.27887" lon="6.18809">
        <ele>1530</ele>
        <time>2020-12-16T14:08:00.000Z</time>
      </trkpt>
      <trkpt lat="45.27886" lon="6.18818">
        <ele>1529</ele>
        <time>2020-12-16T14:08:01.000Z</time>
      </trkpt>
      <trkpt lat="45.27884" lon="6.18825">
        <ele>1527.8000488281</ele>
        <time>2020-12-16T14:08:02.000Z</time>
      </trkpt>
      <trkpt lat="45.27881" lon="6.18832">
        <ele>1526.8000488281</ele>
        <time>2020-12-16T14:08:03.000Z</time>
      </trkpt>
      <trkpt lat="45.27875" lon="6.18845">
        <ele>1525.4000244141</ele>
        <time>2020-12-16T14:08:05.000Z</time>
      </trkpt>
      <trkpt lat="45.27867" lon="6.1886">
        <ele>1524.1999511719</ele>
        <time>2020-12-16T14:08:08.000Z</time>
      </trkpt>
      <trkpt lat="45.27865" lon="6.18864">
        <ele>1524</ele>
        <time>2020-12-16T14:08:09.000Z</time>
      </trkpt>
      <trkpt lat="45.27856" lon="6.18883">
        <ele>1523.1999511719</ele>
        <time>2020-12-16T14:08:14.000Z</time>
      </trkpt>
      <trkpt lat="45.27856" lon="6.18887">
        <ele>1523.1999511719</ele>
        <time>2020-12-16T14:08:15.000Z</time>
      </trkpt>
      <trkpt lat="45.27852" lon="6.18908">
        <ele>1522</ele>
        <time>2020-12-16T14:08:19.000Z</time>
      </trkpt>
      <trkpt lat="45.2785" lon="6.18916">
        <ele>1521.8000488281</ele>
        <time>2020-12-16T14:08:20.000Z</time>
      </trkpt>
      <trkpt lat="45.2785" lon="6.18922">
        <ele>1521.4000244141</ele>
        <time>2020-12-16T14:08:21.000Z</time>
      </trkpt>
      <trkpt lat="45.27851" lon="6.18927">
        <ele>1521</ele>
        <time>2020-12-16T14:08:22.000Z</time>
      </trkpt>
      <trkpt lat="45.27851" lon="6.1893">
        <ele>1520.4000244141</ele>
        <time>2020-12-16T14:08:23.000Z</time>
      </trkpt>
      <trkpt lat="45.27851" lon="6.18933">
        <ele>1520</ele>
        <time>2020-12-16T14:08:24.000Z</time>
      </trkpt>
      <trkpt lat="45.27848" lon="6.18942">
        <ele>1518.8000488281</ele>
        <time>2020-12-16T14:08:26.000Z</time>
      </trkpt>
      <trkpt lat="45.27846" lon="6.18948">
        <ele>1518.1999511719</ele>
        <time>2020-12-16T14:08:27.000Z</time>
      </trkpt>
      <trkpt lat="45.27844" lon="6.18961">
        <ele>1517.4000244141</ele>
        <time>2020-12-16T14:08:29.000Z</time>
      </trkpt>
      <trkpt lat="45.27845" lon="6.18964">
        <ele>1517</ele>
        <time>2020-12-16T14:08:30.000Z</time>
      </trkpt>
      <trkpt lat="45.27846" lon="6.18965">
        <ele>1515.8000488281</ele>
        <time>2020-12-16T14:08:32.000Z</time>
      </trkpt>
      <trkpt lat="45.27846" lon="6.18965">
        <ele>1515.1999511719</ele>
        <time>2020-12-16T14:08:33.000Z</time>
      </trkpt>
      <trkpt lat="45.27846" lon="6.18965">
        <ele>1514.5999755859</ele>
        <time>2020-12-16T14:08:34.000Z</time>
      </trkpt>
      <trkpt lat="45.27846" lon="6.18965">
        <ele>1513.5999755859</ele>
        <time>2020-12-16T14:08:38.000Z</time>
      </trkpt>
      <trkpt lat="45.27846" lon="6.18965">
        <ele>1513.4000244141</ele>
        <time>2020-12-16T14:08:40.000Z</time>
      </trkpt>
      <trkpt lat="45.27846" lon="6.18965">
        <ele>1513.1999511719</ele>
        <time>2020-12-16T14:08:50.000Z</time>
      </trkpt>
      <trkpt lat="45.27845" lon="6.18967">
        <ele>1513.4000244141</ele>
        <time>2020-12-16T14:08:53.000Z</time>
      </trkpt>
      <trkpt lat="45.27845" lon="6.18973">
        <ele>1513.4000244141</ele>
        <time>2020-12-16T14:08:55.000Z</time>
      </trkpt>
      <trkpt lat="45.27847" lon="6.18985">
        <ele>1512.5999755859</ele>
        <time>2020-12-16T14:08:59.000Z</time>
      </trkpt>
      <trkpt lat="45.27848" lon="6.18986">
        <ele>1512.1999511719</ele>
        <time>2020-12-16T14:09:00.000Z</time>
      </trkpt>
      <trkpt lat="45.27849" lon="6.18988">
        <ele>1511.1999511719</ele>
        <time>2020-12-16T14:09:02.000Z</time>
      </trkpt>
      <trkpt lat="45.2785" lon="6.1899">
        <ele>1509.8000488281</ele>
        <time>2020-12-16T14:09:05.000Z</time>
      </trkpt>
      <trkpt lat="45.27852" lon="6.18991">
        <ele>1508.8000488281</ele>
        <time>2020-12-16T14:09:11.000Z</time>
      </trkpt>
      <trkpt lat="45.27853" lon="6.18992">
        <ele>1508.1999511719</ele>
        <time>2020-12-16T14:09:17.000Z</time>
      </trkpt>
      <trkpt lat="45.27853" lon="6.18992">
        <ele>1507.8000488281</ele>
        <time>2020-12-16T14:09:20.000Z</time>
      </trkpt>
      <trkpt lat="45.27853" lon="6.18992">
        <ele>1507.8000488281</ele>
        <time>2020-12-16T14:09:23.000Z</time>
      </trkpt>
      <trkpt lat="45.27853" lon="6.18993">
        <ele>1507.8000488281</ele>
        <time>2020-12-16T14:09:28.000Z</time>
      </trkpt>
      <trkpt lat="45.27852" lon="6.18996">
        <ele>1507.8000488281</ele>
        <time>2020-12-16T14:09:29.000Z</time>
      </trkpt>
      <trkpt lat="45.2785" lon="6.19003">
        <ele>1507.4000244141</ele>
        <time>2020-12-16T14:09:33.000Z</time>
      </trkpt>
      <trkpt lat="45.27847" lon="6.19018">
        <ele>1506.8000488281</ele>
        <time>2020-12-16T14:09:36.000Z</time>
      </trkpt>
      <trkpt lat="45.27845" lon="6.19025">
        <ele>1506.5999755859</ele>
        <time>2020-12-16T14:09:37.000Z</time>
      </trkpt>
      <trkpt lat="45.27844" lon="6.19033">
        <ele>1506.1999511719</ele>
        <time>2020-12-16T14:09:38.000Z</time>
      </trkpt>
      <trkpt lat="45.27842" lon="6.19048">
        <ele>1504.8000488281</ele>
        <time>2020-12-16T14:09:40.000Z</time>
      </trkpt>
      <trkpt lat="45.27841" lon="6.19053">
        <ele>1503.4000244141</ele>
        <time>2020-12-16T14:09:42.000Z</time>
      </trkpt>
      <trkpt lat="45.2784" lon="6.19054">
        <ele>1502.5999755859</ele>
        <time>2020-12-16T14:09:43.000Z</time>
      </trkpt>
      <trkpt lat="45.27839" lon="6.19054">
        <ele>1502</ele>
        <time>2020-12-16T14:09:44.000Z</time>
      </trkpt>
      <trkpt lat="45.2784" lon="6.19058">
        <ele>1501</ele>
        <time>2020-12-16T14:09:47.000Z</time>
      </trkpt>
      <trkpt lat="45.27842" lon="6.19063">
        <ele>1500.4000244141</ele>
        <time>2020-12-16T14:09:50.000Z</time>
      </trkpt>
      <trkpt lat="45.27845" lon="6.19071">
        <ele>1500</ele>
        <time>2020-12-16T14:09:53.000Z</time>
      </trkpt>
      <trkpt lat="45.27846" lon="6.19073">
        <ele>1499.5999755859</ele>
        <time>2020-12-16T14:09:54.000Z</time>
      </trkpt>
      <trkpt lat="45.27851" lon="6.19086">
        <ele>1498.8000488281</ele>
        <time>2020-12-16T14:09:58.000Z</time>
      </trkpt>
      <trkpt lat="45.27852" lon="6.19091">
        <ele>1498.5999755859</ele>
        <time>2020-12-16T14:09:59.000Z</time>
      </trkpt>
      <trkpt lat="45.27855" lon="6.19111">
        <ele>1497.5999755859</ele>
        <time>2020-12-16T14:10:02.000Z</time>
      </trkpt>
      <trkpt lat="45.27857" lon="6.19119">
        <ele>1497.1999511719</ele>
        <time>2020-12-16T14:10:03.000Z</time>
      </trkpt>
      <trkpt lat="45.27859" lon="6.19126">
        <ele>1496.5999755859</ele>
        <time>2020-12-16T14:10:04.000Z</time>
      </trkpt>
      <trkpt lat="45.2786" lon="6.19132">
        <ele>1496.1999511719</ele>
        <time>2020-12-16T14:10:05.000Z</time>
      </trkpt>
      <trkpt lat="45.27861" lon="6.19137">
        <ele>1495</ele>
        <time>2020-12-16T14:10:07.000Z</time>
      </trkpt>
      <trkpt lat="45.27863" lon="6.19143">
        <ele>1493.8000488281</ele>
        <time>2020-12-16T14:10:10.000Z</time>
      </trkpt>
      <trkpt lat="45.27863" lon="6.19145">
        <ele>1493.5999755859</ele>
        <time>2020-12-16T14:10:11.000Z</time>
      </trkpt>
      <trkpt lat="45.27868" lon="6.19158">
        <ele>1492.8000488281</ele>
        <time>2020-12-16T14:10:15.000Z</time>
      </trkpt>
      <trkpt lat="45.27871" lon="6.19162">
        <ele>1492.4000244141</ele>
        <time>2020-12-16T14:10:16.000Z</time>
      </trkpt>
      <trkpt lat="45.27875" lon="6.19169">
        <ele>1490.4000244141</ele>
        <time>2020-12-16T14:10:18.000Z</time>
      </trkpt>
      <trkpt lat="45.27876" lon="6.19173">
        <ele>1489.5999755859</ele>
        <time>2020-12-16T14:10:19.000Z</time>
      </trkpt>
      <trkpt lat="45.27876" lon="6.19177">
        <ele>1488.8000488281</ele>
        <time>2020-12-16T14:10:20.000Z</time>
      </trkpt>
      <trkpt lat="45.27876" lon="6.19189">
        <ele>1487.4000244141</ele>
        <time>2020-12-16T14:10:23.000Z</time>
      </trkpt>
      <trkpt lat="45.27876" lon="6.19191">
        <ele>1487.1999511719</ele>
        <time>2020-12-16T14:10:24.000Z</time>
      </trkpt>
      <trkpt lat="45.27878" lon="6.192">
        <ele>1486.5999755859</ele>
        <time>2020-12-16T14:10:28.000Z</time>
      </trkpt>
      <trkpt lat="45.27879" lon="6.19202">
        <ele>1486.5999755859</ele>
        <time>2020-12-16T14:10:29.000Z</time>
      </trkpt>
      <trkpt lat="45.27881" lon="6.1921">
        <ele>1486.4000244141</ele>
        <time>2020-12-16T14:10:32.000Z</time>
      </trkpt>
      <trkpt lat="45.27882" lon="6.19217">
        <ele>1486.1999511719</ele>
        <time>2020-12-16T14:10:34.000Z</time>
      </trkpt>
      <trkpt lat="45.27884" lon="6.19241">
        <ele>1485.4000244141</ele>
        <time>2020-12-16T14:10:39.000Z</time>
      </trkpt>
      <trkpt lat="45.27885" lon="6.19245">
        <ele>1485</ele>
        <time>2020-12-16T14:10:40.000Z</time>
      </trkpt>
      <trkpt lat="45.27886" lon="6.19253">
        <ele>1484</ele>
        <time>2020-12-16T14:10:42.000Z</time>
      </trkpt>
      <trkpt lat="45.27887" lon="6.19265">
        <ele>1482.5999755859</ele>
        <time>2020-12-16T14:10:45.000Z</time>
      </trkpt>
      <trkpt lat="45.27888" lon="6.19268">
        <ele>1482.1999511719</ele>
        <time>2020-12-16T14:10:46.000Z</time>
      </trkpt>
      <trkpt lat="45.27888" lon="6.19273">
        <ele>1481.4000244141</ele>
        <time>2020-12-16T14:10:48.000Z</time>
      </trkpt>
      <trkpt lat="45.27889" lon="6.1928">
        <ele>1480.5999755859</ele>
        <time>2020-12-16T14:10:50.000Z</time>
      </trkpt>
      <trkpt lat="45.27889" lon="6.19285">
        <ele>1480.1999511719</ele>
        <time>2020-12-16T14:10:51.000Z</time>
      </trkpt>
      <trkpt lat="45.2789" lon="6.19297">
        <ele>1479.1999511719</ele>
        <time>2020-12-16T14:10:54.000Z</time>
      </trkpt>
      <trkpt lat="45.27892" lon="6.19312">
        <ele>1478</ele>
        <time>2020-12-16T14:10:57.000Z</time>
      </trkpt>
      <trkpt lat="45.27893" lon="6.19328">
        <ele>1476.5999755859</ele>
        <time>2020-12-16T14:11:00.000Z</time>
      </trkpt>
      <trkpt lat="45.27894" lon="6.1933">
        <ele>1476</ele>
        <time>2020-12-16T14:11:01.000Z</time>
      </trkpt>
      <trkpt lat="45.27895" lon="6.19331">
        <ele>1475.4000244141</ele>
        <time>2020-12-16T14:11:02.000Z</time>
      </trkpt>
      <trkpt lat="45.27896" lon="6.19331">
        <ele>1474.4000244141</ele>
        <time>2020-12-16T14:11:04.000Z</time>
      </trkpt>
      <trkpt lat="45.27896" lon="6.19331">
        <ele>1473.5999755859</ele>
        <time>2020-12-16T14:11:05.000Z</time>
      </trkpt>
      <trkpt lat="45.27896" lon="6.19331">
        <ele>1472.8000488281</ele>
        <time>2020-12-16T14:11:06.000Z</time>
      </trkpt>
      <trkpt lat="45.27897" lon="6.19334">
        <ele>1472.5999755859</ele>
        <time>2020-12-16T14:11:12.000Z</time>
      </trkpt>
      <trkpt lat="45.27903" lon="6.1935">
        <ele>1472</ele>
        <time>2020-12-16T14:11:17.000Z</time>
      </trkpt>
      <trkpt lat="45.27905" lon="6.19353">
        <ele>1471.5999755859</ele>
        <time>2020-12-16T14:11:18.000Z</time>
      </trkpt>
      <trkpt lat="45.2791" lon="6.19362">
        <ele>1470.5999755859</ele>
        <time>2020-12-16T14:11:21.000Z</time>
      </trkpt>
      <trkpt lat="45.27912" lon="6.19364">
        <ele>1470.1999511719</ele>
        <time>2020-12-16T14:11:22.000Z</time>
      </trkpt>
      <trkpt lat="45.27917" lon="6.19369">
        <ele>1469.4000244141</ele>
        <time>2020-12-16T14:11:24.000Z</time>
      </trkpt>
      <trkpt lat="45.27923" lon="6.19374">
        <ele>1468.5999755859</ele>
        <time>2020-12-16T14:11:26.000Z</time>
      </trkpt>
      <trkpt lat="45.27924" lon="6.19377">
        <ele>1468.1999511719</ele>
        <time>2020-12-16T14:11:27.000Z</time>
      </trkpt>
      <trkpt lat="45.27922" lon="6.19378">
        <ele>1467.1999511719</ele>
        <time>2020-12-16T14:11:29.000Z</time>
      </trkpt>
      <trkpt lat="45.27922" lon="6.19379">
        <ele>1466.1999511719</ele>
        <time>2020-12-16T14:11:30.000Z</time>
      </trkpt>
      <trkpt lat="45.27922" lon="6.19379">
        <ele>1465</ele>
        <time>2020-12-16T14:11:33.000Z</time>
      </trkpt>
      <trkpt lat="45.27922" lon="6.19379">
        <ele>1464.8000488281</ele>
        <time>2020-12-16T14:11:34.000Z</time>
      </trkpt>
      <trkpt lat="45.27923" lon="6.19382">
        <ele>1464.8000488281</ele>
        <time>2020-12-16T14:11:40.000Z</time>
      </trkpt>
      <trkpt lat="45.27922" lon="6.19386">
        <ele>1465</ele>
        <time>2020-12-16T14:11:42.000Z</time>
      </trkpt>
      <trkpt lat="45.27923" lon="6.19394">
        <ele>1465</ele>
        <time>2020-12-16T14:11:44.000Z</time>
      </trkpt>
      <trkpt lat="45.27932" lon="6.19413">
        <ele>1463.8000488281</ele>
        <time>2020-12-16T14:11:49.000Z</time>
      </trkpt>
      <trkpt lat="45.27935" lon="6.19418">
        <ele>1463.1999511719</ele>
        <time>2020-12-16T14:11:50.000Z</time>
      </trkpt>
      <trkpt lat="45.27938" lon="6.19424">
        <ele>1462.5999755859</ele>
        <time>2020-12-16T14:11:51.000Z</time>
      </trkpt>
      <trkpt lat="45.27944" lon="6.19434">
        <ele>1461.1999511719</ele>
        <time>2020-12-16T14:11:53.000Z</time>
      </trkpt>
      <trkpt lat="45.27947" lon="6.19439">
        <ele>1459.8000488281</ele>
        <time>2020-12-16T14:11:54.000Z</time>
      </trkpt>
      <trkpt lat="45.27949" lon="6.19445">
        <ele>1459</ele>
        <time>2020-12-16T14:11:55.000Z</time>
      </trkpt>
      <trkpt lat="45.27952" lon="6.19451">
        <ele>1458.4000244141</ele>
        <time>2020-12-16T14:11:56.000Z</time>
      </trkpt>
      <trkpt lat="45.27959" lon="6.19465">
        <ele>1457.5999755859</ele>
        <time>2020-12-16T14:11:58.000Z</time>
      </trkpt>
      <trkpt lat="45.27963" lon="6.19472">
        <ele>1457</ele>
        <time>2020-12-16T14:11:59.000Z</time>
      </trkpt>
      <trkpt lat="45.27969" lon="6.19483">
        <ele>1456</ele>
        <time>2020-12-16T14:12:01.000Z</time>
      </trkpt>
      <trkpt lat="45.27971" lon="6.19487">
        <ele>1455.5999755859</ele>
        <time>2020-12-16T14:12:02.000Z</time>
      </trkpt>
      <trkpt lat="45.27975" lon="6.19495">
        <ele>1455</ele>
        <time>2020-12-16T14:12:04.000Z</time>
      </trkpt>
      <trkpt lat="45.27979" lon="6.19504">
        <ele>1454.8000488281</ele>
        <time>2020-12-16T14:12:07.000Z</time>
      </trkpt>
      <trkpt lat="45.27987" lon="6.19518">
        <ele>1454.8000488281</ele>
        <time>2020-12-16T14:12:14.000Z</time>
      </trkpt>
      <trkpt lat="45.27987" lon="6.19519">
        <ele>1454.5999755859</ele>
        <time>2020-12-16T14:12:19.000Z</time>
      </trkpt>
      <trkpt lat="45.27987" lon="6.19519">
        <ele>1454.4000244141</ele>
        <time>2020-12-16T14:12:28.000Z</time>
      </trkpt>
      <trkpt lat="45.27987" lon="6.19519">
        <ele>1454.4000244141</ele>
        <time>2020-12-16T14:12:34.000Z</time>
      </trkpt>
      <trkpt lat="45.27987" lon="6.19519">
        <ele>1454.4000244141</ele>
        <time>2020-12-16T14:12:46.000Z</time>
      </trkpt>
      <trkpt lat="45.27987" lon="6.19519">
        <ele>1454</ele>
        <time>2020-12-16T14:12:52.000Z</time>
      </trkpt>
      <trkpt lat="45.27987" lon="6.19519">
        <ele>1454</ele>
        <time>2020-12-16T14:12:53.000Z</time>
      </trkpt>
      <trkpt lat="45.28003" lon="6.19537">
        <ele>1390.5999755859</ele>
        <time>2020-12-16T14:15:29.000Z</time>
      </trkpt>
      <trkpt lat="45.28002" lon="6.19533">
        <ele>1390.5999755859</ele>
        <time>2020-12-16T14:15:38.000Z</time>
      </trkpt>
      <trkpt lat="45.27993" lon="6.1953">
        <ele>1390.5999755859</ele>
        <time>2020-12-16T14:15:52.000Z</time>
      </trkpt>
      <trkpt lat="45.27991" lon="6.19529">
        <ele>1390.4000244141</ele>
        <time>2020-12-16T14:15:59.000Z</time>
      </trkpt>
      <trkpt lat="45.27989" lon="6.19529">
        <ele>1390.4000244141</ele>
        <time>2020-12-16T14:16:04.000Z</time>
      </trkpt>
      <trkpt lat="45.27988" lon="6.19528">
        <ele>1390.4000244141</ele>
        <time>2020-12-16T14:16:13.000Z</time>
      </trkpt>
      <trkpt lat="45.27988" lon="6.19528">
        <ele>1390.4000244141</ele>
        <time>2020-12-16T14:16:23.000Z</time>
      </trkpt>
      <trkpt lat="45.27992" lon="6.19533">
        <ele>1390.4000244141</ele>
        <time>2020-12-16T14:16:30.000Z</time>
      </trkpt>
      <trkpt lat="45.27995" lon="6.1954">
        <ele>1390</ele>
        <time>2020-12-16T14:16:36.000Z</time>
      </trkpt>
      <trkpt lat="45.27997" lon="6.19541">
        <ele>1389.8000488281</ele>
        <time>2020-12-16T14:16:37.000Z</time>
      </trkpt>
      <trkpt lat="45.28004" lon="6.19554">
        <ele>1390</ele>
        <time>2020-12-16T14:16:45.000Z</time>
      </trkpt>
      <trkpt lat="45.28014" lon="6.19565">
        <ele>1389.4000244141</ele>
        <time>2020-12-16T14:16:51.000Z</time>
      </trkpt>
      <trkpt lat="45.28021" lon="6.19567">
        <ele>1388.8000488281</ele>
        <time>2020-12-16T14:16:54.000Z</time>
      </trkpt>
      <trkpt lat="45.28023" lon="6.19569">
        <ele>1388.5999755859</ele>
        <time>2020-12-16T14:16:55.000Z</time>
      </trkpt>
      <trkpt lat="45.28023" lon="6.19587">
        <ele>1387.5999755859</ele>
        <time>2020-12-16T14:16:58.000Z</time>
      </trkpt>
      <trkpt lat="45.28021" lon="6.19602">
        <ele>1386.1999511719</ele>
        <time>2020-12-16T14:17:00.000Z</time>
      </trkpt>
      <trkpt lat="45.28021" lon="6.19608">
        <ele>1385.5999755859</ele>
        <time>2020-12-16T14:17:01.000Z</time>
      </trkpt>
      <trkpt lat="45.28021" lon="6.19613">
        <ele>1384.5999755859</ele>
        <time>2020-12-16T14:17:02.000Z</time>
      </trkpt>
      <trkpt lat="45.28024" lon="6.19622">
        <ele>1383.5999755859</ele>
        <time>2020-12-16T14:17:04.000Z</time>
      </trkpt>
      <trkpt lat="45.28026" lon="6.19626">
        <ele>1382.8000488281</ele>
        <time>2020-12-16T14:17:05.000Z</time>
      </trkpt>
      <trkpt lat="45.28029" lon="6.1963">
        <ele>1382</ele>
        <time>2020-12-16T14:17:06.000Z</time>
      </trkpt>
      <trkpt lat="45.28034" lon="6.19637">
        <ele>1380.8000488281</ele>
        <time>2020-12-16T14:17:08.000Z</time>
      </trkpt>
      <trkpt lat="45.28036" lon="6.19642">
        <ele>1380.1999511719</ele>
        <time>2020-12-16T14:17:09.000Z</time>
      </trkpt>
      <trkpt lat="45.28037" lon="6.19648">
        <ele>1379.8000488281</ele>
        <time>2020-12-16T14:17:10.000Z</time>
      </trkpt>
      <trkpt lat="45.28038" lon="6.19655">
        <ele>1379.4000244141</ele>
        <time>2020-12-16T14:17:11.000Z</time>
      </trkpt>
      <trkpt lat="45.28045" lon="6.19676">
        <ele>1378.1999511719</ele>
        <time>2020-12-16T14:17:14.000Z</time>
      </trkpt>
      <trkpt lat="45.2805" lon="6.19687">
        <ele>1377</ele>
        <time>2020-12-16T14:17:16.000Z</time>
      </trkpt>
      <trkpt lat="45.28054" lon="6.19696">
        <ele>1375.5999755859</ele>
        <time>2020-12-16T14:17:18.000Z</time>
      </trkpt>
      <trkpt lat="45.28056" lon="6.197">
        <ele>1375</ele>
        <time>2020-12-16T14:17:19.000Z</time>
      </trkpt>
      <trkpt lat="45.28058" lon="6.19704">
        <ele>1374.4000244141</ele>
        <time>2020-12-16T14:17:20.000Z</time>
      </trkpt>
      <trkpt lat="45.28067" lon="6.19721">
        <ele>1373.1999511719</ele>
        <time>2020-12-16T14:17:24.000Z</time>
      </trkpt>
      <trkpt lat="45.28069" lon="6.19727">
        <ele>1372.8000488281</ele>
        <time>2020-12-16T14:17:25.000Z</time>
      </trkpt>
      <trkpt lat="45.28075" lon="6.1974">
        <ele>1372</ele>
        <time>2020-12-16T14:17:27.000Z</time>
      </trkpt>
      <trkpt lat="45.28082" lon="6.19759">
        <ele>1370.8000488281</ele>
        <time>2020-12-16T14:17:30.000Z</time>
      </trkpt>
      <trkpt lat="45.28084" lon="6.19764">
        <ele>1370.1999511719</ele>
        <time>2020-12-16T14:17:31.000Z</time>
      </trkpt>
      <trkpt lat="45.28085" lon="6.1977">
        <ele>1369.8000488281</ele>
        <time>2020-12-16T14:17:32.000Z</time>
      </trkpt>
      <trkpt lat="45.28087" lon="6.19784">
        <ele>1368.5999755859</ele>
        <time>2020-12-16T14:17:35.000Z</time>
      </trkpt>
      <trkpt lat="45.28087" lon="6.19791">
        <ele>1368.1999511719</ele>
        <time>2020-12-16T14:17:37.000Z</time>
      </trkpt>
      <trkpt lat="45.28084" lon="6.1981">
        <ele>1368.4000244141</ele>
        <time>2020-12-16T14:17:41.000Z</time>
      </trkpt>
      <trkpt lat="45.28087" lon="6.1983">
        <ele>1367.4000244141</ele>
        <time>2020-12-16T14:17:45.000Z</time>
      </trkpt>
      <trkpt lat="45.28088" lon="6.19835">
        <ele>1366.8000488281</ele>
        <time>2020-12-16T14:17:46.000Z</time>
      </trkpt>
      <trkpt lat="45.28091" lon="6.19844">
        <ele>1366.1999511719</ele>
        <time>2020-12-16T14:17:48.000Z</time>
      </trkpt>
      <trkpt lat="45.28095" lon="6.19857">
        <ele>1365.1999511719</ele>
        <time>2020-12-16T14:17:51.000Z</time>
      </trkpt>
      <trkpt lat="45.28098" lon="6.19864">
        <ele>1365</ele>
        <time>2020-12-16T14:17:53.000Z</time>
      </trkpt>
      <trkpt lat="45.28104" lon="6.19874">
        <ele>1364.5999755859</ele>
        <time>2020-12-16T14:17:58.000Z</time>
      </trkpt>
      <trkpt lat="45.28112" lon="6.19874">
        <ele>1364.4000244141</ele>
        <time>2020-12-16T14:18:04.000Z</time>
      </trkpt>
      <trkpt lat="45.28114" lon="6.19874">
        <ele>1364.1999511719</ele>
        <time>2020-12-16T14:18:09.000Z</time>
      </trkpt>
      <trkpt lat="45.28114" lon="6.19874">
        <ele>1364</ele>
        <time>2020-12-16T14:18:10.000Z</time>
      </trkpt>
      <trkpt lat="45.28114" lon="6.19874">
        <ele>1364.1999511719</ele>
        <time>2020-12-16T14:18:17.000Z</time>
      </trkpt>
      <trkpt lat="45.28114" lon="6.19874">
        <ele>1364</ele>
        <time>2020-12-16T14:18:24.000Z</time>
      </trkpt>
      <trkpt lat="45.28114" lon="6.19874">
        <ele>1364</ele>
        <time>2020-12-16T14:18:32.000Z</time>
      </trkpt>
      <trkpt lat="45.28114" lon="6.19876">
        <ele>1364.1999511719</ele>
        <time>2020-12-16T14:18:33.000Z</time>
      </trkpt>
      <trkpt lat="45.28108" lon="6.19886">
        <ele>1363.8000488281</ele>
        <time>2020-12-16T14:18:37.000Z</time>
      </trkpt>
      <trkpt lat="45.28103" lon="6.19897">
        <ele>1363</ele>
        <time>2020-12-16T14:18:40.000Z</time>
      </trkpt>
      <trkpt lat="45.28102" lon="6.19903">
        <ele>1362.1999511719</ele>
        <time>2020-12-16T14:18:42.000Z</time>
      </trkpt>
      <trkpt lat="45.28101" lon="6.19906">
        <ele>1361.8000488281</ele>
        <time>2020-12-16T14:18:43.000Z</time>
      </trkpt>
      <trkpt lat="45.28097" lon="6.19917">
        <ele>1360.4000244141</ele>
        <time>2020-12-16T14:18:46.000Z</time>
      </trkpt>
      <trkpt lat="45.28095" lon="6.19922">
        <ele>1360</ele>
        <time>2020-12-16T14:18:47.000Z</time>
      </trkpt>
      <trkpt lat="45.28092" lon="6.19927">
        <ele>1359.5999755859</ele>
        <time>2020-12-16T14:18:48.000Z</time>
      </trkpt>
      <trkpt lat="45.28091" lon="6.19932">
        <ele>1359</ele>
        <time>2020-12-16T14:18:49.000Z</time>
      </trkpt>
      <trkpt lat="45.28091" lon="6.19938">
        <ele>1358.5999755859</ele>
        <time>2020-12-16T14:18:50.000Z</time>
      </trkpt>
      <trkpt lat="45.28092" lon="6.19951">
        <ele>1357.5999755859</ele>
        <time>2020-12-16T14:18:52.000Z</time>
      </trkpt>
      <trkpt lat="45.28094" lon="6.19965">
        <ele>1356</ele>
        <time>2020-12-16T14:18:54.000Z</time>
      </trkpt>
      <trkpt lat="45.28095" lon="6.19972">
        <ele>1355.1999511719</ele>
        <time>2020-12-16T14:18:55.000Z</time>
      </trkpt>
      <trkpt lat="45.28097" lon="6.19978">
        <ele>1354.4000244141</ele>
        <time>2020-12-16T14:18:56.000Z</time>
      </trkpt>
      <trkpt lat="45.28101" lon="6.1999">
        <ele>1353</ele>
        <time>2020-12-16T14:18:58.000Z</time>
      </trkpt>
      <trkpt lat="45.28105" lon="6.20001">
        <ele>1351.5999755859</ele>
        <time>2020-12-16T14:19:00.000Z</time>
      </trkpt>
      <trkpt lat="45.28107" lon="6.20012">
        <ele>1350.4000244141</ele>
        <time>2020-12-16T14:19:02.000Z</time>
      </trkpt>
      <trkpt lat="45.28108" lon="6.20018">
        <ele>1349.1999511719</ele>
        <time>2020-12-16T14:19:03.000Z</time>
      </trkpt>
      <trkpt lat="45.28108" lon="6.20025">
        <ele>1348.8000488281</ele>
        <time>2020-12-16T14:19:04.000Z</time>
      </trkpt>
      <trkpt lat="45.2811" lon="6.20033">
        <ele>1348.1999511719</ele>
        <time>2020-12-16T14:19:05.000Z</time>
      </trkpt>
      <trkpt lat="45.28113" lon="6.20049">
        <ele>1347.1999511719</ele>
        <time>2020-12-16T14:19:07.000Z</time>
      </trkpt>
      <trkpt lat="45.28115" lon="6.20052">
        <ele>1346.4000244141</ele>
        <time>2020-12-16T14:19:08.000Z</time>
      </trkpt>
      <trkpt lat="45.28116" lon="6.20055">
        <ele>1345.4000244141</ele>
        <time>2020-12-16T14:19:09.000Z</time>
      </trkpt>
      <trkpt lat="45.28117" lon="6.20059">
        <ele>1344.1999511719</ele>
        <time>2020-12-16T14:19:10.000Z</time>
      </trkpt>
      <trkpt lat="45.28117" lon="6.20062">
        <ele>1343.1999511719</ele>
        <time>2020-12-16T14:19:11.000Z</time>
      </trkpt>
      <trkpt lat="45.28117" lon="6.20064">
        <ele>1342.1999511719</ele>
        <time>2020-12-16T14:19:12.000Z</time>
      </trkpt>
      <trkpt lat="45.28117" lon="6.20066">
        <ele>1341.5999755859</ele>
        <time>2020-12-16T14:19:13.000Z</time>
      </trkpt>
      <trkpt lat="45.28117" lon="6.20067">
        <ele>1340.1999511719</ele>
        <time>2020-12-16T14:19:16.000Z</time>
      </trkpt>
      <trkpt lat="45.28117" lon="6.20068">
        <ele>1339.5999755859</ele>
        <time>2020-12-16T14:19:17.000Z</time>
      </trkpt>
      <trkpt lat="45.28118" lon="6.20069">
        <ele>1339.1999511719</ele>
        <time>2020-12-16T14:19:18.000Z</time>
      </trkpt>
      <trkpt lat="45.28119" lon="6.20071">
        <ele>1338.8000488281</ele>
        <time>2020-12-16T14:19:19.000Z</time>
      </trkpt>
      <trkpt lat="45.28122" lon="6.2008">
        <ele>1337.5999755859</ele>
        <time>2020-12-16T14:19:22.000Z</time>
      </trkpt>
      <trkpt lat="45.28125" lon="6.20085">
        <ele>1336.4000244141</ele>
        <time>2020-12-16T14:19:24.000Z</time>
      </trkpt>
      <trkpt lat="45.28133" lon="6.20096">
        <ele>1334.1999511719</ele>
        <time>2020-12-16T14:19:27.000Z</time>
      </trkpt>
      <trkpt lat="45.2814" lon="6.20107">
        <ele>1333.1999511719</ele>
        <time>2020-12-16T14:19:29.000Z</time>
      </trkpt>
      <trkpt lat="45.28148" lon="6.20115">
        <ele>1332</ele>
        <time>2020-12-16T14:19:31.000Z</time>
      </trkpt>
      <trkpt lat="45.28154" lon="6.20119">
        <ele>1330.4000244141</ele>
        <time>2020-12-16T14:19:33.000Z</time>
      </trkpt>
      <trkpt lat="45.28161" lon="6.20122">
        <ele>1328.5999755859</ele>
        <time>2020-12-16T14:19:35.000Z</time>
      </trkpt>
      <trkpt lat="45.28165" lon="6.20124">
        <ele>1327.8000488281</ele>
        <time>2020-12-16T14:19:36.000Z</time>
      </trkpt>
      <trkpt lat="45.28168" lon="6.20126">
        <ele>1327.1999511719</ele>
        <time>2020-12-16T14:19:37.000Z</time>
      </trkpt>
      <trkpt lat="45.28175" lon="6.20131">
        <ele>1326</ele>
        <time>2020-12-16T14:19:39.000Z</time>
      </trkpt>
      <trkpt lat="45.28181" lon="6.20138">
        <ele>1324.5999755859</ele>
        <time>2020-12-16T14:19:41.000Z</time>
      </trkpt>
      <trkpt lat="45.28183" lon="6.20142">
        <ele>1324</ele>
        <time>2020-12-16T14:19:42.000Z</time>
      </trkpt>
      <trkpt lat="45.28186" lon="6.20145">
        <ele>1323.1999511719</ele>
        <time>2020-12-16T14:19:43.000Z</time>
      </trkpt>
      <trkpt lat="45.28191" lon="6.20152">
        <ele>1321.8000488281</ele>
        <time>2020-12-16T14:19:45.000Z</time>
      </trkpt>
      <trkpt lat="45.28195" lon="6.2016">
        <ele>1320.1999511719</ele>
        <time>2020-12-16T14:19:47.000Z</time>
      </trkpt>
      <trkpt lat="45.28198" lon="6.20169">
        <ele>1319</ele>
        <time>2020-12-16T14:19:49.000Z</time>
      </trkpt>
      <trkpt lat="45.282" lon="6.20176">
        <ele>1318.4000244141</ele>
        <time>2020-12-16T14:19:50.000Z</time>
      </trkpt>
      <trkpt lat="45.28202" lon="6.20183">
        <ele>1317.1999511719</ele>
        <time>2020-12-16T14:19:51.000Z</time>
      </trkpt>
      <trkpt lat="45.28204" lon="6.20191">
        <ele>1316.4000244141</ele>
        <time>2020-12-16T14:19:52.000Z</time>
      </trkpt>
      <trkpt lat="45.28206" lon="6.20199">
        <ele>1315.5999755859</ele>
        <time>2020-12-16T14:19:53.000Z</time>
      </trkpt>
      <trkpt lat="45.28212" lon="6.20217">
        <ele>1314</ele>
        <time>2020-12-16T14:19:55.000Z</time>
      </trkpt>
      <trkpt lat="45.28218" lon="6.20233">
        <ele>1312</ele>
        <time>2020-12-16T14:19:57.000Z</time>
      </trkpt>
      <trkpt lat="45.28221" lon="6.2024">
        <ele>1311</ele>
        <time>2020-12-16T14:19:58.000Z</time>
      </trkpt>
      <trkpt lat="45.28225" lon="6.20251">
        <ele>1309.1999511719</ele>
        <time>2020-12-16T14:20:00.000Z</time>
      </trkpt>
      <trkpt lat="45.28227" lon="6.20259">
        <ele>1307.8000488281</ele>
        <time>2020-12-16T14:20:02.000Z</time>
      </trkpt>
      <trkpt lat="45.28228" lon="6.20261">
        <ele>1306.4000244141</ele>
        <time>2020-12-16T14:20:05.000Z</time>
      </trkpt>
      <trkpt lat="45.28228" lon="6.20261">
        <ele>1305.8000488281</ele>
        <time>2020-12-16T14:20:06.000Z</time>
      </trkpt>
      <trkpt lat="45.28228" lon="6.20261">
        <ele>1305</ele>
        <time>2020-12-16T14:20:08.000Z</time>
      </trkpt>
      <trkpt lat="45.28228" lon="6.20261">
        <ele>1304.4000244141</ele>
        <time>2020-12-16T14:20:15.000Z</time>
      </trkpt>
      <trkpt lat="45.28229" lon="6.20264">
        <ele>1304</ele>
        <time>2020-12-16T14:20:22.000Z</time>
      </trkpt>
      <trkpt lat="45.28235" lon="6.20286">
        <ele>1302.8000488281</ele>
        <time>2020-12-16T14:20:28.000Z</time>
      </trkpt>
      <trkpt lat="45.28239" lon="6.20294">
        <ele>1301.5999755859</ele>
        <time>2020-12-16T14:20:30.000Z</time>
      </trkpt>
      <trkpt lat="45.28242" lon="6.20302">
        <ele>1300.4000244141</ele>
        <time>2020-12-16T14:20:32.000Z</time>
      </trkpt>
      <trkpt lat="45.28244" lon="6.20311">
        <ele>1299</ele>
        <time>2020-12-16T14:20:34.000Z</time>
      </trkpt>
      <trkpt lat="45.28246" lon="6.20314">
        <ele>1298.4000244141</ele>
        <time>2020-12-16T14:20:35.000Z</time>
      </trkpt>
      <trkpt lat="45.28247" lon="6.20315">
        <ele>1297.5999755859</ele>
        <time>2020-12-16T14:20:36.000Z</time>
      </trkpt>
      <trkpt lat="45.28251" lon="6.20318">
        <ele>1296.4000244141</ele>
        <time>2020-12-16T14:20:38.000Z</time>
      </trkpt>
      <trkpt lat="45.28252" lon="6.20318">
        <ele>1295.1999511719</ele>
        <time>2020-12-16T14:20:39.000Z</time>
      </trkpt>
      <trkpt lat="45.28253" lon="6.20318">
        <ele>1294.8000488281</ele>
        <time>2020-12-16T14:20:40.000Z</time>
      </trkpt>
      <trkpt lat="45.28258" lon="6.20318">
        <ele>1294</ele>
        <time>2020-12-16T14:20:42.000Z</time>
      </trkpt>
      <trkpt lat="45.2826" lon="6.20318">
        <ele>1293</ele>
        <time>2020-12-16T14:20:45.000Z</time>
      </trkpt>
      <trkpt lat="45.2826" lon="6.20318">
        <ele>1292.5999755859</ele>
        <time>2020-12-16T14:20:46.000Z</time>
      </trkpt>
      <trkpt lat="45.28264" lon="6.20321">
        <ele>1292.4000244141</ele>
        <time>2020-12-16T14:20:51.000Z</time>
      </trkpt>
      <trkpt lat="45.28272" lon="6.20332">
        <ele>1292.4000244141</ele>
        <time>2020-12-16T14:20:57.000Z</time>
      </trkpt>
      <trkpt lat="45.28276" lon="6.20349">
        <ele>1292.4000244141</ele>
        <time>2020-12-16T14:21:02.000Z</time>
      </trkpt>
      <trkpt lat="45.28277" lon="6.20352">
        <ele>1291.8000488281</ele>
        <time>2020-12-16T14:21:03.000Z</time>
      </trkpt>
      <trkpt lat="45.28282" lon="6.2036">
        <ele>1290.8000488281</ele>
        <time>2020-12-16T14:21:06.000Z</time>
      </trkpt>
      <trkpt lat="45.28283" lon="6.20361">
        <ele>1290.5999755859</ele>
        <time>2020-12-16T14:21:07.000Z</time>
      </trkpt>
      <trkpt lat="45.28288" lon="6.20361">
        <ele>1289.1999511719</ele>
        <time>2020-12-16T14:21:10.000Z</time>
      </trkpt>
      <trkpt lat="45.2829" lon="6.20358">
        <ele>1288.1999511719</ele>
        <time>2020-12-16T14:21:12.000Z</time>
      </trkpt>
      <trkpt lat="45.28291" lon="6.20357">
        <ele>1287.8000488281</ele>
        <time>2020-12-16T14:21:13.000Z</time>
      </trkpt>
      <trkpt lat="45.28294" lon="6.20352">
        <ele>1286.4000244141</ele>
        <time>2020-12-16T14:21:16.000Z</time>
      </trkpt>
      <trkpt lat="45.28295" lon="6.20351">
        <ele>1285.5999755859</ele>
        <time>2020-12-16T14:21:19.000Z</time>
      </trkpt>
      <trkpt lat="45.28295" lon="6.20351">
        <ele>1285.4000244141</ele>
        <time>2020-12-16T14:21:21.000Z</time>
      </trkpt>
      <trkpt lat="45.28297" lon="6.20352">
        <ele>1284.8000488281</ele>
        <time>2020-12-16T14:21:27.000Z</time>
      </trkpt>
      <trkpt lat="45.28299" lon="6.20352">
        <ele>1284.5999755859</ele>
        <time>2020-12-16T14:21:35.000Z</time>
      </trkpt>
      <trkpt lat="45.28299" lon="6.20352">
        <ele>1284.5999755859</ele>
        <time>2020-12-16T14:21:37.000Z</time>
      </trkpt>
      <trkpt lat="45.28303" lon="6.20354">
        <ele>1284.8000488281</ele>
        <time>2020-12-16T14:21:40.000Z</time>
      </trkpt>
      <trkpt lat="45.28304" lon="6.20358">
        <ele>1284.8000488281</ele>
        <time>2020-12-16T14:21:43.000Z</time>
      </trkpt>
      <trkpt lat="45.28301" lon="6.20363">
        <ele>1284.4000244141</ele>
        <time>2020-12-16T14:21:46.000Z</time>
      </trkpt>
      <trkpt lat="45.283" lon="6.20364">
        <ele>1284.1999511719</ele>
        <time>2020-12-16T14:21:47.000Z</time>
      </trkpt>
      <trkpt lat="45.28292" lon="6.2038">
        <ele>1283.1999511719</ele>
        <time>2020-12-16T14:21:52.000Z</time>
      </trkpt>
      <trkpt lat="45.28291" lon="6.20393">
        <ele>1281.8000488281</ele>
        <time>2020-12-16T14:21:55.000Z</time>
      </trkpt>
      <trkpt lat="45.28291" lon="6.20402">
        <ele>1280.5999755859</ele>
        <time>2020-12-16T14:21:57.000Z</time>
      </trkpt>
      <trkpt lat="45.28294" lon="6.20411">
        <ele>1279.4000244141</ele>
        <time>2020-12-16T14:21:59.000Z</time>
      </trkpt>
      <trkpt lat="45.28299" lon="6.2042">
        <ele>1278.1999511719</ele>
        <time>2020-12-16T14:22:01.000Z</time>
      </trkpt>
      <trkpt lat="45.28302" lon="6.20431">
        <ele>1277</ele>
        <time>2020-12-16T14:22:03.000Z</time>
      </trkpt>
      <trkpt lat="45.28304" lon="6.20443">
        <ele>1275.8000488281</ele>
        <time>2020-12-16T14:22:05.000Z</time>
      </trkpt>
      <trkpt lat="45.28306" lon="6.20457">
        <ele>1274.1999511719</ele>
        <time>2020-12-16T14:22:07.000Z</time>
      </trkpt>
      <trkpt lat="45.28309" lon="6.20467">
        <ele>1273.4000244141</ele>
        <time>2020-12-16T14:22:09.000Z</time>
      </trkpt>
      <trkpt lat="45.28311" lon="6.20473">
        <ele>1273</ele>
        <time>2020-12-16T14:22:10.000Z</time>
      </trkpt>
      <trkpt lat="45.28315" lon="6.20483">
        <ele>1272</ele>
        <time>2020-12-16T14:22:12.000Z</time>
      </trkpt>
      <trkpt lat="45.28317" lon="6.20495">
        <ele>1270.5999755859</ele>
        <time>2020-12-16T14:22:14.000Z</time>
      </trkpt>
      <trkpt lat="45.28318" lon="6.20502">
        <ele>1269.1999511719</ele>
        <time>2020-12-16T14:22:15.000Z</time>
      </trkpt>
      <trkpt lat="45.2832" lon="6.20517">
        <ele>1267.5999755859</ele>
        <time>2020-12-16T14:22:17.000Z</time>
      </trkpt>
      <trkpt lat="45.28321" lon="6.20531">
        <ele>1265.8000488281</ele>
        <time>2020-12-16T14:22:19.000Z</time>
      </trkpt>
      <trkpt lat="45.28322" lon="6.20538">
        <ele>1264.8000488281</ele>
        <time>2020-12-16T14:22:20.000Z</time>
      </trkpt>
      <trkpt lat="45.28324" lon="6.20544">
        <ele>1264</ele>
        <time>2020-12-16T14:22:21.000Z</time>
      </trkpt>
      <trkpt lat="45.28327" lon="6.20559">
        <ele>1262.1999511719</ele>
        <time>2020-12-16T14:22:23.000Z</time>
      </trkpt>
      <trkpt lat="45.28329" lon="6.20565">
        <ele>1261.4000244141</ele>
        <time>2020-12-16T14:22:24.000Z</time>
      </trkpt>
      <trkpt lat="45.28331" lon="6.20571">
        <ele>1260.5999755859</ele>
        <time>2020-12-16T14:22:25.000Z</time>
      </trkpt>
      <trkpt lat="45.28336" lon="6.20584">
        <ele>1259.4000244141</ele>
        <time>2020-12-16T14:22:27.000Z</time>
      </trkpt>
      <trkpt lat="45.2834" lon="6.20595">
        <ele>1258.5999755859</ele>
        <time>2020-12-16T14:22:29.000Z</time>
      </trkpt>
      <trkpt lat="45.28341" lon="6.20598">
        <ele>1258.1999511719</ele>
        <time>2020-12-16T14:22:30.000Z</time>
      </trkpt>
      <trkpt lat="45.28345" lon="6.20607">
        <ele>1257.8000488281</ele>
        <time>2020-12-16T14:22:34.000Z</time>
      </trkpt>
      <trkpt lat="45.28346" lon="6.20609">
        <ele>1257.1999511719</ele>
        <time>2020-12-16T14:22:37.000Z</time>
      </trkpt>
      <trkpt lat="45.28346" lon="6.20609">
        <ele>1256.4000244141</ele>
        <time>2020-12-16T14:22:40.000Z</time>
      </trkpt>
      <trkpt lat="45.28346" lon="6.20609">
        <ele>1256.1999511719</ele>
        <time>2020-12-16T14:22:44.000Z</time>
      </trkpt>
      <trkpt lat="45.28346" lon="6.20609">
        <ele>1255.4000244141</ele>
        <time>2020-12-16T14:22:50.000Z</time>
      </trkpt>
      <trkpt lat="45.28344" lon="6.20613">
        <ele>1255.1999511719</ele>
        <time>2020-12-16T14:22:59.000Z</time>
      </trkpt>
      <trkpt lat="45.28342" lon="6.2062">
        <ele>1255</ele>
        <time>2020-12-16T14:23:01.000Z</time>
      </trkpt>
      <trkpt lat="45.28343" lon="6.20627">
        <ele>1254.4000244141</ele>
        <time>2020-12-16T14:23:03.000Z</time>
      </trkpt>
      <trkpt lat="45.28344" lon="6.20628">
        <ele>1254</ele>
        <time>2020-12-16T14:23:04.000Z</time>
      </trkpt>
      <trkpt lat="45.28344" lon="6.20629">
        <ele>1253</ele>
        <time>2020-12-16T14:23:07.000Z</time>
      </trkpt>
      <trkpt lat="45.28344" lon="6.20629">
        <ele>1252.8000488281</ele>
        <time>2020-12-16T14:23:08.000Z</time>
      </trkpt>
      <trkpt lat="45.28344" lon="6.20629">
        <ele>1252</ele>
        <time>2020-12-16T14:23:16.000Z</time>
      </trkpt>
      <trkpt lat="45.28344" lon="6.20629">
        <ele>1252</ele>
        <time>2020-12-16T14:23:17.000Z</time>
      </trkpt>
      <trkpt lat="45.28344" lon="6.20629">
        <ele>1251.4000244141</ele>
        <time>2020-12-16T14:23:25.000Z</time>
      </trkpt>
      <trkpt lat="45.28346" lon="6.20638">
        <ele>1251</ele>
        <time>2020-12-16T14:23:31.000Z</time>
      </trkpt>
      <trkpt lat="45.28346" lon="6.20638">
        <ele>1251</ele>
        <time>2020-12-16T14:23:32.000Z</time>
      </trkpt>
      <trkpt lat="45.28348" lon="6.20645">
        <ele>1250.4000244141</ele>
        <time>2020-12-16T14:23:38.000Z</time>
      </trkpt>
      <trkpt lat="45.28348" lon="6.20645">
        <ele>1249.8000488281</ele>
        <time>2020-12-16T14:23:46.000Z</time>
      </trkpt>
      <trkpt lat="45.28347" lon="6.20646">
        <ele>1249.8000488281</ele>
        <time>2020-12-16T14:23:49.000Z</time>
      </trkpt>
      <trkpt lat="45.28343" lon="6.2065">
        <ele>1249.5999755859</ele>
        <time>2020-12-16T14:23:51.000Z</time>
      </trkpt>
      <trkpt lat="45.28339" lon="6.2065">
        <ele>1247.4000244141</ele>
        <time>2020-12-16T14:23:53.000Z</time>
      </trkpt>
      <trkpt lat="45.28337" lon="6.20651">
        <ele>1246.1999511719</ele>
        <time>2020-12-16T14:23:55.000Z</time>
      </trkpt>
      <trkpt lat="45.28333" lon="6.20651">
        <ele>1246</ele>
        <time>2020-12-16T14:24:02.000Z</time>
      </trkpt>
      <trkpt lat="45.28331" lon="6.20645">
        <ele>1245.5999755859</ele>
        <time>2020-12-16T14:24:08.000Z</time>
      </trkpt>
      <trkpt lat="45.28328" lon="6.20644">
        <ele>1245.4000244141</ele>
        <time>2020-12-16T14:24:09.000Z</time>
      </trkpt>
      <trkpt lat="45.28327" lon="6.20645">
        <ele>1245.1999511719</ele>
        <time>2020-12-16T14:24:10.000Z</time>
      </trkpt>
      <trkpt lat="45.28326" lon="6.20648">
        <ele>1244.8000488281</ele>
        <time>2020-12-16T14:24:11.000Z</time>
      </trkpt>
      <trkpt lat="45.28326" lon="6.20655">
        <ele>1243.8000488281</ele>
        <time>2020-12-16T14:24:13.000Z</time>
      </trkpt>
      <trkpt lat="45.28325" lon="6.20664">
        <ele>1242.1999511719</ele>
        <time>2020-12-16T14:24:15.000Z</time>
      </trkpt>
      <trkpt lat="45.28329" lon="6.20672">
        <ele>1240.8000488281</ele>
        <time>2020-12-16T14:24:17.000Z</time>
      </trkpt>
      <trkpt lat="45.28332" lon="6.20678">
        <ele>1239.4000244141</ele>
        <time>2020-12-16T14:24:19.000Z</time>
      </trkpt>
      <trkpt lat="45.28334" lon="6.20681">
        <ele>1238.1999511719</ele>
        <time>2020-12-16T14:24:21.000Z</time>
      </trkpt>
      <trkpt lat="45.28334" lon="6.20681">
        <ele>1237</ele>
        <time>2020-12-16T14:24:24.000Z</time>
      </trkpt>
      <trkpt lat="45.28334" lon="6.20681">
        <ele>1236.8000488281</ele>
        <time>2020-12-16T14:24:30.000Z</time>
      </trkpt>
      <trkpt lat="45.28334" lon="6.20681">
        <ele>1236.4000244141</ele>
        <time>2020-12-16T14:24:40.000Z</time>
      </trkpt>
      <trkpt lat="45.28334" lon="6.20681">
        <ele>1236</ele>
        <time>2020-12-16T14:24:48.000Z</time>
      </trkpt>
      <trkpt lat="45.28334" lon="6.20684">
        <ele>1235.8000488281</ele>
        <time>2020-12-16T14:24:51.000Z</time>
      </trkpt>
      <trkpt lat="45.28334" lon="6.20684">
        <ele>1235.4000244141</ele>
        <time>2020-12-16T14:25:02.000Z</time>
      </trkpt>
      <trkpt lat="45.28341" lon="6.20698">
        <ele>1235</ele>
        <time>2020-12-16T14:25:06.000Z</time>
      </trkpt>
      <trkpt lat="45.28344" lon="6.20705">
        <ele>1235</ele>
        <time>2020-12-16T14:25:07.000Z</time>
      </trkpt>
      <trkpt lat="45.28351" lon="6.20717">
        <ele>1234.5999755859</ele>
        <time>2020-12-16T14:25:09.000Z</time>
      </trkpt>
      <trkpt lat="45.28355" lon="6.2072">
        <ele>1233.5999755859</ele>
        <time>2020-12-16T14:25:11.000Z</time>
      </trkpt>
      <trkpt lat="45.28356" lon="6.20721">
        <ele>1233</ele>
        <time>2020-12-16T14:25:12.000Z</time>
      </trkpt>
      <trkpt lat="45.28357" lon="6.20722">
        <ele>1232.1999511719</ele>
        <time>2020-12-16T14:25:13.000Z</time>
      </trkpt>
      <trkpt lat="45.28357" lon="6.20724">
        <ele>1231.5999755859</ele>
        <time>2020-12-16T14:25:14.000Z</time>
      </trkpt>
      <trkpt lat="45.28355" lon="6.20729">
        <ele>1231</ele>
        <time>2020-12-16T14:25:16.000Z</time>
      </trkpt>
      <trkpt lat="45.28354" lon="6.20734">
        <ele>1229.5999755859</ele>
        <time>2020-12-16T14:25:20.000Z</time>
      </trkpt>
      <trkpt lat="45.28354" lon="6.20734">
        <ele>1229.4000244141</ele>
        <time>2020-12-16T14:25:21.000Z</time>
      </trkpt>
      <trkpt lat="45.28354" lon="6.20734">
        <ele>1228.5999755859</ele>
        <time>2020-12-16T14:25:24.000Z</time>
      </trkpt>
      <trkpt lat="45.28355" lon="6.20734">
        <ele>1227.8000488281</ele>
        <time>2020-12-16T14:25:29.000Z</time>
      </trkpt>
      <trkpt lat="45.28354" lon="6.20734">
        <ele>1227.8000488281</ele>
        <time>2020-12-16T14:25:30.000Z</time>
      </trkpt>
      <trkpt lat="45.28352" lon="6.20737">
        <ele>1227.4000244141</ele>
        <time>2020-12-16T14:25:32.000Z</time>
      </trkpt>
      <trkpt lat="45.28351" lon="6.20738">
        <ele>1227.1999511719</ele>
        <time>2020-12-16T14:25:33.000Z</time>
      </trkpt>
      <trkpt lat="45.28347" lon="6.20742">
        <ele>1226.5999755859</ele>
        <time>2020-12-16T14:25:38.000Z</time>
      </trkpt>
      <trkpt lat="45.28346" lon="6.20752">
        <ele>1226.1999511719</ele>
        <time>2020-12-16T14:25:40.000Z</time>
      </trkpt>
      <trkpt lat="45.28348" lon="6.20757">
        <ele>1226</ele>
        <time>2020-12-16T14:25:41.000Z</time>
      </trkpt>
      <trkpt lat="45.28353" lon="6.20764">
        <ele>1225</ele>
        <time>2020-12-16T14:25:43.000Z</time>
      </trkpt>
      <trkpt lat="45.28357" lon="6.20773">
        <ele>1223</ele>
        <time>2020-12-16T14:25:45.000Z</time>
      </trkpt>
      <trkpt lat="45.28362" lon="6.20783">
        <ele>1221.1999511719</ele>
        <time>2020-12-16T14:25:47.000Z</time>
      </trkpt>
      <trkpt lat="45.28367" lon="6.2079">
        <ele>1219.8000488281</ele>
        <time>2020-12-16T14:25:49.000Z</time>
      </trkpt>
      <trkpt lat="45.28368" lon="6.20794">
        <ele>1219.1999511719</ele>
        <time>2020-12-16T14:25:50.000Z</time>
      </trkpt>
      <trkpt lat="45.28367" lon="6.20798">
        <ele>1218.4000244141</ele>
        <time>2020-12-16T14:25:51.000Z</time>
      </trkpt>
      <trkpt lat="45.28366" lon="6.208">
        <ele>1217.1999511719</ele>
        <time>2020-12-16T14:25:52.000Z</time>
      </trkpt>
      <trkpt lat="45.28364" lon="6.20802">
        <ele>1216.5999755859</ele>
        <time>2020-12-16T14:25:53.000Z</time>
      </trkpt>
      <trkpt lat="45.28363" lon="6.20804">
        <ele>1216.1999511719</ele>
        <time>2020-12-16T14:25:54.000Z</time>
      </trkpt>
      <trkpt lat="45.2836" lon="6.20809">
        <ele>1215.1999511719</ele>
        <time>2020-12-16T14:25:56.000Z</time>
      </trkpt>
      <trkpt lat="45.28359" lon="6.2081">
        <ele>1213.1999511719</ele>
        <time>2020-12-16T14:25:58.000Z</time>
      </trkpt>
      <trkpt lat="45.28359" lon="6.2081">
        <ele>1212.1999511719</ele>
        <time>2020-12-16T14:25:59.000Z</time>
      </trkpt>
      <trkpt lat="45.28359" lon="6.20812">
        <ele>1211</ele>
        <time>2020-12-16T14:26:00.000Z</time>
      </trkpt>
      <trkpt lat="45.28357" lon="6.20821">
        <ele>1209.8000488281</ele>
        <time>2020-12-16T14:26:02.000Z</time>
      </trkpt>
      <trkpt lat="45.28354" lon="6.20825">
        <ele>1209.1999511719</ele>
        <time>2020-12-16T14:26:03.000Z</time>
      </trkpt>
      <trkpt lat="45.28352" lon="6.20827">
        <ele>1208.5999755859</ele>
        <time>2020-12-16T14:26:04.000Z</time>
      </trkpt>
      <trkpt lat="45.28348" lon="6.20829">
        <ele>1207.4000244141</ele>
        <time>2020-12-16T14:26:06.000Z</time>
      </trkpt>
      <trkpt lat="45.28346" lon="6.20829">
        <ele>1207.1999511719</ele>
        <time>2020-12-16T14:26:07.000Z</time>
      </trkpt>
      <trkpt lat="45.28341" lon="6.20831">
        <ele>1206.5999755859</ele>
        <time>2020-12-16T14:26:11.000Z</time>
      </trkpt>
      <trkpt lat="45.2834" lon="6.20833">
        <ele>1206.5999755859</ele>
        <time>2020-12-16T14:26:12.000Z</time>
      </trkpt>
      <trkpt lat="45.28341" lon="6.20841">
        <ele>1205.8000488281</ele>
        <time>2020-12-16T14:26:14.000Z</time>
      </trkpt>
      <trkpt lat="45.28341" lon="6.20844">
        <ele>1205.1999511719</ele>
        <time>2020-12-16T14:26:15.000Z</time>
      </trkpt>
      <trkpt lat="45.28341" lon="6.20845">
        <ele>1203.8000488281</ele>
        <time>2020-12-16T14:26:16.000Z</time>
      </trkpt>
      <trkpt lat="45.28341" lon="6.20847">
        <ele>1203</ele>
        <time>2020-12-16T14:26:19.000Z</time>
      </trkpt>
      <trkpt lat="45.28341" lon="6.20847">
        <ele>1202.4000244141</ele>
        <time>2020-12-16T14:26:20.000Z</time>
      </trkpt>
      <trkpt lat="45.28341" lon="6.20847">
        <ele>1201.1999511719</ele>
        <time>2020-12-16T14:26:26.000Z</time>
      </trkpt>
      <trkpt lat="45.28341" lon="6.20847">
        <ele>1201.4000244141</ele>
        <time>2020-12-16T14:26:29.000Z</time>
      </trkpt>
      <trkpt lat="45.28341" lon="6.20847">
        <ele>1202.4000244141</ele>
        <time>2020-12-16T14:26:32.000Z</time>
      </trkpt>
      <trkpt lat="45.28341" lon="6.20847">
        <ele>1201.5999755859</ele>
        <time>2020-12-16T14:26:39.000Z</time>
      </trkpt>
      <trkpt lat="45.28341" lon="6.20847">
        <ele>1201.1999511719</ele>
        <time>2020-12-16T14:26:41.000Z</time>
      </trkpt>
      <trkpt lat="45.28341" lon="6.20847">
        <ele>1201.1999511719</ele>
        <time>2020-12-16T14:26:47.000Z</time>
      </trkpt>
      <trkpt lat="45.28338" lon="6.20849">
        <ele>1200.8000488281</ele>
        <time>2020-12-16T14:26:52.000Z</time>
      </trkpt>
      <trkpt lat="45.28335" lon="6.20854">
        <ele>1200.8000488281</ele>
        <time>2020-12-16T14:26:53.000Z</time>
      </trkpt>
      <trkpt lat="45.28336" lon="6.20863">
        <ele>1200.5999755859</ele>
        <time>2020-12-16T14:26:55.000Z</time>
      </trkpt>
      <trkpt lat="45.28337" lon="6.20872">
        <ele>1199.8000488281</ele>
        <time>2020-12-16T14:26:57.000Z</time>
      </trkpt>
      <trkpt lat="45.28335" lon="6.20876">
        <ele>1199.1999511719</ele>
        <time>2020-12-16T14:26:58.000Z</time>
      </trkpt>
      <trkpt lat="45.28333" lon="6.20878">
        <ele>1198.1999511719</ele>
        <time>2020-12-16T14:26:59.000Z</time>
      </trkpt>
      <trkpt lat="45.28329" lon="6.2088">
        <ele>1196.4000244141</ele>
        <time>2020-12-16T14:27:01.000Z</time>
      </trkpt>
      <trkpt lat="45.28326" lon="6.2088">
        <ele>1195.4000244141</ele>
        <time>2020-12-16T14:27:02.000Z</time>
      </trkpt>
      <trkpt lat="45.28324" lon="6.20882">
        <ele>1194.8000488281</ele>
        <time>2020-12-16T14:27:03.000Z</time>
      </trkpt>
      <trkpt lat="45.2832" lon="6.20893">
        <ele>1192.8000488281</ele>
        <time>2020-12-16T14:27:05.000Z</time>
      </trkpt>
      <trkpt lat="45.28319" lon="6.209">
        <ele>1191.4000244141</ele>
        <time>2020-12-16T14:27:06.000Z</time>
      </trkpt>
      <trkpt lat="45.2832" lon="6.20906">
        <ele>1190</ele>
        <time>2020-12-16T14:27:07.000Z</time>
      </trkpt>
      <trkpt lat="45.2832" lon="6.20911">
        <ele>1188.8000488281</ele>
        <time>2020-12-16T14:27:08.000Z</time>
      </trkpt>
      <trkpt lat="45.2832" lon="6.20918">
        <ele>1187.5999755859</ele>
        <time>2020-12-16T14:27:10.000Z</time>
      </trkpt>
      <trkpt lat="45.28321" lon="6.20922">
        <ele>1186.5999755859</ele>
        <time>2020-12-16T14:27:12.000Z</time>
      </trkpt>
      <trkpt lat="45.28321" lon="6.20925">
        <ele>1186.1999511719</ele>
        <time>2020-12-16T14:27:13.000Z</time>
      </trkpt>
      <trkpt lat="45.28325" lon="6.20938">
        <ele>1185.1999511719</ele>
        <time>2020-12-16T14:27:18.000Z</time>
      </trkpt>
      <trkpt lat="45.28326" lon="6.20945">
        <ele>1184.5999755859</ele>
        <time>2020-12-16T14:27:20.000Z</time>
      </trkpt>
      <trkpt lat="45.28324" lon="6.20951">
        <ele>1184.1999511719</ele>
        <time>2020-12-16T14:27:22.000Z</time>
      </trkpt>
      <trkpt lat="45.28322" lon="6.20953">
        <ele>1183.8000488281</ele>
        <time>2020-12-16T14:27:23.000Z</time>
      </trkpt>
      <trkpt lat="45.28318" lon="6.20955">
        <ele>1182.8000488281</ele>
        <time>2020-12-16T14:27:25.000Z</time>
      </trkpt>
      <trkpt lat="45.28316" lon="6.20957">
        <ele>1182.1999511719</ele>
        <time>2020-12-16T14:27:26.000Z</time>
      </trkpt>
      <trkpt lat="45.28315" lon="6.20963">
        <ele>1181.4000244141</ele>
        <time>2020-12-16T14:27:28.000Z</time>
      </trkpt>
      <trkpt lat="45.28314" lon="6.20968">
        <ele>1180.4000244141</ele>
        <time>2020-12-16T14:27:30.000Z</time>
      </trkpt>
      <trkpt lat="45.28311" lon="6.20972">
        <ele>1179.1999511719</ele>
        <time>2020-12-16T14:27:32.000Z</time>
      </trkpt>
      <trkpt lat="45.28309" lon="6.20973">
        <ele>1178.5999755859</ele>
        <time>2020-12-16T14:27:33.000Z</time>
      </trkpt>
      <trkpt lat="45.28306" lon="6.20975">
        <ele>1178</ele>
        <time>2020-12-16T14:27:35.000Z</time>
      </trkpt>
      <trkpt lat="45.28303" lon="6.20977">
        <ele>1177.8000488281</ele>
        <time>2020-12-16T14:27:36.000Z</time>
      </trkpt>
      <trkpt lat="45.28302" lon="6.2098">
        <ele>1177.4000244141</ele>
        <time>2020-12-16T14:27:37.000Z</time>
      </trkpt>
      <trkpt lat="45.28299" lon="6.20988">
        <ele>1176.5999755859</ele>
        <time>2020-12-16T14:27:39.000Z</time>
      </trkpt>
      <trkpt lat="45.28295" lon="6.20996">
        <ele>1175.1999511719</ele>
        <time>2020-12-16T14:27:41.000Z</time>
      </trkpt>
      <trkpt lat="45.28291" lon="6.20999">
        <ele>1173.4000244141</ele>
        <time>2020-12-16T14:27:43.000Z</time>
      </trkpt>
      <trkpt lat="45.28289" lon="6.21">
        <ele>1172.5999755859</ele>
        <time>2020-12-16T14:27:44.000Z</time>
      </trkpt>
      <trkpt lat="45.28287" lon="6.21002">
        <ele>1171.5999755859</ele>
        <time>2020-12-16T14:27:45.000Z</time>
      </trkpt>
      <trkpt lat="45.28286" lon="6.21001">
        <ele>1170.5999755859</ele>
        <time>2020-12-16T14:27:47.000Z</time>
      </trkpt>
      <trkpt lat="45.28286" lon="6.21001">
        <ele>1169.5999755859</ele>
        <time>2020-12-16T14:27:49.000Z</time>
      </trkpt>
      <trkpt lat="45.28286" lon="6.21">
        <ele>1169.1999511719</ele>
        <time>2020-12-16T14:27:50.000Z</time>
      </trkpt>
      <trkpt lat="45.28286" lon="6.21001">
        <ele>1168.1999511719</ele>
        <time>2020-12-16T14:27:55.000Z</time>
      </trkpt>
      <trkpt lat="45.28286" lon="6.21003">
        <ele>1168.1999511719</ele>
        <time>2020-12-16T14:27:56.000Z</time>
      </trkpt>
      <trkpt lat="45.28286" lon="6.21005">
        <ele>1167.5999755859</ele>
        <time>2020-12-16T14:28:01.000Z</time>
      </trkpt>
      <trkpt lat="45.28286" lon="6.21005">
        <ele>1167.1999511719</ele>
        <time>2020-12-16T14:28:04.000Z</time>
      </trkpt>
      <trkpt lat="45.28286" lon="6.21005">
        <ele>1167.1999511719</ele>
        <time>2020-12-16T14:28:13.000Z</time>
      </trkpt>
      <trkpt lat="45.28286" lon="6.21005">
        <ele>1166.8000488281</ele>
        <time>2020-12-16T14:28:21.000Z</time>
      </trkpt>
      <trkpt lat="45.28286" lon="6.21005">
        <ele>1167</ele>
        <time>2020-12-16T14:28:32.000Z</time>
      </trkpt>
      <trkpt lat="45.28286" lon="6.21005">
        <ele>1166.8000488281</ele>
        <time>2020-12-16T14:28:44.000Z</time>
      </trkpt>
      <trkpt lat="45.28285" lon="6.21006">
        <ele>1166.5999755859</ele>
        <time>2020-12-16T14:28:51.000Z</time>
      </trkpt>
      <trkpt lat="45.28286" lon="6.2101">
        <ele>1167</ele>
        <time>2020-12-16T14:28:58.000Z</time>
      </trkpt>
      <trkpt lat="45.28291" lon="6.21015">
        <ele>1166.8000488281</ele>
        <time>2020-12-16T14:29:04.000Z</time>
      </trkpt>
      <trkpt lat="45.28295" lon="6.21017">
        <ele>1167.4000244141</ele>
        <time>2020-12-16T14:29:11.000Z</time>
      </trkpt>
      <trkpt lat="45.28308" lon="6.2102">
        <ele>1168.4000244141</ele>
        <time>2020-12-16T14:29:18.000Z</time>
      </trkpt>
      <trkpt lat="45.28309" lon="6.2102">
        <ele>1168.4000244141</ele>
        <time>2020-12-16T14:29:19.000Z</time>
      </trkpt>
      <trkpt lat="45.28317" lon="6.21022">
        <ele>1169</ele>
        <time>2020-12-16T14:29:26.000Z</time>
      </trkpt>
      <trkpt lat="45.28321" lon="6.21023">
        <ele>1169.4000244141</ele>
        <time>2020-12-16T14:29:28.000Z</time>
      </trkpt>
      <trkpt lat="45.28326" lon="6.21024">
        <ele>1169.5999755859</ele>
        <time>2020-12-16T14:29:32.000Z</time>
      </trkpt>
      <trkpt lat="45.28334" lon="6.21026">
        <ele>1170.1999511719</ele>
        <time>2020-12-16T14:29:40.000Z</time>
      </trkpt>
      <trkpt lat="45.28336" lon="6.21026">
        <ele>1170.4000244141</ele>
        <time>2020-12-16T14:29:42.000Z</time>
      </trkpt>
      <trkpt lat="45.28341" lon="6.21026">
        <ele>1170.4000244141</ele>
        <time>2020-12-16T14:29:49.000Z</time>
      </trkpt>
      <trkpt lat="45.28346" lon="6.21029">
        <ele>1171</ele>
        <time>2020-12-16T14:29:56.000Z</time>
      </trkpt>
      <trkpt lat="45.2835" lon="6.21033">
        <ele>1171.4000244141</ele>
        <time>2020-12-16T14:30:03.000Z</time>
      </trkpt>
      <trkpt lat="45.28351" lon="6.21033">
        <ele>1171.4000244141</ele>
        <time>2020-12-16T14:30:04.000Z</time>
      </trkpt>
      <trkpt lat="45.28368" lon="6.21033">
        <ele>1172.1999511719</ele>
        <time>2020-12-16T14:30:12.000Z</time>
      </trkpt>
      <trkpt lat="45.28375" lon="6.21036">
        <ele>1172.4000244141</ele>
        <time>2020-12-16T14:30:16.000Z</time>
      </trkpt>
      <trkpt lat="45.28386" lon="6.2104">
        <ele>1172.4000244141</ele>
        <time>2020-12-16T14:30:20.000Z</time>
      </trkpt>
      <trkpt lat="45.28385" lon="6.21047">
        <ele>1172.1999511719</ele>
        <time>2020-12-16T14:30:29.000Z</time>
      </trkpt>
      <trkpt lat="45.2838" lon="6.21049">
        <ele>1172.1999511719</ele>
        <time>2020-12-16T14:30:35.000Z</time>
      </trkpt>
      <trkpt lat="45.2838" lon="6.21051">
        <ele>1172.4000244141</ele>
        <time>2020-12-16T14:30:45.000Z</time>
      </trkpt>
      <trkpt lat="45.2839" lon="6.21055">
        <ele>1172</ele>
        <time>2020-12-16T14:30:53.000Z</time>
      </trkpt>
      <trkpt lat="45.284" lon="6.21056">
        <ele>1172</ele>
        <time>2020-12-16T14:31:00.000Z</time>
      </trkpt>
      <trkpt lat="45.28407" lon="6.21062">
        <ele>1171.8000488281</ele>
        <time>2020-12-16T14:31:08.000Z</time>
      </trkpt>
      <trkpt lat="45.28412" lon="6.21067">
        <ele>1172</ele>
        <time>2020-12-16T14:31:16.000Z</time>
      </trkpt>
      <trkpt lat="45.28413" lon="6.21068">
        <ele>1172</ele>
        <time>2020-12-16T14:31:24.000Z</time>
      </trkpt>
      <trkpt lat="45.28413" lon="6.21068">
        <ele>1171.1999511719</ele>
        <time>2020-12-16T14:31:27.000Z</time>
      </trkpt>
      <trkpt lat="45.2842" lon="6.21075">
        <ele>1170.4000244141</ele>
        <time>2020-12-16T14:31:31.000Z</time>
      </trkpt>
      <trkpt lat="45.28424" lon="6.21076">
        <ele>1170.1999511719</ele>
        <time>2020-12-16T14:31:32.000Z</time>
      </trkpt>
      <trkpt lat="45.28431" lon="6.21074">
        <ele>1169.8000488281</ele>
        <time>2020-12-16T14:31:39.000Z</time>
      </trkpt>
      <trkpt lat="45.28432" lon="6.21072">
        <ele>1169.8000488281</ele>
        <time>2020-12-16T14:31:42.000Z</time>
      </trkpt>
      <trkpt lat="45.28433" lon="6.21071">
        <ele>1169.4000244141</ele>
        <time>2020-12-16T14:31:46.000Z</time>
      </trkpt>
      <trkpt lat="45.28433" lon="6.21071">
        <ele>1169.1999511719</ele>
        <time>2020-12-16T14:31:49.000Z</time>
      </trkpt>
      <trkpt lat="45.28433" lon="6.21071">
        <ele>1168.4000244141</ele>
        <time>2020-12-16T14:31:56.000Z</time>
      </trkpt>
      <trkpt lat="45.28433" lon="6.21071">
        <ele>1168</ele>
        <time>2020-12-16T14:32:01.000Z</time>
      </trkpt>
      <trkpt lat="45.28444" lon="6.2107">
        <ele>1167.8000488281</ele>
        <time>2020-12-16T14:32:06.000Z</time>
      </trkpt>
      <trkpt lat="45.28445" lon="6.2107">
        <ele>1167.5999755859</ele>
        <time>2020-12-16T14:32:15.000Z</time>
      </trkpt>
      <trkpt lat="45.28445" lon="6.2107">
        <ele>1167.4000244141</ele>
        <time>2020-12-16T14:32:27.000Z</time>
      </trkpt>
      <trkpt lat="45.28445" lon="6.2107">
        <ele>1167.1999511719</ele>
        <time>2020-12-16T14:32:39.000Z</time>
      </trkpt>
      <trkpt lat="45.28445" lon="6.2107">
        <ele>1166.8000488281</ele>
        <time>2020-12-16T14:32:41.000Z</time>
      </trkpt>
      <trkpt lat="45.28446" lon="6.2107">
        <ele>1168</ele>
        <time>2020-12-16T14:32:49.000Z</time>
      </trkpt>
      <trkpt lat="45.28446" lon="6.2107">
        <ele>1168.1999511719</ele>
        <time>2020-12-16T14:32:51.000Z</time>
      </trkpt>
      <trkpt lat="45.28446" lon="6.2107">
        <ele>1167.4000244141</ele>
        <time>2020-12-16T14:33:07.000Z</time>
      </trkpt>
      <trkpt lat="45.28446" lon="6.2107">
        <ele>1166.8000488281</ele>
        <time>2020-12-16T14:33:11.000Z</time>
      </trkpt>
      <trkpt lat="45.28446" lon="6.2107">
        <ele>1167.8000488281</ele>
        <time>2020-12-16T14:33:16.000Z</time>
      </trkpt>
      <trkpt lat="45.28446" lon="6.2107">
        <ele>1168.8000488281</ele>
        <time>2020-12-16T14:33:18.000Z</time>
      </trkpt>
      <trkpt lat="45.28446" lon="6.2107">
        <ele>1169</ele>
        <time>2020-12-16T14:33:19.000Z</time>
      </trkpt>
      <trkpt lat="45.28446" lon="6.2107">
        <ele>1167.8000488281</ele>
        <time>2020-12-16T14:33:24.000Z</time>
      </trkpt>
      <trkpt lat="45.28447" lon="6.2107">
        <ele>1167.8000488281</ele>
        <time>2020-12-16T14:33:30.000Z</time>
      </trkpt>
      <trkpt lat="45.28447" lon="6.2107">
        <ele>1166.5999755859</ele>
        <time>2020-12-16T14:33:43.000Z</time>
      </trkpt>
      <trkpt lat="45.28447" lon="6.2107">
        <ele>1166.5999755859</ele>
        <time>2020-12-16T14:33:44.000Z</time>
      </trkpt>
      <trkpt lat="45.28447" lon="6.2107">
        <ele>1165.4000244141</ele>
        <time>2020-12-16T14:33:49.000Z</time>
      </trkpt>
      <trkpt lat="45.28447" lon="6.2107">
        <ele>1166.8000488281</ele>
        <time>2020-12-16T14:33:52.000Z</time>
      </trkpt>
      <trkpt lat="45.28447" lon="6.2107">
        <ele>1168</ele>
        <time>2020-12-16T14:33:53.000Z</time>
      </trkpt>
      <trkpt lat="45.28447" lon="6.2107">
        <ele>1168</ele>
        <time>2020-12-16T14:33:57.000Z</time>
      </trkpt>
      <trkpt lat="45.28447" lon="6.2107">
        <ele>1168</ele>
        <time>2020-12-16T14:33:58.000Z</time>
      </trkpt>
      <trkpt lat="45.28447" lon="6.2107">
        <ele>1167.5999755859</ele>
        <time>2020-12-16T14:34:14.000Z</time>
      </trkpt>
      <trkpt lat="45.28447" lon="6.2107">
        <ele>1166.4000244141</ele>
        <time>2020-12-16T14:34:22.000Z</time>
      </trkpt>
      <trkpt lat="45.28447" lon="6.2107">
        <ele>1164.8000488281</ele>
        <time>2020-12-16T14:34:24.000Z</time>
      </trkpt>
      <trkpt lat="45.28447" lon="6.2107">
        <ele>1166.4000244141</ele>
        <time>2020-12-16T14:34:30.000Z</time>
      </trkpt>
      <trkpt lat="45.28447" lon="6.2107">
        <ele>1164.1999511719</ele>
        <time>2020-12-16T14:34:35.000Z</time>
      </trkpt>
      <trkpt lat="45.28447" lon="6.2107">
        <ele>1162.5999755859</ele>
        <time>2020-12-16T14:34:36.000Z</time>
      </trkpt>
      <trkpt lat="45.28447" lon="6.2107">
        <ele>1161.4000244141</ele>
        <time>2020-12-16T14:34:38.000Z</time>
      </trkpt>
      <trkpt lat="45.28447" lon="6.2107">
        <ele>1163.1999511719</ele>
        <time>2020-12-16T14:34:40.000Z</time>
      </trkpt>
      <trkpt lat="45.28447" lon="6.2107">
        <ele>1166.4000244141</ele>
        <time>2020-12-16T14:34:41.000Z</time>
      </trkpt>
      <trkpt lat="45.28447" lon="6.2107">
        <ele>1169.4000244141</ele>
        <time>2020-12-16T14:34:42.000Z</time>
      </trkpt>
      <trkpt lat="45.28447" lon="6.2107">
        <ele>1170</ele>
        <time>2020-12-16T14:34:43.000Z</time>
      </trkpt>
      <trkpt lat="45.28447" lon="6.2107">
        <ele>1168</ele>
        <time>2020-12-16T14:34:51.000Z</time>
      </trkpt>
      <trkpt lat="45.28447" lon="6.2107">
        <ele>1167.4000244141</ele>
        <time>2020-12-16T14:34:56.000Z</time>
      </trkpt>
      <trkpt lat="45.28447" lon="6.2107">
        <ele>1166.5999755859</ele>
        <time>2020-12-16T14:35:06.000Z</time>
      </trkpt>
      <trkpt lat="45.28447" lon="6.2107">
        <ele>1166.5999755859</ele>
        <time>2020-12-16T14:35:08.000Z</time>
      </trkpt>
      <trkpt lat="45.28447" lon="6.2107">
        <ele>1168</ele>
        <time>2020-12-16T14:35:18.000Z</time>
      </trkpt>
      <trkpt lat="45.28447" lon="6.2107">
        <ele>1168.4000244141</ele>
        <time>2020-12-16T14:35:21.000Z</time>
      </trkpt>
      <trkpt lat="45.28447" lon="6.21069">
        <ele>1167.4000244141</ele>
        <time>2020-12-16T14:35:36.000Z</time>
      </trkpt>
      <trkpt lat="45.28447" lon="6.21069">
        <ele>1167.4000244141</ele>
        <time>2020-12-16T14:35:45.000Z</time>
      </trkpt>
      <trkpt lat="45.28447" lon="6.21069">
        <ele>1167.4000244141</ele>
        <time>2020-12-16T14:35:59.000Z</time>
      </trkpt>
      <trkpt lat="45.28451" lon="6.21067">
        <ele>1167.4000244141</ele>
        <time>2020-12-16T14:36:06.000Z</time>
      </trkpt>
      <trkpt lat="45.28453" lon="6.21068">
        <ele>1167.4000244141</ele>
        <time>2020-12-16T14:36:12.000Z</time>
      </trkpt>
      <trkpt lat="45.28464" lon="6.2107">
        <ele>1167</ele>
        <time>2020-12-16T14:36:18.000Z</time>
      </trkpt>
      <trkpt lat="45.28465" lon="6.2107">
        <ele>1166.8000488281</ele>
        <time>2020-12-16T14:36:19.000Z</time>
      </trkpt>
      <trkpt lat="45.28474" lon="6.21074">
        <ele>1166</ele>
        <time>2020-12-16T14:36:26.000Z</time>
      </trkpt>
      <trkpt lat="45.28477" lon="6.21075">
        <ele>1165.8000488281</ele>
        <time>2020-12-16T14:36:28.000Z</time>
      </trkpt>
      <trkpt lat="45.28483" lon="6.21077">
        <ele>1165.1999511719</ele>
        <time>2020-12-16T14:36:32.000Z</time>
      </trkpt>
      <trkpt lat="45.28485" lon="6.21078">
        <ele>1164.8000488281</ele>
        <time>2020-12-16T14:36:34.000Z</time>
      </trkpt>
      <trkpt lat="45.28488" lon="6.2108">
        <ele>1164.5999755859</ele>
        <time>2020-12-16T14:36:36.000Z</time>
      </trkpt>
      <trkpt lat="45.28496" lon="6.21087">
        <ele>1163.8000488281</ele>
        <time>2020-12-16T14:36:43.000Z</time>
      </trkpt>
      <trkpt lat="45.28498" lon="6.21088">
        <ele>1163.8000488281</ele>
        <time>2020-12-16T14:36:44.000Z</time>
      </trkpt>
      <trkpt lat="45.28505" lon="6.21097">
        <ele>1163.1999511719</ele>
        <time>2020-12-16T14:36:51.000Z</time>
      </trkpt>
      <trkpt lat="45.28506" lon="6.21098">
        <ele>1162.8000488281</ele>
        <time>2020-12-16T14:36:56.000Z</time>
      </trkpt>
      <trkpt lat="45.28509" lon="6.21099">
        <ele>1162.8000488281</ele>
        <time>2020-12-16T14:36:59.000Z</time>
      </trkpt>
      <trkpt lat="45.28517" lon="6.21107">
        <ele>1162.1999511719</ele>
        <time>2020-12-16T14:37:07.000Z</time>
      </trkpt>
      <trkpt lat="45.28522" lon="6.21114">
        <ele>1161.8000488281</ele>
        <time>2020-12-16T14:37:11.000Z</time>
      </trkpt>
      <trkpt lat="45.28528" lon="6.21119">
        <ele>1161.1999511719</ele>
        <time>2020-12-16T14:37:16.000Z</time>
      </trkpt>
      <trkpt lat="45.28535" lon="6.21123">
        <ele>1160.5999755859</ele>
        <time>2020-12-16T14:37:22.000Z</time>
      </trkpt>
      <trkpt lat="45.28536" lon="6.21123">
        <ele>1160.4000244141</ele>
        <time>2020-12-16T14:37:23.000Z</time>
      </trkpt>
      <trkpt lat="45.28542" lon="6.21126">
        <ele>1159.4000244141</ele>
        <time>2020-12-16T14:37:30.000Z</time>
      </trkpt>
      <trkpt lat="45.28545" lon="6.21127">
        <ele>1159.1999511719</ele>
        <time>2020-12-16T14:37:33.000Z</time>
      </trkpt>
      <trkpt lat="45.2855" lon="6.21135">
        <ele>1158.4000244141</ele>
        <time>2020-12-16T14:37:40.000Z</time>
      </trkpt>
      <trkpt lat="45.28558" lon="6.21144">
        <ele>1157.4000244141</ele>
        <time>2020-12-16T14:37:47.000Z</time>
      </trkpt>
      <trkpt lat="45.28558" lon="6.21145">
        <ele>1157.1999511719</ele>
        <time>2020-12-16T14:37:48.000Z</time>
      </trkpt>
      <trkpt lat="45.28565" lon="6.21151">
        <ele>1156.1999511719</ele>
        <time>2020-12-16T14:37:54.000Z</time>
      </trkpt>
      <trkpt lat="45.28566" lon="6.21151">
        <ele>1156</ele>
        <time>2020-12-16T14:37:55.000Z</time>
      </trkpt>
      <trkpt lat="45.28572" lon="6.21153">
        <ele>1155</ele>
        <time>2020-12-16T14:38:01.000Z</time>
      </trkpt>
      <trkpt lat="45.28574" lon="6.21153">
        <ele>1154.8000488281</ele>
        <time>2020-12-16T14:38:03.000Z</time>
      </trkpt>
      <trkpt lat="45.28582" lon="6.21155">
        <ele>1154</ele>
        <time>2020-12-16T14:38:09.000Z</time>
      </trkpt>
      <trkpt lat="45.28583" lon="6.21155">
        <ele>1153.8000488281</ele>
        <time>2020-12-16T14:38:10.000Z</time>
      </trkpt>
      <trkpt lat="45.28593" lon="6.21159">
        <ele>1153</ele>
        <time>2020-12-16T14:38:17.000Z</time>
      </trkpt>
      <trkpt lat="45.28594" lon="6.2116">
        <ele>1152.8000488281</ele>
        <time>2020-12-16T14:38:18.000Z</time>
      </trkpt>
      <trkpt lat="45.28603" lon="6.21167">
        <ele>1152</ele>
        <time>2020-12-16T14:38:25.000Z</time>
      </trkpt>
      <trkpt lat="45.28612" lon="6.21172">
        <ele>1151.1999511719</ele>
        <time>2020-12-16T14:38:32.000Z</time>
      </trkpt>
      <trkpt lat="45.28615" lon="6.21174">
        <ele>1151</ele>
        <time>2020-12-16T14:38:35.000Z</time>
      </trkpt>
      <trkpt lat="45.28619" lon="6.21179">
        <ele>1150.4000244141</ele>
        <time>2020-12-16T14:38:40.000Z</time>
      </trkpt>
      <trkpt lat="45.28622" lon="6.21181">
        <ele>1150</ele>
        <time>2020-12-16T14:38:44.000Z</time>
      </trkpt>
      <trkpt lat="45.28623" lon="6.21181">
        <ele>1149.8000488281</ele>
        <time>2020-12-16T14:38:45.000Z</time>
      </trkpt>
      <trkpt lat="45.28626" lon="6.21183">
        <ele>1149.5999755859</ele>
        <time>2020-12-16T14:38:48.000Z</time>
      </trkpt>
      <trkpt lat="45.28631" lon="6.21187">
        <ele>1148.8000488281</ele>
        <time>2020-12-16T14:38:55.000Z</time>
      </trkpt>
      <trkpt lat="45.28632" lon="6.21188">
        <ele>1148.8000488281</ele>
        <time>2020-12-16T14:38:56.000Z</time>
      </trkpt>
      <trkpt lat="45.2864" lon="6.21196">
        <ele>1148.4000244141</ele>
        <time>2020-12-16T14:39:03.000Z</time>
      </trkpt>
      <trkpt lat="45.28646" lon="6.21204">
        <ele>1147.8000488281</ele>
        <time>2020-12-16T14:39:09.000Z</time>
      </trkpt>
      <trkpt lat="45.28647" lon="6.21206">
        <ele>1147.5999755859</ele>
        <time>2020-12-16T14:39:10.000Z</time>
      </trkpt>
      <trkpt lat="45.28658" lon="6.21214">
        <ele>1147</ele>
        <time>2020-12-16T14:39:19.000Z</time>
      </trkpt>
      <trkpt lat="45.28659" lon="6.21214">
        <ele>1146.8000488281</ele>
        <time>2020-12-16T14:39:20.000Z</time>
      </trkpt>
      <trkpt lat="45.28668" lon="6.21218">
        <ele>1146.1999511719</ele>
        <time>2020-12-16T14:39:27.000Z</time>
      </trkpt>
      <trkpt lat="45.28674" lon="6.21222">
        <ele>1145.8000488281</ele>
        <time>2020-12-16T14:39:32.000Z</time>
      </trkpt>
      <trkpt lat="45.28678" lon="6.21225">
        <ele>1145.4000244141</ele>
        <time>2020-12-16T14:39:36.000Z</time>
      </trkpt>
      <trkpt lat="45.28685" lon="6.21232">
        <ele>1144.8000488281</ele>
        <time>2020-12-16T14:39:44.000Z</time>
      </trkpt>
      <trkpt lat="45.28687" lon="6.21233">
        <ele>1144.5999755859</ele>
        <time>2020-12-16T14:39:45.000Z</time>
      </trkpt>
      <trkpt lat="45.28691" lon="6.2124">
        <ele>1144.4000244141</ele>
        <time>2020-12-16T14:39:50.000Z</time>
      </trkpt>
      <trkpt lat="45.28697" lon="6.21248">
        <ele>1143.8000488281</ele>
        <time>2020-12-16T14:39:57.000Z</time>
      </trkpt>
      <trkpt lat="45.28701" lon="6.2125">
        <ele>1143.5999755859</ele>
        <time>2020-12-16T14:40:00.000Z</time>
      </trkpt>
      <trkpt lat="45.28704" lon="6.21253">
        <ele>1143.5999755859</ele>
        <time>2020-12-16T14:40:04.000Z</time>
      </trkpt>
      <trkpt lat="45.28714" lon="6.21259">
        <ele>1143</ele>
        <time>2020-12-16T14:40:13.000Z</time>
      </trkpt>
      <trkpt lat="45.28719" lon="6.21263">
        <ele>1142.5999755859</ele>
        <time>2020-12-16T14:40:20.000Z</time>
      </trkpt>
      <trkpt lat="45.28719" lon="6.21263">
        <ele>1142.5999755859</ele>
        <time>2020-12-16T14:40:21.000Z</time>
      </trkpt>
      <trkpt lat="45.28723" lon="6.21267">
        <ele>1142.4000244141</ele>
        <time>2020-12-16T14:40:31.000Z</time>
      </trkpt>
      <trkpt lat="45.28733" lon="6.21276">
        <ele>1142</ele>
        <time>2020-12-16T14:40:40.000Z</time>
      </trkpt>
      <trkpt lat="45.2874" lon="6.21283">
        <ele>1141.8000488281</ele>
        <time>2020-12-16T14:40:47.000Z</time>
      </trkpt>
      <trkpt lat="45.28742" lon="6.21288">
        <ele>1141.5999755859</ele>
        <time>2020-12-16T14:40:50.000Z</time>
      </trkpt>
      <trkpt lat="45.28747" lon="6.21296">
        <ele>1141</ele>
        <time>2020-12-16T14:40:55.000Z</time>
      </trkpt>
      <trkpt lat="45.28753" lon="6.21304">
        <ele>1140.8000488281</ele>
        <time>2020-12-16T14:41:02.000Z</time>
      </trkpt>
      <trkpt lat="45.28756" lon="6.21308">
        <ele>1140.5999755859</ele>
        <time>2020-12-16T14:41:05.000Z</time>
      </trkpt>
      <trkpt lat="45.28759" lon="6.21313">
        <ele>1140.4000244141</ele>
        <time>2020-12-16T14:41:09.000Z</time>
      </trkpt>
      <trkpt lat="45.28764" lon="6.2132">
        <ele>1140.1999511719</ele>
        <time>2020-12-16T14:41:15.000Z</time>
      </trkpt>
      <trkpt lat="45.28769" lon="6.21325">
        <ele>1139.8000488281</ele>
        <time>2020-12-16T14:41:21.000Z</time>
      </trkpt>
      <trkpt lat="45.28775" lon="6.21333">
        <ele>1139.5999755859</ele>
        <time>2020-12-16T14:41:28.000Z</time>
      </trkpt>
      <trkpt lat="45.28776" lon="6.21336">
        <ele>1139.5999755859</ele>
        <time>2020-12-16T14:41:30.000Z</time>
      </trkpt>
      <trkpt lat="45.28782" lon="6.21342">
        <ele>1139.1999511719</ele>
        <time>2020-12-16T14:41:35.000Z</time>
      </trkpt>
      <trkpt lat="45.2879" lon="6.2135">
        <ele>1138.5999755859</ele>
        <time>2020-12-16T14:41:44.000Z</time>
      </trkpt>
      <trkpt lat="45.28796" lon="6.21354">
        <ele>1138.5999755859</ele>
        <time>2020-12-16T14:41:50.000Z</time>
      </trkpt>
      <trkpt lat="45.288" lon="6.21358">
        <ele>1138.5999755859</ele>
        <time>2020-12-16T14:41:54.000Z</time>
      </trkpt>
      <trkpt lat="45.28801" lon="6.21359">
        <ele>1138.4000244141</ele>
        <time>2020-12-16T14:41:56.000Z</time>
      </trkpt>
      <trkpt lat="45.28808" lon="6.21366">
        <ele>1137.8000488281</ele>
        <time>2020-12-16T14:42:04.000Z</time>
      </trkpt>
      <trkpt lat="45.28813" lon="6.21371">
        <ele>1137.4000244141</ele>
        <time>2020-12-16T14:42:10.000Z</time>
      </trkpt>
      <trkpt lat="45.28816" lon="6.21372">
        <ele>1137.1999511719</ele>
        <time>2020-12-16T14:42:12.000Z</time>
      </trkpt>
      <trkpt lat="45.28824" lon="6.21381">
        <ele>1136.8000488281</ele>
        <time>2020-12-16T14:42:20.000Z</time>
      </trkpt>
      <trkpt lat="45.28827" lon="6.21386">
        <ele>1136.4000244141</ele>
        <time>2020-12-16T14:42:24.000Z</time>
      </trkpt>
      <trkpt lat="45.28831" lon="6.21388">
        <ele>1136.1999511719</ele>
        <time>2020-12-16T14:42:27.000Z</time>
      </trkpt>
      <trkpt lat="45.28837" lon="6.2139">
        <ele>1135.5999755859</ele>
        <time>2020-12-16T14:42:35.000Z</time>
      </trkpt>
      <trkpt lat="45.28842" lon="6.21393">
        <ele>1135.4000244141</ele>
        <time>2020-12-16T14:42:40.000Z</time>
      </trkpt>
      <trkpt lat="45.28845" lon="6.21398">
        <ele>1135.1999511719</ele>
        <time>2020-12-16T14:42:43.000Z</time>
      </trkpt>
      <trkpt lat="45.28853" lon="6.21413">
        <ele>1134.5999755859</ele>
        <time>2020-12-16T14:42:52.000Z</time>
      </trkpt>
      <trkpt lat="45.28856" lon="6.21418">
        <ele>1134.4000244141</ele>
        <time>2020-12-16T14:42:55.000Z</time>
      </trkpt>
      <trkpt lat="45.28858" lon="6.21424">
        <ele>1134</ele>
        <time>2020-12-16T14:43:00.000Z</time>
      </trkpt>
      <trkpt lat="45.2886" lon="6.21436">
        <ele>1133.4000244141</ele>
        <time>2020-12-16T14:43:08.000Z</time>
      </trkpt>
      <trkpt lat="45.28861" lon="6.2144">
        <ele>1133.4000244141</ele>
        <time>2020-12-16T14:43:11.000Z</time>
      </trkpt>
      <trkpt lat="45.28864" lon="6.21448">
        <ele>1132.5999755859</ele>
        <time>2020-12-16T14:43:16.000Z</time>
      </trkpt>
      <trkpt lat="45.28867" lon="6.21454">
        <ele>1132.1999511719</ele>
        <time>2020-12-16T14:43:20.000Z</time>
      </trkpt>
      <trkpt lat="45.28869" lon="6.21459">
        <ele>1131.8000488281</ele>
        <time>2020-12-16T14:43:23.000Z</time>
      </trkpt>
      <trkpt lat="45.28877" lon="6.21469">
        <ele>1131.1999511719</ele>
        <time>2020-12-16T14:43:30.000Z</time>
      </trkpt>
      <trkpt lat="45.28878" lon="6.2147">
        <ele>1131</ele>
        <time>2020-12-16T14:43:31.000Z</time>
      </trkpt>
      <trkpt lat="45.28886" lon="6.21474">
        <ele>1130.1999511719</ele>
        <time>2020-12-16T14:43:39.000Z</time>
      </trkpt>
      <trkpt lat="45.28892" lon="6.21479">
        <ele>1129.5999755859</ele>
        <time>2020-12-16T14:43:47.000Z</time>
      </trkpt>
      <trkpt lat="45.28895" lon="6.21485">
        <ele>1129.1999511719</ele>
        <time>2020-12-16T14:43:51.000Z</time>
      </trkpt>
      <trkpt lat="45.28896" lon="6.2149">
        <ele>1129</ele>
        <time>2020-12-16T14:43:54.000Z</time>
      </trkpt>
      <trkpt lat="45.28899" lon="6.21496">
        <ele>1128.1999511719</ele>
        <time>2020-12-16T14:43:58.000Z</time>
      </trkpt>
      <trkpt lat="45.289" lon="6.21502">
        <ele>1128</ele>
        <time>2020-12-16T14:44:01.000Z</time>
      </trkpt>
      <trkpt lat="45.28904" lon="6.21511">
        <ele>1127.4000244141</ele>
        <time>2020-12-16T14:44:06.000Z</time>
      </trkpt>
      <trkpt lat="45.28906" lon="6.2152">
        <ele>1127</ele>
        <time>2020-12-16T14:44:10.000Z</time>
      </trkpt>
      <trkpt lat="45.28908" lon="6.21524">
        <ele>1126.8000488281</ele>
        <time>2020-12-16T14:44:13.000Z</time>
      </trkpt>
      <trkpt lat="45.28911" lon="6.21533">
        <ele>1126</ele>
        <time>2020-12-16T14:44:20.000Z</time>
      </trkpt>
      <trkpt lat="45.28913" lon="6.21535">
        <ele>1125.5999755859</ele>
        <time>2020-12-16T14:44:22.000Z</time>
      </trkpt>
      <trkpt lat="45.28913" lon="6.21536">
        <ele>1125.5999755859</ele>
        <time>2020-12-16T14:44:23.000Z</time>
      </trkpt>
      <trkpt lat="45.28918" lon="6.21546">
        <ele>1125</ele>
        <time>2020-12-16T14:44:30.000Z</time>
      </trkpt>
      <trkpt lat="45.28918" lon="6.21547">
        <ele>1124.8000488281</ele>
        <time>2020-12-16T14:44:31.000Z</time>
      </trkpt>
      <trkpt lat="45.28923" lon="6.21555">
        <ele>1124.1999511719</ele>
        <time>2020-12-16T14:44:38.000Z</time>
      </trkpt>
      <trkpt lat="45.28926" lon="6.21561">
        <ele>1123.8000488281</ele>
        <time>2020-12-16T14:44:42.000Z</time>
      </trkpt>
      <trkpt lat="45.28928" lon="6.21565">
        <ele>1123.1999511719</ele>
        <time>2020-12-16T14:44:46.000Z</time>
      </trkpt>
      <trkpt lat="45.2893" lon="6.21569">
        <ele>1122.8000488281</ele>
        <time>2020-12-16T14:44:49.000Z</time>
      </trkpt>
      <trkpt lat="45.28934" lon="6.21575">
        <ele>1122.1999511719</ele>
        <time>2020-12-16T14:44:54.000Z</time>
      </trkpt>
      <trkpt lat="45.28937" lon="6.21581">
        <ele>1121.8000488281</ele>
        <time>2020-12-16T14:44:58.000Z</time>
      </trkpt>
      <trkpt lat="45.28939" lon="6.21587">
        <ele>1121.4000244141</ele>
        <time>2020-12-16T14:45:01.000Z</time>
      </trkpt>
      <trkpt lat="45.28941" lon="6.21594">
        <ele>1120.5999755859</ele>
        <time>2020-12-16T14:45:07.000Z</time>
      </trkpt>
      <trkpt lat="45.28943" lon="6.21596">
        <ele>1120.5999755859</ele>
        <time>2020-12-16T14:45:08.000Z</time>
      </trkpt>
      <trkpt lat="45.28947" lon="6.21604">
        <ele>1119.8000488281</ele>
        <time>2020-12-16T14:45:15.000Z</time>
      </trkpt>
      <trkpt lat="45.28948" lon="6.21606">
        <ele>1119.5999755859</ele>
        <time>2020-12-16T14:45:18.000Z</time>
      </trkpt>
      <trkpt lat="45.28951" lon="6.21612">
        <ele>1119.1999511719</ele>
        <time>2020-12-16T14:45:22.000Z</time>
      </trkpt>
      <trkpt lat="45.28953" lon="6.21617">
        <ele>1118.5999755859</ele>
        <time>2020-12-16T14:45:27.000Z</time>
      </trkpt>
      <trkpt lat="45.28955" lon="6.21621">
        <ele>1118.4000244141</ele>
        <time>2020-12-16T14:45:30.000Z</time>
      </trkpt>
      <trkpt lat="45.2896" lon="6.21626">
        <ele>1117.8000488281</ele>
        <time>2020-12-16T14:45:36.000Z</time>
      </trkpt>
      <trkpt lat="45.28961" lon="6.21628">
        <ele>1117.5999755859</ele>
        <time>2020-12-16T14:45:38.000Z</time>
      </trkpt>
      <trkpt lat="45.28967" lon="6.21632">
        <ele>1117</ele>
        <time>2020-12-16T14:45:44.000Z</time>
      </trkpt>
      <trkpt lat="45.28971" lon="6.21636">
        <ele>1116.5999755859</ele>
        <time>2020-12-16T14:45:48.000Z</time>
      </trkpt>
      <trkpt lat="45.28975" lon="6.21641">
        <ele>1116.4000244141</ele>
        <time>2020-12-16T14:45:52.000Z</time>
      </trkpt>
      <trkpt lat="45.2898" lon="6.21645">
        <ele>1115.4000244141</ele>
        <time>2020-12-16T14:45:58.000Z</time>
      </trkpt>
      <trkpt lat="45.28981" lon="6.21645">
        <ele>1115.1999511719</ele>
        <time>2020-12-16T14:46:00.000Z</time>
      </trkpt>
      <trkpt lat="45.28988" lon="6.21648">
        <ele>1114.4000244141</ele>
        <time>2020-12-16T14:46:08.000Z</time>
      </trkpt>
      <trkpt lat="45.28988" lon="6.21649">
        <ele>1114.4000244141</ele>
        <time>2020-12-16T14:46:09.000Z</time>
      </trkpt>
      <trkpt lat="45.28992" lon="6.21656">
        <ele>1113.4000244141</ele>
        <time>2020-12-16T14:46:16.000Z</time>
      </trkpt>
      <trkpt lat="45.28992" lon="6.21658">
        <ele>1113.1999511719</ele>
        <time>2020-12-16T14:46:17.000Z</time>
      </trkpt>
      <trkpt lat="45.28994" lon="6.21668">
        <ele>1112.1999511719</ele>
        <time>2020-12-16T14:46:21.000Z</time>
      </trkpt>
      <trkpt lat="45.28993" lon="6.21676">
        <ele>1111.4000244141</ele>
        <time>2020-12-16T14:46:25.000Z</time>
      </trkpt>
      <trkpt lat="45.28993" lon="6.21679">
        <ele>1111.1999511719</ele>
        <time>2020-12-16T14:46:27.000Z</time>
      </trkpt>
      <trkpt lat="45.28993" lon="6.21688">
        <ele>1110.4000244141</ele>
        <time>2020-12-16T14:46:32.000Z</time>
      </trkpt>
      <trkpt lat="45.28995" lon="6.2169">
        <ele>1110</ele>
        <time>2020-12-16T14:46:34.000Z</time>
      </trkpt>
      <trkpt lat="45.28999" lon="6.21695">
        <ele>1109.4000244141</ele>
        <time>2020-12-16T14:46:40.000Z</time>
      </trkpt>
      <trkpt lat="45.29" lon="6.21695">
        <ele>1108.8000488281</ele>
        <time>2020-12-16T14:46:43.000Z</time>
      </trkpt>
      <trkpt lat="45.29003" lon="6.21695">
        <ele>1108.5999755859</ele>
        <time>2020-12-16T14:46:46.000Z</time>
      </trkpt>
      <trkpt lat="45.29008" lon="6.21697">
        <ele>1108</ele>
        <time>2020-12-16T14:46:53.000Z</time>
      </trkpt>
      <trkpt lat="45.29008" lon="6.21697">
        <ele>1107.8000488281</ele>
        <time>2020-12-16T14:46:54.000Z</time>
      </trkpt>
      <trkpt lat="45.29008" lon="6.21697">
        <ele>1107</ele>
        <time>2020-12-16T14:47:02.000Z</time>
      </trkpt>
      <trkpt lat="45.29008" lon="6.21697">
        <ele>1106.8000488281</ele>
        <time>2020-12-16T14:47:13.000Z</time>
      </trkpt>
      <trkpt lat="45.29008" lon="6.21697">
        <ele>1107</ele>
        <time>2020-12-16T14:47:24.000Z</time>
      </trkpt>
      <trkpt lat="45.29009" lon="6.21698">
        <ele>1107</ele>
        <time>2020-12-16T14:47:37.000Z</time>
      </trkpt>
      <trkpt lat="45.29009" lon="6.21698">
        <ele>1106.5999755859</ele>
        <time>2020-12-16T14:47:40.000Z</time>
      </trkpt>
      <trkpt lat="45.29009" lon="6.21698">
        <ele>1105</ele>
        <time>2020-12-16T14:47:46.000Z</time>
      </trkpt>
      <trkpt lat="45.29009" lon="6.21698">
        <ele>1108.1999511719</ele>
        <time>2020-12-16T14:47:51.000Z</time>
      </trkpt>
      <trkpt lat="45.29009" lon="6.21698">
        <ele>1110.1999511719</ele>
        <time>2020-12-16T14:47:52.000Z</time>
      </trkpt>
      <trkpt lat="45.29009" lon="6.21698">
        <ele>1111.4000244141</ele>
        <time>2020-12-16T14:47:53.000Z</time>
      </trkpt>
      <trkpt lat="45.29009" lon="6.21698">
        <ele>1109.1999511719</ele>
        <time>2020-12-16T14:47:56.000Z</time>
      </trkpt>
      <trkpt lat="45.29009" lon="6.21698">
        <ele>1108</ele>
        <time>2020-12-16T14:47:59.000Z</time>
      </trkpt>
      <trkpt lat="45.29009" lon="6.21698">
        <ele>1107.5999755859</ele>
        <time>2020-12-16T14:48:00.000Z</time>
      </trkpt>
      <trkpt lat="45.29009" lon="6.21698">
        <ele>1107</ele>
        <time>2020-12-16T14:48:04.000Z</time>
      </trkpt>
      <trkpt lat="45.29014" lon="6.21713">
        <ele>1108.1999511719</ele>
        <time>2020-12-16T14:48:58.000Z</time>
      </trkpt>
    </trkseg>
  </trk>
</gpx>